﻿<?xml version="1.0" encoding="utf-8"?><gpx creator="Garmin Desktop App" version="1.1" xsi:schemaLocation="http://www.topografix.com/GPX/1/1 http://www.topografix.com/GPX/1/1/gpx.xsd http://www.garmin.com/xmlschemas/WaypointExtension/v1 http://www8.garmin.com/xmlschemas/WaypointExtensionv1.xsd http://www.garmin.com/xmlschemas/TrackPointExtension/v1 http://www.garmin.com/xmlschemas/TrackPointExtensionv1.xsd http://www.garmin.com/xmlschemas/GpxExtensions/v3 http://www8.garmin.com/xmlschemas/GpxExtensionsv3.xsd http://www.garmin.com/xmlschemas/ActivityExtension/v1 http://www8.garmin.com/xmlschemas/ActivityExtensionv1.xsd http://www.garmin.com/xmlschemas/AdventuresExtensions/v1 http://www8.garmin.com/xmlschemas/AdventuresExtensionv1.xsd http://www.garmin.com/xmlschemas/PressureExtension/v1 http://www.garmin.com/xmlschemas/PressureExtensionv1.xsd http://www.garmin.com/xmlschemas/TripExtensions/v1 http://www.garmin.com/xmlschemas/TripExtensionsv1.xsd http://www.garmin.com/xmlschemas/TripMetaDataExtensions/v1 http://www.garmin.com/xmlschemas/TripMetaDataExtensionsv1.xsd http://www.garmin.com/xmlschemas/ViaPointTransportationModeExtensions/v1 http://www.garmin.com/xmlschemas/ViaPointTransportationModeExtensionsv1.xsd http://www.garmin.com/xmlschemas/CreationTimeExtension/v1 http://www.garmin.com/xmlschemas/CreationTimeExtensionsv1.xsd http://www.garmin.com/xmlschemas/AccelerationExtension/v1 http://www.garmin.com/xmlschemas/AccelerationExtensionv1.xsd http://www.garmin.com/xmlschemas/PowerExtension/v1 http://www.garmin.com/xmlschemas/PowerExtensionv1.xsd http://www.garmin.com/xmlschemas/VideoExtension/v1 http://www.garmin.com/xmlschemas/VideoExtensionv1.xsd" xmlns="http://www.topografix.com/GPX/1/1" xmlns:xsi="http://www.w3.org/2001/XMLSchema-instance" xmlns:wptx1="http://www.garmin.com/xmlschemas/WaypointExtension/v1" xmlns:gpxtrx="http://www.garmin.com/xmlschemas/GpxExtensions/v3" xmlns:gpxtpx="http://www.garmin.com/xmlschemas/TrackPointExtension/v1" xmlns:gpxx="http://www.garmin.com/xmlschemas/GpxExtensions/v3" xmlns:trp="http://www.garmin.com/xmlschemas/TripExtensions/v1" xmlns:adv="http://www.garmin.com/xmlschemas/AdventuresExtensions/v1" xmlns:prs="http://www.garmin.com/xmlschemas/PressureExtension/v1" xmlns:tmd="http://www.garmin.com/xmlschemas/TripMetaDataExtensions/v1" xmlns:vptm="http://www.garmin.com/xmlschemas/ViaPointTransportationModeExtensions/v1" xmlns:ctx="http://www.garmin.com/xmlschemas/CreationTimeExtension/v1" xmlns:gpxacc="http://www.garmin.com/xmlschemas/AccelerationExtension/v1" xmlns:gpxpx="http://www.garmin.com/xmlschemas/PowerExtension/v1" xmlns:vidx1="http://www.garmin.com/xmlschemas/VideoExtension/v1">

  <metadata>
    <link href="http://www.garmin.com">
      <text>Garmin International</text>
    </link>
    <time>2023-09-11T12:25:15Z</time>
    <bounds maxlat="46.386395366862416" maxlon="8.410277673974633" minlat="46.249389890581369" minlon="8.157631941139698" />
  </metadata>

  <trk>
    <name>alpe devero formazza2023-09-10</name>
    <extensions>
      <gpxx:TrackExtension>
        <gpxx:DisplayColor>Yellow</gpxx:DisplayColor>
      </gpxx:TrackExtension>
    </extensions>
    <trkseg>
      <trkpt lat="46.320393998175859" lon="8.260959768667817">
        <ele>1628.6199999999999</ele>
        <time>2023-09-10T05:42:47Z</time>
      </trkpt>
      <trkpt lat="46.320403218269348" lon="8.260964211076498">
        <ele>1629.3499999999999</ele>
        <time>2023-09-10T05:43:41Z</time>
      </trkpt>
      <trkpt lat="46.320415707305074" lon="8.260975694283843">
        <ele>1630.03</ele>
        <time>2023-09-10T05:44:35Z</time>
      </trkpt>
      <trkpt lat="46.320396764203906" lon="8.260971335694194">
        <ele>1630.5799999999999</ele>
        <time>2023-09-10T05:45:31Z</time>
      </trkpt>
      <trkpt lat="46.320401290431619" lon="8.260966558009386">
        <ele>1630.9400000000001</ele>
        <time>2023-09-10T05:46:18Z</time>
      </trkpt>
      <trkpt lat="46.32040430791676" lon="8.260958511382341">
        <ele>1631.4200000000001</ele>
        <time>2023-09-10T05:46:50Z</time>
      </trkpt>
      <trkpt lat="46.320402044802904" lon="8.260951470583677">
        <ele>1632.03</ele>
        <time>2023-09-10T05:47:07Z</time>
      </trkpt>
      <trkpt lat="46.320400955155492" lon="8.26095113530755">
        <ele>1632.0899999999999</ele>
        <time>2023-09-10T05:47:24Z</time>
      </trkpt>
      <trkpt lat="46.320380503311753" lon="8.260948453098536">
        <ele>1632.4300000000001</ele>
        <time>2023-09-10T05:47:51Z</time>
      </trkpt>
      <trkpt lat="46.320374216884375" lon="8.260949542745948">
        <ele>1632.54</ele>
        <time>2023-09-10T05:48:19Z</time>
      </trkpt>
      <trkpt lat="46.320368098095059" lon="8.260942501947284">
        <ele>1632.4400000000001</ele>
        <time>2023-09-10T05:48:48Z</time>
      </trkpt>
      <trkpt lat="46.320357955992222" lon="8.260926241055131">
        <ele>1632.5899999999999</ele>
        <time>2023-09-10T05:49:07Z</time>
      </trkpt>
      <trkpt lat="46.320313028991222" lon="8.260933281853795">
        <ele>1632.1900000000001</ele>
        <time>2023-09-10T05:49:23Z</time>
      </trkpt>
      <trkpt lat="46.320310262963176" lon="8.26094183139503">
        <ele>1632.1500000000001</ele>
        <time>2023-09-10T05:49:24Z</time>
      </trkpt>
      <trkpt lat="46.320258295163512" lon="8.261002013459802">
        <ele>1631.5</ele>
        <time>2023-09-10T05:49:35Z</time>
      </trkpt>
      <trkpt lat="46.320252008736134" lon="8.261029841378331">
        <ele>1631.27</ele>
        <time>2023-09-10T05:49:44Z</time>
      </trkpt>
      <trkpt lat="46.32025527767837" lon="8.261094968765974">
        <ele>1630.8399999999999</ele>
        <time>2023-09-10T05:49:48Z</time>
      </trkpt>
      <trkpt lat="46.320240357890725" lon="8.261362686753273">
        <ele>1630.3199999999999</ele>
        <time>2023-09-10T05:50:02Z</time>
      </trkpt>
      <trkpt lat="46.320246560499072" lon="8.261509872972965">
        <ele>1630.45</ele>
        <time>2023-09-10T05:50:10Z</time>
      </trkpt>
      <trkpt lat="46.320286458358169" lon="8.261716067790985">
        <ele>1630.1700000000001</ele>
        <time>2023-09-10T05:50:21Z</time>
      </trkpt>
      <trkpt lat="46.32031973451376" lon="8.26196501031518">
        <ele>1630.6400000000001</ele>
        <time>2023-09-10T05:50:34Z</time>
      </trkpt>
      <trkpt lat="46.320341946557164" lon="8.262236416339874">
        <ele>1630.0899999999999</ele>
        <time>2023-09-10T05:50:49Z</time>
      </trkpt>
      <trkpt lat="46.320338174700737" lon="8.262260556221008">
        <ele>1630.1300000000001</ele>
        <time>2023-09-10T05:51:03Z</time>
      </trkpt>
      <trkpt lat="46.320393159985542" lon="8.26237790286541">
        <ele>1630.8099999999999</ele>
        <time>2023-09-10T05:51:15Z</time>
      </trkpt>
      <trkpt lat="46.320414785295725" lon="8.262409418821335">
        <ele>1631.0899999999999</ele>
        <time>2023-09-10T05:51:18Z</time>
      </trkpt>
      <trkpt lat="46.320503884926438" lon="8.262523831799626">
        <ele>1632.6600000000001</ele>
        <time>2023-09-10T05:51:30Z</time>
      </trkpt>
      <trkpt lat="46.320530455559492" lon="8.262543277814984">
        <ele>1632.8699999999999</ele>
        <time>2023-09-10T05:51:33Z</time>
      </trkpt>
      <trkpt lat="46.320560462772846" lon="8.262556688860059">
        <ele>1633.1700000000001</ele>
        <time>2023-09-10T05:51:36Z</time>
      </trkpt>
      <trkpt lat="46.3206353969872" lon="8.262589210644364">
        <ele>1634.6900000000001</ele>
        <time>2023-09-10T05:51:44Z</time>
      </trkpt>
      <trkpt lat="46.320731788873672" lon="8.262662803754211">
        <ele>1636.3699999999999</ele>
        <time>2023-09-10T05:51:55Z</time>
      </trkpt>
      <trkpt lat="46.320841927081347" lon="8.262741509824991">
        <ele>1638.3699999999999</ele>
        <time>2023-09-10T05:52:08Z</time>
      </trkpt>
      <trkpt lat="46.320948963984847" lon="8.262797081843019">
        <ele>1640.3800000000001</ele>
        <time>2023-09-10T05:52:22Z</time>
      </trkpt>
      <trkpt lat="46.321070585399866" lon="8.262820718809962">
        <ele>1642.1600000000001</ele>
        <time>2023-09-10T05:52:37Z</time>
      </trkpt>
      <trkpt lat="46.321181477978826" lon="8.26281032525003">
        <ele>1644.02</ele>
        <time>2023-09-10T05:52:51Z</time>
      </trkpt>
      <trkpt lat="46.321302680298686" lon="8.262868579477072">
        <ele>1645.4400000000001</ele>
        <time>2023-09-10T05:53:06Z</time>
      </trkpt>
      <trkpt lat="46.32141474634409" lon="8.262916440144181">
        <ele>1647.3599999999999</ele>
        <time>2023-09-10T05:53:20Z</time>
      </trkpt>
      <trkpt lat="46.321496218442917" lon="8.262918200343847">
        <ele>1649</ele>
        <time>2023-09-10T05:53:31Z</time>
      </trkpt>
      <trkpt lat="46.321612307801843" lon="8.262865226715803">
        <ele>1650.99</ele>
        <time>2023-09-10T05:53:47Z</time>
      </trkpt>
      <trkpt lat="46.321708867326379" lon="8.26287142932415">
        <ele>1652.6900000000001</ele>
        <time>2023-09-10T05:54:00Z</time>
      </trkpt>
      <trkpt lat="46.321720518171787" lon="8.262903448194265">
        <ele>1652.9100000000001</ele>
        <time>2023-09-10T05:54:03Z</time>
      </trkpt>
      <trkpt lat="46.32178463973105" lon="8.262953907251358">
        <ele>1654.55</ele>
        <time>2023-09-10T05:54:14Z</time>
      </trkpt>
      <trkpt lat="46.321876673027873" lon="8.263007216155529">
        <ele>1656.45</ele>
        <time>2023-09-10T05:54:28Z</time>
      </trkpt>
      <trkpt lat="46.321973148733377" lon="8.263130094856024">
        <ele>1658.05</ele>
        <time>2023-09-10T05:54:44Z</time>
      </trkpt>
      <trkpt lat="46.322044227272272" lon="8.263215841725469">
        <ele>1660.1900000000001</ele>
        <time>2023-09-10T05:54:57Z</time>
      </trkpt>
      <trkpt lat="46.322074569761753" lon="8.263330506160855">
        <ele>1662.8599999999999</ele>
        <time>2023-09-10T05:55:12Z</time>
      </trkpt>
      <trkpt lat="46.322139529511333" lon="8.263368895277381">
        <ele>1664.96</ele>
        <time>2023-09-10T05:55:25Z</time>
      </trkpt>
      <trkpt lat="46.322163250297308" lon="8.263454725965858">
        <ele>1668.0899999999999</ele>
        <time>2023-09-10T05:55:40Z</time>
      </trkpt>
      <trkpt lat="46.322215301916003" lon="8.263503341004252">
        <ele>1670.77</ele>
        <time>2023-09-10T05:55:54Z</time>
      </trkpt>
      <trkpt lat="46.322278585284948" lon="8.263537287712097">
        <ele>1673.05</ele>
        <time>2023-09-10T05:56:08Z</time>
      </trkpt>
      <trkpt lat="46.322327703237534" lon="8.263569474220276">
        <ele>1675.1600000000001</ele>
        <time>2023-09-10T05:56:22Z</time>
      </trkpt>
      <trkpt lat="46.322349831461906" lon="8.263651197776198">
        <ele>1677.26</ele>
        <time>2023-09-10T05:56:36Z</time>
      </trkpt>
      <trkpt lat="46.322311693802476" lon="8.263721438124776">
        <ele>1678.9400000000001</ele>
        <time>2023-09-10T05:56:52Z</time>
      </trkpt>
      <trkpt lat="46.322321249172091" lon="8.263800563290715">
        <ele>1681.0799999999999</ele>
        <time>2023-09-10T05:57:05Z</time>
      </trkpt>
      <trkpt lat="46.322365086525679" lon="8.263860745355487">
        <ele>1683.1900000000001</ele>
        <time>2023-09-10T05:57:19Z</time>
      </trkpt>
      <trkpt lat="46.322414875030518" lon="8.263900056481361">
        <ele>1685.3299999999999</ele>
        <time>2023-09-10T05:57:34Z</time>
      </trkpt>
      <trkpt lat="46.322451923042536" lon="8.263946492224932">
        <ele>1687.1800000000001</ele>
        <time>2023-09-10T05:57:47Z</time>
      </trkpt>
      <trkpt lat="46.322528198361397" lon="8.263988569378853">
        <ele>1689.51</ele>
        <time>2023-09-10T05:58:04Z</time>
      </trkpt>
      <trkpt lat="46.322600869461894" lon="8.264067946001887">
        <ele>1691.8299999999999</ele>
        <time>2023-09-10T05:58:21Z</time>
      </trkpt>
      <trkpt lat="46.322653759270906" lon="8.264154950156808">
        <ele>1693.1600000000001</ele>
        <time>2023-09-10T05:58:33Z</time>
      </trkpt>
      <trkpt lat="46.322698686271906" lon="8.264214377850294">
        <ele>1694.98</ele>
        <time>2023-09-10T05:58:45Z</time>
      </trkpt>
      <trkpt lat="46.322771357372403" lon="8.26426986604929">
        <ele>1696.46</ele>
        <time>2023-09-10T05:58:58Z</time>
      </trkpt>
      <trkpt lat="46.322853164747357" lon="8.264313619583845">
        <ele>1698.78</ele>
        <time>2023-09-10T05:59:11Z</time>
      </trkpt>
      <trkpt lat="46.322936816141009" lon="8.264350583776832">
        <ele>1700.71</ele>
        <time>2023-09-10T05:59:25Z</time>
      </trkpt>
      <trkpt lat="46.322988867759705" lon="8.264401378110051">
        <ele>1701.95</ele>
        <time>2023-09-10T05:59:38Z</time>
      </trkpt>
      <trkpt lat="46.323097413405776" lon="8.264508582651615">
        <ele>1703.6099999999999</ele>
        <time>2023-09-10T05:59:53Z</time>
      </trkpt>
      <trkpt lat="46.323143430054188" lon="8.26461193151772">
        <ele>1705.6900000000001</ele>
        <time>2023-09-10T06:00:05Z</time>
      </trkpt>
      <trkpt lat="46.323178550228477" lon="8.264724668115377">
        <ele>1707.0599999999999</ele>
        <time>2023-09-10T06:00:16Z</time>
      </trkpt>
      <trkpt lat="46.323185591027141" lon="8.26476632617414">
        <ele>1707.95</ele>
        <time>2023-09-10T06:00:27Z</time>
      </trkpt>
      <trkpt lat="46.323183411732316" lon="8.264810079708695">
        <ele>1708.1900000000001</ele>
        <time>2023-09-10T06:00:37Z</time>
      </trkpt>
      <trkpt lat="46.323186429217458" lon="8.26496615074575">
        <ele>1709.3499999999999</ele>
        <time>2023-09-10T06:00:50Z</time>
      </trkpt>
      <trkpt lat="46.323193134739995" lon="8.265107134357095">
        <ele>1710.3800000000001</ele>
        <time>2023-09-10T06:01:02Z</time>
      </trkpt>
      <trkpt lat="46.323194727301598" lon="8.265276700258255">
        <ele>1711.3900000000001</ele>
        <time>2023-09-10T06:01:16Z</time>
      </trkpt>
      <trkpt lat="46.323243174701929" lon="8.265428664162755">
        <ele>1711.99</ele>
        <time>2023-09-10T06:01:29Z</time>
      </trkpt>
      <trkpt lat="46.323341242969036" lon="8.265535114333034">
        <ele>1713.5799999999999</ele>
        <time>2023-09-10T06:01:43Z</time>
      </trkpt>
      <trkpt lat="46.32339958101511" lon="8.265619101002812">
        <ele>1715.3599999999999</ele>
        <time>2023-09-10T06:01:54Z</time>
      </trkpt>
      <trkpt lat="46.323467558249831" lon="8.265761006623507">
        <ele>1716.01</ele>
        <time>2023-09-10T06:02:07Z</time>
      </trkpt>
      <trkpt lat="46.323544085025787" lon="8.265894278883934">
        <ele>1716.55</ele>
        <time>2023-09-10T06:02:20Z</time>
      </trkpt>
      <trkpt lat="46.323642153292894" lon="8.26603283174336">
        <ele>1717.3699999999999</ele>
        <time>2023-09-10T06:02:35Z</time>
      </trkpt>
      <trkpt lat="46.323724715039134" lon="8.266177251935005">
        <ele>1718.98</ele>
        <time>2023-09-10T06:02:49Z</time>
      </trkpt>
      <trkpt lat="46.323761930689216" lon="8.266336089000106">
        <ele>1719.0899999999999</ele>
        <time>2023-09-10T06:03:00Z</time>
      </trkpt>
      <trkpt lat="46.323788166046143" lon="8.266382357105613">
        <ele>1719.2</ele>
        <time>2023-09-10T06:03:05Z</time>
      </trkpt>
      <trkpt lat="46.323827728629112" lon="8.26641839928925">
        <ele>1719.5</ele>
        <time>2023-09-10T06:03:10Z</time>
      </trkpt>
      <trkpt lat="46.323862513527274" lon="8.266516216099262">
        <ele>1720.0799999999999</ele>
        <time>2023-09-10T06:03:18Z</time>
      </trkpt>
      <trkpt lat="46.323868380859494" lon="8.266542786732316">
        <ele>1720.1500000000001</ele>
        <time>2023-09-10T06:03:20Z</time>
      </trkpt>
      <trkpt lat="46.323925796896219" lon="8.26669642701745">
        <ele>1721.29</ele>
        <time>2023-09-10T06:03:33Z</time>
      </trkpt>
      <trkpt lat="46.323979189619422" lon="8.266841266304255">
        <ele>1721.8699999999999</ele>
        <time>2023-09-10T06:03:46Z</time>
      </trkpt>
      <trkpt lat="46.323992433026433" lon="8.26688501983881">
        <ele>1722.0799999999999</ele>
        <time>2023-09-10T06:03:51Z</time>
      </trkpt>
      <trkpt lat="46.32399620488286" lon="8.266915027052164">
        <ele>1722.1500000000001</ele>
        <time>2023-09-10T06:03:53Z</time>
      </trkpt>
      <trkpt lat="46.324036102741957" lon="8.267099093645811">
        <ele>1723.27</ele>
        <time>2023-09-10T06:04:07Z</time>
      </trkpt>
      <trkpt lat="46.324054878205061" lon="8.26717184856534">
        <ele>1723.9400000000001</ele>
        <time>2023-09-10T06:04:13Z</time>
      </trkpt>
      <trkpt lat="46.324157975614071" lon="8.267288943752646">
        <ele>1724.8199999999999</ele>
        <time>2023-09-10T06:04:27Z</time>
      </trkpt>
      <trkpt lat="46.324254032224417" lon="8.267387179657817">
        <ele>1725.5999999999999</ele>
        <time>2023-09-10T06:04:39Z</time>
      </trkpt>
      <trkpt lat="46.324332654476166" lon="8.26750997453928">
        <ele>1727.0799999999999</ele>
        <time>2023-09-10T06:04:52Z</time>
      </trkpt>
      <trkpt lat="46.324455449357629" lon="8.267648946493864">
        <ele>1728.1900000000001</ele>
        <time>2023-09-10T06:05:08Z</time>
      </trkpt>
      <trkpt lat="46.324472296983004" lon="8.267667470499873">
        <ele>1728.0899999999999</ele>
        <time>2023-09-10T06:05:10Z</time>
      </trkpt>
      <trkpt lat="46.324563827365637" lon="8.267767634242773">
        <ele>1728.7</ele>
        <time>2023-09-10T06:05:22Z</time>
      </trkpt>
      <trkpt lat="46.324619147926569" lon="8.267843993380666">
        <ele>1728.75</ele>
        <time>2023-09-10T06:05:32Z</time>
      </trkpt>
      <trkpt lat="46.324686706066132" lon="8.267927309498191">
        <ele>1729.6300000000001</ele>
        <time>2023-09-10T06:05:44Z</time>
      </trkpt>
      <trkpt lat="46.324714282527566" lon="8.267965698614717">
        <ele>1730.2</ele>
        <time>2023-09-10T06:06:00Z</time>
      </trkpt>
      <trkpt lat="46.324766250327229" lon="8.268058905377984">
        <ele>1731.3900000000001</ele>
        <time>2023-09-10T06:06:12Z</time>
      </trkpt>
      <trkpt lat="46.324802292510867" lon="8.2681686244905">
        <ele>1732.3900000000001</ele>
        <time>2023-09-10T06:06:23Z</time>
      </trkpt>
      <trkpt lat="46.324801119044423" lon="8.268212042748928">
        <ele>1732.6500000000001</ele>
        <time>2023-09-10T06:06:26Z</time>
      </trkpt>
      <trkpt lat="46.324797095730901" lon="8.268256634473801">
        <ele>1732.75</ele>
        <time>2023-09-10T06:06:29Z</time>
      </trkpt>
      <trkpt lat="46.324811764061451" lon="8.268324863165617">
        <ele>1733.03</ele>
        <time>2023-09-10T06:06:34Z</time>
      </trkpt>
      <trkpt lat="46.324902204796672" lon="8.268515802919865">
        <ele>1732.46</ele>
        <time>2023-09-10T06:06:49Z</time>
      </trkpt>
      <trkpt lat="46.32492114789784" lon="8.268591072410345">
        <ele>1733.0699999999999</ele>
        <time>2023-09-10T06:06:55Z</time>
      </trkpt>
      <trkpt lat="46.324955429881811" lon="8.268644129857421">
        <ele>1733.1199999999999</ele>
        <time>2023-09-10T06:07:00Z</time>
      </trkpt>
      <trkpt lat="46.324962135404348" lon="8.268655780702829">
        <ele>1733.0799999999999</ele>
        <time>2023-09-10T06:07:01Z</time>
      </trkpt>
      <trkpt lat="46.324960626661777" lon="8.268673550337553">
        <ele>1733.1400000000001</ele>
        <time>2023-09-10T06:07:02Z</time>
      </trkpt>
      <trkpt lat="46.324968757107854" lon="8.268682770431042">
        <ele>1733.0899999999999</ele>
        <time>2023-09-10T06:07:03Z</time>
      </trkpt>
      <trkpt lat="46.324988706037402" lon="8.26869634911418">
        <ele>1733.0799999999999</ele>
        <time>2023-09-10T06:07:05Z</time>
      </trkpt>
      <trkpt lat="46.324994908645749" lon="8.268709760159254">
        <ele>1733.1199999999999</ele>
        <time>2023-09-10T06:07:06Z</time>
      </trkpt>
      <trkpt lat="46.324998512864113" lon="8.268736163154244">
        <ele>1733.1700000000001</ele>
        <time>2023-09-10T06:07:08Z</time>
      </trkpt>
      <trkpt lat="46.325098425149918" lon="8.268905645236373">
        <ele>1733.27</ele>
        <time>2023-09-10T06:07:22Z</time>
      </trkpt>
      <trkpt lat="46.325146034359932" lon="8.269060291349888">
        <ele>1733.97</ele>
        <time>2023-09-10T06:07:35Z</time>
      </trkpt>
      <trkpt lat="46.325169922783971" lon="8.269175374880433">
        <ele>1735.0799999999999</ele>
        <time>2023-09-10T06:07:44Z</time>
      </trkpt>
      <trkpt lat="46.325169922783971" lon="8.269193647429347">
        <ele>1735.23</ele>
        <time>2023-09-10T06:07:45Z</time>
      </trkpt>
      <trkpt lat="46.325180483981967" lon="8.269232288002968">
        <ele>1735.6199999999999</ele>
        <time>2023-09-10T06:07:48Z</time>
      </trkpt>
      <trkpt lat="46.325185848399997" lon="8.269248213618994">
        <ele>1735.71</ele>
        <time>2023-09-10T06:07:49Z</time>
      </trkpt>
      <trkpt lat="46.325189871713519" lon="8.269265899434686">
        <ele>1735.72</ele>
        <time>2023-09-10T06:07:50Z</time>
      </trkpt>
      <trkpt lat="46.325192973017693" lon="8.269284507259727">
        <ele>1735.6700000000001</ele>
        <time>2023-09-10T06:07:51Z</time>
      </trkpt>
      <trkpt lat="46.325196241959929" lon="8.269301606342197">
        <ele>1735.5799999999999</ele>
        <time>2023-09-10T06:07:52Z</time>
      </trkpt>
      <trkpt lat="46.325201354920864" lon="8.269321219995618">
        <ele>1735.6099999999999</ele>
        <time>2023-09-10T06:07:53Z</time>
      </trkpt>
      <trkpt lat="46.325233289971948" lon="8.269552979618311">
        <ele>1735.51</ele>
        <time>2023-09-10T06:08:05Z</time>
      </trkpt>
      <trkpt lat="46.325232870876789" lon="8.269637050107122">
        <ele>1735.3099999999999</ele>
        <time>2023-09-10T06:08:10Z</time>
      </trkpt>
      <trkpt lat="46.325230607762933" lon="8.269656831398606">
        <ele>1734.9200000000001</ele>
        <time>2023-09-10T06:08:11Z</time>
      </trkpt>
      <trkpt lat="46.325231194496155" lon="8.269674768671393">
        <ele>1735.51</ele>
        <time>2023-09-10T06:08:12Z</time>
      </trkpt>
      <trkpt lat="46.32523194886744" lon="8.269851626828313">
        <ele>1736.6600000000001</ele>
        <time>2023-09-10T06:08:26Z</time>
      </trkpt>
      <trkpt lat="46.325242007151246" lon="8.269968219101429">
        <ele>1737.3499999999999</ele>
        <time>2023-09-10T06:08:37Z</time>
      </trkpt>
      <trkpt lat="46.325248712673783" lon="8.269978193566203">
        <ele>1737.53</ele>
        <time>2023-09-10T06:08:38Z</time>
      </trkpt>
      <trkpt lat="46.325252149254084" lon="8.270012307912111">
        <ele>1737.53</ele>
        <time>2023-09-10T06:08:40Z</time>
      </trkpt>
      <trkpt lat="46.325248377397656" lon="8.270125715062022">
        <ele>1738.8399999999999</ele>
        <time>2023-09-10T06:08:49Z</time>
      </trkpt>
      <trkpt lat="46.325258854776621" lon="8.270149687305093">
        <ele>1738.9200000000001</ele>
        <time>2023-09-10T06:08:51Z</time>
      </trkpt>
      <trkpt lat="46.325260531157255" lon="8.270164942368865">
        <ele>1738.9200000000001</ele>
        <time>2023-09-10T06:08:52Z</time>
      </trkpt>
      <trkpt lat="46.325264554470778" lon="8.27017986215651">
        <ele>1738.8099999999999</ele>
        <time>2023-09-10T06:08:53Z</time>
      </trkpt>
      <trkpt lat="46.32527737878263" lon="8.270263345912099">
        <ele>1739.03</ele>
        <time>2023-09-10T06:08:59Z</time>
      </trkpt>
      <trkpt lat="46.325283832848072" lon="8.270349847152829">
        <ele>1739.3299999999999</ele>
        <time>2023-09-10T06:09:06Z</time>
      </trkpt>
      <trkpt lat="46.325287520885468" lon="8.270363425835967">
        <ele>1739.3099999999999</ele>
        <time>2023-09-10T06:09:07Z</time>
      </trkpt>
      <trkpt lat="46.32529255002737" lon="8.270379519090056">
        <ele>1739.3399999999999</ele>
        <time>2023-09-10T06:09:08Z</time>
      </trkpt>
      <trkpt lat="46.325296238064766" lon="8.270396366715431">
        <ele>1739.21</ele>
        <time>2023-09-10T06:09:09Z</time>
      </trkpt>
      <trkpt lat="46.325296573340893" lon="8.270441377535462">
        <ele>1739.48</ele>
        <time>2023-09-10T06:09:12Z</time>
      </trkpt>
      <trkpt lat="46.325295316055417" lon="8.2704739831388">
        <ele>1739.4100000000001</ele>
        <time>2023-09-10T06:09:14Z</time>
      </trkpt>
      <trkpt lat="46.325319623574615" lon="8.270638519898057">
        <ele>1739.4300000000001</ele>
        <time>2023-09-10T06:09:24Z</time>
      </trkpt>
      <trkpt lat="46.325323395431042" lon="8.270790232345462">
        <ele>1739.6500000000001</ele>
        <time>2023-09-10T06:09:33Z</time>
      </trkpt>
      <trkpt lat="46.325323395431042" lon="8.270805990323424">
        <ele>1739.6800000000001</ele>
        <time>2023-09-10T06:09:34Z</time>
      </trkpt>
      <trkpt lat="46.325317025184631" lon="8.270818646997213">
        <ele>1739.75</ele>
        <time>2023-09-10T06:09:35Z</time>
      </trkpt>
      <trkpt lat="46.325320461764932" lon="8.270833818241954">
        <ele>1739.8099999999999</ele>
        <time>2023-09-10T06:09:36Z</time>
      </trkpt>
      <trkpt lat="46.325327502563596" lon="8.270849492400885">
        <ele>1739.9200000000001</ele>
        <time>2023-09-10T06:09:37Z</time>
      </trkpt>
      <trkpt lat="46.325326412916183" lon="8.270866675302386">
        <ele>1740.0799999999999</ele>
        <time>2023-09-10T06:09:38Z</time>
      </trkpt>
      <trkpt lat="46.325339069589972" lon="8.270873883739114">
        <ele>1740.1600000000001</ele>
        <time>2023-09-10T06:09:39Z</time>
      </trkpt>
      <trkpt lat="46.325386594980955" lon="8.271038420498371">
        <ele>1740.76</ele>
        <time>2023-09-10T06:09:51Z</time>
      </trkpt>
      <trkpt lat="46.325371423736215" lon="8.271181583404541">
        <ele>1741.98</ele>
        <time>2023-09-10T06:10:03Z</time>
      </trkpt>
      <trkpt lat="46.325362622737885" lon="8.271259535104036">
        <ele>1742.5999999999999</ele>
        <time>2023-09-10T06:10:09Z</time>
      </trkpt>
      <trkpt lat="46.325351893901825" lon="8.271391550078988">
        <ele>1743.79</ele>
        <time>2023-09-10T06:10:20Z</time>
      </trkpt>
      <trkpt lat="46.325338147580624" lon="8.271459527313709">
        <ele>1744.6700000000001</ele>
        <time>2023-09-10T06:10:27Z</time>
      </trkpt>
      <trkpt lat="46.325344434008002" lon="8.271604031324387">
        <ele>1746.47</ele>
        <time>2023-09-10T06:10:40Z</time>
      </trkpt>
      <trkpt lat="46.325351474806666" lon="8.271688269451261">
        <ele>1748.49</ele>
        <time>2023-09-10T06:10:52Z</time>
      </trkpt>
      <trkpt lat="46.325375027954578" lon="8.271772004663944">
        <ele>1749.8399999999999</ele>
        <time>2023-09-10T06:11:03Z</time>
      </trkpt>
      <trkpt lat="46.325369328260422" lon="8.271847944706678">
        <ele>1751.29</ele>
        <time>2023-09-10T06:11:12Z</time>
      </trkpt>
      <trkpt lat="46.325361449271441" lon="8.271923381835222">
        <ele>1753.1400000000001</ele>
        <time>2023-09-10T06:11:23Z</time>
      </trkpt>
      <trkpt lat="46.32535507902503" lon="8.272012397646904">
        <ele>1754.0599999999999</ele>
        <time>2023-09-10T06:11:35Z</time>
      </trkpt>
      <trkpt lat="46.325360359624028" lon="8.27212362550199">
        <ele>1755.9300000000001</ele>
        <time>2023-09-10T06:11:47Z</time>
      </trkpt>
      <trkpt lat="46.325325490906835" lon="8.272241642698646">
        <ele>1757.6900000000001</ele>
        <time>2023-09-10T06:12:00Z</time>
      </trkpt>
      <trkpt lat="46.325273187831044" lon="8.272380949929357">
        <ele>1758.1300000000001</ele>
        <time>2023-09-10T06:12:12Z</time>
      </trkpt>
      <trkpt lat="46.325259441509843" lon="8.272485472261906">
        <ele>1758.04</ele>
        <time>2023-09-10T06:12:20Z</time>
      </trkpt>
      <trkpt lat="46.325276372954249" lon="8.272660486400127">
        <ele>1758.1099999999999</ele>
        <time>2023-09-10T06:12:33Z</time>
      </trkpt>
      <trkpt lat="46.325280228629708" lon="8.272815300151706">
        <ele>1758.3399999999999</ele>
        <time>2023-09-10T06:12:47Z</time>
      </trkpt>
      <trkpt lat="46.325304284691811" lon="8.272954858839512">
        <ele>1758.72</ele>
        <time>2023-09-10T06:12:57Z</time>
      </trkpt>
      <trkpt lat="46.325343931093812" lon="8.273125430569053">
        <ele>1759.8399999999999</ele>
        <time>2023-09-10T06:13:11Z</time>
      </trkpt>
      <trkpt lat="46.325378213077784" lon="8.273298181593418">
        <ele>1760.9300000000001</ele>
        <time>2023-09-10T06:13:25Z</time>
      </trkpt>
      <trkpt lat="46.325374022126198" lon="8.273363308981061">
        <ele>1761.1600000000001</ele>
        <time>2023-09-10T06:13:30Z</time>
      </trkpt>
      <trkpt lat="46.325319623574615" lon="8.273552991449833">
        <ele>1762.1400000000001</ele>
        <time>2023-09-10T06:13:45Z</time>
      </trkpt>
      <trkpt lat="46.325313420966268" lon="8.273631278425455">
        <ele>1762.75</ele>
        <time>2023-09-10T06:13:51Z</time>
      </trkpt>
      <trkpt lat="46.325303865596652" lon="8.273776872083545">
        <ele>1763.6600000000001</ele>
        <time>2023-09-10T06:14:03Z</time>
      </trkpt>
      <trkpt lat="46.325271930545568" lon="8.273956328630447">
        <ele>1764.1500000000001</ele>
        <time>2023-09-10T06:14:17Z</time>
      </trkpt>
      <trkpt lat="46.325269835069776" lon="8.274162942543626">
        <ele>1763.55</ele>
        <time>2023-09-10T06:14:31Z</time>
      </trkpt>
      <trkpt lat="46.325313253328204" lon="8.27436788007617">
        <ele>1763.6099999999999</ele>
        <time>2023-09-10T06:14:46Z</time>
      </trkpt>
      <trkpt lat="46.325321719050407" lon="8.274461003020406">
        <ele>1763.8199999999999</ele>
        <time>2023-09-10T06:14:59Z</time>
      </trkpt>
      <trkpt lat="46.32533261552453" lon="8.274514814838767">
        <ele>1763.8599999999999</ele>
        <time>2023-09-10T06:15:22Z</time>
      </trkpt>
      <trkpt lat="46.325335633009672" lon="8.274532752111554">
        <ele>1763.79</ele>
        <time>2023-09-10T06:15:35Z</time>
      </trkpt>
      <trkpt lat="46.325340829789639" lon="8.274548761546612">
        <ele>1763.5999999999999</ele>
        <time>2023-09-10T06:15:36Z</time>
      </trkpt>
      <trkpt lat="46.325347619131207" lon="8.274565357714891">
        <ele>1763.74</ele>
        <time>2023-09-10T06:15:37Z</time>
      </trkpt>
      <trkpt lat="46.325354911386967" lon="8.274579104036093">
        <ele>1763.78</ele>
        <time>2023-09-10T06:15:38Z</time>
      </trkpt>
      <trkpt lat="46.325361449271441" lon="8.274592515081167">
        <ele>1763.8</ele>
        <time>2023-09-10T06:15:39Z</time>
      </trkpt>
      <trkpt lat="46.325366143137217" lon="8.274606680497527">
        <ele>1763.9100000000001</ele>
        <time>2023-09-10T06:15:40Z</time>
      </trkpt>
      <trkpt lat="46.325462032109499" lon="8.274792926385999">
        <ele>1763.79</ele>
        <time>2023-09-10T06:15:54Z</time>
      </trkpt>
      <trkpt lat="46.32553294301033" lon="8.274939022958279">
        <ele>1763.49</ele>
        <time>2023-09-10T06:16:06Z</time>
      </trkpt>
      <trkpt lat="46.325518358498812" lon="8.274983782321215">
        <ele>1763.6900000000001</ele>
        <time>2023-09-10T06:16:14Z</time>
      </trkpt>
      <trkpt lat="46.325546521693468" lon="8.275037677958608">
        <ele>1763.47</ele>
        <time>2023-09-10T06:16:18Z</time>
      </trkpt>
      <trkpt lat="46.325614582747221" lon="8.275203723460436">
        <ele>1763.24</ele>
        <time>2023-09-10T06:16:33Z</time>
      </trkpt>
      <trkpt lat="46.325641237199306" lon="8.275227276608348">
        <ele>1763.3699999999999</ele>
        <time>2023-09-10T06:16:36Z</time>
      </trkpt>
      <trkpt lat="46.325661689043045" lon="8.275288045406342">
        <ele>1763.24</ele>
        <time>2023-09-10T06:16:41Z</time>
      </trkpt>
      <trkpt lat="46.32575917057693" lon="8.275406649336219">
        <ele>1763.05</ele>
        <time>2023-09-10T06:16:54Z</time>
      </trkpt>
      <trkpt lat="46.325874589383602" lon="8.275585016235709">
        <ele>1762.1300000000001</ele>
        <time>2023-09-10T06:17:11Z</time>
      </trkpt>
      <trkpt lat="46.325941057875752" lon="8.275757767260075">
        <ele>1761.8299999999999</ele>
        <time>2023-09-10T06:17:25Z</time>
      </trkpt>
      <trkpt lat="46.326013058423996" lon="8.275927752256393">
        <ele>1762.04</ele>
        <time>2023-09-10T06:17:39Z</time>
      </trkpt>
      <trkpt lat="46.326111294329166" lon="8.27615037560463">
        <ele>1762.1600000000001</ele>
        <time>2023-09-10T06:17:56Z</time>
      </trkpt>
      <trkpt lat="46.326200310140848" lon="8.276279456913471">
        <ele>1761.8399999999999</ele>
        <time>2023-09-10T06:18:08Z</time>
      </trkpt>
      <trkpt lat="46.326296199113131" lon="8.276423290371895">
        <ele>1762.0699999999999</ele>
        <time>2023-09-10T06:18:22Z</time>
      </trkpt>
      <trkpt lat="46.326387980952859" lon="8.276601154357195">
        <ele>1762.3699999999999</ele>
        <time>2023-09-10T06:18:37Z</time>
      </trkpt>
      <trkpt lat="46.326467525213957" lon="8.276710789650679">
        <ele>1762.5599999999999</ele>
        <time>2023-09-10T06:18:49Z</time>
      </trkpt>
      <trkpt lat="46.326569952070713" lon="8.27685940079391">
        <ele>1762.6800000000001</ele>
        <time>2023-09-10T06:19:03Z</time>
      </trkpt>
      <trkpt lat="46.326678916811943" lon="8.277041204273701">
        <ele>1762.6500000000001</ele>
        <time>2023-09-10T06:19:19Z</time>
      </trkpt>
      <trkpt lat="46.326768603175879" lon="8.277184199541807">
        <ele>1762.6600000000001</ele>
        <time>2023-09-10T06:19:32Z</time>
      </trkpt>
      <trkpt lat="46.326854936778545" lon="8.277307748794556">
        <ele>1762.5699999999999</ele>
        <time>2023-09-10T06:19:45Z</time>
      </trkpt>
      <trkpt lat="46.326966667547822" lon="8.277436494827271">
        <ele>1762.7</ele>
        <time>2023-09-10T06:20:00Z</time>
      </trkpt>
      <trkpt lat="46.326989466324449" lon="8.277455689385533">
        <ele>1762.5699999999999</ele>
        <time>2023-09-10T06:20:03Z</time>
      </trkpt>
      <trkpt lat="46.327028693631291" lon="8.27752978540957">
        <ele>1762.1300000000001</ele>
        <time>2023-09-10T06:20:10Z</time>
      </trkpt>
      <trkpt lat="46.327140089124441" lon="8.27769155614078">
        <ele>1761.75</ele>
        <time>2023-09-10T06:20:27Z</time>
      </trkpt>
      <trkpt lat="46.327147129923105" lon="8.277703458443284">
        <ele>1762.1400000000001</ele>
        <time>2023-09-10T06:20:28Z</time>
      </trkpt>
      <trkpt lat="46.327262045815587" lon="8.277871264144778">
        <ele>1762.6700000000001</ele>
        <time>2023-09-10T06:20:43Z</time>
      </trkpt>
      <trkpt lat="46.327351480722427" lon="8.277983330190182">
        <ele>1762.6099999999999</ele>
        <time>2023-09-10T06:20:56Z</time>
      </trkpt>
      <trkpt lat="46.327376961708069" lon="8.278006128966808">
        <ele>1762.51</ele>
        <time>2023-09-10T06:21:00Z</time>
      </trkpt>
      <trkpt lat="46.327409483492374" lon="8.278079051524401">
        <ele>1762.73</ele>
        <time>2023-09-10T06:21:09Z</time>
      </trkpt>
      <trkpt lat="46.327516604214907" lon="8.278272254392505">
        <ele>1763.0799999999999</ele>
        <time>2023-09-10T06:21:25Z</time>
      </trkpt>
      <trkpt lat="46.327568236738443" lon="8.27847090549767">
        <ele>1763.0899999999999</ele>
        <time>2023-09-10T06:21:38Z</time>
      </trkpt>
      <trkpt lat="46.327615007758141" lon="8.278553215786815">
        <ele>1763.1600000000001</ele>
        <time>2023-09-10T06:21:47Z</time>
      </trkpt>
      <trkpt lat="46.327697318047285" lon="8.278646674007177">
        <ele>1763.1199999999999</ele>
        <time>2023-09-10T06:22:00Z</time>
      </trkpt>
      <trkpt lat="46.327703855931759" lon="8.278654133901">
        <ele>1763.21</ele>
        <time>2023-09-10T06:22:01Z</time>
      </trkpt>
      <trkpt lat="46.327799996361136" lon="8.278850270435214">
        <ele>1763.1400000000001</ele>
        <time>2023-09-10T06:22:17Z</time>
      </trkpt>
      <trkpt lat="46.327803684398532" lon="8.278956385329366">
        <ele>1762.95</ele>
        <time>2023-09-10T06:22:25Z</time>
      </trkpt>
      <trkpt lat="46.327857999131083" lon="8.279107175767422">
        <ele>1762.97</ele>
        <time>2023-09-10T06:22:38Z</time>
      </trkpt>
      <trkpt lat="46.327888173982501" lon="8.27916375361383">
        <ele>1763.1099999999999</ele>
        <time>2023-09-10T06:22:46Z</time>
      </trkpt>
      <trkpt lat="46.327931676059961" lon="8.279252769425511">
        <ele>1763.3800000000001</ele>
        <time>2023-09-10T06:22:57Z</time>
      </trkpt>
      <trkpt lat="46.327995797619224" lon="8.279339103028178">
        <ele>1763.8</ele>
        <time>2023-09-10T06:23:07Z</time>
      </trkpt>
      <trkpt lat="46.327994121238589" lon="8.279367685317993">
        <ele>1764.05</ele>
        <time>2023-09-10T06:23:09Z</time>
      </trkpt>
      <trkpt lat="46.327939974144101" lon="8.279504729434848">
        <ele>1764.5899999999999</ele>
        <time>2023-09-10T06:23:22Z</time>
      </trkpt>
      <trkpt lat="46.327881971374154" lon="8.279519565403462">
        <ele>1763.9300000000001</ele>
        <time>2023-09-10T06:23:29Z</time>
      </trkpt>
      <trkpt lat="46.327738473191857" lon="8.279471956193447">
        <ele>1763.4100000000001</ele>
        <time>2023-09-10T06:23:43Z</time>
      </trkpt>
      <trkpt lat="46.327688014134765" lon="8.2794623170048">
        <ele>1763.0799999999999</ele>
        <time>2023-09-10T06:23:55Z</time>
      </trkpt>
      <trkpt lat="46.327625820413232" lon="8.279464915394783">
        <ele>1762.9300000000001</ele>
        <time>2023-09-10T06:24:06Z</time>
      </trkpt>
      <trkpt lat="46.3276032730937" lon="8.279487295076251">
        <ele>1763.04</ele>
        <time>2023-09-10T06:24:09Z</time>
      </trkpt>
      <trkpt lat="46.327506294474006" lon="8.279569270089269">
        <ele>1762.21</ele>
        <time>2023-09-10T06:24:23Z</time>
      </trkpt>
      <trkpt lat="46.327502438798547" lon="8.279573377221823">
        <ele>1762.1099999999999</ele>
        <time>2023-09-10T06:24:25Z</time>
      </trkpt>
      <trkpt lat="46.327467989176512" lon="8.279606150463224">
        <ele>1762.0899999999999</ele>
        <time>2023-09-10T06:24:29Z</time>
      </trkpt>
      <trkpt lat="46.327441418543458" lon="8.279632302001119">
        <ele>1761.98</ele>
        <time>2023-09-10T06:24:32Z</time>
      </trkpt>
      <trkpt lat="46.327319210395217" lon="8.279707822948694">
        <ele>1761.9100000000001</ele>
        <time>2023-09-10T06:24:45Z</time>
      </trkpt>
      <trkpt lat="46.327278641983867" lon="8.279749900102615">
        <ele>1759.5899999999999</ele>
        <time>2023-09-10T06:24:50Z</time>
      </trkpt>
      <trkpt lat="46.327226841822267" lon="8.279788959771395">
        <ele>1760.7</ele>
        <time>2023-09-10T06:24:56Z</time>
      </trkpt>
      <trkpt lat="46.327208820730448" lon="8.27985031530261">
        <ele>1761.8199999999999</ele>
        <time>2023-09-10T06:28:44Z</time>
      </trkpt>
      <trkpt lat="46.327228518202901" lon="8.279873784631491">
        <ele>1760.27</ele>
        <time>2023-09-10T06:29:45Z</time>
      </trkpt>
      <trkpt lat="46.327228937298059" lon="8.279875796288252">
        <ele>1763.4200000000001</ele>
        <time>2023-09-10T06:29:47Z</time>
      </trkpt>
      <trkpt lat="46.327229607850313" lon="8.279873868450522">
        <ele>1761.4400000000001</ele>
        <time>2023-09-10T06:30:32Z</time>
      </trkpt>
      <trkpt lat="46.327227596193552" lon="8.279871856793761">
        <ele>1761.3499999999999</ele>
        <time>2023-09-10T06:30:48Z</time>
      </trkpt>
      <trkpt lat="46.327229021117091" lon="8.279878310859203">
        <ele>1761.51</ele>
        <time>2023-09-10T06:31:11Z</time>
      </trkpt>
      <trkpt lat="46.327219884842634" lon="8.279874790459871">
        <ele>1761.6099999999999</ele>
        <time>2023-09-10T06:32:27Z</time>
      </trkpt>
      <trkpt lat="46.327227680012584" lon="8.279916783794761">
        <ele>1761.5899999999999</ele>
        <time>2023-09-10T06:32:37Z</time>
      </trkpt>
      <trkpt lat="46.327277719974518" lon="8.280096324160695">
        <ele>1761.47</ele>
        <time>2023-09-10T06:32:50Z</time>
      </trkpt>
      <trkpt lat="46.327272607013583" lon="8.280140748247504">
        <ele>1761.3900000000001</ele>
        <time>2023-09-10T06:32:53Z</time>
      </trkpt>
      <trkpt lat="46.32720991037786" lon="8.280233452096582">
        <ele>1761.45</ele>
        <time>2023-09-10T06:33:08Z</time>
      </trkpt>
      <trkpt lat="46.327257854864001" lon="8.280308973044157">
        <ele>1761.8900000000001</ele>
        <time>2023-09-10T06:34:34Z</time>
      </trkpt>
      <trkpt lat="46.3272734452039" lon="8.280329341068864">
        <ele>1762.04</ele>
        <time>2023-09-10T06:34:36Z</time>
      </trkpt>
      <trkpt lat="46.327348630875349" lon="8.280521119013429">
        <ele>1763.3299999999999</ele>
        <time>2023-09-10T06:34:50Z</time>
      </trkpt>
      <trkpt lat="46.327367406338453" lon="8.280698899179697">
        <ele>1765.9200000000001</ele>
        <time>2023-09-10T06:35:04Z</time>
      </trkpt>
      <trkpt lat="46.327384170144796" lon="8.280770145356655">
        <ele>1768.51</ele>
        <time>2023-09-10T06:35:15Z</time>
      </trkpt>
      <trkpt lat="46.32742834277451" lon="8.280849689617753">
        <ele>1770.8699999999999</ele>
        <time>2023-09-10T06:35:27Z</time>
      </trkpt>
      <trkpt lat="46.327507216483355" lon="8.280954631045461">
        <ele>1773.6400000000001</ele>
        <time>2023-09-10T06:35:43Z</time>
      </trkpt>
      <trkpt lat="46.327548120170832" lon="8.281057979911566">
        <ele>1775.99</ele>
        <time>2023-09-10T06:35:59Z</time>
      </trkpt>
      <trkpt lat="46.327580222859979" lon="8.281153198331595">
        <ele>1777.9000000000001</ele>
        <time>2023-09-10T06:36:12Z</time>
      </trkpt>
      <trkpt lat="46.327639147639275" lon="8.281278591603041">
        <ele>1780.0799999999999</ele>
        <time>2023-09-10T06:36:28Z</time>
      </trkpt>
      <trkpt lat="46.327666053548455" lon="8.281402727589011">
        <ele>1781.25</ele>
        <time>2023-09-10T06:36:38Z</time>
      </trkpt>
      <trkpt lat="46.327721541747451" lon="8.281535329297185">
        <ele>1781.72</ele>
        <time>2023-09-10T06:36:50Z</time>
      </trkpt>
      <trkpt lat="46.327783903107047" lon="8.281626272946596">
        <ele>1782.98</ele>
        <time>2023-09-10T06:37:02Z</time>
      </trkpt>
      <trkpt lat="46.32783486507833" lon="8.281698357313871">
        <ele>1783.96</ele>
        <time>2023-09-10T06:37:11Z</time>
      </trkpt>
      <trkpt lat="46.327901836484671" lon="8.28179843723774">
        <ele>1785.5899999999999</ele>
        <time>2023-09-10T06:37:23Z</time>
      </trkpt>
      <trkpt lat="46.327950535342097" lon="8.281879909336567">
        <ele>1786.95</ele>
        <time>2023-09-10T06:37:34Z</time>
      </trkpt>
      <trkpt lat="46.327999988570809" lon="8.2819939032197">
        <ele>1788.4000000000001</ele>
        <time>2023-09-10T06:37:48Z</time>
      </trkpt>
      <trkpt lat="46.328063858672976" lon="8.282104879617691">
        <ele>1790.77</ele>
        <time>2023-09-10T06:38:04Z</time>
      </trkpt>
      <trkpt lat="46.328129991889" lon="8.282181406393647">
        <ele>1792.6500000000001</ele>
        <time>2023-09-10T06:38:17Z</time>
      </trkpt>
      <trkpt lat="46.328184474259615" lon="8.282264638692141">
        <ele>1794.74</ele>
        <time>2023-09-10T06:38:29Z</time>
      </trkpt>
      <trkpt lat="46.328249434009194" lon="8.282344182953239">
        <ele>1796.6600000000001</ele>
        <time>2023-09-10T06:38:43Z</time>
      </trkpt>
      <trkpt lat="46.328324368223548" lon="8.282433114945889">
        <ele>1798.1800000000001</ele>
        <time>2023-09-10T06:38:58Z</time>
      </trkpt>
      <trkpt lat="46.328408354893327" lon="8.282532608136535">
        <ele>1800.96</ele>
        <time>2023-09-10T06:39:16Z</time>
      </trkpt>
      <trkpt lat="46.328473230823874" lon="8.282620450481772">
        <ele>1802.47</ele>
        <time>2023-09-10T06:39:29Z</time>
      </trkpt>
      <trkpt lat="46.328543806448579" lon="8.282710975036025">
        <ele>1804.5699999999999</ele>
        <time>2023-09-10T06:39:44Z</time>
      </trkpt>
      <trkpt lat="46.328598372638226" lon="8.282758332788944">
        <ele>1806.6600000000001</ele>
        <time>2023-09-10T06:39:57Z</time>
      </trkpt>
      <trkpt lat="46.328670457005501" lon="8.28284215182066">
        <ele>1808.8299999999999</ele>
        <time>2023-09-10T06:40:12Z</time>
      </trkpt>
      <trkpt lat="46.328732231631875" lon="8.28300098888576">
        <ele>1810.48</ele>
        <time>2023-09-10T06:40:27Z</time>
      </trkpt>
      <trkpt lat="46.328793000429869" lon="8.283126465976238">
        <ele>1811.72</ele>
        <time>2023-09-10T06:40:42Z</time>
      </trkpt>
      <trkpt lat="46.328842286020517" lon="8.283237442374229">
        <ele>1813.3</ele>
        <time>2023-09-10T06:40:55Z</time>
      </trkpt>
      <trkpt lat="46.32891621440649" lon="8.283339450135827">
        <ele>1815.99</ele>
        <time>2023-09-10T06:41:11Z</time>
      </trkpt>
      <trkpt lat="46.328964829444885" lon="8.283440368250012">
        <ele>1818.4300000000001</ele>
        <time>2023-09-10T06:41:26Z</time>
      </trkpt>
      <trkpt lat="46.329022413119674" lon="8.283544722944498">
        <ele>1820.0799999999999</ele>
        <time>2023-09-10T06:41:40Z</time>
      </trkpt>
      <trkpt lat="46.329082595184445" lon="8.283669026568532">
        <ele>1821.79</ele>
        <time>2023-09-10T06:41:55Z</time>
      </trkpt>
      <trkpt lat="46.329132132232189" lon="8.283778410404921">
        <ele>1823.5999999999999</ele>
        <time>2023-09-10T06:42:09Z</time>
      </trkpt>
      <trkpt lat="46.329195164144039" lon="8.283904055133462">
        <ele>1825.3499999999999</ele>
        <time>2023-09-10T06:42:24Z</time>
      </trkpt>
      <trkpt lat="46.329234391450882" lon="8.284002039581537">
        <ele>1827.5599999999999</ele>
        <time>2023-09-10T06:42:37Z</time>
      </trkpt>
      <trkpt lat="46.329292729496956" lon="8.284097425639629">
        <ele>1829.99</ele>
        <time>2023-09-10T06:42:52Z</time>
      </trkpt>
      <trkpt lat="46.329353665933013" lon="8.284197421744466">
        <ele>1832.4100000000001</ele>
        <time>2023-09-10T06:43:07Z</time>
      </trkpt>
      <trkpt lat="46.329413680359721" lon="8.28425575979054">
        <ele>1834.9100000000001</ele>
        <time>2023-09-10T06:43:22Z</time>
      </trkpt>
      <trkpt lat="46.329496074467897" lon="8.284240840002894">
        <ele>1836.9300000000001</ele>
        <time>2023-09-10T06:43:36Z</time>
      </trkpt>
      <trkpt lat="46.329544689506292" lon="8.284314852207899">
        <ele>1838.6900000000001</ele>
        <time>2023-09-10T06:43:48Z</time>
      </trkpt>
      <trkpt lat="46.329601518809795" lon="8.284450639039278">
        <ele>1840.28</ele>
        <time>2023-09-10T06:44:04Z</time>
      </trkpt>
      <trkpt lat="46.329668322578073" lon="8.284610649570823">
        <ele>1841.78</ele>
        <time>2023-09-10T06:44:20Z</time>
      </trkpt>
      <trkpt lat="46.329669579863548" lon="8.284604782238603">
        <ele>1841.76</ele>
        <time>2023-09-10T06:44:33Z</time>
      </trkpt>
      <trkpt lat="46.329685589298606" lon="8.284615175798535">
        <ele>1841.6099999999999</ele>
        <time>2023-09-10T06:44:39Z</time>
      </trkpt>
      <trkpt lat="46.329765887930989" lon="8.284707209095359">
        <ele>1842.4100000000001</ele>
        <time>2023-09-10T06:44:51Z</time>
      </trkpt>
      <trkpt lat="46.329784914851189" lon="8.284735539928079">
        <ele>1842.8800000000001</ele>
        <time>2023-09-10T06:44:54Z</time>
      </trkpt>
      <trkpt lat="46.329806540161371" lon="8.284774431958795">
        <ele>1843.1199999999999</ele>
        <time>2023-09-10T06:44:58Z</time>
      </trkpt>
      <trkpt lat="46.329825147986412" lon="8.284830339252949">
        <ele>1843.23</ele>
        <time>2023-09-10T06:45:02Z</time>
      </trkpt>
      <trkpt lat="46.3298792950809" lon="8.284968137741089">
        <ele>1843.52</ele>
        <time>2023-09-10T06:45:12Z</time>
      </trkpt>
      <trkpt lat="46.32989052683115" lon="8.285097805783153">
        <ele>1845.9000000000001</ele>
        <time>2023-09-10T06:45:24Z</time>
      </trkpt>
      <trkpt lat="46.329903099685907" lon="8.285149354487658">
        <ele>1846.72</ele>
        <time>2023-09-10T06:45:30Z</time>
      </trkpt>
      <trkpt lat="46.329901842400432" lon="8.285185983404517">
        <ele>1847.24</ele>
        <time>2023-09-10T06:45:37Z</time>
      </trkpt>
      <trkpt lat="46.329917013645172" lon="8.285185564309359">
        <ele>1847.1099999999999</ele>
        <time>2023-09-10T06:45:57Z</time>
      </trkpt>
      <trkpt lat="46.329914079979062" lon="8.285179696977139">
        <ele>1847.28</ele>
        <time>2023-09-10T06:46:14Z</time>
      </trkpt>
      <trkpt lat="46.329932101070881" lon="8.285235520452261">
        <ele>1847.6700000000001</ele>
        <time>2023-09-10T06:46:24Z</time>
      </trkpt>
      <trkpt lat="46.329947859048843" lon="8.285315986722708">
        <ele>1848.6900000000001</ele>
        <time>2023-09-10T06:46:35Z</time>
      </trkpt>
      <trkpt lat="46.329956408590078" lon="8.285337779670954">
        <ele>1849.1600000000001</ele>
        <time>2023-09-10T06:46:38Z</time>
      </trkpt>
      <trkpt lat="46.329953139647841" lon="8.285434506833553">
        <ele>1849.55</ele>
        <time>2023-09-10T06:46:45Z</time>
      </trkpt>
      <trkpt lat="46.329964455217123" lon="8.28556090593338">
        <ele>1851.0699999999999</ele>
        <time>2023-09-10T06:46:55Z</time>
      </trkpt>
      <trkpt lat="46.329975519329309" lon="8.285619914531708">
        <ele>1851.3299999999999</ele>
        <time>2023-09-10T06:46:59Z</time>
      </trkpt>
      <trkpt lat="46.330061517655849" lon="8.285789899528027">
        <ele>1852.1800000000001</ele>
        <time>2023-09-10T06:47:12Z</time>
      </trkpt>
      <trkpt lat="46.330141061916947" lon="8.285977318882942">
        <ele>1852.74</ele>
        <time>2023-09-10T06:47:26Z</time>
      </trkpt>
      <trkpt lat="46.330163776874542" lon="8.286005817353725">
        <ele>1852.9400000000001</ele>
        <time>2023-09-10T06:47:29Z</time>
      </trkpt>
      <trkpt lat="46.330198813229799" lon="8.286035489290953">
        <ele>1853.29</ele>
        <time>2023-09-10T06:47:32Z</time>
      </trkpt>
      <trkpt lat="46.330215325579047" lon="8.286052336916328">
        <ele>1853.3900000000001</ele>
        <time>2023-09-10T06:47:33Z</time>
      </trkpt>
      <trkpt lat="46.330226054415107" lon="8.286060132086277">
        <ele>1853.49</ele>
        <time>2023-09-10T06:47:34Z</time>
      </trkpt>
      <trkpt lat="46.330243740230799" lon="8.286078656092286">
        <ele>1853.2</ele>
        <time>2023-09-10T06:47:36Z</time>
      </trkpt>
      <trkpt lat="46.33024868555367" lon="8.286091480404139">
        <ele>1853.0999999999999</ele>
        <time>2023-09-10T06:47:37Z</time>
      </trkpt>
      <trkpt lat="46.330254888162017" lon="8.286104639992118">
        <ele>1852.99</ele>
        <time>2023-09-10T06:47:38Z</time>
      </trkpt>
      <trkpt lat="46.330260755494237" lon="8.286117967218161">
        <ele>1852.98</ele>
        <time>2023-09-10T06:47:39Z</time>
      </trkpt>
      <trkpt lat="46.330267377197742" lon="8.286130456253886">
        <ele>1852.8399999999999</ele>
        <time>2023-09-10T06:47:40Z</time>
      </trkpt>
      <trkpt lat="46.330275675281882" lon="8.286141939461231">
        <ele>1852.7</ele>
        <time>2023-09-10T06:47:41Z</time>
      </trkpt>
      <trkpt lat="46.330283805727959" lon="8.286154344677925">
        <ele>1852.6700000000001</ele>
        <time>2023-09-10T06:47:42Z</time>
      </trkpt>
      <trkpt lat="46.330291852355003" lon="8.286168007180095">
        <ele>1852.74</ele>
        <time>2023-09-10T06:47:43Z</time>
      </trkpt>
      <trkpt lat="46.330321356654167" lon="8.286221316084266">
        <ele>1852.5699999999999</ele>
        <time>2023-09-10T06:47:47Z</time>
      </trkpt>
      <trkpt lat="46.330328900367022" lon="8.28622936271131">
        <ele>1852.73</ele>
        <time>2023-09-10T06:47:48Z</time>
      </trkpt>
      <trkpt lat="46.330355303362012" lon="8.286237493157387">
        <ele>1852.6800000000001</ele>
        <time>2023-09-10T06:47:49Z</time>
      </trkpt>
      <trkpt lat="46.330361841246486" lon="8.286249227821827">
        <ele>1852.53</ele>
        <time>2023-09-10T06:47:50Z</time>
      </trkpt>
      <trkpt lat="46.330373156815767" lon="8.286255681887269">
        <ele>1852.49</ele>
        <time>2023-09-10T06:47:51Z</time>
      </trkpt>
      <trkpt lat="46.330382041633129" lon="8.286261046305299">
        <ele>1852.52</ele>
        <time>2023-09-10T06:47:52Z</time>
      </trkpt>
      <trkpt lat="46.330393189564347" lon="8.286265740171075">
        <ele>1852.5599999999999</ele>
        <time>2023-09-10T06:47:53Z</time>
      </trkpt>
      <trkpt lat="46.330451611429453" lon="8.286276804283261">
        <ele>1852.71</ele>
        <time>2023-09-10T06:47:58Z</time>
      </trkpt>
      <trkpt lat="46.330470973625779" lon="8.286296669393778">
        <ele>1852.72</ele>
        <time>2023-09-10T06:47:59Z</time>
      </trkpt>
      <trkpt lat="46.33048907853663" lon="8.286316953599453">
        <ele>1852.8399999999999</ele>
        <time>2023-09-10T06:48:00Z</time>
      </trkpt>
      <trkpt lat="46.330530568957329" lon="8.286357438191772">
        <ele>1852.97</ele>
        <time>2023-09-10T06:48:05Z</time>
      </trkpt>
      <trkpt lat="46.330533586442471" lon="8.286370597779751">
        <ele>1853.1099999999999</ele>
        <time>2023-09-10T06:48:06Z</time>
      </trkpt>
      <trkpt lat="46.330550098791718" lon="8.286504121497273">
        <ele>1854.5899999999999</ele>
        <time>2023-09-10T06:48:17Z</time>
      </trkpt>
      <trkpt lat="46.330621261149645" lon="8.286565393209457">
        <ele>1856.3</ele>
        <time>2023-09-10T06:50:03Z</time>
      </trkpt>
      <trkpt lat="46.330631989985704" lon="8.28659531660378">
        <ele>1857.8299999999999</ele>
        <time>2023-09-10T06:52:32Z</time>
      </trkpt>
      <trkpt lat="46.33064104244113" lon="8.286607889458537">
        <ele>1857.51</ele>
        <time>2023-09-10T06:52:33Z</time>
      </trkpt>
      <trkpt lat="46.330650765448809" lon="8.286619037389755">
        <ele>1857.5</ele>
        <time>2023-09-10T06:52:34Z</time>
      </trkpt>
      <trkpt lat="46.330660823732615" lon="8.2866305205971">
        <ele>1857.46</ele>
        <time>2023-09-10T06:52:35Z</time>
      </trkpt>
      <trkpt lat="46.330670965835452" lon="8.286645272746682">
        <ele>1857.55</ele>
        <time>2023-09-10T06:52:36Z</time>
      </trkpt>
      <trkpt lat="46.330796275287867" lon="8.286779383197427">
        <ele>1857.51</ele>
        <time>2023-09-10T06:52:48Z</time>
      </trkpt>
      <trkpt lat="46.33093373849988" lon="8.286902261897922">
        <ele>1857.8800000000001</ele>
        <time>2023-09-10T06:53:00Z</time>
      </trkpt>
      <trkpt lat="46.331109087914228" lon="8.287066882476211">
        <ele>1857.1700000000001</ele>
        <time>2023-09-10T06:53:14Z</time>
      </trkpt>
      <trkpt lat="46.331199444830418" lon="8.287228904664516">
        <ele>1857.95</ele>
        <time>2023-09-10T06:53:25Z</time>
      </trkpt>
      <trkpt lat="46.331295752897859" lon="8.287383131682873">
        <ele>1860.28</ele>
        <time>2023-09-10T06:53:38Z</time>
      </trkpt>
      <trkpt lat="46.331394659355283" lon="8.28750123269856">
        <ele>1863.05</ele>
        <time>2023-09-10T06:53:53Z</time>
      </trkpt>
      <trkpt lat="46.331475209444761" lon="8.287560660392046">
        <ele>1865.75</ele>
        <time>2023-09-10T06:54:05Z</time>
      </trkpt>
      <trkpt lat="46.331558860838413" lon="8.287612963467836">
        <ele>1866.6400000000001</ele>
        <time>2023-09-10T06:54:14Z</time>
      </trkpt>
      <trkpt lat="46.331628765910864" lon="8.287655124440789">
        <ele>1867.29</ele>
        <time>2023-09-10T06:54:21Z</time>
      </trkpt>
      <trkpt lat="46.331697329878807" lon="8.28770549967885">
        <ele>1868.27</ele>
        <time>2023-09-10T06:54:30Z</time>
      </trkpt>
      <trkpt lat="46.331766564399004" lon="8.287771884351969">
        <ele>1869.79</ele>
        <time>2023-09-10T06:54:40Z</time>
      </trkpt>
      <trkpt lat="46.331875277683139" lon="8.28785109333694">
        <ele>1870.6600000000001</ele>
        <time>2023-09-10T06:54:52Z</time>
      </trkpt>
      <trkpt lat="46.331928670406342" lon="8.287938684225082">
        <ele>1871.0699999999999</ele>
        <time>2023-09-10T06:54:59Z</time>
      </trkpt>
      <trkpt lat="46.331927832216024" lon="8.287956872954965">
        <ele>1871.1900000000001</ele>
        <time>2023-09-10T06:55:00Z</time>
      </trkpt>
      <trkpt lat="46.331935208290815" lon="8.287970954552293">
        <ele>1871.26</ele>
        <time>2023-09-10T06:55:01Z</time>
      </trkpt>
      <trkpt lat="46.332003269344568" lon="8.288104729726911">
        <ele>1872.29</ele>
        <time>2023-09-10T06:55:12Z</time>
      </trkpt>
      <trkpt lat="46.332052554935217" lon="8.288263818249106">
        <ele>1873.53</ele>
        <time>2023-09-10T06:55:24Z</time>
      </trkpt>
      <trkpt lat="46.332051549106836" lon="8.288450986146927">
        <ele>1874.6800000000001</ele>
        <time>2023-09-10T06:55:36Z</time>
      </trkpt>
      <trkpt lat="46.332120280712843" lon="8.288566153496504">
        <ele>1875.8299999999999</ele>
        <time>2023-09-10T06:55:46Z</time>
      </trkpt>
      <trkpt lat="46.33222178556025" lon="8.288772851228714">
        <ele>1876.97</ele>
        <time>2023-09-10T06:56:01Z</time>
      </trkpt>
      <trkpt lat="46.332288924604654" lon="8.288832027465105">
        <ele>1876.55</ele>
        <time>2023-09-10T06:56:08Z</time>
      </trkpt>
      <trkpt lat="46.332301832735538" lon="8.288842421025038">
        <ele>1876.27</ele>
        <time>2023-09-10T06:56:09Z</time>
      </trkpt>
      <trkpt lat="46.332302670925856" lon="8.288857256993651">
        <ele>1876.01</ele>
        <time>2023-09-10T06:56:10Z</time>
      </trkpt>
      <trkpt lat="46.332313818857074" lon="8.288867902010679">
        <ele>1875.8800000000001</ele>
        <time>2023-09-10T06:56:11Z</time>
      </trkpt>
      <trkpt lat="46.332323960959911" lon="8.288878882303834">
        <ele>1875.71</ele>
        <time>2023-09-10T06:56:12Z</time>
      </trkpt>
      <trkpt lat="46.332332845777273" lon="8.288891455158591">
        <ele>1875.4000000000001</ele>
        <time>2023-09-10T06:56:13Z</time>
      </trkpt>
      <trkpt lat="46.332340557128191" lon="8.288906794041395">
        <ele>1875.2</ele>
        <time>2023-09-10T06:56:14Z</time>
      </trkpt>
      <trkpt lat="46.332345083355904" lon="8.288924815133214">
        <ele>1874.8099999999999</ele>
        <time>2023-09-10T06:56:15Z</time>
      </trkpt>
      <trkpt lat="46.332346508279443" lon="8.288944847881794">
        <ele>1874.6800000000001</ele>
        <time>2023-09-10T06:56:16Z</time>
      </trkpt>
      <trkpt lat="46.332346340641379" lon="8.288965048268437">
        <ele>1874.5799999999999</ele>
        <time>2023-09-10T06:56:17Z</time>
      </trkpt>
      <trkpt lat="46.332345083355904" lon="8.288985081017017">
        <ele>1874.3699999999999</ele>
        <time>2023-09-10T06:56:18Z</time>
      </trkpt>
      <trkpt lat="46.332294708117843" lon="8.289325386285782">
        <ele>1872.5699999999999</ele>
        <time>2023-09-10T06:56:35Z</time>
      </trkpt>
      <trkpt lat="46.332269143313169" lon="8.289576843380928">
        <ele>1872.24</ele>
        <time>2023-09-10T06:56:47Z</time>
      </trkpt>
      <trkpt lat="46.332273334264755" lon="8.289602492004633">
        <ele>1872.26</ele>
        <time>2023-09-10T06:56:48Z</time>
      </trkpt>
      <trkpt lat="46.332263695076108" lon="8.289827043190599">
        <ele>1872.9200000000001</ele>
        <time>2023-09-10T06:56:59Z</time>
      </trkpt>
      <trkpt lat="46.332374336197972" lon="8.290039021521807">
        <ele>1872.25</ele>
        <time>2023-09-10T06:57:12Z</time>
      </trkpt>
      <trkpt lat="46.332387244328856" lon="8.290048744529486">
        <ele>1872.4400000000001</ele>
        <time>2023-09-10T06:57:14Z</time>
      </trkpt>
      <trkpt lat="46.33239864371717" lon="8.290046481415629">
        <ele>1872.23</ele>
        <time>2023-09-10T06:57:15Z</time>
      </trkpt>
      <trkpt lat="46.332412976771593" lon="8.29005578532815">
        <ele>1872.24</ele>
        <time>2023-09-10T06:57:16Z</time>
      </trkpt>
      <trkpt lat="46.332426806911826" lon="8.290061568841338">
        <ele>1872.21</ele>
        <time>2023-09-10T06:57:17Z</time>
      </trkpt>
      <trkpt lat="46.332439128309488" lon="8.290062574669719">
        <ele>1872.26</ele>
        <time>2023-09-10T06:57:18Z</time>
      </trkpt>
      <trkpt lat="46.332450276240706" lon="8.290063329041004">
        <ele>1872.3900000000001</ele>
        <time>2023-09-10T06:57:19Z</time>
      </trkpt>
      <trkpt lat="46.3324626814574" lon="8.290066011250019">
        <ele>1872.45</ele>
        <time>2023-09-10T06:57:20Z</time>
      </trkpt>
      <trkpt lat="46.3325628452003" lon="8.290124433115125">
        <ele>1872.3199999999999</ele>
        <time>2023-09-10T06:57:29Z</time>
      </trkpt>
      <trkpt lat="46.33257164619863" lon="8.290141196921468">
        <ele>1872.3900000000001</ele>
        <time>2023-09-10T06:57:30Z</time>
      </trkpt>
      <trkpt lat="46.332620428875089" lon="8.290259297937155">
        <ele>1873.6199999999999</ele>
        <time>2023-09-10T06:57:38Z</time>
      </trkpt>
      <trkpt lat="46.332688909024" lon="8.290344625711441">
        <ele>1875.8299999999999</ele>
        <time>2023-09-10T06:57:49Z</time>
      </trkpt>
      <trkpt lat="46.332704583182931" lon="8.290360132232308">
        <ele>1876.1900000000001</ele>
        <time>2023-09-10T06:57:51Z</time>
      </trkpt>
      <trkpt lat="46.332735428586602" lon="8.290438503026962">
        <ele>1877.3800000000001</ele>
        <time>2023-09-10T06:57:58Z</time>
      </trkpt>
      <trkpt lat="46.332737943157554" lon="8.290454093366861">
        <ele>1877.3900000000001</ele>
        <time>2023-09-10T06:57:59Z</time>
      </trkpt>
      <trkpt lat="46.332761831581593" lon="8.290496086701751">
        <ele>1877.9200000000001</ele>
        <time>2023-09-10T06:58:03Z</time>
      </trkpt>
      <trkpt lat="46.332773566246033" lon="8.290505725890398">
        <ele>1878</ele>
        <time>2023-09-10T06:58:04Z</time>
      </trkpt>
      <trkpt lat="46.332853445783257" lon="8.290559202432632">
        <ele>1879.47</ele>
        <time>2023-09-10T06:58:13Z</time>
      </trkpt>
      <trkpt lat="46.332869119942188" lon="8.290564818307757">
        <ele>1879.3</ele>
        <time>2023-09-10T06:58:14Z</time>
      </trkpt>
      <trkpt lat="46.332902228459716" lon="8.290590634569526">
        <ele>1879.1600000000001</ele>
        <time>2023-09-10T06:58:17Z</time>
      </trkpt>
      <trkpt lat="46.332912035286427" lon="8.290603207424283">
        <ele>1879.27</ele>
        <time>2023-09-10T06:58:18Z</time>
      </trkpt>
      <trkpt lat="46.332925781607628" lon="8.290613852441311">
        <ele>1878.8800000000001</ele>
        <time>2023-09-10T06:58:19Z</time>
      </trkpt>
      <trkpt lat="46.332938354462385" lon="8.290625838562846">
        <ele>1878.54</ele>
        <time>2023-09-10T06:58:20Z</time>
      </trkpt>
      <trkpt lat="46.332949502393603" lon="8.290637405589223">
        <ele>1878.5699999999999</ele>
        <time>2023-09-10T06:58:21Z</time>
      </trkpt>
      <trkpt lat="46.332960398867726" lon="8.290646374225617">
        <ele>1878.5799999999999</ele>
        <time>2023-09-10T06:58:22Z</time>
      </trkpt>
      <trkpt lat="46.333070788532495" lon="8.29063874669373">
        <ele>1879.52</ele>
        <time>2023-09-10T06:58:34Z</time>
      </trkpt>
      <trkpt lat="46.333108674734831" lon="8.290626592934132">
        <ele>1879.9000000000001</ele>
        <time>2023-09-10T06:58:37Z</time>
      </trkpt>
      <trkpt lat="46.333123343065381" lon="8.290622234344482">
        <ele>1879.75</ele>
        <time>2023-09-10T06:58:38Z</time>
      </trkpt>
      <trkpt lat="46.333139017224312" lon="8.290617791935802">
        <ele>1879.75</ele>
        <time>2023-09-10T06:58:39Z</time>
      </trkpt>
      <trkpt lat="46.333154188469052" lon="8.29061427153647">
        <ele>1879.6099999999999</ele>
        <time>2023-09-10T06:58:40Z</time>
      </trkpt>
      <trkpt lat="46.333168772980571" lon="8.290611337870359">
        <ele>1879.53</ele>
        <time>2023-09-10T06:58:41Z</time>
      </trkpt>
      <trkpt lat="46.333370776847005" lon="8.290590802207589">
        <ele>1879.9400000000001</ele>
        <time>2023-09-10T06:58:57Z</time>
      </trkpt>
      <trkpt lat="46.333381002768874" lon="8.290600692853332">
        <ele>1879.9300000000001</ele>
        <time>2023-09-10T06:58:58Z</time>
      </trkpt>
      <trkpt lat="46.333391983062029" lon="8.29061184078455">
        <ele>1880.04</ele>
        <time>2023-09-10T06:58:59Z</time>
      </trkpt>
      <trkpt lat="46.333401538431644" lon="8.29062407836318">
        <ele>1880.0599999999999</ele>
        <time>2023-09-10T06:59:00Z</time>
      </trkpt>
      <trkpt lat="46.333412602543831" lon="8.290641345083714">
        <ele>1880.1199999999999</ele>
        <time>2023-09-10T06:59:01Z</time>
      </trkpt>
      <trkpt lat="46.333424253389239" lon="8.290653415024281">
        <ele>1880.3199999999999</ele>
        <time>2023-09-10T06:59:02Z</time>
      </trkpt>
      <trkpt lat="46.333434646949172" lon="8.290667412802577">
        <ele>1880.26</ele>
        <time>2023-09-10T06:59:03Z</time>
      </trkpt>
      <trkpt lat="46.333573367446661" lon="8.290868159383535">
        <ele>1880.3699999999999</ele>
        <time>2023-09-10T06:59:17Z</time>
      </trkpt>
      <trkpt lat="46.333655845373869" lon="8.290912080556154">
        <ele>1880.26</ele>
        <time>2023-09-10T06:59:24Z</time>
      </trkpt>
      <trkpt lat="46.333668250590563" lon="8.290923312306404">
        <ele>1880.3900000000001</ele>
        <time>2023-09-10T06:59:25Z</time>
      </trkpt>
      <trkpt lat="46.333684176206589" lon="8.2909304369241">
        <ele>1880.3900000000001</ele>
        <time>2023-09-10T06:59:26Z</time>
      </trkpt>
      <trkpt lat="46.333834631368518" lon="8.291026493534446">
        <ele>1880.78</ele>
        <time>2023-09-10T06:59:38Z</time>
      </trkpt>
      <trkpt lat="46.333975614979863" lon="8.291154401376844">
        <ele>1881.1199999999999</ele>
        <time>2023-09-10T06:59:50Z</time>
      </trkpt>
      <trkpt lat="46.334043340757489" lon="8.291221791878343">
        <ele>1882.0799999999999</ele>
        <time>2023-09-10T07:00:01Z</time>
      </trkpt>
      <trkpt lat="46.334082819521427" lon="8.291211649775505">
        <ele>1882.0799999999999</ele>
        <time>2023-09-10T07:00:07Z</time>
      </trkpt>
      <trkpt lat="46.334098326042295" lon="8.291216008365154">
        <ele>1882.04</ele>
        <time>2023-09-10T07:00:08Z</time>
      </trkpt>
      <trkpt lat="46.334112240001559" lon="8.291224222630262">
        <ele>1882.01</ele>
        <time>2023-09-10T07:00:09Z</time>
      </trkpt>
      <trkpt lat="46.33412498049438" lon="8.29123386181891">
        <ele>1882.1199999999999</ele>
        <time>2023-09-10T07:00:10Z</time>
      </trkpt>
      <trkpt lat="46.334135541692376" lon="8.291246350854635">
        <ele>1882.24</ele>
        <time>2023-09-10T07:00:11Z</time>
      </trkpt>
      <trkpt lat="46.334145180881023" lon="8.291259678080678">
        <ele>1882.1300000000001</ele>
        <time>2023-09-10T07:00:12Z</time>
      </trkpt>
      <trkpt lat="46.334157334640622" lon="8.291269317269325">
        <ele>1882.21</ele>
        <time>2023-09-10T07:00:13Z</time>
      </trkpt>
      <trkpt lat="46.33417041040957" lon="8.291277950629592">
        <ele>1882.3399999999999</ele>
        <time>2023-09-10T07:00:14Z</time>
      </trkpt>
      <trkpt lat="46.334182899445295" lon="8.291288930922747">
        <ele>1882.3499999999999</ele>
        <time>2023-09-10T07:00:15Z</time>
      </trkpt>
      <trkpt lat="46.334194634109735" lon="8.291299743577838">
        <ele>1882.3599999999999</ele>
        <time>2023-09-10T07:00:16Z</time>
      </trkpt>
      <trkpt lat="46.33420611731708" lon="8.29130913130939">
        <ele>1882.3699999999999</ele>
        <time>2023-09-10T07:00:17Z</time>
      </trkpt>
      <trkpt lat="46.334406696259975" lon="8.29146889038384">
        <ele>1881.48</ele>
        <time>2023-09-10T07:00:34Z</time>
      </trkpt>
      <trkpt lat="46.334508201107383" lon="8.291575843468308">
        <ele>1880.73</ele>
        <time>2023-09-10T07:00:45Z</time>
      </trkpt>
      <trkpt lat="46.334608867764473" lon="8.291720263659954">
        <ele>1879.77</ele>
        <time>2023-09-10T07:00:55Z</time>
      </trkpt>
      <trkpt lat="46.334751695394516" lon="8.291848255321384">
        <ele>1879.1400000000001</ele>
        <time>2023-09-10T07:01:08Z</time>
      </trkpt>
      <trkpt lat="46.334830904379487" lon="8.291914304718375">
        <ele>1878.8299999999999</ele>
        <time>2023-09-10T07:01:16Z</time>
      </trkpt>
      <trkpt lat="46.33497859351337" lon="8.291999800130725">
        <ele>1877.52</ele>
        <time>2023-09-10T07:01:27Z</time>
      </trkpt>
      <trkpt lat="46.335121253505349" lon="8.292041877284646">
        <ele>1875.73</ele>
        <time>2023-09-10T07:01:36Z</time>
      </trkpt>
      <trkpt lat="46.335285538807511" lon="8.292175149545074">
        <ele>1874.99</ele>
        <time>2023-09-10T07:01:48Z</time>
      </trkpt>
      <trkpt lat="46.335453009232879" lon="8.292276570573449">
        <ele>1873.26</ele>
        <time>2023-09-10T07:02:00Z</time>
      </trkpt>
      <trkpt lat="46.335570104420185" lon="8.292433563619852">
        <ele>1872.5999999999999</ele>
        <time>2023-09-10T07:02:11Z</time>
      </trkpt>
      <trkpt lat="46.33558209054172" lon="8.292433563619852">
        <ele>1872.5599999999999</ele>
        <time>2023-09-10T07:02:12Z</time>
      </trkpt>
      <trkpt lat="46.335598938167095" lon="8.292436497285962">
        <ele>1872.48</ele>
        <time>2023-09-10T07:02:13Z</time>
      </trkpt>
      <trkpt lat="46.335612097755075" lon="8.292441945523024">
        <ele>1872.3900000000001</ele>
        <time>2023-09-10T07:02:14Z</time>
      </trkpt>
      <trkpt lat="46.33570128120482" lon="8.292516795918346">
        <ele>1871</ele>
        <time>2023-09-10T07:02:21Z</time>
      </trkpt>
      <trkpt lat="46.335755009204149" lon="8.29257664270699">
        <ele>1870.8599999999999</ele>
        <time>2023-09-10T07:02:26Z</time>
      </trkpt>
      <trkpt lat="46.335770096629858" lon="8.292586449533701">
        <ele>1870.6199999999999</ele>
        <time>2023-09-10T07:02:27Z</time>
      </trkpt>
      <trkpt lat="46.335783004760742" lon="8.292598016560078">
        <ele>1870.73</ele>
        <time>2023-09-10T07:02:28Z</time>
      </trkpt>
      <trkpt lat="46.335878390818834" lon="8.292650068178773">
        <ele>1870.23</ele>
        <time>2023-09-10T07:02:35Z</time>
      </trkpt>
      <trkpt lat="46.335889538750052" lon="8.292659036815167">
        <ele>1870.3</ele>
        <time>2023-09-10T07:02:36Z</time>
      </trkpt>
      <trkpt lat="46.335903201252222" lon="8.292666412889957">
        <ele>1870.1800000000001</ele>
        <time>2023-09-10T07:02:37Z</time>
      </trkpt>
      <trkpt lat="46.335918288677931" lon="8.292675968259573">
        <ele>1870.0999999999999</ele>
        <time>2023-09-10T07:02:38Z</time>
      </trkpt>
      <trkpt lat="46.335929604247212" lon="8.292687702924013">
        <ele>1869.96</ele>
        <time>2023-09-10T07:02:39Z</time>
      </trkpt>
      <trkpt lat="46.335941422730684" lon="8.292697928845882">
        <ele>1869.8</ele>
        <time>2023-09-10T07:02:40Z</time>
      </trkpt>
      <trkpt lat="46.335952738299966" lon="8.292709076777101">
        <ele>1869.8299999999999</ele>
        <time>2023-09-10T07:02:41Z</time>
      </trkpt>
      <trkpt lat="46.335962126031518" lon="8.292719889432192">
        <ele>1869.8199999999999</ele>
        <time>2023-09-10T07:02:42Z</time>
      </trkpt>
      <trkpt lat="46.336047537624836" lon="8.29283463768661">
        <ele>1868.6300000000001</ele>
        <time>2023-09-10T07:02:52Z</time>
      </trkpt>
      <trkpt lat="46.336051477119327" lon="8.292850311845541">
        <ele>1868.5</ele>
        <time>2023-09-10T07:02:53Z</time>
      </trkpt>
      <trkpt lat="46.336062038317323" lon="8.292859699577093">
        <ele>1868.3699999999999</ele>
        <time>2023-09-10T07:02:54Z</time>
      </trkpt>
      <trkpt lat="46.336083663627505" lon="8.292876463383436">
        <ele>1868.05</ele>
        <time>2023-09-10T07:02:56Z</time>
      </trkpt>
      <trkpt lat="46.336102774366736" lon="8.292888030409813">
        <ele>1867.8599999999999</ele>
        <time>2023-09-10T07:02:58Z</time>
      </trkpt>
      <trkpt lat="46.336116185411811" lon="8.29289230518043">
        <ele>1867.6700000000001</ele>
        <time>2023-09-10T07:02:59Z</time>
      </trkpt>
      <trkpt lat="46.33621433749795" lon="8.292924072593451">
        <ele>1867.0699999999999</ele>
        <time>2023-09-10T07:03:09Z</time>
      </trkpt>
      <trkpt lat="46.336259264498949" lon="8.292933544144034">
        <ele>1866.3399999999999</ele>
        <time>2023-09-10T07:03:14Z</time>
      </trkpt>
      <trkpt lat="46.336272675544024" lon="8.292935723438859">
        <ele>1866.1099999999999</ele>
        <time>2023-09-10T07:03:15Z</time>
      </trkpt>
      <trkpt lat="46.336301760748029" lon="8.29293429851532">
        <ele>1865.71</ele>
        <time>2023-09-10T07:03:17Z</time>
      </trkpt>
      <trkpt lat="46.33645380847156" lon="8.292927341535687">
        <ele>1864.48</ele>
        <time>2023-09-10T07:03:29Z</time>
      </trkpt>
      <trkpt lat="46.336577190086246" lon="8.293033707886934">
        <ele>1863.3399999999999</ele>
        <time>2023-09-10T07:03:42Z</time>
      </trkpt>
      <trkpt lat="46.336665702983737" lon="8.29313856549561">
        <ele>1864.4200000000001</ele>
        <time>2023-09-10T07:03:52Z</time>
      </trkpt>
      <trkpt lat="46.336752371862531" lon="8.293251302093267">
        <ele>1865.5999999999999</ele>
        <time>2023-09-10T07:04:03Z</time>
      </trkpt>
      <trkpt lat="46.336847003549337" lon="8.293418185785413">
        <ele>1867.23</ele>
        <time>2023-09-10T07:04:17Z</time>
      </trkpt>
      <trkpt lat="46.336915148422122" lon="8.293580375611782">
        <ele>1868.3199999999999</ele>
        <time>2023-09-10T07:04:30Z</time>
      </trkpt>
      <trkpt lat="46.337005589157343" lon="8.293747846037149">
        <ele>1867.8</ele>
        <time>2023-09-10T07:04:42Z</time>
      </trkpt>
      <trkpt lat="46.337083457037807" lon="8.29387734644115">
        <ele>1867.6800000000001</ele>
        <time>2023-09-10T07:04:53Z</time>
      </trkpt>
      <trkpt lat="46.337092677131295" lon="8.2938885781914">
        <ele>1867.6800000000001</ele>
        <time>2023-09-10T07:04:54Z</time>
      </trkpt>
      <trkpt lat="46.337172305211425" lon="8.294005254283547">
        <ele>1867.0799999999999</ele>
        <time>2023-09-10T07:05:04Z</time>
      </trkpt>
      <trkpt lat="46.337254112586379" lon="8.294103154912591">
        <ele>1867.6800000000001</ele>
        <time>2023-09-10T07:05:15Z</time>
      </trkpt>
      <trkpt lat="46.337309516966343" lon="8.294126791879535">
        <ele>1868.0699999999999</ele>
        <time>2023-09-10T07:05:27Z</time>
      </trkpt>
      <trkpt lat="46.337396688759327" lon="8.294207006692886">
        <ele>1868.9200000000001</ele>
        <time>2023-09-10T07:05:39Z</time>
      </trkpt>
      <trkpt lat="46.337405573576689" lon="8.294221255928278">
        <ele>1868.8399999999999</ele>
        <time>2023-09-10T07:05:40Z</time>
      </trkpt>
      <trkpt lat="46.337479837238789" lon="8.294325107708573">
        <ele>1868.79</ele>
        <time>2023-09-10T07:05:50Z</time>
      </trkpt>
      <trkpt lat="46.337583186104894" lon="8.294419655576348">
        <ele>1870.25</ele>
        <time>2023-09-10T07:06:03Z</time>
      </trkpt>
      <trkpt lat="46.337614618241787" lon="8.294518478214741">
        <ele>1871.4300000000001</ele>
        <time>2023-09-10T07:06:12Z</time>
      </trkpt>
      <trkpt lat="46.337650576606393" lon="8.294633394107223">
        <ele>1873.6400000000001</ele>
        <time>2023-09-10T07:06:23Z</time>
      </trkpt>
      <trkpt lat="46.337713105604053" lon="8.294764403253794">
        <ele>1874.8699999999999</ele>
        <time>2023-09-10T07:06:35Z</time>
      </trkpt>
      <trkpt lat="46.337746884673834" lon="8.294806145131588">
        <ele>1875.6900000000001</ele>
        <time>2023-09-10T07:06:40Z</time>
      </trkpt>
      <trkpt lat="46.33780974894762" lon="8.29490345902741">
        <ele>1876.97</ele>
        <time>2023-09-10T07:06:50Z</time>
      </trkpt>
      <trkpt lat="46.337854424491525" lon="8.294948721304536">
        <ele>1876.8199999999999</ele>
        <time>2023-09-10T07:06:55Z</time>
      </trkpt>
      <trkpt lat="46.337919216603041" lon="8.294989792630076">
        <ele>1877.8599999999999</ele>
        <time>2023-09-10T07:07:03Z</time>
      </trkpt>
      <trkpt lat="46.337968250736594" lon="8.295076796784997">
        <ele>1880.1800000000001</ele>
        <time>2023-09-10T07:07:15Z</time>
      </trkpt>
      <trkpt lat="46.338041257113218" lon="8.295171344652772">
        <ele>1881.97</ele>
        <time>2023-09-10T07:07:28Z</time>
      </trkpt>
      <trkpt lat="46.338135553523898" lon="8.295272598043084">
        <ele>1882.98</ele>
        <time>2023-09-10T07:07:42Z</time>
      </trkpt>
      <trkpt lat="46.33819280192256" lon="8.295401930809021">
        <ele>1885.7</ele>
        <time>2023-09-10T07:07:57Z</time>
      </trkpt>
      <trkpt lat="46.338217193260789" lon="8.2954341173172">
        <ele>1886.1199999999999</ele>
        <time>2023-09-10T07:08:01Z</time>
      </trkpt>
      <trkpt lat="46.338257761672139" lon="8.295565294101834">
        <ele>1887.77</ele>
        <time>2023-09-10T07:08:14Z</time>
      </trkpt>
      <trkpt lat="46.338302101939917" lon="8.295689346268773">
        <ele>1889.46</ele>
        <time>2023-09-10T07:08:26Z</time>
      </trkpt>
      <trkpt lat="46.33835113607347" lon="8.29572337679565">
        <ele>1890.1900000000001</ele>
        <time>2023-09-10T07:08:34Z</time>
      </trkpt>
      <trkpt lat="46.338360942900181" lon="8.29572924412787">
        <ele>1890.24</ele>
        <time>2023-09-10T07:08:35Z</time>
      </trkpt>
      <trkpt lat="46.338380221277475" lon="8.295741397887468">
        <ele>1890.1199999999999</ele>
        <time>2023-09-10T07:08:37Z</time>
      </trkpt>
      <trkpt lat="46.338489353656769" lon="8.295788755640388">
        <ele>1891.3399999999999</ele>
        <time>2023-09-10T07:08:51Z</time>
      </trkpt>
      <trkpt lat="46.338580632582307" lon="8.29583921469748">
        <ele>1892.3399999999999</ele>
        <time>2023-09-10T07:09:05Z</time>
      </trkpt>
      <trkpt lat="46.338595720008016" lon="8.295849608257413">
        <ele>1892.3199999999999</ele>
        <time>2023-09-10T07:09:13Z</time>
      </trkpt>
      <trkpt lat="46.338596977293491" lon="8.29585681669414">
        <ele>1892.74</ele>
        <time>2023-09-10T07:09:21Z</time>
      </trkpt>
      <trkpt lat="46.338593289256096" lon="8.295857906341553">
        <ele>1892.8900000000001</ele>
        <time>2023-09-10T07:09:30Z</time>
      </trkpt>
      <trkpt lat="46.338584488257766" lon="8.295844327658415">
        <ele>1892.75</ele>
        <time>2023-09-10T07:09:48Z</time>
      </trkpt>
      <trkpt lat="46.338758245110512" lon="8.296108357608318">
        <ele>1875.47</ele>
        <time>2023-09-10T07:14:28Z</time>
      </trkpt>
      <trkpt lat="46.338806608691812" lon="8.296156469732523">
        <ele>1875.5799999999999</ele>
        <time>2023-09-10T07:14:34Z</time>
      </trkpt>
      <trkpt lat="46.338855559006333" lon="8.296215562149882">
        <ele>1877.3599999999999</ele>
        <time>2023-09-10T07:14:39Z</time>
      </trkpt>
      <trkpt lat="46.338873999193311" lon="8.296247748658061">
        <ele>1875.8099999999999</ele>
        <time>2023-09-10T07:14:41Z</time>
      </trkpt>
      <trkpt lat="46.338969804346561" lon="8.296414883807302">
        <ele>1876.8099999999999</ele>
        <time>2023-09-10T07:14:53Z</time>
      </trkpt>
      <trkpt lat="46.339006936177611" lon="8.29645536839962">
        <ele>1877.2</ele>
        <time>2023-09-10T07:14:57Z</time>
      </trkpt>
      <trkpt lat="46.339115481823683" lon="8.296544635668397">
        <ele>1875.96</ele>
        <time>2023-09-10T07:15:08Z</time>
      </trkpt>
      <trkpt lat="46.339228134602308" lon="8.296719314530492">
        <ele>1874.6800000000001</ele>
        <time>2023-09-10T07:15:23Z</time>
      </trkpt>
      <trkpt lat="46.339323353022337" lon="8.296863315626979">
        <ele>1872.3699999999999</ele>
        <time>2023-09-10T07:15:37Z</time>
      </trkpt>
      <trkpt lat="46.339340452104807" lon="8.296883013099432">
        <ele>1871.78</ele>
        <time>2023-09-10T07:15:49Z</time>
      </trkpt>
      <trkpt lat="46.339340535923839" lon="8.2968760561198">
        <ele>1871.9100000000001</ele>
        <time>2023-09-10T07:15:52Z</time>
      </trkpt>
      <trkpt lat="46.339372973889112" lon="8.296902626752853">
        <ele>1871.5899999999999</ele>
        <time>2023-09-10T07:15:55Z</time>
      </trkpt>
      <trkpt lat="46.339476322755218" lon="8.297020643949509">
        <ele>1869.29</ele>
        <time>2023-09-10T07:16:08Z</time>
      </trkpt>
      <trkpt lat="46.339533319696784" lon="8.2970573566854">
        <ele>1868.1500000000001</ele>
        <time>2023-09-10T07:16:16Z</time>
      </trkpt>
      <trkpt lat="46.339602218940854" lon="8.297130446881056">
        <ele>1867.0599999999999</ele>
        <time>2023-09-10T07:16:24Z</time>
      </trkpt>
      <trkpt lat="46.339722583070397" lon="8.297258773818612">
        <ele>1865.45</ele>
        <time>2023-09-10T07:16:37Z</time>
      </trkpt>
      <trkpt lat="46.339753428474069" lon="8.297344436869025">
        <ele>1865</ele>
        <time>2023-09-10T07:16:43Z</time>
      </trkpt>
      <trkpt lat="46.339897094294429" lon="8.297410234808922">
        <ele>1863.9300000000001</ele>
        <time>2023-09-10T07:16:55Z</time>
      </trkpt>
      <trkpt lat="46.339967753738165" lon="8.297457760199904">
        <ele>1863.3499999999999</ele>
        <time>2023-09-10T07:17:02Z</time>
      </trkpt>
      <trkpt lat="46.340025253593922" lon="8.297470165416598">
        <ele>1862.99</ele>
        <time>2023-09-10T07:17:06Z</time>
      </trkpt>
      <trkpt lat="46.34009163826704" lon="8.297505788505077">
        <ele>1862.5599999999999</ele>
        <time>2023-09-10T07:17:11Z</time>
      </trkpt>
      <trkpt lat="46.340194484218955" lon="8.297623638063669">
        <ele>1860.9200000000001</ele>
        <time>2023-09-10T07:17:23Z</time>
      </trkpt>
      <trkpt lat="46.340322811156511" lon="8.297721454873681">
        <ele>1859.23</ele>
        <time>2023-09-10T07:17:35Z</time>
      </trkpt>
      <trkpt lat="46.340362625196576" lon="8.297756658867002">
        <ele>1858.3699999999999</ele>
        <time>2023-09-10T07:17:39Z</time>
      </trkpt>
      <trkpt lat="46.340444684028625" lon="8.29790317453444">
        <ele>1857.24</ele>
        <time>2023-09-10T07:17:50Z</time>
      </trkpt>
      <trkpt lat="46.3404805585742" lon="8.298004930838943">
        <ele>1856.6700000000001</ele>
        <time>2023-09-10T07:17:56Z</time>
      </trkpt>
      <trkpt lat="46.340579213574529" lon="8.298199558630586">
        <ele>1855.51</ele>
        <time>2023-09-10T07:18:09Z</time>
      </trkpt>
      <trkpt lat="46.340670743957162" lon="8.298353534191847">
        <ele>1854.0899999999999</ele>
        <time>2023-09-10T07:18:20Z</time>
      </trkpt>
      <trkpt lat="46.340727992355824" lon="8.298451267182827">
        <ele>1853.3199999999999</ele>
        <time>2023-09-10T07:18:27Z</time>
      </trkpt>
      <trkpt lat="46.340782474726439" lon="8.298538103699684">
        <ele>1852.49</ele>
        <time>2023-09-10T07:18:33Z</time>
      </trkpt>
      <trkpt lat="46.340917255729437" lon="8.298733904957771">
        <ele>1851.26</ele>
        <time>2023-09-10T07:18:47Z</time>
      </trkpt>
      <trkpt lat="46.340985568240285" lon="8.298938758671284">
        <ele>1849.9400000000001</ele>
        <time>2023-09-10T07:18:59Z</time>
      </trkpt>
      <trkpt lat="46.341021526604891" lon="8.298992486670613">
        <ele>1849.6600000000001</ele>
        <time>2023-09-10T07:19:03Z</time>
      </trkpt>
      <trkpt lat="46.341116158291698" lon="8.299044789746404">
        <ele>1847.51</ele>
        <time>2023-09-10T07:19:14Z</time>
      </trkpt>
      <trkpt lat="46.341132083907723" lon="8.299041353166103">
        <ele>1847.3699999999999</ele>
        <time>2023-09-10T07:19:16Z</time>
      </trkpt>
      <trkpt lat="46.341273235157132" lon="8.299050237983465">
        <ele>1849.6900000000001</ele>
        <time>2023-09-10T07:19:31Z</time>
      </trkpt>
      <trkpt lat="46.341320928186178" lon="8.299108659848571">
        <ele>1850.9200000000001</ele>
        <time>2023-09-10T07:19:38Z</time>
      </trkpt>
      <trkpt lat="46.341334506869316" lon="8.299154927954078">
        <ele>1851.21</ele>
        <time>2023-09-10T07:19:41Z</time>
      </trkpt>
      <trkpt lat="46.341385887935758" lon="8.299334635958076">
        <ele>1851.01</ele>
        <time>2023-09-10T07:19:52Z</time>
      </trkpt>
      <trkpt lat="46.341480854898691" lon="8.299488946795464">
        <ele>1850.9400000000001</ele>
        <time>2023-09-10T07:20:04Z</time>
      </trkpt>
      <trkpt lat="46.341574396938086" lon="8.299571005627513">
        <ele>1851.0599999999999</ele>
        <time>2023-09-10T07:20:15Z</time>
      </trkpt>
      <trkpt lat="46.341769946739078" lon="8.299645856022835">
        <ele>1851.22</ele>
        <time>2023-09-10T07:20:33Z</time>
      </trkpt>
      <trkpt lat="46.341951498761773" lon="8.299733363091946">
        <ele>1851.3599999999999</ele>
        <time>2023-09-10T07:20:45Z</time>
      </trkpt>
      <trkpt lat="46.342152999714017" lon="8.299814332276583">
        <ele>1851.1700000000001</ele>
        <time>2023-09-10T07:20:59Z</time>
      </trkpt>
      <trkpt lat="46.34233295917511" lon="8.299844507128">
        <ele>1851.71</ele>
        <time>2023-09-10T07:21:13Z</time>
      </trkpt>
      <trkpt lat="46.342462208122015" lon="8.2999412342906">
        <ele>1851.8800000000001</ele>
        <time>2023-09-10T07:21:25Z</time>
      </trkpt>
      <trkpt lat="46.342580979689956" lon="8.300015078857541">
        <ele>1852.1400000000001</ele>
        <time>2023-09-10T07:21:36Z</time>
      </trkpt>
      <trkpt lat="46.342705702409148" lon="8.300071405246854">
        <ele>1852.8099999999999</ele>
        <time>2023-09-10T07:21:48Z</time>
      </trkpt>
      <trkpt lat="46.342816008254886" lon="8.30009562894702">
        <ele>1853.1199999999999</ele>
        <time>2023-09-10T07:21:58Z</time>
      </trkpt>
      <trkpt lat="46.342917680740356" lon="8.300165785476565">
        <ele>1854.24</ele>
        <time>2023-09-10T07:22:08Z</time>
      </trkpt>
      <trkpt lat="46.342984400689602" lon="8.300229990854859">
        <ele>1855.4100000000001</ele>
        <time>2023-09-10T07:22:15Z</time>
      </trkpt>
      <trkpt lat="46.343109207227826" lon="8.300334177911282">
        <ele>1857.4300000000001</ele>
        <time>2023-09-10T07:22:28Z</time>
      </trkpt>
      <trkpt lat="46.343210460618138" lon="8.300462169572711">
        <ele>1858.99</ele>
        <time>2023-09-10T07:22:41Z</time>
      </trkpt>
      <trkpt lat="46.343218674883246" lon="8.300471557304263">
        <ele>1859.0799999999999</ele>
        <time>2023-09-10T07:22:42Z</time>
      </trkpt>
      <trkpt lat="46.343241641297936" lon="8.300482286140323">
        <ele>1859.25</ele>
        <time>2023-09-10T07:22:44Z</time>
      </trkpt>
      <trkpt lat="46.343351108953357" lon="8.300546826794744">
        <ele>1860.77</ele>
        <time>2023-09-10T07:22:55Z</time>
      </trkpt>
      <trkpt lat="46.343489745631814" lon="8.300592340528965">
        <ele>1861.3900000000001</ele>
        <time>2023-09-10T07:23:08Z</time>
      </trkpt>
      <trkpt lat="46.343501480296254" lon="8.300590664148331">
        <ele>1861.4300000000001</ele>
        <time>2023-09-10T07:23:09Z</time>
      </trkpt>
      <trkpt lat="46.343547664582729" lon="8.300633998587728">
        <ele>1861.4200000000001</ele>
        <time>2023-09-10T07:23:16Z</time>
      </trkpt>
      <trkpt lat="46.343569122254848" lon="8.30066392198205">
        <ele>1861.6500000000001</ele>
        <time>2023-09-10T07:23:19Z</time>
      </trkpt>
      <trkpt lat="46.343671213835478" lon="8.300740197300911">
        <ele>1861.95</ele>
        <time>2023-09-10T07:23:30Z</time>
      </trkpt>
      <trkpt lat="46.343760313466191" lon="8.300809683278203">
        <ele>1862.78</ele>
        <time>2023-09-10T07:23:40Z</time>
      </trkpt>
      <trkpt lat="46.343912361189723" lon="8.30086961388588">
        <ele>1863.3</ele>
        <time>2023-09-10T07:23:53Z</time>
      </trkpt>
      <trkpt lat="46.344025433063507" lon="8.300962653011084">
        <ele>1863.04</ele>
        <time>2023-09-10T07:24:04Z</time>
      </trkpt>
      <trkpt lat="46.34405292570591" lon="8.301032306626439">
        <ele>1863.0699999999999</ele>
        <time>2023-09-10T07:24:08Z</time>
      </trkpt>
      <trkpt lat="46.344183851033449" lon="8.301171194761992">
        <ele>1862.8199999999999</ele>
        <time>2023-09-10T07:24:21Z</time>
      </trkpt>
      <trkpt lat="46.344302957877517" lon="8.301393566653132">
        <ele>1864.1500000000001</ele>
        <time>2023-09-10T07:24:36Z</time>
      </trkpt>
      <trkpt lat="46.34440672583878" lon="8.301506051793695">
        <ele>1865.79</ele>
        <time>2023-09-10T07:24:50Z</time>
      </trkpt>
      <trkpt lat="46.3445093203336" lon="8.301498759537935">
        <ele>1868.0899999999999</ele>
        <time>2023-09-10T07:25:05Z</time>
      </trkpt>
      <trkpt lat="46.3445835839957" lon="8.301476715132594">
        <ele>1869.97</ele>
        <time>2023-09-10T07:25:15Z</time>
      </trkpt>
      <trkpt lat="46.344684502109885" lon="8.301493478938937">
        <ele>1871.3900000000001</ele>
        <time>2023-09-10T07:25:28Z</time>
      </trkpt>
      <trkpt lat="46.344794388860464" lon="8.301538154482842">
        <ele>1869.73</ele>
        <time>2023-09-10T07:25:42Z</time>
      </trkpt>
      <trkpt lat="46.344865886494517" lon="8.301515020430088">
        <ele>1869.4300000000001</ele>
        <time>2023-09-10T07:25:57Z</time>
      </trkpt>
      <trkpt lat="46.344897570088506" lon="8.301468500867486">
        <ele>1869.73</ele>
        <time>2023-09-10T07:26:01Z</time>
      </trkpt>
      <trkpt lat="46.344960182905197" lon="8.301334893330932">
        <ele>1871.9100000000001</ele>
        <time>2023-09-10T07:26:15Z</time>
      </trkpt>
      <trkpt lat="46.344981724396348" lon="8.301310585811734">
        <ele>1874.3499999999999</ele>
        <time>2023-09-10T07:26:30Z</time>
      </trkpt>
      <trkpt lat="46.345050958916545" lon="8.301421143114567">
        <ele>1877.47</ele>
        <time>2023-09-10T07:26:44Z</time>
      </trkpt>
      <trkpt lat="46.345115583389997" lon="8.301506051793695">
        <ele>1880.5</ele>
        <time>2023-09-10T07:26:57Z</time>
      </trkpt>
      <trkpt lat="46.34513771161437" lon="8.301421562209725">
        <ele>1882.72</ele>
        <time>2023-09-10T07:27:11Z</time>
      </trkpt>
      <trkpt lat="46.345140980556607" lon="8.301299773156643">
        <ele>1885.1199999999999</ele>
        <time>2023-09-10T07:27:26Z</time>
      </trkpt>
      <trkpt lat="46.345182387158275" lon="8.301214780658484">
        <ele>1886.6199999999999</ele>
        <time>2023-09-10T07:27:39Z</time>
      </trkpt>
      <trkpt lat="46.345282550901175" lon="8.301220899447799">
        <ele>1889.3199999999999</ele>
        <time>2023-09-10T07:27:55Z</time>
      </trkpt>
      <trkpt lat="46.345312306657434" lon="8.301236657425761">
        <ele>1889.6099999999999</ele>
        <time>2023-09-10T07:27:59Z</time>
      </trkpt>
      <trkpt lat="46.345337284728885" lon="8.301256019622088">
        <ele>1889.78</ele>
        <time>2023-09-10T07:28:02Z</time>
      </trkpt>
      <trkpt lat="46.345358658581972" lon="8.301277896389365">
        <ele>1889.5899999999999</ele>
        <time>2023-09-10T07:28:04Z</time>
      </trkpt>
      <trkpt lat="46.345487656071782" lon="8.301411923021078">
        <ele>1889.1300000000001</ele>
        <time>2023-09-10T07:28:17Z</time>
      </trkpt>
      <trkpt lat="46.345568960532546" lon="8.301489958539605">
        <ele>1890.1600000000001</ele>
        <time>2023-09-10T07:28:28Z</time>
      </trkpt>
      <trkpt lat="46.345593184232712" lon="8.301495825871825">
        <ele>1890.05</ele>
        <time>2023-09-10T07:28:45Z</time>
      </trkpt>
      <trkpt lat="46.345691839233041" lon="8.301514349877834">
        <ele>1890.3699999999999</ele>
        <time>2023-09-10T07:28:57Z</time>
      </trkpt>
      <trkpt lat="46.345726205036044" lon="8.3015126734972">
        <ele>1890.1800000000001</ele>
        <time>2023-09-10T07:29:00Z</time>
      </trkpt>
      <trkpt lat="46.345806587487459" lon="8.301499681547284">
        <ele>1889.6300000000001</ele>
        <time>2023-09-10T07:29:07Z</time>
      </trkpt>
      <trkpt lat="46.345936506986618" lon="8.301451988518238">
        <ele>1888.71</ele>
        <time>2023-09-10T07:29:18Z</time>
      </trkpt>
      <trkpt lat="46.345949415117502" lon="8.301444193348289">
        <ele>1888.0999999999999</ele>
        <time>2023-09-10T07:29:19Z</time>
      </trkpt>
      <trkpt lat="46.34599233046174" lon="8.301392057910562">
        <ele>1888.7</ele>
        <time>2023-09-10T07:29:22Z</time>
      </trkpt>
      <trkpt lat="46.34603139013052" lon="8.301189886406064">
        <ele>1888.8800000000001</ele>
        <time>2023-09-10T07:29:34Z</time>
      </trkpt>
      <trkpt lat="46.34603189304471" lon="8.301173960790038">
        <ele>1888.6099999999999</ele>
        <time>2023-09-10T07:29:36Z</time>
      </trkpt>
      <trkpt lat="46.345962407067418" lon="8.300934238359332">
        <ele>1886.29</ele>
        <time>2023-09-10T07:29:50Z</time>
      </trkpt>
      <trkpt lat="46.345940865576267" lon="8.300742628052831">
        <ele>1887.4100000000001</ele>
        <time>2023-09-10T07:30:03Z</time>
      </trkpt>
      <trkpt lat="46.345934998244047" lon="8.300618324428797">
        <ele>1889.97</ele>
        <time>2023-09-10T07:30:14Z</time>
      </trkpt>
      <trkpt lat="46.345886299386621" lon="8.300483794882894">
        <ele>1891.2</ele>
        <time>2023-09-10T07:30:24Z</time>
      </trkpt>
      <trkpt lat="46.3457992952317" lon="8.300333255901933">
        <ele>1892.0999999999999</ele>
        <time>2023-09-10T07:30:38Z</time>
      </trkpt>
      <trkpt lat="46.345746656879783" lon="8.300197049975395">
        <ele>1893.8099999999999</ele>
        <time>2023-09-10T07:30:51Z</time>
      </trkpt>
      <trkpt lat="46.345771718770266" lon="8.300065454095602">
        <ele>1896.5799999999999</ele>
        <time>2023-09-10T07:31:03Z</time>
      </trkpt>
      <trkpt lat="46.345787644386292" lon="8.299995884299278">
        <ele>1898.3900000000001</ele>
        <time>2023-09-10T07:31:39Z</time>
      </trkpt>
      <trkpt lat="46.345802396535873" lon="8.299982473254204">
        <ele>1899.0599999999999</ele>
        <time>2023-09-10T07:32:14Z</time>
      </trkpt>
      <trkpt lat="46.345814215019345" lon="8.299967302009463">
        <ele>1901.29</ele>
        <time>2023-09-10T07:35:12Z</time>
      </trkpt>
      <trkpt lat="46.345815137028694" lon="8.299959255382419">
        <ele>1901.5999999999999</ele>
        <time>2023-09-10T07:35:25Z</time>
      </trkpt>
      <trkpt lat="46.345815556123853" lon="8.299963781610131">
        <ele>1902.04</ele>
        <time>2023-09-10T07:35:43Z</time>
      </trkpt>
      <trkpt lat="46.345817986875772" lon="8.299964033067226">
        <ele>1903.03</ele>
        <time>2023-09-10T07:35:53Z</time>
      </trkpt>
      <trkpt lat="46.345815807580948" lon="8.299965374171734">
        <ele>1902.5699999999999</ele>
        <time>2023-09-10T07:36:10Z</time>
      </trkpt>
      <trkpt lat="46.345851765945554" lon="8.299861773848534">
        <ele>1903.9400000000001</ele>
        <time>2023-09-10T07:36:30Z</time>
      </trkpt>
      <trkpt lat="46.345912786200643" lon="8.299857079982758">
        <ele>1906.29</ele>
        <time>2023-09-10T07:36:43Z</time>
      </trkpt>
      <trkpt lat="46.345975231379271" lon="8.299926985055208">
        <ele>1909.46</ele>
        <time>2023-09-10T07:36:57Z</time>
      </trkpt>
      <trkpt lat="46.346034407615662" lon="8.299974510446191">
        <ele>1910.9200000000001</ele>
        <time>2023-09-10T07:37:11Z</time>
      </trkpt>
      <trkpt lat="46.346081765368581" lon="8.300009798258543">
        <ele>1912.3800000000001</ele>
        <time>2023-09-10T07:37:24Z</time>
      </trkpt>
      <trkpt lat="46.346160303801298" lon="8.300051540136337">
        <ele>1914.6900000000001</ele>
        <time>2023-09-10T07:37:37Z</time>
      </trkpt>
      <trkpt lat="46.346239261329174" lon="8.300104262307286">
        <ele>1917.1500000000001</ele>
        <time>2023-09-10T07:37:52Z</time>
      </trkpt>
      <trkpt lat="46.346290223300457" lon="8.300180118530989">
        <ele>1917.99</ele>
        <time>2023-09-10T07:38:05Z</time>
      </trkpt>
      <trkpt lat="46.346359541639686" lon="8.300271732732654">
        <ele>1919.5</ele>
        <time>2023-09-10T07:38:18Z</time>
      </trkpt>
      <trkpt lat="46.346426345407963" lon="8.300329819321632">
        <ele>1922.3800000000001</ele>
        <time>2023-09-10T07:38:31Z</time>
      </trkpt>
      <trkpt lat="46.346487868577242" lon="8.300422104075551">
        <ele>1924.71</ele>
        <time>2023-09-10T07:38:45Z</time>
      </trkpt>
      <trkpt lat="46.346559450030327" lon="8.300473317503929">
        <ele>1927.1700000000001</ele>
        <time>2023-09-10T07:38:59Z</time>
      </trkpt>
      <trkpt lat="46.346637569367886" lon="8.300410369411111">
        <ele>1929.3099999999999</ele>
        <time>2023-09-10T07:39:12Z</time>
      </trkpt>
      <trkpt lat="46.346729351207614" lon="8.300341218709946">
        <ele>1932.3800000000001</ele>
        <time>2023-09-10T07:39:29Z</time>
      </trkpt>
      <trkpt lat="46.346835549920797" lon="8.300292184576392">
        <ele>1934.1300000000001</ele>
        <time>2023-09-10T07:39:44Z</time>
      </trkpt>
      <trkpt lat="46.346896151080728" lon="8.300277180969715">
        <ele>1936.01</ele>
        <time>2023-09-10T07:39:57Z</time>
      </trkpt>
      <trkpt lat="46.346998326480389" lon="8.300242898985744">
        <ele>1938.5999999999999</ele>
        <time>2023-09-10T07:40:13Z</time>
      </trkpt>
      <trkpt lat="46.347032692283392" lon="8.300239546224475">
        <ele>1939.02</ele>
        <time>2023-09-10T07:40:17Z</time>
      </trkpt>
      <trkpt lat="46.347134280949831" lon="8.300221022218466">
        <ele>1941.3199999999999</ele>
        <time>2023-09-10T07:40:31Z</time>
      </trkpt>
      <trkpt lat="46.347161773592234" lon="8.300238875672221">
        <ele>1942.6300000000001</ele>
        <time>2023-09-10T07:40:47Z</time>
      </trkpt>
      <trkpt lat="46.347201755270362" lon="8.300246084108949">
        <ele>1943.25</ele>
        <time>2023-09-10T07:40:58Z</time>
      </trkpt>
      <trkpt lat="46.347270319238305" lon="8.300263015553355">
        <ele>1944.5899999999999</ele>
        <time>2023-09-10T07:41:09Z</time>
      </trkpt>
      <trkpt lat="46.34733553044498" lon="8.30027692951262">
        <ele>1945.3900000000001</ele>
        <time>2023-09-10T07:41:20Z</time>
      </trkpt>
      <trkpt lat="46.347357407212257" lon="8.300272822380066">
        <ele>1945.8</ele>
        <time>2023-09-10T07:41:44Z</time>
      </trkpt>
      <trkpt lat="46.347396383062005" lon="8.300281958654523">
        <ele>1946.98</ele>
        <time>2023-09-10T07:42:35Z</time>
      </trkpt>
      <trkpt lat="46.347395209595561" lon="8.30028522759676">
        <ele>1942.8800000000001</ele>
        <time>2023-09-10T07:42:50Z</time>
      </trkpt>
      <trkpt lat="46.347395293414593" lon="8.300285143777728">
        <ele>1950.22</ele>
        <time>2023-09-10T07:42:52Z</time>
      </trkpt>
      <trkpt lat="46.347395041957498" lon="8.300284473225474">
        <ele>1947.4000000000001</ele>
        <time>2023-09-10T07:42:56Z</time>
      </trkpt>
      <trkpt lat="46.347398310899734" lon="8.300284557044506">
        <ele>1948.98</ele>
        <time>2023-09-10T07:43:13Z</time>
      </trkpt>
      <trkpt lat="46.347397640347481" lon="8.300283383578062">
        <ele>1946.73</ele>
        <time>2023-09-10T07:43:17Z</time>
      </trkpt>
      <trkpt lat="46.347395293414593" lon="8.300287239253521">
        <ele>1948.3499999999999</ele>
        <time>2023-09-10T07:43:31Z</time>
      </trkpt>
      <trkpt lat="46.347396550700068" lon="8.300288580358028">
        <ele>1948.3199999999999</ele>
        <time>2023-09-10T07:44:05Z</time>
      </trkpt>
      <trkpt lat="46.347399735823274" lon="8.300295453518629">
        <ele>1948.3399999999999</ele>
        <time>2023-09-10T07:44:31Z</time>
      </trkpt>
      <trkpt lat="46.347395712509751" lon="8.3002935256809">
        <ele>1946.24</ele>
        <time>2023-09-10T07:44:51Z</time>
      </trkpt>
      <trkpt lat="46.347395377233624" lon="8.300293944776058">
        <ele>1950.95</ele>
        <time>2023-09-10T07:44:56Z</time>
      </trkpt>
      <trkpt lat="46.347395125776529" lon="8.300294782966375">
        <ele>1950.98</ele>
        <time>2023-09-10T07:44:57Z</time>
      </trkpt>
      <trkpt lat="46.347395461052656" lon="8.300295621156693">
        <ele>1948.3800000000001</ele>
        <time>2023-09-10T07:45:00Z</time>
      </trkpt>
      <trkpt lat="46.347456565126777" lon="8.300302997231484">
        <ele>1949.28</ele>
        <time>2023-09-10T07:45:12Z</time>
      </trkpt>
      <trkpt lat="46.347575085237622" lon="8.300338201224804">
        <ele>1950.9400000000001</ele>
        <time>2023-09-10T07:45:25Z</time>
      </trkpt>
      <trkpt lat="46.347677847370505" lon="8.300393354147673">
        <ele>1951.75</ele>
        <time>2023-09-10T07:45:37Z</time>
      </trkpt>
      <trkpt lat="46.347778178751469" lon="8.300487482920289">
        <ele>1952.3900000000001</ele>
        <time>2023-09-10T07:45:49Z</time>
      </trkpt>
      <trkpt lat="46.347859650850296" lon="8.300561998039484">
        <ele>1952.9200000000001</ele>
        <time>2023-09-10T07:45:59Z</time>
      </trkpt>
      <trkpt lat="46.347964843735099" lon="8.300645565614104">
        <ele>1953.73</ele>
        <time>2023-09-10T07:46:12Z</time>
      </trkpt>
      <trkpt lat="46.348077580332756" lon="8.300711195915937">
        <ele>1955.54</ele>
        <time>2023-09-10T07:46:26Z</time>
      </trkpt>
      <trkpt lat="46.348157711327076" lon="8.300749501213431">
        <ele>1957.02</ele>
        <time>2023-09-10T07:46:37Z</time>
      </trkpt>
      <trkpt lat="46.348230130970478" lon="8.300769869238138">
        <ele>1959.2</ele>
        <time>2023-09-10T07:46:48Z</time>
      </trkpt>
      <trkpt lat="46.348304729908705" lon="8.300808174535632">
        <ele>1961.01</ele>
        <time>2023-09-10T07:47:01Z</time>
      </trkpt>
      <trkpt lat="46.348387962207198" lon="8.30084664747119">
        <ele>1963.48</ele>
        <time>2023-09-10T07:47:16Z</time>
      </trkpt>
      <trkpt lat="46.348468344658613" lon="8.300878833979368">
        <ele>1965.46</ele>
        <time>2023-09-10T07:47:29Z</time>
      </trkpt>
      <trkpt lat="46.348532466217875" lon="8.30091311596334">
        <ele>1967.45</ele>
        <time>2023-09-10T07:47:43Z</time>
      </trkpt>
      <trkpt lat="46.348585691303015" lon="8.30094538629055">
        <ele>1968.8499999999999</ele>
        <time>2023-09-10T07:47:52Z</time>
      </trkpt>
      <trkpt lat="46.348675880581141" lon="8.300973465666175">
        <ele>1971.1900000000001</ele>
        <time>2023-09-10T07:48:05Z</time>
      </trkpt>
      <trkpt lat="46.348723489791155" lon="8.30099081620574">
        <ele>1972.5699999999999</ele>
        <time>2023-09-10T07:48:13Z</time>
      </trkpt>
      <trkpt lat="46.348761627450585" lon="8.301053093746305">
        <ele>1972.3599999999999</ele>
        <time>2023-09-10T07:48:18Z</time>
      </trkpt>
      <trkpt lat="46.348785767331719" lon="8.30109441652894">
        <ele>1971.8</ele>
        <time>2023-09-10T07:48:21Z</time>
      </trkpt>
      <trkpt lat="46.348909819498658" lon="8.301198352128267">
        <ele>1972.4000000000001</ele>
        <time>2023-09-10T07:48:35Z</time>
      </trkpt>
      <trkpt lat="46.349011491984129" lon="8.30126540735364">
        <ele>1973.1099999999999</ele>
        <time>2023-09-10T07:48:47Z</time>
      </trkpt>
      <trkpt lat="46.349085671827197" lon="8.301359033212066">
        <ele>1974.45</ele>
        <time>2023-09-10T07:48:58Z</time>
      </trkpt>
      <trkpt lat="46.349138058722019" lon="8.30144377425313">
        <ele>1976.3399999999999</ele>
        <time>2023-09-10T07:49:10Z</time>
      </trkpt>
      <trkpt lat="46.349182818084955" lon="8.301585847511888">
        <ele>1978.6500000000001</ele>
        <time>2023-09-10T07:49:26Z</time>
      </trkpt>
      <trkpt lat="46.349223721772432" lon="8.30167293548584">
        <ele>1980.4400000000001</ele>
        <time>2023-09-10T07:49:39Z</time>
      </trkpt>
      <trkpt lat="46.34929345920682" lon="8.301754994317889">
        <ele>1982.72</ele>
        <time>2023-09-10T07:49:55Z</time>
      </trkpt>
      <trkpt lat="46.349336039274931" lon="8.301805704832077">
        <ele>1983.8699999999999</ele>
        <time>2023-09-10T07:50:10Z</time>
      </trkpt>
      <trkpt lat="46.349349031224847" lon="8.301812913268805">
        <ele>1983.79</ele>
        <time>2023-09-10T07:50:27Z</time>
      </trkpt>
      <trkpt lat="46.349346935749054" lon="8.301821546629071">
        <ele>1983.5799999999999</ele>
        <time>2023-09-10T07:50:45Z</time>
      </trkpt>
      <trkpt lat="46.349354647099972" lon="8.301877370104194">
        <ele>1983.6199999999999</ele>
        <time>2023-09-10T07:51:01Z</time>
      </trkpt>
      <trkpt lat="46.349427821114659" lon="8.302035452798009">
        <ele>1983.77</ele>
        <time>2023-09-10T07:51:15Z</time>
      </trkpt>
      <trkpt lat="46.349444249644876" lon="8.302054731175304">
        <ele>1984.01</ele>
        <time>2023-09-10T07:51:17Z</time>
      </trkpt>
      <trkpt lat="46.34950065985322" lon="8.302135532721877">
        <ele>1984.3800000000001</ele>
        <time>2023-09-10T07:51:25Z</time>
      </trkpt>
      <trkpt lat="46.349660335108638" lon="8.302178699523211">
        <ele>1985.49</ele>
        <time>2023-09-10T07:51:39Z</time>
      </trkpt>
      <trkpt lat="46.349820178002119" lon="8.302230415865779">
        <ele>1986.3399999999999</ele>
        <time>2023-09-10T07:51:52Z</time>
      </trkpt>
      <trkpt lat="46.349978260695934" lon="8.302290011197329">
        <ele>1987.1800000000001</ele>
        <time>2023-09-10T07:52:07Z</time>
      </trkpt>
      <trkpt lat="46.34998488239944" lon="8.302296968176961">
        <ele>1987.28</ele>
        <time>2023-09-10T07:52:08Z</time>
      </trkpt>
      <trkpt lat="46.350083453580737" lon="8.302396377548575">
        <ele>1988.1900000000001</ele>
        <time>2023-09-10T07:52:20Z</time>
      </trkpt>
      <trkpt lat="46.350195351988077" lon="8.302481705322862">
        <ele>1989.49</ele>
        <time>2023-09-10T07:52:34Z</time>
      </trkpt>
      <trkpt lat="46.350276824086905" lon="8.302530739456415">
        <ele>1990.51</ele>
        <time>2023-09-10T07:52:43Z</time>
      </trkpt>
      <trkpt lat="46.350355027243495" lon="8.302678344771266">
        <ele>1991.0599999999999</ele>
        <time>2023-09-10T07:52:56Z</time>
      </trkpt>
      <trkpt lat="46.350511014461517" lon="8.302764678373933">
        <ele>1991.3800000000001</ele>
        <time>2023-09-10T07:53:11Z</time>
      </trkpt>
      <trkpt lat="46.350634060800076" lon="8.302820334210992">
        <ele>1992.0699999999999</ele>
        <time>2023-09-10T07:53:24Z</time>
      </trkpt>
      <trkpt lat="46.350775882601738" lon="8.302848413586617">
        <ele>1992.8699999999999</ele>
        <time>2023-09-10T07:53:37Z</time>
      </trkpt>
      <trkpt lat="46.350843776017427" lon="8.302883030846715">
        <ele>1993.21</ele>
        <time>2023-09-10T07:53:44Z</time>
      </trkpt>
      <trkpt lat="46.350984424352646" lon="8.3029546122998">
        <ele>1994</ele>
        <time>2023-09-10T07:53:57Z</time>
      </trkpt>
      <trkpt lat="46.351105542853475" lon="8.303025774657726">
        <ele>1994.3800000000001</ele>
        <time>2023-09-10T07:54:09Z</time>
      </trkpt>
      <trkpt lat="46.35120939463377" lon="8.303068354725838">
        <ele>1994.77</ele>
        <time>2023-09-10T07:54:18Z</time>
      </trkpt>
      <trkpt lat="46.351303104311228" lon="8.303141193464398">
        <ele>1995.8900000000001</ele>
        <time>2023-09-10T07:54:30Z</time>
      </trkpt>
      <trkpt lat="46.351428581401706" lon="8.303205985575914">
        <ele>1997.29</ele>
        <time>2023-09-10T07:54:43Z</time>
      </trkpt>
      <trkpt lat="46.351510304957628" lon="8.303245883435011">
        <ele>1997.48</ele>
        <time>2023-09-10T07:54:51Z</time>
      </trkpt>
      <trkpt lat="46.351672075688839" lon="8.303194334730506">
        <ele>1996.1199999999999</ele>
        <time>2023-09-10T07:55:07Z</time>
      </trkpt>
      <trkpt lat="46.351826637983322" lon="8.303258875384927">
        <ele>1995.3399999999999</ele>
        <time>2023-09-10T07:55:22Z</time>
      </trkpt>
      <trkpt lat="46.35196284390986" lon="8.303302628919482">
        <ele>1995.0999999999999</ele>
        <time>2023-09-10T07:55:34Z</time>
      </trkpt>
      <trkpt lat="46.352086141705513" lon="8.303261809051037">
        <ele>1995.6600000000001</ele>
        <time>2023-09-10T07:55:46Z</time>
      </trkpt>
      <trkpt lat="46.352248331531882" lon="8.303294833749533">
        <ele>1996.05</ele>
        <time>2023-09-10T07:56:00Z</time>
      </trkpt>
      <trkpt lat="46.352294180542231" lon="8.303328696638346">
        <ele>1996.0599999999999</ele>
        <time>2023-09-10T07:56:05Z</time>
      </trkpt>
      <trkpt lat="46.352369198575616" lon="8.303400194272399">
        <ele>1996.1900000000001</ele>
        <time>2023-09-10T07:56:13Z</time>
      </trkpt>
      <trkpt lat="46.352430302649736" lon="8.303449563682079">
        <ele>1996.46</ele>
        <time>2023-09-10T07:56:19Z</time>
      </trkpt>
      <trkpt lat="46.352455699816346" lon="8.303463226184249">
        <ele>1996.6400000000001</ele>
        <time>2023-09-10T07:56:21Z</time>
      </trkpt>
      <trkpt lat="46.352562652900815" lon="8.303558696061373">
        <ele>1996.8599999999999</ele>
        <time>2023-09-10T07:56:32Z</time>
      </trkpt>
      <trkpt lat="46.352675054222345" lon="8.303636480122805">
        <ele>1997.5599999999999</ele>
        <time>2023-09-10T07:56:43Z</time>
      </trkpt>
      <trkpt lat="46.352793239057064" lon="8.303713845089078">
        <ele>1997.8199999999999</ele>
        <time>2023-09-10T07:56:54Z</time>
      </trkpt>
      <trkpt lat="46.352822659537196" lon="8.303733374923468">
        <ele>1998.1600000000001</ele>
        <time>2023-09-10T07:56:57Z</time>
      </trkpt>
      <trkpt lat="46.352936401963234" lon="8.303831778466702">
        <ele>1998.5999999999999</ele>
        <time>2023-09-10T07:57:09Z</time>
      </trkpt>
      <trkpt lat="46.353063220158219" lon="8.30391232855618">
        <ele>1999.3199999999999</ele>
        <time>2023-09-10T07:57:20Z</time>
      </trkpt>
      <trkpt lat="46.353129604831338" lon="8.303949208930135">
        <ele>1999.74</ele>
        <time>2023-09-10T07:57:29Z</time>
      </trkpt>
      <trkpt lat="46.35322448797524" lon="8.304012408480048">
        <ele>2000.48</ele>
        <time>2023-09-10T07:57:37Z</time>
      </trkpt>
      <trkpt lat="46.353317275643349" lon="8.304082397371531">
        <ele>2001.47</ele>
        <time>2023-09-10T07:57:46Z</time>
      </trkpt>
      <trkpt lat="46.353415260091424" lon="8.304164372384548">
        <ele>2002.4100000000001</ele>
        <time>2023-09-10T07:57:56Z</time>
      </trkpt>
      <trkpt lat="46.353441663086414" lon="8.304192870855331">
        <ele>2002.6199999999999</ele>
        <time>2023-09-10T07:57:59Z</time>
      </trkpt>
      <trkpt lat="46.353516597300768" lon="8.304258165881038">
        <ele>2002.9400000000001</ele>
        <time>2023-09-10T07:58:07Z</time>
      </trkpt>
      <trkpt lat="46.353639308363199" lon="8.304370986297727">
        <ele>2004.1800000000001</ele>
        <time>2023-09-10T07:58:20Z</time>
      </trkpt>
      <trkpt lat="46.353717846795917" lon="8.304486321285367">
        <ele>2005.1300000000001</ele>
        <time>2023-09-10T07:58:30Z</time>
      </trkpt>
      <trkpt lat="46.353779956698418" lon="8.304554717615247">
        <ele>2005.3800000000001</ele>
        <time>2023-09-10T07:58:37Z</time>
      </trkpt>
      <trkpt lat="46.353889675810933" lon="8.304601991549134">
        <ele>2005.9300000000001</ele>
        <time>2023-09-10T07:58:47Z</time>
      </trkpt>
      <trkpt lat="46.35398137383163" lon="8.304612133651972">
        <ele>2006.4200000000001</ele>
        <time>2023-09-10T07:58:55Z</time>
      </trkpt>
      <trkpt lat="46.354129230603576" lon="8.304622191935778">
        <ele>2008.2</ele>
        <time>2023-09-10T07:59:09Z</time>
      </trkpt>
      <trkpt lat="46.354214809834957" lon="8.304664185270667">
        <ele>2008.75</ele>
        <time>2023-09-10T07:59:18Z</time>
      </trkpt>
      <trkpt lat="46.354296617209911" lon="8.304717494174838">
        <ele>2009.3800000000001</ele>
        <time>2023-09-10T07:59:27Z</time>
      </trkpt>
      <trkpt lat="46.354402815923095" lon="8.304775664582849">
        <ele>2010.4200000000001</ele>
        <time>2023-09-10T07:59:37Z</time>
      </trkpt>
      <trkpt lat="46.354498034343123" lon="8.304826710373163">
        <ele>2011.02</ele>
        <time>2023-09-10T07:59:46Z</time>
      </trkpt>
      <trkpt lat="46.35459459386766" lon="8.304893178865314">
        <ele>2012.6700000000001</ele>
        <time>2023-09-10T07:59:57Z</time>
      </trkpt>
      <trkpt lat="46.354622002691031" lon="8.304918659850955">
        <ele>2013.2</ele>
        <time>2023-09-10T08:00:01Z</time>
      </trkpt>
      <trkpt lat="46.354701546952128" lon="8.304964005947113">
        <ele>2014.1500000000001</ele>
        <time>2023-09-10T08:00:11Z</time>
      </trkpt>
      <trkpt lat="46.354819145053625" lon="8.30499024130404">
        <ele>2015.0699999999999</ele>
        <time>2023-09-10T08:00:25Z</time>
      </trkpt>
      <trkpt lat="46.3549136929214" lon="8.305041790008545">
        <ele>2015.6700000000001</ele>
        <time>2023-09-10T08:00:35Z</time>
      </trkpt>
      <trkpt lat="46.355011006817222" lon="8.305129297077656">
        <ele>2016.3199999999999</ele>
        <time>2023-09-10T08:00:47Z</time>
      </trkpt>
      <trkpt lat="46.355102453380823" lon="8.305207332596183">
        <ele>2017.0899999999999</ele>
        <time>2023-09-10T08:00:57Z</time>
      </trkpt>
      <trkpt lat="46.355114104226232" lon="8.30521353520453">
        <ele>2017.21</ele>
        <time>2023-09-10T08:00:58Z</time>
      </trkpt>
      <trkpt lat="46.355224410071969" lon="8.305318225175142">
        <ele>2018.3900000000001</ele>
        <time>2023-09-10T08:01:12Z</time>
      </trkpt>
      <trkpt lat="46.355318957939744" lon="8.305370947346091">
        <ele>2020.4300000000001</ele>
        <time>2023-09-10T08:01:24Z</time>
      </trkpt>
      <trkpt lat="46.355409482493997" lon="8.305425178259611">
        <ele>2022.0799999999999</ele>
        <time>2023-09-10T08:01:35Z</time>
      </trkpt>
      <trkpt lat="46.355482656508684" lon="8.305481169372797">
        <ele>2023.53</ele>
        <time>2023-09-10T08:01:46Z</time>
      </trkpt>
      <trkpt lat="46.355557423084974" lon="8.305508745834231">
        <ele>2024.97</ele>
        <time>2023-09-10T08:01:56Z</time>
      </trkpt>
      <trkpt lat="46.355667393654585" lon="8.305534562096">
        <ele>2026.48</ele>
        <time>2023-09-10T08:02:11Z</time>
      </trkpt>
      <trkpt lat="46.355795301496983" lon="8.305564988404512">
        <ele>2027.5699999999999</ele>
        <time>2023-09-10T08:02:26Z</time>
      </trkpt>
      <trkpt lat="46.355820950120687" lon="8.305576220154762">
        <ele>2027.99</ele>
        <time>2023-09-10T08:02:29Z</time>
      </trkpt>
      <trkpt lat="46.355933267623186" lon="8.305623661726713">
        <ele>2029.28</ele>
        <time>2023-09-10T08:02:42Z</time>
      </trkpt>
      <trkpt lat="46.355975931510329" lon="8.305637408047915">
        <ele>2029.9400000000001</ele>
        <time>2023-09-10T08:02:47Z</time>
      </trkpt>
      <trkpt lat="46.356079950928688" lon="8.305671941488981">
        <ele>2031.45</ele>
        <time>2023-09-10T08:02:59Z</time>
      </trkpt>
      <trkpt lat="46.356115909293294" lon="8.305698679760099">
        <ele>2032.0799999999999</ele>
        <time>2023-09-10T08:03:04Z</time>
      </trkpt>
      <trkpt lat="46.356137283146381" lon="8.305719047784805">
        <ele>2032.52</ele>
        <time>2023-09-10T08:03:07Z</time>
      </trkpt>
      <trkpt lat="46.356193274259567" lon="8.305776966735721">
        <ele>2033.26</ele>
        <time>2023-09-10T08:03:15Z</time>
      </trkpt>
      <trkpt lat="46.356243565678596" lon="8.305829437449575">
        <ele>2033.78</ele>
        <time>2023-09-10T08:03:25Z</time>
      </trkpt>
      <trkpt lat="46.356282290071249" lon="8.305848212912679">
        <ele>2033.8900000000001</ele>
        <time>2023-09-10T08:03:29Z</time>
      </trkpt>
      <trkpt lat="46.356413466855884" lon="8.30587612465024">
        <ele>2035.3900000000001</ele>
        <time>2023-09-10T08:03:44Z</time>
      </trkpt>
      <trkpt lat="46.356465267017484" lon="8.305868748575449">
        <ele>2036.01</ele>
        <time>2023-09-10T08:03:49Z</time>
      </trkpt>
      <trkpt lat="46.356531400233507" lon="8.305869586765766">
        <ele>2036.8199999999999</ele>
        <time>2023-09-10T08:03:56Z</time>
      </trkpt>
      <trkpt lat="46.356561491265893" lon="8.305870089679956">
        <ele>2037.1800000000001</ele>
        <time>2023-09-10T08:03:59Z</time>
      </trkpt>
      <trkpt lat="46.356583032757044" lon="8.30587025731802">
        <ele>2037.3099999999999</ele>
        <time>2023-09-10T08:04:01Z</time>
      </trkpt>
      <trkpt lat="46.356716640293598" lon="8.305874867364764">
        <ele>2038.01</ele>
        <time>2023-09-10T08:04:14Z</time>
      </trkpt>
      <trkpt lat="46.356732062995434" lon="8.305877884849906">
        <ele>2038.1800000000001</ele>
        <time>2023-09-10T08:04:20Z</time>
      </trkpt>
      <trkpt lat="46.356761232018471" lon="8.305879225954413">
        <ele>2038.23</ele>
        <time>2023-09-10T08:04:23Z</time>
      </trkpt>
      <trkpt lat="46.356883188709617" lon="8.305899007245898">
        <ele>2038.9400000000001</ele>
        <time>2023-09-10T08:04:34Z</time>
      </trkpt>
      <trkpt lat="46.356970444321632" lon="8.305933708325028">
        <ele>2039.27</ele>
        <time>2023-09-10T08:04:42Z</time>
      </trkpt>
      <trkpt lat="46.357087371870875" lon="8.305977378040552">
        <ele>2039.52</ele>
        <time>2023-09-10T08:04:53Z</time>
      </trkpt>
      <trkpt lat="46.357174962759018" lon="8.306010402739048">
        <ele>2039.8299999999999</ele>
        <time>2023-09-10T08:05:01Z</time>
      </trkpt>
      <trkpt lat="46.357253920286894" lon="8.306053569540381">
        <ele>2040.5699999999999</ele>
        <time>2023-09-10T08:05:11Z</time>
      </trkpt>
      <trkpt lat="46.35726691223681" lon="8.306059185415506">
        <ele>2041.6199999999999</ele>
        <time>2023-09-10T08:05:23Z</time>
      </trkpt>
      <trkpt lat="46.357284598052502" lon="8.306059185415506">
        <ele>2041.73</ele>
        <time>2023-09-10T08:05:44Z</time>
      </trkpt>
      <trkpt lat="46.357359448447824" lon="8.306096652522683">
        <ele>2042.96</ele>
        <time>2023-09-10T08:05:56Z</time>
      </trkpt>
      <trkpt lat="46.357399262487888" lon="8.306117942556739">
        <ele>2043.45</ele>
        <time>2023-09-10T08:06:01Z</time>
      </trkpt>
      <trkpt lat="46.357491547241807" lon="8.306169826537371">
        <ele>2044.78</ele>
        <time>2023-09-10T08:06:13Z</time>
      </trkpt>
      <trkpt lat="46.357517950236797" lon="8.306183740496635">
        <ele>2044.8800000000001</ele>
        <time>2023-09-10T08:06:16Z</time>
      </trkpt>
      <trkpt lat="46.35755768045783" lon="8.306218022480607">
        <ele>2045.45</ele>
        <time>2023-09-10T08:06:21Z</time>
      </trkpt>
      <trkpt lat="46.357644684612751" lon="8.306313576176763">
        <ele>2045.8499999999999</ele>
        <time>2023-09-10T08:06:32Z</time>
      </trkpt>
      <trkpt lat="46.357656167820096" lon="8.30633687786758">
        <ele>2046.1300000000001</ele>
        <time>2023-09-10T08:06:34Z</time>
      </trkpt>
      <trkpt lat="46.357719032093883" lon="8.306413488462567">
        <ele>2046.8499999999999</ele>
        <time>2023-09-10T08:06:42Z</time>
      </trkpt>
      <trkpt lat="46.357727413997054" lon="8.306420110166073">
        <ele>2046.9000000000001</ele>
        <time>2023-09-10T08:06:43Z</time>
      </trkpt>
      <trkpt lat="46.357825733721256" lon="8.306449865922332">
        <ele>2047.9100000000001</ele>
        <time>2023-09-10T08:06:53Z</time>
      </trkpt>
      <trkpt lat="46.357932602986693" lon="8.306437460705638">
        <ele>2048.5100000000002</ele>
        <time>2023-09-10T08:07:02Z</time>
      </trkpt>
      <trkpt lat="46.358072413131595" lon="8.30644441768527">
        <ele>2050.3600000000001</ele>
        <time>2023-09-10T08:07:16Z</time>
      </trkpt>
      <trkpt lat="46.358124213293195" lon="8.306478364393115">
        <ele>2051.21</ele>
        <time>2023-09-10T08:07:22Z</time>
      </trkpt>
      <trkpt lat="46.358256563544273" lon="8.306568134576082">
        <ele>2052.5700000000002</ele>
        <time>2023-09-10T08:07:38Z</time>
      </trkpt>
      <trkpt lat="46.358378017321229" lon="8.306662263348699">
        <ele>2054.6799999999998</ele>
        <time>2023-09-10T08:07:55Z</time>
      </trkpt>
      <trkpt lat="46.358480108901858" lon="8.306769886985421">
        <ele>2055.7800000000002</ele>
        <time>2023-09-10T08:08:10Z</time>
      </trkpt>
      <trkpt lat="46.358561413362622" lon="8.30684163607657">
        <ele>2056.3800000000001</ele>
        <time>2023-09-10T08:08:20Z</time>
      </trkpt>
      <trkpt lat="46.358668114989996" lon="8.306926460936666">
        <ele>2059.02</ele>
        <time>2023-09-10T08:08:35Z</time>
      </trkpt>
      <trkpt lat="46.358746569603682" lon="8.30701463855803">
        <ele>2060.73</ele>
        <time>2023-09-10T08:08:49Z</time>
      </trkpt>
      <trkpt lat="46.358748581260443" lon="8.307017907500267">
        <ele>2061.0500000000002</ele>
        <time>2023-09-10T08:09:03Z</time>
      </trkpt>
      <trkpt lat="46.35874304920435" lon="8.307015057653189">
        <ele>2060.9899999999998</ele>
        <time>2023-09-10T08:09:26Z</time>
      </trkpt>
      <trkpt lat="46.358744222670794" lon="8.307014470919967">
        <ele>2060.8400000000001</ele>
        <time>2023-09-10T08:09:44Z</time>
      </trkpt>
      <trkpt lat="46.35874112136662" lon="8.307021846994758">
        <ele>2060.8000000000002</ele>
        <time>2023-09-10T08:10:00Z</time>
      </trkpt>
      <trkpt lat="46.35875235311687" lon="8.307037940248847">
        <ele>2060.9000000000001</ele>
        <time>2023-09-10T08:10:07Z</time>
      </trkpt>
      <trkpt lat="46.358765177428722" lon="8.307054201141">
        <ele>2060.6900000000001</ele>
        <time>2023-09-10T08:10:18Z</time>
      </trkpt>
      <trkpt lat="46.358776325359941" lon="8.307077083736658">
        <ele>2060.5599999999999</ele>
        <time>2023-09-10T08:10:36Z</time>
      </trkpt>
      <trkpt lat="46.358835669234395" lon="8.307160818949342">
        <ele>2061.4000000000001</ele>
        <time>2023-09-10T08:10:48Z</time>
      </trkpt>
      <trkpt lat="46.358838770538568" lon="8.307150928303599">
        <ele>2061.6900000000001</ele>
        <time>2023-09-10T08:11:25Z</time>
      </trkpt>
      <trkpt lat="46.358886798843741" lon="8.307201387360692">
        <ele>2062.1700000000001</ele>
        <time>2023-09-10T08:11:40Z</time>
      </trkpt>
      <trkpt lat="46.358904149383307" lon="8.307225191965699">
        <ele>2062.79</ele>
        <time>2023-09-10T08:11:53Z</time>
      </trkpt>
      <trkpt lat="46.358923176303506" lon="8.30724966712296">
        <ele>2062.9499999999998</ele>
        <time>2023-09-10T08:12:10Z</time>
      </trkpt>
      <trkpt lat="46.358977742493153" lon="8.307312615215778">
        <ele>2064.6599999999999</ele>
        <time>2023-09-10T08:12:20Z</time>
      </trkpt>
      <trkpt lat="46.359054856002331" lon="8.307391572743654">
        <ele>2066.4000000000001</ele>
        <time>2023-09-10T08:12:32Z</time>
      </trkpt>
      <trkpt lat="46.359155857935548" lon="8.30749249085784">
        <ele>2068.4299999999998</ele>
        <time>2023-09-10T08:12:48Z</time>
      </trkpt>
      <trkpt lat="46.359238503500819" lon="8.307629786431789">
        <ele>2069.8099999999999</ele>
        <time>2023-09-10T08:13:03Z</time>
      </trkpt>
      <trkpt lat="46.359310168772936" lon="8.307755850255489">
        <ele>2072.29</ele>
        <time>2023-09-10T08:13:19Z</time>
      </trkpt>
      <trkpt lat="46.359339170157909" lon="8.307833215221763">
        <ele>2073.5999999999999</ele>
        <time>2023-09-10T08:13:33Z</time>
      </trkpt>
      <trkpt lat="46.359399184584618" lon="8.307952070608735">
        <ele>2075.71</ele>
        <time>2023-09-10T08:13:49Z</time>
      </trkpt>
      <trkpt lat="46.359475711360574" lon="8.308018455281854">
        <ele>2077.4200000000001</ele>
        <time>2023-09-10T08:14:02Z</time>
      </trkpt>
      <trkpt lat="46.359502030536532" lon="8.308038404211402">
        <ele>2077.3000000000002</ele>
        <time>2023-09-10T08:14:05Z</time>
      </trkpt>
      <trkpt lat="46.359620718285441" lon="8.308146363124251">
        <ele>2078.1700000000001</ele>
        <time>2023-09-10T08:14:21Z</time>
      </trkpt>
      <trkpt lat="46.359740160405636" lon="8.308237725868821">
        <ele>2079.0999999999999</ele>
        <time>2023-09-10T08:14:35Z</time>
      </trkpt>
      <trkpt lat="46.359850466251373" lon="8.308336464688182">
        <ele>2080.3000000000002</ele>
        <time>2023-09-10T08:14:49Z</time>
      </trkpt>
      <trkpt lat="46.359936967492104" lon="8.308418272063136">
        <ele>2082.52</ele>
        <time>2023-09-10T08:15:04Z</time>
      </trkpt>
      <trkpt lat="46.360003855079412" lon="8.308505360037088">
        <ele>2084.3499999999999</ele>
        <time>2023-09-10T08:15:18Z</time>
      </trkpt>
      <trkpt lat="46.360051715746522" lon="8.308597058057785">
        <ele>2085.9699999999998</ele>
        <time>2023-09-10T08:15:32Z</time>
      </trkpt>
      <trkpt lat="46.36005163192749" lon="8.308598985895515">
        <ele>2086.1399999999999</ele>
        <time>2023-09-10T08:15:40Z</time>
      </trkpt>
      <trkpt lat="46.360080884769559" lon="8.308645337820053">
        <ele>2086.75</ele>
        <time>2023-09-10T08:15:46Z</time>
      </trkpt>
      <trkpt lat="46.360141737386584" lon="8.308722116053104">
        <ele>2087.9699999999998</ele>
        <time>2023-09-10T08:15:57Z</time>
      </trkpt>
      <trkpt lat="46.360145341604948" lon="8.308747513219714">
        <ele>2088.8800000000001</ele>
        <time>2023-09-10T08:16:10Z</time>
      </trkpt>
      <trkpt lat="46.360164871439338" lon="8.308832170441747">
        <ele>2090.1300000000001</ele>
        <time>2023-09-10T08:16:20Z</time>
      </trkpt>
      <trkpt lat="46.360209379345179" lon="8.308946834877133">
        <ele>2092.3800000000001</ele>
        <time>2023-09-10T08:16:34Z</time>
      </trkpt>
      <trkpt lat="46.360302837565541" lon="8.309010453522205">
        <ele>2094.3499999999999</ele>
        <time>2023-09-10T08:16:49Z</time>
      </trkpt>
      <trkpt lat="46.360385231673717" lon="8.309053871780634">
        <ele>2096.5700000000002</ele>
        <time>2023-09-10T08:17:02Z</time>
      </trkpt>
      <trkpt lat="46.360404007136822" lon="8.309103660285473">
        <ele>2098.1500000000001</ele>
        <time>2023-09-10T08:17:12Z</time>
      </trkpt>
      <trkpt lat="46.360369976609945" lon="8.309100056067109">
        <ele>2098.2600000000002</ele>
        <time>2023-09-10T08:17:22Z</time>
      </trkpt>
      <trkpt lat="46.360347596928477" lon="8.309122519567609">
        <ele>2098.6399999999999</ele>
        <time>2023-09-10T08:17:47Z</time>
      </trkpt>
      <trkpt lat="46.360339298844337" lon="8.309123357757926">
        <ele>2098.73</ele>
        <time>2023-09-10T08:17:48Z</time>
      </trkpt>
      <trkpt lat="46.360256234183908" lon="8.30914112739265">
        <ele>2099.7199999999998</ele>
        <time>2023-09-10T08:17:59Z</time>
      </trkpt>
      <trkpt lat="46.360255312174559" lon="8.30917683430016">
        <ele>2101.25</ele>
        <time>2023-09-10T08:18:11Z</time>
      </trkpt>
      <trkpt lat="46.360290851444006" lon="8.309186054393649">
        <ele>2102.1999999999998</ele>
        <time>2023-09-10T08:18:17Z</time>
      </trkpt>
      <trkpt lat="46.360347010195255" lon="8.309211200103164">
        <ele>2103.2399999999998</ele>
        <time>2023-09-10T08:18:25Z</time>
      </trkpt>
      <trkpt lat="46.360372574999928" lon="8.309221090748906">
        <ele>2104.0700000000002</ele>
        <time>2023-09-10T08:18:31Z</time>
      </trkpt>
      <trkpt lat="46.360434349626303" lon="8.309273310005665">
        <ele>2106.3800000000001</ele>
        <time>2023-09-10T08:18:43Z</time>
      </trkpt>
      <trkpt lat="46.36043518781662" lon="8.30927599221468">
        <ele>2106.6399999999999</ele>
        <time>2023-09-10T08:18:44Z</time>
      </trkpt>
      <trkpt lat="46.360496040433645" lon="8.309325948357582">
        <ele>2108.3200000000002</ele>
        <time>2023-09-10T08:18:56Z</time>
      </trkpt>
      <trkpt lat="46.360568627715111" lon="8.309366432949901">
        <ele>2110.3200000000002</ele>
        <time>2023-09-10T08:19:09Z</time>
      </trkpt>
      <trkpt lat="46.360631240531802" lon="8.309386717155576">
        <ele>2112.54</ele>
        <time>2023-09-10T08:19:21Z</time>
      </trkpt>
      <trkpt lat="46.36067952029407" lon="8.309366097673774">
        <ele>2114.3800000000001</ele>
        <time>2023-09-10T08:19:33Z</time>
      </trkpt>
      <trkpt lat="46.360710868611932" lon="8.309359140694141">
        <ele>2116.1999999999998</ele>
        <time>2023-09-10T08:19:45Z</time>
      </trkpt>
      <trkpt lat="46.360774738714099" lon="8.309346484020352">
        <ele>2117.3000000000002</ele>
        <time>2023-09-10T08:20:03Z</time>
      </trkpt>
      <trkpt lat="46.36081145144999" lon="8.309357045218349">
        <ele>2118.4200000000001</ele>
        <time>2023-09-10T08:20:15Z</time>
      </trkpt>
      <trkpt lat="46.36079728603363" lon="8.309376407414675">
        <ele>2118.6900000000001</ele>
        <time>2023-09-10T08:20:36Z</time>
      </trkpt>
      <trkpt lat="46.360841039568186" lon="8.309385627508164">
        <ele>2119.4099999999999</ele>
        <time>2023-09-10T08:20:54Z</time>
      </trkpt>
      <trkpt lat="46.360859228298068" lon="8.309396943077445">
        <ele>2119.8400000000001</ele>
        <time>2023-09-10T08:21:08Z</time>
      </trkpt>
      <trkpt lat="46.360793011263013" lon="8.309444133192301">
        <ele>2120.8200000000002</ele>
        <time>2023-09-10T08:21:19Z</time>
      </trkpt>
      <trkpt lat="46.360729895532131" lon="8.309492832049727">
        <ele>2122.3499999999999</ele>
        <time>2023-09-10T08:21:34Z</time>
      </trkpt>
      <trkpt lat="46.360744563862681" lon="8.309518313035369">
        <ele>2123.0100000000002</ele>
        <time>2023-09-10T08:21:45Z</time>
      </trkpt>
      <trkpt lat="46.36076551862061" lon="8.309515882283449">
        <ele>2123.1100000000001</ele>
        <time>2023-09-10T08:22:01Z</time>
      </trkpt>
      <trkpt lat="46.360770128667355" lon="8.309514708817005">
        <ele>2123.1999999999998</ele>
        <time>2023-09-10T08:22:21Z</time>
      </trkpt>
      <trkpt lat="46.360824694857001" lon="8.309513283893466">
        <ele>2123.9699999999998</ele>
        <time>2023-09-10T08:22:34Z</time>
      </trkpt>
      <trkpt lat="46.360909016802907" lon="8.309526694938541">
        <ele>2125.9699999999998</ele>
        <time>2023-09-10T08:22:48Z</time>
      </trkpt>
      <trkpt lat="46.360987136140466" lon="8.309525102376938">
        <ele>2127.8600000000001</ele>
        <time>2023-09-10T08:22:59Z</time>
      </trkpt>
      <trkpt lat="46.361096436157823" lon="8.309594253078103">
        <ele>2129.3299999999999</ele>
        <time>2023-09-10T08:23:14Z</time>
      </trkpt>
      <trkpt lat="46.361073805019259" lon="8.309642113745213">
        <ele>2130.73</ele>
        <time>2023-09-10T08:23:26Z</time>
      </trkpt>
      <trkpt lat="46.36096928268671" lon="8.309672959148884">
        <ele>2131.9099999999999</ele>
        <time>2023-09-10T08:23:39Z</time>
      </trkpt>
      <trkpt lat="46.360905664041638" lon="8.309741020202637">
        <ele>2132.98</ele>
        <time>2023-09-10T08:23:54Z</time>
      </trkpt>
      <trkpt lat="46.360982190817595" lon="8.309765830636025">
        <ele>2134.96</ele>
        <time>2023-09-10T08:24:07Z</time>
      </trkpt>
      <trkpt lat="46.361079253256321" lon="8.309782259166241">
        <ele>2136.8499999999999</ele>
        <time>2023-09-10T08:24:21Z</time>
      </trkpt>
      <trkpt lat="46.361145805567503" lon="8.309871945530176">
        <ele>2138.6900000000001</ele>
        <time>2023-09-10T08:24:36Z</time>
      </trkpt>
      <trkpt lat="46.361214369535446" lon="8.309965906664729">
        <ele>2140.73</ele>
        <time>2023-09-10T08:24:50Z</time>
      </trkpt>
      <trkpt lat="46.361285615712404" lon="8.309972528368235">
        <ele>2142.8499999999999</ele>
        <time>2023-09-10T08:25:01Z</time>
      </trkpt>
      <trkpt lat="46.36136993765831" lon="8.309950903058052">
        <ele>2144.3800000000001</ele>
        <time>2023-09-10T08:25:13Z</time>
      </trkpt>
      <trkpt lat="46.361396424472332" lon="8.310030112043023">
        <ele>2146.1399999999999</ele>
        <time>2023-09-10T08:25:27Z</time>
      </trkpt>
      <trkpt lat="46.361365411430597" lon="8.310109153389931">
        <ele>2147.6700000000001</ele>
        <time>2023-09-10T08:25:39Z</time>
      </trkpt>
      <trkpt lat="46.361394245177507" lon="8.310175454244018">
        <ele>2149.6300000000001</ele>
        <time>2023-09-10T08:25:50Z</time>
      </trkpt>
      <trkpt lat="46.361442692577839" lon="8.310212921351194">
        <ele>2151.54</ele>
        <time>2023-09-10T08:26:01Z</time>
      </trkpt>
      <trkpt lat="46.361443111672997" lon="8.310204371809959">
        <ele>2151.79</ele>
        <time>2023-09-10T08:26:18Z</time>
      </trkpt>
      <trkpt lat="46.361466497182846" lon="8.310231026262045">
        <ele>2152.4699999999998</ele>
        <time>2023-09-10T08:26:42Z</time>
      </trkpt>
      <trkpt lat="46.361513854935765" lon="8.310329262167215">
        <ele>2154.7399999999998</ele>
        <time>2023-09-10T08:26:57Z</time>
      </trkpt>
      <trkpt lat="46.361547382548451" lon="8.310400089249015">
        <ele>2156.25</ele>
        <time>2023-09-10T08:27:08Z</time>
      </trkpt>
      <trkpt lat="46.361578395590186" lon="8.310502432286739">
        <ele>2158.8600000000001</ele>
        <time>2023-09-10T08:27:22Z</time>
      </trkpt>
      <trkpt lat="46.361648049205542" lon="8.310560267418623">
        <ele>2160.8000000000002</ele>
        <time>2023-09-10T08:27:35Z</time>
      </trkpt>
      <trkpt lat="46.361691551283002" lon="8.310595052316785">
        <ele>2162.1900000000001</ele>
        <time>2023-09-10T08:27:49Z</time>
      </trkpt>
      <trkpt lat="46.361682331189513" lon="8.310596141964197">
        <ele>2162.4000000000001</ele>
        <time>2023-09-10T08:28:16Z</time>
      </trkpt>
      <trkpt lat="46.3617192953825" lon="8.310623886063695">
        <ele>2163.77</ele>
        <time>2023-09-10T08:28:37Z</time>
      </trkpt>
      <trkpt lat="46.361789032816887" lon="8.31065540201962">
        <ele>2166.25</ele>
        <time>2023-09-10T08:28:50Z</time>
      </trkpt>
      <trkpt lat="46.361872851848602" lon="8.310720780864358">
        <ele>2168.4299999999998</ele>
        <time>2023-09-10T08:29:05Z</time>
      </trkpt>
      <trkpt lat="46.36196848936379" lon="8.310801079496741">
        <ele>2170.5900000000001</ele>
        <time>2023-09-10T08:29:19Z</time>
      </trkpt>
      <trkpt lat="46.362062618136406" lon="8.31086209975183">
        <ele>2172.5300000000002</ele>
        <time>2023-09-10T08:29:34Z</time>
      </trkpt>
      <trkpt lat="46.362172840163112" lon="8.310926891863346">
        <ele>2174.8299999999999</ele>
        <time>2023-09-10T08:29:51Z</time>
      </trkpt>
      <trkpt lat="46.362255737185478" lon="8.310973243787885">
        <ele>2176.23</ele>
        <time>2023-09-10T08:30:04Z</time>
      </trkpt>
      <trkpt lat="46.362252300605178" lon="8.310977853834629">
        <ele>2176.7399999999998</ele>
        <time>2023-09-10T08:30:17Z</time>
      </trkpt>
      <trkpt lat="46.362314913421869" lon="8.311006855219603">
        <ele>2177.6799999999998</ele>
        <time>2023-09-10T08:30:28Z</time>
      </trkpt>
      <trkpt lat="46.362394457682967" lon="8.311045160517097">
        <ele>2178.96</ele>
        <time>2023-09-10T08:30:39Z</time>
      </trkpt>
      <trkpt lat="46.36247668415308" lon="8.311167536303401">
        <ele>2179.9699999999998</ele>
        <time>2023-09-10T08:30:53Z</time>
      </trkpt>
      <trkpt lat="46.362486490979791" lon="8.311178097501397">
        <ele>2180.0100000000002</ele>
        <time>2023-09-10T08:31:04Z</time>
      </trkpt>
      <trkpt lat="46.362531166523695" lon="8.311254121363163">
        <ele>2180.8099999999999</ele>
        <time>2023-09-10T08:31:12Z</time>
      </trkpt>
      <trkpt lat="46.362619176506996" lon="8.311375072225928">
        <ele>2183.1300000000001</ele>
        <time>2023-09-10T08:31:26Z</time>
      </trkpt>
      <trkpt lat="46.362668629735708" lon="8.311480935662985">
        <ele>2185.0500000000002</ele>
        <time>2023-09-10T08:31:39Z</time>
      </trkpt>
      <trkpt lat="46.362727889791131" lon="8.311584116891027">
        <ele>2187.4200000000001</ele>
        <time>2023-09-10T08:31:53Z</time>
      </trkpt>
      <trkpt lat="46.362769715487957" lon="8.311700960621238">
        <ele>2189.5799999999999</ele>
        <time>2023-09-10T08:32:07Z</time>
      </trkpt>
      <trkpt lat="46.362802907824516" lon="8.311801375821233">
        <ele>2191.7399999999998</ele>
        <time>2023-09-10T08:32:21Z</time>
      </trkpt>
      <trkpt lat="46.362825036048889" lon="8.311905143782497">
        <ele>2194.25</ele>
        <time>2023-09-10T08:32:34Z</time>
      </trkpt>
      <trkpt lat="46.362838027998805" lon="8.312020814046264">
        <ele>2196.23</ele>
        <time>2023-09-10T08:32:47Z</time>
      </trkpt>
      <trkpt lat="46.362868705764413" lon="8.312146626412869">
        <ele>2198.29</ele>
        <time>2023-09-10T08:33:00Z</time>
      </trkpt>
      <trkpt lat="46.362894522026181" lon="8.312263051047921">
        <ele>2199.6500000000001</ele>
        <time>2023-09-10T08:33:12Z</time>
      </trkpt>
      <trkpt lat="46.362912794575095" lon="8.312353156507015">
        <ele>2201.1700000000001</ele>
        <time>2023-09-10T08:33:22Z</time>
      </trkpt>
      <trkpt lat="46.362937185913324" lon="8.312486512586474">
        <ele>2202.6700000000001</ele>
        <time>2023-09-10T08:33:34Z</time>
      </trkpt>
      <trkpt lat="46.362961828708649" lon="8.312614839524031">
        <ele>2203.71</ele>
        <time>2023-09-10T08:33:46Z</time>
      </trkpt>
      <trkpt lat="46.362973228096962" lon="8.312664460390806">
        <ele>2204.04</ele>
        <time>2023-09-10T08:33:50Z</time>
      </trkpt>
      <trkpt lat="46.363030476495624" lon="8.312843162566423">
        <ele>2204.8099999999999</ele>
        <time>2023-09-10T08:34:04Z</time>
      </trkpt>
      <trkpt lat="46.363051431253552" lon="8.312882138416171">
        <ele>2204.6399999999999</ele>
        <time>2023-09-10T08:34:09Z</time>
      </trkpt>
      <trkpt lat="46.363144470378757" lon="8.313042484223843">
        <ele>2206.2800000000002</ele>
        <time>2023-09-10T08:34:24Z</time>
      </trkpt>
      <trkpt lat="46.363129466772079" lon="8.313216157257557">
        <ele>2208.1399999999999</ele>
        <time>2023-09-10T08:34:38Z</time>
      </trkpt>
      <trkpt lat="46.363085713237524" lon="8.313364684581757">
        <ele>2208.6399999999999</ele>
        <time>2023-09-10T08:34:50Z</time>
      </trkpt>
      <trkpt lat="46.362925367429852" lon="8.313491335138679">
        <ele>2207.8600000000001</ele>
        <time>2023-09-10T08:35:06Z</time>
      </trkpt>
      <trkpt lat="46.362894186750054" lon="8.313534082844853">
        <ele>2207.7800000000002</ele>
        <time>2023-09-10T08:35:10Z</time>
      </trkpt>
      <trkpt lat="46.362890247255564" lon="8.313590073958039">
        <ele>2207.8200000000002</ele>
        <time>2023-09-10T08:35:14Z</time>
      </trkpt>
      <trkpt lat="46.363000553101301" lon="8.313648160547018">
        <ele>2208.8099999999999</ele>
        <time>2023-09-10T08:35:27Z</time>
      </trkpt>
      <trkpt lat="46.363076409325004" lon="8.313731644302607">
        <ele>2210.1700000000001</ele>
        <time>2023-09-10T08:35:39Z</time>
      </trkpt>
      <trkpt lat="46.36318176984787" lon="8.313736505806446">
        <ele>2212.3899999999999</ele>
        <time>2023-09-10T08:35:51Z</time>
      </trkpt>
      <trkpt lat="46.363257458433509" lon="8.313668193295598">
        <ele>2214.04</ele>
        <time>2023-09-10T08:36:01Z</time>
      </trkpt>
      <trkpt lat="46.363307414576411" lon="8.313695518299937">
        <ele>2214.54</ele>
        <time>2023-09-10T08:36:08Z</time>
      </trkpt>
      <trkpt lat="46.36338260024786" lon="8.313812278211117">
        <ele>2215.54</ele>
        <time>2023-09-10T08:36:20Z</time>
      </trkpt>
      <trkpt lat="46.363487541675568" lon="8.313917638733983">
        <ele>2216.3000000000002</ele>
        <time>2023-09-10T08:36:33Z</time>
      </trkpt>
      <trkpt lat="46.363576976582408" lon="8.314084270969033">
        <ele>2217.0500000000002</ele>
        <time>2023-09-10T08:36:48Z</time>
      </trkpt>
      <trkpt lat="46.363599775359035" lon="8.314207568764687">
        <ele>2218.8699999999999</ele>
        <time>2023-09-10T08:37:00Z</time>
      </trkpt>
      <trkpt lat="46.363625004887581" lon="8.314338997006416">
        <ele>2219.1999999999998</ele>
        <time>2023-09-10T08:37:14Z</time>
      </trkpt>
      <trkpt lat="46.363636068999767" lon="8.314341092482209">
        <ele>2219.29</ele>
        <time>2023-09-10T08:37:15Z</time>
      </trkpt>
      <trkpt lat="46.363757271319628" lon="8.314326507970691">
        <ele>2219.71</ele>
        <time>2023-09-10T08:37:30Z</time>
      </trkpt>
      <trkpt lat="46.363756014034152" lon="8.314329693093896">
        <ele>2219</ele>
        <time>2023-09-10T08:37:45Z</time>
      </trkpt>
      <trkpt lat="46.363744782283902" lon="8.314358023926616">
        <ele>2218.8600000000001</ele>
        <time>2023-09-10T08:38:15Z</time>
      </trkpt>
      <trkpt lat="46.363742100074887" lon="8.31436456181109">
        <ele>2220.02</ele>
        <time>2023-09-10T08:45:21Z</time>
      </trkpt>
      <trkpt lat="46.363518889993429" lon="8.314458942040801">
        <ele>2222.8200000000002</ele>
        <time>2023-09-10T08:54:18Z</time>
      </trkpt>
      <trkpt lat="46.36341143399477" lon="8.314508646726608">
        <ele>2224.8099999999999</ele>
        <time>2023-09-10T08:54:32Z</time>
      </trkpt>
      <trkpt lat="46.363411266356707" lon="8.314511831849814">
        <ele>2224.6500000000001</ele>
        <time>2023-09-10T08:54:53Z</time>
      </trkpt>
      <trkpt lat="46.363422414287925" lon="8.314559860154986">
        <ele>2225.5799999999999</ele>
        <time>2023-09-10T08:55:05Z</time>
      </trkpt>
      <trkpt lat="46.363422833383083" lon="8.314629094675183">
        <ele>2226.7600000000002</ele>
        <time>2023-09-10T08:55:11Z</time>
      </trkpt>
      <trkpt lat="46.363392993807793" lon="8.314784662798047">
        <ele>2227.8600000000001</ele>
        <time>2023-09-10T08:55:23Z</time>
      </trkpt>
      <trkpt lat="46.363356448709965" lon="8.314891448244453">
        <ele>2228.2399999999998</ele>
        <time>2023-09-10T08:55:36Z</time>
      </trkpt>
      <trkpt lat="46.363324094563723" lon="8.314998904243112">
        <ele>2228.75</ele>
        <time>2023-09-10T08:55:50Z</time>
      </trkpt>
      <trkpt lat="46.363304397091269" lon="8.315048273652792">
        <ele>2229.1100000000001</ele>
        <time>2023-09-10T08:55:54Z</time>
      </trkpt>
      <trkpt lat="46.363274976611137" lon="8.315264107659459">
        <ele>2228.96</ele>
        <time>2023-09-10T08:56:08Z</time>
      </trkpt>
      <trkpt lat="46.363260978832841" lon="8.315425543114543">
        <ele>2228.8800000000001</ele>
        <time>2023-09-10T08:56:19Z</time>
      </trkpt>
      <trkpt lat="46.363261733204126" lon="8.315440630540252">
        <ele>2228.71</ele>
        <time>2023-09-10T08:56:20Z</time>
      </trkpt>
      <trkpt lat="46.363280508667231" lon="8.315611034631729">
        <ele>2228.0500000000002</ele>
        <time>2023-09-10T08:56:32Z</time>
      </trkpt>
      <trkpt lat="46.363262739032507" lon="8.315622182562947">
        <ele>2227.9200000000001</ele>
        <time>2023-09-10T08:56:34Z</time>
      </trkpt>
      <trkpt lat="46.363241784274578" lon="8.315739780664444">
        <ele>2229.25</ele>
        <time>2023-09-10T08:56:45Z</time>
      </trkpt>
      <trkpt lat="46.363262990489602" lon="8.315841285511851">
        <ele>2230.04</ele>
        <time>2023-09-10T08:56:53Z</time>
      </trkpt>
      <trkpt lat="46.363269276916981" lon="8.315911190584302">
        <ele>2229.9400000000001</ele>
        <time>2023-09-10T08:56:58Z</time>
      </trkpt>
      <trkpt lat="46.36317883618176" lon="8.316076984629035">
        <ele>2230.4899999999998</ele>
        <time>2023-09-10T08:57:14Z</time>
      </trkpt>
      <trkpt lat="46.363174561411142" lon="8.316131802275777">
        <ele>2230.3800000000001</ele>
        <time>2023-09-10T08:57:18Z</time>
      </trkpt>
      <trkpt lat="46.363199623301625" lon="8.31626096740365">
        <ele>2231.1300000000001</ele>
        <time>2023-09-10T08:57:30Z</time>
      </trkpt>
      <trkpt lat="46.363193672150373" lon="8.31637823022902">
        <ele>2233.2199999999998</ele>
        <time>2023-09-10T08:57:44Z</time>
      </trkpt>
      <trkpt lat="46.363219153136015" lon="8.316454337909818">
        <ele>2234.5100000000002</ele>
        <time>2023-09-10T08:57:54Z</time>
      </trkpt>
      <trkpt lat="46.363223092630506" lon="8.316535642370582">
        <ele>2235.9699999999998</ele>
        <time>2023-09-10T08:58:04Z</time>
      </trkpt>
      <trkpt lat="46.363236419856548" lon="8.316613510251045">
        <ele>2237.75</ele>
        <time>2023-09-10T08:58:15Z</time>
      </trkpt>
      <trkpt lat="46.363237509503961" lon="8.316708477213979">
        <ele>2239.2800000000002</ele>
        <time>2023-09-10T08:58:27Z</time>
      </trkpt>
      <trkpt lat="46.363249998539686" lon="8.316768491640687">
        <ele>2240.77</ele>
        <time>2023-09-10T08:58:38Z</time>
      </trkpt>
      <trkpt lat="46.363255614414811" lon="8.316890867426992">
        <ele>2243.29</ele>
        <time>2023-09-10T08:58:52Z</time>
      </trkpt>
      <trkpt lat="46.363227451220155" lon="8.31702078692615">
        <ele>2244.2199999999998</ele>
        <time>2023-09-10T08:59:04Z</time>
      </trkpt>
      <trkpt lat="46.363226277753711" lon="8.317155400291085">
        <ele>2245.4299999999998</ele>
        <time>2023-09-10T08:59:17Z</time>
      </trkpt>
      <trkpt lat="46.363212196156383" lon="8.317290768027306">
        <ele>2246.8299999999999</ele>
        <time>2023-09-10T08:59:31Z</time>
      </trkpt>
      <trkpt lat="46.363207334652543" lon="8.317432338371873">
        <ele>2248.0900000000001</ele>
        <time>2023-09-10T08:59:45Z</time>
      </trkpt>
      <trkpt lat="46.363220913335681" lon="8.317577261477709">
        <ele>2250.4299999999998</ele>
        <time>2023-09-10T09:00:00Z</time>
      </trkpt>
      <trkpt lat="46.363253267481923" lon="8.317717323079705">
        <ele>2252.48</ele>
        <time>2023-09-10T09:00:16Z</time>
      </trkpt>
      <trkpt lat="46.363255195319653" lon="8.317851684987545">
        <ele>2254.21</ele>
        <time>2023-09-10T09:00:30Z</time>
      </trkpt>
      <trkpt lat="46.363247064873576" lon="8.317999374121428">
        <ele>2255.5599999999999</ele>
        <time>2023-09-10T09:00:43Z</time>
      </trkpt>
      <trkpt lat="46.363252848386765" lon="8.318070285022259">
        <ele>2255.7399999999998</ele>
        <time>2023-09-10T09:00:48Z</time>
      </trkpt>
      <trkpt lat="46.363232899457216" lon="8.318095598369837">
        <ele>2255.8800000000001</ele>
        <time>2023-09-10T09:01:00Z</time>
      </trkpt>
      <trkpt lat="46.363228373229504" lon="8.318173969164491">
        <ele>2255.77</ele>
        <time>2023-09-10T09:01:07Z</time>
      </trkpt>
      <trkpt lat="46.363237760961056" lon="8.318334314972162">
        <ele>2256.3499999999999</ele>
        <time>2023-09-10T09:01:19Z</time>
      </trkpt>
      <trkpt lat="46.363253267481923" lon="8.318534307181835">
        <ele>2257.4299999999998</ele>
        <time>2023-09-10T09:01:34Z</time>
      </trkpt>
      <trkpt lat="46.363298697397113" lon="8.318708734586835">
        <ele>2258.4699999999998</ele>
        <time>2023-09-10T09:01:49Z</time>
      </trkpt>
      <trkpt lat="46.363310180604458" lon="8.318836893886328">
        <ele>2260.6199999999999</ele>
        <time>2023-09-10T09:02:03Z</time>
      </trkpt>
      <trkpt lat="46.363285034894943" lon="8.318964131176472">
        <ele>2262.8800000000001</ele>
        <time>2023-09-10T09:02:16Z</time>
      </trkpt>
      <trkpt lat="46.363273216411471" lon="8.319080388173461">
        <ele>2264.6500000000001</ele>
        <time>2023-09-10T09:02:29Z</time>
      </trkpt>
      <trkpt lat="46.363276150077581" lon="8.319158172234893">
        <ele>2265.77</ele>
        <time>2023-09-10T09:02:40Z</time>
      </trkpt>
      <trkpt lat="46.363286124542356" lon="8.31930167041719">
        <ele>2266.98</ele>
        <time>2023-09-10T09:02:54Z</time>
      </trkpt>
      <trkpt lat="46.363294087350368" lon="8.319427901878953">
        <ele>2268.8200000000002</ele>
        <time>2023-09-10T09:03:08Z</time>
      </trkpt>
      <trkpt lat="46.363279586657882" lon="8.319550277665258">
        <ele>2270.1900000000001</ele>
        <time>2023-09-10T09:03:20Z</time>
      </trkpt>
      <trkpt lat="46.363274306058884" lon="8.319681119173765">
        <ele>2270.9200000000001</ele>
        <time>2023-09-10T09:03:33Z</time>
      </trkpt>
      <trkpt lat="46.363294422626495" lon="8.319802572950721">
        <ele>2272.4899999999998</ele>
        <time>2023-09-10T09:03:46Z</time>
      </trkpt>
      <trkpt lat="46.363303055986762" lon="8.319916315376759">
        <ele>2274.3000000000002</ele>
        <time>2023-09-10T09:03:59Z</time>
      </trkpt>
      <trkpt lat="46.363330716267228" lon="8.320032991468906">
        <ele>2275.6799999999998</ele>
        <time>2023-09-10T09:04:11Z</time>
      </trkpt>
      <trkpt lat="46.363352676853538" lon="8.320144135504961">
        <ele>2277.4099999999999</ele>
        <time>2023-09-10T09:04:24Z</time>
      </trkpt>
      <trkpt lat="46.363376146182418" lon="8.320252513512969">
        <ele>2278.0799999999999</ele>
        <time>2023-09-10T09:04:36Z</time>
      </trkpt>
      <trkpt lat="46.363403303548694" lon="8.320366339758039">
        <ele>2279.29</ele>
        <time>2023-09-10T09:04:48Z</time>
      </trkpt>
      <trkpt lat="46.363409589976072" lon="8.320504473522306">
        <ele>2280.3000000000002</ele>
        <time>2023-09-10T09:05:01Z</time>
      </trkpt>
      <trkpt lat="46.363431634381413" lon="8.32064202055335">
        <ele>2281.7800000000002</ele>
        <time>2023-09-10T09:05:15Z</time>
      </trkpt>
      <trkpt lat="46.363480165600777" lon="8.320777136832476">
        <ele>2283.1599999999999</ele>
        <time>2023-09-10T09:05:29Z</time>
      </trkpt>
      <trkpt lat="46.363494414836168" lon="8.32077344879508">
        <ele>2283.27</ele>
        <time>2023-09-10T09:05:31Z</time>
      </trkpt>
      <trkpt lat="46.363513357937336" lon="8.320765318349004">
        <ele>2283.25</ele>
        <time>2023-09-10T09:05:33Z</time>
      </trkpt>
      <trkpt lat="46.36355996131897" lon="8.320914013311267">
        <ele>2284.9899999999998</ele>
        <time>2023-09-10T09:07:23Z</time>
      </trkpt>
      <trkpt lat="46.363549316301942" lon="8.321035802364349">
        <ele>2285.5799999999999</ele>
        <time>2023-09-10T09:07:33Z</time>
      </trkpt>
      <trkpt lat="46.363574964925647" lon="8.321140827611089">
        <ele>2286.6199999999999</ele>
        <time>2023-09-10T09:07:42Z</time>
      </trkpt>
      <trkpt lat="46.363598518073559" lon="8.321175612509251">
        <ele>2287.2199999999998</ele>
        <time>2023-09-10T09:07:48Z</time>
      </trkpt>
      <trkpt lat="46.363651659339666" lon="8.321264795958996">
        <ele>2288.1300000000001</ele>
        <time>2023-09-10T09:07:58Z</time>
      </trkpt>
      <trkpt lat="46.363704213872552" lon="8.321322463452816">
        <ele>2289.3899999999999</ele>
        <time>2023-09-10T09:08:07Z</time>
      </trkpt>
      <trkpt lat="46.363785099238157" lon="8.321458920836449">
        <ele>2291.71</ele>
        <time>2023-09-10T09:08:23Z</time>
      </trkpt>
      <trkpt lat="46.363799348473549" lon="8.321532346308231">
        <ele>2292.52</ele>
        <time>2023-09-10T09:08:31Z</time>
      </trkpt>
      <trkpt lat="46.363800354301929" lon="8.321583811193705">
        <ele>2293.8099999999999</ele>
        <time>2023-09-10T09:08:39Z</time>
      </trkpt>
      <trkpt lat="46.363812172785401" lon="8.321636701002717">
        <ele>2294.9899999999998</ele>
        <time>2023-09-10T09:08:47Z</time>
      </trkpt>
      <trkpt lat="46.363816112279892" lon="8.321701409295201">
        <ele>2296.5700000000002</ele>
        <time>2023-09-10T09:08:58Z</time>
      </trkpt>
      <trkpt lat="46.363833965733647" lon="8.321754215285182">
        <ele>2298.02</ele>
        <time>2023-09-10T09:09:08Z</time>
      </trkpt>
      <trkpt lat="46.363865649327636" lon="8.321807105094194">
        <ele>2299.4499999999998</ele>
        <time>2023-09-10T09:09:18Z</time>
      </trkpt>
      <trkpt lat="46.363870343193412" lon="8.321848092600703">
        <ele>2300.4000000000001</ele>
        <time>2023-09-10T09:09:26Z</time>
      </trkpt>
      <trkpt lat="46.363860368728638" lon="8.321873573586345">
        <ele>2301.1500000000001</ele>
        <time>2023-09-10T09:09:31Z</time>
      </trkpt>
      <trkpt lat="46.363864643499255" lon="8.321928894147277">
        <ele>2302.79</ele>
        <time>2023-09-10T09:09:41Z</time>
      </trkpt>
      <trkpt lat="46.363878222182393" lon="8.321955213323236">
        <ele>2303.4200000000001</ele>
        <time>2023-09-10T09:09:45Z</time>
      </trkpt>
      <trkpt lat="46.363894650712609" lon="8.321984466165304">
        <ele>2304.8499999999999</ele>
        <time>2023-09-10T09:09:55Z</time>
      </trkpt>
      <trkpt lat="46.363961705937982" lon="8.321997877210379">
        <ele>2306.5900000000001</ele>
        <time>2023-09-10T09:10:07Z</time>
      </trkpt>
      <trkpt lat="46.363977380096912" lon="8.322030315175653">
        <ele>2308.3499999999999</ele>
        <time>2023-09-10T09:10:19Z</time>
      </trkpt>
      <trkpt lat="46.364000514149666" lon="8.322070129215717">
        <ele>2310.5599999999999</ele>
        <time>2023-09-10T09:10:29Z</time>
      </trkpt>
      <trkpt lat="46.364002525806427" lon="8.322111451998353">
        <ele>2311.5900000000001</ele>
        <time>2023-09-10T09:10:37Z</time>
      </trkpt>
      <trkpt lat="46.364013338461518" lon="8.322141626849771">
        <ele>2312.4200000000001</ele>
        <time>2023-09-10T09:10:43Z</time>
      </trkpt>
      <trkpt lat="46.364020463079214" lon="8.322153948247433">
        <ele>2313.4499999999998</ele>
        <time>2023-09-10T09:10:49Z</time>
      </trkpt>
      <trkpt lat="46.364031443372369" lon="8.322197869420052">
        <ele>2314.1700000000001</ele>
        <time>2023-09-10T09:10:56Z</time>
      </trkpt>
      <trkpt lat="46.36403932236135" lon="8.322241706773639">
        <ele>2315.1199999999999</ele>
        <time>2023-09-10T09:11:03Z</time>
      </trkpt>
      <trkpt lat="46.364051140844822" lon="8.322308007627726">
        <ele>2316.73</ele>
        <time>2023-09-10T09:11:14Z</time>
      </trkpt>
      <trkpt lat="46.364058684557676" lon="8.322307923808694">
        <ele>2317.1300000000001</ele>
        <time>2023-09-10T09:11:23Z</time>
      </trkpt>
      <trkpt lat="46.364073771983385" lon="8.322355449199677">
        <ele>2319</ele>
        <time>2023-09-10T09:11:33Z</time>
      </trkpt>
      <trkpt lat="46.364088105037808" lon="8.322397526353598">
        <ele>2320.02</ele>
        <time>2023-09-10T09:11:40Z</time>
      </trkpt>
      <trkpt lat="46.36413998901844" lon="8.322403812780976">
        <ele>2321.0500000000002</ele>
        <time>2023-09-10T09:11:49Z</time>
      </trkpt>
      <trkpt lat="46.364207798615098" lon="8.322446644306183">
        <ele>2322.29</ele>
        <time>2023-09-10T09:12:00Z</time>
      </trkpt>
      <trkpt lat="46.36421475559473" lon="8.322443710640073">
        <ele>2322.29</ele>
        <time>2023-09-10T09:12:01Z</time>
      </trkpt>
      <trkpt lat="46.364262448623776" lon="8.322455193847418">
        <ele>2323.29</ele>
        <time>2023-09-10T09:12:07Z</time>
      </trkpt>
      <trkpt lat="46.364285834133625" lon="8.322469526901841">
        <ele>2323.6900000000001</ele>
        <time>2023-09-10T09:12:11Z</time>
      </trkpt>
      <trkpt lat="46.364301173016429" lon="8.322519231587648">
        <ele>2324.5300000000002</ele>
        <time>2023-09-10T09:12:18Z</time>
      </trkpt>
      <trkpt lat="46.364325396716595" lon="8.322560889646411">
        <ele>2326.1399999999999</ele>
        <time>2023-09-10T09:12:26Z</time>
      </trkpt>
      <trkpt lat="46.364329755306244" lon="8.322568852454424">
        <ele>2326.54</ele>
        <time>2023-09-10T09:12:28Z</time>
      </trkpt>
      <trkpt lat="46.364351296797395" lon="8.322597602382302">
        <ele>2327.73</ele>
        <time>2023-09-10T09:12:35Z</time>
      </trkpt>
      <trkpt lat="46.364379208534956" lon="8.32258427515626">
        <ele>2328.4699999999998</ele>
        <time>2023-09-10T09:12:43Z</time>
      </trkpt>
      <trkpt lat="46.364402677863836" lon="8.322617551311851">
        <ele>2329.6500000000001</ele>
        <time>2023-09-10T09:12:50Z</time>
      </trkpt>
      <trkpt lat="46.364442575722933" lon="8.322656359523535">
        <ele>2330.9299999999998</ele>
        <time>2023-09-10T09:13:00Z</time>
      </trkpt>
      <trkpt lat="46.364477025344968" lon="8.322693072259426">
        <ele>2332.27</ele>
        <time>2023-09-10T09:13:09Z</time>
      </trkpt>
      <trkpt lat="46.36451474390924" lon="8.322723330929875">
        <ele>2333.9299999999998</ele>
        <time>2023-09-10T09:13:19Z</time>
      </trkpt>
      <trkpt lat="46.364520862698555" lon="8.322725426405668">
        <ele>2334.0700000000002</ele>
        <time>2023-09-10T09:13:20Z</time>
      </trkpt>
      <trkpt lat="46.364570483565331" lon="8.322732634842396">
        <ele>2334.6199999999999</ele>
        <time>2023-09-10T09:13:27Z</time>
      </trkpt>
      <trkpt lat="46.36458951048553" lon="8.322749566286802">
        <ele>2335.46</ele>
        <time>2023-09-10T09:13:32Z</time>
      </trkpt>
      <trkpt lat="46.364595042541623" lon="8.322751075029373">
        <ele>2335.4499999999998</ele>
        <time>2023-09-10T09:13:33Z</time>
      </trkpt>
      <trkpt lat="46.364645669236779" lon="8.322790050879121">
        <ele>2336.6700000000001</ele>
        <time>2023-09-10T09:13:41Z</time>
      </trkpt>
      <trkpt lat="46.364632761105895" lon="8.322805054485798">
        <ele>2337.4200000000001</ele>
        <time>2023-09-10T09:13:47Z</time>
      </trkpt>
      <trkpt lat="46.364676933735609" lon="8.322884934023023">
        <ele>2339.21</ele>
        <time>2023-09-10T09:14:00Z</time>
      </trkpt>
      <trkpt lat="46.364703672006726" lon="8.322959616780281">
        <ele>2340.8000000000002</ele>
        <time>2023-09-10T09:14:14Z</time>
      </trkpt>
      <trkpt lat="46.36472781188786" lon="8.323035221546888">
        <ele>2342.6799999999998</ele>
        <time>2023-09-10T09:14:27Z</time>
      </trkpt>
      <trkpt lat="46.364766536280513" lon="8.323150807991624">
        <ele>2345.4000000000001</ele>
        <time>2023-09-10T09:14:43Z</time>
      </trkpt>
      <trkpt lat="46.364805595949292" lon="8.323222305625677">
        <ele>2347.0900000000001</ele>
        <time>2023-09-10T09:14:57Z</time>
      </trkpt>
      <trkpt lat="46.364814899861813" lon="8.323279973119497">
        <ele>2349.0700000000002</ele>
        <time>2023-09-10T09:15:10Z</time>
      </trkpt>
      <trkpt lat="46.364831747487187" lon="8.323363205417991">
        <ele>2351.27</ele>
        <time>2023-09-10T09:15:24Z</time>
      </trkpt>
      <trkpt lat="46.36484457179904" lon="8.323420202359557">
        <ele>2352.6599999999999</ele>
        <time>2023-09-10T09:15:35Z</time>
      </trkpt>
      <trkpt lat="46.364847756922245" lon="8.323453981429339">
        <ele>2352.8899999999999</ele>
        <time>2023-09-10T09:15:46Z</time>
      </trkpt>
      <trkpt lat="46.364841302856803" lon="8.323449539020658">
        <ele>2353.1100000000001</ele>
        <time>2023-09-10T09:16:02Z</time>
      </trkpt>
      <trkpt lat="46.364841973409057" lon="8.323449539020658">
        <ele>2353.23</ele>
        <time>2023-09-10T09:16:23Z</time>
      </trkpt>
      <trkpt lat="46.36486510746181" lon="8.323478121310473">
        <ele>2353.5799999999999</ele>
        <time>2023-09-10T09:16:39Z</time>
      </trkpt>
      <trkpt lat="46.364898132160306" lon="8.323601083829999">
        <ele>2354.8899999999999</ele>
        <time>2023-09-10T09:16:53Z</time>
      </trkpt>
      <trkpt lat="46.3649139739573" lon="8.323712982237339">
        <ele>2356.0300000000002</ele>
        <time>2023-09-10T09:17:07Z</time>
      </trkpt>
      <trkpt lat="46.364948842674494" lon="8.323785150423646">
        <ele>2356.8000000000002</ele>
        <time>2023-09-10T09:17:18Z</time>
      </trkpt>
      <trkpt lat="46.364950686693192" lon="8.32385715097189">
        <ele>2357.5300000000002</ele>
        <time>2023-09-10T09:17:28Z</time>
      </trkpt>
      <trkpt lat="46.364957140758634" lon="8.323990423232317">
        <ele>2359.5100000000002</ele>
        <time>2023-09-10T09:17:42Z</time>
      </trkpt>
      <trkpt lat="46.364981699734926" lon="8.324127132073045">
        <ele>2360.9000000000001</ele>
        <time>2023-09-10T09:17:56Z</time>
      </trkpt>
      <trkpt lat="46.365013467147946" lon="8.324253782629967">
        <ele>2362.9699999999998</ele>
        <time>2023-09-10T09:18:12Z</time>
      </trkpt>
      <trkpt lat="46.365010198205709" lon="8.324253866448999">
        <ele>2363.3800000000001</ele>
        <time>2023-09-10T09:18:30Z</time>
      </trkpt>
      <trkpt lat="46.364990836009383" lon="8.324304325506091">
        <ele>2364.4200000000001</ele>
        <time>2023-09-10T09:18:40Z</time>
      </trkpt>
      <trkpt lat="46.364981783553958" lon="8.324401555582881">
        <ele>2366.1900000000001</ele>
        <time>2023-09-10T09:18:51Z</time>
      </trkpt>
      <trkpt lat="46.364985220134258" lon="8.324527200311422">
        <ele>2366.8299999999999</ele>
        <time>2023-09-10T09:19:02Z</time>
      </trkpt>
      <trkpt lat="46.36499460786581" lon="8.324699867516756">
        <ele>2366.1799999999998</ele>
        <time>2023-09-10T09:19:15Z</time>
      </trkpt>
      <trkpt lat="46.365000223740935" lon="8.324861386790872">
        <ele>2365.5599999999999</ele>
        <time>2023-09-10T09:19:25Z</time>
      </trkpt>
      <trkpt lat="46.364991255104542" lon="8.32496389746666">
        <ele>2366.2600000000002</ele>
        <time>2023-09-10T09:19:32Z</time>
      </trkpt>
      <trkpt lat="46.365032410249114" lon="8.325160201638937">
        <ele>2367.9200000000001</ele>
        <time>2023-09-10T09:19:48Z</time>
      </trkpt>
      <trkpt lat="46.365044061094522" lon="8.325317529961467">
        <ele>2368.7600000000002</ele>
        <time>2023-09-10T09:20:01Z</time>
      </trkpt>
      <trkpt lat="46.365102399140596" lon="8.325482401996851">
        <ele>2368.9699999999998</ele>
        <time>2023-09-10T09:20:14Z</time>
      </trkpt>
      <trkpt lat="46.365138525143266" lon="8.325627911835909">
        <ele>2369.7399999999998</ele>
        <time>2023-09-10T09:20:26Z</time>
      </trkpt>
      <trkpt lat="46.365196695551276" lon="8.325786665081978">
        <ele>2370.3200000000002</ele>
        <time>2023-09-10T09:20:39Z</time>
      </trkpt>
      <trkpt lat="46.365193175151944" lon="8.325944161042571">
        <ele>2371.5999999999999</ele>
        <time>2023-09-10T09:20:53Z</time>
      </trkpt>
      <trkpt lat="46.36519149877131" lon="8.326061591506004">
        <ele>2373.2600000000002</ele>
        <time>2023-09-10T09:21:04Z</time>
      </trkpt>
      <trkpt lat="46.365199377760291" lon="8.32615764811635">
        <ele>2374.0900000000001</ele>
        <time>2023-09-10T09:21:14Z</time>
      </trkpt>
      <trkpt lat="46.36520616710186" lon="8.326195450499654">
        <ele>2374.9699999999998</ele>
        <time>2023-09-10T09:21:25Z</time>
      </trkpt>
      <trkpt lat="46.365186721086502" lon="8.32628957927227">
        <ele>2376.6100000000001</ele>
        <time>2023-09-10T09:21:39Z</time>
      </trkpt>
      <trkpt lat="46.36517389677465" lon="8.326347162947059">
        <ele>2377.71</ele>
        <time>2023-09-10T09:21:50Z</time>
      </trkpt>
      <trkpt lat="46.365181691944599" lon="8.326434753835201">
        <ele>2379.6599999999999</ele>
        <time>2023-09-10T09:22:03Z</time>
      </trkpt>
      <trkpt lat="46.365187224000692" lon="8.326502647250891">
        <ele>2380.8699999999999</ele>
        <time>2023-09-10T09:22:12Z</time>
      </trkpt>
      <trkpt lat="46.365198371931911" lon="8.326631393283606">
        <ele>2383.1300000000001</ele>
        <time>2023-09-10T09:22:29Z</time>
      </trkpt>
      <trkpt lat="46.365204071626067" lon="8.326768772676587">
        <ele>2385.5100000000002</ele>
        <time>2023-09-10T09:22:45Z</time>
      </trkpt>
      <trkpt lat="46.365200970321894" lon="8.326784195378423">
        <ele>2385.7600000000002</ele>
        <time>2023-09-10T09:22:47Z</time>
      </trkpt>
      <trkpt lat="46.365223936736584" lon="8.326896093785763">
        <ele>2386.9499999999998</ele>
        <time>2023-09-10T09:22:58Z</time>
      </trkpt>
      <trkpt lat="46.36521689593792" lon="8.326933728531003">
        <ele>2387.6500000000001</ele>
        <time>2023-09-10T09:23:09Z</time>
      </trkpt>
      <trkpt lat="46.365195102989674" lon="8.327013859525323">
        <ele>2389.7199999999998</ele>
        <time>2023-09-10T09:23:23Z</time>
      </trkpt>
      <trkpt lat="46.36519099585712" lon="8.327021822333336">
        <ele>2389.98</ele>
        <time>2023-09-10T09:23:41Z</time>
      </trkpt>
      <trkpt lat="46.365191917866468" lon="8.327074544504285">
        <ele>2390.4400000000001</ele>
        <time>2023-09-10T09:23:52Z</time>
      </trkpt>
      <trkpt lat="46.365176662802696" lon="8.327162638306618">
        <ele>2392.0500000000002</ele>
        <time>2023-09-10T09:24:03Z</time>
      </trkpt>
      <trkpt lat="46.365167107433081" lon="8.327238745987415">
        <ele>2393.1199999999999</ele>
        <time>2023-09-10T09:24:11Z</time>
      </trkpt>
      <trkpt lat="46.36517783626914" lon="8.327365312725306">
        <ele>2395.0300000000002</ele>
        <time>2023-09-10T09:24:25Z</time>
      </trkpt>
      <trkpt lat="46.365196360275149" lon="8.327477797865868">
        <ele>2396.8099999999999</ele>
        <time>2023-09-10T09:24:38Z</time>
      </trkpt>
      <trkpt lat="46.365220081061125" lon="8.327585589140654">
        <ele>2398.29</ele>
        <time>2023-09-10T09:24:51Z</time>
      </trkpt>
      <trkpt lat="46.365230390802026" lon="8.327690027654171">
        <ele>2399.96</ele>
        <time>2023-09-10T09:25:04Z</time>
      </trkpt>
      <trkpt lat="46.365258637815714" lon="8.327771248295903">
        <ele>2401.8400000000001</ele>
        <time>2023-09-10T09:25:15Z</time>
      </trkpt>
      <trkpt lat="46.365266600623727" lon="8.327825479209423">
        <ele>2402.6500000000001</ele>
        <time>2023-09-10T09:25:31Z</time>
      </trkpt>
      <trkpt lat="46.365261739119887" lon="8.327947435900569">
        <ele>2404.4000000000001</ele>
        <time>2023-09-10T09:25:46Z</time>
      </trkpt>
      <trkpt lat="46.365286046639085" lon="8.328062687069178">
        <ele>2405</ele>
        <time>2023-09-10T09:25:56Z</time>
      </trkpt>
      <trkpt lat="46.365305911749601" lon="8.328090012073517">
        <ele>2404.9200000000001</ele>
        <time>2023-09-10T09:25:58Z</time>
      </trkpt>
      <trkpt lat="46.365361399948597" lon="8.328281957656145">
        <ele>2405.9299999999998</ele>
        <time>2023-09-10T09:26:14Z</time>
      </trkpt>
      <trkpt lat="46.365367351099849" lon="8.328304421156645">
        <ele>2406.21</ele>
        <time>2023-09-10T09:26:16Z</time>
      </trkpt>
      <trkpt lat="46.36539769358933" lon="8.328396370634437">
        <ele>2406.6599999999999</ele>
        <time>2023-09-10T09:26:24Z</time>
      </trkpt>
      <trkpt lat="46.365415127947927" lon="8.328426713123918">
        <ele>2406.4400000000001</ele>
        <time>2023-09-10T09:26:31Z</time>
      </trkpt>
      <trkpt lat="46.36548419483006" lon="8.328586723655462">
        <ele>2407.6900000000001</ele>
        <time>2023-09-10T09:26:46Z</time>
      </trkpt>
      <trkpt lat="46.365547562018037" lon="8.328743716701865">
        <ele>2405.5799999999999</ele>
        <time>2023-09-10T09:27:00Z</time>
      </trkpt>
      <trkpt lat="46.365547142922878" lon="8.328740783035755">
        <ele>2404.8400000000001</ele>
        <time>2023-09-10T09:27:54Z</time>
      </trkpt>
      <trkpt lat="46.365544963628054" lon="8.328736172989011">
        <ele>2403.7800000000002</ele>
        <time>2023-09-10T09:28:13Z</time>
      </trkpt>
      <trkpt lat="46.365545131266117" lon="8.328736172989011">
        <ele>2407.8200000000002</ele>
        <time>2023-09-10T09:28:14Z</time>
      </trkpt>
      <trkpt lat="46.365546556189656" lon="8.328736089169979">
        <ele>2407.46</ele>
        <time>2023-09-10T09:28:15Z</time>
      </trkpt>
      <trkpt lat="46.365557117387652" lon="8.32876986823976">
        <ele>2405.3899999999999</ele>
        <time>2023-09-10T09:28:25Z</time>
      </trkpt>
      <trkpt lat="46.365586454048753" lon="8.328910013660789">
        <ele>2405.6500000000001</ele>
        <time>2023-09-10T09:28:36Z</time>
      </trkpt>
      <trkpt lat="46.365643534809351" lon="8.329042531549931">
        <ele>2406.0500000000002</ele>
        <time>2023-09-10T09:28:48Z</time>
      </trkpt>
      <trkpt lat="46.365629369392991" lon="8.329169349744916">
        <ele>2407.6799999999998</ele>
        <time>2023-09-10T09:29:01Z</time>
      </trkpt>
      <trkpt lat="46.365644540637732" lon="8.329207738861442">
        <ele>2408.4299999999998</ele>
        <time>2023-09-10T09:29:10Z</time>
      </trkpt>
      <trkpt lat="46.365671865642071" lon="8.329336484894157">
        <ele>2409.3800000000001</ele>
        <time>2023-09-10T09:29:22Z</time>
      </trkpt>
      <trkpt lat="46.365676391869783" lon="8.329345285892487">
        <ele>2409.5599999999999</ele>
        <time>2023-09-10T09:29:23Z</time>
      </trkpt>
      <trkpt lat="46.36570556089282" lon="8.32944025285542">
        <ele>2409.1900000000001</ele>
        <time>2023-09-10T09:29:36Z</time>
      </trkpt>
      <trkpt lat="46.365698268637061" lon="8.329567993059754">
        <ele>2410.0100000000002</ele>
        <time>2023-09-10T09:29:47Z</time>
      </trkpt>
      <trkpt lat="46.365660047158599" lon="8.329704450443387">
        <ele>2411.4200000000001</ele>
        <time>2023-09-10T09:30:02Z</time>
      </trkpt>
      <trkpt lat="46.365648480132222" lon="8.329819617792964">
        <ele>2414.1900000000001</ele>
        <time>2023-09-10T09:30:15Z</time>
      </trkpt>
      <trkpt lat="46.365628195926547" lon="8.329907208681107">
        <ele>2416.3099999999999</ele>
        <time>2023-09-10T09:30:28Z</time>
      </trkpt>
      <trkpt lat="46.365617970004678" lon="8.330030422657728">
        <ele>2418.1799999999998</ele>
        <time>2023-09-10T09:30:43Z</time>
      </trkpt>
      <trkpt lat="46.365639008581638" lon="8.330129748210311">
        <ele>2419.5799999999999</ele>
        <time>2023-09-10T09:30:56Z</time>
      </trkpt>
      <trkpt lat="46.36566205881536" lon="8.330223374068737">
        <ele>2421.27</ele>
        <time>2023-09-10T09:31:12Z</time>
      </trkpt>
      <trkpt lat="46.365662813186646" lon="8.330282215029001">
        <ele>2424.4099999999999</ele>
        <time>2023-09-10T09:31:24Z</time>
      </trkpt>
      <trkpt lat="46.365653593093157" lon="8.330353377386928">
        <ele>2426.3899999999999</ele>
        <time>2023-09-10T09:31:37Z</time>
      </trkpt>
      <trkpt lat="46.365649737417698" lon="8.33047273568809">
        <ele>2427.0300000000002</ele>
        <time>2023-09-10T09:31:48Z</time>
      </trkpt>
      <trkpt lat="46.365634147077799" lon="8.330569798126817">
        <ele>2428.1999999999998</ele>
        <time>2023-09-10T09:32:03Z</time>
      </trkpt>
      <trkpt lat="46.365666082128882" lon="8.330735759809613">
        <ele>2427.8499999999999</ele>
        <time>2023-09-10T09:32:17Z</time>
      </trkpt>
      <trkpt lat="46.365673039108515" lon="8.330774232745171">
        <ele>2427.3600000000001</ele>
        <time>2023-09-10T09:32:20Z</time>
      </trkpt>
      <trkpt lat="46.365669015794992" lon="8.330984618514776">
        <ele>2426.7600000000002</ele>
        <time>2023-09-10T09:32:35Z</time>
      </trkpt>
      <trkpt lat="46.365690557286143" lon="8.331115711480379">
        <ele>2425.8699999999999</ele>
        <time>2023-09-10T09:32:46Z</time>
      </trkpt>
      <trkpt lat="46.365693155676126" lon="8.331181257963181">
        <ele>2425.54</ele>
        <time>2023-09-10T09:32:51Z</time>
      </trkpt>
      <trkpt lat="46.365705979987979" lon="8.33140597678721">
        <ele>2424.9299999999998</ele>
        <time>2023-09-10T09:33:06Z</time>
      </trkpt>
      <trkpt lat="46.365686450153589" lon="8.331579817458987">
        <ele>2424.8699999999999</ele>
        <time>2023-09-10T09:33:18Z</time>
      </trkpt>
      <trkpt lat="46.365670524537563" lon="8.331632204353809">
        <ele>2424.9499999999998</ele>
        <time>2023-09-10T09:33:29Z</time>
      </trkpt>
      <trkpt lat="46.365666082128882" lon="8.331647962331772">
        <ele>2424.98</ele>
        <time>2023-09-10T09:33:46Z</time>
      </trkpt>
      <trkpt lat="46.365647641941905" lon="8.331700265407562">
        <ele>2425</ele>
        <time>2023-09-10T09:33:50Z</time>
      </trkpt>
      <trkpt lat="46.365636577829719" lon="8.331723483279347">
        <ele>2424.98</ele>
        <time>2023-09-10T09:33:52Z</time>
      </trkpt>
      <trkpt lat="46.365629201754928" lon="8.331763297319412">
        <ele>2424.96</ele>
        <time>2023-09-10T09:33:55Z</time>
      </trkpt>
      <trkpt lat="46.365591064095497" lon="8.331869831308723">
        <ele>2425.3499999999999</ele>
        <time>2023-09-10T09:34:04Z</time>
      </trkpt>
      <trkpt lat="46.365585867315531" lon="8.331897659227252">
        <ele>2425.29</ele>
        <time>2023-09-10T09:34:06Z</time>
      </trkpt>
      <trkpt lat="46.365557452663779" lon="8.331990446895361">
        <ele>2424.5300000000002</ele>
        <time>2023-09-10T09:34:12Z</time>
      </trkpt>
      <trkpt lat="46.365475980564952" lon="8.332145679742098">
        <ele>2425.3200000000002</ele>
        <time>2023-09-10T09:34:26Z</time>
      </trkpt>
      <trkpt lat="46.365475477650762" lon="8.332175435498357">
        <ele>2425.54</ele>
        <time>2023-09-10T09:34:28Z</time>
      </trkpt>
      <trkpt lat="46.365488972514868" lon="8.332422534003854">
        <ele>2425.3000000000002</ele>
        <time>2023-09-10T09:34:45Z</time>
      </trkpt>
      <trkpt lat="46.365484781563282" lon="8.332435358315706">
        <ele>2425.3000000000002</ele>
        <time>2023-09-10T09:34:46Z</time>
      </trkpt>
      <trkpt lat="46.365494756028056" lon="8.332494702190161">
        <ele>2425.48</ele>
        <time>2023-09-10T09:36:07Z</time>
      </trkpt>
      <trkpt lat="46.365512609481812" lon="8.332599811255932">
        <ele>2425.5700000000002</ele>
        <time>2023-09-10T09:36:18Z</time>
      </trkpt>
      <trkpt lat="46.365510933101177" lon="8.332598973065615">
        <ele>2425.4899999999998</ele>
        <time>2023-09-10T09:36:42Z</time>
      </trkpt>
      <trkpt lat="46.365517554804683" lon="8.332623364403844">
        <ele>2425.6199999999999</ele>
        <time>2023-09-10T09:36:54Z</time>
      </trkpt>
      <trkpt lat="46.365521159023046" lon="8.332740208134055">
        <ele>2425.5100000000002</ele>
        <time>2023-09-10T09:37:02Z</time>
      </trkpt>
      <trkpt lat="46.365530211478472" lon="8.33279125392437">
        <ele>2425.3000000000002</ele>
        <time>2023-09-10T09:37:05Z</time>
      </trkpt>
      <trkpt lat="46.365586118772626" lon="8.332983534783125">
        <ele>2426.8699999999999</ele>
        <time>2023-09-10T09:37:19Z</time>
      </trkpt>
      <trkpt lat="46.365601625293493" lon="8.333049919456244">
        <ele>2426.6799999999998</ele>
        <time>2023-09-10T09:37:24Z</time>
      </trkpt>
      <trkpt lat="46.365649905055761" lon="8.333186628296971">
        <ele>2428.7800000000002</ele>
        <time>2023-09-10T09:37:37Z</time>
      </trkpt>
      <trkpt lat="46.365694245323539" lon="8.333296431228519">
        <ele>2430.3600000000001</ele>
        <time>2023-09-10T09:37:49Z</time>
      </trkpt>
      <trkpt lat="46.365736909210682" lon="8.333442863076925">
        <ele>2430.9699999999998</ele>
        <time>2023-09-10T09:38:03Z</time>
      </trkpt>
      <trkpt lat="46.365797091275454" lon="8.333639753982425">
        <ele>2431.8299999999999</ele>
        <time>2023-09-10T09:38:20Z</time>
      </trkpt>
      <trkpt lat="46.365827433764935" lon="8.333746371790767">
        <ele>2430.8499999999999</ele>
        <time>2023-09-10T09:39:22Z</time>
      </trkpt>
      <trkpt lat="46.3658706843853" lon="8.333736145868897">
        <ele>2431.23</ele>
        <time>2023-09-10T09:39:27Z</time>
      </trkpt>
      <trkpt lat="46.36590831913054" lon="8.333817031234503">
        <ele>2432.1900000000001</ele>
        <time>2023-09-10T09:39:37Z</time>
      </trkpt>
      <trkpt lat="46.365911085158587" lon="8.333921637386084">
        <ele>2431.5100000000002</ele>
        <time>2023-09-10T09:39:48Z</time>
      </trkpt>
      <trkpt lat="46.365931537002325" lon="8.334003193303943">
        <ele>2432.04</ele>
        <time>2023-09-10T09:39:58Z</time>
      </trkpt>
      <trkpt lat="46.36595475487411" lon="8.334122383967042">
        <ele>2432.52</ele>
        <time>2023-09-10T09:40:12Z</time>
      </trkpt>
      <trkpt lat="46.365931620821357" lon="8.334213998168707">
        <ele>2431.6900000000001</ele>
        <time>2023-09-10T09:40:24Z</time>
      </trkpt>
      <trkpt lat="46.365929190069437" lon="8.334229923784733">
        <ele>2431.48</ele>
        <time>2023-09-10T09:40:39Z</time>
      </trkpt>
      <trkpt lat="46.365936482325196" lon="8.334225313737989">
        <ele>2431.6500000000001</ele>
        <time>2023-09-10T09:41:01Z</time>
      </trkpt>
      <trkpt lat="46.365943774580956" lon="8.334247190505266">
        <ele>2431.77</ele>
        <time>2023-09-10T09:41:22Z</time>
      </trkpt>
      <trkpt lat="46.365927429869771" lon="8.334344001486898">
        <ele>2431.6500000000001</ele>
        <time>2023-09-10T09:41:33Z</time>
      </trkpt>
      <trkpt lat="46.365929106250405" lon="8.33439152687788">
        <ele>2432.4000000000001</ele>
        <time>2023-09-10T09:41:41Z</time>
      </trkpt>
      <trkpt lat="46.365894572809339" lon="8.3344716578722">
        <ele>2432.1300000000001</ele>
        <time>2023-09-10T09:41:50Z</time>
      </trkpt>
      <trkpt lat="46.365899937227368" lon="8.33459185436368">
        <ele>2433.4400000000001</ele>
        <time>2023-09-10T09:42:03Z</time>
      </trkpt>
      <trkpt lat="46.365903206169605" lon="8.334713811054826">
        <ele>2434.3800000000001</ele>
        <time>2023-09-10T09:42:14Z</time>
      </trkpt>
      <trkpt lat="46.365897003561258" lon="8.334866780787706">
        <ele>2435.29</ele>
        <time>2023-09-10T09:42:27Z</time>
      </trkpt>
      <trkpt lat="46.365895746275783" lon="8.334904666990042">
        <ele>2435.54</ele>
        <time>2023-09-10T09:42:38Z</time>
      </trkpt>
      <trkpt lat="46.365889627486467" lon="8.334933333098888">
        <ele>2435.5799999999999</ele>
        <time>2023-09-10T09:43:00Z</time>
      </trkpt>
      <trkpt lat="46.365877976641059" lon="8.335039196535945">
        <ele>2436.2199999999998</ele>
        <time>2023-09-10T09:43:10Z</time>
      </trkpt>
      <trkpt lat="46.365892728790641" lon="8.335189819335938">
        <ele>2437.1500000000001</ele>
        <time>2023-09-10T09:43:22Z</time>
      </trkpt>
      <trkpt lat="46.365909073501825" lon="8.335344800725579">
        <ele>2438.5700000000002</ele>
        <time>2023-09-10T09:43:36Z</time>
      </trkpt>
      <trkpt lat="46.365946037694812" lon="8.335425602272153">
        <ele>2440.7399999999998</ele>
        <time>2023-09-10T09:43:49Z</time>
      </trkpt>
      <trkpt lat="46.365957520902157" lon="8.335521575063467">
        <ele>2442.3800000000001</ele>
        <time>2023-09-10T09:44:02Z</time>
      </trkpt>
      <trkpt lat="46.365952575579286" lon="8.335585780441761">
        <ele>2444.0100000000002</ele>
        <time>2023-09-10T09:44:14Z</time>
      </trkpt>
      <trkpt lat="46.365967076271772" lon="8.335670856758952">
        <ele>2446.1999999999998</ele>
        <time>2023-09-10T09:44:27Z</time>
      </trkpt>
      <trkpt lat="46.365947294980288" lon="8.33573279902339">
        <ele>2447.79</ele>
        <time>2023-09-10T09:44:39Z</time>
      </trkpt>
      <trkpt lat="46.365936482325196" lon="8.335749981924892">
        <ele>2448.2800000000002</ele>
        <time>2023-09-10T09:44:51Z</time>
      </trkpt>
      <trkpt lat="46.365938661620021" lon="8.335748473182321">
        <ele>2448.79</ele>
        <time>2023-09-10T09:44:56Z</time>
      </trkpt>
      <trkpt lat="46.365950647741556" lon="8.335776552557945">
        <ele>2448.9099999999999</ele>
        <time>2023-09-10T09:45:30Z</time>
      </trkpt>
      <trkpt lat="46.365970009937882" lon="8.335837237536907">
        <ele>2450.6900000000001</ele>
        <time>2023-09-10T09:45:41Z</time>
      </trkpt>
      <trkpt lat="46.365979313850403" lon="8.335897922515869">
        <ele>2452.27</ele>
        <time>2023-09-10T09:45:53Z</time>
      </trkpt>
      <trkpt lat="46.365973697975278" lon="8.335945699363947">
        <ele>2453.8299999999999</ele>
        <time>2023-09-10T09:46:03Z</time>
      </trkpt>
      <trkpt lat="46.365999262779951" lon="8.336012503132224">
        <ele>2455.6799999999998</ele>
        <time>2023-09-10T09:46:16Z</time>
      </trkpt>
      <trkpt lat="46.366015858948231" lon="8.33603722974658">
        <ele>2456.6900000000001</ele>
        <time>2023-09-10T09:46:27Z</time>
      </trkpt>
      <trkpt lat="46.36602558195591" lon="8.336054245010018">
        <ele>2457.3099999999999</ele>
        <time>2023-09-10T09:46:51Z</time>
      </trkpt>
      <trkpt lat="46.366068916395307" lon="8.336086934432387">
        <ele>2457.6399999999999</ele>
        <time>2023-09-10T09:47:04Z</time>
      </trkpt>
      <trkpt lat="46.366127673536539" lon="8.336109649389982">
        <ele>2459.1700000000001</ele>
        <time>2023-09-10T09:47:14Z</time>
      </trkpt>
      <trkpt lat="46.366165475919843" lon="8.336201179772615">
        <ele>2459.54</ele>
        <time>2023-09-10T09:47:25Z</time>
      </trkpt>
      <trkpt lat="46.366187939420342" lon="8.336299415677786">
        <ele>2460.48</ele>
        <time>2023-09-10T09:47:36Z</time>
      </trkpt>
      <trkpt lat="46.366201769560575" lon="8.336413996294141">
        <ele>2462.0700000000002</ele>
        <time>2023-09-10T09:47:48Z</time>
      </trkpt>
      <trkpt lat="46.366210570558906" lon="8.33650628104806">
        <ele>2463.73</ele>
        <time>2023-09-10T09:48:00Z</time>
      </trkpt>
      <trkpt lat="46.366215515881777" lon="8.33656495437026">
        <ele>2465.8800000000001</ele>
        <time>2023-09-10T09:48:13Z</time>
      </trkpt>
      <trkpt lat="46.366272261366248" lon="8.336673667654395">
        <ele>2465.8600000000001</ele>
        <time>2023-09-10T09:48:27Z</time>
      </trkpt>
      <trkpt lat="46.366287348791957" lon="8.336705518886447">
        <ele>2465.5500000000002</ele>
        <time>2023-09-10T09:48:38Z</time>
      </trkpt>
      <trkpt lat="46.366294641047716" lon="8.33670224994421">
        <ele>2465.73</ele>
        <time>2023-09-10T09:49:00Z</time>
      </trkpt>
      <trkpt lat="46.366330767050385" lon="8.336775591596961">
        <ele>2465.9000000000001</ele>
        <time>2023-09-10T09:49:09Z</time>
      </trkpt>
      <trkpt lat="46.366336969658732" lon="8.336882879957557">
        <ele>2467.0900000000001</ele>
        <time>2023-09-10T09:49:19Z</time>
      </trkpt>
      <trkpt lat="46.366350632160902" lon="8.337038867175579">
        <ele>2467.8400000000001</ele>
        <time>2023-09-10T09:49:32Z</time>
      </trkpt>
      <trkpt lat="46.366349039599299" lon="8.337190244346857">
        <ele>2468.1900000000001</ele>
        <time>2023-09-10T09:49:43Z</time>
      </trkpt>
      <trkpt lat="46.366374017670751" lon="8.337363582104445">
        <ele>2468.21</ele>
        <time>2023-09-10T09:49:56Z</time>
      </trkpt>
      <trkpt lat="46.366381142288446" lon="8.337396187707782">
        <ele>2468.2600000000002</ele>
        <time>2023-09-10T09:50:07Z</time>
      </trkpt>
      <trkpt lat="46.366385668516159" lon="8.337491573765874">
        <ele>2468.46</ele>
        <time>2023-09-10T09:50:21Z</time>
      </trkpt>
      <trkpt lat="46.366387847810984" lon="8.33754706196487">
        <ele>2468.0900000000001</ele>
        <time>2023-09-10T09:50:25Z</time>
      </trkpt>
      <trkpt lat="46.366371754556894" lon="8.337691985070705">
        <ele>2467.46</ele>
        <time>2023-09-10T09:50:37Z</time>
      </trkpt>
      <trkpt lat="46.36638424359262" lon="8.337796507403255">
        <ele>2469.2399999999998</ele>
        <time>2023-09-10T09:50:47Z</time>
      </trkpt>
      <trkpt lat="46.366412825882435" lon="8.337870100513101">
        <ele>2470.7600000000002</ele>
        <time>2023-09-10T09:50:58Z</time>
      </trkpt>
      <trkpt lat="46.366424560546875" lon="8.337957104668021">
        <ele>2472.4099999999999</ele>
        <time>2023-09-10T09:51:22Z</time>
      </trkpt>
      <trkpt lat="46.366422465071082" lon="8.337952746078372">
        <ele>2472.25</ele>
        <time>2023-09-10T09:51:39Z</time>
      </trkpt>
      <trkpt lat="46.366436211392283" lon="8.338008066639304">
        <ele>2472.54</ele>
        <time>2023-09-10T09:51:59Z</time>
      </trkpt>
      <trkpt lat="46.366448197513819" lon="8.338062884286046">
        <ele>2472.7199999999998</ele>
        <time>2023-09-10T09:52:04Z</time>
      </trkpt>
      <trkpt lat="46.366475187242031" lon="8.338177464902401">
        <ele>2473.1199999999999</ele>
        <time>2023-09-10T09:52:14Z</time>
      </trkpt>
      <trkpt lat="46.366498488932848" lon="8.338275952264667">
        <ele>2473.7199999999998</ele>
        <time>2023-09-10T09:52:25Z</time>
      </trkpt>
      <trkpt lat="46.366520533338189" lon="8.338334793224931">
        <ele>2474.8299999999999</ele>
        <time>2023-09-10T09:52:37Z</time>
      </trkpt>
      <trkpt lat="46.366536794230342" lon="8.338416097685695">
        <ele>2477</ele>
        <time>2023-09-10T09:52:49Z</time>
      </trkpt>
      <trkpt lat="46.366547020152211" lon="8.338457001373172">
        <ele>2478.0900000000001</ele>
        <time>2023-09-10T09:52:59Z</time>
      </trkpt>
      <trkpt lat="46.366566382348537" lon="8.338467059656978">
        <ele>2479.04</ele>
        <time>2023-09-10T09:53:08Z</time>
      </trkpt>
      <trkpt lat="46.366557665169239" lon="8.338474854826927">
        <ele>2478.1999999999998</ele>
        <time>2023-09-10T09:53:25Z</time>
      </trkpt>
      <trkpt lat="46.366611309349537" lon="8.338472675532103">
        <ele>2479.9099999999999</ele>
        <time>2023-09-10T09:53:40Z</time>
      </trkpt>
      <trkpt lat="46.36666621081531" lon="8.338497318327427">
        <ele>2481.4299999999998</ele>
        <time>2023-09-10T09:53:52Z</time>
      </trkpt>
      <trkpt lat="46.36671700514853" lon="8.33849891088903">
        <ele>2483.2199999999998</ele>
        <time>2023-09-10T09:54:03Z</time>
      </trkpt>
      <trkpt lat="46.366735780611634" lon="8.338539898395538">
        <ele>2484.29</ele>
        <time>2023-09-10T09:54:12Z</time>
      </trkpt>
      <trkpt lat="46.366729494184256" lon="8.338587675243616">
        <ele>2486.3000000000002</ele>
        <time>2023-09-10T09:54:21Z</time>
      </trkpt>
      <trkpt lat="46.366735277697444" lon="8.338708961382508">
        <ele>2487.1500000000001</ele>
        <time>2023-09-10T09:54:34Z</time>
      </trkpt>
      <trkpt lat="46.366784814745188" lon="8.338827732950449">
        <ele>2487.5799999999999</ele>
        <time>2023-09-10T09:54:46Z</time>
      </trkpt>
      <trkpt lat="46.366787748411298" lon="8.338934183120728">
        <ele>2488.2800000000002</ele>
        <time>2023-09-10T09:54:57Z</time>
      </trkpt>
      <trkpt lat="46.366785988211632" lon="8.339037112891674">
        <ele>2489</ele>
        <time>2023-09-10T09:55:07Z</time>
      </trkpt>
      <trkpt lat="46.3667893409729" lon="8.339069886133075">
        <ele>2489.3000000000002</ele>
        <time>2023-09-10T09:55:19Z</time>
      </trkpt>
      <trkpt lat="46.366794286295772" lon="8.339155297726393">
        <ele>2490.3699999999999</ele>
        <time>2023-09-10T09:55:31Z</time>
      </trkpt>
      <trkpt lat="46.366802249103785" lon="8.33922847174108">
        <ele>2491.8899999999999</ele>
        <time>2023-09-10T09:55:42Z</time>
      </trkpt>
      <trkpt lat="46.366826891899109" lon="8.339304411783814">
        <ele>2493.3800000000001</ele>
        <time>2023-09-10T09:55:54Z</time>
      </trkpt>
      <trkpt lat="46.366827310994267" lon="8.339378675445914">
        <ele>2495.1100000000001</ele>
        <time>2023-09-10T09:56:05Z</time>
      </trkpt>
      <trkpt lat="46.36684893630445" lon="8.33940482698381">
        <ele>2495.9099999999999</ele>
        <time>2023-09-10T09:56:17Z</time>
      </trkpt>
      <trkpt lat="46.366861509159207" lon="8.339409185573459">
        <ele>2496.6399999999999</ele>
        <time>2023-09-10T09:56:32Z</time>
      </trkpt>
      <trkpt lat="46.366902580484748" lon="8.339418740943074">
        <ele>2497.5300000000002</ele>
        <time>2023-09-10T09:56:44Z</time>
      </trkpt>
      <trkpt lat="46.366937449201941" lon="8.339438689872623">
        <ele>2499.5500000000002</ele>
        <time>2023-09-10T09:56:56Z</time>
      </trkpt>
      <trkpt lat="46.366972904652357" lon="8.339437348768115">
        <ele>2501.6500000000001</ele>
        <time>2023-09-10T09:57:08Z</time>
      </trkpt>
      <trkpt lat="46.367015819996595" lon="8.339433828368783">
        <ele>2503.5300000000002</ele>
        <time>2023-09-10T09:57:20Z</time>
      </trkpt>
      <trkpt lat="46.367026967927814" lon="8.339425781741738">
        <ele>2504.3899999999999</ele>
        <time>2023-09-10T09:57:31Z</time>
      </trkpt>
      <trkpt lat="46.367048174142838" lon="8.339438606053591">
        <ele>2505.98</ele>
        <time>2023-09-10T09:57:45Z</time>
      </trkpt>
      <trkpt lat="46.367073822766542" lon="8.339431816712022">
        <ele>2507.1300000000001</ele>
        <time>2023-09-10T09:57:57Z</time>
      </trkpt>
      <trkpt lat="46.367102069780231" lon="8.339447239413858">
        <ele>2508.21</ele>
        <time>2023-09-10T09:58:10Z</time>
      </trkpt>
      <trkpt lat="46.367140123620629" lon="8.339461823925376">
        <ele>2509.5700000000002</ele>
        <time>2023-09-10T09:58:26Z</time>
      </trkpt>
      <trkpt lat="46.367133753374219" lon="8.339450340718031">
        <ele>2509.3899999999999</ele>
        <time>2023-09-10T09:58:46Z</time>
      </trkpt>
      <trkpt lat="46.367134423926473" lon="8.339461069554091">
        <ele>2509.2600000000002</ele>
        <time>2023-09-10T09:59:07Z</time>
      </trkpt>
      <trkpt lat="46.367149259895086" lon="8.339478420093656">
        <ele>2509.6900000000001</ele>
        <time>2023-09-10T09:59:22Z</time>
      </trkpt>
      <trkpt lat="46.36717289686203" lon="8.339553438127041">
        <ele>2511.4400000000001</ele>
        <time>2023-09-10T09:59:35Z</time>
      </trkpt>
      <trkpt lat="46.367209274321795" lon="8.339631725102663">
        <ele>2513.0999999999999</ele>
        <time>2023-09-10T09:59:47Z</time>
      </trkpt>
      <trkpt lat="46.367260487750173" lon="8.339661648496985">
        <ele>2514.6700000000001</ele>
        <time>2023-09-10T09:59:57Z</time>
      </trkpt>
      <trkpt lat="46.367298122495413" lon="8.339632898569107">
        <ele>2516.79</ele>
        <time>2023-09-10T10:00:10Z</time>
      </trkpt>
      <trkpt lat="46.367325866594911" lon="8.339629964902997">
        <ele>2518.4099999999999</ele>
        <time>2023-09-10T10:00:20Z</time>
      </trkpt>
      <trkpt lat="46.367354616522789" lon="8.339581014588475">
        <ele>2519.0500000000002</ele>
        <time>2023-09-10T10:00:32Z</time>
      </trkpt>
      <trkpt lat="46.367369117215276" lon="8.339577745646238">
        <ele>2518.9000000000001</ele>
        <time>2023-09-10T10:00:57Z</time>
      </trkpt>
      <trkpt lat="46.367373811081052" lon="8.339590905234218">
        <ele>2519.3699999999999</ele>
        <time>2023-09-10T10:01:11Z</time>
      </trkpt>
      <trkpt lat="46.367380181327462" lon="8.339602053165436">
        <ele>2519.0300000000002</ele>
        <time>2023-09-10T10:01:32Z</time>
      </trkpt>
      <trkpt lat="46.367374481633306" lon="8.339606998488307">
        <ele>2519.2800000000002</ele>
        <time>2023-09-10T10:01:59Z</time>
      </trkpt>
      <trkpt lat="46.367401136085391" lon="8.339561903849244">
        <ele>2519.3699999999999</ele>
        <time>2023-09-10T10:02:21Z</time>
      </trkpt>
      <trkpt lat="46.36745922267437" lon="8.339477917179465">
        <ele>2521.5300000000002</ele>
        <time>2023-09-10T10:02:35Z</time>
      </trkpt>
      <trkpt lat="46.367512783035636" lon="8.339406922459602">
        <ele>2523.8099999999999</ele>
        <time>2023-09-10T10:02:50Z</time>
      </trkpt>
      <trkpt lat="46.36755452491343" lon="8.339372221380472">
        <ele>2525.1700000000001</ele>
        <time>2023-09-10T10:03:01Z</time>
      </trkpt>
      <trkpt lat="46.367601966485381" lon="8.339286642149091">
        <ele>2527.0500000000002</ele>
        <time>2023-09-10T10:03:16Z</time>
      </trkpt>
      <trkpt lat="46.367632811889052" lon="8.339241966605187">
        <ele>2528.29</ele>
        <time>2023-09-10T10:03:27Z</time>
      </trkpt>
      <trkpt lat="46.367653599008918" lon="8.339247163385153">
        <ele>2530.0900000000001</ele>
        <time>2023-09-10T10:03:40Z</time>
      </trkpt>
      <trkpt lat="46.367685366421938" lon="8.339338107034564">
        <ele>2531.7600000000002</ele>
        <time>2023-09-10T10:03:55Z</time>
      </trkpt>
      <trkpt lat="46.367675475776196" lon="8.339415388181806">
        <ele>2533.1999999999998</ele>
        <time>2023-09-10T10:04:07Z</time>
      </trkpt>
      <trkpt lat="46.367679079994559" lon="8.33951773121953">
        <ele>2534.5700000000002</ele>
        <time>2023-09-10T10:04:21Z</time>
      </trkpt>
      <trkpt lat="46.367678409442306" lon="8.339554276317358">
        <ele>2535.0599999999999</ele>
        <time>2023-09-10T10:04:38Z</time>
      </trkpt>
      <trkpt lat="46.367667596787214" lon="8.339663157239556">
        <ele>2537.46</ele>
        <time>2023-09-10T10:04:57Z</time>
      </trkpt>
      <trkpt lat="46.36767472140491" lon="8.33975812420249">
        <ele>2540.48</ele>
        <time>2023-09-10T10:05:16Z</time>
      </trkpt>
      <trkpt lat="46.367678325623274" lon="8.339795088395476">
        <ele>2541.0100000000002</ele>
        <time>2023-09-10T10:05:35Z</time>
      </trkpt>
      <trkpt lat="46.367669105529785" lon="8.339893072843552">
        <ele>2542.04</ele>
        <time>2023-09-10T10:05:55Z</time>
      </trkpt>
      <trkpt lat="46.367654437199235" lon="8.340060878545046">
        <ele>2543.96</ele>
        <time>2023-09-10T10:06:13Z</time>
      </trkpt>
      <trkpt lat="46.367665752768517" lon="8.340226924046874">
        <ele>2545.5</ele>
        <time>2023-09-10T10:06:27Z</time>
      </trkpt>
      <trkpt lat="46.367639852687716" lon="8.340312754735351">
        <ele>2546.6999999999998</ele>
        <time>2023-09-10T10:06:38Z</time>
      </trkpt>
      <trkpt lat="46.367639936506748" lon="8.340377295389772">
        <ele>2548.4000000000001</ele>
        <time>2023-09-10T10:06:50Z</time>
      </trkpt>
      <trkpt lat="46.367633901536465" lon="8.340417947620153">
        <ele>2549.5999999999999</ele>
        <time>2023-09-10T10:07:03Z</time>
      </trkpt>
      <trkpt lat="46.367625687271357" lon="8.340413756668568">
        <ele>2549.75</ele>
        <time>2023-09-10T10:07:27Z</time>
      </trkpt>
      <trkpt lat="46.367607330903411" lon="8.340416606515646">
        <ele>2550.2600000000002</ele>
        <time>2023-09-10T10:07:45Z</time>
      </trkpt>
      <trkpt lat="46.367581514641643" lon="8.340523391962051">
        <ele>2553.2199999999998</ele>
        <time>2023-09-10T10:08:03Z</time>
      </trkpt>
      <trkpt lat="46.367584113031626" lon="8.340603522956371">
        <ele>2554.9499999999998</ele>
        <time>2023-09-10T10:08:15Z</time>
      </trkpt>
      <trkpt lat="46.367569863796234" lon="8.340702345594764">
        <ele>2557.29</ele>
        <time>2023-09-10T10:08:30Z</time>
      </trkpt>
      <trkpt lat="46.367540694773197" lon="8.340762024745345">
        <ele>2559.0100000000002</ele>
        <time>2023-09-10T10:08:42Z</time>
      </trkpt>
      <trkpt lat="46.367501886561513" lon="8.340813908725977">
        <ele>2561.04</ele>
        <time>2023-09-10T10:08:56Z</time>
      </trkpt>
      <trkpt lat="46.367480596527457" lon="8.34081307053566">
        <ele>2562.3899999999999</ele>
        <time>2023-09-10T10:09:07Z</time>
      </trkpt>
      <trkpt lat="46.367477076128125" lon="8.340820111334324">
        <ele>2562.4699999999998</ele>
        <time>2023-09-10T10:09:23Z</time>
      </trkpt>
      <trkpt lat="46.367473974823952" lon="8.340822961181402">
        <ele>2562.1999999999998</ele>
        <time>2023-09-10T10:09:48Z</time>
      </trkpt>
      <trkpt lat="46.367421085014939" lon="8.340916838496923">
        <ele>2563.7800000000002</ele>
        <time>2023-09-10T10:10:02Z</time>
      </trkpt>
      <trkpt lat="46.367407673969865" lon="8.340932512655854">
        <ele>2563.7600000000002</ele>
        <time>2023-09-10T10:10:04Z</time>
      </trkpt>
      <trkpt lat="46.36731362901628" lon="8.341031167656183">
        <ele>2564.9099999999999</ele>
        <time>2023-09-10T10:10:18Z</time>
      </trkpt>
      <trkpt lat="46.367284627631307" lon="8.341068215668201">
        <ele>2565.4000000000001</ele>
        <time>2023-09-10T10:10:30Z</time>
      </trkpt>
      <trkpt lat="46.367269121110439" lon="8.341080956161022">
        <ele>2565.8600000000001</ele>
        <time>2023-09-10T10:10:32Z</time>
      </trkpt>
      <trkpt lat="46.367140542715788" lon="8.3411062695086">
        <ele>2566.54</ele>
        <time>2023-09-10T10:10:48Z</time>
      </trkpt>
      <trkpt lat="46.367076337337494" lon="8.34112336859107">
        <ele>2568.52</ele>
        <time>2023-09-10T10:10:59Z</time>
      </trkpt>
      <trkpt lat="46.367014478892088" lon="8.341120602563024">
        <ele>2570.3099999999999</ele>
        <time>2023-09-10T10:11:10Z</time>
      </trkpt>
      <trkpt lat="46.366957817226648" lon="8.341123787686229">
        <ele>2570</ele>
        <time>2023-09-10T10:11:22Z</time>
      </trkpt>
      <trkpt lat="46.366966450586915" lon="8.341119345277548">
        <ele>2569.4200000000001</ele>
        <time>2023-09-10T10:11:39Z</time>
      </trkpt>
      <trkpt lat="46.366970306262374" lon="8.341119764372706">
        <ele>2570.6300000000001</ele>
        <time>2023-09-10T10:11:47Z</time>
      </trkpt>
      <trkpt lat="46.366976844146848" lon="8.341103168204427">
        <ele>2570.6500000000001</ele>
        <time>2023-09-10T10:12:08Z</time>
      </trkpt>
      <trkpt lat="46.366985226050019" lon="8.341112807393074">
        <ele>2571.6900000000001</ele>
        <time>2023-09-10T10:12:32Z</time>
      </trkpt>
      <trkpt lat="46.366975335404277" lon="8.34112236276269">
        <ele>2570.7399999999998</ele>
        <time>2023-09-10T10:13:00Z</time>
      </trkpt>
      <trkpt lat="46.366948513314128" lon="8.341155471280217">
        <ele>2571.29</ele>
        <time>2023-09-10T10:13:05Z</time>
      </trkpt>
      <trkpt lat="46.366921104490757" lon="8.341193776577711">
        <ele>2570.9400000000001</ele>
        <time>2023-09-10T10:13:09Z</time>
      </trkpt>
      <trkpt lat="46.366870561614633" lon="8.341338280588388">
        <ele>2571.9400000000001</ele>
        <time>2023-09-10T10:13:23Z</time>
      </trkpt>
      <trkpt lat="46.366848517209291" lon="8.341428050771356">
        <ele>2574.27</ele>
        <time>2023-09-10T10:13:37Z</time>
      </trkpt>
      <trkpt lat="46.366847008466721" lon="8.341510444879532">
        <ele>2576.8000000000002</ele>
        <time>2023-09-10T10:13:51Z</time>
      </trkpt>
      <trkpt lat="46.366816079244018" lon="8.341595437377691">
        <ele>2578.71</ele>
        <time>2023-09-10T10:14:04Z</time>
      </trkpt>
      <trkpt lat="46.366779869422317" lon="8.34168185479939">
        <ele>2580.5500000000002</ele>
        <time>2023-09-10T10:14:18Z</time>
      </trkpt>
      <trkpt lat="46.36673703789711" lon="8.341743377968669">
        <ele>2581.73</ele>
        <time>2023-09-10T10:14:29Z</time>
      </trkpt>
      <trkpt lat="46.366682639345527" lon="8.341883858665824">
        <ele>2582.02</ele>
        <time>2023-09-10T10:14:44Z</time>
      </trkpt>
      <trkpt lat="46.366671994328499" lon="8.341955272480846">
        <ele>2583.2199999999998</ele>
        <time>2023-09-10T10:14:52Z</time>
      </trkpt>
      <trkpt lat="46.366665624082088" lon="8.342103632166982">
        <ele>2584.0700000000002</ele>
        <time>2023-09-10T10:15:06Z</time>
      </trkpt>
      <trkpt lat="46.366655230522156" lon="8.342214524745941">
        <ele>2584.46</ele>
        <time>2023-09-10T10:15:17Z</time>
      </trkpt>
      <trkpt lat="46.366658248007298" lon="8.34228727966547">
        <ele>2585.8699999999999</ele>
        <time>2023-09-10T10:15:29Z</time>
      </trkpt>
      <trkpt lat="46.366630168631673" lon="8.342351568862796">
        <ele>2587.0900000000001</ele>
        <time>2023-09-10T10:15:38Z</time>
      </trkpt>
      <trkpt lat="46.366566382348537" lon="8.342424323782325">
        <ele>2587.5900000000001</ele>
        <time>2023-09-10T10:15:49Z</time>
      </trkpt>
      <trkpt lat="46.366527071222663" lon="8.342483667656779">
        <ele>2588.7399999999998</ele>
        <time>2023-09-10T10:16:01Z</time>
      </trkpt>
      <trkpt lat="46.366508211940527" lon="8.342556925490499">
        <ele>2590.0700000000002</ele>
        <time>2023-09-10T10:16:12Z</time>
      </trkpt>
      <trkpt lat="46.366493040695786" lon="8.342606546357274">
        <ele>2590.8699999999999</ele>
        <time>2023-09-10T10:16:22Z</time>
      </trkpt>
      <trkpt lat="46.366486083716154" lon="8.342646863311529">
        <ele>2591.4400000000001</ele>
        <time>2023-09-10T10:16:40Z</time>
      </trkpt>
      <trkpt lat="46.366515755653381" lon="8.342704866081476">
        <ele>2592.6799999999998</ele>
        <time>2023-09-10T10:16:51Z</time>
      </trkpt>
      <trkpt lat="46.366512486711144" lon="8.342766808345914">
        <ele>2592.8600000000001</ele>
        <time>2023-09-10T10:17:01Z</time>
      </trkpt>
      <trkpt lat="46.366515420377254" lon="8.342771753668785">
        <ele>2592.8899999999999</ele>
        <time>2023-09-10T10:17:20Z</time>
      </trkpt>
      <trkpt lat="46.366522209718823" lon="8.342818273231387">
        <ele>2600.2199999999998</ele>
        <time>2023-09-10T11:01:27Z</time>
      </trkpt>
      <trkpt lat="46.366536123678088" lon="8.342845346778631">
        <ele>2600.3899999999999</ele>
        <time>2023-09-10T11:01:37Z</time>
      </trkpt>
      <trkpt lat="46.366537464782596" lon="8.342846184968948">
        <ele>2600.5900000000001</ele>
        <time>2023-09-10T11:01:51Z</time>
      </trkpt>
      <trkpt lat="46.366532435640693" lon="8.342842916026712">
        <ele>2600.5100000000002</ele>
        <time>2023-09-10T11:02:03Z</time>
      </trkpt>
      <trkpt lat="46.366528999060392" lon="8.342836797237396">
        <ele>2600.3800000000001</ele>
        <time>2023-09-10T11:02:18Z</time>
      </trkpt>
      <trkpt lat="46.366523467004299" lon="8.342844005674124">
        <ele>2600.3200000000002</ele>
        <time>2023-09-10T11:02:40Z</time>
      </trkpt>
      <trkpt lat="46.366525897756219" lon="8.342844508588314">
        <ele>2600.3200000000002</ele>
        <time>2023-09-10T11:03:02Z</time>
      </trkpt>
      <trkpt lat="46.366535201668739" lon="8.342839060351253">
        <ele>2600</ele>
        <time>2023-09-10T11:03:24Z</time>
      </trkpt>
      <trkpt lat="46.36656747199595" lon="8.342844005674124">
        <ele>2600.4000000000001</ele>
        <time>2023-09-10T11:03:37Z</time>
      </trkpt>
      <trkpt lat="46.366569316014647" lon="8.342852219939232">
        <ele>2600.48</ele>
        <time>2023-09-10T11:03:52Z</time>
      </trkpt>
      <trkpt lat="46.366572752594948" lon="8.34286093711853">
        <ele>2600.5100000000002</ele>
        <time>2023-09-10T11:04:16Z</time>
      </trkpt>
      <trkpt lat="46.366571076214314" lon="8.342876778915525">
        <ele>2600.1199999999999</ele>
        <time>2023-09-10T11:04:33Z</time>
      </trkpt>
      <trkpt lat="46.36656847782433" lon="8.342880802229047">
        <ele>2600.21</ele>
        <time>2023-09-10T11:05:03Z</time>
      </trkpt>
      <trkpt lat="46.366585660725832" lon="8.342925561591983">
        <ele>2600.2399999999998</ele>
        <time>2023-09-10T11:05:24Z</time>
      </trkpt>
      <trkpt lat="46.366589181125164" lon="8.342941822484136">
        <ele>2599.9000000000001</ele>
        <time>2023-09-10T11:05:35Z</time>
      </trkpt>
      <trkpt lat="46.366602089256048" lon="8.343003932386637">
        <ele>2598.71</ele>
        <time>2023-09-10T11:05:48Z</time>
      </trkpt>
      <trkpt lat="46.366685489192605" lon="8.343053469434381">
        <ele>2598.6700000000001</ele>
        <time>2023-09-10T11:05:59Z</time>
      </trkpt>
      <trkpt lat="46.366711305454373" lon="8.343107867985964">
        <ele>2599.1999999999998</ele>
        <time>2023-09-10T11:06:08Z</time>
      </trkpt>
      <trkpt lat="46.366786910220981" lon="8.343200823292136">
        <ele>2599.1799999999998</ele>
        <time>2023-09-10T11:06:20Z</time>
      </trkpt>
      <trkpt lat="46.366790514439344" lon="8.343222197145224">
        <ele>2599.52</ele>
        <time>2023-09-10T11:06:22Z</time>
      </trkpt>
      <trkpt lat="46.366827813908458" lon="8.343286821618676">
        <ele>2599.0100000000002</ele>
        <time>2023-09-10T11:06:33Z</time>
      </trkpt>
      <trkpt lat="46.366863772273064" lon="8.343290509656072">
        <ele>2598.3499999999999</ele>
        <time>2023-09-10T11:06:46Z</time>
      </trkpt>
      <trkpt lat="46.366877518594265" lon="8.343359073624015">
        <ele>2597.1399999999999</ele>
        <time>2023-09-10T11:06:57Z</time>
      </trkpt>
      <trkpt lat="46.366936191916466" lon="8.343353793025017">
        <ele>2595.54</ele>
        <time>2023-09-10T11:07:07Z</time>
      </trkpt>
      <trkpt lat="46.366947842761874" lon="8.343412047252059">
        <ele>2594.5700000000002</ele>
        <time>2023-09-10T11:07:17Z</time>
      </trkpt>
      <trkpt lat="46.366992350667715" lon="8.343478767201304">
        <ele>2593.5599999999999</ele>
        <time>2023-09-10T11:07:28Z</time>
      </trkpt>
      <trkpt lat="46.367017412558198" lon="8.34350542165339">
        <ele>2593.0300000000002</ele>
        <time>2023-09-10T11:07:42Z</time>
      </trkpt>
      <trkpt lat="46.367033673450351" lon="8.343561245128512">
        <ele>2592.8299999999999</ele>
        <time>2023-09-10T11:07:53Z</time>
      </trkpt>
      <trkpt lat="46.367081198841333" lon="8.343629138544202">
        <ele>2591.6999999999998</ele>
        <time>2023-09-10T11:08:05Z</time>
      </trkpt>
      <trkpt lat="46.367093352600932" lon="8.343656379729509">
        <ele>2592.23</ele>
        <time>2023-09-10T11:08:22Z</time>
      </trkpt>
      <trkpt lat="46.367101985961199" lon="8.343682866543531">
        <ele>2591.9099999999999</ele>
        <time>2023-09-10T11:08:35Z</time>
      </trkpt>
      <trkpt lat="46.367114558815956" lon="8.34373164921999">
        <ele>2591.4899999999998</ele>
        <time>2023-09-10T11:08:46Z</time>
      </trkpt>
      <trkpt lat="46.36711179278791" lon="8.343783533200622">
        <ele>2590.02</ele>
        <time>2023-09-10T11:09:03Z</time>
      </trkpt>
      <trkpt lat="46.367105003446341" lon="8.343815049156547">
        <ele>2588.8000000000002</ele>
        <time>2023-09-10T11:09:16Z</time>
      </trkpt>
      <trkpt lat="46.367068374529481" lon="8.343839608132839">
        <ele>2586.6100000000001</ele>
        <time>2023-09-10T11:09:29Z</time>
      </trkpt>
      <trkpt lat="46.367041803896427" lon="8.3438675198704">
        <ele>2584.9200000000001</ele>
        <time>2023-09-10T11:09:40Z</time>
      </trkpt>
      <trkpt lat="46.367036523297429" lon="8.343957541510463">
        <ele>2581.8000000000002</ele>
        <time>2023-09-10T11:09:55Z</time>
      </trkpt>
      <trkpt lat="46.367029650136828" lon="8.344001295045018">
        <ele>2580.2800000000002</ele>
        <time>2023-09-10T11:10:07Z</time>
      </trkpt>
      <trkpt lat="46.367051526904106" lon="8.344035241752863">
        <ele>2579.3899999999999</ele>
        <time>2023-09-10T11:10:21Z</time>
      </trkpt>
      <trkpt lat="46.367070889100432" lon="8.344073630869389">
        <ele>2578.8099999999999</ele>
        <time>2023-09-10T11:10:32Z</time>
      </trkpt>
      <trkpt lat="46.367060746997595" lon="8.344088969752193">
        <ele>2578.1799999999998</ele>
        <time>2023-09-10T11:10:39Z</time>
      </trkpt>
      <trkpt lat="46.367039205506444" lon="8.344094082713127">
        <ele>2576.9099999999999</ele>
        <time>2023-09-10T11:10:48Z</time>
      </trkpt>
      <trkpt lat="46.367028225213289" lon="8.344098944216967">
        <ele>2576.3200000000002</ele>
        <time>2023-09-10T11:10:51Z</time>
      </trkpt>
      <trkpt lat="46.367008276283741" lon="8.344123503193259">
        <ele>2575.4899999999998</ele>
        <time>2023-09-10T11:10:53Z</time>
      </trkpt>
      <trkpt lat="46.367002073675394" lon="8.344153510406613">
        <ele>2574.6100000000001</ele>
        <time>2023-09-10T11:11:04Z</time>
      </trkpt>
      <trkpt lat="46.366994446143508" lon="8.344178823754191">
        <ele>2574.4699999999998</ele>
        <time>2023-09-10T11:11:11Z</time>
      </trkpt>
      <trkpt lat="46.367019591853023" lon="8.344197096303105">
        <ele>2573.3400000000001</ele>
        <time>2023-09-10T11:11:23Z</time>
      </trkpt>
      <trkpt lat="46.367026129737496" lon="8.344250489026308">
        <ele>2571.7600000000002</ele>
        <time>2023-09-10T11:11:37Z</time>
      </trkpt>
      <trkpt lat="46.366999559104443" lon="8.344271946698427">
        <ele>2569.7399999999998</ele>
        <time>2023-09-10T11:11:49Z</time>
      </trkpt>
      <trkpt lat="46.366995871067047" lon="8.344269180670381">
        <ele>2568.0700000000002</ele>
        <time>2023-09-10T11:12:07Z</time>
      </trkpt>
      <trkpt lat="46.36699746362865" lon="8.344332380220294">
        <ele>2566.4699999999998</ele>
        <time>2023-09-10T11:12:20Z</time>
      </trkpt>
      <trkpt lat="46.366999140009284" lon="8.344389880076051">
        <ele>2565.7199999999998</ele>
        <time>2023-09-10T11:12:31Z</time>
      </trkpt>
      <trkpt lat="46.36698866263032" lon="8.344405889511108">
        <ele>2565.5799999999999</ele>
        <time>2023-09-10T11:12:39Z</time>
      </trkpt>
      <trkpt lat="46.367050521075726" lon="8.344449726864696">
        <ele>2565.5799999999999</ele>
        <time>2023-09-10T11:12:49Z</time>
      </trkpt>
      <trkpt lat="46.367071559652686" lon="8.344461712986231">
        <ele>2565.1900000000001</ele>
        <time>2023-09-10T11:13:01Z</time>
      </trkpt>
      <trkpt lat="46.367074493318796" lon="8.344537066295743">
        <ele>2563.3600000000001</ele>
        <time>2023-09-10T11:13:13Z</time>
      </trkpt>
      <trkpt lat="46.367089664563537" lon="8.344543352723122">
        <ele>2563.4400000000001</ele>
        <time>2023-09-10T11:13:25Z</time>
      </trkpt>
      <trkpt lat="46.367123778909445" lon="8.344623483717442">
        <ele>2561.27</ele>
        <time>2023-09-10T11:13:37Z</time>
      </trkpt>
      <trkpt lat="46.367130484431982" lon="8.344704285264015">
        <ele>2558.8600000000001</ele>
        <time>2023-09-10T11:13:49Z</time>
      </trkpt>
      <trkpt lat="46.367119420319796" lon="8.344770418480039">
        <ele>2556.5599999999999</ele>
        <time>2023-09-10T11:14:00Z</time>
      </trkpt>
      <trkpt lat="46.367108188569546" lon="8.344904277473688">
        <ele>2554.8000000000002</ele>
        <time>2023-09-10T11:14:12Z</time>
      </trkpt>
      <trkpt lat="46.367109697312117" lon="8.344959346577525">
        <ele>2554.6100000000001</ele>
        <time>2023-09-10T11:14:23Z</time>
      </trkpt>
      <trkpt lat="46.367118079215288" lon="8.344966555014253">
        <ele>2554.73</ele>
        <time>2023-09-10T11:14:24Z</time>
      </trkpt>
      <trkpt lat="46.367156468331814" lon="8.345048278570175">
        <ele>2555.0900000000001</ele>
        <time>2023-09-10T11:14:35Z</time>
      </trkpt>
      <trkpt lat="46.367195192724466" lon="8.345130002126098">
        <ele>2554.1599999999999</ele>
        <time>2023-09-10T11:14:47Z</time>
      </trkpt>
      <trkpt lat="46.367240371182561" lon="8.345158752053976">
        <ele>2554.2600000000002</ele>
        <time>2023-09-10T11:14:57Z</time>
      </trkpt>
      <trkpt lat="46.367269707843661" lon="8.345212312415242">
        <ele>2553.2800000000002</ele>
        <time>2023-09-10T11:15:08Z</time>
      </trkpt>
      <trkpt lat="46.367268031463027" lon="8.345313230529428">
        <ele>2551.79</ele>
        <time>2023-09-10T11:15:19Z</time>
      </trkpt>
      <trkpt lat="46.367286806926131" lon="8.345396798104048">
        <ele>2550.52</ele>
        <time>2023-09-10T11:15:28Z</time>
      </trkpt>
      <trkpt lat="46.36728823184967" lon="8.345413310453296">
        <ele>2550.52</ele>
        <time>2023-09-10T11:15:29Z</time>
      </trkpt>
      <trkpt lat="46.367288818582892" lon="8.345429236069322">
        <ele>2550.46</ele>
        <time>2023-09-10T11:15:30Z</time>
      </trkpt>
      <trkpt lat="46.367353443056345" lon="8.345517078414559">
        <ele>2550.5300000000002</ele>
        <time>2023-09-10T11:15:43Z</time>
      </trkpt>
      <trkpt lat="46.367398453876376" lon="8.34557767957449">
        <ele>2549.75</ele>
        <time>2023-09-10T11:15:54Z</time>
      </trkpt>
      <trkpt lat="46.367410523816943" lon="8.345611961558461">
        <ele>2548.2199999999998</ele>
        <time>2023-09-10T11:16:04Z</time>
      </trkpt>
      <trkpt lat="46.367421001195908" lon="8.345666192471981">
        <ele>2547.02</ele>
        <time>2023-09-10T11:16:14Z</time>
      </trkpt>
      <trkpt lat="46.367449583485723" lon="8.34569645114243">
        <ele>2545.6100000000001</ele>
        <time>2023-09-10T11:16:24Z</time>
      </trkpt>
      <trkpt lat="46.367468191310763" lon="8.345723189413548">
        <ele>2543.6500000000001</ele>
        <time>2023-09-10T11:16:35Z</time>
      </trkpt>
      <trkpt lat="46.367471292614937" lon="8.345736935734749">
        <ele>2542.7199999999998</ele>
        <time>2023-09-10T11:16:45Z</time>
      </trkpt>
      <trkpt lat="46.367482021450996" lon="8.345787478610873">
        <ele>2541.1199999999999</ele>
        <time>2023-09-10T11:16:57Z</time>
      </trkpt>
      <trkpt lat="46.367476405575871" lon="8.345830896869302">
        <ele>2541.1700000000001</ele>
        <time>2023-09-10T11:17:07Z</time>
      </trkpt>
      <trkpt lat="46.367478417232633" lon="8.345826622098684">
        <ele>2541.1399999999999</ele>
        <time>2023-09-10T11:17:23Z</time>
      </trkpt>
      <trkpt lat="46.367481602355838" lon="8.345886468887329">
        <ele>2540.21</ele>
        <time>2023-09-10T11:17:34Z</time>
      </trkpt>
      <trkpt lat="46.367497947067022" lon="8.345942292362452">
        <ele>2538.4499999999998</ele>
        <time>2023-09-10T11:17:43Z</time>
      </trkpt>
      <trkpt lat="46.367501383647323" lon="8.345995014533401">
        <ele>2536.6700000000001</ele>
        <time>2023-09-10T11:17:54Z</time>
      </trkpt>
      <trkpt lat="46.367515465244651" lon="8.346056705340743">
        <ele>2534.3000000000002</ele>
        <time>2023-09-10T11:18:05Z</time>
      </trkpt>
      <trkpt lat="46.367499036714435" lon="8.346111690625548">
        <ele>2532.48</ele>
        <time>2023-09-10T11:18:17Z</time>
      </trkpt>
      <trkpt lat="46.367513202130795" lon="8.34613767452538">
        <ele>2531.3000000000002</ele>
        <time>2023-09-10T11:18:38Z</time>
      </trkpt>
      <trkpt lat="46.367574222385883" lon="8.346202550455928">
        <ele>2529.6399999999999</ele>
        <time>2023-09-10T11:18:50Z</time>
      </trkpt>
      <trkpt lat="46.367613868787885" lon="8.346260888502002">
        <ele>2528.6999999999998</ele>
        <time>2023-09-10T11:19:01Z</time>
      </trkpt>
      <trkpt lat="46.367612360045314" lon="8.34637270309031">
        <ele>2527.1300000000001</ele>
        <time>2023-09-10T11:19:14Z</time>
      </trkpt>
      <trkpt lat="46.367640942335129" lon="8.346437411382794">
        <ele>2524.1300000000001</ele>
        <time>2023-09-10T11:19:26Z</time>
      </trkpt>
      <trkpt lat="46.367715625092387" lon="8.346435315907002">
        <ele>2521.3899999999999</ele>
        <time>2023-09-10T11:19:39Z</time>
      </trkpt>
      <trkpt lat="46.367783937603235" lon="8.346448056399822">
        <ele>2519.0700000000002</ele>
        <time>2023-09-10T11:19:51Z</time>
      </trkpt>
      <trkpt lat="46.36785744689405" lon="8.3464699331671">
        <ele>2518.1300000000001</ele>
        <time>2023-09-10T11:20:01Z</time>
      </trkpt>
      <trkpt lat="46.367911426350474" lon="8.346483847126365">
        <ele>2517.2399999999998</ele>
        <time>2023-09-10T11:20:13Z</time>
      </trkpt>
      <trkpt lat="46.367935733869672" lon="8.346523744985461">
        <ele>2514.8299999999999</ele>
        <time>2023-09-10T11:20:25Z</time>
      </trkpt>
      <trkpt lat="46.367973703891039" lon="8.346574036404491">
        <ele>2512.5</ele>
        <time>2023-09-10T11:20:38Z</time>
      </trkpt>
      <trkpt lat="46.367999101057649" lon="8.346598176285625">
        <ele>2510.73</ele>
        <time>2023-09-10T11:20:51Z</time>
      </trkpt>
      <trkpt lat="46.368010835722089" lon="8.34660672582686">
        <ele>2509.29</ele>
        <time>2023-09-10T11:21:03Z</time>
      </trkpt>
      <trkpt lat="46.36802801862359" lon="8.346627512946725">
        <ele>2507.8299999999999</ele>
        <time>2023-09-10T11:21:16Z</time>
      </trkpt>
      <trkpt lat="46.368078561499715" lon="8.346657436341047">
        <ele>2505.4099999999999</ele>
        <time>2023-09-10T11:21:29Z</time>
      </trkpt>
      <trkpt lat="46.368092391639948" lon="8.346675457432866">
        <ele>2504.73</ele>
        <time>2023-09-10T11:21:48Z</time>
      </trkpt>
      <trkpt lat="46.368094151839614" lon="8.346745865419507">
        <ele>2502.54</ele>
        <time>2023-09-10T11:22:02Z</time>
      </trkpt>
      <trkpt lat="46.368123069405556" lon="8.346803449094296">
        <ele>2500.0500000000002</ele>
        <time>2023-09-10T11:22:14Z</time>
      </trkpt>
      <trkpt lat="46.368151064962149" lon="8.346857680007815">
        <ele>2497.3800000000001</ele>
        <time>2023-09-10T11:22:27Z</time>
      </trkpt>
      <trkpt lat="46.36813840828836" lon="8.346889112144709">
        <ele>2496.5799999999999</ele>
        <time>2023-09-10T11:22:41Z</time>
      </trkpt>
      <trkpt lat="46.368116782978177" lon="8.346909815445542">
        <ele>2496.1799999999998</ele>
        <time>2023-09-10T11:23:02Z</time>
      </trkpt>
      <trkpt lat="46.36815994977951" lon="8.346941499039531">
        <ele>2494.7600000000002</ele>
        <time>2023-09-10T11:23:16Z</time>
      </trkpt>
      <trkpt lat="46.368168080225587" lon="8.346975697204471">
        <ele>2493.79</ele>
        <time>2023-09-10T11:23:28Z</time>
      </trkpt>
      <trkpt lat="46.368210827931762" lon="8.347008135169745">
        <ele>2492.4699999999998</ele>
        <time>2023-09-10T11:23:41Z</time>
      </trkpt>
      <trkpt lat="46.368239410221577" lon="8.347062198445201">
        <ele>2490.3499999999999</ele>
        <time>2023-09-10T11:23:52Z</time>
      </trkpt>
      <trkpt lat="46.368267489597201" lon="8.347141575068235">
        <ele>2487.5700000000002</ele>
        <time>2023-09-10T11:24:04Z</time>
      </trkpt>
      <trkpt lat="46.368286851793528" lon="8.347192956134677">
        <ele>2485.1199999999999</ele>
        <time>2023-09-10T11:24:16Z</time>
      </trkpt>
      <trkpt lat="46.368342842906713" lon="8.347264537587762">
        <ele>2483.4099999999999</ele>
        <time>2023-09-10T11:24:28Z</time>
      </trkpt>
      <trkpt lat="46.368375616148114" lon="8.347306028008461">
        <ele>2482.29</ele>
        <time>2023-09-10T11:24:37Z</time>
      </trkpt>
      <trkpt lat="46.368416352197528" lon="8.347356654703617">
        <ele>2481.1100000000001</ele>
        <time>2023-09-10T11:24:56Z</time>
      </trkpt>
      <trkpt lat="46.368467733263969" lon="8.347404934465885">
        <ele>2478.9499999999998</ele>
        <time>2023-09-10T11:25:08Z</time>
      </trkpt>
      <trkpt lat="46.36852883733809" lon="8.347460841760039">
        <ele>2476.3600000000001</ele>
        <time>2023-09-10T11:25:21Z</time>
      </trkpt>
      <trkpt lat="46.368576195091009" lon="8.347503002732992">
        <ele>2474.1599999999999</ele>
        <time>2023-09-10T11:25:32Z</time>
      </trkpt>
      <trkpt lat="46.36859480291605" lon="8.347554719075561">
        <ele>2471.6500000000001</ele>
        <time>2023-09-10T11:25:42Z</time>
      </trkpt>
      <trkpt lat="46.368619110435247" lon="8.34762454032898">
        <ele>2469.5</ele>
        <time>2023-09-10T11:25:54Z</time>
      </trkpt>
      <trkpt lat="46.368648279458284" lon="8.34769444540143">
        <ele>2467.2600000000002</ele>
        <time>2023-09-10T11:26:06Z</time>
      </trkpt>
      <trkpt lat="46.368679795414209" lon="8.347772900015116">
        <ele>2465.2199999999998</ele>
        <time>2023-09-10T11:26:19Z</time>
      </trkpt>
      <trkpt lat="46.368663785979152" lon="8.347768876701593">
        <ele>2464.8600000000001</ele>
        <time>2023-09-10T11:26:35Z</time>
      </trkpt>
      <trkpt lat="46.368640903383493" lon="8.347778348252177">
        <ele>2462.7800000000002</ele>
        <time>2023-09-10T11:26:57Z</time>
      </trkpt>
      <trkpt lat="46.368639981374145" lon="8.347779856994748">
        <ele>2467.4699999999998</ele>
        <time>2023-09-10T11:27:01Z</time>
      </trkpt>
      <trkpt lat="46.368641071021557" lon="8.347778934985399">
        <ele>2466.1100000000001</ele>
        <time>2023-09-10T11:27:02Z</time>
      </trkpt>
      <trkpt lat="46.368687506765127" lon="8.347857389599085">
        <ele>2464.23</ele>
        <time>2023-09-10T11:27:14Z</time>
      </trkpt>
      <trkpt lat="46.368755400180817" lon="8.347978256642819">
        <ele>2462.2800000000002</ele>
        <time>2023-09-10T11:27:26Z</time>
      </trkpt>
      <trkpt lat="46.368787167593837" lon="8.348068529739976">
        <ele>2460.3800000000001</ele>
        <time>2023-09-10T11:27:35Z</time>
      </trkpt>
      <trkpt lat="46.368883056566119" lon="8.348183361813426">
        <ele>2457.8099999999999</ele>
        <time>2023-09-10T11:27:48Z</time>
      </trkpt>
      <trkpt lat="46.368969976902008" lon="8.348251255229116">
        <ele>2454.8800000000001</ele>
        <time>2023-09-10T11:28:00Z</time>
      </trkpt>
      <trkpt lat="46.368986405432224" lon="8.348272629082203">
        <ele>2454.0100000000002</ele>
        <time>2023-09-10T11:28:03Z</time>
      </trkpt>
      <trkpt lat="46.369068967178464" lon="8.34833306260407">
        <ele>2451.0700000000002</ele>
        <time>2023-09-10T11:28:15Z</time>
      </trkpt>
      <trkpt lat="46.369176842272282" lon="8.348386539146304">
        <ele>2448.7399999999998</ele>
        <time>2023-09-10T11:28:28Z</time>
      </trkpt>
      <trkpt lat="46.369271809235215" lon="8.348428113386035">
        <ele>2447.0300000000002</ele>
        <time>2023-09-10T11:28:40Z</time>
      </trkpt>
      <trkpt lat="46.369333751499653" lon="8.348477901890874">
        <ele>2444.9499999999998</ele>
        <time>2023-09-10T11:28:51Z</time>
      </trkpt>
      <trkpt lat="46.369417738169432" lon="8.348555183038116">
        <ele>2442.79</ele>
        <time>2023-09-10T11:29:04Z</time>
      </trkpt>
      <trkpt lat="46.369426706805825" lon="8.348561720922589">
        <ele>2442.4200000000001</ele>
        <time>2023-09-10T11:29:05Z</time>
      </trkpt>
      <trkpt lat="46.369437854737043" lon="8.348566330969334">
        <ele>2442.2600000000002</ele>
        <time>2023-09-10T11:29:06Z</time>
      </trkpt>
      <trkpt lat="46.369546232745051" lon="8.348633889108896">
        <ele>2440.5599999999999</ele>
        <time>2023-09-10T11:29:19Z</time>
      </trkpt>
      <trkpt lat="46.369590908288956" lon="8.348678480833769">
        <ele>2439.54</ele>
        <time>2023-09-10T11:29:30Z</time>
      </trkpt>
      <trkpt lat="46.369654107838869" lon="8.348722821101546">
        <ele>2437.9899999999998</ele>
        <time>2023-09-10T11:29:42Z</time>
      </trkpt>
      <trkpt lat="46.369703561067581" lon="8.348781662061811">
        <ele>2436.54</ele>
        <time>2023-09-10T11:29:53Z</time>
      </trkpt>
      <trkpt lat="46.369720995426178" lon="8.348794737830758">
        <ele>2436.3099999999999</ele>
        <time>2023-09-10T11:30:09Z</time>
      </trkpt>
      <trkpt lat="46.369775561615825" lon="8.348825415596366">
        <ele>2434.9400000000001</ele>
        <time>2023-09-10T11:30:18Z</time>
      </trkpt>
      <trkpt lat="46.369899697601795" lon="8.348909318447113">
        <ele>2433.5799999999999</ele>
        <time>2023-09-10T11:30:32Z</time>
      </trkpt>
      <trkpt lat="46.370010171085596" lon="8.348972853273153">
        <ele>2432.0300000000002</ele>
        <time>2023-09-10T11:30:46Z</time>
      </trkpt>
      <trkpt lat="46.370041770860553" lon="8.349032029509544">
        <ele>2431.1999999999998</ele>
        <time>2023-09-10T11:30:56Z</time>
      </trkpt>
      <trkpt lat="46.370092397555709" lon="8.349074358120561">
        <ele>2430.46</ele>
        <time>2023-09-10T11:31:10Z</time>
      </trkpt>
      <trkpt lat="46.370104802772403" lon="8.349076118320227">
        <ele>2430.3800000000001</ele>
        <time>2023-09-10T11:31:20Z</time>
      </trkpt>
      <trkpt lat="46.370145287364721" lon="8.349092546850443">
        <ele>2430.4299999999998</ele>
        <time>2023-09-10T11:31:31Z</time>
      </trkpt>
      <trkpt lat="46.370159033685923" lon="8.349105538800359">
        <ele>2429.7399999999998</ele>
        <time>2023-09-10T11:31:39Z</time>
      </trkpt>
      <trkpt lat="46.370146963745356" lon="8.349097324535251">
        <ele>2429.4699999999998</ele>
        <time>2023-09-10T11:31:59Z</time>
      </trkpt>
      <trkpt lat="46.370148556306958" lon="8.349103946238756">
        <ele>2429.6100000000001</ele>
        <time>2023-09-10T11:32:18Z</time>
      </trkpt>
      <trkpt lat="46.370149562135339" lon="8.34909975528717">
        <ele>2430.4000000000001</ele>
        <time>2023-09-10T11:32:30Z</time>
      </trkpt>
      <trkpt lat="46.370147466659546" lon="8.34910268895328">
        <ele>2430.2600000000002</ele>
        <time>2023-09-10T11:32:46Z</time>
      </trkpt>
      <trkpt lat="46.370188873261213" lon="8.349117692559958">
        <ele>2430.3400000000001</ele>
        <time>2023-09-10T11:32:58Z</time>
      </trkpt>
      <trkpt lat="46.370222484692931" lon="8.349137809127569">
        <ele>2430.0700000000002</ele>
        <time>2023-09-10T11:33:10Z</time>
      </trkpt>
      <trkpt lat="46.370247798040509" lon="8.349143341183662">
        <ele>2429.8600000000001</ele>
        <time>2023-09-10T11:33:27Z</time>
      </trkpt>
      <trkpt lat="46.370284594595432" lon="8.349162871018052">
        <ele>2429.5700000000002</ele>
        <time>2023-09-10T11:33:31Z</time>
      </trkpt>
      <trkpt lat="46.370295993983746" lon="8.349164966493845">
        <ele>2429.5</ele>
        <time>2023-09-10T11:33:32Z</time>
      </trkpt>
      <trkpt lat="46.370306806638837" lon="8.349169492721558">
        <ele>2429.46</ele>
        <time>2023-09-10T11:33:33Z</time>
      </trkpt>
      <trkpt lat="46.370318289846182" lon="8.349176198244095">
        <ele>2429.23</ele>
        <time>2023-09-10T11:33:34Z</time>
      </trkpt>
      <trkpt lat="46.37033186852932" lon="8.349181478843093">
        <ele>2429.0300000000002</ele>
        <time>2023-09-10T11:33:35Z</time>
      </trkpt>
      <trkpt lat="46.370369754731655" lon="8.349210228770971">
        <ele>2428.5900000000001</ele>
        <time>2023-09-10T11:33:39Z</time>
      </trkpt>
      <trkpt lat="46.370507134124637" lon="8.349344925954938">
        <ele>2426.3800000000001</ele>
        <time>2023-09-10T11:33:53Z</time>
      </trkpt>
      <trkpt lat="46.370524233207107" lon="8.349362779408693">
        <ele>2426.25</ele>
        <time>2023-09-10T11:33:55Z</time>
      </trkpt>
      <trkpt lat="46.370550217106938" lon="8.349381387233734">
        <ele>2425.75</ele>
        <time>2023-09-10T11:33:58Z</time>
      </trkpt>
      <trkpt lat="46.370557844638824" lon="8.349392451345921">
        <ele>2425.6999999999998</ele>
        <time>2023-09-10T11:33:59Z</time>
      </trkpt>
      <trkpt lat="46.370568154379725" lon="8.349401503801346">
        <ele>2425.4400000000001</ele>
        <time>2023-09-10T11:34:00Z</time>
      </trkpt>
      <trkpt lat="46.370722549036145" lon="8.349514659494162">
        <ele>2425.1999999999998</ele>
        <time>2023-09-10T11:34:15Z</time>
      </trkpt>
      <trkpt lat="46.370747946202755" lon="8.349531758576632">
        <ele>2425.1500000000001</ele>
        <time>2023-09-10T11:34:18Z</time>
      </trkpt>
      <trkpt lat="46.370756831020117" lon="8.349539134651423">
        <ele>2425</ele>
        <time>2023-09-10T11:34:19Z</time>
      </trkpt>
      <trkpt lat="46.370764626190066" lon="8.349561681970954">
        <ele>2424.5100000000002</ele>
        <time>2023-09-10T11:34:21Z</time>
      </trkpt>
      <trkpt lat="46.370761105790734" lon="8.349574506282806">
        <ele>2423.98</ele>
        <time>2023-09-10T11:34:22Z</time>
      </trkpt>
      <trkpt lat="46.370762949809432" lon="8.349611973389983">
        <ele>2423.4099999999999</ele>
        <time>2023-09-10T11:34:25Z</time>
      </trkpt>
      <trkpt lat="46.370766721665859" lon="8.349625719711185">
        <ele>2423.0599999999999</ele>
        <time>2023-09-10T11:34:26Z</time>
      </trkpt>
      <trkpt lat="46.3707887660712" lon="8.349667210131884">
        <ele>2422.5799999999999</ele>
        <time>2023-09-10T11:34:30Z</time>
      </trkpt>
      <trkpt lat="46.37087082490325" lon="8.349724290892482">
        <ele>2420.7800000000002</ele>
        <time>2023-09-10T11:34:41Z</time>
      </trkpt>
      <trkpt lat="46.370911058038473" lon="8.349796710535884">
        <ele>2421.8000000000002</ele>
        <time>2023-09-10T11:34:49Z</time>
      </trkpt>
      <trkpt lat="46.370932264253497" lon="8.349845325574279">
        <ele>2422.0999999999999</ele>
        <time>2023-09-10T11:35:03Z</time>
      </trkpt>
      <trkpt lat="46.370941987261176" lon="8.34987860172987">
        <ele>2421.6199999999999</ele>
        <time>2023-09-10T11:35:10Z</time>
      </trkpt>
      <trkpt lat="46.370980376377702" lon="8.349966444075108">
        <ele>2420.1599999999999</ele>
        <time>2023-09-10T11:35:18Z</time>
      </trkpt>
      <trkpt lat="46.370987584814429" lon="8.349978011101484">
        <ele>2419.75</ele>
        <time>2023-09-10T11:35:19Z</time>
      </trkpt>
      <trkpt lat="46.371013484895229" lon="8.350048754364252">
        <ele>2417.23</ele>
        <time>2023-09-10T11:35:25Z</time>
      </trkpt>
      <trkpt lat="46.371023962274194" lon="8.350056884810329">
        <ele>2416.9499999999998</ele>
        <time>2023-09-10T11:35:26Z</time>
      </trkpt>
      <trkpt lat="46.371034272015095" lon="8.3500652667135">
        <ele>2416.6999999999998</ele>
        <time>2023-09-10T11:35:27Z</time>
      </trkpt>
      <trkpt lat="46.371139716356993" lon="8.350208681076765">
        <ele>2415.25</ele>
        <time>2023-09-10T11:35:41Z</time>
      </trkpt>
      <trkpt lat="46.371278939768672" lon="8.350324435159564">
        <ele>2412.9099999999999</ele>
        <time>2023-09-10T11:35:56Z</time>
      </trkpt>
      <trkpt lat="46.371385809034109" lon="8.350476315245032">
        <ele>2411.8099999999999</ele>
        <time>2023-09-10T11:36:09Z</time>
      </trkpt>
      <trkpt lat="46.371437441557646" lon="8.350545549765229">
        <ele>2411.0900000000001</ele>
        <time>2023-09-10T11:36:16Z</time>
      </trkpt>
      <trkpt lat="46.371558392420411" lon="8.350626602768898">
        <ele>2409.2199999999998</ele>
        <time>2023-09-10T11:36:32Z</time>
      </trkpt>
      <trkpt lat="46.371581861749291" lon="8.350634146481752">
        <ele>2409.04</ele>
        <time>2023-09-10T11:36:35Z</time>
      </trkpt>
      <trkpt lat="46.371627375483513" lon="8.350632889196277">
        <ele>2408.3099999999999</ele>
        <time>2023-09-10T11:36:41Z</time>
      </trkpt>
      <trkpt lat="46.371637769043446" lon="8.350637080147862">
        <ele>2408.1199999999999</ele>
        <time>2023-09-10T11:36:42Z</time>
      </trkpt>
      <trkpt lat="46.371647324413061" lon="8.350644372403622">
        <ele>2407.8899999999999</ele>
        <time>2023-09-10T11:36:43Z</time>
      </trkpt>
      <trkpt lat="46.371654197573662" lon="8.350654933601618">
        <ele>2407.7199999999998</ele>
        <time>2023-09-10T11:36:44Z</time>
      </trkpt>
      <trkpt lat="46.37167900800705" lon="8.350692568346858">
        <ele>2407.46</ele>
        <time>2023-09-10T11:36:48Z</time>
      </trkpt>
      <trkpt lat="46.371689066290855" lon="8.350701201707125">
        <ele>2407.3400000000001</ele>
        <time>2023-09-10T11:36:49Z</time>
      </trkpt>
      <trkpt lat="46.371698789298534" lon="8.35071075707674">
        <ele>2407.3899999999999</ele>
        <time>2023-09-10T11:36:50Z</time>
      </trkpt>
      <trkpt lat="46.371714379638433" lon="8.350726347416639">
        <ele>2407.2600000000002</ele>
        <time>2023-09-10T11:36:52Z</time>
      </trkpt>
      <trkpt lat="46.371756624430418" lon="8.350783679634333">
        <ele>2407.0999999999999</ele>
        <time>2023-09-10T11:36:58Z</time>
      </trkpt>
      <trkpt lat="46.371854105964303" lon="8.350934134796262">
        <ele>2405.9899999999998</ele>
        <time>2023-09-10T11:37:12Z</time>
      </trkpt>
      <trkpt lat="46.371983019635081" lon="8.351080063730478">
        <ele>2404.1700000000001</ele>
        <time>2023-09-10T11:37:28Z</time>
      </trkpt>
      <trkpt lat="46.372014284133911" lon="8.35109674371779">
        <ele>2404.0100000000002</ele>
        <time>2023-09-10T11:37:38Z</time>
      </trkpt>
      <trkpt lat="46.372023839503527" lon="8.351106802001596">
        <ele>2403.8899999999999</ele>
        <time>2023-09-10T11:37:55Z</time>
      </trkpt>
      <trkpt lat="46.372033813968301" lon="8.351119542494416">
        <ele>2403.48</ele>
        <time>2023-09-10T11:38:13Z</time>
      </trkpt>
      <trkpt lat="46.372079914435744" lon="8.35118274204433">
        <ele>2402.3499999999999</ele>
        <time>2023-09-10T11:38:24Z</time>
      </trkpt>
      <trkpt lat="46.372135737910867" lon="8.351228339597583">
        <ele>2400.3099999999999</ele>
        <time>2023-09-10T11:38:35Z</time>
      </trkpt>
      <trkpt lat="46.372197847813368" lon="8.351276870816946">
        <ele>2398.1399999999999</ele>
        <time>2023-09-10T11:38:46Z</time>
      </trkpt>
      <trkpt lat="46.37225903570652" lon="8.351322133094072">
        <ele>2395.0700000000002</ele>
        <time>2023-09-10T11:38:58Z</time>
      </trkpt>
      <trkpt lat="46.372319972142577" lon="8.351363874971867">
        <ele>2392.04</ele>
        <time>2023-09-10T11:39:09Z</time>
      </trkpt>
      <trkpt lat="46.372386859729886" lon="8.351395055651665">
        <ele>2388.9299999999998</ele>
        <time>2023-09-10T11:39:20Z</time>
      </trkpt>
      <trkpt lat="46.372414687648416" lon="8.351402180269361">
        <ele>2388.02</ele>
        <time>2023-09-10T11:39:24Z</time>
      </trkpt>
      <trkpt lat="46.372474450618029" lon="8.351420955732465">
        <ele>2386.0300000000002</ele>
        <time>2023-09-10T11:39:35Z</time>
      </trkpt>
      <trkpt lat="46.372555503621697" lon="8.351448113098741">
        <ele>2383.6900000000001</ele>
        <time>2023-09-10T11:39:47Z</time>
      </trkpt>
      <trkpt lat="46.372587438672781" lon="8.351444592699409">
        <ele>2383</ele>
        <time>2023-09-10T11:39:51Z</time>
      </trkpt>
      <trkpt lat="46.372599089518189" lon="8.351442832499743">
        <ele>2382.9299999999998</ele>
        <time>2023-09-10T11:39:52Z</time>
      </trkpt>
      <trkpt lat="46.372610153630376" lon="8.35144174285233">
        <ele>2382.8699999999999</ele>
        <time>2023-09-10T11:39:53Z</time>
      </trkpt>
      <trkpt lat="46.372621385380626" lon="8.351439395919442">
        <ele>2382.6199999999999</ele>
        <time>2023-09-10T11:39:54Z</time>
      </trkpt>
      <trkpt lat="46.372716519981623" lon="8.351469151675701">
        <ele>2380.8099999999999</ele>
        <time>2023-09-10T11:40:05Z</time>
      </trkpt>
      <trkpt lat="46.372790113091469" lon="8.351521454751492">
        <ele>2379.3099999999999</ele>
        <time>2023-09-10T11:40:16Z</time>
      </trkpt>
      <trkpt lat="46.372881140559912" lon="8.351566214114428">
        <ele>2377.3200000000002</ele>
        <time>2023-09-10T11:40:28Z</time>
      </trkpt>
      <trkpt lat="46.372908214107156" lon="8.351576775312424">
        <ele>2376.79</ele>
        <time>2023-09-10T11:40:31Z</time>
      </trkpt>
      <trkpt lat="46.373027069494128" lon="8.351622791960836">
        <ele>2374.0700000000002</ele>
        <time>2023-09-10T11:40:45Z</time>
      </trkpt>
      <trkpt lat="46.373109547421336" lon="8.351636538282037">
        <ele>2372.98</ele>
        <time>2023-09-10T11:40:56Z</time>
      </trkpt>
      <trkpt lat="46.373140979558229" lon="8.351661264896393">
        <ele>2372.3600000000001</ele>
        <time>2023-09-10T11:41:09Z</time>
      </trkpt>
      <trkpt lat="46.373156486079097" lon="8.351682554930449">
        <ele>2372.0599999999999</ele>
        <time>2023-09-10T11:41:31Z</time>
      </trkpt>
      <trkpt lat="46.373192444443703" lon="8.351695463061333">
        <ele>2371.54</ele>
        <time>2023-09-10T11:41:52Z</time>
      </trkpt>
      <trkpt lat="46.37320258654654" lon="8.351703258231282">
        <ele>2371.3899999999999</ele>
        <time>2023-09-10T11:41:53Z</time>
      </trkpt>
      <trkpt lat="46.373213147744536" lon="8.351710550487042">
        <ele>2371.1300000000001</ele>
        <time>2023-09-10T11:41:54Z</time>
      </trkpt>
      <trkpt lat="46.373240808025002" lon="8.351720189675689">
        <ele>2370.6999999999998</ele>
        <time>2023-09-10T11:41:57Z</time>
      </trkpt>
      <trkpt lat="46.373251704499125" lon="8.351720273494721">
        <ele>2370.6100000000001</ele>
        <time>2023-09-10T11:41:58Z</time>
      </trkpt>
      <trkpt lat="46.37339998036623" lon="8.35171633400023">
        <ele>2369.27</ele>
        <time>2023-09-10T11:42:12Z</time>
      </trkpt>
      <trkpt lat="46.373558398336172" lon="8.351628072559834">
        <ele>2368.1199999999999</ele>
        <time>2023-09-10T11:42:26Z</time>
      </trkpt>
      <trkpt lat="46.373671973124146" lon="8.351517096161842">
        <ele>2368.79</ele>
        <time>2023-09-10T11:42:38Z</time>
      </trkpt>
      <trkpt lat="46.373739279806614" lon="8.351416513323784">
        <ele>2368.0599999999999</ele>
        <time>2023-09-10T11:42:48Z</time>
      </trkpt>
      <trkpt lat="46.373763671144843" lon="8.351391451433301">
        <ele>2367.71</ele>
        <time>2023-09-10T11:42:51Z</time>
      </trkpt>
      <trkpt lat="46.373808179050684" lon="8.351345099508762">
        <ele>2366.8899999999999</ele>
        <time>2023-09-10T11:42:57Z</time>
      </trkpt>
      <trkpt lat="46.373881185427308" lon="8.351270165294409">
        <ele>2365.0999999999999</ele>
        <time>2023-09-10T11:43:07Z</time>
      </trkpt>
      <trkpt lat="46.37392234057188" lon="8.351216185837984">
        <ele>2363.8800000000001</ele>
        <time>2023-09-10T11:43:18Z</time>
      </trkpt>
      <trkpt lat="46.373936338350177" lon="8.351170504465699">
        <ele>2362.8400000000001</ele>
        <time>2023-09-10T11:43:23Z</time>
      </trkpt>
      <trkpt lat="46.373936757445335" lon="8.351155836135149">
        <ele>2362.6999999999998</ele>
        <time>2023-09-10T11:43:24Z</time>
      </trkpt>
      <trkpt lat="46.373940110206604" lon="8.351061204448342">
        <ele>2361.9000000000001</ele>
        <time>2023-09-10T11:43:32Z</time>
      </trkpt>
      <trkpt lat="46.373964417725801" lon="8.35096045397222">
        <ele>2361.0100000000002</ele>
        <time>2023-09-10T11:43:42Z</time>
      </trkpt>
      <trkpt lat="46.374003645032644" lon="8.350908318534493">
        <ele>2359.7399999999998</ele>
        <time>2023-09-10T11:43:49Z</time>
      </trkpt>
      <trkpt lat="46.374008255079389" lon="8.350893063470721">
        <ele>2359.4200000000001</ele>
        <time>2023-09-10T11:43:50Z</time>
      </trkpt>
      <trkpt lat="46.374042704701424" lon="8.350817207247019">
        <ele>2358.3099999999999</ele>
        <time>2023-09-10T11:44:00Z</time>
      </trkpt>
      <trkpt lat="46.374072628095746" lon="8.350731795653701">
        <ele>2357.3299999999999</ele>
        <time>2023-09-10T11:44:08Z</time>
      </trkpt>
      <trkpt lat="46.374122416600585" lon="8.35065795108676">
        <ele>2356.7800000000002</ele>
        <time>2023-09-10T11:44:20Z</time>
      </trkpt>
      <trkpt lat="46.374182850122452" lon="8.35064671933651">
        <ele>2354.5</ele>
        <time>2023-09-10T11:44:32Z</time>
      </trkpt>
      <trkpt lat="46.374198691919446" lon="8.35065359249711">
        <ele>2353.6799999999998</ele>
        <time>2023-09-10T11:44:46Z</time>
      </trkpt>
      <trkpt lat="46.374259125441313" lon="8.350629368796945">
        <ele>2351.8200000000002</ele>
        <time>2023-09-10T11:45:01Z</time>
      </trkpt>
      <trkpt lat="46.374316457659006" lon="8.350628614425659">
        <ele>2351.04</ele>
        <time>2023-09-10T11:45:12Z</time>
      </trkpt>
      <trkpt lat="46.374381417408586" lon="8.350646551698446">
        <ele>2349.21</ele>
        <time>2023-09-10T11:45:27Z</time>
      </trkpt>
      <trkpt lat="46.374434726312757" lon="8.350647473707795">
        <ele>2348.52</ele>
        <time>2023-09-10T11:45:50Z</time>
      </trkpt>
      <trkpt lat="46.374504463747144" lon="8.350613610818982">
        <ele>2347.8000000000002</ele>
        <time>2023-09-10T11:46:02Z</time>
      </trkpt>
      <trkpt lat="46.374578308314085" lon="8.350600870326161">
        <ele>2348.8699999999999</ele>
        <time>2023-09-10T11:46:16Z</time>
      </trkpt>
      <trkpt lat="46.374623402953148" lon="8.35061201825738">
        <ele>2349.4200000000001</ele>
        <time>2023-09-10T11:46:28Z</time>
      </trkpt>
      <trkpt lat="46.374662965536118" lon="8.350632470101118">
        <ele>2349.5599999999999</ele>
        <time>2023-09-10T11:46:38Z</time>
      </trkpt>
      <trkpt lat="46.374704958871007" lon="8.350659795105457">
        <ele>2347.4899999999998</ele>
        <time>2023-09-10T11:46:50Z</time>
      </trkpt>
      <trkpt lat="46.374738235026598" lon="8.350654514506459">
        <ele>2346.8600000000001</ele>
        <time>2023-09-10T11:47:06Z</time>
      </trkpt>
      <trkpt lat="46.374802859500051" lon="8.350646132603288">
        <ele>2345.9400000000001</ele>
        <time>2023-09-10T11:47:16Z</time>
      </trkpt>
      <trkpt lat="46.374901933595538" lon="8.350603636354208">
        <ele>2344.4899999999998</ele>
        <time>2023-09-10T11:47:32Z</time>
      </trkpt>
      <trkpt lat="46.374941747635603" lon="8.350541274994612">
        <ele>2343.6599999999999</ele>
        <time>2023-09-10T11:47:44Z</time>
      </trkpt>
      <trkpt lat="46.375005701556802" lon="8.350503640249372">
        <ele>2342.79</ele>
        <time>2023-09-10T11:47:53Z</time>
      </trkpt>
      <trkpt lat="46.375056328251958" lon="8.350405152887106">
        <ele>2343.1999999999998</ele>
        <time>2023-09-10T11:48:05Z</time>
      </trkpt>
      <trkpt lat="46.375107625499368" lon="8.350339019671083">
        <ele>2343.96</ele>
        <time>2023-09-10T11:48:17Z</time>
      </trkpt>
      <trkpt lat="46.375178620219231" lon="8.350325021892786">
        <ele>2343.77</ele>
        <time>2023-09-10T11:48:30Z</time>
      </trkpt>
      <trkpt lat="46.375257326290011" lon="8.350344467908144">
        <ele>2343.8499999999999</ele>
        <time>2023-09-10T11:48:43Z</time>
      </trkpt>
      <trkpt lat="46.375297056511045" lon="8.350242963060737">
        <ele>2342.04</ele>
        <time>2023-09-10T11:48:58Z</time>
      </trkpt>
      <trkpt lat="46.375331338495016" lon="8.350198958069086">
        <ele>2340.5100000000002</ele>
        <time>2023-09-10T11:49:13Z</time>
      </trkpt>
      <trkpt lat="46.375367045402527" lon="8.350157300010324">
        <ele>2339.4099999999999</ele>
        <time>2023-09-10T11:49:23Z</time>
      </trkpt>
      <trkpt lat="46.375396298244596" lon="8.350117234513164">
        <ele>2338.5500000000002</ele>
        <time>2023-09-10T11:49:29Z</time>
      </trkpt>
      <trkpt lat="46.375405769795179" lon="8.350109774619341">
        <ele>2338.5700000000002</ele>
        <time>2023-09-10T11:49:30Z</time>
      </trkpt>
      <trkpt lat="46.375483134761453" lon="8.350026542320848">
        <ele>2336.5700000000002</ele>
        <time>2023-09-10T11:49:43Z</time>
      </trkpt>
      <trkpt lat="46.375571144744754" lon="8.349990751594305">
        <ele>2336.0700000000002</ele>
        <time>2023-09-10T11:49:55Z</time>
      </trkpt>
      <trkpt lat="46.375688910484314" lon="8.349952530115843">
        <ele>2334.8099999999999</ele>
        <time>2023-09-10T11:50:11Z</time>
      </trkpt>
      <trkpt lat="46.375764263793826" lon="8.349906262010336">
        <ele>2331.9099999999999</ele>
        <time>2023-09-10T11:50:26Z</time>
      </trkpt>
      <trkpt lat="46.375823691487312" lon="8.349895449355245">
        <ele>2330.2399999999998</ele>
        <time>2023-09-10T11:50:38Z</time>
      </trkpt>
      <trkpt lat="46.375914132222533" lon="8.349915985018015">
        <ele>2328.73</ele>
        <time>2023-09-10T11:50:51Z</time>
      </trkpt>
      <trkpt lat="46.375933159142733" lon="8.349916571751237">
        <ele>2328.3499999999999</ele>
        <time>2023-09-10T11:50:53Z</time>
      </trkpt>
      <trkpt lat="46.375943552702665" lon="8.349915146827698">
        <ele>2328.0599999999999</ele>
        <time>2023-09-10T11:50:54Z</time>
      </trkpt>
      <trkpt lat="46.3760488294065" lon="8.349911626428366">
        <ele>2326.9899999999998</ele>
        <time>2023-09-10T11:51:08Z</time>
      </trkpt>
      <trkpt lat="46.376114375889301" lon="8.349863095209003">
        <ele>2325.0300000000002</ele>
        <time>2023-09-10T11:51:20Z</time>
      </trkpt>
      <trkpt lat="46.376147568225861" lon="8.349807942286134">
        <ele>2323.7399999999998</ele>
        <time>2023-09-10T11:51:34Z</time>
      </trkpt>
      <trkpt lat="46.376214036718011" lon="8.349707359448075">
        <ele>2322</ele>
        <time>2023-09-10T11:51:49Z</time>
      </trkpt>
      <trkpt lat="46.376215796917677" lon="8.349628988653421">
        <ele>2320.4200000000001</ele>
        <time>2023-09-10T11:52:00Z</time>
      </trkpt>
      <trkpt lat="46.37622912414372" lon="8.349559167400003">
        <ele>2318.71</ele>
        <time>2023-09-10T11:52:10Z</time>
      </trkpt>
      <trkpt lat="46.376253683120012" lon="8.349500074982643">
        <ele>2316.8899999999999</ele>
        <time>2023-09-10T11:52:18Z</time>
      </trkpt>
      <trkpt lat="46.376313026994467" lon="8.349433019757271">
        <ele>2315.1399999999999</ele>
        <time>2023-09-10T11:52:28Z</time>
      </trkpt>
      <trkpt lat="46.376360971480608" lon="8.349399073049426">
        <ele>2313.52</ele>
        <time>2023-09-10T11:52:40Z</time>
      </trkpt>
      <trkpt lat="46.376441270112991" lon="8.349390523508191">
        <ele>2312.21</ele>
        <time>2023-09-10T11:52:51Z</time>
      </trkpt>
      <trkpt lat="46.376512097194791" lon="8.349335789680481">
        <ele>2309.0500000000002</ele>
        <time>2023-09-10T11:53:03Z</time>
      </trkpt>
      <trkpt lat="46.376560293138027" lon="8.349291114136577">
        <ele>2307.02</ele>
        <time>2023-09-10T11:53:15Z</time>
      </trkpt>
      <trkpt lat="46.376591641455889" lon="8.349220706149936">
        <ele>2304.79</ele>
        <time>2023-09-10T11:53:25Z</time>
      </trkpt>
      <trkpt lat="46.376598514616489" lon="8.349161026999354">
        <ele>2304.2199999999998</ele>
        <time>2023-09-10T11:53:37Z</time>
      </trkpt>
      <trkpt lat="46.37666791677475" lon="8.349109310656786">
        <ele>2301</ele>
        <time>2023-09-10T11:53:51Z</time>
      </trkpt>
      <trkpt lat="46.376697588711977" lon="8.349105203524232">
        <ele>2300.1599999999999</ele>
        <time>2023-09-10T11:53:54Z</time>
      </trkpt>
      <trkpt lat="46.376708569005132" lon="8.349106796085835">
        <ele>2300.0500000000002</ele>
        <time>2023-09-10T11:53:55Z</time>
      </trkpt>
      <trkpt lat="46.376829519867897" lon="8.349168319255114">
        <ele>2297.8299999999999</ele>
        <time>2023-09-10T11:54:09Z</time>
      </trkpt>
      <trkpt lat="46.376925827935338" lon="8.34918818436563">
        <ele>2296.1799999999998</ele>
        <time>2023-09-10T11:54:21Z</time>
      </trkpt>
      <trkpt lat="46.37696648016572" lon="8.34916228428483">
        <ele>2295.7800000000002</ele>
        <time>2023-09-10T11:54:26Z</time>
      </trkpt>
      <trkpt lat="46.37697821483016" lon="8.349157087504864">
        <ele>2295.8499999999999</ele>
        <time>2023-09-10T11:54:27Z</time>
      </trkpt>
      <trkpt lat="46.376989614218473" lon="8.349155075848103">
        <ele>2295.8200000000002</ele>
        <time>2023-09-10T11:54:28Z</time>
      </trkpt>
      <trkpt lat="46.37700118124485" lon="8.34915591403842">
        <ele>2295.8499999999999</ele>
        <time>2023-09-10T11:54:29Z</time>
      </trkpt>
      <trkpt lat="46.377093130722642" lon="8.349152142181993">
        <ele>2295.0599999999999</ele>
        <time>2023-09-10T11:54:41Z</time>
      </trkpt>
      <trkpt lat="46.377146020531654" lon="8.349130349233747">
        <ele>2293.54</ele>
        <time>2023-09-10T11:54:51Z</time>
      </trkpt>
      <trkpt lat="46.377208633348346" lon="8.349106963723898">
        <ele>2292.3899999999999</ele>
        <time>2023-09-10T11:55:00Z</time>
      </trkpt>
      <trkpt lat="46.377226486802101" lon="8.349095229059458">
        <ele>2291.8699999999999</ele>
        <time>2023-09-10T11:55:02Z</time>
      </trkpt>
      <trkpt lat="46.377292200922966" lon="8.349108304828405">
        <ele>2290.1999999999998</ele>
        <time>2023-09-10T11:55:13Z</time>
      </trkpt>
      <trkpt lat="46.377343917265534" lon="8.349145101383328">
        <ele>2288.3800000000001</ele>
        <time>2023-09-10T11:55:24Z</time>
      </trkpt>
      <trkpt lat="46.377398651093245" lon="8.349146693944931">
        <ele>2286.4000000000001</ele>
        <time>2023-09-10T11:55:36Z</time>
      </trkpt>
      <trkpt lat="46.377455731853843" lon="8.34914811886847">
        <ele>2284.1399999999999</ele>
        <time>2023-09-10T11:55:47Z</time>
      </trkpt>
      <trkpt lat="46.377517841756344" lon="8.349080141633749">
        <ele>2281.8200000000002</ele>
        <time>2023-09-10T11:55:59Z</time>
      </trkpt>
      <trkpt lat="46.377608282491565" lon="8.349087182432413">
        <ele>2280.2199999999998</ele>
        <time>2023-09-10T11:56:12Z</time>
      </trkpt>
      <trkpt lat="46.377623789012432" lon="8.349097911268473">
        <ele>2279.9899999999998</ele>
        <time>2023-09-10T11:56:14Z</time>
      </trkpt>
      <trkpt lat="46.377632254734635" lon="8.349108640104532">
        <ele>2279.9200000000001</ele>
        <time>2023-09-10T11:56:15Z</time>
      </trkpt>
      <trkpt lat="46.377666285261512" lon="8.349147951230407">
        <ele>2279.3899999999999</ele>
        <time>2023-09-10T11:56:20Z</time>
      </trkpt>
      <trkpt lat="46.377724120393395" lon="8.349219616502523">
        <ele>2278.98</ele>
        <time>2023-09-10T11:56:29Z</time>
      </trkpt>
      <trkpt lat="46.377789666876197" lon="8.349291365593672">
        <ele>2278.1900000000001</ele>
        <time>2023-09-10T11:56:40Z</time>
      </trkpt>
      <trkpt lat="46.377848843112588" lon="8.349299663677812">
        <ele>2276.1900000000001</ele>
        <time>2023-09-10T11:56:53Z</time>
      </trkpt>
      <trkpt lat="46.377947330474854" lon="8.349304692819715">
        <ele>2275.4299999999998</ele>
        <time>2023-09-10T11:57:05Z</time>
      </trkpt>
      <trkpt lat="46.378012290224433" lon="8.349254401400685">
        <ele>2274.21</ele>
        <time>2023-09-10T11:57:16Z</time>
      </trkpt>
      <trkpt lat="46.378020169213414" lon="8.34926194511354">
        <ele>2274.1799999999998</ele>
        <time>2023-09-10T11:57:34Z</time>
      </trkpt>
      <trkpt lat="46.378059312701225" lon="8.34930595010519">
        <ele>2273.0500000000002</ele>
        <time>2023-09-10T11:57:46Z</time>
      </trkpt>
      <trkpt lat="46.37805663049221" lon="8.349304692819715">
        <ele>2272.8800000000001</ele>
        <time>2023-09-10T11:58:08Z</time>
      </trkpt>
      <trkpt lat="46.378058474510908" lon="8.349306955933571">
        <ele>2273.1300000000001</ele>
        <time>2023-09-10T11:58:23Z</time>
      </trkpt>
      <trkpt lat="46.378039950504899" lon="8.349305866286159">
        <ele>2272.9400000000001</ele>
        <time>2023-09-10T11:58:37Z</time>
      </trkpt>
      <trkpt lat="46.378086553886533" lon="8.349335035309196">
        <ele>2272.8400000000001</ele>
        <time>2023-09-10T11:58:56Z</time>
      </trkpt>
      <trkpt lat="46.378153022378683" lon="8.349395049735904">
        <ele>2273.3000000000002</ele>
        <time>2023-09-10T11:59:09Z</time>
      </trkpt>
      <trkpt lat="46.378206163644791" lon="8.349422458559275">
        <ele>2272.8499999999999</ele>
        <time>2023-09-10T11:59:21Z</time>
      </trkpt>
      <trkpt lat="46.378223346546292" lon="8.349435785785317">
        <ele>2272.77</ele>
        <time>2023-09-10T11:59:34Z</time>
      </trkpt>
      <trkpt lat="46.378228459507227" lon="8.349425895139575">
        <ele>2271.3600000000001</ele>
        <time>2023-09-10T11:59:52Z</time>
      </trkpt>
      <trkpt lat="46.378266764804721" lon="8.349445257335901">
        <ele>2272.25</ele>
        <time>2023-09-10T12:00:08Z</time>
      </trkpt>
      <trkpt lat="46.378350919112563" lon="8.349499069154263">
        <ele>2272.1900000000001</ele>
        <time>2023-09-10T12:00:22Z</time>
      </trkpt>
      <trkpt lat="46.37838645838201" lon="8.349488591775298">
        <ele>2272.25</ele>
        <time>2023-09-10T12:00:27Z</time>
      </trkpt>
      <trkpt lat="46.37839668430388" lon="8.349483730271459">
        <ele>2272.3099999999999</ele>
        <time>2023-09-10T12:00:28Z</time>
      </trkpt>
      <trkpt lat="46.37840649113059" lon="8.349483227357268">
        <ele>2272.29</ele>
        <time>2023-09-10T12:00:29Z</time>
      </trkpt>
      <trkpt lat="46.378415711224079" lon="8.349486580118537">
        <ele>2272.27</ele>
        <time>2023-09-10T12:00:30Z</time>
      </trkpt>
      <trkpt lat="46.37848268263042" lon="8.349524298682809">
        <ele>2272.2399999999998</ele>
        <time>2023-09-10T12:00:40Z</time>
      </trkpt>
      <trkpt lat="46.378527358174324" lon="8.349547684192658">
        <ele>2272.1999999999998</ele>
        <time>2023-09-10T12:00:45Z</time>
      </trkpt>
      <trkpt lat="46.378618888556957" lon="8.349662348628044">
        <ele>2271.9099999999999</ele>
        <time>2023-09-10T12:00:57Z</time>
      </trkpt>
      <trkpt lat="46.378659289330244" lon="8.349815402179956">
        <ele>2272.21</ele>
        <time>2023-09-10T12:01:10Z</time>
      </trkpt>
      <trkpt lat="46.378680747002363" lon="8.349981028586626">
        <ele>2272</ele>
        <time>2023-09-10T12:01:23Z</time>
      </trkpt>
      <trkpt lat="46.378721985965967" lon="8.350136931985617">
        <ele>2272.4299999999998</ele>
        <time>2023-09-10T12:01:36Z</time>
      </trkpt>
      <trkpt lat="46.378752579912543" lon="8.350265342742205">
        <ele>2273.3400000000001</ele>
        <time>2023-09-10T12:01:49Z</time>
      </trkpt>
      <trkpt lat="46.378812845796347" lon="8.350353352725506">
        <ele>2272.48</ele>
        <time>2023-09-10T12:02:02Z</time>
      </trkpt>
      <trkpt lat="46.378817372024059" lon="8.350387550890446">
        <ele>2271.1799999999998</ele>
        <time>2023-09-10T12:03:16Z</time>
      </trkpt>
      <trkpt lat="46.378871435299516" lon="8.350409511476755">
        <ele>2270.7399999999998</ele>
        <time>2023-09-10T12:03:27Z</time>
      </trkpt>
      <trkpt lat="46.378856264054775" lon="8.35048159584403">
        <ele>2271.1999999999998</ele>
        <time>2023-09-10T12:03:33Z</time>
      </trkpt>
      <trkpt lat="46.378850312903523" lon="8.350495090708137">
        <ele>2271.1399999999999</ele>
        <time>2023-09-10T12:03:34Z</time>
      </trkpt>
      <trkpt lat="46.378832375630736" lon="8.350551752373576">
        <ele>2271.02</ele>
        <time>2023-09-10T12:03:38Z</time>
      </trkpt>
      <trkpt lat="46.378808906301856" lon="8.350677648559213">
        <ele>2271.0900000000001</ele>
        <time>2023-09-10T12:03:50Z</time>
      </trkpt>
      <trkpt lat="46.378838494420052" lon="8.350750571116805">
        <ele>2271.3699999999999</ele>
        <time>2023-09-10T12:04:08Z</time>
      </trkpt>
      <trkpt lat="46.378894653171301" lon="8.350808154791594">
        <ele>2272.7399999999998</ele>
        <time>2023-09-10T12:04:19Z</time>
      </trkpt>
      <trkpt lat="46.378908148035407" lon="8.350842772051692">
        <ele>2272.5100000000002</ele>
        <time>2023-09-10T12:04:22Z</time>
      </trkpt>
      <trkpt lat="46.378970593214035" lon="8.350962549448013">
        <ele>2273.27</ele>
        <time>2023-09-10T12:04:36Z</time>
      </trkpt>
      <trkpt lat="46.379031529650092" lon="8.351015606895089">
        <ele>2271.1399999999999</ele>
        <time>2023-09-10T12:04:48Z</time>
      </trkpt>
      <trkpt lat="46.379063129425049" lon="8.351059528067708">
        <ele>2270.6100000000001</ele>
        <time>2023-09-10T12:05:00Z</time>
      </trkpt>
      <trkpt lat="46.379071343690157" lon="8.351116860285401">
        <ele>2270.0100000000002</ele>
        <time>2023-09-10T12:05:06Z</time>
      </trkpt>
      <trkpt lat="46.379092717543244" lon="8.351143766194582">
        <ele>2269.3299999999999</ele>
        <time>2023-09-10T12:05:17Z</time>
      </trkpt>
      <trkpt lat="46.3791140075773" lon="8.351152567192912">
        <ele>2269.4699999999998</ele>
        <time>2023-09-10T12:05:28Z</time>
      </trkpt>
      <trkpt lat="46.379123562946916" lon="8.351226914674044">
        <ele>2270.8600000000001</ele>
        <time>2023-09-10T12:05:39Z</time>
      </trkpt>
      <trkpt lat="46.379152145236731" lon="8.35129857994616">
        <ele>2271.0100000000002</ele>
        <time>2023-09-10T12:05:51Z</time>
      </trkpt>
      <trkpt lat="46.379166059195995" lon="8.351378124207258">
        <ele>2269.8000000000002</ele>
        <time>2023-09-10T12:06:00Z</time>
      </trkpt>
      <trkpt lat="46.379171758890152" lon="8.351392121985555">
        <ele>2269.46</ele>
        <time>2023-09-10T12:06:01Z</time>
      </trkpt>
      <trkpt lat="46.379178129136562" lon="8.351403186097741">
        <ele>2269.4899999999998</ele>
        <time>2023-09-10T12:06:02Z</time>
      </trkpt>
      <trkpt lat="46.379252225160599" lon="8.351514162495732">
        <ele>2270.3000000000002</ele>
        <time>2023-09-10T12:06:15Z</time>
      </trkpt>
      <trkpt lat="46.379306204617023" lon="8.351577194407582">
        <ele>2270.0500000000002</ele>
        <time>2023-09-10T12:06:24Z</time>
      </trkpt>
      <trkpt lat="46.379334032535553" lon="8.351633604615927">
        <ele>2269.48</ele>
        <time>2023-09-10T12:06:30Z</time>
      </trkpt>
      <trkpt lat="46.379357920959592" lon="8.351724967360497">
        <ele>2268.6900000000001</ele>
        <time>2023-09-10T12:06:40Z</time>
      </trkpt>
      <trkpt lat="46.379351047798991" lon="8.351822784170508">
        <ele>2267.1399999999999</ele>
        <time>2023-09-10T12:06:49Z</time>
      </trkpt>
      <trkpt lat="46.379323052242398" lon="8.351976424455643">
        <ele>2264.1300000000001</ele>
        <time>2023-09-10T12:06:57Z</time>
      </trkpt>
      <trkpt lat="46.379325734451413" lon="8.351993355900049">
        <ele>2263.9200000000001</ele>
        <time>2023-09-10T12:06:58Z</time>
      </trkpt>
      <trkpt lat="46.379330679774284" lon="8.352124867960811">
        <ele>2260.71</ele>
        <time>2023-09-10T12:07:09Z</time>
      </trkpt>
      <trkpt lat="46.379302097484469" lon="8.35217172279954">
        <ele>2258.54</ele>
        <time>2023-09-10T12:07:21Z</time>
      </trkpt>
      <trkpt lat="46.379306456074119" lon="8.352180020883679">
        <ele>2258.8899999999999</ele>
        <time>2023-09-10T12:07:42Z</time>
      </trkpt>
      <trkpt lat="46.379286674782634" lon="8.352216649800539">
        <ele>2257.9499999999998</ele>
        <time>2023-09-10T12:07:46Z</time>
      </trkpt>
      <trkpt lat="46.379316262900829" lon="8.352284040302038">
        <ele>2256.5</ele>
        <time>2023-09-10T12:11:54Z</time>
      </trkpt>
      <trkpt lat="46.379360435530543" lon="8.352312538772821">
        <ele>2256.1999999999998</ele>
        <time>2023-09-10T12:12:03Z</time>
      </trkpt>
      <trkpt lat="46.379396226257086" lon="8.352395687252283">
        <ele>2253.79</ele>
        <time>2023-09-10T12:12:15Z</time>
      </trkpt>
      <trkpt lat="46.37943796813488" lon="8.352470034733415">
        <ele>2252.3899999999999</ele>
        <time>2023-09-10T12:12:25Z</time>
      </trkpt>
      <trkpt lat="46.379476776346564" lon="8.352537006139755">
        <ele>2251.4699999999998</ele>
        <time>2023-09-10T12:12:32Z</time>
      </trkpt>
      <trkpt lat="46.379522206261754" lon="8.352670948952436">
        <ele>2249.4200000000001</ele>
        <time>2023-09-10T12:12:45Z</time>
      </trkpt>
      <trkpt lat="46.379538467153907" lon="8.352748230099678">
        <ele>2248.2600000000002</ele>
        <time>2023-09-10T12:12:52Z</time>
      </trkpt>
      <trkpt lat="46.379563780501485" lon="8.352825930342078">
        <ele>2247.3200000000002</ele>
        <time>2023-09-10T12:12:58Z</time>
      </trkpt>
      <trkpt lat="46.379590518772602" lon="8.352970601990819">
        <ele>2244.9699999999998</ele>
        <time>2023-09-10T12:13:11Z</time>
      </trkpt>
      <trkpt lat="46.379645671695471" lon="8.353091804310679">
        <ele>2243.0500000000002</ele>
        <time>2023-09-10T12:13:22Z</time>
      </trkpt>
      <trkpt lat="46.379662016406655" lon="8.353159362450242">
        <ele>2241.9699999999998</ele>
        <time>2023-09-10T12:13:28Z</time>
      </trkpt>
      <trkpt lat="46.37966763228178" lon="8.353175623342395">
        <ele>2241.8699999999999</ele>
        <time>2023-09-10T12:13:29Z</time>
      </trkpt>
      <trkpt lat="46.379717672243714" lon="8.353386512026191">
        <ele>2238.8299999999999</ele>
        <time>2023-09-10T12:13:43Z</time>
      </trkpt>
      <trkpt lat="46.379779782146215" lon="8.353548031300306">
        <ele>2236.1300000000001</ele>
        <time>2023-09-10T12:13:55Z</time>
      </trkpt>
      <trkpt lat="46.379836276173592" lon="8.353750118985772">
        <ele>2234.1900000000001</ele>
        <time>2023-09-10T12:14:09Z</time>
      </trkpt>
      <trkpt lat="46.379876006394625" lon="8.353826478123665">
        <ele>2234</ele>
        <time>2023-09-10T12:14:18Z</time>
      </trkpt>
      <trkpt lat="46.379880364984274" lon="8.353840224444866">
        <ele>2233.9200000000001</ele>
        <time>2023-09-10T12:14:19Z</time>
      </trkpt>
      <trkpt lat="46.379944570362568" lon="8.354045497253537">
        <ele>2231.3299999999999</ele>
        <time>2023-09-10T12:14:33Z</time>
      </trkpt>
      <trkpt lat="46.379972063004971" lon="8.354226630181074">
        <ele>2230.25</ele>
        <time>2023-09-10T12:14:44Z</time>
      </trkpt>
      <trkpt lat="46.380004836246371" lon="8.354387059807777">
        <ele>2230.23</ele>
        <time>2023-09-10T12:14:54Z</time>
      </trkpt>
      <trkpt lat="46.380051858723164" lon="8.354609431698918">
        <ele>2229.7199999999998</ele>
        <time>2023-09-10T12:15:08Z</time>
      </trkpt>
      <trkpt lat="46.380084799602628" lon="8.354682521894574">
        <ele>2231.4299999999998</ele>
        <time>2023-09-10T12:15:19Z</time>
      </trkpt>
      <trkpt lat="46.380080357193947" lon="8.354776566848159">
        <ele>2230.8899999999999</ele>
        <time>2023-09-10T12:15:29Z</time>
      </trkpt>
      <trkpt lat="46.380079099908471" lon="8.354794671759009">
        <ele>2230.8400000000001</ele>
        <time>2023-09-10T12:15:30Z</time>
      </trkpt>
      <trkpt lat="46.380079183727503" lon="8.354811184108257">
        <ele>2230.5300000000002</ele>
        <time>2023-09-10T12:15:31Z</time>
      </trkpt>
      <trkpt lat="46.380087314173579" lon="8.354866588488221">
        <ele>2228.5900000000001</ele>
        <time>2023-09-10T12:15:36Z</time>
      </trkpt>
      <trkpt lat="46.380083961412311" lon="8.354908246546984">
        <ele>2227.5599999999999</ele>
        <time>2023-09-10T12:15:39Z</time>
      </trkpt>
      <trkpt lat="46.380086224526167" lon="8.35493884049356">
        <ele>2226.9099999999999</ele>
        <time>2023-09-10T12:15:41Z</time>
      </trkpt>
      <trkpt lat="46.380089074373245" lon="8.354956023395062">
        <ele>2226.5</ele>
        <time>2023-09-10T12:15:42Z</time>
      </trkpt>
      <trkpt lat="46.380093852058053" lon="8.354974798858166">
        <ele>2226.1399999999999</ele>
        <time>2023-09-10T12:15:43Z</time>
      </trkpt>
      <trkpt lat="46.380097456276417" lon="8.354995166882873">
        <ele>2226.1599999999999</ele>
        <time>2023-09-10T12:15:44Z</time>
      </trkpt>
      <trkpt lat="46.38012838549912" lon="8.355117291212082">
        <ele>2225.0999999999999</ele>
        <time>2023-09-10T12:15:57Z</time>
      </trkpt>
      <trkpt lat="46.380127379670739" lon="8.355165235698223">
        <ele>2224.3400000000001</ele>
        <time>2023-09-10T12:16:01Z</time>
      </trkpt>
      <trkpt lat="46.380127212032676" lon="8.355179568752646">
        <ele>2224</ele>
        <time>2023-09-10T12:16:02Z</time>
      </trkpt>
      <trkpt lat="46.380128804594278" lon="8.355195242911577">
        <ele>2223.6999999999998</ele>
        <time>2023-09-10T12:16:03Z</time>
      </trkpt>
      <trkpt lat="46.380132576450706" lon="8.355212425813079">
        <ele>2223.4200000000001</ele>
        <time>2023-09-10T12:16:04Z</time>
      </trkpt>
      <trkpt lat="46.380138276144862" lon="8.355229524895549">
        <ele>2223.1100000000001</ele>
        <time>2023-09-10T12:16:05Z</time>
      </trkpt>
      <trkpt lat="46.380162751302123" lon="8.355291718617082">
        <ele>2223.54</ele>
        <time>2023-09-10T12:16:15Z</time>
      </trkpt>
      <trkpt lat="46.380161745473742" lon="8.355299765244126">
        <ele>2223.3600000000001</ele>
        <time>2023-09-10T12:16:32Z</time>
      </trkpt>
      <trkpt lat="46.380171803757548" lon="8.355323150753975">
        <ele>2223.3099999999999</ele>
        <time>2023-09-10T12:16:35Z</time>
      </trkpt>
      <trkpt lat="46.380186136811972" lon="8.355379225686193">
        <ele>2223.21</ele>
        <time>2023-09-10T12:16:39Z</time>
      </trkpt>
      <trkpt lat="46.380231231451035" lon="8.355526411905885">
        <ele>2224.0599999999999</ele>
        <time>2023-09-10T12:16:50Z</time>
      </trkpt>
      <trkpt lat="46.38027498498559" lon="8.355642417445779">
        <ele>2223.8099999999999</ele>
        <time>2023-09-10T12:17:01Z</time>
      </trkpt>
      <trkpt lat="46.380273392423987" lon="8.355698576197028">
        <ele>2222.5599999999999</ele>
        <time>2023-09-10T12:17:10Z</time>
      </trkpt>
      <trkpt lat="46.380277751013637" lon="8.355720872059465">
        <ele>2221.6799999999998</ele>
        <time>2023-09-10T12:17:20Z</time>
      </trkpt>
      <trkpt lat="46.38028722256422" lon="8.355779210105538">
        <ele>2221.5999999999999</ele>
        <time>2023-09-10T12:17:37Z</time>
      </trkpt>
      <trkpt lat="46.380268866196275" lon="8.355874009430409">
        <ele>2219.5300000000002</ele>
        <time>2023-09-10T12:17:47Z</time>
      </trkpt>
      <trkpt lat="46.380272302776575" lon="8.355975514277816">
        <ele>2217.9400000000001</ele>
        <time>2023-09-10T12:17:56Z</time>
      </trkpt>
      <trkpt lat="46.380256460979581" lon="8.356055226176977">
        <ele>2215.8200000000002</ele>
        <time>2023-09-10T12:18:07Z</time>
      </trkpt>
      <trkpt lat="46.380264339968562" lon="8.356131166219711">
        <ele>2213.9699999999998</ele>
        <time>2023-09-10T12:18:14Z</time>
      </trkpt>
      <trkpt lat="46.380273643881083" lon="8.356159580871463">
        <ele>2213.4899999999998</ele>
        <time>2023-09-10T12:18:16Z</time>
      </trkpt>
      <trkpt lat="46.380280097946525" lon="8.356174416840076">
        <ele>2213.3699999999999</ele>
        <time>2023-09-10T12:18:17Z</time>
      </trkpt>
      <trkpt lat="46.38028571382165" lon="8.356188582256436">
        <ele>2213.1100000000001</ele>
        <time>2023-09-10T12:18:18Z</time>
      </trkpt>
      <trkpt lat="46.380362408235669" lon="8.356369296088815">
        <ele>2211.1900000000001</ele>
        <time>2023-09-10T12:18:31Z</time>
      </trkpt>
      <trkpt lat="46.380372801795602" lon="8.356414558365941">
        <ele>2210.5300000000002</ele>
        <time>2023-09-10T12:18:36Z</time>
      </trkpt>
      <trkpt lat="46.38037514872849" lon="8.35643358528614">
        <ele>2210.3600000000001</ele>
        <time>2023-09-10T12:18:37Z</time>
      </trkpt>
      <trkpt lat="46.38037757948041" lon="8.356454540044069">
        <ele>2210.2399999999998</ele>
        <time>2023-09-10T12:18:38Z</time>
      </trkpt>
      <trkpt lat="46.380380010232329" lon="8.356470633298159">
        <ele>2209.9499999999998</ele>
        <time>2023-09-10T12:18:39Z</time>
      </trkpt>
      <trkpt lat="46.380384871736169" lon="8.356486139819026">
        <ele>2209.8299999999999</ele>
        <time>2023-09-10T12:18:40Z</time>
      </trkpt>
      <trkpt lat="46.380389481782913" lon="8.356501813977957">
        <ele>2209.8899999999999</ele>
        <time>2023-09-10T12:18:41Z</time>
      </trkpt>
      <trkpt lat="46.380395516753197" lon="8.356515392661095">
        <ele>2209.7600000000002</ele>
        <time>2023-09-10T12:18:42Z</time>
      </trkpt>
      <trkpt lat="46.380459303036332" lon="8.356657549738884">
        <ele>2209.7399999999998</ele>
        <time>2023-09-10T12:18:53Z</time>
      </trkpt>
      <trkpt lat="46.380467349663377" lon="8.356666518375278">
        <ele>2209.8299999999999</ele>
        <time>2023-09-10T12:18:54Z</time>
      </trkpt>
      <trkpt lat="46.380474977195263" lon="8.356686802580953">
        <ele>2210</ele>
        <time>2023-09-10T12:18:56Z</time>
      </trkpt>
      <trkpt lat="46.380480425432324" lon="8.356700045987964">
        <ele>2210.1799999999998</ele>
        <time>2023-09-10T12:18:57Z</time>
      </trkpt>
      <trkpt lat="46.380548235028982" lon="8.356837090104818">
        <ele>2211.4899999999998</ele>
        <time>2023-09-10T12:19:09Z</time>
      </trkpt>
      <trkpt lat="46.380604142323136" lon="8.356973798945546">
        <ele>2211.8699999999999</ele>
        <time>2023-09-10T12:19:22Z</time>
      </trkpt>
      <trkpt lat="46.380683183670044" lon="8.357083015143871">
        <ele>2211.29</ele>
        <time>2023-09-10T12:19:35Z</time>
      </trkpt>
      <trkpt lat="46.380766918882728" lon="8.35719776339829">
        <ele>2211.3299999999999</ele>
        <time>2023-09-10T12:19:47Z</time>
      </trkpt>
      <trkpt lat="46.380775300785899" lon="8.357239840552211">
        <ele>2212.0999999999999</ele>
        <time>2023-09-10T12:19:59Z</time>
      </trkpt>
      <trkpt lat="46.380794998258352" lon="8.357273451983929">
        <ele>2212</ele>
        <time>2023-09-10T12:20:07Z</time>
      </trkpt>
      <trkpt lat="46.380809163674712" lon="8.357311254367232">
        <ele>2211.5700000000002</ele>
        <time>2023-09-10T12:20:19Z</time>
      </trkpt>
      <trkpt lat="46.380822323262691" lon="8.357349643483758">
        <ele>2210.9499999999998</ele>
        <time>2023-09-10T12:20:32Z</time>
      </trkpt>
      <trkpt lat="46.380833722651005" lon="8.357400689274073">
        <ele>2211.4400000000001</ele>
        <time>2023-09-10T12:20:43Z</time>
      </trkpt>
      <trkpt lat="46.380841685459018" lon="8.357428098097444">
        <ele>2211.3600000000001</ele>
        <time>2023-09-10T12:20:59Z</time>
      </trkpt>
      <trkpt lat="46.380844283849001" lon="8.357430696487427">
        <ele>2211.8000000000002</ele>
        <time>2023-09-10T12:21:25Z</time>
      </trkpt>
      <trkpt lat="46.380858113989234" lon="8.357447711750865">
        <ele>2210.9200000000001</ele>
        <time>2023-09-10T12:21:39Z</time>
      </trkpt>
      <trkpt lat="46.380872698500752" lon="8.357423907145858">
        <ele>2210.8699999999999</ele>
        <time>2023-09-10T12:22:04Z</time>
      </trkpt>
      <trkpt lat="46.380874626338482" lon="8.357411418110132">
        <ele>2210.1900000000001</ele>
        <time>2023-09-10T12:22:20Z</time>
      </trkpt>
      <trkpt lat="46.380875213071704" lon="8.357411501929164">
        <ele>2208.79</ele>
        <time>2023-09-10T12:22:22Z</time>
      </trkpt>
      <trkpt lat="46.380875380709767" lon="8.357411501929164">
        <ele>2212.79</ele>
        <time>2023-09-10T12:22:25Z</time>
      </trkpt>
      <trkpt lat="46.380875129252672" lon="8.357410579919815">
        <ele>2211.8299999999999</ele>
        <time>2023-09-10T12:22:26Z</time>
      </trkpt>
      <trkpt lat="46.380874626338482" lon="8.357406472787261">
        <ele>2209.9699999999998</ele>
        <time>2023-09-10T12:22:29Z</time>
      </trkpt>
      <trkpt lat="46.380875883623958" lon="8.357404293492436">
        <ele>2209.1300000000001</ele>
        <time>2023-09-10T12:22:50Z</time>
      </trkpt>
      <trkpt lat="46.38087747618556" lon="8.357397755607963">
        <ele>2210.6300000000001</ele>
        <time>2023-09-10T12:23:08Z</time>
      </trkpt>
      <trkpt lat="46.380874710157514" lon="8.357404209673405">
        <ele>2212.1900000000001</ele>
        <time>2023-09-10T12:23:22Z</time>
      </trkpt>
      <trkpt lat="46.380876805633307" lon="8.357406975701451">
        <ele>2210.6599999999999</ele>
        <time>2023-09-10T12:23:25Z</time>
      </trkpt>
      <trkpt lat="46.38091946952045" lon="8.357483334839344">
        <ele>2207.52</ele>
        <time>2023-09-10T12:23:36Z</time>
      </trkpt>
      <trkpt lat="46.380988284945488" lon="8.357580984011293">
        <ele>2204.8099999999999</ele>
        <time>2023-09-10T12:23:48Z</time>
      </trkpt>
      <trkpt lat="46.381018040701747" lon="8.357650302350521">
        <ele>2203.7600000000002</ele>
        <time>2023-09-10T12:23:54Z</time>
      </trkpt>
      <trkpt lat="46.381058692932129" lon="8.357763290405273">
        <ele>2202.98</ele>
        <time>2023-09-10T12:24:05Z</time>
      </trkpt>
      <trkpt lat="46.38111786916852" lon="8.35785792209208">
        <ele>2201.7800000000002</ele>
        <time>2023-09-10T12:24:16Z</time>
      </trkpt>
      <trkpt lat="46.381182409822941" lon="8.357964958995581">
        <ele>2200.96</ele>
        <time>2023-09-10T12:24:27Z</time>
      </trkpt>
      <trkpt lat="46.381216943264008" lon="8.35801525041461">
        <ele>2200.5100000000002</ele>
        <time>2023-09-10T12:24:32Z</time>
      </trkpt>
      <trkpt lat="46.381279639899731" lon="8.35809538140893">
        <ele>2199.3600000000001</ele>
        <time>2023-09-10T12:24:43Z</time>
      </trkpt>
      <trkpt lat="46.381296571344137" lon="8.358118683099747">
        <ele>2198.9299999999998</ele>
        <time>2023-09-10T12:24:49Z</time>
      </trkpt>
      <trkpt lat="46.381305456161499" lon="8.358127232640982">
        <ele>2198.8200000000002</ele>
        <time>2023-09-10T12:24:50Z</time>
      </trkpt>
      <trkpt lat="46.381329763680696" lon="8.35815547965467">
        <ele>2198.5700000000002</ele>
        <time>2023-09-10T12:24:53Z</time>
      </trkpt>
      <trkpt lat="46.381416264921427" lon="8.3582869078964">
        <ele>2196.9699999999998</ele>
        <time>2023-09-10T12:25:06Z</time>
      </trkpt>
      <trkpt lat="46.381512740626931" lon="8.358450355008245">
        <ele>2195.3800000000001</ele>
        <time>2023-09-10T12:25:20Z</time>
      </trkpt>
      <trkpt lat="46.381574599072337" lon="8.358587985858321">
        <ele>2195.0100000000002</ele>
        <time>2023-09-10T12:25:31Z</time>
      </trkpt>
      <trkpt lat="46.381660848855972" lon="8.358733244240284">
        <ele>2193.9200000000001</ele>
        <time>2023-09-10T12:25:43Z</time>
      </trkpt>
      <trkpt lat="46.38177752494812" lon="8.358896523714066">
        <ele>2192.7199999999998</ele>
        <time>2023-09-10T12:25:58Z</time>
      </trkpt>
      <trkpt lat="46.381869055330753" lon="8.359022838994861">
        <ele>2191.6599999999999</ele>
        <time>2023-09-10T12:26:11Z</time>
      </trkpt>
      <trkpt lat="46.381948934867978" lon="8.359100203961134">
        <ele>2190.5300000000002</ele>
        <time>2023-09-10T12:26:21Z</time>
      </trkpt>
      <trkpt lat="46.382006015628576" lon="8.359151585027576">
        <ele>2191.0100000000002</ele>
        <time>2023-09-10T12:26:30Z</time>
      </trkpt>
      <trkpt lat="46.38201548717916" lon="8.359158122912049">
        <ele>2190.9000000000001</ele>
        <time>2023-09-10T12:26:31Z</time>
      </trkpt>
      <trkpt lat="46.382024958729744" lon="8.359162397682667">
        <ele>2190.8499999999999</ele>
        <time>2023-09-10T12:26:32Z</time>
      </trkpt>
      <trkpt lat="46.382073489949107" lon="8.359201122075319">
        <ele>2190.4200000000001</ele>
        <time>2023-09-10T12:26:39Z</time>
      </trkpt>
      <trkpt lat="46.38213224709034" lon="8.359286952763796">
        <ele>2189.0700000000002</ele>
        <time>2023-09-10T12:26:49Z</time>
      </trkpt>
      <trkpt lat="46.382139790803194" lon="8.359298100695014">
        <ele>2189.1999999999998</ele>
        <time>2023-09-10T12:26:50Z</time>
      </trkpt>
      <trkpt lat="46.382154710590839" lon="8.359316708520055">
        <ele>2188.75</ele>
        <time>2023-09-10T12:26:52Z</time>
      </trkpt>
      <trkpt lat="46.382163008674979" lon="8.359324587509036">
        <ele>2188.6100000000001</ele>
        <time>2023-09-10T12:26:53Z</time>
      </trkpt>
      <trkpt lat="46.382259065285325" lon="8.359365658834577">
        <ele>2187.9099999999999</ele>
        <time>2023-09-10T12:27:03Z</time>
      </trkpt>
      <trkpt lat="46.382342632859945" lon="8.359391475096345">
        <ele>2188.1100000000001</ele>
        <time>2023-09-10T12:27:11Z</time>
      </trkpt>
      <trkpt lat="46.382443299517035" lon="8.359425086528063">
        <ele>2188.48</ele>
        <time>2023-09-10T12:27:21Z</time>
      </trkpt>
      <trkpt lat="46.382524687796831" lon="8.359515024349093">
        <ele>2187.75</ele>
        <time>2023-09-10T12:27:31Z</time>
      </trkpt>
      <trkpt lat="46.382620157673955" lon="8.359579565003514">
        <ele>2187.6700000000001</ele>
        <time>2023-09-10T12:27:40Z</time>
      </trkpt>
      <trkpt lat="46.38270347379148" lon="8.359635472297669">
        <ele>2188.1399999999999</ele>
        <time>2023-09-10T12:27:49Z</time>
      </trkpt>
      <trkpt lat="46.382816797122359" lon="8.359745191410184">
        <ele>2187.7600000000002</ele>
        <time>2023-09-10T12:28:01Z</time>
      </trkpt>
      <trkpt lat="46.38290086761117" lon="8.359806630760431">
        <ele>2188.5599999999999</ele>
        <time>2023-09-10T12:28:11Z</time>
      </trkpt>
      <trkpt lat="46.382979406043887" lon="8.359929341822863">
        <ele>2188.52</ele>
        <time>2023-09-10T12:28:22Z</time>
      </trkpt>
      <trkpt lat="46.383037827908993" lon="8.359995810315013">
        <ele>2188.5500000000002</ele>
        <time>2023-09-10T12:28:29Z</time>
      </trkpt>
      <trkpt lat="46.383088538423181" lon="8.36003034375608">
        <ele>2188.6100000000001</ele>
        <time>2023-09-10T12:28:34Z</time>
      </trkpt>
      <trkpt lat="46.383097842335701" lon="8.360042916610837">
        <ele>2188.5900000000001</ele>
        <time>2023-09-10T12:28:35Z</time>
      </trkpt>
      <trkpt lat="46.383165651932359" lon="8.360113659873605">
        <ele>2188.1700000000001</ele>
        <time>2023-09-10T12:28:42Z</time>
      </trkpt>
      <trkpt lat="46.383175710216165" lon="8.360124472528696">
        <ele>2188.3099999999999</ele>
        <time>2023-09-10T12:28:43Z</time>
      </trkpt>
      <trkpt lat="46.383182164281607" lon="8.360138554126024">
        <ele>2188.3600000000001</ele>
        <time>2023-09-10T12:28:44Z</time>
      </trkpt>
      <trkpt lat="46.383188953623176" lon="8.360152803361416">
        <ele>2188.2600000000002</ele>
        <time>2023-09-10T12:28:45Z</time>
      </trkpt>
      <trkpt lat="46.383194150403142" lon="8.36016621440649">
        <ele>2188.1599999999999</ele>
        <time>2023-09-10T12:28:46Z</time>
      </trkpt>
      <trkpt lat="46.383220134302974" lon="8.360199658200145">
        <ele>2188.5599999999999</ele>
        <time>2023-09-10T12:28:50Z</time>
      </trkpt>
      <trkpt lat="46.383305713534355" lon="8.360275933519006">
        <ele>2188.1100000000001</ele>
        <time>2023-09-10T12:29:00Z</time>
      </trkpt>
      <trkpt lat="46.383393555879593" lon="8.360360590741038">
        <ele>2188.4899999999998</ele>
        <time>2023-09-10T12:29:10Z</time>
      </trkpt>
      <trkpt lat="46.383404787629843" lon="8.360366458073258">
        <ele>2188.3400000000001</ele>
        <time>2023-09-10T12:29:11Z</time>
      </trkpt>
      <trkpt lat="46.383509393781424" lon="8.360425885766745">
        <ele>2188.02</ele>
        <time>2023-09-10T12:29:22Z</time>
      </trkpt>
      <trkpt lat="46.383584747090936" lon="8.360482715070248">
        <ele>2187.8099999999999</ele>
        <time>2023-09-10T12:29:31Z</time>
      </trkpt>
      <trkpt lat="46.383638558909297" lon="8.360506687313318">
        <ele>2187.1900000000001</ele>
        <time>2023-09-10T12:29:38Z</time>
      </trkpt>
      <trkpt lat="46.383647779002786" lon="8.360514063388109">
        <ele>2187.0700000000002</ele>
        <time>2023-09-10T12:29:39Z</time>
      </trkpt>
      <trkpt lat="46.383662279695272" lon="8.36052730679512">
        <ele>2186.7199999999998</ele>
        <time>2023-09-10T12:29:41Z</time>
      </trkpt>
      <trkpt lat="46.383764706552029" lon="8.360635600984097">
        <ele>2186.6700000000001</ele>
        <time>2023-09-10T12:29:53Z</time>
      </trkpt>
      <trkpt lat="46.383886411786079" lon="8.360722186043859">
        <ele>2187.1100000000001</ele>
        <time>2023-09-10T12:30:08Z</time>
      </trkpt>
      <trkpt lat="46.38398121111095" lon="8.360751438885927">
        <ele>2186.9099999999999</ele>
        <time>2023-09-10T12:30:20Z</time>
      </trkpt>
      <trkpt lat="46.383990682661533" lon="8.36075009778142">
        <ele>2186.7800000000002</ele>
        <time>2023-09-10T12:30:21Z</time>
      </trkpt>
      <trkpt lat="46.384002082049847" lon="8.360749762505293">
        <ele>2186.5900000000001</ele>
        <time>2023-09-10T12:30:22Z</time>
      </trkpt>
      <trkpt lat="46.384012307971716" lon="8.360750684514642">
        <ele>2186.6300000000001</ele>
        <time>2023-09-10T12:30:23Z</time>
      </trkpt>
      <trkpt lat="46.384121607989073" lon="8.360733082517982">
        <ele>2186.4899999999998</ele>
        <time>2023-09-10T12:30:35Z</time>
      </trkpt>
      <trkpt lat="46.384148178622127" lon="8.360716570168734">
        <ele>2187</ele>
        <time>2023-09-10T12:30:39Z</time>
      </trkpt>
      <trkpt lat="46.384164858609438" lon="8.360703578218818">
        <ele>2187.04</ele>
        <time>2023-09-10T12:30:41Z</time>
      </trkpt>
      <trkpt lat="46.384173911064863" lon="8.360697710886598">
        <ele>2187.1700000000001</ele>
        <time>2023-09-10T12:30:42Z</time>
      </trkpt>
      <trkpt lat="46.384195704013109" lon="8.360680108889937">
        <ele>2187</ele>
        <time>2023-09-10T12:30:53Z</time>
      </trkpt>
      <trkpt lat="46.384262340143323" lon="8.36068706586957">
        <ele>2186.7199999999998</ele>
        <time>2023-09-10T12:31:11Z</time>
      </trkpt>
      <trkpt lat="46.384298717603087" lon="8.36070952937007">
        <ele>2186.7800000000002</ele>
        <time>2023-09-10T12:31:15Z</time>
      </trkpt>
      <trkpt lat="46.384310787543654" lon="8.360709780827165">
        <ele>2186.5999999999999</ele>
        <time>2023-09-10T12:31:16Z</time>
      </trkpt>
      <trkpt lat="46.384462583810091" lon="8.360662590712309">
        <ele>2185.5999999999999</ele>
        <time>2023-09-10T12:31:30Z</time>
      </trkpt>
      <trkpt lat="46.384488232433796" lon="8.360641887411475">
        <ele>2185.5799999999999</ele>
        <time>2023-09-10T12:31:33Z</time>
      </trkpt>
      <trkpt lat="46.3845001347363" lon="8.360633673146367">
        <ele>2185.5700000000002</ele>
        <time>2023-09-10T12:31:34Z</time>
      </trkpt>
      <trkpt lat="46.384511785581708" lon="8.360626716166735">
        <ele>2185.3699999999999</ele>
        <time>2023-09-10T12:31:35Z</time>
      </trkpt>
      <trkpt lat="46.384523017331958" lon="8.360622441396117">
        <ele>2185.3699999999999</ele>
        <time>2023-09-10T12:31:36Z</time>
      </trkpt>
      <trkpt lat="46.384534416720271" lon="8.360618585720658">
        <ele>2185.3600000000001</ele>
        <time>2023-09-10T12:31:37Z</time>
      </trkpt>
      <trkpt lat="46.384545061737299" lon="8.360613137483597">
        <ele>2185.3600000000001</ele>
        <time>2023-09-10T12:31:38Z</time>
      </trkpt>
      <trkpt lat="46.384555455297232" lon="8.360606683418155">
        <ele>2185.3499999999999</ele>
        <time>2023-09-10T12:31:39Z</time>
      </trkpt>
      <trkpt lat="46.384565848857164" lon="8.360600229352713">
        <ele>2184.71</ele>
        <time>2023-09-10T12:31:40Z</time>
      </trkpt>
      <trkpt lat="46.384576577693224" lon="8.360594445839524">
        <ele>2185.0500000000002</ele>
        <time>2023-09-10T12:31:41Z</time>
      </trkpt>
      <trkpt lat="46.384586971253157" lon="8.360590925440192">
        <ele>2184.6900000000001</ele>
        <time>2023-09-10T12:31:42Z</time>
      </trkpt>
      <trkpt lat="46.384597364813089" lon="8.360590171068907">
        <ele>2184.6799999999998</ele>
        <time>2023-09-10T12:31:43Z</time>
      </trkpt>
      <trkpt lat="46.384608428925276" lon="8.360591847449541">
        <ele>2184.6700000000001</ele>
        <time>2023-09-10T12:31:44Z</time>
      </trkpt>
      <trkpt lat="46.384619241580367" lon="8.360594026744366">
        <ele>2184.6700000000001</ele>
        <time>2023-09-10T12:31:45Z</time>
      </trkpt>
      <trkpt lat="46.384630054235458" lon="8.360593607649207">
        <ele>2184.6599999999999</ele>
        <time>2023-09-10T12:31:46Z</time>
      </trkpt>
      <trkpt lat="46.38464136980474" lon="8.360590925440192">
        <ele>2184.6599999999999</ele>
        <time>2023-09-10T12:31:47Z</time>
      </trkpt>
      <trkpt lat="46.384651763364673" lon="8.360588327050209">
        <ele>2184.6500000000001</ele>
        <time>2023-09-10T12:31:48Z</time>
      </trkpt>
      <trkpt lat="46.38471663929522" lon="8.360567707568407">
        <ele>2184.2399999999998</ele>
        <time>2023-09-10T12:31:55Z</time>
      </trkpt>
      <trkpt lat="46.384831219911575" lon="8.360623782500625">
        <ele>2184.0700000000002</ele>
        <time>2023-09-10T12:32:06Z</time>
      </trkpt>
      <trkpt lat="46.384982094168663" lon="8.360660914331675">
        <ele>2185.1100000000001</ele>
        <time>2023-09-10T12:32:20Z</time>
      </trkpt>
      <trkpt lat="46.385096004232764" lon="8.360661920160055">
        <ele>2184.8800000000001</ele>
        <time>2023-09-10T12:32:30Z</time>
      </trkpt>
      <trkpt lat="46.385184600949287" lon="8.360708607360721">
        <ele>2185.6599999999999</ele>
        <time>2023-09-10T12:32:41Z</time>
      </trkpt>
      <trkpt lat="46.385263139382005" lon="8.36078823544085">
        <ele>2185.6799999999998</ele>
        <time>2023-09-10T12:32:51Z</time>
      </trkpt>
      <trkpt lat="46.385356346145272" lon="8.360806088894606">
        <ele>2186.3699999999999</ele>
        <time>2023-09-10T12:33:03Z</time>
      </trkpt>
      <trkpt lat="46.38545885682106" lon="8.360851770266891">
        <ele>2186.2399999999998</ele>
        <time>2023-09-10T12:33:16Z</time>
      </trkpt>
      <trkpt lat="46.385540831834078" lon="8.360899547114968">
        <ele>2186.46</ele>
        <time>2023-09-10T12:33:28Z</time>
      </trkpt>
      <trkpt lat="46.385607300326228" lon="8.360925782471895">
        <ele>2186.1900000000001</ele>
        <time>2023-09-10T12:33:37Z</time>
      </trkpt>
      <trkpt lat="46.385625908151269" lon="8.360952520743012">
        <ele>2186.4499999999998</ele>
        <time>2023-09-10T12:33:40Z</time>
      </trkpt>
      <trkpt lat="46.385734956711531" lon="8.361046146601439">
        <ele>2186.3800000000001</ele>
        <time>2023-09-10T12:33:53Z</time>
      </trkpt>
      <trkpt lat="46.385792540386319" lon="8.361090319231153">
        <ele>2185.54</ele>
        <time>2023-09-10T12:34:00Z</time>
      </trkpt>
      <trkpt lat="46.385803269222379" lon="8.361091241240501">
        <ele>2185.4299999999998</ele>
        <time>2023-09-10T12:34:01Z</time>
      </trkpt>
      <trkpt lat="46.385815087705851" lon="8.361093588173389">
        <ele>2185.3699999999999</ele>
        <time>2023-09-10T12:34:02Z</time>
      </trkpt>
      <trkpt lat="46.385946432128549" lon="8.361216299235821">
        <ele>2184.96</ele>
        <time>2023-09-10T12:34:16Z</time>
      </trkpt>
      <trkpt lat="46.386058498173952" lon="8.361290730535984">
        <ele>2184.1599999999999</ele>
        <time>2023-09-10T12:34:27Z</time>
      </trkpt>
      <trkpt lat="46.386063611134887" lon="8.361303638666868">
        <ele>2183.8699999999999</ele>
        <time>2023-09-10T12:34:28Z</time>
      </trkpt>
      <trkpt lat="46.386070903390646" lon="8.361317217350006">
        <ele>2183.8600000000001</ele>
        <time>2023-09-10T12:34:29Z</time>
      </trkpt>
      <trkpt lat="46.38609990477562" lon="8.361360719427466">
        <ele>2183.8200000000002</ele>
        <time>2023-09-10T12:34:33Z</time>
      </trkpt>
      <trkpt lat="46.386176431551576" lon="8.361471444368362">
        <ele>2184.0799999999999</ele>
        <time>2023-09-10T12:34:44Z</time>
      </trkpt>
      <trkpt lat="46.38618640601635" lon="8.361504217609763">
        <ele>2184.1100000000001</ele>
        <time>2023-09-10T12:34:47Z</time>
      </trkpt>
      <trkpt lat="46.386189591139555" lon="8.361518634483218">
        <ele>2183.9299999999998</ele>
        <time>2023-09-10T12:34:48Z</time>
      </trkpt>
      <trkpt lat="46.386192524805665" lon="8.361532967537642">
        <ele>2183.7800000000002</ele>
        <time>2023-09-10T12:34:49Z</time>
      </trkpt>
      <trkpt lat="46.386197218671441" lon="8.361547635868192">
        <ele>2183.5900000000001</ele>
        <time>2023-09-10T12:34:50Z</time>
      </trkpt>
      <trkpt lat="46.386202080175281" lon="8.361561046913266">
        <ele>2183.5300000000002</ele>
        <time>2023-09-10T12:34:51Z</time>
      </trkpt>
      <trkpt lat="46.38624164275825" lon="8.361663892865181">
        <ele>2184.02</ele>
        <time>2023-09-10T12:35:01Z</time>
      </trkpt>
      <trkpt lat="46.38627047650516" lon="8.361787023022771">
        <ele>2184.6799999999998</ele>
        <time>2023-09-10T12:35:12Z</time>
      </trkpt>
      <trkpt lat="46.386287407949567" lon="8.361906129866839">
        <ele>2183.9200000000001</ele>
        <time>2023-09-10T12:35:24Z</time>
      </trkpt>
      <trkpt lat="46.386293945834041" lon="8.361998833715916">
        <ele>2183.3899999999999</ele>
        <time>2023-09-10T12:35:33Z</time>
      </trkpt>
      <trkpt lat="46.386297633871436" lon="8.362041916698217">
        <ele>2183.3000000000002</ele>
        <time>2023-09-10T12:35:36Z</time>
      </trkpt>
      <trkpt lat="46.386308195069432" lon="8.362066559493542">
        <ele>2183.2600000000002</ele>
        <time>2023-09-10T12:35:38Z</time>
      </trkpt>
      <trkpt lat="46.386337196454406" lon="8.362196981906891">
        <ele>2183.1700000000001</ele>
        <time>2023-09-10T12:35:48Z</time>
      </trkpt>
      <trkpt lat="46.386366868391633" lon="8.36236696690321">
        <ele>2183.23</ele>
        <time>2023-09-10T12:36:01Z</time>
      </trkpt>
      <trkpt lat="46.386384051293135" lon="8.362465789541602">
        <ele>2183.8800000000001</ele>
        <time>2023-09-10T12:36:13Z</time>
      </trkpt>
      <trkpt lat="46.386369969695807" lon="8.36253703571856">
        <ele>2183.9499999999998</ele>
        <time>2023-09-10T12:36:23Z</time>
      </trkpt>
      <trkpt lat="46.386295119300485" lon="8.362583471462131">
        <ele>2184.5300000000002</ele>
        <time>2023-09-10T12:36:32Z</time>
      </trkpt>
      <trkpt lat="46.386284222826362" lon="8.362590176984668">
        <ele>2184.4499999999998</ele>
        <time>2023-09-10T12:36:33Z</time>
      </trkpt>
      <trkpt lat="46.386253880336881" lon="8.362609790638089">
        <ele>2184.1900000000001</ele>
        <time>2023-09-10T12:36:36Z</time>
      </trkpt>
      <trkpt lat="46.386243151500821" lon="8.362618004903197">
        <ele>2184.0900000000001</ele>
        <time>2023-09-10T12:36:37Z</time>
      </trkpt>
      <trkpt lat="46.386231333017349" lon="8.362622866407037">
        <ele>2184.02</ele>
        <time>2023-09-10T12:36:38Z</time>
      </trkpt>
      <trkpt lat="46.386220939457417" lon="8.362627727910876">
        <ele>2183.96</ele>
        <time>2023-09-10T12:36:39Z</time>
      </trkpt>
      <trkpt lat="46.386191686615348" lon="8.362649437040091">
        <ele>2183.5700000000002</ele>
        <time>2023-09-10T12:36:50Z</time>
      </trkpt>
      <trkpt lat="46.386185567826033" lon="8.362660752609372">
        <ele>2183.6100000000001</ele>
        <time>2023-09-10T12:37:06Z</time>
      </trkpt>
      <trkpt lat="46.386179700493813" lon="8.362672906368971">
        <ele>2183.5700000000002</ele>
        <time>2023-09-10T12:37:07Z</time>
      </trkpt>
      <trkpt lat="46.386174000799656" lon="8.36268606595695">
        <ele>2183.27</ele>
        <time>2023-09-10T12:37:08Z</time>
      </trkpt>
      <trkpt lat="46.386168887838721" lon="8.362698722630739">
        <ele>2183.1100000000001</ele>
        <time>2023-09-10T12:37:09Z</time>
      </trkpt>
      <trkpt lat="46.386164696887136" lon="8.362727053463459">
        <ele>2183.1100000000001</ele>
        <time>2023-09-10T12:37:11Z</time>
      </trkpt>
      <trkpt lat="46.386162769049406" lon="8.362743984907866">
        <ele>2183</ele>
        <time>2023-09-10T12:37:12Z</time>
      </trkpt>
      <trkpt lat="46.386157739907503" lon="8.362891590222716">
        <ele>2182.6399999999999</ele>
        <time>2023-09-10T12:37:21Z</time>
      </trkpt>
      <trkpt lat="46.386165032163262" lon="8.362906342372298">
        <ele>2182.5</ele>
        <time>2023-09-10T12:37:22Z</time>
      </trkpt>
      <trkpt lat="46.386198392137885" lon="8.363026203587651">
        <ele>2183.54</ele>
        <time>2023-09-10T12:37:31Z</time>
      </trkpt>
      <trkpt lat="46.386237870901823" lon="8.363197445869446">
        <ele>2183.23</ele>
        <time>2023-09-10T12:37:43Z</time>
      </trkpt>
      <trkpt lat="46.386256143450737" lon="8.363387547433376">
        <ele>2183.0999999999999</ele>
        <time>2023-09-10T12:37:55Z</time>
      </trkpt>
      <trkpt lat="46.386272571980953" lon="8.363560885190964">
        <ele>2183.6300000000001</ele>
        <time>2023-09-10T12:38:07Z</time>
      </trkpt>
      <trkpt lat="46.386281289160252" lon="8.363607488572598">
        <ele>2183.1100000000001</ele>
        <time>2023-09-10T12:38:10Z</time>
      </trkpt>
      <trkpt lat="46.386289084330201" lon="8.363620899617672">
        <ele>2182.75</ele>
        <time>2023-09-10T12:38:11Z</time>
      </trkpt>
      <trkpt lat="46.386345326900482" lon="8.363688457757235">
        <ele>2182.7199999999998</ele>
        <time>2023-09-10T12:38:18Z</time>
      </trkpt>
      <trkpt lat="46.386372232809663" lon="8.363713854923844">
        <ele>2183.3299999999999</ele>
        <time>2023-09-10T12:38:21Z</time>
      </trkpt>
      <trkpt lat="46.386395366862416" lon="8.363829357549548">
        <ele>2183.79</ele>
        <time>2023-09-10T12:38:30Z</time>
      </trkpt>
      <trkpt lat="46.386347757652402" lon="8.364016525447369">
        <ele>2183.98</ele>
        <time>2023-09-10T12:38:43Z</time>
      </trkpt>
      <trkpt lat="46.386336106806993" lon="8.364180978387594">
        <ele>2184.2399999999998</ele>
        <time>2023-09-10T12:38:55Z</time>
      </trkpt>
      <trkpt lat="46.386303920298815" lon="8.364323303103447">
        <ele>2184.3600000000001</ele>
        <time>2023-09-10T12:39:06Z</time>
      </trkpt>
      <trkpt lat="46.386261424049735" lon="8.364482559263706">
        <ele>2184.5</ele>
        <time>2023-09-10T12:39:19Z</time>
      </trkpt>
      <trkpt lat="46.386166624724865" lon="8.36466645821929">
        <ele>2184.1900000000001</ele>
        <time>2023-09-10T12:39:34Z</time>
      </trkpt>
      <trkpt lat="46.386059336364269" lon="8.364774165675044">
        <ele>2185.1900000000001</ele>
        <time>2023-09-10T12:39:48Z</time>
      </trkpt>
      <trkpt lat="46.385998148471117" lon="8.364786151796579">
        <ele>2186.6599999999999</ele>
        <time>2023-09-10T12:40:00Z</time>
      </trkpt>
      <trkpt lat="46.385942408815026" lon="8.364795371890068">
        <ele>2187.7399999999998</ele>
        <time>2023-09-10T12:40:11Z</time>
      </trkpt>
      <trkpt lat="46.385864708572626" lon="8.364834096282721">
        <ele>2189.3600000000001</ele>
        <time>2023-09-10T12:40:25Z</time>
      </trkpt>
      <trkpt lat="46.385855739936233" lon="8.364836191758514">
        <ele>2189.5599999999999</ele>
        <time>2023-09-10T12:40:26Z</time>
      </trkpt>
      <trkpt lat="46.38580578379333" lon="8.364828396588564">
        <ele>2190.25</ele>
        <time>2023-09-10T12:40:37Z</time>
      </trkpt>
      <trkpt lat="46.385710397735238" lon="8.364854129031301">
        <ele>2190.5999999999999</ele>
        <time>2023-09-10T12:40:52Z</time>
      </trkpt>
      <trkpt lat="46.385645857080817" lon="8.364852452650666">
        <ele>2191.3200000000002</ele>
        <time>2023-09-10T12:40:59Z</time>
      </trkpt>
      <trkpt lat="46.385635379701853" lon="8.364849602803588">
        <ele>2191.3699999999999</ele>
        <time>2023-09-10T12:41:00Z</time>
      </trkpt>
      <trkpt lat="46.385625572875142" lon="8.364845411852002">
        <ele>2191.4699999999998</ele>
        <time>2023-09-10T12:41:01Z</time>
      </trkpt>
      <trkpt lat="46.385474028065801" lon="8.364834599196911">
        <ele>2192.4699999999998</ele>
        <time>2023-09-10T12:41:17Z</time>
      </trkpt>
      <trkpt lat="46.385348550975323" lon="8.364784056320787">
        <ele>2193.21</ele>
        <time>2023-09-10T12:41:31Z</time>
      </trkpt>
      <trkpt lat="46.38522332534194" lon="8.364750109612942">
        <ele>2194.5500000000002</ele>
        <time>2023-09-10T12:41:45Z</time>
      </trkpt>
      <trkpt lat="46.385145289823413" lon="8.364787828177214">
        <ele>2196.7800000000002</ele>
        <time>2023-09-10T12:41:57Z</time>
      </trkpt>
      <trkpt lat="46.385125843808055" lon="8.364844070747495">
        <ele>2197.5900000000001</ele>
        <time>2023-09-10T12:42:02Z</time>
      </trkpt>
      <trkpt lat="46.385121652856469" lon="8.364859577268362">
        <ele>2197.5599999999999</ele>
        <time>2023-09-10T12:42:03Z</time>
      </trkpt>
      <trkpt lat="46.385107235983014" lon="8.36497968994081">
        <ele>2199.27</ele>
        <time>2023-09-10T12:42:16Z</time>
      </trkpt>
      <trkpt lat="46.385094998404384" lon="8.365117069333792">
        <ele>2202.2600000000002</ele>
        <time>2023-09-10T13:37:25Z</time>
      </trkpt>
      <trkpt lat="46.385098267346621" lon="8.365117236971855">
        <ele>2202.8699999999999</ele>
        <time>2023-09-10T13:37:45Z</time>
      </trkpt>
      <trkpt lat="46.385078150779009" lon="8.365228297188878">
        <ele>2203.1999999999998</ele>
        <time>2023-09-10T13:39:02Z</time>
      </trkpt>
      <trkpt lat="46.385131627321243" lon="8.365276576951146">
        <ele>2203.3699999999999</ele>
        <time>2023-09-10T13:39:14Z</time>
      </trkpt>
      <trkpt lat="46.385137159377337" lon="8.365274062380195">
        <ele>2202.8699999999999</ele>
        <time>2023-09-10T13:39:32Z</time>
      </trkpt>
      <trkpt lat="46.385170603170991" lon="8.365289317443967">
        <ele>2202.96</ele>
        <time>2023-09-10T13:39:49Z</time>
      </trkpt>
      <trkpt lat="46.385224414989352" lon="8.36539157666266">
        <ele>2200.4699999999998</ele>
        <time>2023-09-10T13:40:01Z</time>
      </trkpt>
      <trkpt lat="46.385240089148283" lon="8.365482855588198">
        <ele>2198</ele>
        <time>2023-09-10T13:40:10Z</time>
      </trkpt>
      <trkpt lat="46.385189043357968" lon="8.365530213341117">
        <ele>2196.04</ele>
        <time>2023-09-10T13:40:16Z</time>
      </trkpt>
      <trkpt lat="46.385125089436769" lon="8.365558544173837">
        <ele>2193.3600000000001</ele>
        <time>2023-09-10T13:40:29Z</time>
      </trkpt>
      <trkpt lat="46.385168842971325" lon="8.36562467738986">
        <ele>2190.7399999999998</ele>
        <time>2023-09-10T13:40:40Z</time>
      </trkpt>
      <trkpt lat="46.385177224874496" lon="8.36567253805697">
        <ele>2189.9099999999999</ele>
        <time>2023-09-10T13:40:44Z</time>
      </trkpt>
      <trkpt lat="46.385206812992692" lon="8.365732384845614">
        <ele>2189.7600000000002</ele>
        <time>2023-09-10T13:40:49Z</time>
      </trkpt>
      <trkpt lat="46.385208992287517" lon="8.36574780754745">
        <ele>2189.6300000000001</ele>
        <time>2023-09-10T13:40:50Z</time>
      </trkpt>
      <trkpt lat="46.38522382825613" lon="8.365901447832584">
        <ele>2187.3299999999999</ele>
        <time>2023-09-10T13:41:03Z</time>
      </trkpt>
      <trkpt lat="46.385226929560304" lon="8.365956684574485">
        <ele>2187.6799999999998</ele>
        <time>2023-09-10T13:41:16Z</time>
      </trkpt>
      <trkpt lat="46.385227683931589" lon="8.365984261035919">
        <ele>2187.5500000000002</ele>
        <time>2023-09-10T13:41:18Z</time>
      </trkpt>
      <trkpt lat="46.385235982015729" lon="8.36601066403091">
        <ele>2187.3699999999999</ele>
        <time>2023-09-10T13:41:20Z</time>
      </trkpt>
      <trkpt lat="46.385310245677829" lon="8.366210572421551">
        <ele>2184.98</ele>
        <time>2023-09-10T13:41:34Z</time>
      </trkpt>
      <trkpt lat="46.385306138545275" lon="8.366315262392163">
        <ele>2183.5</ele>
        <time>2023-09-10T13:41:41Z</time>
      </trkpt>
      <trkpt lat="46.385301779955626" lon="8.366330936551094">
        <ele>2183.4400000000001</ele>
        <time>2023-09-10T13:41:42Z</time>
      </trkpt>
      <trkpt lat="46.385298175737262" lon="8.366347197443247">
        <ele>2183.21</ele>
        <time>2023-09-10T13:41:43Z</time>
      </trkpt>
      <trkpt lat="46.385293314233422" lon="8.366365469992161">
        <ele>2183.0100000000002</ele>
        <time>2023-09-10T13:41:44Z</time>
      </trkpt>
      <trkpt lat="46.385289207100868" lon="8.366383239626885">
        <ele>2182.79</ele>
        <time>2023-09-10T13:41:45Z</time>
      </trkpt>
      <trkpt lat="46.385188372805715" lon="8.366500418633223">
        <ele>2180.5</ele>
        <time>2023-09-10T13:41:56Z</time>
      </trkpt>
      <trkpt lat="46.385033475235105" lon="8.36654668673873">
        <ele>2178.1900000000001</ele>
        <time>2023-09-10T13:42:08Z</time>
      </trkpt>
      <trkpt lat="46.384903388097882" lon="8.366615083068609">
        <ele>2175.0700000000002</ele>
        <time>2023-09-10T13:42:19Z</time>
      </trkpt>
      <trkpt lat="46.384830800816417" lon="8.366790264844894">
        <ele>2171.8600000000001</ele>
        <time>2023-09-10T13:42:31Z</time>
      </trkpt>
      <trkpt lat="46.38478260487318" lon="8.36702068336308">
        <ele>2172.0599999999999</ele>
        <time>2023-09-10T13:42:43Z</time>
      </trkpt>
      <trkpt lat="46.384737007319927" lon="8.367215311154723">
        <ele>2171.77</ele>
        <time>2023-09-10T13:42:54Z</time>
      </trkpt>
      <trkpt lat="46.384703647345304" lon="8.367324946448207">
        <ele>2171.79</ele>
        <time>2023-09-10T13:43:00Z</time>
      </trkpt>
      <trkpt lat="46.384668275713921" lon="8.367406250908971">
        <ele>2168.9699999999998</ele>
        <time>2023-09-10T13:43:06Z</time>
      </trkpt>
      <trkpt lat="46.384578002616763" lon="8.367586126551032">
        <ele>2166.3499999999999</ele>
        <time>2023-09-10T13:43:18Z</time>
      </trkpt>
      <trkpt lat="46.384518072009087" lon="8.367777904495597">
        <ele>2165.1500000000001</ele>
        <time>2023-09-10T13:43:29Z</time>
      </trkpt>
      <trkpt lat="46.384468618780375" lon="8.368024248629808">
        <ele>2165.0700000000002</ele>
        <time>2023-09-10T13:43:42Z</time>
      </trkpt>
      <trkpt lat="46.384442299604416" lon="8.3682612888515">
        <ele>2165.3200000000002</ele>
        <time>2023-09-10T13:43:55Z</time>
      </trkpt>
      <trkpt lat="46.384424949064851" lon="8.368536550551653">
        <ele>2164.77</ele>
        <time>2023-09-10T13:44:10Z</time>
      </trkpt>
      <trkpt lat="46.384400222450495" lon="8.368777530267835">
        <ele>2164.7399999999998</ele>
        <time>2023-09-10T13:44:23Z</time>
      </trkpt>
      <trkpt lat="46.38435454107821" lon="8.368991604074836">
        <ele>2165.3000000000002</ele>
        <time>2023-09-10T13:44:36Z</time>
      </trkpt>
      <trkpt lat="46.384296538308263" lon="8.369256304576993">
        <ele>2165.23</ele>
        <time>2023-09-10T13:44:50Z</time>
      </trkpt>
      <trkpt lat="46.384221017360687" lon="8.369487477466464">
        <ele>2165.0900000000001</ele>
        <time>2023-09-10T13:45:04Z</time>
      </trkpt>
      <trkpt lat="46.384053966030478" lon="8.369646817445755">
        <ele>2164.5799999999999</ele>
        <time>2023-09-10T13:45:19Z</time>
      </trkpt>
      <trkpt lat="46.383950700983405" lon="8.369813617318869">
        <ele>2163.9499999999998</ele>
        <time>2023-09-10T13:45:32Z</time>
      </trkpt>
      <trkpt lat="46.383879454806447" lon="8.370045125484467">
        <ele>2163.1500000000001</ele>
        <time>2023-09-10T13:45:46Z</time>
      </trkpt>
      <trkpt lat="46.383824050426483" lon="8.37034922093153">
        <ele>2162.1900000000001</ele>
        <time>2023-09-10T13:46:03Z</time>
      </trkpt>
      <trkpt lat="46.383784739300609" lon="8.370621213689446">
        <ele>2159.6700000000001</ele>
        <time>2023-09-10T13:46:18Z</time>
      </trkpt>
      <trkpt lat="46.38370762579143" lon="8.370940648019314">
        <ele>2157.8600000000001</ele>
        <time>2023-09-10T13:46:35Z</time>
      </trkpt>
      <trkpt lat="46.383672002702951" lon="8.371252370998263">
        <ele>2155.1500000000001</ele>
        <time>2023-09-10T13:46:51Z</time>
      </trkpt>
      <trkpt lat="46.383732855319977" lon="8.371495110914111">
        <ele>2154.2399999999998</ele>
        <time>2023-09-10T13:47:05Z</time>
      </trkpt>
      <trkpt lat="46.38373201712966" lon="8.371780263260007">
        <ele>2154.5799999999999</ele>
        <time>2023-09-10T13:47:19Z</time>
      </trkpt>
      <trkpt lat="46.383684324100614" lon="8.372061811387539">
        <ele>2154.3600000000001</ele>
        <time>2023-09-10T13:47:34Z</time>
      </trkpt>
      <trkpt lat="46.383608803153038" lon="8.372350903227925">
        <ele>2154.4499999999998</ele>
        <time>2023-09-10T13:47:50Z</time>
      </trkpt>
      <trkpt lat="46.383526241406798" lon="8.37264527566731">
        <ele>2153.9499999999998</ele>
        <time>2023-09-10T13:48:06Z</time>
      </trkpt>
      <trkpt lat="46.383461784571409" lon="8.372897487133741">
        <ele>2153.27</ele>
        <time>2023-09-10T13:48:20Z</time>
      </trkpt>
      <trkpt lat="46.383357010781765" lon="8.37311533279717">
        <ele>2152.8499999999999</ele>
        <time>2023-09-10T13:48:34Z</time>
      </trkpt>
      <trkpt lat="46.383242262527347" lon="8.373319683596492">
        <ele>2152.4400000000001</ele>
        <time>2023-09-10T13:48:48Z</time>
      </trkpt>
      <trkpt lat="46.383111756294966" lon="8.373505342751741">
        <ele>2153.27</ele>
        <time>2023-09-10T13:49:03Z</time>
      </trkpt>
      <trkpt lat="46.383000193163753" lon="8.373689074069262">
        <ele>2153.4499999999998</ele>
        <time>2023-09-10T13:49:17Z</time>
      </trkpt>
      <trkpt lat="46.382895084097981" lon="8.373915050178766">
        <ele>2154.1999999999998</ele>
        <time>2023-09-10T13:49:33Z</time>
      </trkpt>
      <trkpt lat="46.382840014994144" lon="8.37422895245254">
        <ele>2153.8499999999999</ele>
        <time>2023-09-10T13:49:50Z</time>
      </trkpt>
      <trkpt lat="46.382781006395817" lon="8.374485606327653">
        <ele>2153.3899999999999</ele>
        <time>2023-09-10T13:50:04Z</time>
      </trkpt>
      <trkpt lat="46.382758039981127" lon="8.374757682904601">
        <ele>2154.1900000000001</ele>
        <time>2023-09-10T13:50:19Z</time>
      </trkpt>
      <trkpt lat="46.382768014445901" lon="8.374974355101585">
        <ele>2154.1399999999999</ele>
        <time>2023-09-10T13:50:31Z</time>
      </trkpt>
      <trkpt lat="46.382844122126698" lon="8.375215334817767">
        <ele>2154.7399999999998</ele>
        <time>2023-09-10T13:50:46Z</time>
      </trkpt>
      <trkpt lat="46.382913189008832" lon="8.37536838836968">
        <ele>2155.9400000000001</ele>
        <time>2023-09-10T13:50:58Z</time>
      </trkpt>
      <trkpt lat="46.382974544540048" lon="8.37553552351892">
        <ele>2157.5599999999999</ele>
        <time>2023-09-10T13:51:10Z</time>
      </trkpt>
      <trkpt lat="46.382995080202818" lon="8.375694109126926">
        <ele>2158.8099999999999</ele>
        <time>2023-09-10T13:51:21Z</time>
      </trkpt>
      <trkpt lat="46.38303279876709" lon="8.375860741361976">
        <ele>2159.4899999999998</ele>
        <time>2023-09-10T13:51:33Z</time>
      </trkpt>
      <trkpt lat="46.383040007203817" lon="8.376047154888511">
        <ele>2159.6999999999998</ele>
        <time>2023-09-10T13:51:44Z</time>
      </trkpt>
      <trkpt lat="46.383021818473935" lon="8.376315040513873">
        <ele>2158.2600000000002</ele>
        <time>2023-09-10T13:51:59Z</time>
      </trkpt>
      <trkpt lat="46.383000193163753" lon="8.376583931967616">
        <ele>2157.1500000000001</ele>
        <time>2023-09-10T13:52:14Z</time>
      </trkpt>
      <trkpt lat="46.382993068546057" lon="8.376851985231042">
        <ele>2156.7600000000002</ele>
        <time>2023-09-10T13:52:29Z</time>
      </trkpt>
      <trkpt lat="46.38302936218679" lon="8.377033621072769">
        <ele>2158.2800000000002</ele>
        <time>2023-09-10T13:52:42Z</time>
      </trkpt>
      <trkpt lat="46.383036067709327" lon="8.377282982692123">
        <ele>2158.0999999999999</ele>
        <time>2023-09-10T13:52:56Z</time>
      </trkpt>
      <trkpt lat="46.383034475147724" lon="8.377529997378588">
        <ele>2157.73</ele>
        <time>2023-09-10T13:53:09Z</time>
      </trkpt>
      <trkpt lat="46.382995247840881" lon="8.377801319584251">
        <ele>2156.1300000000001</ele>
        <time>2023-09-10T13:53:23Z</time>
      </trkpt>
      <trkpt lat="46.382986446842551" lon="8.378091668710113">
        <ele>2155.9000000000001</ele>
        <time>2023-09-10T13:53:39Z</time>
      </trkpt>
      <trkpt lat="46.38296633027494" lon="8.378340192139149">
        <ele>2155.4899999999998</ele>
        <time>2023-09-10T13:53:53Z</time>
      </trkpt>
      <trkpt lat="46.382964318618178" lon="8.378620482981205">
        <ele>2155.0300000000002</ele>
        <time>2023-09-10T13:54:08Z</time>
      </trkpt>
      <trkpt lat="46.382942860946059" lon="8.378936983644962">
        <ele>2153.9200000000001</ele>
        <time>2023-09-10T13:54:25Z</time>
      </trkpt>
      <trkpt lat="46.3829355686903" lon="8.379219034686685">
        <ele>2154.0599999999999</ele>
        <time>2023-09-10T13:54:40Z</time>
      </trkpt>
      <trkpt lat="46.382926600053906" lon="8.379485998302698">
        <ele>2151.0500000000002</ele>
        <time>2023-09-10T13:54:54Z</time>
      </trkpt>
      <trkpt lat="46.382911764085293" lon="8.379747094586492">
        <ele>2148.9699999999998</ele>
        <time>2023-09-10T13:55:08Z</time>
      </trkpt>
      <trkpt lat="46.382925342768431" lon="8.38002210482955">
        <ele>2148.6399999999999</ele>
        <time>2023-09-10T13:55:23Z</time>
      </trkpt>
      <trkpt lat="46.382932299748063" lon="8.380172727629542">
        <ele>2148.5300000000002</ele>
        <time>2023-09-10T13:55:31Z</time>
      </trkpt>
      <trkpt lat="46.382924420759082" lon="8.380363080650568">
        <ele>2147.9000000000001</ele>
        <time>2023-09-10T13:55:41Z</time>
      </trkpt>
      <trkpt lat="46.382936574518681" lon="8.380535496398807">
        <ele>2148.5799999999999</ele>
        <time>2023-09-10T13:55:50Z</time>
      </trkpt>
      <trkpt lat="46.382950404658914" lon="8.380714701488614">
        <ele>2147.9899999999998</ele>
        <time>2023-09-10T13:56:00Z</time>
      </trkpt>
      <trkpt lat="46.382970185950398" lon="8.380860546603799">
        <ele>2147.96</ele>
        <time>2023-09-10T13:56:08Z</time>
      </trkpt>
      <trkpt lat="46.382971694692969" lon="8.380899941548705">
        <ele>2147.5799999999999</ele>
        <time>2023-09-10T13:56:10Z</time>
      </trkpt>
      <trkpt lat="46.382943531498313" lon="8.381063723936677">
        <ele>2146.29</ele>
        <time>2023-09-10T13:56:20Z</time>
      </trkpt>
      <trkpt lat="46.382941184565425" lon="8.381153577938676">
        <ele>2145.3099999999999</ele>
        <time>2023-09-10T13:56:25Z</time>
      </trkpt>
      <trkpt lat="46.3829355686903" lon="8.381311325356364">
        <ele>2142.8499999999999</ele>
        <time>2023-09-10T13:56:34Z</time>
      </trkpt>
      <trkpt lat="46.382940765470266" lon="8.381389863789082">
        <ele>2141.96</ele>
        <time>2023-09-10T13:56:38Z</time>
      </trkpt>
      <trkpt lat="46.382920145988464" lon="8.381542917340994">
        <ele>2140.6599999999999</ele>
        <time>2023-09-10T13:56:47Z</time>
      </trkpt>
      <trkpt lat="46.38289793394506" lon="8.381701000034809">
        <ele>2139.52</ele>
        <time>2023-09-10T13:56:57Z</time>
      </trkpt>
      <trkpt lat="46.382872788235545" lon="8.381863441318274">
        <ele>2138.1599999999999</ele>
        <time>2023-09-10T13:57:06Z</time>
      </trkpt>
      <trkpt lat="46.38283439911902" lon="8.38201817125082">
        <ele>2136.4299999999998</ele>
        <time>2023-09-10T13:57:15Z</time>
      </trkpt>
      <trkpt lat="46.382796429097652" lon="8.382147252559662">
        <ele>2134.7800000000002</ele>
        <time>2023-09-10T13:57:23Z</time>
      </trkpt>
      <trkpt lat="46.382765751332045" lon="8.382302317768335">
        <ele>2133.1300000000001</ele>
        <time>2023-09-10T13:57:32Z</time>
      </trkpt>
      <trkpt lat="46.382715376093984" lon="8.382504153996706">
        <ele>2131.6999999999998</ele>
        <time>2023-09-10T13:57:44Z</time>
      </trkpt>
      <trkpt lat="46.382712358608842" lon="8.382521085441113">
        <ele>2131.6700000000001</ele>
        <time>2023-09-10T13:57:45Z</time>
      </trkpt>
      <trkpt lat="46.382685452699661" lon="8.382599707692862">
        <ele>2131.21</ele>
        <time>2023-09-10T13:57:50Z</time>
      </trkpt>
      <trkpt lat="46.382677154615521" lon="8.382636504247785">
        <ele>2130.7399999999998</ele>
        <time>2023-09-10T13:57:52Z</time>
      </trkpt>
      <trkpt lat="46.382632981985807" lon="8.382754353806377">
        <ele>2129.2600000000002</ele>
        <time>2023-09-10T13:58:00Z</time>
      </trkpt>
      <trkpt lat="46.382587384432554" lon="8.382867928594351">
        <ele>2127.3200000000002</ele>
        <time>2023-09-10T13:58:08Z</time>
      </trkpt>
      <trkpt lat="46.382544552907348" lon="8.383021401241422">
        <ele>2125.8299999999999</ele>
        <time>2023-09-10T13:58:18Z</time>
      </trkpt>
      <trkpt lat="46.382536087185144" lon="8.383040679618716">
        <ele>2125.7399999999998</ele>
        <time>2023-09-10T13:58:19Z</time>
      </trkpt>
      <trkpt lat="46.382524184882641" lon="8.383111925795674">
        <ele>2124.7600000000002</ele>
        <time>2023-09-10T13:58:23Z</time>
      </trkpt>
      <trkpt lat="46.382524184882641" lon="8.383147548884153">
        <ele>2124.3400000000001</ele>
        <time>2023-09-10T13:58:25Z</time>
      </trkpt>
      <trkpt lat="46.38251781463623" lon="8.38321384973824">
        <ele>2123.3499999999999</ele>
        <time>2023-09-10T13:58:29Z</time>
      </trkpt>
      <trkpt lat="46.382504655048251" lon="8.383296160027385">
        <ele>2122.27</ele>
        <time>2023-09-10T13:58:33Z</time>
      </trkpt>
      <trkpt lat="46.382514294236898" lon="8.383434461429715">
        <ele>2120.48</ele>
        <time>2023-09-10T13:58:41Z</time>
      </trkpt>
      <trkpt lat="46.382482694461942" lon="8.383615594357252">
        <ele>2119.3499999999999</ele>
        <time>2023-09-10T13:58:51Z</time>
      </trkpt>
      <trkpt lat="46.382453357800841" lon="8.383767558261752">
        <ele>2117.4200000000001</ele>
        <time>2023-09-10T13:59:00Z</time>
      </trkpt>
      <trkpt lat="46.382439946755767" lon="8.383918013423681">
        <ele>2115.0599999999999</ele>
        <time>2023-09-10T13:59:09Z</time>
      </trkpt>
      <trkpt lat="46.382399378344417" lon="8.384072240442038">
        <ele>2113.79</ele>
        <time>2023-09-10T13:59:19Z</time>
      </trkpt>
      <trkpt lat="46.382400719448924" lon="8.384079867973924">
        <ele>2113.3499999999999</ele>
        <time>2023-09-10T13:59:22Z</time>
      </trkpt>
      <trkpt lat="46.382381692528725" lon="8.384152455255389">
        <ele>2112.4899999999998</ele>
        <time>2023-09-10T13:59:27Z</time>
      </trkpt>
      <trkpt lat="46.382372640073299" lon="8.38423409499228">
        <ele>2111.7800000000002</ele>
        <time>2023-09-10T13:59:31Z</time>
      </trkpt>
      <trkpt lat="46.382378842681646" lon="8.384269131347537">
        <ele>2111.5</ele>
        <time>2023-09-10T13:59:33Z</time>
      </trkpt>
      <trkpt lat="46.382368030026555" lon="8.384500723332167">
        <ele>2109.96</ele>
        <time>2023-09-10T13:59:45Z</time>
      </trkpt>
      <trkpt lat="46.382366605103016" lon="8.384517654776573">
        <ele>2109.8800000000001</ele>
        <time>2023-09-10T13:59:46Z</time>
      </trkpt>
      <trkpt lat="46.38236484490335" lon="8.384534921497107">
        <ele>2109.8099999999999</ele>
        <time>2023-09-10T13:59:47Z</time>
      </trkpt>
      <trkpt lat="46.382362246513367" lon="8.384553445503116">
        <ele>2109.5300000000002</ele>
        <time>2023-09-10T13:59:48Z</time>
      </trkpt>
      <trkpt lat="46.38236191123724" lon="8.384572053328157">
        <ele>2109.3299999999999</ele>
        <time>2023-09-10T13:59:49Z</time>
      </trkpt>
      <trkpt lat="46.382362078875303" lon="8.384591834619641">
        <ele>2109.0100000000002</ele>
        <time>2023-09-10T13:59:50Z</time>
      </trkpt>
      <trkpt lat="46.382358307018876" lon="8.384611532092094">
        <ele>2108.79</ele>
        <time>2023-09-10T13:59:51Z</time>
      </trkpt>
      <trkpt lat="46.382350847125053" lon="8.384629637002945">
        <ele>2108.5500000000002</ele>
        <time>2023-09-10T13:59:52Z</time>
      </trkpt>
      <trkpt lat="46.382346237078309" lon="8.384648663923144">
        <ele>2108.3099999999999</ele>
        <time>2023-09-10T13:59:53Z</time>
      </trkpt>
      <trkpt lat="46.382342549040914" lon="8.384666182100773">
        <ele>2108.2399999999998</ele>
        <time>2023-09-10T13:59:54Z</time>
      </trkpt>
      <trkpt lat="46.382343051955104" lon="8.384685963392258">
        <ele>2108.1799999999998</ele>
        <time>2023-09-10T13:59:55Z</time>
      </trkpt>
      <trkpt lat="46.382344057783484" lon="8.38470465503633">
        <ele>2108.3099999999999</ele>
        <time>2023-09-10T13:59:56Z</time>
      </trkpt>
      <trkpt lat="46.382326204329729" lon="8.384829293936491">
        <ele>2107.71</ele>
        <time>2023-09-10T14:00:03Z</time>
      </trkpt>
      <trkpt lat="46.382316900417209" lon="8.384836502373219">
        <ele>2107.52</ele>
        <time>2023-09-10T14:00:04Z</time>
      </trkpt>
      <trkpt lat="46.382310446351767" lon="8.384845722466707">
        <ele>2107.54</ele>
        <time>2023-09-10T14:00:05Z</time>
      </trkpt>
      <trkpt lat="46.382301142439246" lon="8.38490204885602">
        <ele>2107.25</ele>
        <time>2023-09-10T14:00:08Z</time>
      </trkpt>
      <trkpt lat="46.382296197116375" lon="8.384918477386236">
        <ele>2107.1799999999998</ele>
        <time>2023-09-10T14:00:09Z</time>
      </trkpt>
      <trkpt lat="46.382295861840248" lon="8.384937755763531">
        <ele>2107.1599999999999</ele>
        <time>2023-09-10T14:00:10Z</time>
      </trkpt>
      <trkpt lat="46.382276248186827" lon="8.385103214532137">
        <ele>2106.5500000000002</ele>
        <time>2023-09-10T14:00:19Z</time>
      </trkpt>
      <trkpt lat="46.382269207388163" lon="8.38521184399724">
        <ele>2105.8499999999999</ele>
        <time>2023-09-10T14:00:24Z</time>
      </trkpt>
      <trkpt lat="46.382260741665959" lon="8.385221147909761">
        <ele>2105.6900000000001</ele>
        <time>2023-09-10T14:00:25Z</time>
      </trkpt>
      <trkpt lat="46.382252778857946" lon="8.38523087091744">
        <ele>2105.3200000000002</ele>
        <time>2023-09-10T14:00:26Z</time>
      </trkpt>
      <trkpt lat="46.382250096648932" lon="8.385249981656671">
        <ele>2104.96</ele>
        <time>2023-09-10T14:00:27Z</time>
      </trkpt>
      <trkpt lat="46.382249090820551" lon="8.385270182043314">
        <ele>2105.1100000000001</ele>
        <time>2023-09-10T14:00:28Z</time>
      </trkpt>
      <trkpt lat="46.382237356156111" lon="8.385444693267345">
        <ele>2102.1999999999998</ele>
        <time>2023-09-10T14:00:37Z</time>
      </trkpt>
      <trkpt lat="46.382225956767797" lon="8.385478807613254">
        <ele>2101.3899999999999</ele>
        <time>2023-09-10T14:00:39Z</time>
      </trkpt>
      <trkpt lat="46.38221531175077" lon="8.385489117354155">
        <ele>2101.1399999999999</ele>
        <time>2023-09-10T14:00:40Z</time>
      </trkpt>
      <trkpt lat="46.382202906534076" lon="8.385502109304071">
        <ele>2100.98</ele>
        <time>2023-09-10T14:00:41Z</time>
      </trkpt>
      <trkpt lat="46.382201481610537" lon="8.385525075718761">
        <ele>2100.8600000000001</ele>
        <time>2023-09-10T14:00:42Z</time>
      </trkpt>
      <trkpt lat="46.382200056686997" lon="8.385544773191214">
        <ele>2100.7399999999998</ele>
        <time>2023-09-10T14:00:43Z</time>
      </trkpt>
      <trkpt lat="46.382176671177149" lon="8.385591125115752">
        <ele>2100.5799999999999</ele>
        <time>2023-09-10T14:00:47Z</time>
      </trkpt>
      <trkpt lat="46.382168289273977" lon="8.385602356866002">
        <ele>2100.4400000000001</ele>
        <time>2023-09-10T14:00:48Z</time>
      </trkpt>
      <trkpt lat="46.382164768874645" lon="8.385620964691043">
        <ele>2100.1300000000001</ele>
        <time>2023-09-10T14:00:49Z</time>
      </trkpt>
      <trkpt lat="46.382160326465964" lon="8.385639991611242">
        <ele>2099.8000000000002</ele>
        <time>2023-09-10T14:00:50Z</time>
      </trkpt>
      <trkpt lat="46.382152447476983" lon="8.385654659941793">
        <ele>2099.6500000000001</ele>
        <time>2023-09-10T14:00:51Z</time>
      </trkpt>
      <trkpt lat="46.382145741954446" lon="8.385667568072677">
        <ele>2099.5100000000002</ele>
        <time>2023-09-10T14:00:52Z</time>
      </trkpt>
      <trkpt lat="46.382138030603528" lon="8.385680560022593">
        <ele>2099.3099999999999</ele>
        <time>2023-09-10T14:00:53Z</time>
      </trkpt>
      <trkpt lat="46.382130570709705" lon="8.385694725438952">
        <ele>2098.9299999999998</ele>
        <time>2023-09-10T14:00:54Z</time>
      </trkpt>
      <trkpt lat="46.382133420556784" lon="8.385712243616581">
        <ele>2098.5700000000002</ele>
        <time>2023-09-10T14:00:55Z</time>
      </trkpt>
      <trkpt lat="46.382136605679989" lon="8.385730348527432">
        <ele>2098.5700000000002</ele>
        <time>2023-09-10T14:00:56Z</time>
      </trkpt>
      <trkpt lat="46.382132582366467" lon="8.385747950524092">
        <ele>2098.29</ele>
        <time>2023-09-10T14:00:57Z</time>
      </trkpt>
      <trkpt lat="46.382099725306034" lon="8.385895639657974">
        <ele>2095.8200000000002</ele>
        <time>2023-09-10T14:01:08Z</time>
      </trkpt>
      <trkpt lat="46.382097210735083" lon="8.385915923863649">
        <ele>2095.6700000000001</ele>
        <time>2023-09-10T14:01:09Z</time>
      </trkpt>
      <trkpt lat="46.382094109430909" lon="8.385933442041278">
        <ele>2095.3000000000002</ele>
        <time>2023-09-10T14:01:10Z</time>
      </trkpt>
      <trkpt lat="46.382090924307704" lon="8.385951882228255">
        <ele>2095.2199999999998</ele>
        <time>2023-09-10T14:01:11Z</time>
      </trkpt>
      <trkpt lat="46.38208975084126" lon="8.385969735682011">
        <ele>2094.8400000000001</ele>
        <time>2023-09-10T14:01:12Z</time>
      </trkpt>
      <trkpt lat="46.382088242098689" lon="8.385988511145115">
        <ele>2094.7600000000002</ele>
        <time>2023-09-10T14:01:13Z</time>
      </trkpt>
      <trkpt lat="46.3820496853441" lon="8.386080292984843">
        <ele>2093.5900000000001</ele>
        <time>2023-09-10T14:01:19Z</time>
      </trkpt>
      <trkpt lat="46.381995370611548" lon="8.386197639629245">
        <ele>2091.6300000000001</ele>
        <time>2023-09-10T14:01:27Z</time>
      </trkpt>
      <trkpt lat="46.381986988708377" lon="8.386212810873985">
        <ele>2091.1599999999999</ele>
        <time>2023-09-10T14:01:28Z</time>
      </trkpt>
      <trkpt lat="46.381980618461967" lon="8.386233765631914">
        <ele>2090.9899999999998</ele>
        <time>2023-09-10T14:01:29Z</time>
      </trkpt>
      <trkpt lat="46.381973410025239" lon="8.386248182505369">
        <ele>2090.6399999999999</ele>
        <time>2023-09-10T14:01:30Z</time>
      </trkpt>
      <trkpt lat="46.381966033950448" lon="8.386264778673649">
        <ele>2090.4200000000001</ele>
        <time>2023-09-10T14:01:31Z</time>
      </trkpt>
      <trkpt lat="46.381961507722735" lon="8.386281374841929">
        <ele>2090.3600000000001</ele>
        <time>2023-09-10T14:01:32Z</time>
      </trkpt>
      <trkpt lat="46.381940804421902" lon="8.386324625462294">
        <ele>2090.1799999999998</ele>
        <time>2023-09-10T14:01:35Z</time>
      </trkpt>
      <trkpt lat="46.381938206031919" lon="8.386345664039254">
        <ele>2089.9299999999998</ele>
        <time>2023-09-10T14:01:36Z</time>
      </trkpt>
      <trkpt lat="46.381931332871318" lon="8.386359326541424">
        <ele>2089.71</ele>
        <time>2023-09-10T14:01:37Z</time>
      </trkpt>
      <trkpt lat="46.381925633177161" lon="8.386373743414879">
        <ele>2089.4400000000001</ele>
        <time>2023-09-10T14:01:38Z</time>
      </trkpt>
      <trkpt lat="46.381912473589182" lon="8.386393524706364">
        <ele>2088.8200000000002</ele>
        <time>2023-09-10T14:01:40Z</time>
      </trkpt>
      <trkpt lat="46.381905097514391" lon="8.386410707607865">
        <ele>2088.7600000000002</ele>
        <time>2023-09-10T14:01:41Z</time>
      </trkpt>
      <trkpt lat="46.381900319829583" lon="8.386432752013207">
        <ele>2088.5500000000002</ele>
        <time>2023-09-10T14:01:42Z</time>
      </trkpt>
      <trkpt lat="46.381895961239934" lon="8.38644951581955">
        <ele>2088.2800000000002</ele>
        <time>2023-09-10T14:01:43Z</time>
      </trkpt>
      <trkpt lat="46.381891518831253" lon="8.38646518997848">
        <ele>2088.1599999999999</ele>
        <time>2023-09-10T14:01:44Z</time>
      </trkpt>
      <trkpt lat="46.38188699260354" lon="8.386479187756777">
        <ele>2087.9400000000001</ele>
        <time>2023-09-10T14:01:45Z</time>
      </trkpt>
      <trkpt lat="46.381871569901705" lon="8.386515146121383">
        <ele>2087.6100000000001</ele>
        <time>2023-09-10T14:01:48Z</time>
      </trkpt>
      <trkpt lat="46.381868217140436" lon="8.386534340679646">
        <ele>2087.52</ele>
        <time>2023-09-10T14:01:49Z</time>
      </trkpt>
      <trkpt lat="46.381865534931421" lon="8.386549009010196">
        <ele>2087.1900000000001</ele>
        <time>2023-09-10T14:01:50Z</time>
      </trkpt>
      <trkpt lat="46.381862685084343" lon="8.386564264073968">
        <ele>2087.0799999999999</ele>
        <time>2023-09-10T14:01:51Z</time>
      </trkpt>
      <trkpt lat="46.381849441677332" lon="8.386605754494667">
        <ele>2086.79</ele>
        <time>2023-09-10T14:01:54Z</time>
      </trkpt>
      <trkpt lat="46.381848771125078" lon="8.386623272672296">
        <ele>2086.5900000000001</ele>
        <time>2023-09-10T14:01:55Z</time>
      </trkpt>
      <trkpt lat="46.381846340373158" lon="8.386638695374131">
        <ele>2086.46</ele>
        <time>2023-09-10T14:01:56Z</time>
      </trkpt>
      <trkpt lat="46.38181465677917" lon="8.386724945157766">
        <ele>2085.27</ele>
        <time>2023-09-10T14:02:02Z</time>
      </trkpt>
      <trkpt lat="46.381807364523411" lon="8.386737434193492">
        <ele>2085.0500000000002</ele>
        <time>2023-09-10T14:02:03Z</time>
      </trkpt>
      <trkpt lat="46.381798395887017" lon="8.386784456670284">
        <ele>2083.9699999999998</ele>
        <time>2023-09-10T14:02:07Z</time>
      </trkpt>
      <trkpt lat="46.381798898801208" lon="8.38680281303823">
        <ele>2083.8499999999999</ele>
        <time>2023-09-10T14:02:08Z</time>
      </trkpt>
      <trkpt lat="46.381796719506383" lon="8.386815721169114">
        <ele>2083.5999999999999</ele>
        <time>2023-09-10T14:02:09Z</time>
      </trkpt>
      <trkpt lat="46.381793199107051" lon="8.386829886585474">
        <ele>2083.48</ele>
        <time>2023-09-10T14:02:10Z</time>
      </trkpt>
      <trkpt lat="46.381789678707719" lon="8.386846231296659">
        <ele>2083.2600000000002</ele>
        <time>2023-09-10T14:02:11Z</time>
      </trkpt>
      <trkpt lat="46.381784314289689" lon="8.386859307065606">
        <ele>2082.9000000000001</ele>
        <time>2023-09-10T14:02:12Z</time>
      </trkpt>
      <trkpt lat="46.381777692586184" lon="8.386871544644237">
        <ele>2082.6300000000001</ele>
        <time>2023-09-10T14:02:13Z</time>
      </trkpt>
      <trkpt lat="46.381775345653296" lon="8.38688830845058">
        <ele>2082.46</ele>
        <time>2023-09-10T14:02:14Z</time>
      </trkpt>
      <trkpt lat="46.381773585453629" lon="8.386904820799828">
        <ele>2082.2600000000002</ele>
        <time>2023-09-10T14:02:15Z</time>
      </trkpt>
      <trkpt lat="46.381769394502044" lon="8.386920327320695">
        <ele>2081.8699999999999</ele>
        <time>2023-09-10T14:02:16Z</time>
      </trkpt>
      <trkpt lat="46.38176579028368" lon="8.386936923488975">
        <ele>2081.5999999999999</ele>
        <time>2023-09-10T14:02:17Z</time>
      </trkpt>
      <trkpt lat="46.381762102246284" lon="8.386954022571445">
        <ele>2081.3699999999999</ele>
        <time>2023-09-10T14:02:18Z</time>
      </trkpt>
      <trkpt lat="46.381705440580845" lon="8.387075141072273">
        <ele>2079.75</ele>
        <time>2023-09-10T14:02:27Z</time>
      </trkpt>
      <trkpt lat="46.381687922403216" lon="8.387129120528698">
        <ele>2079.23</ele>
        <time>2023-09-10T14:02:30Z</time>
      </trkpt>
      <trkpt lat="46.381682474166155" lon="8.387143956497312">
        <ele>2078.9000000000001</ele>
        <time>2023-09-10T14:02:31Z</time>
      </trkpt>
      <trkpt lat="46.38167685829103" lon="8.38715753518045">
        <ele>2078.7199999999998</ele>
        <time>2023-09-10T14:02:32Z</time>
      </trkpt>
      <trkpt lat="46.381670236587524" lon="8.387187626212835">
        <ele>2078.1700000000001</ele>
        <time>2023-09-10T14:02:34Z</time>
      </trkpt>
      <trkpt lat="46.381648108363152" lon="8.387353923171759">
        <ele>2077.1199999999999</ele>
        <time>2023-09-10T14:02:43Z</time>
      </trkpt>
      <trkpt lat="46.381642492488027" lon="8.387548131868243">
        <ele>2075.8000000000002</ele>
        <time>2023-09-10T14:02:53Z</time>
      </trkpt>
      <trkpt lat="46.38163972645998" lon="8.38759196922183">
        <ele>2075.3699999999999</ele>
        <time>2023-09-10T14:02:55Z</time>
      </trkpt>
      <trkpt lat="46.38163972645998" lon="8.387617617845535">
        <ele>2075.1799999999998</ele>
        <time>2023-09-10T14:02:56Z</time>
      </trkpt>
      <trkpt lat="46.381635619327426" lon="8.38763446547091">
        <ele>2075.0900000000001</ele>
        <time>2023-09-10T14:02:57Z</time>
      </trkpt>
      <trkpt lat="46.38161432929337" lon="8.38767796754837">
        <ele>2074.8800000000001</ele>
        <time>2023-09-10T14:03:00Z</time>
      </trkpt>
      <trkpt lat="46.381605109199882" lon="8.387689869850874">
        <ele>2074.8200000000002</ele>
        <time>2023-09-10T14:03:01Z</time>
      </trkpt>
      <trkpt lat="46.381599828600883" lon="8.38771216571331">
        <ele>2074.77</ele>
        <time>2023-09-10T14:03:02Z</time>
      </trkpt>
      <trkpt lat="46.381572168320417" lon="8.387909391894937">
        <ele>2074.5999999999999</ele>
        <time>2023-09-10T14:03:12Z</time>
      </trkpt>
      <trkpt lat="46.38156596571207" lon="8.38794618844986">
        <ele>2074.4499999999998</ele>
        <time>2023-09-10T14:03:14Z</time>
      </trkpt>
      <trkpt lat="46.381559008732438" lon="8.387961611151695">
        <ele>2074.5999999999999</ele>
        <time>2023-09-10T14:03:15Z</time>
      </trkpt>
      <trkpt lat="46.381553560495377" lon="8.387981057167053">
        <ele>2074.5799999999999</ele>
        <time>2023-09-10T14:03:16Z</time>
      </trkpt>
      <trkpt lat="46.381550123915076" lon="8.388002514839172">
        <ele>2074.6100000000001</ele>
        <time>2023-09-10T14:03:17Z</time>
      </trkpt>
      <trkpt lat="46.381545513868332" lon="8.388020284473896">
        <ele>2074.6999999999998</ele>
        <time>2023-09-10T14:03:18Z</time>
      </trkpt>
      <trkpt lat="46.38154299929738" lon="8.388034366071224">
        <ele>2074.71</ele>
        <time>2023-09-10T14:03:19Z</time>
      </trkpt>
      <trkpt lat="46.381540400907397" lon="8.388048531487584">
        <ele>2074.8000000000002</ele>
        <time>2023-09-10T14:03:20Z</time>
      </trkpt>
      <trkpt lat="46.381534533575177" lon="8.388068899512291">
        <ele>2074.8800000000001</ele>
        <time>2023-09-10T14:03:21Z</time>
      </trkpt>
      <trkpt lat="46.381529420614243" lon="8.388089518994093">
        <ele>2075.0599999999999</ele>
        <time>2023-09-10T14:03:22Z</time>
      </trkpt>
      <trkpt lat="46.381523134186864" lon="8.388102846220136">
        <ele>2074.9899999999998</ele>
        <time>2023-09-10T14:03:23Z</time>
      </trkpt>
      <trkpt lat="46.381516847759485" lon="8.388114916160703">
        <ele>2074.9000000000001</ele>
        <time>2023-09-10T14:03:24Z</time>
      </trkpt>
      <trkpt lat="46.381466221064329" lon="8.388243746012449">
        <ele>2075.1799999999998</ele>
        <time>2023-09-10T14:03:33Z</time>
      </trkpt>
      <trkpt lat="46.381425736472011" lon="8.388389004394412">
        <ele>2075.8200000000002</ele>
        <time>2023-09-10T14:03:42Z</time>
      </trkpt>
      <trkpt lat="46.381369074806571" lon="8.388542979955673">
        <ele>2075.0100000000002</ele>
        <time>2023-09-10T14:03:52Z</time>
      </trkpt>
      <trkpt lat="46.381336720660329" lon="8.388642892241478">
        <ele>2073.3499999999999</ele>
        <time>2023-09-10T14:04:00Z</time>
      </trkpt>
      <trkpt lat="46.381312413141131" lon="8.388751018792391">
        <ele>2071.5</ele>
        <time>2023-09-10T14:04:08Z</time>
      </trkpt>
      <trkpt lat="46.381303360685706" lon="8.388826539739966">
        <ele>2070.2199999999998</ele>
        <time>2023-09-10T14:04:14Z</time>
      </trkpt>
      <trkpt lat="46.381302857771516" lon="8.388843974098563">
        <ele>2069.8800000000001</ele>
        <time>2023-09-10T14:04:15Z</time>
      </trkpt>
      <trkpt lat="46.381296822801232" lon="8.388929469510913">
        <ele>2068.5999999999999</ele>
        <time>2023-09-10T14:04:21Z</time>
      </trkpt>
      <trkpt lat="46.381291626021266" lon="8.388959560543299">
        <ele>2068.0999999999999</ele>
        <time>2023-09-10T14:04:23Z</time>
      </trkpt>
      <trkpt lat="46.381288524717093" lon="8.389042876660824">
        <ele>2066.8200000000002</ele>
        <time>2023-09-10T14:04:30Z</time>
      </trkpt>
      <trkpt lat="46.381287351250648" lon="8.389104148373008">
        <ele>2066.2399999999998</ele>
        <time>2023-09-10T14:04:34Z</time>
      </trkpt>
      <trkpt lat="46.381288524717093" lon="8.389121498912573">
        <ele>2066.0900000000001</ele>
        <time>2023-09-10T14:04:35Z</time>
      </trkpt>
      <trkpt lat="46.381280897185206" lon="8.389274217188358">
        <ele>2064.1799999999998</ele>
        <time>2023-09-10T14:04:45Z</time>
      </trkpt>
      <trkpt lat="46.381276454776525" lon="8.389291819185019">
        <ele>2063.8699999999999</ele>
        <time>2023-09-10T14:04:46Z</time>
      </trkpt>
      <trkpt lat="46.381270671263337" lon="8.389311600476503">
        <ele>2063.5500000000002</ele>
        <time>2023-09-10T14:04:47Z</time>
      </trkpt>
      <trkpt lat="46.381237143650651" lon="8.389437915757299">
        <ele>2061.4099999999999</ele>
        <time>2023-09-10T14:04:56Z</time>
      </trkpt>
      <trkpt lat="46.381199089810252" lon="8.38955819606781">
        <ele>2059.1799999999998</ele>
        <time>2023-09-10T14:05:05Z</time>
      </trkpt>
      <trkpt lat="46.381180649623275" lon="8.389646038413048">
        <ele>2057.54</ele>
        <time>2023-09-10T14:05:11Z</time>
      </trkpt>
      <trkpt lat="46.381179895251989" lon="8.389661628752947">
        <ele>2057.27</ele>
        <time>2023-09-10T14:05:12Z</time>
      </trkpt>
      <trkpt lat="46.381176626309752" lon="8.389705633744597">
        <ele>2056.3299999999999</ele>
        <time>2023-09-10T14:05:15Z</time>
      </trkpt>
      <trkpt lat="46.381190707907081" lon="8.389812922105193">
        <ele>2053.8899999999999</ele>
        <time>2023-09-10T14:05:26Z</time>
      </trkpt>
      <trkpt lat="46.38121266849339" lon="8.389990953728557">
        <ele>2050.8499999999999</ele>
        <time>2023-09-10T14:05:41Z</time>
      </trkpt>
      <trkpt lat="46.38116916641593" lon="8.390126237645745">
        <ele>2047.6700000000001</ele>
        <time>2023-09-10T14:05:51Z</time>
      </trkpt>
      <trkpt lat="46.381150726228952" lon="8.390243835747242">
        <ele>2044.52</ele>
        <time>2023-09-10T14:06:00Z</time>
      </trkpt>
      <trkpt lat="46.381124826148152" lon="8.390422789379954">
        <ele>2041.3800000000001</ele>
        <time>2023-09-10T14:06:13Z</time>
      </trkpt>
      <trkpt lat="46.381120048463345" lon="8.390446174889803">
        <ele>2041.29</ele>
        <time>2023-09-10T14:06:14Z</time>
      </trkpt>
      <trkpt lat="46.381122060120106" lon="8.390465369448066">
        <ele>2041.05</ele>
        <time>2023-09-10T14:06:15Z</time>
      </trkpt>
      <trkpt lat="46.381122395396233" lon="8.390483222901821">
        <ele>2040.8499999999999</ele>
        <time>2023-09-10T14:06:16Z</time>
      </trkpt>
      <trkpt lat="46.381124155595899" lon="8.390501160174608">
        <ele>2040.5699999999999</ele>
        <time>2023-09-10T14:06:17Z</time>
      </trkpt>
      <trkpt lat="46.381125580519438" lon="8.390518175438047">
        <ele>2040.3399999999999</ele>
        <time>2023-09-10T14:06:18Z</time>
      </trkpt>
      <trkpt lat="46.381111079826951" lon="8.390659913420677">
        <ele>2038.6199999999999</ele>
        <time>2023-09-10T14:06:25Z</time>
      </trkpt>
      <trkpt lat="46.381099764257669" lon="8.390680197626352">
        <ele>2038.3900000000001</ele>
        <time>2023-09-10T14:06:26Z</time>
      </trkpt>
      <trkpt lat="46.381099680438638" lon="8.390729399397969">
        <ele>2038.0599999999999</ele>
        <time>2023-09-10T14:06:29Z</time>
      </trkpt>
      <trkpt lat="46.381096076220274" lon="8.390761921182275">
        <ele>2037.8299999999999</ele>
        <time>2023-09-10T14:06:31Z</time>
      </trkpt>
      <trkpt lat="46.381089957430959" lon="8.390779355540872">
        <ele>2037.6700000000001</ele>
        <time>2023-09-10T14:06:32Z</time>
      </trkpt>
      <trkpt lat="46.381085682660341" lon="8.390798131003976">
        <ele>2037.49</ele>
        <time>2023-09-10T14:06:33Z</time>
      </trkpt>
      <trkpt lat="46.381083000451326" lon="8.390814978629351">
        <ele>2037.3199999999999</ele>
        <time>2023-09-10T14:06:34Z</time>
      </trkpt>
      <trkpt lat="46.381079731509089" lon="8.390830317512155">
        <ele>2037.3399999999999</ele>
        <time>2023-09-10T14:06:35Z</time>
      </trkpt>
      <trkpt lat="46.381078474223614" lon="8.390848590061069">
        <ele>2037.3399999999999</ele>
        <time>2023-09-10T14:06:36Z</time>
      </trkpt>
      <trkpt lat="46.381077719852328" lon="8.390864180400968">
        <ele>2037.2</ele>
        <time>2023-09-10T14:06:37Z</time>
      </trkpt>
      <trkpt lat="46.381068415939808" lon="8.390873735770583">
        <ele>2036.8900000000001</ele>
        <time>2023-09-10T14:06:38Z</time>
      </trkpt>
      <trkpt lat="46.381056848913431" lon="8.39089460670948">
        <ele>2036.6199999999999</ele>
        <time>2023-09-10T14:06:40Z</time>
      </trkpt>
      <trkpt lat="46.381052657961845" lon="8.390935258939862">
        <ele>2035.9400000000001</ele>
        <time>2023-09-10T14:06:43Z</time>
      </trkpt>
      <trkpt lat="46.381050143390894" lon="8.390946993604302">
        <ele>2035.8299999999999</ele>
        <time>2023-09-10T14:06:44Z</time>
      </trkpt>
      <trkpt lat="46.381044192239642" lon="8.390959734097123">
        <ele>2035.26</ele>
        <time>2023-09-10T14:06:45Z</time>
      </trkpt>
      <trkpt lat="46.381046790629625" lon="8.391021927818656">
        <ele>2034.6300000000001</ele>
        <time>2023-09-10T14:06:49Z</time>
      </trkpt>
      <trkpt lat="46.381049556657672" lon="8.391037434339523">
        <ele>2034.49</ele>
        <time>2023-09-10T14:06:50Z</time>
      </trkpt>
      <trkpt lat="46.381046874448657" lon="8.391052689403296">
        <ele>2034.27</ele>
        <time>2023-09-10T14:06:51Z</time>
      </trkpt>
      <trkpt lat="46.381044778972864" lon="8.391068950295448">
        <ele>2034.0599999999999</ele>
        <time>2023-09-10T14:06:52Z</time>
      </trkpt>
      <trkpt lat="46.38104410842061" lon="8.391085462644696">
        <ele>2034.03</ele>
        <time>2023-09-10T14:06:53Z</time>
      </trkpt>
      <trkpt lat="46.381044778972864" lon="8.391120247542858">
        <ele>2033.7</ele>
        <time>2023-09-10T14:06:55Z</time>
      </trkpt>
      <trkpt lat="46.381046958267689" lon="8.391137598082423">
        <ele>2033.24</ele>
        <time>2023-09-10T14:06:56Z</time>
      </trkpt>
      <trkpt lat="46.381042515859008" lon="8.391152517870069">
        <ele>2033.1400000000001</ele>
        <time>2023-09-10T14:06:57Z</time>
      </trkpt>
      <trkpt lat="46.381038827821612" lon="8.39116676710546">
        <ele>2033.0999999999999</ele>
        <time>2023-09-10T14:06:58Z</time>
      </trkpt>
      <trkpt lat="46.381038408726454" lon="8.391183530911803">
        <ele>2032.95</ele>
        <time>2023-09-10T14:06:59Z</time>
      </trkpt>
      <trkpt lat="46.381033211946487" lon="8.391265589743853">
        <ele>2032.48</ele>
        <time>2023-09-10T14:07:04Z</time>
      </trkpt>
      <trkpt lat="46.381033882498741" lon="8.39128453284502">
        <ele>2032.1700000000001</ele>
        <time>2023-09-10T14:07:05Z</time>
      </trkpt>
      <trkpt lat="46.381032289937139" lon="8.391300123184919">
        <ele>2032.05</ele>
        <time>2023-09-10T14:07:06Z</time>
      </trkpt>
      <trkpt lat="46.381029188632965" lon="8.391381427645683">
        <ele>2030.9100000000001</ele>
        <time>2023-09-10T14:07:12Z</time>
      </trkpt>
      <trkpt lat="46.381030026823282" lon="8.391426187008619">
        <ele>2030.4100000000001</ele>
        <time>2023-09-10T14:07:15Z</time>
      </trkpt>
      <trkpt lat="46.381026087328792" lon="8.391532134264708">
        <ele>2029</ele>
        <time>2023-09-10T14:07:23Z</time>
      </trkpt>
      <trkpt lat="46.381020387634635" lon="8.391545712947846">
        <ele>2028.8399999999999</ele>
        <time>2023-09-10T14:07:24Z</time>
      </trkpt>
      <trkpt lat="46.381018459796906" lon="8.391561219468713">
        <ele>2028.6800000000001</ele>
        <time>2023-09-10T14:07:25Z</time>
      </trkpt>
      <trkpt lat="46.381014352664351" lon="8.391603883355856">
        <ele>2028.25</ele>
        <time>2023-09-10T14:07:28Z</time>
      </trkpt>
      <trkpt lat="46.38101234100759" lon="8.391617378219962">
        <ele>2028.2</ele>
        <time>2023-09-10T14:07:29Z</time>
      </trkpt>
      <trkpt lat="46.381007898598909" lon="8.391646295785904">
        <ele>2027.76</ele>
        <time>2023-09-10T14:07:31Z</time>
      </trkpt>
      <trkpt lat="46.381013263016939" lon="8.391799181699753">
        <ele>2025.99</ele>
        <time>2023-09-10T14:07:41Z</time>
      </trkpt>
      <trkpt lat="46.381026087328792" lon="8.391862632706761">
        <ele>2025.3800000000001</ele>
        <time>2023-09-10T14:07:45Z</time>
      </trkpt>
      <trkpt lat="46.381036229431629" lon="8.391928933560848">
        <ele>2024.6400000000001</ele>
        <time>2023-09-10T14:07:49Z</time>
      </trkpt>
      <trkpt lat="46.381034720689058" lon="8.391946954652667">
        <ele>2024.49</ele>
        <time>2023-09-10T14:07:50Z</time>
      </trkpt>
      <trkpt lat="46.381035642698407" lon="8.391963886097074">
        <ele>2024.49</ele>
        <time>2023-09-10T14:07:51Z</time>
      </trkpt>
      <trkpt lat="46.381033882498741" lon="8.391983499750495">
        <ele>2024.26</ele>
        <time>2023-09-10T14:07:52Z</time>
      </trkpt>
      <trkpt lat="46.381032876670361" lon="8.392002191394568">
        <ele>2024.1099999999999</ele>
        <time>2023-09-10T14:07:53Z</time>
      </trkpt>
      <trkpt lat="46.381035810336471" lon="8.392019374296069">
        <ele>2023.9400000000001</ele>
        <time>2023-09-10T14:07:54Z</time>
      </trkpt>
      <trkpt lat="46.38103480450809" lon="8.392036054283381">
        <ele>2023.77</ele>
        <time>2023-09-10T14:07:55Z</time>
      </trkpt>
      <trkpt lat="46.38103237375617" lon="8.392053991556168">
        <ele>2023.55</ele>
        <time>2023-09-10T14:07:56Z</time>
      </trkpt>
      <trkpt lat="46.381032206118107" lon="8.392073102295399">
        <ele>2023.3599999999999</ele>
        <time>2023-09-10T14:07:57Z</time>
      </trkpt>
      <trkpt lat="46.381033128127456" lon="8.39209171012044">
        <ele>2023.3199999999999</ele>
        <time>2023-09-10T14:07:58Z</time>
      </trkpt>
      <trkpt lat="46.381035139784217" lon="8.392110485583544">
        <ele>2023.29</ele>
        <time>2023-09-10T14:07:59Z</time>
      </trkpt>
      <trkpt lat="46.381036397069693" lon="8.39212984777987">
        <ele>2023.0699999999999</ele>
        <time>2023-09-10T14:08:00Z</time>
      </trkpt>
      <trkpt lat="46.381038492545485" lon="8.392148204147816">
        <ele>2023.01</ele>
        <time>2023-09-10T14:08:01Z</time>
      </trkpt>
      <trkpt lat="46.381037319079041" lon="8.392166141420603">
        <ele>2022.8499999999999</ele>
        <time>2023-09-10T14:08:02Z</time>
      </trkpt>
      <trkpt lat="46.381035558879375" lon="8.392183324322105">
        <ele>2022.76</ele>
        <time>2023-09-10T14:08:03Z</time>
      </trkpt>
      <trkpt lat="46.381035642698407" lon="8.392201932147145">
        <ele>2022.6600000000001</ele>
        <time>2023-09-10T14:08:04Z</time>
      </trkpt>
      <trkpt lat="46.381041845306754" lon="8.392274687066674">
        <ele>2022.25</ele>
        <time>2023-09-10T14:08:08Z</time>
      </trkpt>
      <trkpt lat="46.381038324907422" lon="8.392290864139795">
        <ele>2022.23</ele>
        <time>2023-09-10T14:08:09Z</time>
      </trkpt>
      <trkpt lat="46.381034888327122" lon="8.392308633774519">
        <ele>2022.04</ele>
        <time>2023-09-10T14:08:10Z</time>
      </trkpt>
      <trkpt lat="46.381039498373866" lon="8.392481300979853">
        <ele>2020.8099999999999</ele>
        <time>2023-09-10T14:08:20Z</time>
      </trkpt>
      <trkpt lat="46.38104310259223" lon="8.392496639862657">
        <ele>2020.6099999999999</ele>
        <time>2023-09-10T14:08:21Z</time>
      </trkpt>
      <trkpt lat="46.381051819771528" lon="8.392696045339108">
        <ele>2018.4100000000001</ele>
        <time>2023-09-10T14:08:33Z</time>
      </trkpt>
      <trkpt lat="46.381054585799575" lon="8.392712809145451">
        <ele>2018.26</ele>
        <time>2023-09-10T14:08:34Z</time>
      </trkpt>
      <trkpt lat="46.381050394847989" lon="8.392727728933096">
        <ele>2018.05</ele>
        <time>2023-09-10T14:08:35Z</time>
      </trkpt>
      <trkpt lat="46.381044946610928" lon="8.392742061987519">
        <ele>2017.8</ele>
        <time>2023-09-10T14:08:36Z</time>
      </trkpt>
      <trkpt lat="46.381040923297405" lon="8.392758993431926">
        <ele>2017.5899999999999</ele>
        <time>2023-09-10T14:08:37Z</time>
      </trkpt>
      <trkpt lat="46.381039498373866" lon="8.392776763066649">
        <ele>2017.53</ele>
        <time>2023-09-10T14:08:38Z</time>
      </trkpt>
      <trkpt lat="46.381040420383215" lon="8.392795287072659">
        <ele>2017.3499999999999</ele>
        <time>2023-09-10T14:08:39Z</time>
      </trkpt>
      <trkpt lat="46.381041258573532" lon="8.392812805250287">
        <ele>2017.0599999999999</ele>
        <time>2023-09-10T14:08:40Z</time>
      </trkpt>
      <trkpt lat="46.38103966601193" lon="8.392827305942774">
        <ele>2016.8299999999999</ele>
        <time>2023-09-10T14:08:41Z</time>
      </trkpt>
      <trkpt lat="46.381039330735803" lon="8.392843650653958">
        <ele>2016.5699999999999</ele>
        <time>2023-09-10T14:08:42Z</time>
      </trkpt>
      <trkpt lat="46.381041426211596" lon="8.392860414460301">
        <ele>2016.53</ele>
        <time>2023-09-10T14:08:43Z</time>
      </trkpt>
      <trkpt lat="46.381045030429959" lon="8.392878184095025">
        <ele>2016.28</ele>
        <time>2023-09-10T14:08:44Z</time>
      </trkpt>
      <trkpt lat="46.381035055965185" lon="8.392947167158127">
        <ele>2015.74</ele>
        <time>2023-09-10T14:08:48Z</time>
      </trkpt>
      <trkpt lat="46.381029272451997" lon="8.392965523526073">
        <ele>2015.52</ele>
        <time>2023-09-10T14:08:49Z</time>
      </trkpt>
      <trkpt lat="46.381026757881045" lon="8.392983544617891">
        <ele>2015.4100000000001</ele>
        <time>2023-09-10T14:08:50Z</time>
      </trkpt>
      <trkpt lat="46.381023237481713" lon="8.393000140786171">
        <ele>2015.4000000000001</ele>
        <time>2023-09-10T14:08:51Z</time>
      </trkpt>
      <trkpt lat="46.381018040701747" lon="8.393014976754785">
        <ele>2015.24</ele>
        <time>2023-09-10T14:08:52Z</time>
      </trkpt>
      <trkpt lat="46.381015777587891" lon="8.393031153827906">
        <ele>2015.01</ele>
        <time>2023-09-10T14:08:53Z</time>
      </trkpt>
      <trkpt lat="46.381011586636305" lon="8.393048839643598">
        <ele>2014.97</ele>
        <time>2023-09-10T14:08:54Z</time>
      </trkpt>
      <trkpt lat="46.381008066236973" lon="8.393065854907036">
        <ele>2014.76</ele>
        <time>2023-09-10T14:08:55Z</time>
      </trkpt>
      <trkpt lat="46.381007060408592" lon="8.393083205446601">
        <ele>2014.6199999999999</ele>
        <time>2023-09-10T14:08:56Z</time>
      </trkpt>
      <trkpt lat="46.381005384027958" lon="8.39309929870069">
        <ele>2014.6199999999999</ele>
        <time>2023-09-10T14:08:57Z</time>
      </trkpt>
      <trkpt lat="46.381002282723784" lon="8.393114721402526">
        <ele>2014.6500000000001</ele>
        <time>2023-09-10T14:08:58Z</time>
      </trkpt>
      <trkpt lat="46.381003707647324" lon="8.39313643053174">
        <ele>2014.6800000000001</ele>
        <time>2023-09-10T14:08:59Z</time>
      </trkpt>
      <trkpt lat="46.381004462018609" lon="8.393157552927733">
        <ele>2014.8199999999999</ele>
        <time>2023-09-10T14:09:00Z</time>
      </trkpt>
      <trkpt lat="46.380997505038977" lon="8.39317113161087">
        <ele>2014.77</ele>
        <time>2023-09-10T14:09:01Z</time>
      </trkpt>
      <trkpt lat="46.380992978811264" lon="8.393187979236245">
        <ele>2014.8699999999999</ele>
        <time>2023-09-10T14:09:02Z</time>
      </trkpt>
      <trkpt lat="46.380989542230964" lon="8.393205162137747">
        <ele>2014.9000000000001</ele>
        <time>2023-09-10T14:09:03Z</time>
      </trkpt>
      <trkpt lat="46.380985183641315" lon="8.3932214230299">
        <ele>2014.78</ele>
        <time>2023-09-10T14:09:04Z</time>
      </trkpt>
      <trkpt lat="46.38098350726068" lon="8.393260901793838">
        <ele>2014.75</ele>
        <time>2023-09-10T14:09:06Z</time>
      </trkpt>
      <trkpt lat="46.380982417613268" lon="8.393282191827893">
        <ele>2014.74</ele>
        <time>2023-09-10T14:09:07Z</time>
      </trkpt>
      <trkpt lat="46.380976885557175" lon="8.393297614529729">
        <ele>2014.6900000000001</ele>
        <time>2023-09-10T14:09:08Z</time>
      </trkpt>
      <trkpt lat="46.380968168377876" lon="8.393364250659943">
        <ele>2014.5899999999999</ele>
        <time>2023-09-10T14:09:12Z</time>
      </trkpt>
      <trkpt lat="46.380969174206257" lon="8.393383445218206">
        <ele>2014.47</ele>
        <time>2023-09-10T14:09:13Z</time>
      </trkpt>
      <trkpt lat="46.380962636321783" lon="8.393400209024549">
        <ele>2014.51</ele>
        <time>2023-09-10T14:09:14Z</time>
      </trkpt>
      <trkpt lat="46.380955846980214" lon="8.393417056649923">
        <ele>2014.4100000000001</ele>
        <time>2023-09-10T14:09:15Z</time>
      </trkpt>
      <trkpt lat="46.380952745676041" lon="8.393435329198837">
        <ele>2014.3299999999999</ele>
        <time>2023-09-10T14:09:16Z</time>
      </trkpt>
      <trkpt lat="46.380950566381216" lon="8.39345502667129">
        <ele>2014.2</ele>
        <time>2023-09-10T14:09:17Z</time>
      </trkpt>
      <trkpt lat="46.380949057638645" lon="8.393490146845579">
        <ele>2013.96</ele>
        <time>2023-09-10T14:09:19Z</time>
      </trkpt>
      <trkpt lat="46.380946962162852" lon="8.393506575375795">
        <ele>2013.98</ele>
        <time>2023-09-10T14:09:20Z</time>
      </trkpt>
      <trkpt lat="46.380942855030298" lon="8.393523758277297">
        <ele>2014.1700000000001</ele>
        <time>2023-09-10T14:09:21Z</time>
      </trkpt>
      <trkpt lat="46.380939753726125" lon="8.393540689721704">
        <ele>2014.1300000000001</ele>
        <time>2023-09-10T14:09:22Z</time>
      </trkpt>
      <trkpt lat="46.380937239155173" lon="8.393557872623205">
        <ele>2014.0899999999999</ele>
        <time>2023-09-10T14:09:23Z</time>
      </trkpt>
      <trkpt lat="46.380934724584222" lon="8.393576396629214">
        <ele>2014.0699999999999</ele>
        <time>2023-09-10T14:09:24Z</time>
      </trkpt>
      <trkpt lat="46.380935562774539" lon="8.393596345558763">
        <ele>2014.1500000000001</ele>
        <time>2023-09-10T14:09:25Z</time>
      </trkpt>
      <trkpt lat="46.380935562774539" lon="8.393615372478962">
        <ele>2014.1500000000001</ele>
        <time>2023-09-10T14:09:26Z</time>
      </trkpt>
      <trkpt lat="46.380929946899414" lon="8.393632639199495">
        <ele>2014.22</ele>
        <time>2023-09-10T14:09:27Z</time>
      </trkpt>
      <trkpt lat="46.380925420671701" lon="8.393649235367775">
        <ele>2014.1400000000001</ele>
        <time>2023-09-10T14:09:28Z</time>
      </trkpt>
      <trkpt lat="46.380924247205257" lon="8.393665663897991">
        <ele>2014.05</ele>
        <time>2023-09-10T14:09:29Z</time>
      </trkpt>
      <trkpt lat="46.380921900272369" lon="8.393682427704334">
        <ele>2013.97</ele>
        <time>2023-09-10T14:09:30Z</time>
      </trkpt>
      <trkpt lat="46.380919804796576" lon="8.393698772415519">
        <ele>2014.1500000000001</ele>
        <time>2023-09-10T14:09:31Z</time>
      </trkpt>
      <trkpt lat="46.380920894443989" lon="8.393716458231211">
        <ele>2014.0699999999999</ele>
        <time>2023-09-10T14:09:32Z</time>
      </trkpt>
      <trkpt lat="46.380920140072703" lon="8.393733557313681">
        <ele>2014.01</ele>
        <time>2023-09-10T14:09:33Z</time>
      </trkpt>
      <trkpt lat="46.380917793139815" lon="8.393750656396151">
        <ele>2014.0799999999999</ele>
        <time>2023-09-10T14:09:34Z</time>
      </trkpt>
      <trkpt lat="46.380916871130466" lon="8.393769767135382">
        <ele>2014.04</ele>
        <time>2023-09-10T14:09:35Z</time>
      </trkpt>
      <trkpt lat="46.380905723199248" lon="8.393848137930036">
        <ele>2014.3900000000001</ele>
        <time>2023-09-10T14:09:40Z</time>
      </trkpt>
      <trkpt lat="46.380901196971536" lon="8.393863560631871">
        <ele>2014.49</ele>
        <time>2023-09-10T14:09:41Z</time>
      </trkpt>
      <trkpt lat="46.380884768441319" lon="8.393928520381451">
        <ele>2014.6500000000001</ele>
        <time>2023-09-10T14:09:45Z</time>
      </trkpt>
      <trkpt lat="46.380883259698749" lon="8.393942685797811">
        <ele>2014.73</ele>
        <time>2023-09-10T14:09:46Z</time>
      </trkpt>
      <trkpt lat="46.380850654095411" lon="8.394045196473599">
        <ele>2013.8499999999999</ele>
        <time>2023-09-10T14:09:53Z</time>
      </trkpt>
      <trkpt lat="46.380841266363859" lon="8.3940589427948">
        <ele>2013.6900000000001</ele>
        <time>2023-09-10T14:09:54Z</time>
      </trkpt>
      <trkpt lat="46.380821820348501" lon="8.394120298326016">
        <ele>2012.75</ele>
        <time>2023-09-10T14:09:58Z</time>
      </trkpt>
      <trkpt lat="46.380815198644996" lon="8.394137565046549">
        <ele>2012.6900000000001</ele>
        <time>2023-09-10T14:09:59Z</time>
      </trkpt>
      <trkpt lat="46.380805307999253" lon="8.394155502319336">
        <ele>2012.6600000000001</ele>
        <time>2023-09-10T14:10:00Z</time>
      </trkpt>
      <trkpt lat="46.380781587213278" lon="8.394235884770751">
        <ele>2012.05</ele>
        <time>2023-09-10T14:10:05Z</time>
      </trkpt>
      <trkpt lat="46.380778150632977" lon="8.394252480939031">
        <ele>2012.0699999999999</ele>
        <time>2023-09-10T14:10:06Z</time>
      </trkpt>
      <trkpt lat="46.380772953853011" lon="8.394268658012152">
        <ele>2011.9400000000001</ele>
        <time>2023-09-10T14:10:07Z</time>
      </trkpt>
      <trkpt lat="46.380765829235315" lon="8.39433940127492">
        <ele>2011.98</ele>
        <time>2023-09-10T14:10:11Z</time>
      </trkpt>
      <trkpt lat="46.380766499787569" lon="8.394358092918992">
        <ele>2011.8900000000001</ele>
        <time>2023-09-10T14:10:12Z</time>
      </trkpt>
      <trkpt lat="46.380765158683062" lon="8.394375946372747">
        <ele>2011.99</ele>
        <time>2023-09-10T14:10:13Z</time>
      </trkpt>
      <trkpt lat="46.380766918882728" lon="8.394485833123326">
        <ele>2012.1600000000001</ele>
        <time>2023-09-10T14:10:19Z</time>
      </trkpt>
      <trkpt lat="46.380763063207269" lon="8.394503686577082">
        <ele>2012.0799999999999</ele>
        <time>2023-09-10T14:10:20Z</time>
      </trkpt>
      <trkpt lat="46.380761889740825" lon="8.394520366564393">
        <ele>2012.0599999999999</ele>
        <time>2023-09-10T14:10:21Z</time>
      </trkpt>
      <trkpt lat="46.380763985216618" lon="8.394573591649532">
        <ele>2011.8199999999999</ele>
        <time>2023-09-10T14:10:24Z</time>
      </trkpt>
      <trkpt lat="46.380766332149506" lon="8.394591528922319">
        <ele>2011.8399999999999</ele>
        <time>2023-09-10T14:10:25Z</time>
      </trkpt>
      <trkpt lat="46.380770020186901" lon="8.394727986305952">
        <ele>2011.28</ele>
        <time>2023-09-10T14:10:32Z</time>
      </trkpt>
      <trkpt lat="46.380763566121459" lon="8.394746258854866">
        <ele>2011.0599999999999</ele>
        <time>2023-09-10T14:10:33Z</time>
      </trkpt>
      <trkpt lat="46.380756692960858" lon="8.394763693213463">
        <ele>2011.05</ele>
        <time>2023-09-10T14:10:34Z</time>
      </trkpt>
      <trkpt lat="46.380732720717788" lon="8.394872071221471">
        <ele>2010.6700000000001</ele>
        <time>2023-09-10T14:10:40Z</time>
      </trkpt>
      <trkpt lat="46.380725428462029" lon="8.394889002665877">
        <ele>2010.54</ele>
        <time>2023-09-10T14:10:41Z</time>
      </trkpt>
      <trkpt lat="46.380721405148506" lon="8.394906437024474">
        <ele>2010.54</ele>
        <time>2023-09-10T14:10:42Z</time>
      </trkpt>
      <trkpt lat="46.380717046558857" lon="8.394942479208112">
        <ele>2010.4100000000001</ele>
        <time>2023-09-10T14:10:44Z</time>
      </trkpt>
      <trkpt lat="46.38071620836854" lon="8.394960919395089">
        <ele>2010.51</ele>
        <time>2023-09-10T14:10:45Z</time>
      </trkpt>
      <trkpt lat="46.380709670484066" lon="8.394978521391749">
        <ele>2010.49</ele>
        <time>2023-09-10T14:10:46Z</time>
      </trkpt>
      <trkpt lat="46.380703300237656" lon="8.394995285198093">
        <ele>2010.53</ele>
        <time>2023-09-10T14:10:47Z</time>
      </trkpt>
      <trkpt lat="46.380699444562197" lon="8.39501322247088">
        <ele>2010.3900000000001</ele>
        <time>2023-09-10T14:10:48Z</time>
      </trkpt>
      <trkpt lat="46.380696427077055" lon="8.395034093409777">
        <ele>2010.3900000000001</ele>
        <time>2023-09-10T14:10:49Z</time>
      </trkpt>
      <trkpt lat="46.380685195326805" lon="8.395106848329306">
        <ele>2010.0899999999999</ele>
        <time>2023-09-10T14:10:53Z</time>
      </trkpt>
      <trkpt lat="46.3806785736233" lon="8.395123025402427">
        <ele>2010.01</ele>
        <time>2023-09-10T14:10:54Z</time>
      </trkpt>
      <trkpt lat="46.380677567794919" lon="8.395139118656516">
        <ele>2009.8499999999999</ele>
        <time>2023-09-10T14:10:55Z</time>
      </trkpt>
      <trkpt lat="46.38065904378891" lon="8.395341960713267">
        <ele>2008.8499999999999</ele>
        <time>2023-09-10T14:11:06Z</time>
      </trkpt>
      <trkpt lat="46.380632808431983" lon="8.395525105297566">
        <ele>2008.01</ele>
        <time>2023-09-10T14:11:16Z</time>
      </trkpt>
      <trkpt lat="46.380630880594254" lon="8.395541785284877">
        <ele>2008</ele>
        <time>2023-09-10T14:11:17Z</time>
      </trkpt>
      <trkpt lat="46.380626354366541" lon="8.395558129996061">
        <ele>2008</ele>
        <time>2023-09-10T14:11:18Z</time>
      </trkpt>
      <trkpt lat="46.380621744319797" lon="8.395574893802404">
        <ele>2007.99</ele>
        <time>2023-09-10T14:11:19Z</time>
      </trkpt>
      <trkpt lat="46.38056960888207" lon="8.395732808858156">
        <ele>2008.0599999999999</ele>
        <time>2023-09-10T14:11:29Z</time>
      </trkpt>
      <trkpt lat="46.380550330504775" lon="8.395815622061491">
        <ele>2007.4300000000001</ele>
        <time>2023-09-10T14:11:34Z</time>
      </trkpt>
      <trkpt lat="46.380543876439333" lon="8.395832469686866">
        <ele>2007.0799999999999</ele>
        <time>2023-09-10T14:11:35Z</time>
      </trkpt>
      <trkpt lat="46.380543373525143" lon="8.39586834423244">
        <ele>2006.9000000000001</ele>
        <time>2023-09-10T14:11:37Z</time>
      </trkpt>
      <trkpt lat="46.380544295534492" lon="8.395887035876513">
        <ele>2006.76</ele>
        <time>2023-09-10T14:11:38Z</time>
      </trkpt>
      <trkpt lat="46.380543122068048" lon="8.395903380587697">
        <ele>2006.5899999999999</ele>
        <time>2023-09-10T14:11:39Z</time>
      </trkpt>
      <trkpt lat="46.38053834438324" lon="8.395917546004057">
        <ele>2006.51</ele>
        <time>2023-09-10T14:11:40Z</time>
      </trkpt>
      <trkpt lat="46.380534572526813" lon="8.395933471620083">
        <ele>2006.48</ele>
        <time>2023-09-10T14:11:41Z</time>
      </trkpt>
      <trkpt lat="46.380533566698432" lon="8.395951325073838">
        <ele>2006.45</ele>
        <time>2023-09-10T14:11:42Z</time>
      </trkpt>
      <trkpt lat="46.38053297996521" lon="8.395987786352634">
        <ele>2006.3900000000001</ele>
        <time>2023-09-10T14:11:44Z</time>
      </trkpt>
      <trkpt lat="46.380535243079066" lon="8.396006813272834">
        <ele>2006.3</ele>
        <time>2023-09-10T14:11:45Z</time>
      </trkpt>
      <trkpt lat="46.380531219765544" lon="8.39604570530355">
        <ele>2006.01</ele>
        <time>2023-09-10T14:11:47Z</time>
      </trkpt>
      <trkpt lat="46.380528956651688" lon="8.396063055843115">
        <ele>2006.03</ele>
        <time>2023-09-10T14:11:48Z</time>
      </trkpt>
      <trkpt lat="46.380527867004275" lon="8.396079735830426">
        <ele>2005.96</ele>
        <time>2023-09-10T14:11:49Z</time>
      </trkpt>
      <trkpt lat="46.380496602505445" lon="8.396177804097533">
        <ele>2006</ele>
        <time>2023-09-10T14:11:55Z</time>
      </trkpt>
      <trkpt lat="46.380494339391589" lon="8.396194484084845">
        <ele>2006.27</ele>
        <time>2023-09-10T14:11:56Z</time>
      </trkpt>
      <trkpt lat="46.38048998080194" lon="8.396210577338934">
        <ele>2006.0899999999999</ele>
        <time>2023-09-10T14:11:57Z</time>
      </trkpt>
      <trkpt lat="46.380486879497766" lon="8.396226586773992">
        <ele>2006.0899999999999</ele>
        <time>2023-09-10T14:11:58Z</time>
      </trkpt>
      <trkpt lat="46.380484448745847" lon="8.396242009475827">
        <ele>2006.1500000000001</ele>
        <time>2023-09-10T14:11:59Z</time>
      </trkpt>
      <trkpt lat="46.38047874905169" lon="8.396257264539599">
        <ele>2006.21</ele>
        <time>2023-09-10T14:12:00Z</time>
      </trkpt>
      <trkpt lat="46.380473636090755" lon="8.396275620907545">
        <ele>2006.25</ele>
        <time>2023-09-10T14:12:01Z</time>
      </trkpt>
      <trkpt lat="46.380474725738168" lon="8.396296072751284">
        <ele>2006.27</ele>
        <time>2023-09-10T14:12:02Z</time>
      </trkpt>
      <trkpt lat="46.380476150661707" lon="8.396313842386007">
        <ele>2006.2</ele>
        <time>2023-09-10T14:12:03Z</time>
      </trkpt>
      <trkpt lat="46.380474977195263" lon="8.396329851821065">
        <ele>2006.1400000000001</ele>
        <time>2023-09-10T14:12:04Z</time>
      </trkpt>
      <trkpt lat="46.380474306643009" lon="8.39634669944644">
        <ele>2006.21</ele>
        <time>2023-09-10T14:12:05Z</time>
      </trkpt>
      <trkpt lat="46.380472546443343" lon="8.396366480737925">
        <ele>2006.25</ele>
        <time>2023-09-10T14:12:06Z</time>
      </trkpt>
      <trkpt lat="46.380472965538502" lon="8.396384753286839">
        <ele>2006.29</ele>
        <time>2023-09-10T14:12:07Z</time>
      </trkpt>
      <trkpt lat="46.380474222823977" lon="8.396403025835753">
        <ele>2006.1800000000001</ele>
        <time>2023-09-10T14:12:08Z</time>
      </trkpt>
      <trkpt lat="46.380473049357533" lon="8.396420627832413">
        <ele>2006.1600000000001</ele>
        <time>2023-09-10T14:12:09Z</time>
      </trkpt>
      <trkpt lat="46.380472127348185" lon="8.396438481286168">
        <ele>2006.0799999999999</ele>
        <time>2023-09-10T14:12:10Z</time>
      </trkpt>
      <trkpt lat="46.380471540614963" lon="8.396458933129907">
        <ele>2006.1500000000001</ele>
        <time>2023-09-10T14:12:11Z</time>
      </trkpt>
      <trkpt lat="46.380471037700772" lon="8.396480558440089">
        <ele>2005.9000000000001</ele>
        <time>2023-09-10T14:12:12Z</time>
      </trkpt>
      <trkpt lat="46.380466260015965" lon="8.396499082446098">
        <ele>2005.74</ele>
        <time>2023-09-10T14:12:13Z</time>
      </trkpt>
      <trkpt lat="46.38046458363533" lon="8.396516852080822">
        <ele>2005.8099999999999</ele>
        <time>2023-09-10T14:12:14Z</time>
      </trkpt>
      <trkpt lat="46.380465254187584" lon="8.396536633372307">
        <ele>2005.6900000000001</ele>
        <time>2023-09-10T14:12:15Z</time>
      </trkpt>
      <trkpt lat="46.380462823435664" lon="8.396558007225394">
        <ele>2005.6500000000001</ele>
        <time>2023-09-10T14:12:16Z</time>
      </trkpt>
      <trkpt lat="46.380462571978569" lon="8.396577285602689">
        <ele>2005.6700000000001</ele>
        <time>2023-09-10T14:12:17Z</time>
      </trkpt>
      <trkpt lat="46.380453268066049" lon="8.396610226482153">
        <ele>2005.6500000000001</ele>
        <time>2023-09-10T14:12:19Z</time>
      </trkpt>
      <trkpt lat="46.380445724353194" lon="8.396628247573972">
        <ele>2005.48</ele>
        <time>2023-09-10T14:12:20Z</time>
      </trkpt>
      <trkpt lat="46.380445891991258" lon="8.396649202331901">
        <ele>2005.49</ele>
        <time>2023-09-10T14:12:21Z</time>
      </trkpt>
      <trkpt lat="46.380447568371892" lon="8.396669235080481">
        <ele>2005.5899999999999</ele>
        <time>2023-09-10T14:12:22Z</time>
      </trkpt>
      <trkpt lat="46.380443293601274" lon="8.396689770743251">
        <ele>2005.6800000000001</ele>
        <time>2023-09-10T14:12:23Z</time>
      </trkpt>
      <trkpt lat="46.380441533401608" lon="8.396707456558943">
        <ele>2005.6199999999999</ele>
        <time>2023-09-10T14:12:24Z</time>
      </trkpt>
      <trkpt lat="46.380441030487418" lon="8.396726818755269">
        <ele>2005.8099999999999</ele>
        <time>2023-09-10T14:12:25Z</time>
      </trkpt>
      <trkpt lat="46.380438264459372" lon="8.396745845675468">
        <ele>2005.71</ele>
        <time>2023-09-10T14:12:26Z</time>
      </trkpt>
      <trkpt lat="46.380433654412627" lon="8.396761771291494">
        <ele>2005.72</ele>
        <time>2023-09-10T14:12:27Z</time>
      </trkpt>
      <trkpt lat="46.380434827879071" lon="8.396781636402011">
        <ele>2005.6900000000001</ele>
        <time>2023-09-10T14:12:28Z</time>
      </trkpt>
      <trkpt lat="46.380436588078737" lon="8.396799992769957">
        <ele>2005.6700000000001</ele>
        <time>2023-09-10T14:12:29Z</time>
      </trkpt>
      <trkpt lat="46.380434324964881" lon="8.396815499290824">
        <ele>2005.8299999999999</ele>
        <time>2023-09-10T14:12:30Z</time>
      </trkpt>
      <trkpt lat="46.380425356328487" lon="8.396851373836398">
        <ele>2005.9100000000001</ele>
        <time>2023-09-10T14:12:32Z</time>
      </trkpt>
      <trkpt lat="46.380419572815299" lon="8.396867550909519">
        <ele>2005.8299999999999</ele>
        <time>2023-09-10T14:12:33Z</time>
      </trkpt>
      <trkpt lat="46.380420243367553" lon="8.396884649991989">
        <ele>2005.8099999999999</ele>
        <time>2023-09-10T14:12:34Z</time>
      </trkpt>
      <trkpt lat="46.380421500653028" lon="8.396903090178967">
        <ele>2005.97</ele>
        <time>2023-09-10T14:12:35Z</time>
      </trkpt>
      <trkpt lat="46.380418818444014" lon="8.396917674690485">
        <ele>2005.79</ele>
        <time>2023-09-10T14:12:36Z</time>
      </trkpt>
      <trkpt lat="46.380413705483079" lon="8.396932678297162">
        <ele>2005.8199999999999</ele>
        <time>2023-09-10T14:12:37Z</time>
      </trkpt>
      <trkpt lat="46.380409095436335" lon="8.39694868773222">
        <ele>2005.78</ele>
        <time>2023-09-10T14:12:38Z</time>
      </trkpt>
      <trkpt lat="46.380401719361544" lon="8.396965116262436">
        <ele>2005.8599999999999</ele>
        <time>2023-09-10T14:12:39Z</time>
      </trkpt>
      <trkpt lat="46.380393924191594" lon="8.396980287507176">
        <ele>2005.8099999999999</ele>
        <time>2023-09-10T14:12:40Z</time>
      </trkpt>
      <trkpt lat="46.380390906706452" lon="8.396996632218361">
        <ele>2005.8499999999999</ele>
        <time>2023-09-10T14:12:41Z</time>
      </trkpt>
      <trkpt lat="46.380389733240008" lon="8.397014066576958">
        <ele>2005.8499999999999</ele>
        <time>2023-09-10T14:12:42Z</time>
      </trkpt>
      <trkpt lat="46.380388643592596" lon="8.397032422944903">
        <ele>2005.72</ele>
        <time>2023-09-10T14:12:43Z</time>
      </trkpt>
      <trkpt lat="46.380387889221311" lon="8.39705178514123">
        <ele>2005.52</ele>
        <time>2023-09-10T14:12:44Z</time>
      </trkpt>
      <trkpt lat="46.380384871736169" lon="8.397070979699493">
        <ele>2005.4000000000001</ele>
        <time>2023-09-10T14:12:45Z</time>
      </trkpt>
      <trkpt lat="46.380382105708122" lon="8.397090090438724">
        <ele>2005.3199999999999</ele>
        <time>2023-09-10T14:12:46Z</time>
      </trkpt>
      <trkpt lat="46.380382105708122" lon="8.397108362987638">
        <ele>2005.1800000000001</ele>
        <time>2023-09-10T14:12:47Z</time>
      </trkpt>
      <trkpt lat="46.380378752946854" lon="8.39712462387979">
        <ele>2005.1099999999999</ele>
        <time>2023-09-10T14:12:48Z</time>
      </trkpt>
      <trkpt lat="46.38037514872849" lon="8.397140130400658">
        <ele>2005.3699999999999</ele>
        <time>2023-09-10T14:12:49Z</time>
      </trkpt>
      <trkpt lat="46.380371209233999" lon="8.397155972197652">
        <ele>2005.3399999999999</ele>
        <time>2023-09-10T14:12:50Z</time>
      </trkpt>
      <trkpt lat="46.380366180092096" lon="8.397171143442392">
        <ele>2005.1300000000001</ele>
        <time>2023-09-10T14:12:51Z</time>
      </trkpt>
      <trkpt lat="46.380362240597606" lon="8.397186398506165">
        <ele>2004.8</ele>
        <time>2023-09-10T14:12:52Z</time>
      </trkpt>
      <trkpt lat="46.38035612180829" lon="8.397215399891138">
        <ele>2004.6900000000001</ele>
        <time>2023-09-10T14:12:54Z</time>
      </trkpt>
      <trkpt lat="46.380353607237339" lon="8.397234091535211">
        <ele>2004.48</ele>
        <time>2023-09-10T14:12:55Z</time>
      </trkpt>
      <trkpt lat="46.380348578095436" lon="8.397253956645727">
        <ele>2004.26</ele>
        <time>2023-09-10T14:12:56Z</time>
      </trkpt>
      <trkpt lat="46.380315804854035" lon="8.397473813965917">
        <ele>2003.21</ele>
        <time>2023-09-10T14:13:08Z</time>
      </trkpt>
      <trkpt lat="46.380344051867723" lon="8.397678248584271">
        <ele>2002.5599999999999</ele>
        <time>2023-09-10T14:13:20Z</time>
      </trkpt>
      <trkpt lat="46.380351930856705" lon="8.397930208593607">
        <ele>2001.47</ele>
        <time>2023-09-10T14:13:34Z</time>
      </trkpt>
      <trkpt lat="46.380304405465722" lon="8.3981360681355">
        <ele>2000.01</ele>
        <time>2023-09-10T14:13:46Z</time>
      </trkpt>
      <trkpt lat="46.380274062976241" lon="8.398402025923133">
        <ele>1999.1900000000001</ele>
        <time>2023-09-10T14:14:01Z</time>
      </trkpt>
      <trkpt lat="46.380283953621984" lon="8.398497747257352">
        <ele>1999.1500000000001</ele>
        <time>2023-09-10T14:14:08Z</time>
      </trkpt>
      <trkpt lat="46.380290240049362" lon="8.398514678701758">
        <ele>1999.3199999999999</ele>
        <time>2023-09-10T14:14:09Z</time>
      </trkpt>
      <trkpt lat="46.380291748791933" lon="8.398548122495413">
        <ele>1999.1500000000001</ele>
        <time>2023-09-10T14:14:11Z</time>
      </trkpt>
      <trkpt lat="46.380292670801282" lon="8.398566143587232">
        <ele>1999.0999999999999</ele>
        <time>2023-09-10T14:14:12Z</time>
      </trkpt>
      <trkpt lat="46.380293760448694" lon="8.398584919050336">
        <ele>1999.0899999999999</ele>
        <time>2023-09-10T14:14:13Z</time>
      </trkpt>
      <trkpt lat="46.380293928086758" lon="8.39860268868506">
        <ele>1998.96</ele>
        <time>2023-09-10T14:14:14Z</time>
      </trkpt>
      <trkpt lat="46.380294095724821" lon="8.398620542138815">
        <ele>1999.0799999999999</ele>
        <time>2023-09-10T14:14:15Z</time>
      </trkpt>
      <trkpt lat="46.380296610295773" lon="8.398714503273368">
        <ele>1998.9400000000001</ele>
        <time>2023-09-10T14:14:20Z</time>
      </trkpt>
      <trkpt lat="46.380299543961883" lon="8.398734200745821">
        <ele>1998.8499999999999</ele>
        <time>2023-09-10T14:14:21Z</time>
      </trkpt>
      <trkpt lat="46.380299963057041" lon="8.398753479123116">
        <ele>1998.8399999999999</ele>
        <time>2023-09-10T14:14:22Z</time>
      </trkpt>
      <trkpt lat="46.380301136523485" lon="8.398942239582539">
        <ele>1999.27</ele>
        <time>2023-09-10T14:14:33Z</time>
      </trkpt>
      <trkpt lat="46.380286803469062" lon="8.399145500734448">
        <ele>1999.0799999999999</ele>
        <time>2023-09-10T14:14:45Z</time>
      </trkpt>
      <trkpt lat="46.380259813740849" lon="8.399261422455311">
        <ele>1999.5699999999999</ele>
        <time>2023-09-10T14:14:53Z</time>
      </trkpt>
      <trkpt lat="46.380236679688096" lon="8.39945781044662">
        <ele>1997.0899999999999</ele>
        <time>2023-09-10T14:15:06Z</time>
      </trkpt>
      <trkpt lat="46.380185214802623" lon="8.399658054113388">
        <ele>1994.3699999999999</ele>
        <time>2023-09-10T14:15:19Z</time>
      </trkpt>
      <trkpt lat="46.380120925605297" lon="8.399865590035915">
        <ele>1991.6199999999999</ele>
        <time>2023-09-10T14:15:33Z</time>
      </trkpt>
      <trkpt lat="46.380117069929838" lon="8.399880258366466">
        <ele>1991.3900000000001</ele>
        <time>2023-09-10T14:15:34Z</time>
      </trkpt>
      <trkpt lat="46.380114974454045" lon="8.39989610016346">
        <ele>1991.3099999999999</ele>
        <time>2023-09-10T14:15:35Z</time>
      </trkpt>
      <trkpt lat="46.380112040787935" lon="8.399911941960454">
        <ele>1991.03</ele>
        <time>2023-09-10T14:15:36Z</time>
      </trkpt>
      <trkpt lat="46.38010935857892" lon="8.399927532300353">
        <ele>1990.6600000000001</ele>
        <time>2023-09-10T14:15:37Z</time>
      </trkpt>
      <trkpt lat="46.380107682198286" lon="8.399945218116045">
        <ele>1990.3800000000001</ele>
        <time>2023-09-10T14:15:38Z</time>
      </trkpt>
      <trkpt lat="46.380089912563562" lon="8.400061726570129">
        <ele>1988.78</ele>
        <time>2023-09-10T14:15:45Z</time>
      </trkpt>
      <trkpt lat="46.380090666934848" lon="8.400077652186155">
        <ele>1988.5899999999999</ele>
        <time>2023-09-10T14:15:46Z</time>
      </trkpt>
      <trkpt lat="46.380076920613647" lon="8.40031729079783">
        <ele>1985.8399999999999</ele>
        <time>2023-09-10T14:16:00Z</time>
      </trkpt>
      <trkpt lat="46.380065521225333" lon="8.400470344349742">
        <ele>1984.4200000000001</ele>
        <time>2023-09-10T14:16:10Z</time>
      </trkpt>
      <trkpt lat="46.380067365244031" lon="8.40046925470233">
        <ele>1984.25</ele>
        <time>2023-09-10T14:16:21Z</time>
      </trkpt>
      <trkpt lat="46.380067951977253" lon="8.400460537523031">
        <ele>1983.79</ele>
        <time>2023-09-10T14:16:52Z</time>
      </trkpt>
      <trkpt lat="46.380062336102128" lon="8.400488365441561">
        <ele>1983.3</ele>
        <time>2023-09-10T14:17:05Z</time>
      </trkpt>
      <trkpt lat="46.380058480426669" lon="8.400508062914014">
        <ele>1983.1199999999999</ele>
        <time>2023-09-10T14:17:06Z</time>
      </trkpt>
      <trkpt lat="46.380055043846369" lon="8.400527592748404">
        <ele>1982.8900000000001</ele>
        <time>2023-09-10T14:17:07Z</time>
      </trkpt>
      <trkpt lat="46.380054960027337" lon="8.400548296049237">
        <ele>1982.6099999999999</ele>
        <time>2023-09-10T14:17:08Z</time>
      </trkpt>
      <trkpt lat="46.380054205656052" lon="8.400567406788468">
        <ele>1982.27</ele>
        <time>2023-09-10T14:17:09Z</time>
      </trkpt>
      <trkpt lat="46.380052780732512" lon="8.400586685165763">
        <ele>1982.0599999999999</ele>
        <time>2023-09-10T14:17:10Z</time>
      </trkpt>
      <trkpt lat="46.380052529275417" lon="8.400606969371438">
        <ele>1981.9100000000001</ele>
        <time>2023-09-10T14:17:11Z</time>
      </trkpt>
      <trkpt lat="46.38004775159061" lon="8.400666061788797">
        <ele>1981.6500000000001</ele>
        <time>2023-09-10T14:17:14Z</time>
      </trkpt>
      <trkpt lat="46.380044398829341" lon="8.400685759261251">
        <ele>1981.5899999999999</ele>
        <time>2023-09-10T14:17:15Z</time>
      </trkpt>
      <trkpt lat="46.380045739933848" lon="8.400706714019179">
        <ele>1981.4100000000001</ele>
        <time>2023-09-10T14:17:16Z</time>
      </trkpt>
      <trkpt lat="46.380050014704466" lon="8.400729261338711">
        <ele>1981.28</ele>
        <time>2023-09-10T14:17:17Z</time>
      </trkpt>
      <trkpt lat="46.380053702741861" lon="8.400750299915671">
        <ele>1981.1700000000001</ele>
        <time>2023-09-10T14:17:18Z</time>
      </trkpt>
      <trkpt lat="46.380056636407971" lon="8.400771589949727">
        <ele>1981.03</ele>
        <time>2023-09-10T14:17:19Z</time>
      </trkpt>
      <trkpt lat="46.380062755197287" lon="8.40085188858211">
        <ele>1980.9100000000001</ele>
        <time>2023-09-10T14:17:23Z</time>
      </trkpt>
      <trkpt lat="46.380064096301794" lon="8.400872172787786">
        <ele>1980.77</ele>
        <time>2023-09-10T14:17:24Z</time>
      </trkpt>
      <trkpt lat="46.380063593387604" lon="8.40089337900281">
        <ele>1980.71</ele>
        <time>2023-09-10T14:17:25Z</time>
      </trkpt>
      <trkpt lat="46.380066024139524" lon="8.400916680693626">
        <ele>1980.5799999999999</ele>
        <time>2023-09-10T14:17:26Z</time>
      </trkpt>
      <trkpt lat="46.380067029967904" lon="8.400940736755729">
        <ele>1980.5599999999999</ele>
        <time>2023-09-10T14:17:27Z</time>
      </trkpt>
      <trkpt lat="46.380067616701126" lon="8.400964960455895">
        <ele>1980.53</ele>
        <time>2023-09-10T14:17:28Z</time>
      </trkpt>
      <trkpt lat="46.380066024139524" lon="8.400986837223172">
        <ele>1980.4200000000001</ele>
        <time>2023-09-10T14:17:29Z</time>
      </trkpt>
      <trkpt lat="46.380060072988272" lon="8.401003181934357">
        <ele>1980.3499999999999</ele>
        <time>2023-09-10T14:17:30Z</time>
      </trkpt>
      <trkpt lat="46.380052277818322" lon="8.401018688455224">
        <ele>1980.23</ele>
        <time>2023-09-10T14:17:31Z</time>
      </trkpt>
      <trkpt lat="46.380043812096119" lon="8.401036793366075">
        <ele>1980.29</ele>
        <time>2023-09-10T14:17:32Z</time>
      </trkpt>
      <trkpt lat="46.380038447678089" lon="8.401057412847877">
        <ele>1980.4400000000001</ele>
        <time>2023-09-10T14:17:33Z</time>
      </trkpt>
      <trkpt lat="46.380032580345869" lon="8.401076272130013">
        <ele>1980.4200000000001</ele>
        <time>2023-09-10T14:17:34Z</time>
      </trkpt>
      <trkpt lat="46.380030568689108" lon="8.401096221059561">
        <ele>1980.24</ele>
        <time>2023-09-10T14:17:35Z</time>
      </trkpt>
      <trkpt lat="46.380030401051044" lon="8.401118433102965">
        <ele>1980.1099999999999</ele>
        <time>2023-09-10T14:17:36Z</time>
      </trkpt>
      <trkpt lat="46.380027215927839" lon="8.401140058413148">
        <ele>1980.01</ele>
        <time>2023-09-10T14:17:37Z</time>
      </trkpt>
      <trkpt lat="46.380021013319492" lon="8.401203090324998">
        <ele>1979.9100000000001</ele>
        <time>2023-09-10T14:17:40Z</time>
      </trkpt>
      <trkpt lat="46.380016654729843" lon="8.401222368702292">
        <ele>1979.71</ele>
        <time>2023-09-10T14:17:41Z</time>
      </trkpt>
      <trkpt lat="46.380015145987272" lon="8.401241563260555">
        <ele>1979.6900000000001</ele>
        <time>2023-09-10T14:17:42Z</time>
      </trkpt>
      <trkpt lat="46.380006512627006" lon="8.401361089199781">
        <ele>1979.3199999999999</ele>
        <time>2023-09-10T14:17:49Z</time>
      </trkpt>
      <trkpt lat="46.38001061975956" lon="8.40137617662549">
        <ele>1979.3199999999999</ele>
        <time>2023-09-10T14:17:50Z</time>
      </trkpt>
      <trkpt lat="46.380011206492782" lon="8.401393191888928">
        <ele>1978.98</ele>
        <time>2023-09-10T14:17:51Z</time>
      </trkpt>
      <trkpt lat="46.380008775740862" lon="8.401412470266223">
        <ele>1979.47</ele>
        <time>2023-09-10T14:17:52Z</time>
      </trkpt>
      <trkpt lat="46.380006931722164" lon="8.401430826634169">
        <ele>1979.0699999999999</ele>
        <time>2023-09-10T14:17:53Z</time>
      </trkpt>
      <trkpt lat="46.380004920065403" lon="8.40144800953567">
        <ele>1978.4400000000001</ele>
        <time>2023-09-10T14:17:54Z</time>
      </trkpt>
      <trkpt lat="46.380004500970244" lon="8.401504419744015">
        <ele>1978.6099999999999</ele>
        <time>2023-09-10T14:17:58Z</time>
      </trkpt>
      <trkpt lat="46.380004500970244" lon="8.401519926264882">
        <ele>1978.3599999999999</ele>
        <time>2023-09-10T14:17:59Z</time>
      </trkpt>
      <trkpt lat="46.379968961700797" lon="8.401687564328313">
        <ele>1977.8099999999999</ele>
        <time>2023-09-10T14:18:10Z</time>
      </trkpt>
      <trkpt lat="46.379940630868077" lon="8.401964837685227">
        <ele>1976.1099999999999</ele>
        <time>2023-09-10T14:18:26Z</time>
      </trkpt>
      <trkpt lat="46.379925040528178" lon="8.402212942019105">
        <ele>1976.3</ele>
        <time>2023-09-10T14:18:40Z</time>
      </trkpt>
      <trkpt lat="46.379925040528178" lon="8.402279578149319">
        <ele>1976.3900000000001</ele>
        <time>2023-09-10T14:18:44Z</time>
      </trkpt>
      <trkpt lat="46.379929147660732" lon="8.402297263965011">
        <ele>1976.48</ele>
        <time>2023-09-10T14:18:45Z</time>
      </trkpt>
      <trkpt lat="46.379930740222335" lon="8.402331965044141">
        <ele>1976.3599999999999</ele>
        <time>2023-09-10T14:18:47Z</time>
      </trkpt>
      <trkpt lat="46.379933506250381" lon="8.402348645031452">
        <ele>1976.26</ele>
        <time>2023-09-10T14:18:48Z</time>
      </trkpt>
      <trkpt lat="46.379934092983603" lon="8.402366247028112">
        <ele>1976.3800000000001</ele>
        <time>2023-09-10T14:18:49Z</time>
      </trkpt>
      <trkpt lat="46.379934344440699" lon="8.40238519012928">
        <ele>1976.3599999999999</ele>
        <time>2023-09-10T14:18:50Z</time>
      </trkpt>
      <trkpt lat="46.379934344440699" lon="8.402404384687543">
        <ele>1976.26</ele>
        <time>2023-09-10T14:18:51Z</time>
      </trkpt>
      <trkpt lat="46.379935266450047" lon="8.402467668056488">
        <ele>1976.23</ele>
        <time>2023-09-10T14:18:54Z</time>
      </trkpt>
      <trkpt lat="46.379931326955557" lon="8.402487952262163">
        <ele>1976.04</ele>
        <time>2023-09-10T14:18:55Z</time>
      </trkpt>
      <trkpt lat="46.379927303642035" lon="8.402504380792379">
        <ele>1976.01</ele>
        <time>2023-09-10T14:18:56Z</time>
      </trkpt>
      <trkpt lat="46.379920598119497" lon="8.402521898970008">
        <ele>1976.05</ele>
        <time>2023-09-10T14:18:57Z</time>
      </trkpt>
      <trkpt lat="46.379912132397294" lon="8.40253908187151">
        <ele>1975.8800000000001</ele>
        <time>2023-09-10T14:18:58Z</time>
      </trkpt>
      <trkpt lat="46.379904923960567" lon="8.402554504573345">
        <ele>1975.8699999999999</ele>
        <time>2023-09-10T14:18:59Z</time>
      </trkpt>
      <trkpt lat="46.379899308085442" lon="8.402573447674513">
        <ele>1975.9200000000001</ele>
        <time>2023-09-10T14:19:00Z</time>
      </trkpt>
      <trkpt lat="46.379891345277429" lon="8.402589792385697">
        <ele>1975.8800000000001</ele>
        <time>2023-09-10T14:19:01Z</time>
      </trkpt>
      <trkpt lat="46.379882460460067" lon="8.402604125440121">
        <ele>1975.8499999999999</ele>
        <time>2023-09-10T14:19:02Z</time>
      </trkpt>
      <trkpt lat="46.379875419661403" lon="8.402617620304227">
        <ele>1975.9000000000001</ele>
        <time>2023-09-10T14:19:03Z</time>
      </trkpt>
      <trkpt lat="46.379831163212657" lon="8.402751982212067">
        <ele>1975.98</ele>
        <time>2023-09-10T14:19:12Z</time>
      </trkpt>
      <trkpt lat="46.379826888442039" lon="8.402769835665822">
        <ele>1975.8199999999999</ele>
        <time>2023-09-10T14:19:13Z</time>
      </trkpt>
      <trkpt lat="46.379820266738534" lon="8.402787353843451">
        <ele>1975.6300000000001</ele>
        <time>2023-09-10T14:19:14Z</time>
      </trkpt>
      <trkpt lat="46.379812806844711" lon="8.402805710211396">
        <ele>1975.55</ele>
        <time>2023-09-10T14:19:15Z</time>
      </trkpt>
      <trkpt lat="46.379803167656064" lon="8.402825742959976">
        <ele>1975.3499999999999</ele>
        <time>2023-09-10T14:19:16Z</time>
      </trkpt>
      <trkpt lat="46.379794618114829" lon="8.4028400760144">
        <ele>1975.22</ele>
        <time>2023-09-10T14:19:17Z</time>
      </trkpt>
      <trkpt lat="46.379785900935531" lon="8.402854073792696">
        <ele>1975.0999999999999</ele>
        <time>2023-09-10T14:19:18Z</time>
      </trkpt>
      <trkpt lat="46.379777602851391" lon="8.40286890976131">
        <ele>1974.96</ele>
        <time>2023-09-10T14:19:19Z</time>
      </trkpt>
      <trkpt lat="46.379693867638707" lon="8.403035290539265">
        <ele>1973.54</ele>
        <time>2023-09-10T14:19:30Z</time>
      </trkpt>
      <trkpt lat="46.379650449380279" lon="8.403125060722232">
        <ele>1973.1800000000001</ele>
        <time>2023-09-10T14:19:36Z</time>
      </trkpt>
      <trkpt lat="46.3796441629529" lon="8.403140315786004">
        <ele>1973.0599999999999</ele>
        <time>2023-09-10T14:19:37Z</time>
      </trkpt>
      <trkpt lat="46.379519272595644" lon="8.403319269418716">
        <ele>1970.6199999999999</ele>
        <time>2023-09-10T14:19:51Z</time>
      </trkpt>
      <trkpt lat="46.379413325339556" lon="8.403402753174305">
        <ele>1968.9400000000001</ele>
        <time>2023-09-10T14:20:01Z</time>
      </trkpt>
      <trkpt lat="46.379286088049412" lon="8.403495876118541">
        <ele>1967.04</ele>
        <time>2023-09-10T14:20:13Z</time>
      </trkpt>
      <trkpt lat="46.379273682832718" lon="8.403496630489826">
        <ele>1966.8900000000001</ele>
        <time>2023-09-10T14:20:14Z</time>
      </trkpt>
      <trkpt lat="46.379263121634722" lon="8.403496043756604">
        <ele>1966.5699999999999</ele>
        <time>2023-09-10T14:20:15Z</time>
      </trkpt>
      <trkpt lat="46.379202269017696" lon="8.403472071513534">
        <ele>1963.74</ele>
        <time>2023-09-10T14:20:22Z</time>
      </trkpt>
      <trkpt lat="46.379169160500169" lon="8.403468215838075">
        <ele>1962.8199999999999</ele>
        <time>2023-09-10T14:20:25Z</time>
      </trkpt>
      <trkpt lat="46.379157090559602" lon="8.403466958552599">
        <ele>1962.45</ele>
        <time>2023-09-10T14:20:26Z</time>
      </trkpt>
      <trkpt lat="46.379146696999669" lon="8.403462516143918">
        <ele>1962.1800000000001</ele>
        <time>2023-09-10T14:20:27Z</time>
      </trkpt>
      <trkpt lat="46.379092717543244" lon="8.403405100107193">
        <ele>1960.26</ele>
        <time>2023-09-10T14:20:33Z</time>
      </trkpt>
      <trkpt lat="46.3790881074965" lon="8.403388923034072">
        <ele>1960.1700000000001</ele>
        <time>2023-09-10T14:20:34Z</time>
      </trkpt>
      <trkpt lat="46.37908517383039" lon="8.403371153399348">
        <ele>1959.8800000000001</ele>
        <time>2023-09-10T14:20:35Z</time>
      </trkpt>
      <trkpt lat="46.379084838554263" lon="8.403354808688164">
        <ele>1959.6500000000001</ele>
        <time>2023-09-10T14:20:36Z</time>
      </trkpt>
      <trkpt lat="46.379087772220373" lon="8.40333997271955">
        <ele>1959.53</ele>
        <time>2023-09-10T14:20:37Z</time>
      </trkpt>
      <trkpt lat="46.379092466086149" lon="8.403325639665127">
        <ele>1959.29</ele>
        <time>2023-09-10T14:20:38Z</time>
      </trkpt>
      <trkpt lat="46.379123730584979" lon="8.403263110667467">
        <ele>1958.0899999999999</ele>
        <time>2023-09-10T14:20:43Z</time>
      </trkpt>
      <trkpt lat="46.379126664251089" lon="8.403232600539923">
        <ele>1957.5</ele>
        <time>2023-09-10T14:20:45Z</time>
      </trkpt>
      <trkpt lat="46.379125993698835" lon="8.403214663267136">
        <ele>1957.3699999999999</ele>
        <time>2023-09-10T14:20:46Z</time>
      </trkpt>
      <trkpt lat="46.37912817299366" lon="8.403196977451444">
        <ele>1957.05</ele>
        <time>2023-09-10T14:20:47Z</time>
      </trkpt>
      <trkpt lat="46.379131190478802" lon="8.403181470930576">
        <ele>1956.7</ele>
        <time>2023-09-10T14:20:48Z</time>
      </trkpt>
      <trkpt lat="46.379132363945246" lon="8.403166718780994">
        <ele>1956.5999999999999</ele>
        <time>2023-09-10T14:20:49Z</time>
      </trkpt>
      <trkpt lat="46.379130436107516" lon="8.403124222531915">
        <ele>1955.8800000000001</ele>
        <time>2023-09-10T14:20:52Z</time>
      </trkpt>
      <trkpt lat="46.379091124981642" lon="8.403060855343938">
        <ele>1955.2</ele>
        <time>2023-09-10T14:20:58Z</time>
      </trkpt>
      <trkpt lat="46.37907930649817" lon="8.403054233640432">
        <ele>1955.1099999999999</ele>
        <time>2023-09-10T14:20:59Z</time>
      </trkpt>
      <trkpt lat="46.379016526043415" lon="8.403083151206374">
        <ele>1954.1300000000001</ele>
        <time>2023-09-10T14:21:09Z</time>
      </trkpt>
      <trkpt lat="46.379004288464785" lon="8.403109973296523">
        <ele>1953.8099999999999</ele>
        <time>2023-09-10T14:21:11Z</time>
      </trkpt>
      <trkpt lat="46.378926923498511" lon="8.403239473700523">
        <ele>1951.3099999999999</ele>
        <time>2023-09-10T14:21:22Z</time>
      </trkpt>
      <trkpt lat="46.37890244834125" lon="8.403274845331907">
        <ele>1950.6400000000001</ele>
        <time>2023-09-10T14:21:35Z</time>
      </trkpt>
      <trkpt lat="46.378858024254441" lon="8.403335865586996">
        <ele>1949</ele>
        <time>2023-09-10T14:21:49Z</time>
      </trkpt>
      <trkpt lat="46.378819802775979" lon="8.40339420363307">
        <ele>1947.9000000000001</ele>
        <time>2023-09-10T14:21:54Z</time>
      </trkpt>
      <trkpt lat="46.378736905753613" lon="8.403511801734567">
        <ele>1944.8599999999999</ele>
        <time>2023-09-10T14:22:06Z</time>
      </trkpt>
      <trkpt lat="46.378667335957289" lon="8.40358866378665">
        <ele>1942.6800000000001</ele>
        <time>2023-09-10T14:22:15Z</time>
      </trkpt>
      <trkpt lat="46.378641687333584" lon="8.403610959649086">
        <ele>1942.1400000000001</ele>
        <time>2023-09-10T14:22:18Z</time>
      </trkpt>
      <trkpt lat="46.378631964325905" lon="8.403620347380638">
        <ele>1941.8299999999999</ele>
        <time>2023-09-10T14:22:19Z</time>
      </trkpt>
      <trkpt lat="46.378514114767313" lon="8.403759989887476">
        <ele>1938.75</ele>
        <time>2023-09-10T14:22:32Z</time>
      </trkpt>
      <trkpt lat="46.378448735922575" lon="8.403866356238723">
        <ele>1936.0799999999999</ele>
        <time>2023-09-10T14:22:42Z</time>
      </trkpt>
      <trkpt lat="46.378446472808719" lon="8.403935506939888">
        <ele>1935.1300000000001</ele>
        <time>2023-09-10T14:22:46Z</time>
      </trkpt>
      <trkpt lat="46.378447730094194" lon="8.403952270746231">
        <ele>1934.78</ele>
        <time>2023-09-10T14:22:47Z</time>
      </trkpt>
      <trkpt lat="46.378451669588685" lon="8.40396735817194">
        <ele>1934.5699999999999</ele>
        <time>2023-09-10T14:22:48Z</time>
      </trkpt>
      <trkpt lat="46.37846072204411" lon="8.404040783643723">
        <ele>1932.5599999999999</ele>
        <time>2023-09-10T14:22:53Z</time>
      </trkpt>
      <trkpt lat="46.378440856933594" lon="8.404097110033035">
        <ele>1931.76</ele>
        <time>2023-09-10T14:22:57Z</time>
      </trkpt>
      <trkpt lat="46.378432475030422" lon="8.404112113639712">
        <ele>1931.49</ele>
        <time>2023-09-10T14:22:58Z</time>
      </trkpt>
      <trkpt lat="46.378406072035432" lon="8.40412468649447">
        <ele>1930.8</ele>
        <time>2023-09-10T14:23:02Z</time>
      </trkpt>
      <trkpt lat="46.378385201096535" lon="8.404114879667759">
        <ele>1930.28</ele>
        <time>2023-09-10T14:23:04Z</time>
      </trkpt>
      <trkpt lat="46.378376316279173" lon="8.404107000678778">
        <ele>1930</ele>
        <time>2023-09-10T14:23:05Z</time>
      </trkpt>
      <trkpt lat="46.378366677090526" lon="8.404099540784955">
        <ele>1929.6300000000001</ele>
        <time>2023-09-10T14:23:06Z</time>
      </trkpt>
      <trkpt lat="46.378234410658479" lon="8.403998790308833">
        <ele>1927.1800000000001</ele>
        <time>2023-09-10T14:23:19Z</time>
      </trkpt>
      <trkpt lat="46.378215719014406" lon="8.403961239382625">
        <ele>1926.3</ele>
        <time>2023-09-10T14:23:22Z</time>
      </trkpt>
      <trkpt lat="46.37821345590055" lon="8.403946571052074">
        <ele>1925.9400000000001</ele>
        <time>2023-09-10T14:23:23Z</time>
      </trkpt>
      <trkpt lat="46.378187807276845" lon="8.403881946578622">
        <ele>1924.1400000000001</ele>
        <time>2023-09-10T14:23:28Z</time>
      </trkpt>
      <trkpt lat="46.378184705972672" lon="8.403805671259761">
        <ele>1922.46</ele>
        <time>2023-09-10T14:23:33Z</time>
      </trkpt>
      <trkpt lat="46.378175569698215" lon="8.403727132827044">
        <ele>1921.26</ele>
        <time>2023-09-10T14:23:38Z</time>
      </trkpt>
      <trkpt lat="46.378168696537614" lon="8.403713721781969">
        <ele>1921.3199999999999</ele>
        <time>2023-09-10T14:23:39Z</time>
      </trkpt>
      <trkpt lat="46.378158470615745" lon="8.403705339878798">
        <ele>1921.0599999999999</ele>
        <time>2023-09-10T14:23:40Z</time>
      </trkpt>
      <trkpt lat="46.378085548058152" lon="8.403695365414023">
        <ele>1919.1600000000001</ele>
        <time>2023-09-10T14:23:51Z</time>
      </trkpt>
      <trkpt lat="46.378069873899221" lon="8.403737274929881">
        <ele>1918.02</ele>
        <time>2023-09-10T14:23:55Z</time>
      </trkpt>
      <trkpt lat="46.378055792301893" lon="8.403861913830042">
        <ele>1915</ele>
        <time>2023-09-10T14:24:04Z</time>
      </trkpt>
      <trkpt lat="46.378041375428438" lon="8.403916982933879">
        <ele>1913.6099999999999</ele>
        <time>2023-09-10T14:24:08Z</time>
      </trkpt>
      <trkpt lat="46.378033915534616" lon="8.403928130865097">
        <ele>1913.3399999999999</ele>
        <time>2023-09-10T14:24:09Z</time>
      </trkpt>
      <trkpt lat="46.377999382093549" lon="8.404058134183288">
        <ele>1910.23</ele>
        <time>2023-09-10T14:24:18Z</time>
      </trkpt>
      <trkpt lat="46.37797549366951" lon="8.404141031205654">
        <ele>1908.8</ele>
        <time>2023-09-10T14:24:23Z</time>
      </trkpt>
      <trkpt lat="46.377948923036456" lon="8.404277991503477">
        <ele>1905.78</ele>
        <time>2023-09-10T14:24:33Z</time>
      </trkpt>
      <trkpt lat="46.377928890287876" lon="8.404332641512156">
        <ele>1904.8499999999999</ele>
        <time>2023-09-10T14:24:40Z</time>
      </trkpt>
      <trkpt lat="46.377959987148643" lon="8.404406066983938">
        <ele>1903.8499999999999</ele>
        <time>2023-09-10T14:24:46Z</time>
      </trkpt>
      <trkpt lat="46.377966944128275" lon="8.40442031621933">
        <ele>1903.6900000000001</ele>
        <time>2023-09-10T14:24:47Z</time>
      </trkpt>
      <trkpt lat="46.37797356583178" lon="8.404433475807309">
        <ele>1903.6099999999999</ele>
        <time>2023-09-10T14:24:48Z</time>
      </trkpt>
      <trkpt lat="46.378037938848138" lon="8.404531460255384">
        <ele>1902.1900000000001</ele>
        <time>2023-09-10T14:24:59Z</time>
      </trkpt>
      <trkpt lat="46.37805855832994" lon="8.404562557116151">
        <ele>1900.5799999999999</ele>
        <time>2023-09-10T14:25:02Z</time>
      </trkpt>
      <trkpt lat="46.378053026273847" lon="8.40463824570179">
        <ele>1898.98</ele>
        <time>2023-09-10T14:25:07Z</time>
      </trkpt>
      <trkpt lat="46.378045147284865" lon="8.404656015336514">
        <ele>1898.6199999999999</ele>
        <time>2023-09-10T14:25:08Z</time>
      </trkpt>
      <trkpt lat="46.378028383478522" lon="8.404848296195269">
        <ele>1896.26</ele>
        <time>2023-09-10T14:25:20Z</time>
      </trkpt>
      <trkpt lat="46.377996951341629" lon="8.404979640617967">
        <ele>1895.54</ele>
        <time>2023-09-10T14:25:30Z</time>
      </trkpt>
      <trkpt lat="46.377986976876855" lon="8.405002942308784">
        <ele>1895.2</ele>
        <time>2023-09-10T14:25:32Z</time>
      </trkpt>
      <trkpt lat="46.377985719591379" lon="8.405018700286746">
        <ele>1895.01</ele>
        <time>2023-09-10T14:25:33Z</time>
      </trkpt>
      <trkpt lat="46.377991922199726" lon="8.405087934806943">
        <ele>1893.71</ele>
        <time>2023-09-10T14:25:38Z</time>
      </trkpt>
      <trkpt lat="46.377988066524267" lon="8.405158761888742">
        <ele>1892.6500000000001</ele>
        <time>2023-09-10T14:25:43Z</time>
      </trkpt>
      <trkpt lat="46.377990916371346" lon="8.405175358057022">
        <ele>1892.55</ele>
        <time>2023-09-10T14:25:44Z</time>
      </trkpt>
      <trkpt lat="46.377992425113916" lon="8.405209053307772">
        <ele>1892.3499999999999</ele>
        <time>2023-09-10T14:25:46Z</time>
      </trkpt>
      <trkpt lat="46.377982534468174" lon="8.405332770198584">
        <ele>1890.96</ele>
        <time>2023-09-10T14:25:54Z</time>
      </trkpt>
      <trkpt lat="46.37793350033462" lon="8.405471825972199">
        <ele>1888.3299999999999</ele>
        <time>2023-09-10T14:26:06Z</time>
      </trkpt>
      <trkpt lat="46.37791832908988" lon="8.405462857335806">
        <ele>1887.9100000000001</ele>
        <time>2023-09-10T14:26:12Z</time>
      </trkpt>
      <trkpt lat="46.377910785377026" lon="8.405452882871032">
        <ele>1887.73</ele>
        <time>2023-09-10T14:26:13Z</time>
      </trkpt>
      <trkpt lat="46.377901900559664" lon="8.405423378571868">
        <ele>1887.45</ele>
        <time>2023-09-10T14:26:15Z</time>
      </trkpt>
      <trkpt lat="46.377900140359998" lon="8.40540636330843">
        <ele>1887.3</ele>
        <time>2023-09-10T14:26:16Z</time>
      </trkpt>
      <trkpt lat="46.377889076247811" lon="8.405245766043663">
        <ele>1884.0999999999999</ele>
        <time>2023-09-10T14:26:26Z</time>
      </trkpt>
      <trkpt lat="46.377843478694558" lon="8.405116098001599">
        <ele>1881.5899999999999</ele>
        <time>2023-09-10T14:26:37Z</time>
      </trkpt>
      <trkpt lat="46.37782453559339" lon="8.405164293944836">
        <ele>1880.9200000000001</ele>
        <time>2023-09-10T14:26:42Z</time>
      </trkpt>
      <trkpt lat="46.377821015194058" lon="8.405182147398591">
        <ele>1880.6600000000001</ele>
        <time>2023-09-10T14:26:43Z</time>
      </trkpt>
      <trkpt lat="46.377816740423441" lon="8.405200587585568">
        <ele>1880.3499999999999</ele>
        <time>2023-09-10T14:26:44Z</time>
      </trkpt>
      <trkpt lat="46.377808945253491" lon="8.405216848477721">
        <ele>1880.1600000000001</ele>
        <time>2023-09-10T14:26:45Z</time>
      </trkpt>
      <trkpt lat="46.377801485359669" lon="8.405229588970542">
        <ele>1879.6800000000001</ele>
        <time>2023-09-10T14:26:46Z</time>
      </trkpt>
      <trkpt lat="46.377795450389385" lon="8.405244424939156">
        <ele>1879.4200000000001</ele>
        <time>2023-09-10T14:26:47Z</time>
      </trkpt>
      <trkpt lat="46.377788661047816" lon="8.405277701094747">
        <ele>1878.95</ele>
        <time>2023-09-10T14:26:49Z</time>
      </trkpt>
      <trkpt lat="46.377794360741973" lon="8.405424132943153">
        <ele>1876.3699999999999</ele>
        <time>2023-09-10T14:26:59Z</time>
      </trkpt>
      <trkpt lat="46.377799306064844" lon="8.405449781566858">
        <ele>1875.9100000000001</ele>
        <time>2023-09-10T14:27:01Z</time>
      </trkpt>
      <trkpt lat="46.377805341035128" lon="8.405522033572197">
        <ele>1875.0699999999999</ele>
        <time>2023-09-10T14:27:06Z</time>
      </trkpt>
      <trkpt lat="46.377774495631456" lon="8.405664777383208">
        <ele>1872.95</ele>
        <time>2023-09-10T14:27:16Z</time>
      </trkpt>
      <trkpt lat="46.37777172960341" lon="8.405819507315755">
        <ele>1870.6700000000001</ele>
        <time>2023-09-10T14:27:29Z</time>
      </trkpt>
      <trkpt lat="46.377784721553326" lon="8.405972644686699">
        <ele>1868.4400000000001</ele>
        <time>2023-09-10T14:27:41Z</time>
      </trkpt>
      <trkpt lat="46.377811040729284" lon="8.406094182282686">
        <ele>1865.8399999999999</ele>
        <time>2023-09-10T14:27:52Z</time>
      </trkpt>
      <trkpt lat="46.377810118719935" lon="8.406269531697035">
        <ele>1862.75</ele>
        <time>2023-09-10T14:28:06Z</time>
      </trkpt>
      <trkpt lat="46.377831324934959" lon="8.406391991302371">
        <ele>1861.05</ele>
        <time>2023-09-10T14:28:16Z</time>
      </trkpt>
      <trkpt lat="46.377833923324943" lon="8.406474133953452">
        <ele>1859.78</ele>
        <time>2023-09-10T14:28:24Z</time>
      </trkpt>
      <trkpt lat="46.377832163125277" lon="8.406488467007875">
        <ele>1859.53</ele>
        <time>2023-09-10T14:28:25Z</time>
      </trkpt>
      <trkpt lat="46.377830570563674" lon="8.406515708193183">
        <ele>1859.24</ele>
        <time>2023-09-10T14:28:27Z</time>
      </trkpt>
      <trkpt lat="46.377822607755661" lon="8.406676640734077">
        <ele>1856.8099999999999</ele>
        <time>2023-09-10T14:28:38Z</time>
      </trkpt>
      <trkpt lat="46.377806346863508" lon="8.406783929094672">
        <ele>1855.3399999999999</ele>
        <time>2023-09-10T14:28:46Z</time>
      </trkpt>
      <trkpt lat="46.377795450389385" lon="8.406873950734735">
        <ele>1854.4400000000001</ele>
        <time>2023-09-10T14:28:55Z</time>
      </trkpt>
      <trkpt lat="46.377798970788717" lon="8.406903874129057">
        <ele>1854.05</ele>
        <time>2023-09-10T14:28:57Z</time>
      </trkpt>
      <trkpt lat="46.377814477309585" lon="8.407016443088651">
        <ele>1851.99</ele>
        <time>2023-09-10T14:29:07Z</time>
      </trkpt>
      <trkpt lat="46.377816572785378" lon="8.407045695930719">
        <ele>1851.25</ele>
        <time>2023-09-10T14:29:20Z</time>
      </trkpt>
      <trkpt lat="46.377816488966346" lon="8.40706187300384">
        <ele>1851</ele>
        <time>2023-09-10T14:29:21Z</time>
      </trkpt>
      <trkpt lat="46.377814980223775" lon="8.407093388959765">
        <ele>1850.3599999999999</ele>
        <time>2023-09-10T14:29:23Z</time>
      </trkpt>
      <trkpt lat="46.377809699624777" lon="8.407108644023538">
        <ele>1850.03</ele>
        <time>2023-09-10T14:29:24Z</time>
      </trkpt>
      <trkpt lat="46.377802826464176" lon="8.40712339617312">
        <ele>1849.8800000000001</ele>
        <time>2023-09-10T14:29:25Z</time>
      </trkpt>
      <trkpt lat="46.377797797322273" lon="8.407136974856257">
        <ele>1849.6800000000001</ele>
        <time>2023-09-10T14:29:26Z</time>
      </trkpt>
      <trkpt lat="46.377793187275529" lon="8.407151056453586">
        <ele>1849.4200000000001</ele>
        <time>2023-09-10T14:29:27Z</time>
      </trkpt>
      <trkpt lat="46.377756642177701" lon="8.407224733382464">
        <ele>1847.96</ele>
        <time>2023-09-10T14:29:39Z</time>
      </trkpt>
      <trkpt lat="46.377734011039138" lon="8.407284580171108">
        <ele>1847.1099999999999</ele>
        <time>2023-09-10T14:29:49Z</time>
      </trkpt>
      <trkpt lat="46.377723282203078" lon="8.407329926267266">
        <ele>1845.95</ele>
        <time>2023-09-10T14:30:02Z</time>
      </trkpt>
      <trkpt lat="46.377721857279539" lon="8.407320287078619">
        <ele>1845.9000000000001</ele>
        <time>2023-09-10T14:30:12Z</time>
      </trkpt>
      <trkpt lat="46.377724707126617" lon="8.407359179109335">
        <ele>1845.3599999999999</ele>
        <time>2023-09-10T14:30:25Z</time>
      </trkpt>
      <trkpt lat="46.377715738490224" lon="8.407402010634542">
        <ele>1844.5799999999999</ele>
        <time>2023-09-10T14:30:28Z</time>
      </trkpt>
      <trkpt lat="46.377711296081543" lon="8.407416427507997">
        <ele>1844.3900000000001</ele>
        <time>2023-09-10T14:30:29Z</time>
      </trkpt>
      <trkpt lat="46.37770970351994" lon="8.407470490783453">
        <ele>1843.51</ele>
        <time>2023-09-10T14:30:33Z</time>
      </trkpt>
      <trkpt lat="46.377715738490224" lon="8.407484069466591">
        <ele>1843.3099999999999</ele>
        <time>2023-09-10T14:30:34Z</time>
      </trkpt>
      <trkpt lat="46.377709787338972" lon="8.407606277614832">
        <ele>1841.51</ele>
        <time>2023-09-10T14:30:43Z</time>
      </trkpt>
      <trkpt lat="46.377681456506252" lon="8.407605523243547">
        <ele>1840.95</ele>
        <time>2023-09-10T14:30:46Z</time>
      </trkpt>
      <trkpt lat="46.377670895308256" lon="8.407602338120341">
        <ele>1840.6800000000001</ele>
        <time>2023-09-10T14:30:47Z</time>
      </trkpt>
      <trkpt lat="46.377647845074534" lon="8.407556070014834">
        <ele>1839.96</ele>
        <time>2023-09-10T14:30:53Z</time>
      </trkpt>
      <trkpt lat="46.377653377130628" lon="8.407520698383451">
        <ele>1839.71</ele>
        <time>2023-09-10T14:30:55Z</time>
      </trkpt>
      <trkpt lat="46.377656143158674" lon="8.407503347843885">
        <ele>1839.54</ele>
        <time>2023-09-10T14:30:56Z</time>
      </trkpt>
      <trkpt lat="46.377656646072865" lon="8.407486164942384">
        <ele>1839.03</ele>
        <time>2023-09-10T14:30:57Z</time>
      </trkpt>
      <trkpt lat="46.377629153430462" lon="8.407330764457583">
        <ele>1836.0999999999999</ele>
        <time>2023-09-10T14:31:08Z</time>
      </trkpt>
      <trkpt lat="46.377618508413434" lon="8.407326322048903">
        <ele>1836.28</ele>
        <time>2023-09-10T14:31:09Z</time>
      </trkpt>
      <trkpt lat="46.377584561705589" lon="8.407366219907999">
        <ele>1835.0699999999999</ele>
        <time>2023-09-10T14:31:15Z</time>
      </trkpt>
      <trkpt lat="46.377582382410765" lon="8.407380469143391">
        <ele>1835.1800000000001</ele>
        <time>2023-09-10T14:31:16Z</time>
      </trkpt>
      <trkpt lat="46.37754550203681" lon="8.407532516866922">
        <ele>1832.77</ele>
        <time>2023-09-10T14:31:28Z</time>
      </trkpt>
      <trkpt lat="46.377548351883888" lon="8.407579204067588">
        <ele>1831.8800000000001</ele>
        <time>2023-09-10T14:31:35Z</time>
      </trkpt>
      <trkpt lat="46.377540556713939" lon="8.407594291493297">
        <ele>1831.95</ele>
        <time>2023-09-10T14:31:36Z</time>
      </trkpt>
      <trkpt lat="46.377510717138648" lon="8.40769512578845">
        <ele>1829.99</ele>
        <time>2023-09-10T14:31:46Z</time>
      </trkpt>
      <trkpt lat="46.377479368820786" lon="8.407806437462568">
        <ele>1827.3199999999999</ele>
        <time>2023-09-10T14:31:54Z</time>
      </trkpt>
      <trkpt lat="46.377462269738317" lon="8.407884640619159">
        <ele>1825.5899999999999</ele>
        <time>2023-09-10T14:32:00Z</time>
      </trkpt>
      <trkpt lat="46.377435196191072" lon="8.40800391510129">
        <ele>1823.3</ele>
        <time>2023-09-10T14:32:09Z</time>
      </trkpt>
      <trkpt lat="46.377414744347334" lon="8.408054374158382">
        <ele>1822.1600000000001</ele>
        <time>2023-09-10T14:32:13Z</time>
      </trkpt>
      <trkpt lat="46.377383731305599" lon="8.408194519579411">
        <ele>1819.49</ele>
        <time>2023-09-10T14:32:25Z</time>
      </trkpt>
      <trkpt lat="46.377363614737988" lon="8.408338436856866">
        <ele>1816.4000000000001</ele>
        <time>2023-09-10T14:32:37Z</time>
      </trkpt>
      <trkpt lat="46.377344587817788" lon="8.40844907797873">
        <ele>1813.23</ele>
        <time>2023-09-10T14:32:48Z</time>
      </trkpt>
      <trkpt lat="46.377326650545001" lon="8.408545218408108">
        <ele>1811.26</ele>
        <time>2023-09-10T14:32:57Z</time>
      </trkpt>
      <trkpt lat="46.377316256985068" lon="8.408598611131311">
        <ele>1810.3800000000001</ele>
        <time>2023-09-10T14:33:01Z</time>
      </trkpt>
      <trkpt lat="46.377314245328307" lon="8.408614872023463">
        <ele>1810.1900000000001</ele>
        <time>2023-09-10T14:33:02Z</time>
      </trkpt>
      <trkpt lat="46.377310305833817" lon="8.408630294725299">
        <ele>1809.77</ele>
        <time>2023-09-10T14:33:03Z</time>
      </trkpt>
      <trkpt lat="46.377307623624802" lon="8.408646639436483">
        <ele>1809.6600000000001</ele>
        <time>2023-09-10T14:33:04Z</time>
      </trkpt>
      <trkpt lat="46.37727920897305" lon="8.408801704645157">
        <ele>1806.6500000000001</ele>
        <time>2023-09-10T14:33:16Z</time>
      </trkpt>
      <trkpt lat="46.377276610583067" lon="8.408815702423453">
        <ele>1806.3</ele>
        <time>2023-09-10T14:33:17Z</time>
      </trkpt>
      <trkpt lat="46.377246351912618" lon="8.408930953592062">
        <ele>1804.22</ele>
        <time>2023-09-10T14:33:27Z</time>
      </trkpt>
      <trkpt lat="46.377203855663538" lon="8.409004965797067">
        <ele>1803.04</ele>
        <time>2023-09-10T14:33:40Z</time>
      </trkpt>
      <trkpt lat="46.377190612256527" lon="8.409046623855829">
        <ele>1802.55</ele>
        <time>2023-09-10T14:33:43Z</time>
      </trkpt>
      <trkpt lat="46.377188265323639" lon="8.409063722938299">
        <ele>1802.47</ele>
        <time>2023-09-10T14:33:44Z</time>
      </trkpt>
      <trkpt lat="46.377178123220801" lon="8.409110074862838">
        <ele>1801.8299999999999</ele>
        <time>2023-09-10T14:33:47Z</time>
      </trkpt>
      <trkpt lat="46.377170411869884" lon="8.409151565283537">
        <ele>1801.04</ele>
        <time>2023-09-10T14:33:50Z</time>
      </trkpt>
      <trkpt lat="46.377171250060201" lon="8.409168664366007">
        <ele>1800.8699999999999</ele>
        <time>2023-09-10T14:33:51Z</time>
      </trkpt>
      <trkpt lat="46.377143086865544" lon="8.409308390691876">
        <ele>1799.1500000000001</ele>
        <time>2023-09-10T14:34:00Z</time>
      </trkpt>
      <trkpt lat="46.377138057723641" lon="8.409323394298554">
        <ele>1798.99</ele>
        <time>2023-09-10T14:34:01Z</time>
      </trkpt>
      <trkpt lat="46.377134872600436" lon="8.409337978810072">
        <ele>1798.8099999999999</ele>
        <time>2023-09-10T14:34:02Z</time>
      </trkpt>
      <trkpt lat="46.377094723284245" lon="8.40943755581975">
        <ele>1797.9000000000001</ele>
        <time>2023-09-10T14:34:09Z</time>
      </trkpt>
      <trkpt lat="46.377098662778735" lon="8.409465132281184">
        <ele>1797.27</ele>
        <time>2023-09-10T14:34:20Z</time>
      </trkpt>
      <trkpt lat="46.377105368301272" lon="8.40950645506382">
        <ele>1796.79</ele>
        <time>2023-09-10T14:34:34Z</time>
      </trkpt>
      <trkpt lat="46.377097405493259" lon="8.409522464498878">
        <ele>1796.74</ele>
        <time>2023-09-10T14:34:35Z</time>
      </trkpt>
      <trkpt lat="46.377084413543344" lon="8.409565296024084">
        <ele>1796.3800000000001</ele>
        <time>2023-09-10T14:34:38Z</time>
      </trkpt>
      <trkpt lat="46.377055160701275" lon="8.409880623221397">
        <ele>1794.0799999999999</ele>
        <time>2023-09-10T14:35:25Z</time>
      </trkpt>
      <trkpt lat="46.377052646130323" lon="8.409900823608041">
        <ele>1793.9200000000001</ele>
        <time>2023-09-10T14:35:26Z</time>
      </trkpt>
      <trkpt lat="46.37704610824585" lon="8.409921694546938">
        <ele>1793.8900000000001</ele>
        <time>2023-09-10T14:35:27Z</time>
      </trkpt>
      <trkpt lat="46.377040157094598" lon="8.409942230209708">
        <ele>1793.8499999999999</ele>
        <time>2023-09-10T14:35:28Z</time>
      </trkpt>
      <trkpt lat="46.377036804333329" lon="8.409961005672813">
        <ele>1793.79</ele>
        <time>2023-09-10T14:35:29Z</time>
      </trkpt>
      <trkpt lat="46.377032864838839" lon="8.409977685660124">
        <ele>1793.6199999999999</ele>
        <time>2023-09-10T14:35:30Z</time>
      </trkpt>
      <trkpt lat="46.377028506249189" lon="8.40999604202807">
        <ele>1793.6700000000001</ele>
        <time>2023-09-10T14:35:31Z</time>
      </trkpt>
      <trkpt lat="46.376953404396772" lon="8.410195112228394">
        <ele>1793.02</ele>
        <time>2023-09-10T14:35:44Z</time>
      </trkpt>
      <trkpt lat="46.376923397183418" lon="8.410277673974633">
        <ele>1792.6800000000001</ele>
        <time>2023-09-10T14:35:49Z</time>
      </trkpt>
    </trkseg>
  </trk>

  <trk>
    <name>s-domenico-alpe-devero2023-09-09</name>
    <extensions>
      <gpxx:TrackExtension>
        <gpxx:DisplayColor>Yellow</gpxx:DisplayColor>
      </gpxx:TrackExtension>
    </extensions>
    <trkseg>
      <trkpt lat="46.24942216090858" lon="8.192765610292554">
        <ele>1413</ele>
        <time>2023-09-09T06:30:58Z</time>
      </trkpt>
      <trkpt lat="46.249419059604406" lon="8.192768292501569">
        <ele>1411.71</ele>
        <time>2023-09-09T06:31:04Z</time>
      </trkpt>
      <trkpt lat="46.249417215585709" lon="8.192778183147311">
        <ele>1411.78</ele>
        <time>2023-09-09T06:31:19Z</time>
      </trkpt>
      <trkpt lat="46.24941436573863" lon="8.192771645262837">
        <ele>1412.23</ele>
        <time>2023-09-09T06:31:40Z</time>
      </trkpt>
      <trkpt lat="46.249423418194056" lon="8.192773656919599">
        <ele>1411.8</ele>
        <time>2023-09-09T06:31:59Z</time>
      </trkpt>
      <trkpt lat="46.24941922724247" lon="8.192775081843138">
        <ele>1412.5999999999999</ele>
        <time>2023-09-09T06:32:21Z</time>
      </trkpt>
      <trkpt lat="46.249406654387712" lon="8.192779775708914">
        <ele>1412.6600000000001</ele>
        <time>2023-09-09T06:32:45Z</time>
      </trkpt>
      <trkpt lat="46.249398607760668" lon="8.19278446957469">
        <ele>1411.9300000000001</ele>
        <time>2023-09-09T06:32:59Z</time>
      </trkpt>
      <trkpt lat="46.249390728771687" lon="8.19277809932828">
        <ele>1412.3</ele>
        <time>2023-09-09T06:33:10Z</time>
      </trkpt>
      <trkpt lat="46.249390477314591" lon="8.192779943346977">
        <ele>1411.5899999999999</ele>
        <time>2023-09-09T06:33:15Z</time>
      </trkpt>
      <trkpt lat="46.249393494799733" lon="8.192782457917929">
        <ele>1411.74</ele>
        <time>2023-09-09T06:33:21Z</time>
      </trkpt>
      <trkpt lat="46.249395003542304" lon="8.192791007459164">
        <ele>1412.25</ele>
        <time>2023-09-09T06:33:44Z</time>
      </trkpt>
      <trkpt lat="46.249394081532955" lon="8.192791007459164">
        <ele>1412.3399999999999</ele>
        <time>2023-09-09T06:33:58Z</time>
      </trkpt>
      <trkpt lat="46.249395841732621" lon="8.19280550815165">
        <ele>1412.6199999999999</ele>
        <time>2023-09-09T06:34:13Z</time>
      </trkpt>
      <trkpt lat="46.249391147866845" lon="8.192818248644471">
        <ele>1412.48</ele>
        <time>2023-09-09T06:34:31Z</time>
      </trkpt>
      <trkpt lat="46.249390225857496" lon="8.192818248644471">
        <ele>1412.26</ele>
        <time>2023-09-09T06:34:38Z</time>
      </trkpt>
      <trkpt lat="46.249390812590718" lon="8.192848758772016">
        <ele>1412.0899999999999</ele>
        <time>2023-09-09T06:34:43Z</time>
      </trkpt>
      <trkpt lat="46.249389890581369" lon="8.192862756550312">
        <ele>1411.8499999999999</ele>
        <time>2023-09-09T06:35:02Z</time>
      </trkpt>
      <trkpt lat="46.249403301626444" lon="8.192891590297222">
        <ele>1412.05</ele>
        <time>2023-09-09T06:35:18Z</time>
      </trkpt>
      <trkpt lat="46.249471865594387" lon="8.192824283614755">
        <ele>1412.3499999999999</ele>
        <time>2023-09-09T06:35:29Z</time>
      </trkpt>
      <trkpt lat="46.249500783160329" lon="8.192786481231451">
        <ele>1413.0799999999999</ele>
        <time>2023-09-09T06:35:34Z</time>
      </trkpt>
      <trkpt lat="46.249613771215081" lon="8.192679192870855">
        <ele>1415</ele>
        <time>2023-09-09T06:35:46Z</time>
      </trkpt>
      <trkpt lat="46.249698344618082" lon="8.192495796829462">
        <ele>1416.26</ele>
        <time>2023-09-09T06:36:00Z</time>
      </trkpt>
      <trkpt lat="46.249773195013404" lon="8.192271580919623">
        <ele>1415.76</ele>
        <time>2023-09-09T06:36:16Z</time>
      </trkpt>
      <trkpt lat="46.249857936054468" lon="8.192001013085246">
        <ele>1413.76</ele>
        <time>2023-09-09T06:36:35Z</time>
      </trkpt>
      <trkpt lat="46.249873610213399" lon="8.19193672388792">
        <ele>1413.27</ele>
        <time>2023-09-09T06:36:39Z</time>
      </trkpt>
      <trkpt lat="46.249880902469158" lon="8.191924402490258">
        <ele>1413.25</ele>
        <time>2023-09-09T06:36:40Z</time>
      </trkpt>
      <trkpt lat="46.249885596334934" lon="8.191909734159708">
        <ele>1413.2</ele>
        <time>2023-09-09T06:36:41Z</time>
      </trkpt>
      <trkpt lat="46.249923147261143" lon="8.191801104694605">
        <ele>1412.77</ele>
        <time>2023-09-09T06:36:48Z</time>
      </trkpt>
      <trkpt lat="46.249935301020741" lon="8.191774031147361">
        <ele>1412.76</ele>
        <time>2023-09-09T06:36:50Z</time>
      </trkpt>
      <trkpt lat="46.249995483085513" lon="8.191543696448207">
        <ele>1411.98</ele>
        <time>2023-09-09T06:37:05Z</time>
      </trkpt>
      <trkpt lat="46.250017276033759" lon="8.191479491069913">
        <ele>1411.48</ele>
        <time>2023-09-09T06:37:10Z</time>
      </trkpt>
      <trkpt lat="46.250130599364638" lon="8.191259801387787">
        <ele>1410.6099999999999</ele>
        <time>2023-09-09T06:37:26Z</time>
      </trkpt>
      <trkpt lat="46.250212658196688" lon="8.191199954599142">
        <ele>1411.5699999999999</ele>
        <time>2023-09-09T06:37:35Z</time>
      </trkpt>
      <trkpt lat="46.250222884118557" lon="8.191203810274601">
        <ele>1411.74</ele>
        <time>2023-09-09T06:37:36Z</time>
      </trkpt>
      <trkpt lat="46.250237384811044" lon="8.191200289875269">
        <ele>1411.96</ele>
        <time>2023-09-09T06:37:38Z</time>
      </trkpt>
      <trkpt lat="46.250346098095179" lon="8.191147400066257">
        <ele>1413.1300000000001</ele>
        <time>2023-09-09T06:37:50Z</time>
      </trkpt>
      <trkpt lat="46.250439304858446" lon="8.191082775592804">
        <ele>1414.71</ele>
        <time>2023-09-09T06:38:01Z</time>
      </trkpt>
      <trkpt lat="46.250481884926558" lon="8.191070454195142">
        <ele>1415.75</ele>
        <time>2023-09-09T06:38:06Z</time>
      </trkpt>
      <trkpt lat="46.250493200495839" lon="8.191070538014174">
        <ele>1415.8900000000001</ele>
        <time>2023-09-09T06:38:07Z</time>
      </trkpt>
      <trkpt lat="46.250512897968292" lon="8.19106693379581">
        <ele>1416.0799999999999</ele>
        <time>2023-09-09T06:38:09Z</time>
      </trkpt>
      <trkpt lat="46.25058900564909" lon="8.191041788086295">
        <ele>1417.4200000000001</ele>
        <time>2023-09-09T06:38:18Z</time>
      </trkpt>
      <trkpt lat="46.250629490241408" lon="8.191029215231538">
        <ele>1418.21</ele>
        <time>2023-09-09T06:38:22Z</time>
      </trkpt>
      <trkpt lat="46.250669807195663" lon="8.191012870520353">
        <ele>1418.5799999999999</ele>
        <time>2023-09-09T06:38:26Z</time>
      </trkpt>
      <trkpt lat="46.250750692561269" lon="8.190974481403828">
        <ele>1420.1300000000001</ele>
        <time>2023-09-09T06:38:35Z</time>
      </trkpt>
      <trkpt lat="46.250853622332215" lon="8.190904492512345">
        <ele>1421.1300000000001</ele>
        <time>2023-09-09T06:38:46Z</time>
      </trkpt>
      <trkpt lat="46.250943895429373" lon="8.190770298242569">
        <ele>1421.4200000000001</ele>
        <time>2023-09-09T06:38:58Z</time>
      </trkpt>
      <trkpt lat="46.251024445518851" lon="8.190609784796834">
        <ele>1421.25</ele>
        <time>2023-09-09T06:39:10Z</time>
      </trkpt>
      <trkpt lat="46.25103609636426" lon="8.190601989626885">
        <ele>1421.1099999999999</ele>
        <time>2023-09-09T06:39:11Z</time>
      </trkpt>
      <trkpt lat="46.251096865162253" lon="8.190517919138074">
        <ele>1421.3399999999999</ele>
        <time>2023-09-09T06:39:19Z</time>
      </trkpt>
      <trkpt lat="46.251149084419012" lon="8.190374756231904">
        <ele>1421.96</ele>
        <time>2023-09-09T06:39:29Z</time>
      </trkpt>
      <trkpt lat="46.251153191551566" lon="8.190360087901354">
        <ele>1421.97</ele>
        <time>2023-09-09T06:39:30Z</time>
      </trkpt>
      <trkpt lat="46.251216977834702" lon="8.190251374617219">
        <ele>1423.26</ele>
        <time>2023-09-09T06:39:41Z</time>
      </trkpt>
      <trkpt lat="46.25128529034555" lon="8.190139476209879">
        <ele>1423.1700000000001</ele>
        <time>2023-09-09T06:39:52Z</time>
      </trkpt>
      <trkpt lat="46.251328876242042" lon="8.190091950818896">
        <ele>1422.6300000000001</ele>
        <time>2023-09-09T06:39:58Z</time>
      </trkpt>
      <trkpt lat="46.251340275630355" lon="8.190088011324406">
        <ele>1422.5</ele>
        <time>2023-09-09T06:39:59Z</time>
      </trkpt>
      <trkpt lat="46.251351004466414" lon="8.190082479268313">
        <ele>1422.27</ele>
        <time>2023-09-09T06:40:00Z</time>
      </trkpt>
      <trkpt lat="46.251362739130855" lon="8.190077617764473">
        <ele>1422.0699999999999</ele>
        <time>2023-09-09T06:40:01Z</time>
      </trkpt>
      <trkpt lat="46.251374892890453" lon="8.190073594450951">
        <ele>1421.99</ele>
        <time>2023-09-09T06:40:02Z</time>
      </trkpt>
      <trkpt lat="46.251425603404641" lon="8.190072253346443">
        <ele>1421.4200000000001</ele>
        <time>2023-09-09T06:40:12Z</time>
      </trkpt>
      <trkpt lat="46.251429375261068" lon="8.190053561702371">
        <ele>1421.46</ele>
        <time>2023-09-09T06:40:24Z</time>
      </trkpt>
      <trkpt lat="46.25145728699863" lon="8.190054651349783">
        <ele>1421.3199999999999</ele>
        <time>2023-09-09T06:40:39Z</time>
      </trkpt>
      <trkpt lat="46.251459131017327" lon="8.190055908635259">
        <ele>1421.49</ele>
        <time>2023-09-09T06:40:50Z</time>
      </trkpt>
      <trkpt lat="46.251464998349547" lon="8.190109301358461">
        <ele>1421.75</ele>
        <time>2023-09-09T06:41:05Z</time>
      </trkpt>
      <trkpt lat="46.251490479335189" lon="8.190155988559127">
        <ele>1423.0799999999999</ele>
        <time>2023-09-09T06:41:18Z</time>
      </trkpt>
      <trkpt lat="46.25150665640831" lon="8.190130172297359">
        <ele>1424.01</ele>
        <time>2023-09-09T06:41:33Z</time>
      </trkpt>
      <trkpt lat="46.251515541225672" lon="8.190121119841933">
        <ele>1423.79</ele>
        <time>2023-09-09T06:41:53Z</time>
      </trkpt>
      <trkpt lat="46.251540603116155" lon="8.190141823142767">
        <ele>1423.9400000000001</ele>
        <time>2023-09-09T06:42:12Z</time>
      </trkpt>
      <trkpt lat="46.251552505418658" lon="8.19012338295579">
        <ele>1423.8</ele>
        <time>2023-09-09T06:42:25Z</time>
      </trkpt>
      <trkpt lat="46.251615034416318" lon="8.190187336876988">
        <ele>1426</ele>
        <time>2023-09-09T06:42:39Z</time>
      </trkpt>
      <trkpt lat="46.25171234831214" lon="8.190230587497354">
        <ele>1428.52</ele>
        <time>2023-09-09T06:42:55Z</time>
      </trkpt>
      <trkpt lat="46.251819636672735" lon="8.190282052382827">
        <ele>1431.53</ele>
        <time>2023-09-09T06:43:09Z</time>
      </trkpt>
      <trkpt lat="46.251893062144518" lon="8.190332595258951">
        <ele>1434.4100000000001</ele>
        <time>2023-09-09T06:43:23Z</time>
      </trkpt>
      <trkpt lat="46.251804633066058" lon="8.190448014065623">
        <ele>1436.28</ele>
        <time>2023-09-09T06:43:36Z</time>
      </trkpt>
      <trkpt lat="46.251697093248367" lon="8.190535269677639">
        <ele>1439.27</ele>
        <time>2023-09-09T06:43:52Z</time>
      </trkpt>
      <trkpt lat="46.251599779352546" lon="8.190669799223542">
        <ele>1440.8699999999999</ele>
        <time>2023-09-09T06:44:08Z</time>
      </trkpt>
      <trkpt lat="46.251575136557221" lon="8.190760491415858">
        <ele>1440.8399999999999</ele>
        <time>2023-09-09T06:44:16Z</time>
      </trkpt>
      <trkpt lat="46.251562898978591" lon="8.190888399258256">
        <ele>1441.71</ele>
        <time>2023-09-09T06:44:27Z</time>
      </trkpt>
      <trkpt lat="46.251524006947875" lon="8.191025862470269">
        <ele>1443.25</ele>
        <time>2023-09-09T06:44:41Z</time>
      </trkpt>
      <trkpt lat="46.25149198807776" lon="8.191159889101982">
        <ele>1444.6800000000001</ele>
        <time>2023-09-09T06:44:56Z</time>
      </trkpt>
      <trkpt lat="46.251455694437027" lon="8.191298190504313">
        <ele>1446.24</ele>
        <time>2023-09-09T06:45:09Z</time>
      </trkpt>
      <trkpt lat="46.251413617283106" lon="8.191455686464906">
        <ele>1447.79</ele>
        <time>2023-09-09T06:45:23Z</time>
      </trkpt>
      <trkpt lat="46.251390483230352" lon="8.191627850756049">
        <ele>1449.0599999999999</ele>
        <time>2023-09-09T06:45:37Z</time>
      </trkpt>
      <trkpt lat="46.251385202631354" lon="8.191760620102286">
        <ele>1450.5599999999999</ele>
        <time>2023-09-09T06:45:49Z</time>
      </trkpt>
      <trkpt lat="46.25137128867209" lon="8.191876709461212">
        <ele>1451.9100000000001</ele>
        <time>2023-09-09T06:46:03Z</time>
      </trkpt>
      <trkpt lat="46.251359470188618" lon="8.192025320604444">
        <ele>1453.6300000000001</ele>
        <time>2023-09-09T06:46:20Z</time>
      </trkpt>
      <trkpt lat="46.251347735524178" lon="8.192077875137329">
        <ele>1454.1099999999999</ele>
        <time>2023-09-09T06:46:24Z</time>
      </trkpt>
      <trkpt lat="46.251313621178269" lon="8.192207459360361">
        <ele>1455.8499999999999</ele>
        <time>2023-09-09T06:46:34Z</time>
      </trkpt>
      <trkpt lat="46.251281099393964" lon="8.192404685541987">
        <ele>1457.75</ele>
        <time>2023-09-09T06:46:50Z</time>
      </trkpt>
      <trkpt lat="46.251221084967256" lon="8.192624794319272">
        <ele>1460.05</ele>
        <time>2023-09-09T06:47:09Z</time>
      </trkpt>
      <trkpt lat="46.251155957579613" lon="8.192849094048142">
        <ele>1462.3199999999999</ele>
        <time>2023-09-09T06:47:29Z</time>
      </trkpt>
      <trkpt lat="46.251080771908164" lon="8.193043721839786">
        <ele>1464.26</ele>
        <time>2023-09-09T06:47:46Z</time>
      </trkpt>
      <trkpt lat="46.251015225425363" lon="8.193235332146287">
        <ele>1466.29</ele>
        <time>2023-09-09T06:48:04Z</time>
      </trkpt>
      <trkpt lat="46.250981949269772" lon="8.193462481722236">
        <ele>1468.27</ele>
        <time>2023-09-09T06:48:23Z</time>
      </trkpt>
      <trkpt lat="46.250926461070776" lon="8.193641686812043">
        <ele>1470.1400000000001</ele>
        <time>2023-09-09T06:48:40Z</time>
      </trkpt>
      <trkpt lat="46.250876840204" lon="8.193829692900181">
        <ele>1472.3299999999999</ele>
        <time>2023-09-09T06:48:57Z</time>
      </trkpt>
      <trkpt lat="46.250819088891149" lon="8.194025661796331">
        <ele>1474.0899999999999</ele>
        <time>2023-09-09T06:49:15Z</time>
      </trkpt>
      <trkpt lat="46.250843731686473" lon="8.194078635424376">
        <ele>1476.0599999999999</ele>
        <time>2023-09-09T06:49:31Z</time>
      </trkpt>
      <trkpt lat="46.250977758318186" lon="8.193923318758607">
        <ele>1479.1500000000001</ele>
        <time>2023-09-09T06:49:52Z</time>
      </trkpt>
      <trkpt lat="46.251058476045728" lon="8.193789878860116">
        <ele>1480.49</ele>
        <time>2023-09-09T06:50:09Z</time>
      </trkpt>
      <trkpt lat="46.25111136585474" lon="8.193667251616716">
        <ele>1481.6500000000001</ele>
        <time>2023-09-09T06:50:23Z</time>
      </trkpt>
      <trkpt lat="46.251186551526189" lon="8.193534566089511">
        <ele>1482.9300000000001</ele>
        <time>2023-09-09T06:50:39Z</time>
      </trkpt>
      <trkpt lat="46.251199711114168" lon="8.193532805889845">
        <ele>1483.3299999999999</ele>
        <time>2023-09-09T06:50:55Z</time>
      </trkpt>
      <trkpt lat="46.251250337809324" lon="8.193463906645775">
        <ele>1484.1400000000001</ele>
        <time>2023-09-09T06:51:13Z</time>
      </trkpt>
      <trkpt lat="46.251322673633695" lon="8.193405652418733">
        <ele>1485.3299999999999</ele>
        <time>2023-09-09T06:51:22Z</time>
      </trkpt>
      <trkpt lat="46.251434907317162" lon="8.193265926092863">
        <ele>1487.78</ele>
        <time>2023-09-09T06:51:39Z</time>
      </trkpt>
      <trkpt lat="46.251567509025335" lon="8.19308496080339">
        <ele>1490.0699999999999</ele>
        <time>2023-09-09T06:52:00Z</time>
      </trkpt>
      <trkpt lat="46.251645293086767" lon="8.193009858950973">
        <ele>1491.6300000000001</ele>
        <time>2023-09-09T06:52:13Z</time>
      </trkpt>
      <trkpt lat="46.251754593104124" lon="8.192894775420427">
        <ele>1493.6800000000001</ele>
        <time>2023-09-09T06:52:32Z</time>
      </trkpt>
      <trkpt lat="46.251877220347524" lon="8.192741302773356">
        <ele>1496.1900000000001</ele>
        <time>2023-09-09T06:52:50Z</time>
      </trkpt>
      <trkpt lat="46.251976294443011" lon="8.192587997764349">
        <ele>1497.95</ele>
        <time>2023-09-09T06:53:07Z</time>
      </trkpt>
      <trkpt lat="46.252024490386248" lon="8.192441733554006">
        <ele>1499.0699999999999</ele>
        <time>2023-09-09T06:53:23Z</time>
      </trkpt>
      <trkpt lat="46.252089282497764" lon="8.192238556221128">
        <ele>1501.1900000000001</ele>
        <time>2023-09-09T06:53:41Z</time>
      </trkpt>
      <trkpt lat="46.252182405441999" lon="8.192133028060198">
        <ele>1503.3800000000001</ele>
        <time>2023-09-09T06:53:59Z</time>
      </trkpt>
      <trkpt lat="46.252308385446668" lon="8.192055327817798">
        <ele>1505.47</ele>
        <time>2023-09-09T06:54:15Z</time>
      </trkpt>
      <trkpt lat="46.252442914992571" lon="8.191950637847185">
        <ele>1507.1300000000001</ele>
        <time>2023-09-09T06:54:31Z</time>
      </trkpt>
      <trkpt lat="46.252552550286055" lon="8.191790208220482">
        <ele>1509.0699999999999</ele>
        <time>2023-09-09T06:54:49Z</time>
      </trkpt>
      <trkpt lat="46.252695377916098" lon="8.19166992790997">
        <ele>1510.9200000000001</ele>
        <time>2023-09-09T06:55:07Z</time>
      </trkpt>
      <trkpt lat="46.25277073122561" lon="8.191570350900292">
        <ele>1512.48</ele>
        <time>2023-09-09T06:55:19Z</time>
      </trkpt>
      <trkpt lat="46.252903332933784" lon="8.191426517441869">
        <ele>1514.54</ele>
        <time>2023-09-09T06:55:38Z</time>
      </trkpt>
      <trkpt lat="46.252988493070006" lon="8.191284108906984">
        <ele>1516.05</ele>
        <time>2023-09-09T06:55:52Z</time>
      </trkpt>
      <trkpt lat="46.253080861642957" lon="8.191217640414834">
        <ele>1517.53</ele>
        <time>2023-09-09T06:56:05Z</time>
      </trkpt>
      <trkpt lat="46.253165686503053" lon="8.191061653196812">
        <ele>1520.0999999999999</ele>
        <time>2023-09-09T06:56:24Z</time>
      </trkpt>
      <trkpt lat="46.253253445029259" lon="8.190965009853244">
        <ele>1522.03</ele>
        <time>2023-09-09T06:56:39Z</time>
      </trkpt>
      <trkpt lat="46.253326535224915" lon="8.190764430910349">
        <ele>1523.52</ele>
        <time>2023-09-09T06:56:56Z</time>
      </trkpt>
      <trkpt lat="46.253325194120407" lon="8.190658902749419">
        <ele>1524.3399999999999</ele>
        <time>2023-09-09T06:57:07Z</time>
      </trkpt>
      <trkpt lat="46.253328127786517" lon="8.190566450357437">
        <ele>1524.1099999999999</ele>
        <time>2023-09-09T06:57:20Z</time>
      </trkpt>
      <trkpt lat="46.253331145271659" lon="8.190548261627555">
        <ele>1524.3699999999999</ele>
        <time>2023-09-09T06:57:21Z</time>
      </trkpt>
      <trkpt lat="46.253336258232594" lon="8.190533593297005">
        <ele>1524.26</ele>
        <time>2023-09-09T06:57:22Z</time>
      </trkpt>
      <trkpt lat="46.253336677327752" lon="8.190509704872966">
        <ele>1524.5599999999999</ele>
        <time>2023-09-09T06:57:23Z</time>
      </trkpt>
      <trkpt lat="46.253338605165482" lon="8.190492941066623">
        <ele>1524.6199999999999</ele>
        <time>2023-09-09T06:57:24Z</time>
      </trkpt>
      <trkpt lat="46.253332318738103" lon="8.190272832289338">
        <ele>1525.8399999999999</ele>
        <time>2023-09-09T06:57:35Z</time>
      </trkpt>
      <trkpt lat="46.25333365984261" lon="8.190255733206868">
        <ele>1525.95</ele>
        <time>2023-09-09T06:57:36Z</time>
      </trkpt>
      <trkpt lat="46.253335336223245" lon="8.190237041562796">
        <ele>1526.1099999999999</ele>
        <time>2023-09-09T06:57:37Z</time>
      </trkpt>
      <trkpt lat="46.253378335386515" lon="8.190102931112051">
        <ele>1527.0799999999999</ele>
        <time>2023-09-09T06:57:46Z</time>
      </trkpt>
      <trkpt lat="46.253383280709386" lon="8.190087676048279">
        <ele>1527.1500000000001</ele>
        <time>2023-09-09T06:57:47Z</time>
      </trkpt>
      <trkpt lat="46.25340255908668" lon="8.189950883388519">
        <ele>1528.8800000000001</ele>
        <time>2023-09-09T06:58:00Z</time>
      </trkpt>
      <trkpt lat="46.253361906856298" lon="8.18987125530839">
        <ele>1529.75</ele>
        <time>2023-09-09T06:58:11Z</time>
      </trkpt>
      <trkpt lat="46.253268783912063" lon="8.189735803753138">
        <ele>1531.98</ele>
        <time>2023-09-09T06:58:29Z</time>
      </trkpt>
      <trkpt lat="46.253251181915402" lon="8.189690625295043">
        <ele>1532.3699999999999</ele>
        <time>2023-09-09T06:58:33Z</time>
      </trkpt>
      <trkpt lat="46.25322905369103" lon="8.189546288922429">
        <ele>1533.27</ele>
        <time>2023-09-09T06:58:47Z</time>
      </trkpt>
      <trkpt lat="46.25324372202158" lon="8.189419135451317">
        <ele>1534.05</ele>
        <time>2023-09-09T06:58:59Z</time>
      </trkpt>
      <trkpt lat="46.253258725628257" lon="8.189374543726444">
        <ele>1534.73</ele>
        <time>2023-09-09T06:59:03Z</time>
      </trkpt>
      <trkpt lat="46.253290576860309" lon="8.1892663333565">
        <ele>1535.8900000000001</ele>
        <time>2023-09-09T06:59:12Z</time>
      </trkpt>
      <trkpt lat="46.253310609608889" lon="8.189238421618938">
        <ele>1536.27</ele>
        <time>2023-09-09T06:59:15Z</time>
      </trkpt>
      <trkpt lat="46.253383867442608" lon="8.189161643385887">
        <ele>1537.8399999999999</ele>
        <time>2023-09-09T06:59:25Z</time>
      </trkpt>
      <trkpt lat="46.253468357026577" lon="8.189110597595573">
        <ele>1539.5899999999999</ele>
        <time>2023-09-09T06:59:37Z</time>
      </trkpt>
      <trkpt lat="46.253563407808542" lon="8.189061982557178">
        <ele>1541.9300000000001</ele>
        <time>2023-09-09T06:59:54Z</time>
      </trkpt>
      <trkpt lat="46.253670528531075" lon="8.18897807970643">
        <ele>1544.22</ele>
        <time>2023-09-09T07:00:08Z</time>
      </trkpt>
      <trkpt lat="46.253703134134412" lon="8.188767693936825">
        <ele>1546.46</ele>
        <time>2023-09-09T07:00:26Z</time>
      </trkpt>
      <trkpt lat="46.25376951880753" lon="8.188593685626984">
        <ele>1548.2</ele>
        <time>2023-09-09T07:00:43Z</time>
      </trkpt>
      <trkpt lat="46.253875633701682" lon="8.188475668430328">
        <ele>1550.1500000000001</ele>
        <time>2023-09-09T07:01:00Z</time>
      </trkpt>
      <trkpt lat="46.253924248740077" lon="8.188319597393274">
        <ele>1552.27</ele>
        <time>2023-09-09T07:01:15Z</time>
      </trkpt>
      <trkpt lat="46.254044445231557" lon="8.188225971534848">
        <ele>1554.51</ele>
        <time>2023-09-09T07:01:31Z</time>
      </trkpt>
      <trkpt lat="46.254148213192821" lon="8.188202837482095">
        <ele>1555.48</ele>
        <time>2023-09-09T07:01:41Z</time>
      </trkpt>
      <trkpt lat="46.254296321421862" lon="8.188163107261062">
        <ele>1556.6300000000001</ele>
        <time>2023-09-09T07:01:59Z</time>
      </trkpt>
      <trkpt lat="46.254464713856578" lon="8.188083814457059">
        <ele>1558.75</ele>
        <time>2023-09-09T07:02:20Z</time>
      </trkpt>
      <trkpt lat="46.254507377743721" lon="8.187949536368251">
        <ele>1559.77</ele>
        <time>2023-09-09T07:02:35Z</time>
      </trkpt>
      <trkpt lat="46.254508551210165" lon="8.187934784218669">
        <ele>1559.73</ele>
        <time>2023-09-09T07:03:26Z</time>
      </trkpt>
      <trkpt lat="46.254472089931369" lon="8.187879547476769">
        <ele>1559.6700000000001</ele>
        <time>2023-09-09T07:03:40Z</time>
      </trkpt>
      <trkpt lat="46.254457589238882" lon="8.187876781448722">
        <ele>1560.1900000000001</ele>
        <time>2023-09-09T07:05:37Z</time>
      </trkpt>
      <trkpt lat="46.254379134625196" lon="8.187993038445711">
        <ele>1563.21</ele>
        <time>2023-09-09T07:05:54Z</time>
      </trkpt>
      <trkpt lat="46.254305206239223" lon="8.18810485303402">
        <ele>1563.8099999999999</ele>
        <time>2023-09-09T07:06:10Z</time>
      </trkpt>
      <trkpt lat="46.254263715818524" lon="8.188199317082763">
        <ele>1566.8299999999999</ele>
        <time>2023-09-09T07:06:25Z</time>
      </trkpt>
      <trkpt lat="46.254198923707008" lon="8.188263354822993">
        <ele>1569.6700000000001</ele>
        <time>2023-09-09T07:06:42Z</time>
      </trkpt>
      <trkpt lat="46.254202360287309" lon="8.188319513574243">
        <ele>1571.52</ele>
        <time>2023-09-09T07:06:58Z</time>
      </trkpt>
      <trkpt lat="46.254240749403834" lon="8.188314316794276">
        <ele>1574.4000000000001</ele>
        <time>2023-09-09T07:07:15Z</time>
      </trkpt>
      <trkpt lat="46.254288610070944" lon="8.18839562125504">
        <ele>1577.1800000000001</ele>
        <time>2023-09-09T07:07:34Z</time>
      </trkpt>
      <trkpt lat="46.254297830164433" lon="8.188516823574901">
        <ele>1578.78</ele>
        <time>2023-09-09T07:07:48Z</time>
      </trkpt>
      <trkpt lat="46.254316102713346" lon="8.188634673133493">
        <ele>1579.77</ele>
        <time>2023-09-09T07:08:01Z</time>
      </trkpt>
      <trkpt lat="46.254390785470605" lon="8.188653197139502">
        <ele>1582.79</ele>
        <time>2023-09-09T07:08:17Z</time>
      </trkpt>
      <trkpt lat="46.25444577075541" lon="8.188590751960874">
        <ele>1585.9300000000001</ele>
        <time>2023-09-09T07:08:33Z</time>
      </trkpt>
      <trkpt lat="46.254481477662921" lon="8.188572227954865">
        <ele>1587.77</ele>
        <time>2023-09-09T07:08:43Z</time>
      </trkpt>
      <trkpt lat="46.254483154043555" lon="8.188619585707784">
        <ele>1587.73</ele>
        <time>2023-09-09T07:08:46Z</time>
      </trkpt>
      <trkpt lat="46.254496062174439" lon="8.188703488558531">
        <ele>1588.5799999999999</ele>
        <time>2023-09-09T07:08:56Z</time>
      </trkpt>
      <trkpt lat="46.254522632807493" lon="8.188807927072048">
        <ele>1589.54</ele>
        <time>2023-09-09T07:09:10Z</time>
      </trkpt>
      <trkpt lat="46.254547359421849" lon="8.18884857930243">
        <ele>1592.5699999999999</ele>
        <time>2023-09-09T07:09:27Z</time>
      </trkpt>
      <trkpt lat="46.254598489031196" lon="8.188977241516113">
        <ele>1594.3299999999999</ele>
        <time>2023-09-09T07:09:42Z</time>
      </trkpt>
      <trkpt lat="46.254636291414499" lon="8.189099365845323">
        <ele>1596.5599999999999</ele>
        <time>2023-09-09T07:09:55Z</time>
      </trkpt>
      <trkpt lat="46.254665879532695" lon="8.189193746075034">
        <ele>1598.5999999999999</ele>
        <time>2023-09-09T07:10:09Z</time>
      </trkpt>
      <trkpt lat="46.254700664430857" lon="8.189269853755832">
        <ele>1600.52</ele>
        <time>2023-09-09T07:10:21Z</time>
      </trkpt>
      <trkpt lat="46.254751877859235" lon="8.189297262579203">
        <ele>1602.9200000000001</ele>
        <time>2023-09-09T07:10:34Z</time>
      </trkpt>
      <trkpt lat="46.254817843437195" lon="8.189207743853331">
        <ele>1605.3</ele>
        <time>2023-09-09T07:10:50Z</time>
      </trkpt>
      <trkpt lat="46.254849694669247" lon="8.189087463542819">
        <ele>1607.5599999999999</ele>
        <time>2023-09-09T07:11:04Z</time>
      </trkpt>
      <trkpt lat="46.254891436547041" lon="8.188993837684393">
        <ele>1609.9400000000001</ele>
        <time>2023-09-09T07:11:18Z</time>
      </trkpt>
      <trkpt lat="46.254951786249876" lon="8.188956286758184">
        <ele>1612.3900000000001</ele>
        <time>2023-09-09T07:11:33Z</time>
      </trkpt>
      <trkpt lat="46.254971399903297" lon="8.188979756087065">
        <ele>1613.02</ele>
        <time>2023-09-09T07:11:37Z</time>
      </trkpt>
      <trkpt lat="46.254974836483598" lon="8.188994927331805">
        <ele>1612.95</ele>
        <time>2023-09-09T07:11:38Z</time>
      </trkpt>
      <trkpt lat="46.254976261407137" lon="8.189011942595244">
        <ele>1612.9000000000001</ele>
        <time>2023-09-09T07:11:39Z</time>
      </trkpt>
      <trkpt lat="46.254961844533682" lon="8.189125014469028">
        <ele>1613.9400000000001</ele>
        <time>2023-09-09T07:11:50Z</time>
      </trkpt>
      <trkpt lat="46.254941560328007" lon="8.189266500994563">
        <ele>1616.4400000000001</ele>
        <time>2023-09-09T07:12:05Z</time>
      </trkpt>
      <trkpt lat="46.254944996908307" lon="8.189406814053655">
        <ele>1617.5</ele>
        <time>2023-09-09T07:12:17Z</time>
      </trkpt>
      <trkpt lat="46.254972824826837" lon="8.189546372741461">
        <ele>1619.1600000000001</ele>
        <time>2023-09-09T07:12:32Z</time>
      </trkpt>
      <trkpt lat="46.255024624988437" lon="8.189707137644291">
        <ele>1621.54</ele>
        <time>2023-09-09T07:12:49Z</time>
      </trkpt>
      <trkpt lat="46.255052285268903" lon="8.189861532300711">
        <ele>1623.1199999999999</ele>
        <time>2023-09-09T07:13:02Z</time>
      </trkpt>
      <trkpt lat="46.25505362637341" lon="8.189974101260305">
        <ele>1625.1400000000001</ele>
        <time>2023-09-09T07:13:16Z</time>
      </trkpt>
      <trkpt lat="46.2550697196275" lon="8.190072756260634">
        <ele>1627.1900000000001</ele>
        <time>2023-09-09T07:13:28Z</time>
      </trkpt>
      <trkpt lat="46.255052704364061" lon="8.190219439566135">
        <ele>1630.3499999999999</ele>
        <time>2023-09-09T07:13:48Z</time>
      </trkpt>
      <trkpt lat="46.255111964419484" lon="8.190248524770141">
        <ele>1632.6199999999999</ele>
        <time>2023-09-09T07:14:02Z</time>
      </trkpt>
      <trkpt lat="46.255185138434172" lon="8.190194293856621">
        <ele>1634.54</ele>
        <time>2023-09-09T07:14:16Z</time>
      </trkpt>
      <trkpt lat="46.255226293578744" lon="8.190047694370151">
        <ele>1636.0599999999999</ele>
        <time>2023-09-09T07:14:31Z</time>
      </trkpt>
      <trkpt lat="46.25523442402482" lon="8.189900172874332">
        <ele>1637.75</ele>
        <time>2023-09-09T07:14:44Z</time>
      </trkpt>
      <trkpt lat="46.255242973566055" lon="8.189781149849296">
        <ele>1640.5799999999999</ele>
        <time>2023-09-09T07:15:00Z</time>
      </trkpt>
      <trkpt lat="46.255269041284919" lon="8.189679142087698">
        <ele>1642.46</ele>
        <time>2023-09-09T07:15:12Z</time>
      </trkpt>
      <trkpt lat="46.2553321570158" lon="8.189767738804221">
        <ele>1644.6700000000001</ele>
        <time>2023-09-09T07:15:29Z</time>
      </trkpt>
      <trkpt lat="46.25535654835403" lon="8.189907129853964">
        <ele>1647.3199999999999</ele>
        <time>2023-09-09T07:15:44Z</time>
      </trkpt>
      <trkpt lat="46.255395775660872" lon="8.190035792067647">
        <ele>1648.8699999999999</ele>
        <time>2023-09-09T07:15:59Z</time>
      </trkpt>
      <trkpt lat="46.255473475903273" lon="8.190034870058298">
        <ele>1651.1700000000001</ele>
        <time>2023-09-09T07:16:13Z</time>
      </trkpt>
      <trkpt lat="46.255505243316293" lon="8.190041072666645">
        <ele>1653.48</ele>
        <time>2023-09-09T07:16:29Z</time>
      </trkpt>
      <trkpt lat="46.255475739017129" lon="8.190183648839593">
        <ele>1655.23</ele>
        <time>2023-09-09T07:16:43Z</time>
      </trkpt>
      <trkpt lat="46.255440954118967" lon="8.190291104838252">
        <ele>1656.0799999999999</ele>
        <time>2023-09-09T07:16:59Z</time>
      </trkpt>
      <trkpt lat="46.255430309101939" lon="8.190310634672642">
        <ele>1655.71</ele>
        <time>2023-09-09T07:17:19Z</time>
      </trkpt>
      <trkpt lat="46.255417903885245" lon="8.190295295789838">
        <ele>1655.8499999999999</ele>
        <time>2023-09-09T07:17:43Z</time>
      </trkpt>
      <trkpt lat="46.255412539467216" lon="8.190270233899355">
        <ele>1655.9300000000001</ele>
        <time>2023-09-09T07:18:03Z</time>
      </trkpt>
      <trkpt lat="46.255409521982074" lon="8.190271826460958">
        <ele>1656.5999999999999</ele>
        <time>2023-09-09T07:20:07Z</time>
      </trkpt>
      <trkpt lat="46.255413880571723" lon="8.190273083746433">
        <ele>1656.76</ele>
        <time>2023-09-09T07:20:29Z</time>
      </trkpt>
      <trkpt lat="46.255392590537667" lon="8.190274508669972">
        <ele>1657.1600000000001</ele>
        <time>2023-09-09T07:20:58Z</time>
      </trkpt>
      <trkpt lat="46.255372138693929" lon="8.190418006852269">
        <ele>1659</ele>
        <time>2023-09-09T07:21:15Z</time>
      </trkpt>
      <trkpt lat="46.255387729033828" lon="8.19057784974575">
        <ele>1661.04</ele>
        <time>2023-09-09T07:21:31Z</time>
      </trkpt>
      <trkpt lat="46.255388148128986" lon="8.190743895247579">
        <ele>1662.75</ele>
        <time>2023-09-09T07:21:46Z</time>
      </trkpt>
      <trkpt lat="46.255412958562374" lon="8.190898206084967">
        <ele>1664.79</ele>
        <time>2023-09-09T07:22:00Z</time>
      </trkpt>
      <trkpt lat="46.255480935797095" lon="8.190984958782792">
        <ele>1667.5599999999999</ele>
        <time>2023-09-09T07:22:16Z</time>
      </trkpt>
      <trkpt lat="46.255549248307943" lon="8.191089732572436">
        <ele>1670.02</ele>
        <time>2023-09-09T07:22:33Z</time>
      </trkpt>
      <trkpt lat="46.255656452849507" lon="8.191220154985786">
        <ele>1672.52</ele>
        <time>2023-09-09T07:22:50Z</time>
      </trkpt>
      <trkpt lat="46.255780756473541" lon="8.191279415041208">
        <ele>1675.3299999999999</ele>
        <time>2023-09-09T07:23:08Z</time>
      </trkpt>
      <trkpt lat="46.255807746201754" lon="8.191183274611831">
        <ele>1677.6900000000001</ele>
        <time>2023-09-09T07:23:24Z</time>
      </trkpt>
      <trkpt lat="46.255802717059851" lon="8.191013289615512">
        <ele>1679.53</ele>
        <time>2023-09-09T07:23:41Z</time>
      </trkpt>
      <trkpt lat="46.255776146426797" lon="8.190865181386471">
        <ele>1681.6900000000001</ele>
        <time>2023-09-09T07:23:57Z</time>
      </trkpt>
      <trkpt lat="46.255746642127633" lon="8.190717492252588">
        <ele>1684.6700000000001</ele>
        <time>2023-09-09T07:24:16Z</time>
      </trkpt>
      <trkpt lat="46.255755359306931" lon="8.190594697371125">
        <ele>1687.4400000000001</ele>
        <time>2023-09-09T07:24:33Z</time>
      </trkpt>
      <trkpt lat="46.255832640454173" lon="8.190490258857608">
        <ele>1690.1099999999999</ele>
        <time>2023-09-09T07:24:49Z</time>
      </trkpt>
      <trkpt lat="46.255948981270194" lon="8.190544908866286">
        <ele>1692.8599999999999</ele>
        <time>2023-09-09T07:25:09Z</time>
      </trkpt>
      <trkpt lat="46.255999021232128" lon="8.190600397065282">
        <ele>1694.8900000000001</ele>
        <time>2023-09-09T07:25:22Z</time>
      </trkpt>
      <trkpt lat="46.256073452532291" lon="8.190699135884643">
        <ele>1696.3800000000001</ele>
        <time>2023-09-09T07:25:35Z</time>
      </trkpt>
      <trkpt lat="46.256118044257164" lon="8.190803909674287">
        <ele>1699.4400000000001</ele>
        <time>2023-09-09T07:25:49Z</time>
      </trkpt>
      <trkpt lat="46.25618283636868" lon="8.190916562452912">
        <ele>1701.3599999999999</ele>
        <time>2023-09-09T07:26:02Z</time>
      </trkpt>
      <trkpt lat="46.256268164142966" lon="8.191009014844894">
        <ele>1703.1700000000001</ele>
        <time>2023-09-09T07:26:15Z</time>
      </trkpt>
      <trkpt lat="46.256384840235114" lon="8.190992837771773">
        <ele>1705.1500000000001</ele>
        <time>2023-09-09T07:26:30Z</time>
      </trkpt>
      <trkpt lat="46.256457343697548" lon="8.190931733697653">
        <ele>1706.9300000000001</ele>
        <time>2023-09-09T07:26:42Z</time>
      </trkpt>
      <trkpt lat="46.256576031446457" lon="8.190835677087307">
        <ele>1709.6900000000001</ele>
        <time>2023-09-09T07:27:02Z</time>
      </trkpt>
      <trkpt lat="46.256675189360976" lon="8.190776752308011">
        <ele>1711.96</ele>
        <time>2023-09-09T07:27:18Z</time>
      </trkpt>
      <trkpt lat="46.256783315911889" lon="8.190693687647581">
        <ele>1714.1500000000001</ele>
        <time>2023-09-09T07:27:33Z</time>
      </trkpt>
      <trkpt lat="46.25686151906848" lon="8.190633757039905">
        <ele>1715.4400000000001</ele>
        <time>2023-09-09T07:27:44Z</time>
      </trkpt>
      <trkpt lat="46.256982386112213" lon="8.190634343773127">
        <ele>1717.9400000000001</ele>
        <time>2023-09-09T07:28:02Z</time>
      </trkpt>
      <trkpt lat="46.257075760513544" lon="8.190670721232891">
        <ele>1719.97</ele>
        <time>2023-09-09T07:28:17Z</time>
      </trkpt>
      <trkpt lat="46.257126219570637" lon="8.190724784508348">
        <ele>1722.6099999999999</ele>
        <time>2023-09-09T07:28:33Z</time>
      </trkpt>
      <trkpt lat="46.25718112103641" lon="8.190778009593487">
        <ele>1725.3199999999999</ele>
        <time>2023-09-09T07:28:48Z</time>
      </trkpt>
      <trkpt lat="46.257205260917544" lon="8.19081723690033">
        <ele>1727.3800000000001</ele>
        <time>2023-09-09T07:29:01Z</time>
      </trkpt>
      <trkpt lat="46.257066624239087" lon="8.190895523875952">
        <ele>1729.2</ele>
        <time>2023-09-09T07:29:17Z</time>
      </trkpt>
      <trkpt lat="46.256963694468141" lon="8.190942965447903">
        <ele>1730.71</ele>
        <time>2023-09-09T07:29:31Z</time>
      </trkpt>
      <trkpt lat="46.256884653121233" lon="8.191022425889969">
        <ele>1731.8299999999999</ele>
        <time>2023-09-09T07:29:43Z</time>
      </trkpt>
      <trkpt lat="46.256805611774325" lon="8.19113876670599">
        <ele>1734.3399999999999</ele>
        <time>2023-09-09T07:29:59Z</time>
      </trkpt>
      <trkpt lat="46.256751883774996" lon="8.191272960975766">
        <ele>1736.5799999999999</ele>
        <time>2023-09-09T07:30:14Z</time>
      </trkpt>
      <trkpt lat="46.256707040593028" lon="8.19139190018177">
        <ele>1739.29</ele>
        <time>2023-09-09T07:30:31Z</time>
      </trkpt>
      <trkpt lat="46.256687007844448" lon="8.191484687849879">
        <ele>1741.75</ele>
        <time>2023-09-09T07:30:46Z</time>
      </trkpt>
      <trkpt lat="46.256736880168319" lon="8.191585689783096">
        <ele>1743.74</ele>
        <time>2023-09-09T07:30:59Z</time>
      </trkpt>
      <trkpt lat="46.256862776353955" lon="8.191562052816153">
        <ele>1746.4100000000001</ele>
        <time>2023-09-09T07:31:15Z</time>
      </trkpt>
      <trkpt lat="46.256954642012715" lon="8.191495584324002">
        <ele>1747.9300000000001</ele>
        <time>2023-09-09T07:31:27Z</time>
      </trkpt>
      <trkpt lat="46.257038963958621" lon="8.191464655101299">
        <ele>1749.7</ele>
        <time>2023-09-09T07:31:38Z</time>
      </trkpt>
      <trkpt lat="46.257106019183993" lon="8.191427523270249">
        <ele>1751.46</ele>
        <time>2023-09-09T07:31:48Z</time>
      </trkpt>
      <trkpt lat="46.257209284231067" lon="8.191388631239533">
        <ele>1753.1700000000001</ele>
        <time>2023-09-09T07:32:03Z</time>
      </trkpt>
      <trkpt lat="46.257215235382318" lon="8.191518969833851">
        <ele>1755.8299999999999</ele>
        <time>2023-09-09T07:32:18Z</time>
      </trkpt>
      <trkpt lat="46.257165195420384" lon="8.191596418619156">
        <ele>1757.7</ele>
        <time>2023-09-09T07:32:30Z</time>
      </trkpt>
      <trkpt lat="46.257096128538251" lon="8.191695492714644">
        <ele>1759.8299999999999</ele>
        <time>2023-09-09T07:32:45Z</time>
      </trkpt>
      <trkpt lat="46.25703695230186" lon="8.191791381686926">
        <ele>1762.1700000000001</ele>
        <time>2023-09-09T07:32:59Z</time>
      </trkpt>
      <trkpt lat="46.256986577063799" lon="8.1918721832335">
        <ele>1764.3800000000001</ele>
        <time>2023-09-09T07:33:12Z</time>
      </trkpt>
      <trkpt lat="46.256949193775654" lon="8.191957008093596">
        <ele>1766.6300000000001</ele>
        <time>2023-09-09T07:33:26Z</time>
      </trkpt>
      <trkpt lat="46.256898567080498" lon="8.192084413021803">
        <ele>1769.24</ele>
        <time>2023-09-09T07:33:42Z</time>
      </trkpt>
      <trkpt lat="46.256835199892521" lon="8.192158928140998">
        <ele>1772.3699999999999</ele>
        <time>2023-09-09T07:33:59Z</time>
      </trkpt>
      <trkpt lat="46.256801337003708" lon="8.192182900384069">
        <ele>1773.9400000000001</ele>
        <time>2023-09-09T07:34:14Z</time>
      </trkpt>
      <trkpt lat="46.256785830482841" lon="8.192206034436822">
        <ele>1773.5799999999999</ele>
        <time>2023-09-09T07:34:35Z</time>
      </trkpt>
      <trkpt lat="46.256793709471822" lon="8.192225648090243">
        <ele>1774.4300000000001</ele>
        <time>2023-09-09T07:35:39Z</time>
      </trkpt>
      <trkpt lat="46.256805444136262" lon="8.192274179309607">
        <ele>1777.1800000000001</ele>
        <time>2023-09-09T07:39:24Z</time>
      </trkpt>
      <trkpt lat="46.256805611774325" lon="8.192276526242495">
        <ele>1777.6099999999999</ele>
        <time>2023-09-09T07:39:42Z</time>
      </trkpt>
      <trkpt lat="46.256832433864474" lon="8.192348945885897">
        <ele>1778.6400000000001</ele>
        <time>2023-09-09T07:39:57Z</time>
      </trkpt>
      <trkpt lat="46.256919270381331" lon="8.192420778796077">
        <ele>1781.51</ele>
        <time>2023-09-09T07:40:14Z</time>
      </trkpt>
      <trkpt lat="46.256988169625401" lon="8.192425724118948">
        <ele>1783.25</ele>
        <time>2023-09-09T07:40:30Z</time>
      </trkpt>
      <trkpt lat="46.257043909281492" lon="8.192429915070534">
        <ele>1784.26</ele>
        <time>2023-09-09T07:40:56Z</time>
      </trkpt>
      <trkpt lat="46.257073078304529" lon="8.19242681376636">
        <ele>1784.9400000000001</ele>
        <time>2023-09-09T07:41:10Z</time>
      </trkpt>
      <trkpt lat="46.257111635059118" lon="8.192436704412103">
        <ele>1785.45</ele>
        <time>2023-09-09T07:41:27Z</time>
      </trkpt>
      <trkpt lat="46.257109874859452" lon="8.192445170134306">
        <ele>1785.6900000000001</ele>
        <time>2023-09-09T07:41:43Z</time>
      </trkpt>
      <trkpt lat="46.257113311439753" lon="8.192438213154674">
        <ele>1785.5999999999999</ele>
        <time>2023-09-09T07:41:48Z</time>
      </trkpt>
      <trkpt lat="46.257120184600353" lon="8.192469561472535">
        <ele>1786.0899999999999</ele>
        <time>2023-09-09T07:42:38Z</time>
      </trkpt>
      <trkpt lat="46.257212050259113" lon="8.192456234246492">
        <ele>1786.78</ele>
        <time>2023-09-09T07:42:52Z</time>
      </trkpt>
      <trkpt lat="46.257267706096172" lon="8.192493952810764">
        <ele>1787.72</ele>
        <time>2023-09-09T07:43:04Z</time>
      </trkpt>
      <trkpt lat="46.257313722744584" lon="8.192593278363347">
        <ele>1789.7</ele>
        <time>2023-09-09T07:43:19Z</time>
      </trkpt>
      <trkpt lat="46.257302993908525" lon="8.192707020789385">
        <ele>1792.5799999999999</ele>
        <time>2023-09-09T07:43:33Z</time>
      </trkpt>
      <trkpt lat="46.257269131019711" lon="8.192812548950315">
        <ele>1794.4000000000001</ele>
        <time>2023-09-09T07:43:45Z</time>
      </trkpt>
      <trkpt lat="46.257240381091833" lon="8.192881364375353">
        <ele>1796.54</ele>
        <time>2023-09-09T07:43:57Z</time>
      </trkpt>
      <trkpt lat="46.257230071350932" lon="8.192947497591376">
        <ele>1798.27</ele>
        <time>2023-09-09T07:44:07Z</time>
      </trkpt>
      <trkpt lat="46.257205680012703" lon="8.193005165085197">
        <ele>1800.3800000000001</ele>
        <time>2023-09-09T07:44:18Z</time>
      </trkpt>
      <trkpt lat="46.257184306159616" lon="8.193082949146628">
        <ele>1803.0899999999999</ele>
        <time>2023-09-09T07:44:30Z</time>
      </trkpt>
      <trkpt lat="46.257153041660786" lon="8.193173976615071">
        <ele>1806.02</ele>
        <time>2023-09-09T07:44:44Z</time>
      </trkpt>
      <trkpt lat="46.257133930921555" lon="8.193265506997705">
        <ele>1808.9400000000001</ele>
        <time>2023-09-09T07:44:59Z</time>
      </trkpt>
      <trkpt lat="46.257133763283491" lon="8.193348320201039">
        <ele>1811.02</ele>
        <time>2023-09-09T07:45:12Z</time>
      </trkpt>
      <trkpt lat="46.257136696949601" lon="8.193427445366979">
        <ele>1813.03</ele>
        <time>2023-09-09T07:45:25Z</time>
      </trkpt>
      <trkpt lat="46.257140720263124" lon="8.193525765091181">
        <ele>1815.0699999999999</ele>
        <time>2023-09-09T07:45:38Z</time>
      </trkpt>
      <trkpt lat="46.257154298946261" lon="8.193652415648103">
        <ele>1817.95</ele>
        <time>2023-09-09T07:45:57Z</time>
      </trkpt>
      <trkpt lat="46.257150107994676" lon="8.193711591884494">
        <ele>1819.1400000000001</ele>
        <time>2023-09-09T07:46:19Z</time>
      </trkpt>
      <trkpt lat="46.257179360836744" lon="8.193877469748259">
        <ele>1822.3800000000001</ele>
        <time>2023-09-09T07:46:37Z</time>
      </trkpt>
      <trkpt lat="46.257205428555608" lon="8.194001941010356">
        <ele>1824.71</ele>
        <time>2023-09-09T07:46:49Z</time>
      </trkpt>
      <trkpt lat="46.257230741903186" lon="8.194131357595325">
        <ele>1827.1300000000001</ele>
        <time>2023-09-09T07:47:02Z</time>
      </trkpt>
      <trkpt lat="46.2572490144521" lon="8.194236047565937">
        <ele>1829.6800000000001</ele>
        <time>2023-09-09T07:47:15Z</time>
      </trkpt>
      <trkpt lat="46.257256641983986" lon="8.194375690072775">
        <ele>1832.0599999999999</ele>
        <time>2023-09-09T07:47:31Z</time>
      </trkpt>
      <trkpt lat="46.257297713309526" lon="8.194446349516511">
        <ele>1834.45</ele>
        <time>2023-09-09T07:47:45Z</time>
      </trkpt>
      <trkpt lat="46.257348004728556" lon="8.194517930969596">
        <ele>1837.21</ele>
        <time>2023-09-09T07:47:59Z</time>
      </trkpt>
      <trkpt lat="46.257391590625048" lon="8.194570150226355">
        <ele>1839.26</ele>
        <time>2023-09-09T07:48:12Z</time>
      </trkpt>
      <trkpt lat="46.257439283654094" lon="8.194661680608988">
        <ele>1841.46</ele>
        <time>2023-09-09T07:48:27Z</time>
      </trkpt>
      <trkpt lat="46.257431404665112" lon="8.194826636463404">
        <ele>1843</ele>
        <time>2023-09-09T07:48:39Z</time>
      </trkpt>
      <trkpt lat="46.257400894537568" lon="8.194936355575919">
        <ele>1843.6800000000001</ele>
        <time>2023-09-09T07:48:51Z</time>
      </trkpt>
      <trkpt lat="46.257386980578303" lon="8.194994106888771">
        <ele>1844.75</ele>
        <time>2023-09-09T07:49:02Z</time>
      </trkpt>
      <trkpt lat="46.25736141577363" lon="8.195036686956883">
        <ele>1845.5599999999999</ele>
        <time>2023-09-09T07:49:24Z</time>
      </trkpt>
      <trkpt lat="46.257370132952929" lon="8.195091923698783">
        <ele>1852.1900000000001</ele>
        <time>2023-09-09T07:52:16Z</time>
      </trkpt>
      <trkpt lat="46.257468955591321" lon="8.195057390257716">
        <ele>1855.4100000000001</ele>
        <time>2023-09-09T07:52:33Z</time>
      </trkpt>
      <trkpt lat="46.257497034966946" lon="8.195170210674405">
        <ele>1858.5599999999999</ele>
        <time>2023-09-09T07:52:47Z</time>
      </trkpt>
      <trkpt lat="46.257468368858099" lon="8.195324940606952">
        <ele>1861.25</ele>
        <time>2023-09-09T07:53:03Z</time>
      </trkpt>
      <trkpt lat="46.257448755204678" lon="8.195401718840003">
        <ele>1862.74</ele>
        <time>2023-09-09T07:53:14Z</time>
      </trkpt>
      <trkpt lat="46.257491586729884" lon="8.19541378878057">
        <ele>1864.75</ele>
        <time>2023-09-09T07:53:29Z</time>
      </trkpt>
      <trkpt lat="46.257575154304504" lon="8.195350673049688">
        <ele>1867.24</ele>
        <time>2023-09-09T07:53:46Z</time>
      </trkpt>
      <trkpt lat="46.257634665817022" lon="8.195289820432663">
        <ele>1868.96</ele>
        <time>2023-09-09T07:53:58Z</time>
      </trkpt>
      <trkpt lat="46.257689986377954" lon="8.195219412446022">
        <ele>1871.0999999999999</ele>
        <time>2023-09-09T07:54:15Z</time>
      </trkpt>
      <trkpt lat="46.257789731025696" lon="8.195172725245357">
        <ele>1873.75</ele>
        <time>2023-09-09T07:54:31Z</time>
      </trkpt>
      <trkpt lat="46.257879249751568" lon="8.19518068805337">
        <ele>1876.5</ele>
        <time>2023-09-09T07:54:46Z</time>
      </trkpt>
      <trkpt lat="46.257972791790962" lon="8.195191416889429">
        <ele>1878.6900000000001</ele>
        <time>2023-09-09T07:55:03Z</time>
      </trkpt>
      <trkpt lat="46.25802350230515" lon="8.195180352777243">
        <ele>1879.8199999999999</ele>
        <time>2023-09-09T07:55:17Z</time>
      </trkpt>
      <trkpt lat="46.258076392114162" lon="8.195188483223319">
        <ele>1881.5599999999999</ele>
        <time>2023-09-09T07:55:34Z</time>
      </trkpt>
      <trkpt lat="46.258065411821008" lon="8.195075243711472">
        <ele>1884.5899999999999</ele>
        <time>2023-09-09T07:55:48Z</time>
      </trkpt>
      <trkpt lat="46.258043367415667" lon="8.194892099127173">
        <ele>1886.55</ele>
        <time>2023-09-09T07:56:04Z</time>
      </trkpt>
      <trkpt lat="46.258065747097135" lon="8.194751450791955">
        <ele>1889.05</ele>
        <time>2023-09-09T07:56:21Z</time>
      </trkpt>
      <trkpt lat="46.258090389892459" lon="8.194684144109488">
        <ele>1889.55</ele>
        <time>2023-09-09T07:56:28Z</time>
      </trkpt>
      <trkpt lat="46.258096760138869" lon="8.194533437490463">
        <ele>1889.98</ele>
        <time>2023-09-09T07:56:40Z</time>
      </trkpt>
      <trkpt lat="46.258079828694463" lon="8.194448025897145">
        <ele>1891.46</ele>
        <time>2023-09-09T07:56:50Z</time>
      </trkpt>
      <trkpt lat="46.258073123171926" lon="8.194426484405994">
        <ele>1891.8599999999999</ele>
        <time>2023-09-09T07:56:53Z</time>
      </trkpt>
      <trkpt lat="46.258066417649388" lon="8.194288266822696">
        <ele>1893.45</ele>
        <time>2023-09-09T07:57:04Z</time>
      </trkpt>
      <trkpt lat="46.258046049624681" lon="8.194158766418695">
        <ele>1894.9100000000001</ele>
        <time>2023-09-09T07:57:17Z</time>
      </trkpt>
      <trkpt lat="46.258038002997637" lon="8.194019962102175">
        <ele>1897.97</ele>
        <time>2023-09-09T07:57:32Z</time>
      </trkpt>
      <trkpt lat="46.25803716480732" lon="8.193914098665118">
        <ele>1900.99</ele>
        <time>2023-09-09T07:57:49Z</time>
      </trkpt>
      <trkpt lat="46.258079912513494" lon="8.193844612687826">
        <ele>1901.1900000000001</ele>
        <time>2023-09-09T07:58:13Z</time>
      </trkpt>
      <trkpt lat="46.258100112900138" lon="8.193824999034405">
        <ele>1902.3800000000001</ele>
        <time>2023-09-09T07:58:18Z</time>
      </trkpt>
      <trkpt lat="46.258163480088115" lon="8.19374998100102">
        <ele>1903.5</ele>
        <time>2023-09-09T07:58:28Z</time>
      </trkpt>
      <trkpt lat="46.258234223350883" lon="8.19369382224977">
        <ele>1906.0799999999999</ele>
        <time>2023-09-09T07:58:42Z</time>
      </trkpt>
      <trkpt lat="46.258348720148206" lon="8.193638753145933">
        <ele>1906.8599999999999</ele>
        <time>2023-09-09T07:58:57Z</time>
      </trkpt>
      <trkpt lat="46.258420469239354" lon="8.193626180291176">
        <ele>1906.4200000000001</ele>
        <time>2023-09-09T07:59:05Z</time>
      </trkpt>
      <trkpt lat="46.258511329069734" lon="8.193623246625066">
        <ele>1906.3</ele>
        <time>2023-09-09T07:59:18Z</time>
      </trkpt>
      <trkpt lat="46.258518788963556" lon="8.19362249225378">
        <ele>1906.3599999999999</ele>
        <time>2023-09-09T07:59:19Z</time>
      </trkpt>
      <trkpt lat="46.258611408993602" lon="8.193631377071142">
        <ele>1906.95</ele>
        <time>2023-09-09T07:59:32Z</time>
      </trkpt>
      <trkpt lat="46.258662370964885" lon="8.193662725389004">
        <ele>1907.4100000000001</ele>
        <time>2023-09-09T07:59:42Z</time>
      </trkpt>
      <trkpt lat="46.258738981559873" lon="8.193795830011368">
        <ele>1907.8499999999999</ele>
        <time>2023-09-09T07:59:57Z</time>
      </trkpt>
      <trkpt lat="46.258822800591588" lon="8.193891383707523">
        <ele>1910.1700000000001</ele>
        <time>2023-09-09T08:00:12Z</time>
      </trkpt>
      <trkpt lat="46.258856998756528" lon="8.193966904655099">
        <ele>1912.2</ele>
        <time>2023-09-09T08:00:25Z</time>
      </trkpt>
      <trkpt lat="46.258839815855026" lon="8.194012669846416">
        <ele>1913.9200000000001</ele>
        <time>2023-09-09T08:00:35Z</time>
      </trkpt>
      <trkpt lat="46.258867811411619" lon="8.194077294319868">
        <ele>1914.3199999999999</ele>
        <time>2023-09-09T08:01:59Z</time>
      </trkpt>
      <trkpt lat="46.258967556059361" lon="8.194260355085135">
        <ele>1916.03</ele>
        <time>2023-09-09T08:02:15Z</time>
      </trkpt>
      <trkpt lat="46.259101834148169" lon="8.194437129423022">
        <ele>1918.22</ele>
        <time>2023-09-09T08:02:31Z</time>
      </trkpt>
      <trkpt lat="46.25921574421227" lon="8.194574844092131">
        <ele>1919.5599999999999</ele>
        <time>2023-09-09T08:02:44Z</time>
      </trkpt>
      <trkpt lat="46.259305430576205" lon="8.194685904309154">
        <ele>1921.1199999999999</ele>
        <time>2023-09-09T08:02:56Z</time>
      </trkpt>
      <trkpt lat="46.259392686188221" lon="8.194790426641703">
        <ele>1923.3399999999999</ele>
        <time>2023-09-09T08:03:09Z</time>
      </trkpt>
      <trkpt lat="46.259495783597231" lon="8.1949183344841">
        <ele>1925.6400000000001</ele>
        <time>2023-09-09T08:03:25Z</time>
      </trkpt>
      <trkpt lat="46.259621093049645" lon="8.195019084960222">
        <ele>1927.6400000000001</ele>
        <time>2023-09-09T08:03:42Z</time>
      </trkpt>
      <trkpt lat="46.259755790233612" lon="8.195079937577248">
        <ele>1929.5999999999999</ele>
        <time>2023-09-09T08:03:58Z</time>
      </trkpt>
      <trkpt lat="46.259899623692036" lon="8.195110699161887">
        <ele>1931.1300000000001</ele>
        <time>2023-09-09T08:04:14Z</time>
      </trkpt>
      <trkpt lat="46.260042199864984" lon="8.195099802687764">
        <ele>1932.1400000000001</ele>
        <time>2023-09-09T08:04:28Z</time>
      </trkpt>
      <trkpt lat="46.260182345286012" lon="8.195103071630001">
        <ele>1932.5899999999999</ele>
        <time>2023-09-09T08:04:42Z</time>
      </trkpt>
      <trkpt lat="46.260323161259294" lon="8.195057976990938">
        <ele>1933.4400000000001</ele>
        <time>2023-09-09T08:04:56Z</time>
      </trkpt>
      <trkpt lat="46.26046322286129" lon="8.194920597597957">
        <ele>1933.53</ele>
        <time>2023-09-09T08:05:12Z</time>
      </trkpt>
      <trkpt lat="46.260580401867628" lon="8.194999303668737">
        <ele>1933.6400000000001</ele>
        <time>2023-09-09T08:05:26Z</time>
      </trkpt>
      <trkpt lat="46.260697497054935" lon="8.195074992254376">
        <ele>1934.1300000000001</ele>
        <time>2023-09-09T08:05:40Z</time>
      </trkpt>
      <trkpt lat="46.260796906426549" lon="8.195120003074408">
        <ele>1934.4200000000001</ele>
        <time>2023-09-09T08:05:51Z</time>
      </trkpt>
      <trkpt lat="46.260872427374125" lon="8.195157134905458">
        <ele>1935.8499999999999</ele>
        <time>2023-09-09T08:06:01Z</time>
      </trkpt>
      <trkpt lat="46.260925233364105" lon="8.195144645869732">
        <ele>1937.96</ele>
        <time>2023-09-09T08:06:13Z</time>
      </trkpt>
      <trkpt lat="46.26093135215342" lon="8.195139532908797">
        <ele>1937.99</ele>
        <time>2023-09-09T08:06:20Z</time>
      </trkpt>
      <trkpt lat="46.260943505913019" lon="8.195077339187264">
        <ele>1937.22</ele>
        <time>2023-09-09T08:06:25Z</time>
      </trkpt>
      <trkpt lat="46.260920707136393" lon="8.194979941472411">
        <ele>1936.4300000000001</ele>
        <time>2023-09-09T08:06:33Z</time>
      </trkpt>
      <trkpt lat="46.260978626087308" lon="8.194855386391282">
        <ele>1937.5899999999999</ele>
        <time>2023-09-09T08:09:46Z</time>
      </trkpt>
      <trkpt lat="46.261009471490979" lon="8.194777937605977">
        <ele>1938.8299999999999</ele>
        <time>2023-09-09T08:10:00Z</time>
      </trkpt>
      <trkpt lat="46.261014668270946" lon="8.194750277325511">
        <ele>1938.76</ele>
        <time>2023-09-09T08:10:19Z</time>
      </trkpt>
      <trkpt lat="46.260991282761097" lon="8.194744912907481">
        <ele>1938.3299999999999</ele>
        <time>2023-09-09T08:10:37Z</time>
      </trkpt>
      <trkpt lat="46.261002849787474" lon="8.194634187966585">
        <ele>1938.4100000000001</ele>
        <time>2023-09-09T08:10:48Z</time>
      </trkpt>
      <trkpt lat="46.261073928326368" lon="8.19450200535357">
        <ele>1938.4000000000001</ele>
        <time>2023-09-09T08:11:02Z</time>
      </trkpt>
      <trkpt lat="46.261075520887971" lon="8.194498820230365">
        <ele>1938.4200000000001</ele>
        <time>2023-09-09T08:12:39Z</time>
      </trkpt>
      <trkpt lat="46.261079460382462" lon="8.194464119151235">
        <ele>1938.04</ele>
        <time>2023-09-09T08:13:04Z</time>
      </trkpt>
      <trkpt lat="46.261073257774115" lon="8.194441823288798">
        <ele>1938.03</ele>
        <time>2023-09-09T08:13:19Z</time>
      </trkpt>
      <trkpt lat="46.261079711839557" lon="8.194398237392306">
        <ele>1937.7</ele>
        <time>2023-09-09T08:14:24Z</time>
      </trkpt>
      <trkpt lat="46.261075772345066" lon="8.194386167451739">
        <ele>1937.8199999999999</ele>
        <time>2023-09-09T08:15:36Z</time>
      </trkpt>
      <trkpt lat="46.261072084307671" lon="8.194372421130538">
        <ele>1937.24</ele>
        <time>2023-09-09T08:16:06Z</time>
      </trkpt>
      <trkpt lat="46.261111982166767" lon="8.194281058385968">
        <ele>1936.01</ele>
        <time>2023-09-09T08:16:15Z</time>
      </trkpt>
      <trkpt lat="46.261141235008836" lon="8.194215847179294">
        <ele>1935.0999999999999</ele>
        <time>2023-09-09T08:16:21Z</time>
      </trkpt>
      <trkpt lat="46.26116931438446" lon="8.194200592115521">
        <ele>1934.71</ele>
        <time>2023-09-09T08:16:25Z</time>
      </trkpt>
      <trkpt lat="46.261206530034542" lon="8.194158682599664">
        <ele>1933.8699999999999</ele>
        <time>2023-09-09T08:16:32Z</time>
      </trkpt>
      <trkpt lat="46.261237459257245" lon="8.194053489714861">
        <ele>1932.47</ele>
        <time>2023-09-09T08:16:42Z</time>
      </trkpt>
      <trkpt lat="46.261237962171435" lon="8.193980818614364">
        <ele>1932.0899999999999</ele>
        <time>2023-09-09T08:16:48Z</time>
      </trkpt>
      <trkpt lat="46.261280877515674" lon="8.193897334858775">
        <ele>1929.49</ele>
        <time>2023-09-09T08:16:56Z</time>
      </trkpt>
      <trkpt lat="46.261331252753735" lon="8.193839332088828">
        <ele>1929.7</ele>
        <time>2023-09-09T08:17:03Z</time>
      </trkpt>
      <trkpt lat="46.261347513645887" lon="8.193820556625724">
        <ele>1929.0999999999999</ele>
        <time>2023-09-09T08:17:05Z</time>
      </trkpt>
      <trkpt lat="46.261353967711329" lon="8.19377931766212">
        <ele>1928.6500000000001</ele>
        <time>2023-09-09T08:17:08Z</time>
      </trkpt>
      <trkpt lat="46.261369474232197" lon="8.193696420639753">
        <ele>1929.1099999999999</ele>
        <time>2023-09-09T08:17:15Z</time>
      </trkpt>
      <trkpt lat="46.261364780366421" lon="8.193643614649773">
        <ele>1929.0699999999999</ele>
        <time>2023-09-09T08:17:20Z</time>
      </trkpt>
      <trkpt lat="46.261327061802149" lon="8.193499110639095">
        <ele>1926.8499999999999</ele>
        <time>2023-09-09T08:17:32Z</time>
      </trkpt>
      <trkpt lat="46.26130074262619" lon="8.193384697660804">
        <ele>1924.05</ele>
        <time>2023-09-09T08:17:42Z</time>
      </trkpt>
      <trkpt lat="46.261292863637209" lon="8.193340860307217">
        <ele>1923.3099999999999</ele>
        <time>2023-09-09T08:17:45Z</time>
      </trkpt>
      <trkpt lat="46.261293282732368" lon="8.193275230005384">
        <ele>1921.8800000000001</ele>
        <time>2023-09-09T08:17:53Z</time>
      </trkpt>
      <trkpt lat="46.261290600523353" lon="8.193270452320576">
        <ele>1921.5599999999999</ele>
        <time>2023-09-09T08:17:54Z</time>
      </trkpt>
      <trkpt lat="46.261257994920015" lon="8.193169366568327">
        <ele>1919.0699999999999</ele>
        <time>2023-09-09T08:18:05Z</time>
      </trkpt>
      <trkpt lat="46.261228322982788" lon="8.193136174231768">
        <ele>1917.9400000000001</ele>
        <time>2023-09-09T08:18:12Z</time>
      </trkpt>
      <trkpt lat="46.261172918602824" lon="8.193094013258815">
        <ele>1916.1500000000001</ele>
        <time>2023-09-09T08:18:22Z</time>
      </trkpt>
      <trkpt lat="46.26116931438446" lon="8.192991418763995">
        <ele>1914.73</ele>
        <time>2023-09-09T08:18:32Z</time>
      </trkpt>
      <trkpt lat="46.261131847277284" lon="8.192892512306571">
        <ele>1911.98</ele>
        <time>2023-09-09T08:18:44Z</time>
      </trkpt>
      <trkpt lat="46.261110138148069" lon="8.192847752943635">
        <ele>1910.8299999999999</ele>
        <time>2023-09-09T08:18:52Z</time>
      </trkpt>
      <trkpt lat="46.261135116219521" lon="8.192810285836458">
        <ele>1909.3800000000001</ele>
        <time>2023-09-09T08:19:01Z</time>
      </trkpt>
      <trkpt lat="46.261183563619852" lon="8.192808777093887">
        <ele>1907.95</ele>
        <time>2023-09-09T08:19:07Z</time>
      </trkpt>
      <trkpt lat="46.261236453428864" lon="8.192817410454154">
        <ele>1907.0799999999999</ele>
        <time>2023-09-09T08:19:15Z</time>
      </trkpt>
      <trkpt lat="46.261333264410496" lon="8.192828390747309">
        <ele>1905.5</ele>
        <time>2023-09-09T08:19:28Z</time>
      </trkpt>
      <trkpt lat="46.2613779399544" lon="8.19279377348721">
        <ele>1904.98</ele>
        <time>2023-09-09T08:19:34Z</time>
      </trkpt>
      <trkpt lat="46.261367965489626" lon="8.192742308601737">
        <ele>1905.26</ele>
        <time>2023-09-09T08:19:39Z</time>
      </trkpt>
      <trkpt lat="46.261316332966089" lon="8.192596882581711">
        <ele>1904.1600000000001</ele>
        <time>2023-09-09T08:19:49Z</time>
      </trkpt>
      <trkpt lat="46.261310297995806" lon="8.192572239786387">
        <ele>1903.6199999999999</ele>
        <time>2023-09-09T08:19:52Z</time>
      </trkpt>
      <trkpt lat="46.261303843930364" lon="8.192523289471865">
        <ele>1903.1099999999999</ele>
        <time>2023-09-09T08:19:55Z</time>
      </trkpt>
      <trkpt lat="46.261296132579446" lon="8.192480960860848">
        <ele>1902.9200000000001</ele>
        <time>2023-09-09T08:19:58Z</time>
      </trkpt>
      <trkpt lat="46.261295629665256" lon="8.192413570359349">
        <ele>1902.75</ele>
        <time>2023-09-09T08:20:02Z</time>
      </trkpt>
      <trkpt lat="46.261322787031531" lon="8.192308209836483">
        <ele>1902.79</ele>
        <time>2023-09-09T08:20:11Z</time>
      </trkpt>
      <trkpt lat="46.26136670820415" lon="8.192208968102932">
        <ele>1902.25</ele>
        <time>2023-09-09T08:20:20Z</time>
      </trkpt>
      <trkpt lat="46.261378778144717" lon="8.192164124920964">
        <ele>1901.75</ele>
        <time>2023-09-09T08:20:23Z</time>
      </trkpt>
      <trkpt lat="46.261424710974097" lon="8.19205105304718">
        <ele>1899.6700000000001</ele>
        <time>2023-09-09T08:20:35Z</time>
      </trkpt>
      <trkpt lat="46.261485731229186" lon="8.191988607868552">
        <ele>1897.71</ele>
        <time>2023-09-09T08:20:46Z</time>
      </trkpt>
      <trkpt lat="46.261567706242204" lon="8.192026158794761">
        <ele>1896.73</ele>
        <time>2023-09-09T08:21:00Z</time>
      </trkpt>
      <trkpt lat="46.261654626578093" lon="8.191875452175736">
        <ele>1896.0699999999999</ele>
        <time>2023-09-09T08:21:15Z</time>
      </trkpt>
      <trkpt lat="46.261651776731014" lon="8.191844942048192">
        <ele>1895.3699999999999</ele>
        <time>2023-09-09T08:21:18Z</time>
      </trkpt>
      <trkpt lat="46.261632833629847" lon="8.19173731841147">
        <ele>1893.8299999999999</ele>
        <time>2023-09-09T08:21:28Z</time>
      </trkpt>
      <trkpt lat="46.26159343868494" lon="8.191714100539684">
        <ele>1892.8399999999999</ele>
        <time>2023-09-09T08:21:36Z</time>
      </trkpt>
      <trkpt lat="46.261562509462237" lon="8.191709071397781">
        <ele>1892.3900000000001</ele>
        <time>2023-09-09T08:21:40Z</time>
      </trkpt>
      <trkpt lat="46.261470476165414" lon="8.191668167710304">
        <ele>1890.9200000000001</ele>
        <time>2023-09-09T08:21:49Z</time>
      </trkpt>
      <trkpt lat="46.2614038400352" lon="8.19151796400547">
        <ele>1890.01</ele>
        <time>2023-09-09T08:22:01Z</time>
      </trkpt>
      <trkpt lat="46.261393865570426" lon="8.191497595980763">
        <ele>1889.8699999999999</ele>
        <time>2023-09-09T08:22:03Z</time>
      </trkpt>
      <trkpt lat="46.26136964187026" lon="8.191453171893954">
        <ele>1889.1400000000001</ele>
        <time>2023-09-09T08:22:07Z</time>
      </trkpt>
      <trkpt lat="46.261296970769763" lon="8.191387290135026">
        <ele>1888.02</ele>
        <time>2023-09-09T08:22:15Z</time>
      </trkpt>
      <trkpt lat="46.261255983263254" lon="8.191301878541708">
        <ele>1887.9000000000001</ele>
        <time>2023-09-09T08:22:22Z</time>
      </trkpt>
      <trkpt lat="46.261186078190804" lon="8.191204061731696">
        <ele>1888.8199999999999</ele>
        <time>2023-09-09T08:22:32Z</time>
      </trkpt>
      <trkpt lat="46.261156070977449" lon="8.19116273894906">
        <ele>1888.53</ele>
        <time>2023-09-09T08:22:36Z</time>
      </trkpt>
      <trkpt lat="46.261152550578117" lon="8.191138515248895">
        <ele>1888.54</ele>
        <time>2023-09-09T08:22:37Z</time>
      </trkpt>
      <trkpt lat="46.261146180331707" lon="8.191122086718679">
        <ele>1888.5699999999999</ele>
        <time>2023-09-09T08:22:38Z</time>
      </trkpt>
      <trkpt lat="46.261112317442894" lon="8.191022844985127">
        <ele>1887.27</ele>
        <time>2023-09-09T08:22:44Z</time>
      </trkpt>
      <trkpt lat="46.26110527664423" lon="8.19100633263588">
        <ele>1887.1700000000001</ele>
        <time>2023-09-09T08:22:45Z</time>
      </trkpt>
      <trkpt lat="46.261061104014516" lon="8.190921256318688">
        <ele>1886.4300000000001</ele>
        <time>2023-09-09T08:22:51Z</time>
      </trkpt>
      <trkpt lat="46.261057918891311" lon="8.190900133922696">
        <ele>1886.29</ele>
        <time>2023-09-09T08:22:52Z</time>
      </trkpt>
      <trkpt lat="46.261052303016186" lon="8.19088420830667">
        <ele>1886.24</ele>
        <time>2023-09-09T08:22:53Z</time>
      </trkpt>
      <trkpt lat="46.261045848950744" lon="8.190869707614183">
        <ele>1886.0999999999999</ele>
        <time>2023-09-09T08:22:54Z</time>
      </trkpt>
      <trkpt lat="46.261038975790143" lon="8.190855123102665">
        <ele>1886.1400000000001</ele>
        <time>2023-09-09T08:22:55Z</time>
      </trkpt>
      <trkpt lat="46.260988432914019" lon="8.190769040957093">
        <ele>1885.1500000000001</ele>
        <time>2023-09-09T08:23:02Z</time>
      </trkpt>
      <trkpt lat="46.260974016040564" lon="8.190741883590818">
        <ele>1884.8900000000001</ele>
        <time>2023-09-09T08:23:04Z</time>
      </trkpt>
      <trkpt lat="46.260960102081299" lon="8.190714223310351">
        <ele>1884.5899999999999</ele>
        <time>2023-09-09T08:23:06Z</time>
      </trkpt>
      <trkpt lat="46.260952642187476" lon="8.190685054287314">
        <ele>1884.45</ele>
        <time>2023-09-09T08:23:08Z</time>
      </trkpt>
      <trkpt lat="46.260945936664939" lon="8.190644402056932">
        <ele>1884.1700000000001</ele>
        <time>2023-09-09T08:23:11Z</time>
      </trkpt>
      <trkpt lat="46.260935207828879" lon="8.190594194456935">
        <ele>1884.24</ele>
        <time>2023-09-09T08:23:14Z</time>
      </trkpt>
      <trkpt lat="46.260922383517027" lon="8.190549099817872">
        <ele>1883.9000000000001</ele>
        <time>2023-09-09T08:23:17Z</time>
      </trkpt>
      <trkpt lat="46.260917689651251" lon="8.190529067069292">
        <ele>1883.8599999999999</ele>
        <time>2023-09-09T08:23:18Z</time>
      </trkpt>
      <trkpt lat="46.260914169251919" lon="8.190511967986822">
        <ele>1883.74</ele>
        <time>2023-09-09T08:23:19Z</time>
      </trkpt>
      <trkpt lat="46.260911067947745" lon="8.190495455637574">
        <ele>1883.5899999999999</ele>
        <time>2023-09-09T08:23:20Z</time>
      </trkpt>
      <trkpt lat="46.26090687699616" lon="8.190479697659612">
        <ele>1883.5</ele>
        <time>2023-09-09T08:23:21Z</time>
      </trkpt>
      <trkpt lat="46.260877540335059" lon="8.190388837829232">
        <ele>1882.8699999999999</ele>
        <time>2023-09-09T08:23:27Z</time>
      </trkpt>
      <trkpt lat="46.260876031592488" lon="8.190339971333742">
        <ele>1882.76</ele>
        <time>2023-09-09T08:23:30Z</time>
      </trkpt>
      <trkpt lat="46.260872427374125" lon="8.190285069867969">
        <ele>1882.1800000000001</ele>
        <time>2023-09-09T08:23:33Z</time>
      </trkpt>
      <trkpt lat="46.260869828984141" lon="8.190264198929071">
        <ele>1882.01</ele>
        <time>2023-09-09T08:23:34Z</time>
      </trkpt>
      <trkpt lat="46.260859183967113" lon="8.190125981345773">
        <ele>1882.23</ele>
        <time>2023-09-09T08:23:43Z</time>
      </trkpt>
      <trkpt lat="46.260864799842238" lon="8.190108463168144">
        <ele>1882.4000000000001</ele>
        <time>2023-09-09T08:23:44Z</time>
      </trkpt>
      <trkpt lat="46.260847616940737" lon="8.189978459849954">
        <ele>1882.25</ele>
        <time>2023-09-09T08:23:52Z</time>
      </trkpt>
      <trkpt lat="46.260842755436897" lon="8.189941914752126">
        <ele>1882.2</ele>
        <time>2023-09-09T08:23:54Z</time>
      </trkpt>
      <trkpt lat="46.260839654132724" lon="8.189924228936434">
        <ele>1882.1600000000001</ele>
        <time>2023-09-09T08:23:55Z</time>
      </trkpt>
      <trkpt lat="46.260838648304343" lon="8.189905872568488">
        <ele>1882.23</ele>
        <time>2023-09-09T08:23:56Z</time>
      </trkpt>
      <trkpt lat="46.26082674600184" lon="8.189801266416907">
        <ele>1882.24</ele>
        <time>2023-09-09T08:24:03Z</time>
      </trkpt>
      <trkpt lat="46.260810485109687" lon="8.18958199582994">
        <ele>1882.23</ele>
        <time>2023-09-09T08:24:16Z</time>
      </trkpt>
      <trkpt lat="46.260786093771458" lon="8.189380243420601">
        <ele>1882.55</ele>
        <time>2023-09-09T08:24:29Z</time>
      </trkpt>
      <trkpt lat="46.26078475266695" lon="8.189365323632956">
        <ele>1882.55</ele>
        <time>2023-09-09T08:24:30Z</time>
      </trkpt>
      <trkpt lat="46.26077787950635" lon="8.189316038042307">
        <ele>1882.49</ele>
        <time>2023-09-09T08:24:34Z</time>
      </trkpt>
      <trkpt lat="46.260771425440907" lon="8.189191063866019">
        <ele>1882.5899999999999</ele>
        <time>2023-09-09T08:24:43Z</time>
      </trkpt>
      <trkpt lat="46.260745106264949" lon="8.189099533483386">
        <ele>1882.54</ele>
        <time>2023-09-09T08:24:48Z</time>
      </trkpt>
      <trkpt lat="46.260737059637904" lon="8.189033819362521">
        <ele>1882.6900000000001</ele>
        <time>2023-09-09T08:24:52Z</time>
      </trkpt>
      <trkpt lat="46.260739155113697" lon="8.18901957012713">
        <ele>1882.8199999999999</ele>
        <time>2023-09-09T08:24:53Z</time>
      </trkpt>
      <trkpt lat="46.260738987475634" lon="8.188996687531471">
        <ele>1882.75</ele>
        <time>2023-09-09T08:24:54Z</time>
      </trkpt>
      <trkpt lat="46.260734796524048" lon="8.188975313678384">
        <ele>1882.77</ele>
        <time>2023-09-09T08:24:55Z</time>
      </trkpt>
      <trkpt lat="46.260736472904682" lon="8.188962573185563">
        <ele>1882.71</ele>
        <time>2023-09-09T08:24:56Z</time>
      </trkpt>
      <trkpt lat="46.260739155113697" lon="8.188950167968869">
        <ele>1882.78</ele>
        <time>2023-09-09T08:24:57Z</time>
      </trkpt>
      <trkpt lat="46.260776873677969" lon="8.188813291490078">
        <ele>1883.1300000000001</ele>
        <time>2023-09-09T08:25:07Z</time>
      </trkpt>
      <trkpt lat="46.260774526745081" lon="8.188797701150179">
        <ele>1882.95</ele>
        <time>2023-09-09T08:25:08Z</time>
      </trkpt>
      <trkpt lat="46.260774526745081" lon="8.18878311663866">
        <ele>1883.05</ele>
        <time>2023-09-09T08:25:09Z</time>
      </trkpt>
      <trkpt lat="46.260775113478303" lon="8.188768783584237">
        <ele>1883.22</ele>
        <time>2023-09-09T08:25:10Z</time>
      </trkpt>
      <trkpt lat="46.260680146515369" lon="8.18856124766171">
        <ele>1882.49</ele>
        <time>2023-09-09T08:25:22Z</time>
      </trkpt>
      <trkpt lat="46.260678470134735" lon="8.188546830788255">
        <ele>1882.54</ele>
        <time>2023-09-09T08:25:23Z</time>
      </trkpt>
      <trkpt lat="46.260675201192498" lon="8.188530905172229">
        <ele>1882.48</ele>
        <time>2023-09-09T08:25:24Z</time>
      </trkpt>
      <trkpt lat="46.260674865916371" lon="8.18851531483233">
        <ele>1882.4300000000001</ele>
        <time>2023-09-09T08:25:25Z</time>
      </trkpt>
      <trkpt lat="46.260676039382815" lon="8.188501065596938">
        <ele>1882.6099999999999</ele>
        <time>2023-09-09T08:25:26Z</time>
      </trkpt>
      <trkpt lat="46.260668747127056" lon="8.188400063663721">
        <ele>1882.5599999999999</ele>
        <time>2023-09-09T08:25:33Z</time>
      </trkpt>
      <trkpt lat="46.260667154565454" lon="8.188382042571902">
        <ele>1882.7</ele>
        <time>2023-09-09T08:25:34Z</time>
      </trkpt>
      <trkpt lat="46.260667238384485" lon="8.188364943489432">
        <ele>1882.6199999999999</ele>
        <time>2023-09-09T08:25:35Z</time>
      </trkpt>
      <trkpt lat="46.260667406022549" lon="8.188350275158882">
        <ele>1882.54</ele>
        <time>2023-09-09T08:25:36Z</time>
      </trkpt>
      <trkpt lat="46.260639578104019" lon="8.188178278505802">
        <ele>1882.9000000000001</ele>
        <time>2023-09-09T08:25:49Z</time>
      </trkpt>
      <trkpt lat="46.26064452342689" lon="8.188154557719827">
        <ele>1883.0899999999999</ele>
        <time>2023-09-09T08:25:51Z</time>
      </trkpt>
      <trkpt lat="46.260654330253601" lon="8.188053974881768">
        <ele>1885.6800000000001</ele>
        <time>2023-09-09T08:26:02Z</time>
      </trkpt>
      <trkpt lat="46.260651983320713" lon="8.188039809465408">
        <ele>1885.6500000000001</ele>
        <time>2023-09-09T08:26:03Z</time>
      </trkpt>
      <trkpt lat="46.260649971663952" lon="8.188024302944541">
        <ele>1885.6800000000001</ele>
        <time>2023-09-09T08:26:04Z</time>
      </trkpt>
      <trkpt lat="46.26067578792572" lon="8.187892455607653">
        <ele>1886.45</ele>
        <time>2023-09-09T08:26:16Z</time>
      </trkpt>
      <trkpt lat="46.260685008019209" lon="8.187759099528194">
        <ele>1887.1300000000001</ele>
        <time>2023-09-09T08:26:27Z</time>
      </trkpt>
      <trkpt lat="46.260675871744752" lon="8.18773546256125">
        <ele>1887.0699999999999</ele>
        <time>2023-09-09T08:26:29Z</time>
      </trkpt>
      <trkpt lat="46.260670088231564" lon="8.187724398449063">
        <ele>1886.8800000000001</ele>
        <time>2023-09-09T08:26:30Z</time>
      </trkpt>
      <trkpt lat="46.260650809854269" lon="8.187693050131202">
        <ele>1886.4300000000001</ele>
        <time>2023-09-09T08:26:33Z</time>
      </trkpt>
      <trkpt lat="46.260577049106359" lon="8.187614846974611">
        <ele>1885.48</ele>
        <time>2023-09-09T08:26:40Z</time>
      </trkpt>
      <trkpt lat="46.260527176782489" lon="8.187511917203665">
        <ele>1883.8800000000001</ele>
        <time>2023-09-09T08:26:47Z</time>
      </trkpt>
      <trkpt lat="46.260516531765461" lon="8.187350817024708">
        <ele>1882.3399999999999</ele>
        <time>2023-09-09T08:26:59Z</time>
      </trkpt>
      <trkpt lat="46.260513765737414" lon="8.187322821468115">
        <ele>1881.9200000000001</ele>
        <time>2023-09-09T08:27:01Z</time>
      </trkpt>
      <trkpt lat="46.260512173175812" lon="8.187307482585311">
        <ele>1881.7</ele>
        <time>2023-09-09T08:27:02Z</time>
      </trkpt>
      <trkpt lat="46.260512927547097" lon="8.18729231134057">
        <ele>1881.52</ele>
        <time>2023-09-09T08:27:03Z</time>
      </trkpt>
      <trkpt lat="46.260510748252273" lon="8.187241517007351">
        <ele>1880.47</ele>
        <time>2023-09-09T08:27:07Z</time>
      </trkpt>
      <trkpt lat="46.260508988052607" lon="8.187226010486484">
        <ele>1880.3499999999999</ele>
        <time>2023-09-09T08:27:08Z</time>
      </trkpt>
      <trkpt lat="46.260530026629567" lon="8.187105897814035">
        <ele>1879.55</ele>
        <time>2023-09-09T08:27:16Z</time>
      </trkpt>
      <trkpt lat="46.260538157075644" lon="8.187091900035739">
        <ele>1879.51</ele>
        <time>2023-09-09T08:27:17Z</time>
      </trkpt>
      <trkpt lat="46.260545030236244" lon="8.187078572809696">
        <ele>1879.6400000000001</ele>
        <time>2023-09-09T08:27:18Z</time>
      </trkpt>
      <trkpt lat="46.260553076863289" lon="8.187066921964288">
        <ele>1879.5699999999999</ele>
        <time>2023-09-09T08:27:19Z</time>
      </trkpt>
      <trkpt lat="46.260562129318714" lon="8.187003722414374">
        <ele>1880.5899999999999</ele>
        <time>2023-09-09T08:27:28Z</time>
      </trkpt>
      <trkpt lat="46.260566907003522" lon="8.186877574771643">
        <ele>1879.0799999999999</ele>
        <time>2023-09-09T08:27:38Z</time>
      </trkpt>
      <trkpt lat="46.26056682318449" lon="8.186772046610713">
        <ele>1878.6500000000001</ele>
        <time>2023-09-09T08:27:46Z</time>
      </trkpt>
      <trkpt lat="46.2605697568506" lon="8.186750840395689">
        <ele>1878.71</ele>
        <time>2023-09-09T08:27:47Z</time>
      </trkpt>
      <trkpt lat="46.26057998277247" lon="8.186708427965641">
        <ele>1878.4300000000001</ele>
        <time>2023-09-09T08:27:50Z</time>
      </trkpt>
      <trkpt lat="46.260621808469296" lon="8.186527881771326">
        <ele>1878.1500000000001</ele>
        <time>2023-09-09T08:28:03Z</time>
      </trkpt>
      <trkpt lat="46.260639494284987" lon="8.186493515968323">
        <ele>1878.25</ele>
        <time>2023-09-09T08:28:06Z</time>
      </trkpt>
      <trkpt lat="46.260645445436239" lon="8.186487145721912">
        <ele>1878.4200000000001</ele>
        <time>2023-09-09T08:28:07Z</time>
      </trkpt>
      <trkpt lat="46.2606440205127" lon="8.186438111588359">
        <ele>1878.0699999999999</ele>
        <time>2023-09-09T08:28:10Z</time>
      </trkpt>
      <trkpt lat="46.260696826502681" lon="8.186360914260149">
        <ele>1878.03</ele>
        <time>2023-09-09T08:28:20Z</time>
      </trkpt>
      <trkpt lat="46.260706130415201" lon="8.186352532356978">
        <ele>1878.04</ele>
        <time>2023-09-09T08:28:21Z</time>
      </trkpt>
      <trkpt lat="46.260850047692657" lon="8.186228899285197">
        <ele>1879.3099999999999</ele>
        <time>2023-09-09T08:28:39Z</time>
      </trkpt>
      <trkpt lat="46.260928250849247" lon="8.186139212921262">
        <ele>1880.6300000000001</ele>
        <time>2023-09-09T08:28:54Z</time>
      </trkpt>
      <trkpt lat="46.260971082374454" lon="8.185983644798398">
        <ele>1880.77</ele>
        <time>2023-09-09T08:29:06Z</time>
      </trkpt>
      <trkpt lat="46.261058505624533" lon="8.185929078608751">
        <ele>1880.72</ele>
        <time>2023-09-09T08:29:20Z</time>
      </trkpt>
      <trkpt lat="46.261086585000157" lon="8.185898568481207">
        <ele>1880.79</ele>
        <time>2023-09-09T08:29:23Z</time>
      </trkpt>
      <trkpt lat="46.261140396818519" lon="8.185798153281212">
        <ele>1879.6500000000001</ele>
        <time>2023-09-09T08:29:30Z</time>
      </trkpt>
      <trkpt lat="46.261147521436214" lon="8.185785412788391">
        <ele>1879.6400000000001</ele>
        <time>2023-09-09T08:29:31Z</time>
      </trkpt>
      <trkpt lat="46.261154394596815" lon="8.185772337019444">
        <ele>1879.5999999999999</ele>
        <time>2023-09-09T08:29:32Z</time>
      </trkpt>
      <trkpt lat="46.261162525042892" lon="8.185760686174035">
        <ele>1879.46</ele>
        <time>2023-09-09T08:29:33Z</time>
      </trkpt>
      <trkpt lat="46.261171409860253" lon="8.18574677221477">
        <ele>1879.51</ele>
        <time>2023-09-09T08:29:34Z</time>
      </trkpt>
      <trkpt lat="46.261248271912336" lon="8.18565733730793">
        <ele>1878.0999999999999</ele>
        <time>2023-09-09T08:29:46Z</time>
      </trkpt>
      <trkpt lat="46.261306358501315" lon="8.18551761098206">
        <ele>1875.48</ele>
        <time>2023-09-09T08:29:59Z</time>
      </trkpt>
      <trkpt lat="46.261340137571096" lon="8.185384003445506">
        <ele>1873.4000000000001</ele>
        <time>2023-09-09T08:30:10Z</time>
      </trkpt>
      <trkpt lat="46.261329744011164" lon="8.18528451025486">
        <ele>1871.48</ele>
        <time>2023-09-09T08:30:21Z</time>
      </trkpt>
      <trkpt lat="46.261367965489626" lon="8.185189291834831">
        <ele>1870.5899999999999</ele>
        <time>2023-09-09T08:30:31Z</time>
      </trkpt>
      <trkpt lat="46.261366875842214" lon="8.185185939073563">
        <ele>1869.8</ele>
        <time>2023-09-09T08:30:39Z</time>
      </trkpt>
      <trkpt lat="46.261367881670594" lon="8.185169426724315">
        <ele>1869.23</ele>
        <time>2023-09-09T08:30:58Z</time>
      </trkpt>
      <trkpt lat="46.261376012116671" lon="8.185155428946018">
        <ele>1869.26</ele>
        <time>2023-09-09T08:31:16Z</time>
      </trkpt>
      <trkpt lat="46.261381460353732" lon="8.185130786150694">
        <ele>1869.4300000000001</ele>
        <time>2023-09-09T08:31:41Z</time>
      </trkpt>
      <trkpt lat="46.261379951611161" lon="8.185134222730994">
        <ele>1869.05</ele>
        <time>2023-09-09T08:32:02Z</time>
      </trkpt>
      <trkpt lat="46.26138674095273" lon="8.185125170275569">
        <ele>1868.6800000000001</ele>
        <time>2023-09-09T08:32:31Z</time>
      </trkpt>
      <trkpt lat="46.261388165876269" lon="8.185126930475235">
        <ele>1868.53</ele>
        <time>2023-09-09T08:32:54Z</time>
      </trkpt>
      <trkpt lat="46.261384729295969" lon="8.185123326256871">
        <ele>1868.4300000000001</ele>
        <time>2023-09-09T08:33:18Z</time>
      </trkpt>
      <trkpt lat="46.261455388739705" lon="8.18509005010128">
        <ele>1868.47</ele>
        <time>2023-09-09T08:34:04Z</time>
      </trkpt>
      <trkpt lat="46.261467458680272" lon="8.1850890442729">
        <ele>1869.1900000000001</ele>
        <time>2023-09-09T08:34:19Z</time>
      </trkpt>
      <trkpt lat="46.261479947715998" lon="8.185095498338342">
        <ele>1869.04</ele>
        <time>2023-09-09T08:34:36Z</time>
      </trkpt>
      <trkpt lat="46.261475589126348" lon="8.185102120041847">
        <ele>1869.76</ele>
        <time>2023-09-09T08:34:51Z</time>
      </trkpt>
      <trkpt lat="46.261494364589453" lon="8.185081416741014">
        <ele>1868.3800000000001</ele>
        <time>2023-09-09T08:35:25Z</time>
      </trkpt>
      <trkpt lat="46.261518588289618" lon="8.184961723163724">
        <ele>1867.1099999999999</ele>
        <time>2023-09-09T08:35:38Z</time>
      </trkpt>
      <trkpt lat="46.261520767584443" lon="8.18492584861815">
        <ele>1866.73</ele>
        <time>2023-09-09T08:35:49Z</time>
      </trkpt>
      <trkpt lat="46.261523282155395" lon="8.184903133660555">
        <ele>1866.52</ele>
        <time>2023-09-09T08:35:55Z</time>
      </trkpt>
      <trkpt lat="46.261528814211488" lon="8.184888465330005">
        <ele>1866.4200000000001</ele>
        <time>2023-09-09T08:35:56Z</time>
      </trkpt>
      <trkpt lat="46.261534010991454" lon="8.184873042628169">
        <ele>1866.21</ele>
        <time>2023-09-09T08:35:57Z</time>
      </trkpt>
      <trkpt lat="46.261540465056896" lon="8.184857871383429">
        <ele>1866.1099999999999</ele>
        <time>2023-09-09T08:35:58Z</time>
      </trkpt>
      <trkpt lat="46.261548679322004" lon="8.184804730117321">
        <ele>1865.77</ele>
        <time>2023-09-09T08:36:02Z</time>
      </trkpt>
      <trkpt lat="46.261594193056226" lon="8.184623848646879">
        <ele>1864.49</ele>
        <time>2023-09-09T08:36:16Z</time>
      </trkpt>
      <trkpt lat="46.261600982397795" lon="8.184613203629851">
        <ele>1863.0899999999999</ele>
        <time>2023-09-09T08:36:17Z</time>
      </trkpt>
      <trkpt lat="46.261610705405474" lon="8.18460289388895">
        <ele>1864.1800000000001</ele>
        <time>2023-09-09T08:36:18Z</time>
      </trkpt>
      <trkpt lat="46.261620428413153" lon="8.184593338519335">
        <ele>1864.3199999999999</ele>
        <time>2023-09-09T08:36:19Z</time>
      </trkpt>
      <trkpt lat="46.261629816144705" lon="8.184585375711322">
        <ele>1863.7</ele>
        <time>2023-09-09T08:36:20Z</time>
      </trkpt>
      <trkpt lat="46.261638281866908" lon="8.184578334912658">
        <ele>1864.0999999999999</ele>
        <time>2023-09-09T08:36:21Z</time>
      </trkpt>
      <trkpt lat="46.261654710397124" lon="8.18455059081316">
        <ele>1860.04</ele>
        <time>2023-09-09T08:36:24Z</time>
      </trkpt>
      <trkpt lat="46.26166527159512" lon="8.184535838663578">
        <ele>1863.71</ele>
        <time>2023-09-09T08:36:26Z</time>
      </trkpt>
      <trkpt lat="46.261674407869577" lon="8.184524020180106">
        <ele>1864.9300000000001</ele>
        <time>2023-09-09T08:36:28Z</time>
      </trkpt>
      <trkpt lat="46.261692428961396" lon="8.184511698782444">
        <ele>1861.02</ele>
        <time>2023-09-09T08:36:30Z</time>
      </trkpt>
      <trkpt lat="46.261781360954046" lon="8.184449588879943">
        <ele>1860.6099999999999</ele>
        <time>2023-09-09T08:36:40Z</time>
      </trkpt>
      <trkpt lat="46.261786138638854" lon="8.184433998540044">
        <ele>1860.55</ele>
        <time>2023-09-09T08:36:41Z</time>
      </trkpt>
      <trkpt lat="46.261791922152042" lon="8.18438638933003">
        <ele>1860.02</ele>
        <time>2023-09-09T08:36:44Z</time>
      </trkpt>
      <trkpt lat="46.261794688180089" lon="8.184369038790464">
        <ele>1859.9100000000001</ele>
        <time>2023-09-09T08:36:45Z</time>
      </trkpt>
      <trkpt lat="46.261802399531007" lon="8.184352777898312">
        <ele>1860.04</ele>
        <time>2023-09-09T08:36:46Z</time>
      </trkpt>
      <trkpt lat="46.261806087568402" lon="8.184306509792805">
        <ele>1860.0799999999999</ele>
        <time>2023-09-09T08:36:49Z</time>
      </trkpt>
      <trkpt lat="46.261807009577751" lon="8.18429209291935">
        <ele>1860.0999999999999</ele>
        <time>2023-09-09T08:36:50Z</time>
      </trkpt>
      <trkpt lat="46.261824779212475" lon="8.184165610000491">
        <ele>1861.22</ele>
        <time>2023-09-09T08:36:59Z</time>
      </trkpt>
      <trkpt lat="46.261822180822492" lon="8.184147085994482">
        <ele>1861.0699999999999</ele>
        <time>2023-09-09T08:37:00Z</time>
      </trkpt>
      <trkpt lat="46.261820085346699" lon="8.184127220883966">
        <ele>1860.95</ele>
        <time>2023-09-09T08:37:01Z</time>
      </trkpt>
      <trkpt lat="46.261822683736682" lon="8.184109702706337">
        <ele>1861</ele>
        <time>2023-09-09T08:37:02Z</time>
      </trkpt>
      <trkpt lat="46.261825617402792" lon="8.184093944728375">
        <ele>1860.95</ele>
        <time>2023-09-09T08:37:03Z</time>
      </trkpt>
      <trkpt lat="46.261826371774077" lon="8.184078605845571">
        <ele>1860.9300000000001</ele>
        <time>2023-09-09T08:37:04Z</time>
      </trkpt>
      <trkpt lat="46.261826455593109" lon="8.184063099324703">
        <ele>1860.77</ele>
        <time>2023-09-09T08:37:05Z</time>
      </trkpt>
      <trkpt lat="46.261826539412141" lon="8.184047592803836">
        <ele>1860.8900000000001</ele>
        <time>2023-09-09T08:37:06Z</time>
      </trkpt>
      <trkpt lat="46.261823354288936" lon="8.184030745178461">
        <ele>1860.8800000000001</ele>
        <time>2023-09-09T08:37:07Z</time>
      </trkpt>
      <trkpt lat="46.261818995699286" lon="8.184013227000833">
        <ele>1860.99</ele>
        <time>2023-09-09T08:37:08Z</time>
      </trkpt>
      <trkpt lat="46.261814637109637" lon="8.18399453535676">
        <ele>1861.02</ele>
        <time>2023-09-09T08:37:09Z</time>
      </trkpt>
      <trkpt lat="46.261811032891273" lon="8.183977520093322">
        <ele>1861</ele>
        <time>2023-09-09T08:37:10Z</time>
      </trkpt>
      <trkpt lat="46.261823857203126" lon="8.183799320831895">
        <ele>1860.99</ele>
        <time>2023-09-09T08:37:22Z</time>
      </trkpt>
      <trkpt lat="46.261831568554044" lon="8.183764787390828">
        <ele>1861.03</ele>
        <time>2023-09-09T08:37:33Z</time>
      </trkpt>
      <trkpt lat="46.261859480291605" lon="8.18373553454876">
        <ele>1860.9000000000001</ele>
        <time>2023-09-09T08:37:38Z</time>
      </trkpt>
      <trkpt lat="46.261870879679918" lon="8.183728829026222">
        <ele>1860.96</ele>
        <time>2023-09-09T08:37:39Z</time>
      </trkpt>
      <trkpt lat="46.261881776154041" lon="8.183724721893668">
        <ele>1861.04</ele>
        <time>2023-09-09T08:37:40Z</time>
      </trkpt>
      <trkpt lat="46.261925026774406" lon="8.18370527587831">
        <ele>1861.02</ele>
        <time>2023-09-09T08:37:46Z</time>
      </trkpt>
      <trkpt lat="46.26193642616272" lon="8.183694714680314">
        <ele>1860.75</ele>
        <time>2023-09-09T08:37:47Z</time>
      </trkpt>
      <trkpt lat="46.261950256302953" lon="8.183682393282652">
        <ele>1860.3099999999999</ele>
        <time>2023-09-09T08:37:48Z</time>
      </trkpt>
      <trkpt lat="46.261963918805122" lon="8.183671664446592">
        <ele>1860.1700000000001</ele>
        <time>2023-09-09T08:37:49Z</time>
      </trkpt>
      <trkpt lat="46.261974731460214" lon="8.183660767972469">
        <ele>1860.23</ele>
        <time>2023-09-09T08:37:50Z</time>
      </trkpt>
      <trkpt lat="46.261984119191766" lon="8.18365003913641">
        <ele>1860.04</ele>
        <time>2023-09-09T08:37:51Z</time>
      </trkpt>
      <trkpt lat="46.261995015665889" lon="8.183638053014875">
        <ele>1860.01</ele>
        <time>2023-09-09T08:37:52Z</time>
      </trkpt>
      <trkpt lat="46.26209769397974" lon="8.183468570932746">
        <ele>1860.4300000000001</ele>
        <time>2023-09-09T08:38:04Z</time>
      </trkpt>
      <trkpt lat="46.262194253504276" lon="8.183336053043604">
        <ele>1862.3800000000001</ele>
        <time>2023-09-09T08:38:15Z</time>
      </trkpt>
      <trkpt lat="46.262250998988748" lon="8.18320345133543">
        <ele>1863.27</ele>
        <time>2023-09-09T08:38:26Z</time>
      </trkpt>
      <trkpt lat="46.262256614863873" lon="8.183191465213895">
        <ele>1863.4100000000001</ele>
        <time>2023-09-09T08:38:27Z</time>
      </trkpt>
      <trkpt lat="46.262293998152018" lon="8.183155674487352">
        <ele>1865.3199999999999</ele>
        <time>2023-09-09T08:38:36Z</time>
      </trkpt>
      <trkpt lat="46.262354180216789" lon="8.183105969801545">
        <ele>1867.8800000000001</ele>
        <time>2023-09-09T08:38:48Z</time>
      </trkpt>
      <trkpt lat="46.262395586818457" lon="8.183083925396204">
        <ele>1869.0799999999999</ele>
        <time>2023-09-09T08:39:01Z</time>
      </trkpt>
      <trkpt lat="46.26247881911695" lon="8.183050733059645">
        <ele>1868.7</ele>
        <time>2023-09-09T08:39:17Z</time>
      </trkpt>
      <trkpt lat="46.262552496045828" lon="8.182960795238614">
        <ele>1867.5599999999999</ele>
        <time>2023-09-09T08:39:29Z</time>
      </trkpt>
      <trkpt lat="46.26255702227354" lon="8.182918634265661">
        <ele>1867.28</ele>
        <time>2023-09-09T08:39:32Z</time>
      </trkpt>
      <trkpt lat="46.262556770816445" lon="8.182902121916413">
        <ele>1867.01</ele>
        <time>2023-09-09T08:39:33Z</time>
      </trkpt>
      <trkpt lat="46.262556854635477" lon="8.18288435228169">
        <ele>1866.6900000000001</ele>
        <time>2023-09-09T08:39:34Z</time>
      </trkpt>
      <trkpt lat="46.262559201568365" lon="8.182868845760822">
        <ele>1866.6800000000001</ele>
        <time>2023-09-09T08:39:35Z</time>
      </trkpt>
      <trkpt lat="46.262560542672873" lon="8.182852752506733">
        <ele>1866.78</ele>
        <time>2023-09-09T08:39:36Z</time>
      </trkpt>
      <trkpt lat="46.262578563764691" lon="8.182715456932783">
        <ele>1866.1500000000001</ele>
        <time>2023-09-09T08:39:47Z</time>
      </trkpt>
      <trkpt lat="46.262565823271871" lon="8.182617137208581">
        <ele>1866.29</ele>
        <time>2023-09-09T08:39:55Z</time>
      </trkpt>
      <trkpt lat="46.262545539066195" lon="8.182561816647649">
        <ele>1866.99</ele>
        <time>2023-09-09T08:40:08Z</time>
      </trkpt>
      <trkpt lat="46.262569846585393" lon="8.182485038414598">
        <ele>1868.47</ele>
        <time>2023-09-09T08:40:17Z</time>
      </trkpt>
      <trkpt lat="46.262588538229465" lon="8.182399459183216">
        <ele>1868.78</ele>
        <time>2023-09-09T08:40:25Z</time>
      </trkpt>
      <trkpt lat="46.262600859627128" lon="8.182360734790564">
        <ele>1868.6700000000001</ele>
        <time>2023-09-09T08:40:28Z</time>
      </trkpt>
      <trkpt lat="46.262600189074874" lon="8.182308012619615">
        <ele>1868.54</ele>
        <time>2023-09-09T08:40:32Z</time>
      </trkpt>
      <trkpt lat="46.262598261237144" lon="8.182292422279716">
        <ele>1868.5599999999999</ele>
        <time>2023-09-09T08:40:33Z</time>
      </trkpt>
      <trkpt lat="46.262596249580383" lon="8.182276580482721">
        <ele>1868.4300000000001</ele>
        <time>2023-09-09T08:40:34Z</time>
      </trkpt>
      <trkpt lat="46.262591974809766" lon="8.182261241599917">
        <ele>1868.3599999999999</ele>
        <time>2023-09-09T08:40:35Z</time>
      </trkpt>
      <trkpt lat="46.26258535310626" lon="8.182248501107097">
        <ele>1868.29</ele>
        <time>2023-09-09T08:40:36Z</time>
      </trkpt>
      <trkpt lat="46.262578899040818" lon="8.18223349750042">
        <ele>1868.0799999999999</ele>
        <time>2023-09-09T08:40:37Z</time>
      </trkpt>
      <trkpt lat="46.262575127184391" lon="8.182216566056013">
        <ele>1867.9400000000001</ele>
        <time>2023-09-09T08:40:38Z</time>
      </trkpt>
      <trkpt lat="46.262572193518281" lon="8.182199215516448">
        <ele>1867.8099999999999</ele>
        <time>2023-09-09T08:40:39Z</time>
      </trkpt>
      <trkpt lat="46.262569846585393" lon="8.18218169733882">
        <ele>1867.77</ele>
        <time>2023-09-09T08:40:40Z</time>
      </trkpt>
      <trkpt lat="46.26256967894733" lon="8.18216459825635">
        <ele>1867.71</ele>
        <time>2023-09-09T08:40:41Z</time>
      </trkpt>
      <trkpt lat="46.262571942061186" lon="8.182149007916451">
        <ele>1867.6199999999999</ele>
        <time>2023-09-09T08:40:42Z</time>
      </trkpt>
      <trkpt lat="46.262575211003423" lon="8.182134004309773">
        <ele>1867.6600000000001</ele>
        <time>2023-09-09T08:40:43Z</time>
      </trkpt>
      <trkpt lat="46.262644194066525" lon="8.182043144479394">
        <ele>1869.7</ele>
        <time>2023-09-09T08:40:54Z</time>
      </trkpt>
      <trkpt lat="46.262707058340311" lon="8.181940717622638">
        <ele>1871.8800000000001</ele>
        <time>2023-09-09T08:41:07Z</time>
      </trkpt>
      <trkpt lat="46.262796074151993" lon="8.181908447295427">
        <ele>1873.8399999999999</ele>
        <time>2023-09-09T08:41:21Z</time>
      </trkpt>
      <trkpt lat="46.26285407692194" lon="8.181865867227316">
        <ele>1876.54</ele>
        <time>2023-09-09T08:41:37Z</time>
      </trkpt>
      <trkpt lat="46.262908391654491" lon="8.181787831708789">
        <ele>1879.3800000000001</ele>
        <time>2023-09-09T08:41:52Z</time>
      </trkpt>
      <trkpt lat="46.26292247325182" lon="8.181723207235336">
        <ele>1881.8199999999999</ele>
        <time>2023-09-09T08:42:07Z</time>
      </trkpt>
      <trkpt lat="46.262926077470183" lon="8.181719183921814">
        <ele>1881.46</ele>
        <time>2023-09-09T08:42:27Z</time>
      </trkpt>
      <trkpt lat="46.262902775779366" lon="8.181696636602283">
        <ele>1881.25</ele>
        <time>2023-09-09T08:44:28Z</time>
      </trkpt>
      <trkpt lat="46.262902775779366" lon="8.181700324639678">
        <ele>1880.8099999999999</ele>
        <time>2023-09-09T08:44:48Z</time>
      </trkpt>
      <trkpt lat="46.262884754687548" lon="8.18163980729878">
        <ele>1882.76</ele>
        <time>2023-09-09T08:45:06Z</time>
      </trkpt>
      <trkpt lat="46.262876205146313" lon="8.181534446775913">
        <ele>1884.3299999999999</ele>
        <time>2023-09-09T08:45:20Z</time>
      </trkpt>
      <trkpt lat="46.262914929538965" lon="8.181438893079758">
        <ele>1887.0699999999999</ele>
        <time>2023-09-09T08:45:33Z</time>
      </trkpt>
      <trkpt lat="46.262949798256159" lon="8.18134761415422">
        <ele>1888.8699999999999</ele>
        <time>2023-09-09T08:45:43Z</time>
      </trkpt>
      <trkpt lat="46.263036718592048" lon="8.18122548982501">
        <ele>1888.9000000000001</ele>
        <time>2023-09-09T08:45:58Z</time>
      </trkpt>
      <trkpt lat="46.263096062466502" lon="8.181091798469424">
        <ele>1888.3599999999999</ele>
        <time>2023-09-09T08:46:09Z</time>
      </trkpt>
      <trkpt lat="46.263116262853146" lon="8.181007308885455">
        <ele>1888.0899999999999</ele>
        <time>2023-09-09T08:46:17Z</time>
      </trkpt>
      <trkpt lat="46.263133445754647" lon="8.18094595335424">
        <ele>1888.04</ele>
        <time>2023-09-09T08:46:29Z</time>
      </trkpt>
      <trkpt lat="46.263143252581358" lon="8.180910665541887">
        <ele>1889.0899999999999</ele>
        <time>2023-09-09T08:46:43Z</time>
      </trkpt>
      <trkpt lat="46.263197483494878" lon="8.180843945592642">
        <ele>1891.5699999999999</ele>
        <time>2023-09-09T08:46:57Z</time>
      </trkpt>
      <trkpt lat="46.263224557042122" lon="8.180789463222027">
        <ele>1893.49</ele>
        <time>2023-09-09T08:47:10Z</time>
      </trkpt>
      <trkpt lat="46.263267053291202" lon="8.180760461837053">
        <ele>1895.77</ele>
        <time>2023-09-09T08:47:26Z</time>
      </trkpt>
      <trkpt lat="46.263294713571668" lon="8.180694915354252">
        <ele>1898.02</ele>
        <time>2023-09-09T08:47:39Z</time>
      </trkpt>
      <trkpt lat="46.263272417709231" lon="8.180638253688812">
        <ele>1899.49</ele>
        <time>2023-09-09T08:47:50Z</time>
      </trkpt>
      <trkpt lat="46.263274597004056" lon="8.180561643093824">
        <ele>1901.8800000000001</ele>
        <time>2023-09-09T08:48:08Z</time>
      </trkpt>
      <trkpt lat="46.263292282819748" lon="8.180496180430055">
        <ele>1903.4200000000001</ele>
        <time>2023-09-09T08:48:23Z</time>
      </trkpt>
      <trkpt lat="46.263305023312569" lon="8.180447481572628">
        <ele>1905.26</ele>
        <time>2023-09-09T08:48:38Z</time>
      </trkpt>
      <trkpt lat="46.263345424085855" lon="8.180450331419706">
        <ele>1905.8699999999999</ele>
        <time>2023-09-09T08:48:56Z</time>
      </trkpt>
      <trkpt lat="46.263354141265154" lon="8.18039576523006">
        <ele>1907.51</ele>
        <time>2023-09-09T08:49:11Z</time>
      </trkpt>
      <trkpt lat="46.263331929221749" lon="8.180341618135572">
        <ele>1909.0699999999999</ele>
        <time>2023-09-09T08:49:24Z</time>
      </trkpt>
      <trkpt lat="46.2633241340518" lon="8.180282693356276">
        <ele>1911.47</ele>
        <time>2023-09-09T08:49:38Z</time>
      </trkpt>
      <trkpt lat="46.263294713571668" lon="8.180225109681487">
        <ele>1913.5699999999999</ele>
        <time>2023-09-09T08:49:53Z</time>
      </trkpt>
      <trkpt lat="46.263264957815409" lon="8.180169453844428">
        <ele>1915.02</ele>
        <time>2023-09-09T08:50:06Z</time>
      </trkpt>
      <trkpt lat="46.263284236192703" lon="8.180160149931908">
        <ele>1916.4200000000001</ele>
        <time>2023-09-09T08:50:20Z</time>
      </trkpt>
      <trkpt lat="46.263345843181014" lon="8.180102482438088">
        <ele>1918.8299999999999</ele>
        <time>2023-09-09T08:50:33Z</time>
      </trkpt>
      <trkpt lat="46.26337886787951" lon="8.180001396685839">
        <ele>1920.79</ele>
        <time>2023-09-09T08:50:48Z</time>
      </trkpt>
      <trkpt lat="46.263384316116571" lon="8.179948423057795">
        <ele>1921.52</ele>
        <time>2023-09-09T08:51:02Z</time>
      </trkpt>
      <trkpt lat="46.263385824859142" lon="8.179908022284508">
        <ele>1922.0799999999999</ele>
        <time>2023-09-09T08:51:17Z</time>
      </trkpt>
      <trkpt lat="46.263377275317907" lon="8.17987097427249">
        <ele>1922.6099999999999</ele>
        <time>2023-09-09T08:51:37Z</time>
      </trkpt>
      <trkpt lat="46.263397056609392" lon="8.179843984544277">
        <ele>1924.78</ele>
        <time>2023-09-09T08:51:56Z</time>
      </trkpt>
      <trkpt lat="46.263417592272162" lon="8.179808529093862">
        <ele>1926.74</ele>
        <time>2023-09-09T08:52:14Z</time>
      </trkpt>
      <trkpt lat="46.263424633070827" lon="8.179790508002043">
        <ele>1927.4100000000001</ele>
        <time>2023-09-09T08:52:49Z</time>
      </trkpt>
      <trkpt lat="46.263426644727588" lon="8.17978355102241">
        <ele>1928.02</ele>
        <time>2023-09-09T08:53:04Z</time>
      </trkpt>
      <trkpt lat="46.263415329158306" lon="8.179772067815065">
        <ele>1928.4100000000001</ele>
        <time>2023-09-09T08:53:23Z</time>
      </trkpt>
      <trkpt lat="46.263412060216069" lon="8.179722530767322">
        <ele>1930.1600000000001</ele>
        <time>2023-09-09T08:53:38Z</time>
      </trkpt>
      <trkpt lat="46.263412395492196" lon="8.179711801931262">
        <ele>1930.9300000000001</ele>
        <time>2023-09-09T08:53:55Z</time>
      </trkpt>
      <trkpt lat="46.263427482917905" lon="8.179706856608391">
        <ele>1931.28</ele>
        <time>2023-09-09T08:54:00Z</time>
      </trkpt>
      <trkpt lat="46.263487581163645" lon="8.179710628464818">
        <ele>1931.0899999999999</ele>
        <time>2023-09-09T08:54:15Z</time>
      </trkpt>
      <trkpt lat="46.263507697731256" lon="8.179722782224417">
        <ele>1931.3199999999999</ele>
        <time>2023-09-09T08:54:22Z</time>
      </trkpt>
      <trkpt lat="46.263532256707549" lon="8.179684309288859">
        <ele>1933.1199999999999</ele>
        <time>2023-09-09T08:54:41Z</time>
      </trkpt>
      <trkpt lat="46.263511804863811" lon="8.179612308740616">
        <ele>1937.72</ele>
        <time>2023-09-09T08:55:14Z</time>
      </trkpt>
      <trkpt lat="46.263480288907886" lon="8.17956117913127">
        <ele>1939.0899999999999</ele>
        <time>2023-09-09T08:55:29Z</time>
      </trkpt>
      <trkpt lat="46.263475678861141" lon="8.179546007886529">
        <ele>1941.6700000000001</ele>
        <time>2023-09-09T08:55:46Z</time>
      </trkpt>
      <trkpt lat="46.263371994718909" lon="8.179496135562658">
        <ele>1942.1300000000001</ele>
        <time>2023-09-09T08:56:04Z</time>
      </trkpt>
      <trkpt lat="46.263381550088525" lon="8.179445089772344">
        <ele>1943.28</ele>
        <time>2023-09-09T08:56:12Z</time>
      </trkpt>
      <trkpt lat="46.263320613652468" lon="8.179396139457822">
        <ele>1944.48</ele>
        <time>2023-09-09T08:56:40Z</time>
      </trkpt>
      <trkpt lat="46.263300580903888" lon="8.179323635995388">
        <ele>1944.8299999999999</ele>
        <time>2023-09-09T08:56:46Z</time>
      </trkpt>
      <trkpt lat="46.263317679986358" lon="8.179222382605076">
        <ele>1945.77</ele>
        <time>2023-09-09T08:56:56Z</time>
      </trkpt>
      <trkpt lat="46.263298317790031" lon="8.179130516946316">
        <ele>1947.51</ele>
        <time>2023-09-09T08:57:09Z</time>
      </trkpt>
      <trkpt lat="46.263288427144289" lon="8.179111909121275">
        <ele>1947.54</ele>
        <time>2023-09-09T08:57:11Z</time>
      </trkpt>
      <trkpt lat="46.263275602832437" lon="8.179035717621446">
        <ele>1947.4200000000001</ele>
        <time>2023-09-09T08:57:17Z</time>
      </trkpt>
      <trkpt lat="46.263278955593705" lon="8.178862798959017">
        <ele>1945.78</ele>
        <time>2023-09-09T08:57:31Z</time>
      </trkpt>
      <trkpt lat="46.263230592012405" lon="8.178790295496583">
        <ele>1943.8</ele>
        <time>2023-09-09T08:57:42Z</time>
      </trkpt>
      <trkpt lat="46.263212403282523" lon="8.178721396252513">
        <ele>1942.46</ele>
        <time>2023-09-09T08:57:54Z</time>
      </trkpt>
      <trkpt lat="46.26320930197835" lon="8.178701782599092">
        <ele>1942.4000000000001</ele>
        <time>2023-09-09T08:57:58Z</time>
      </trkpt>
      <trkpt lat="46.263227323070168" lon="8.178505897521973">
        <ele>1941.6600000000001</ele>
        <time>2023-09-09T08:58:11Z</time>
      </trkpt>
      <trkpt lat="46.263214582577348" lon="8.178364327177405">
        <ele>1941.8699999999999</ele>
        <time>2023-09-09T08:58:23Z</time>
      </trkpt>
      <trkpt lat="46.263165967538953" lon="8.178225355222821">
        <ele>1943.48</ele>
        <time>2023-09-09T08:58:36Z</time>
      </trkpt>
      <trkpt lat="46.263196058571339" lon="8.178128208965063">
        <ele>1945.45</ele>
        <time>2023-09-09T08:58:50Z</time>
      </trkpt>
      <trkpt lat="46.263197148218751" lon="8.178104069083929">
        <ele>1945.24</ele>
        <time>2023-09-09T08:58:52Z</time>
      </trkpt>
      <trkpt lat="46.263199411332607" lon="8.177989823743701">
        <ele>1945.0999999999999</ele>
        <time>2023-09-09T08:59:02Z</time>
      </trkpt>
      <trkpt lat="46.263184659183025" lon="8.177978340536356">
        <ele>1945.3299999999999</ele>
        <time>2023-09-09T08:59:04Z</time>
      </trkpt>
      <trkpt lat="46.263158088549972" lon="8.177948668599129">
        <ele>1945.3499999999999</ele>
        <time>2023-09-09T08:59:07Z</time>
      </trkpt>
      <trkpt lat="46.263057254254818" lon="8.177852863445878">
        <ele>1945.78</ele>
        <time>2023-09-09T08:59:19Z</time>
      </trkpt>
      <trkpt lat="46.26297133974731" lon="8.177786394953728">
        <ele>1947.76</ele>
        <time>2023-09-09T08:59:31Z</time>
      </trkpt>
      <trkpt lat="46.262948289513588" lon="8.177739372476935">
        <ele>1949.0999999999999</ele>
        <time>2023-09-09T08:59:45Z</time>
      </trkpt>
      <trkpt lat="46.262933537364006" lon="8.177739791572094">
        <ele>1949.4300000000001</ele>
        <time>2023-09-09T09:00:02Z</time>
      </trkpt>
      <trkpt lat="46.262926328927279" lon="8.177715903148055">
        <ele>1950.3299999999999</ele>
        <time>2023-09-09T09:00:16Z</time>
      </trkpt>
      <trkpt lat="46.262929681688547" lon="8.177700145170093">
        <ele>1951.1900000000001</ele>
        <time>2023-09-09T09:00:30Z</time>
      </trkpt>
      <trkpt lat="46.262946277856827" lon="8.177664605900645">
        <ele>1951.96</ele>
        <time>2023-09-09T09:00:48Z</time>
      </trkpt>
      <trkpt lat="46.262954156845808" lon="8.17760325036943">
        <ele>1954.52</ele>
        <time>2023-09-09T09:01:03Z</time>
      </trkpt>
      <trkpt lat="46.262934040278196" lon="8.177569387480617">
        <ele>1956.47</ele>
        <time>2023-09-09T09:01:17Z</time>
      </trkpt>
      <trkpt lat="46.262906799092889" lon="8.177579110488296">
        <ele>1957.74</ele>
        <time>2023-09-09T09:01:35Z</time>
      </trkpt>
      <trkpt lat="46.262894729152322" lon="8.17759595811367">
        <ele>1958.26</ele>
        <time>2023-09-09T09:01:49Z</time>
      </trkpt>
      <trkpt lat="46.262875450775027" lon="8.177596963942051">
        <ele>1958.26</ele>
        <time>2023-09-09T09:02:04Z</time>
      </trkpt>
      <trkpt lat="46.262850807979703" lon="8.177601993083954">
        <ele>1958.6400000000001</ele>
        <time>2023-09-09T09:02:19Z</time>
      </trkpt>
      <trkpt lat="46.26281057484448" lon="8.177602412179112">
        <ele>1958.78</ele>
        <time>2023-09-09T09:02:31Z</time>
      </trkpt>
      <trkpt lat="46.262804707512259" lon="8.177599813789129">
        <ele>1959.04</ele>
        <time>2023-09-09T09:02:45Z</time>
      </trkpt>
      <trkpt lat="46.262781573459506" lon="8.177603669464588">
        <ele>1960.5999999999999</ele>
        <time>2023-09-09T09:02:56Z</time>
      </trkpt>
      <trkpt lat="46.262772856280208" lon="8.177534015849233">
        <ele>1963.6199999999999</ele>
        <time>2023-09-09T09:03:08Z</time>
      </trkpt>
      <trkpt lat="46.262818286195397" lon="8.177489256486297">
        <ele>1965.6500000000001</ele>
        <time>2023-09-09T09:03:21Z</time>
      </trkpt>
      <trkpt lat="46.262820800766349" lon="8.177421195432544">
        <ele>1967.47</ele>
        <time>2023-09-09T09:03:34Z</time>
      </trkpt>
      <trkpt lat="46.262813340872526" lon="8.177318265661597">
        <ele>1969.9000000000001</ele>
        <time>2023-09-09T09:03:49Z</time>
      </trkpt>
      <trkpt lat="46.262770174071193" lon="8.177305357530713">
        <ele>1969.54</ele>
        <time>2023-09-09T09:03:56Z</time>
      </trkpt>
      <trkpt lat="46.262678895145655" lon="8.177146771922708">
        <ele>1968.8299999999999</ele>
        <time>2023-09-09T09:04:10Z</time>
      </trkpt>
      <trkpt lat="46.262618042528629" lon="8.177033616229892">
        <ele>1971.4300000000001</ele>
        <time>2023-09-09T09:04:26Z</time>
      </trkpt>
      <trkpt lat="46.262594070285559" lon="8.17685617133975">
        <ele>1973.0999999999999</ele>
        <time>2023-09-09T09:04:43Z</time>
      </trkpt>
      <trkpt lat="46.262605218216777" lon="8.176716780290008">
        <ele>1974.5</ele>
        <time>2023-09-09T09:04:55Z</time>
      </trkpt>
      <trkpt lat="46.262582167983055" lon="8.176660286262631">
        <ele>1974.8299999999999</ele>
        <time>2023-09-09T09:05:02Z</time>
      </trkpt>
      <trkpt lat="46.26253405585885" lon="8.176602870225906">
        <ele>1975.24</ele>
        <time>2023-09-09T09:05:14Z</time>
      </trkpt>
      <trkpt lat="46.262473706156015" lon="8.176537910476327">
        <ele>1977.5599999999999</ele>
        <time>2023-09-09T09:05:27Z</time>
      </trkpt>
      <trkpt lat="46.262474376708269" lon="8.176481248810887">
        <ele>1979.6300000000001</ele>
        <time>2023-09-09T09:05:38Z</time>
      </trkpt>
      <trkpt lat="46.262455182150006" lon="8.176421150565147">
        <ele>1982.26</ele>
        <time>2023-09-09T09:05:54Z</time>
      </trkpt>
      <trkpt lat="46.262428276240826" lon="8.176341354846954">
        <ele>1984.6400000000001</ele>
        <time>2023-09-09T09:06:11Z</time>
      </trkpt>
      <trkpt lat="46.262428192421794" lon="8.176324842497706">
        <ele>1986.79</ele>
        <time>2023-09-09T09:06:25Z</time>
      </trkpt>
      <trkpt lat="46.26240111887455" lon="8.176295422017574">
        <ele>1988.2</ele>
        <time>2023-09-09T09:06:37Z</time>
      </trkpt>
      <trkpt lat="46.262412937358022" lon="8.176244040951133">
        <ele>1990.6600000000001</ele>
        <time>2023-09-09T09:06:51Z</time>
      </trkpt>
      <trkpt lat="46.262459876015782" lon="8.176211100071669">
        <ele>1992.53</ele>
        <time>2023-09-09T09:07:09Z</time>
      </trkpt>
      <trkpt lat="46.262476807460189" lon="8.176182601600885">
        <ele>1993.4200000000001</ele>
        <time>2023-09-09T09:07:28Z</time>
      </trkpt>
      <trkpt lat="46.262471862137318" lon="8.176126359030604">
        <ele>1996.3399999999999</ele>
        <time>2023-09-09T09:07:42Z</time>
      </trkpt>
      <trkpt lat="46.2624451238662" lon="8.176088137552142">
        <ele>1997.77</ele>
        <time>2023-09-09T09:07:52Z</time>
      </trkpt>
      <trkpt lat="46.262440932914615" lon="8.176047820597887">
        <ele>1999.51</ele>
        <time>2023-09-09T09:08:04Z</time>
      </trkpt>
      <trkpt lat="46.262414613738656" lon="8.175996355712414">
        <ele>2001.49</ele>
        <time>2023-09-09T09:08:19Z</time>
      </trkpt>
      <trkpt lat="46.262418301776052" lon="8.175953943282366">
        <ele>2001.51</ele>
        <time>2023-09-09T09:08:32Z</time>
      </trkpt>
      <trkpt lat="46.262421319261193" lon="8.175952602177858">
        <ele>2001.52</ele>
        <time>2023-09-09T09:08:38Z</time>
      </trkpt>
      <trkpt lat="46.262417212128639" lon="8.175866268575192">
        <ele>2000.5699999999999</ele>
        <time>2023-09-09T09:08:47Z</time>
      </trkpt>
      <trkpt lat="46.26242509111762" lon="8.175815474241972">
        <ele>2000.2</ele>
        <time>2023-09-09T09:08:51Z</time>
      </trkpt>
      <trkpt lat="46.262426096946001" lon="8.175787143409252">
        <ele>1999.99</ele>
        <time>2023-09-09T09:08:53Z</time>
      </trkpt>
      <trkpt lat="46.262434730306268" lon="8.17564926110208">
        <ele>2000.77</ele>
        <time>2023-09-09T09:09:05Z</time>
      </trkpt>
      <trkpt lat="46.262431126087904" lon="8.175597293302417">
        <ele>2002.1700000000001</ele>
        <time>2023-09-09T09:09:12Z</time>
      </trkpt>
      <trkpt lat="46.262411177158356" lon="8.175510205328465">
        <ele>2004.78</ele>
        <time>2023-09-09T09:09:26Z</time>
      </trkpt>
      <trkpt lat="46.262395335361362" lon="8.175422698259354">
        <ele>2007.3499999999999</ele>
        <time>2023-09-09T09:09:40Z</time>
      </trkpt>
      <trkpt lat="46.26241872087121" lon="8.175367377698422">
        <ele>2008.3199999999999</ele>
        <time>2023-09-09T09:09:51Z</time>
      </trkpt>
      <trkpt lat="46.262425174936652" lon="8.175362097099423">
        <ele>2008.3499999999999</ele>
        <time>2023-09-09T09:10:10Z</time>
      </trkpt>
      <trkpt lat="46.262477813288569" lon="8.175297304987907">
        <ele>2010.05</ele>
        <time>2023-09-09T09:10:25Z</time>
      </trkpt>
      <trkpt lat="46.262559955939651" lon="8.175211809575558">
        <ele>2012.47</ele>
        <time>2023-09-09T09:10:40Z</time>
      </trkpt>
      <trkpt lat="46.262626172974706" lon="8.175103850662708">
        <ele>2014.27</ele>
        <time>2023-09-09T09:10:54Z</time>
      </trkpt>
      <trkpt lat="46.262641763314605" lon="8.175049955025315">
        <ele>2015.0799999999999</ele>
        <time>2023-09-09T09:11:00Z</time>
      </trkpt>
      <trkpt lat="46.262683924287558" lon="8.174977116286755">
        <ele>2015.28</ele>
        <time>2023-09-09T09:11:12Z</time>
      </trkpt>
      <trkpt lat="46.262692809104919" lon="8.174990275874734">
        <ele>2015.5999999999999</ele>
        <time>2023-09-09T09:11:32Z</time>
      </trkpt>
      <trkpt lat="46.262690378353" lon="8.174985833466053">
        <ele>2015.55</ele>
        <time>2023-09-09T09:11:57Z</time>
      </trkpt>
      <trkpt lat="46.262707561254501" lon="8.174967980012298">
        <ele>2015.54</ele>
        <time>2023-09-09T09:12:00Z</time>
      </trkpt>
      <trkpt lat="46.262737736105919" lon="8.174918610602617">
        <ele>2016.3399999999999</ele>
        <time>2023-09-09T09:12:06Z</time>
      </trkpt>
      <trkpt lat="46.262685265392065" lon="8.174730269238353">
        <ele>2016.5599999999999</ele>
        <time>2023-09-09T09:12:18Z</time>
      </trkpt>
      <trkpt lat="46.262654839083552" lon="8.174523236230016">
        <ele>2015.98</ele>
        <time>2023-09-09T09:12:30Z</time>
      </trkpt>
      <trkpt lat="46.262646121904254" lon="8.174504460766912">
        <ele>2016.0699999999999</ele>
        <time>2023-09-09T09:12:31Z</time>
      </trkpt>
      <trkpt lat="46.262644110247493" lon="8.174489038065076">
        <ele>2016.2</ele>
        <time>2023-09-09T09:12:32Z</time>
      </trkpt>
      <trkpt lat="46.262640170753002" lon="8.174471771344543">
        <ele>2016.1500000000001</ele>
        <time>2023-09-09T09:12:33Z</time>
      </trkpt>
      <trkpt lat="46.262637320905924" lon="8.17445551045239">
        <ele>2016.0599999999999</ele>
        <time>2023-09-09T09:12:34Z</time>
      </trkpt>
      <trkpt lat="46.262634973973036" lon="8.174442183226347">
        <ele>2016.1800000000001</ele>
        <time>2023-09-09T09:12:35Z</time>
      </trkpt>
      <trkpt lat="46.26257847994566" lon="8.174280161038041">
        <ele>2017.9300000000001</ele>
        <time>2023-09-09T09:12:48Z</time>
      </trkpt>
      <trkpt lat="46.262552076950669" lon="8.174229618161917">
        <ele>2018.97</ele>
        <time>2023-09-09T09:12:53Z</time>
      </trkpt>
      <trkpt lat="46.262517375871539" lon="8.174168514087796">
        <ele>2020.55</ele>
        <time>2023-09-09T09:13:01Z</time>
      </trkpt>
      <trkpt lat="46.26249105669558" lon="8.174093831330538">
        <ele>2022.1500000000001</ele>
        <time>2023-09-09T09:13:10Z</time>
      </trkpt>
      <trkpt lat="46.262463899329305" lon="8.17398939281702">
        <ele>2023.6300000000001</ele>
        <time>2023-09-09T09:13:21Z</time>
      </trkpt>
      <trkpt lat="46.262449566274881" lon="8.17392778582871">
        <ele>2024.8299999999999</ele>
        <time>2023-09-09T09:13:29Z</time>
      </trkpt>
      <trkpt lat="46.262437999248505" lon="8.173870788887143">
        <ele>2026.0599999999999</ele>
        <time>2023-09-09T09:13:36Z</time>
      </trkpt>
      <trkpt lat="46.262423750013113" lon="8.17376459017396">
        <ele>2028.25</ele>
        <time>2023-09-09T09:13:49Z</time>
      </trkpt>
      <trkpt lat="46.262423750013113" lon="8.173680016770959">
        <ele>2030.6700000000001</ele>
        <time>2023-09-09T09:14:03Z</time>
      </trkpt>
      <trkpt lat="46.262423750013113" lon="8.173587648198009">
        <ele>2033.1199999999999</ele>
        <time>2023-09-09T09:14:19Z</time>
      </trkpt>
      <trkpt lat="46.262418134137988" lon="8.173586390912533">
        <ele>2033.1300000000001</ele>
        <time>2023-09-09T09:14:20Z</time>
      </trkpt>
      <trkpt lat="46.262418888509274" lon="8.173575075343251">
        <ele>2033.3</ele>
        <time>2023-09-09T09:14:28Z</time>
      </trkpt>
      <trkpt lat="46.262411512434483" lon="8.173535512760282">
        <ele>2034.4200000000001</ele>
        <time>2023-09-09T09:14:40Z</time>
      </trkpt>
      <trkpt lat="46.262402376160026" lon="8.173507265746594">
        <ele>2034.96</ele>
        <time>2023-09-09T09:14:52Z</time>
      </trkpt>
      <trkpt lat="46.262415368109941" lon="8.17345873452723">
        <ele>2039.74</ele>
        <time>2023-09-09T09:26:47Z</time>
      </trkpt>
      <trkpt lat="46.262378739193082" lon="8.173410873860121">
        <ele>2042.04</ele>
        <time>2023-09-09T09:30:07Z</time>
      </trkpt>
      <trkpt lat="46.262374464422464" lon="8.173388745635748">
        <ele>2043.1900000000001</ele>
        <time>2023-09-09T09:31:55Z</time>
      </trkpt>
      <trkpt lat="46.262372117489576" lon="8.173338621854782">
        <ele>2042.78</ele>
        <time>2023-09-09T09:33:57Z</time>
      </trkpt>
      <trkpt lat="46.262371279299259" lon="8.173336777836084">
        <ele>2042.8399999999999</ele>
        <time>2023-09-09T09:34:17Z</time>
      </trkpt>
      <trkpt lat="46.26238058321178" lon="8.173316745087504">
        <ele>2044.23</ele>
        <time>2023-09-09T09:35:56Z</time>
      </trkpt>
      <trkpt lat="46.262389048933983" lon="8.173286570236087">
        <ele>2044.25</ele>
        <time>2023-09-09T09:36:12Z</time>
      </trkpt>
      <trkpt lat="46.262416876852512" lon="8.173243906348944">
        <ele>2044.6600000000001</ele>
        <time>2023-09-09T09:36:24Z</time>
      </trkpt>
      <trkpt lat="46.262423750013113" lon="8.173234350979328">
        <ele>2044.5</ele>
        <time>2023-09-09T09:36:25Z</time>
      </trkpt>
      <trkpt lat="46.262499187141657" lon="8.173088757321239">
        <ele>2043.47</ele>
        <time>2023-09-09T09:36:38Z</time>
      </trkpt>
      <trkpt lat="46.262550316751003" lon="8.172926064580679">
        <ele>2040.6800000000001</ele>
        <time>2023-09-09T09:36:51Z</time>
      </trkpt>
      <trkpt lat="46.262575127184391" lon="8.172806287184358">
        <ele>2037.28</ele>
        <time>2023-09-09T09:37:03Z</time>
      </trkpt>
      <trkpt lat="46.262618126347661" lon="8.172671590000391">
        <ele>2034.99</ele>
        <time>2023-09-09T09:37:17Z</time>
      </trkpt>
      <trkpt lat="46.262630531564355" lon="8.172639738768339">
        <ele>2034.6199999999999</ele>
        <time>2023-09-09T09:37:20Z</time>
      </trkpt>
      <trkpt lat="46.26263564452529" lon="8.172625321894884">
        <ele>2034.3599999999999</ele>
        <time>2023-09-09T09:37:21Z</time>
      </trkpt>
      <trkpt lat="46.262639164924622" lon="8.172608222812414">
        <ele>2034.2</ele>
        <time>2023-09-09T09:37:22Z</time>
      </trkpt>
      <trkpt lat="46.262642601504922" lon="8.172439411282539">
        <ele>2034.1400000000001</ele>
        <time>2023-09-09T09:37:36Z</time>
      </trkpt>
      <trkpt lat="46.262632710859179" lon="8.172348886728287">
        <ele>2033.28</ele>
        <time>2023-09-09T09:37:44Z</time>
      </trkpt>
      <trkpt lat="46.262641008943319" lon="8.172261044383049">
        <ele>2032.49</ele>
        <time>2023-09-09T09:37:51Z</time>
      </trkpt>
      <trkpt lat="46.262694485485554" lon="8.172043617814779">
        <ele>2030.96</ele>
        <time>2023-09-09T09:38:07Z</time>
      </trkpt>
      <trkpt lat="46.262747207656503" lon="8.171931300312281">
        <ele>2030.27</ele>
        <time>2023-09-09T09:38:17Z</time>
      </trkpt>
      <trkpt lat="46.262799259275198" lon="8.171716053038836">
        <ele>2030.21</ele>
        <time>2023-09-09T09:38:32Z</time>
      </trkpt>
      <trkpt lat="46.262814598158002" lon="8.171652434393764">
        <ele>2030.02</ele>
        <time>2023-09-09T09:38:40Z</time>
      </trkpt>
      <trkpt lat="46.262802109122276" lon="8.171537267044187">
        <ele>2028.6400000000001</ele>
        <time>2023-09-09T09:38:50Z</time>
      </trkpt>
      <trkpt lat="46.262764558196068" lon="8.171433666720986">
        <ele>2027.8599999999999</ele>
        <time>2023-09-09T09:39:00Z</time>
      </trkpt>
      <trkpt lat="46.262717116624117" lon="8.171332078054547">
        <ele>2027.21</ele>
        <time>2023-09-09T09:39:11Z</time>
      </trkpt>
      <trkpt lat="46.262714685872197" lon="8.171317158266902">
        <ele>2027.02</ele>
        <time>2023-09-09T09:39:12Z</time>
      </trkpt>
      <trkpt lat="46.262713093310595" lon="8.171302657574415">
        <ele>2026.8499999999999</ele>
        <time>2023-09-09T09:39:13Z</time>
      </trkpt>
      <trkpt lat="46.262710662558675" lon="8.171288492158055">
        <ele>2026.6400000000001</ele>
        <time>2023-09-09T09:39:14Z</time>
      </trkpt>
      <trkpt lat="46.26270747743547" lon="8.171274662017822">
        <ele>2026.45</ele>
        <time>2023-09-09T09:39:15Z</time>
      </trkpt>
      <trkpt lat="46.262709572911263" lon="8.171090511605144">
        <ele>2025.51</ele>
        <time>2023-09-09T09:39:30Z</time>
      </trkpt>
      <trkpt lat="46.262717368081212" lon="8.171005519106984">
        <ele>2024.3699999999999</ele>
        <time>2023-09-09T09:39:43Z</time>
      </trkpt>
      <trkpt lat="46.262707812711596" lon="8.170953718945384">
        <ele>2023.0799999999999</ele>
        <time>2023-09-09T09:39:50Z</time>
      </trkpt>
      <trkpt lat="46.262709824368358" lon="8.170922705903649">
        <ele>2022.7</ele>
        <time>2023-09-09T09:39:52Z</time>
      </trkpt>
      <trkpt lat="46.262710494920611" lon="8.170906025916338">
        <ele>2022.3599999999999</ele>
        <time>2023-09-09T09:39:53Z</time>
      </trkpt>
      <trkpt lat="46.262710327282548" lon="8.170889178290963">
        <ele>2022.26</ele>
        <time>2023-09-09T09:39:54Z</time>
      </trkpt>
      <trkpt lat="46.262726671993732" lon="8.170773843303323">
        <ele>2022.21</ele>
        <time>2023-09-09T09:40:06Z</time>
      </trkpt>
      <trkpt lat="46.262731533497572" lon="8.170660687610507">
        <ele>2022.4300000000001</ele>
        <time>2023-09-09T09:40:18Z</time>
      </trkpt>
      <trkpt lat="46.262748632580042" lon="8.170518195256591">
        <ele>2023.5699999999999</ele>
        <time>2023-09-09T09:40:31Z</time>
      </trkpt>
      <trkpt lat="46.262756595388055" lon="8.170435046777129">
        <ele>2024.05</ele>
        <time>2023-09-09T09:40:40Z</time>
      </trkpt>
      <trkpt lat="46.262709656730294" lon="8.170370254665613">
        <ele>2024.78</ele>
        <time>2023-09-09T09:40:50Z</time>
      </trkpt>
      <trkpt lat="46.262620640918612" lon="8.17033588886261">
        <ele>2026.8399999999999</ele>
        <time>2023-09-09T09:41:04Z</time>
      </trkpt>
      <trkpt lat="46.26259557902813" lon="8.170290207490325">
        <ele>2027.25</ele>
        <time>2023-09-09T09:41:09Z</time>
      </trkpt>
      <trkpt lat="46.262587029486895" lon="8.170275539159775">
        <ele>2027.3800000000001</ele>
        <time>2023-09-09T09:41:10Z</time>
      </trkpt>
      <trkpt lat="46.262580491602421" lon="8.170259278267622">
        <ele>2026.9200000000001</ele>
        <time>2023-09-09T09:41:11Z</time>
      </trkpt>
      <trkpt lat="46.262578060850501" lon="8.170242598280311">
        <ele>2026.73</ele>
        <time>2023-09-09T09:41:12Z</time>
      </trkpt>
      <trkpt lat="46.262574959546328" lon="8.170225080102682">
        <ele>2026.3599999999999</ele>
        <time>2023-09-09T09:41:13Z</time>
      </trkpt>
      <trkpt lat="46.26257311552763" lon="8.170207478106022">
        <ele>2026.1700000000001</ele>
        <time>2023-09-09T09:41:14Z</time>
      </trkpt>
      <trkpt lat="46.262494744732976" lon="8.169992649927735">
        <ele>2024.79</ele>
        <time>2023-09-09T09:41:30Z</time>
      </trkpt>
      <trkpt lat="46.262437496334314" lon="8.169951159507036">
        <ele>2023.03</ele>
        <time>2023-09-09T09:41:40Z</time>
      </trkpt>
      <trkpt lat="46.262333560734987" lon="8.169851750135422">
        <ele>2022.73</ele>
        <time>2023-09-09T09:41:55Z</time>
      </trkpt>
      <trkpt lat="46.262280335649848" lon="8.169808080419898">
        <ele>2022.8800000000001</ele>
        <time>2023-09-09T09:42:02Z</time>
      </trkpt>
      <trkpt lat="46.262229289859533" lon="8.169741695746779">
        <ele>2022.49</ele>
        <time>2023-09-09T09:42:14Z</time>
      </trkpt>
      <trkpt lat="46.262130048125982" lon="8.169629294425249">
        <ele>2020.71</ele>
        <time>2023-09-09T09:42:29Z</time>
      </trkpt>
      <trkpt lat="46.262066094204783" lon="8.169604148715735">
        <ele>2019.54</ele>
        <time>2023-09-09T09:42:37Z</time>
      </trkpt>
      <trkpt lat="46.26205419190228" lon="8.169600125402212">
        <ele>2019.4400000000001</ele>
        <time>2023-09-09T09:42:38Z</time>
      </trkpt>
      <trkpt lat="46.261998536065221" lon="8.169581266120076">
        <ele>2019.3599999999999</ele>
        <time>2023-09-09T09:42:44Z</time>
      </trkpt>
      <trkpt lat="46.261988142505288" lon="8.169578332453966">
        <ele>2019.4200000000001</ele>
        <time>2023-09-09T09:42:45Z</time>
      </trkpt>
      <trkpt lat="46.26184212975204" lon="8.169528543949127">
        <ele>2019.6900000000001</ele>
        <time>2023-09-09T09:43:00Z</time>
      </trkpt>
      <trkpt lat="46.261724783107638" lon="8.169463751837611">
        <ele>2019.5999999999999</ele>
        <time>2023-09-09T09:43:14Z</time>
      </trkpt>
      <trkpt lat="46.261662254109979" lon="8.169362163171172">
        <ele>2017.8299999999999</ele>
        <time>2023-09-09T09:43:29Z</time>
      </trkpt>
      <trkpt lat="46.261633085086942" lon="8.169273650273681">
        <ele>2016.3299999999999</ele>
        <time>2023-09-09T09:43:40Z</time>
      </trkpt>
      <trkpt lat="46.261601317673922" lon="8.169146748259664">
        <ele>2013.9400000000001</ele>
        <time>2023-09-09T09:43:56Z</time>
      </trkpt>
      <trkpt lat="46.261575417593122" lon="8.16905815154314">
        <ele>2012.3</ele>
        <time>2023-09-09T09:44:08Z</time>
      </trkpt>
      <trkpt lat="46.261570723727345" lon="8.168924879282713">
        <ele>2010.97</ele>
        <time>2023-09-09T09:44:21Z</time>
      </trkpt>
      <trkpt lat="46.261583380401134" lon="8.168796552345157">
        <ele>2009.6700000000001</ele>
        <time>2023-09-09T09:44:32Z</time>
      </trkpt>
      <trkpt lat="46.261584302410483" lon="8.168725892901421">
        <ele>2009.0799999999999</ele>
        <time>2023-09-09T09:44:40Z</time>
      </trkpt>
      <trkpt lat="46.261575417593122" lon="8.168616844341159">
        <ele>2006.8</ele>
        <time>2023-09-09T09:44:51Z</time>
      </trkpt>
      <trkpt lat="46.261577093973756" lon="8.168490696698427">
        <ele>2004.55</ele>
        <time>2023-09-09T09:45:06Z</time>
      </trkpt>
      <trkpt lat="46.261560497805476" lon="8.168393382802606">
        <ele>2003.3399999999999</ele>
        <time>2023-09-09T09:45:17Z</time>
      </trkpt>
      <trkpt lat="46.261553037911654" lon="8.168287100270391">
        <ele>2001.3599999999999</ele>
        <time>2023-09-09T09:45:31Z</time>
      </trkpt>
      <trkpt lat="46.261521270498633" lon="8.168187104165554">
        <ele>1999.0899999999999</ele>
        <time>2023-09-09T09:45:44Z</time>
      </trkpt>
      <trkpt lat="46.261509954929352" lon="8.168073948472738">
        <ele>1998.1500000000001</ele>
        <time>2023-09-09T09:45:58Z</time>
      </trkpt>
      <trkpt lat="46.261454466730356" lon="8.167949561029673">
        <ele>1995.8900000000001</ele>
        <time>2023-09-09T09:46:12Z</time>
      </trkpt>
      <trkpt lat="46.261433595791459" lon="8.167817462235689">
        <ele>1995.5699999999999</ele>
        <time>2023-09-09T09:46:25Z</time>
      </trkpt>
      <trkpt lat="46.26138917170465" lon="8.167659966275096">
        <ele>1995.1600000000001</ele>
        <time>2023-09-09T09:46:39Z</time>
      </trkpt>
      <trkpt lat="46.261358242481947" lon="8.167572375386953">
        <ele>1993.8499999999999</ele>
        <time>2023-09-09T09:46:47Z</time>
      </trkpt>
      <trkpt lat="46.261282972991467" lon="8.167416974902153">
        <ele>1992.8299999999999</ele>
        <time>2023-09-09T09:47:02Z</time>
      </trkpt>
      <trkpt lat="46.261224299669266" lon="8.167271632701159">
        <ele>1993.6300000000001</ele>
        <time>2023-09-09T09:47:17Z</time>
      </trkpt>
      <trkpt lat="46.261221617460251" lon="8.167260149493814">
        <ele>1993.73</ele>
        <time>2023-09-09T09:47:18Z</time>
      </trkpt>
      <trkpt lat="46.261194292455912" lon="8.167091673240066">
        <ele>1992.8</ele>
        <time>2023-09-09T09:47:32Z</time>
      </trkpt>
      <trkpt lat="46.261170404031873" lon="8.166952198371291">
        <ele>1991.01</ele>
        <time>2023-09-09T09:47:45Z</time>
      </trkpt>
      <trkpt lat="46.261150203645229" lon="8.166812974959612">
        <ele>1989.0799999999999</ele>
        <time>2023-09-09T09:48:00Z</time>
      </trkpt>
      <trkpt lat="46.261163363233209" lon="8.166675260290504">
        <ele>1986.5</ele>
        <time>2023-09-09T09:48:15Z</time>
      </trkpt>
      <trkpt lat="46.261187586933374" lon="8.166558332741261">
        <ele>1983.79</ele>
        <time>2023-09-09T09:48:30Z</time>
      </trkpt>
      <trkpt lat="46.261242236942053" lon="8.166434112936258">
        <ele>1981.79</ele>
        <time>2023-09-09T09:48:44Z</time>
      </trkpt>
      <trkpt lat="46.261346843093634" lon="8.16625633276999">
        <ele>1979.8800000000001</ele>
        <time>2023-09-09T09:49:00Z</time>
      </trkpt>
      <trkpt lat="46.261391267180443" lon="8.166140494868159">
        <ele>1978.52</ele>
        <time>2023-09-09T09:49:13Z</time>
      </trkpt>
      <trkpt lat="46.261428985744715" lon="8.166048964485526">
        <ele>1976.9000000000001</ele>
        <time>2023-09-09T09:49:25Z</time>
      </trkpt>
      <trkpt lat="46.261495286598802" lon="8.16592650488019">
        <ele>1974.47</ele>
        <time>2023-09-09T09:49:39Z</time>
      </trkpt>
      <trkpt lat="46.261556223034859" lon="8.165825754404068">
        <ele>1973.29</ele>
        <time>2023-09-09T09:49:51Z</time>
      </trkpt>
      <trkpt lat="46.261572148650885" lon="8.165810583159328">
        <ele>1973.0599999999999</ele>
        <time>2023-09-09T09:49:53Z</time>
      </trkpt>
      <trkpt lat="46.261674072593451" lon="8.165710838511586">
        <ele>1971.8199999999999</ele>
        <time>2023-09-09T09:50:07Z</time>
      </trkpt>
      <trkpt lat="46.261749677360058" lon="8.165624672546983">
        <ele>1971.5599999999999</ele>
        <time>2023-09-09T09:50:20Z</time>
      </trkpt>
      <trkpt lat="46.261797957122326" lon="8.165508667007089">
        <ele>1969.52</ele>
        <time>2023-09-09T09:50:35Z</time>
      </trkpt>
      <trkpt lat="46.261860653758049" lon="8.1654183100909">
        <ele>1967.71</ele>
        <time>2023-09-09T09:50:47Z</time>
      </trkpt>
      <trkpt lat="46.261875573545694" lon="8.165398612618446">
        <ele>1967.23</ele>
        <time>2023-09-09T09:50:49Z</time>
      </trkpt>
      <trkpt lat="46.261884458363056" lon="8.165390063077211">
        <ele>1967.1500000000001</ele>
        <time>2023-09-09T09:50:50Z</time>
      </trkpt>
      <trkpt lat="46.261952016502619" lon="8.165299706161022">
        <ele>1966.1500000000001</ele>
        <time>2023-09-09T09:51:03Z</time>
      </trkpt>
      <trkpt lat="46.261959141120315" lon="8.16528931260109">
        <ele>1965.9300000000001</ele>
        <time>2023-09-09T09:51:04Z</time>
      </trkpt>
      <trkpt lat="46.261966014280915" lon="8.165277075022459">
        <ele>1965.78</ele>
        <time>2023-09-09T09:51:05Z</time>
      </trkpt>
      <trkpt lat="46.261973222717643" lon="8.165265591815114">
        <ele>1965.5699999999999</ele>
        <time>2023-09-09T09:51:06Z</time>
      </trkpt>
      <trkpt lat="46.262025777250528" lon="8.165176576003432">
        <ele>1963.1600000000001</ele>
        <time>2023-09-09T09:51:19Z</time>
      </trkpt>
      <trkpt lat="46.26205419190228" lon="8.165125111117959">
        <ele>1962.1800000000001</ele>
        <time>2023-09-09T09:51:32Z</time>
      </trkpt>
      <trkpt lat="46.262078415602446" lon="8.165057301521301">
        <ele>1960.27</ele>
        <time>2023-09-09T09:51:44Z</time>
      </trkpt>
      <trkpt lat="46.262086294591427" lon="8.164970716461539">
        <ele>1957.6099999999999</ele>
        <time>2023-09-09T09:51:55Z</time>
      </trkpt>
      <trkpt lat="46.262089228257537" lon="8.164954204112291">
        <ele>1957.5799999999999</ele>
        <time>2023-09-09T09:51:56Z</time>
      </trkpt>
      <trkpt lat="46.262092245742679" lon="8.164937943220139">
        <ele>1957.5799999999999</ele>
        <time>2023-09-09T09:51:57Z</time>
      </trkpt>
      <trkpt lat="46.26209526322782" lon="8.164922101423144">
        <ele>1957.4100000000001</ele>
        <time>2023-09-09T09:51:58Z</time>
      </trkpt>
      <trkpt lat="46.26209962181747" lon="8.164906678721309">
        <ele>1957.3800000000001</ele>
        <time>2023-09-09T09:51:59Z</time>
      </trkpt>
      <trkpt lat="46.262105321511626" lon="8.164893016219139">
        <ele>1957.28</ele>
        <time>2023-09-09T09:52:00Z</time>
      </trkpt>
      <trkpt lat="46.262110937386751" lon="8.164879940450192">
        <ele>1957.3</ele>
        <time>2023-09-09T09:52:01Z</time>
      </trkpt>
      <trkpt lat="46.262115631252527" lon="8.16486619412899">
        <ele>1957.1900000000001</ele>
        <time>2023-09-09T09:52:02Z</time>
      </trkpt>
      <trkpt lat="46.262175645679235" lon="8.164725797250867">
        <ele>1958.9300000000001</ele>
        <time>2023-09-09T09:52:16Z</time>
      </trkpt>
      <trkpt lat="46.26227606087923" lon="8.164491020143032">
        <ele>1957.3900000000001</ele>
        <time>2023-09-09T09:52:33Z</time>
      </trkpt>
      <trkpt lat="46.262378823012114" lon="8.164322627708316">
        <ele>1956.9000000000001</ele>
        <time>2023-09-09T09:52:48Z</time>
      </trkpt>
      <trkpt lat="46.262447386980057" lon="8.164243753999472">
        <ele>1958.53</ele>
        <time>2023-09-09T09:53:00Z</time>
      </trkpt>
      <trkpt lat="46.262478735297918" lon="8.164157001301646">
        <ele>1959.3099999999999</ele>
        <time>2023-09-09T09:53:11Z</time>
      </trkpt>
      <trkpt lat="46.262482590973377" lon="8.164142584428191">
        <ele>1959.1700000000001</ele>
        <time>2023-09-09T09:53:12Z</time>
      </trkpt>
      <trkpt lat="46.262486530467868" lon="8.164128167554736">
        <ele>1959.0599999999999</ele>
        <time>2023-09-09T09:53:13Z</time>
      </trkpt>
      <trkpt lat="46.262489045038819" lon="8.164113583043218">
        <ele>1958.95</ele>
        <time>2023-09-09T09:53:14Z</time>
      </trkpt>
      <trkpt lat="46.262490637600422" lon="8.164098830893636">
        <ele>1959.1900000000001</ele>
        <time>2023-09-09T09:53:15Z</time>
      </trkpt>
      <trkpt lat="46.262566326186061" lon="8.163933288305998">
        <ele>1959.4400000000001</ele>
        <time>2023-09-09T09:53:30Z</time>
      </trkpt>
      <trkpt lat="46.262690294533968" lon="8.163732877001166">
        <ele>1957.9200000000001</ele>
        <time>2023-09-09T09:53:47Z</time>
      </trkpt>
      <trkpt lat="46.262784088030457" lon="8.163636149838567">
        <ele>1958.6700000000001</ele>
        <time>2023-09-09T09:53:59Z</time>
      </trkpt>
      <trkpt lat="46.262886095792055" lon="8.16351511515677">
        <ele>1959.54</ele>
        <time>2023-09-09T09:54:13Z</time>
      </trkpt>
      <trkpt lat="46.262994306162" lon="8.16340665332973">
        <ele>1959.1099999999999</ele>
        <time>2023-09-09T09:54:27Z</time>
      </trkpt>
      <trkpt lat="46.263069994747639" lon="8.163322163745761">
        <ele>1958.47</ele>
        <time>2023-09-09T09:54:39Z</time>
      </trkpt>
      <trkpt lat="46.263075526803732" lon="8.163310345262289">
        <ele>1958.3800000000001</ele>
        <time>2023-09-09T09:54:40Z</time>
      </trkpt>
      <trkpt lat="46.263081813231111" lon="8.163296850398183">
        <ele>1958.0899999999999</ele>
        <time>2023-09-09T09:54:41Z</time>
      </trkpt>
      <trkpt lat="46.263187509030104" lon="8.16313155926764">
        <ele>1956.4200000000001</ele>
        <time>2023-09-09T09:54:56Z</time>
      </trkpt>
      <trkpt lat="46.263287588953972" lon="8.163015050813556">
        <ele>1956.8199999999999</ele>
        <time>2023-09-09T09:55:11Z</time>
      </trkpt>
      <trkpt lat="46.263374090194702" lon="8.162909187376499">
        <ele>1957.71</ele>
        <time>2023-09-09T09:55:24Z</time>
      </trkpt>
      <trkpt lat="46.263498645275831" lon="8.162737274542451">
        <ele>1956.6500000000001</ele>
        <time>2023-09-09T09:55:40Z</time>
      </trkpt>
      <trkpt lat="46.263530412688851" lon="8.162701651453972">
        <ele>1956.3699999999999</ele>
        <time>2023-09-09T09:55:44Z</time>
      </trkpt>
      <trkpt lat="46.263603251427412" lon="8.162534181028605">
        <ele>1956.0899999999999</ele>
        <time>2023-09-09T09:55:58Z</time>
      </trkpt>
      <trkpt lat="46.263608364388347" lon="8.162523284554482">
        <ele>1956.1600000000001</ele>
        <time>2023-09-09T09:55:59Z</time>
      </trkpt>
      <trkpt lat="46.263616578653455" lon="8.162511382251978">
        <ele>1955.8699999999999</ele>
        <time>2023-09-09T09:56:00Z</time>
      </trkpt>
      <trkpt lat="46.26362512819469" lon="8.162501407787204">
        <ele>1955.6500000000001</ele>
        <time>2023-09-09T09:56:01Z</time>
      </trkpt>
      <trkpt lat="46.263633761554956" lon="8.162493109703064">
        <ele>1955.75</ele>
        <time>2023-09-09T09:56:02Z</time>
      </trkpt>
      <trkpt lat="46.263683550059795" lon="8.162381378933787">
        <ele>1954.75</ele>
        <time>2023-09-09T09:56:14Z</time>
      </trkpt>
      <trkpt lat="46.263732668012381" lon="8.162291776388884">
        <ele>1953.3299999999999</ele>
        <time>2023-09-09T09:56:27Z</time>
      </trkpt>
      <trkpt lat="46.263792933896184" lon="8.162230756133795">
        <ele>1951.8299999999999</ele>
        <time>2023-09-09T09:56:40Z</time>
      </trkpt>
      <trkpt lat="46.263871472328901" lon="8.16216504201293">
        <ele>1949.4400000000001</ele>
        <time>2023-09-09T09:56:55Z</time>
      </trkpt>
      <trkpt lat="46.263913968577981" lon="8.162133526057005">
        <ele>1948.1500000000001</ele>
        <time>2023-09-09T09:57:01Z</time>
      </trkpt>
      <trkpt lat="46.263987394049764" lon="8.16210201010108">
        <ele>1946.8800000000001</ele>
        <time>2023-09-09T09:57:12Z</time>
      </trkpt>
      <trkpt lat="46.264004241675138" lon="8.16208683885634">
        <ele>1946.6800000000001</ele>
        <time>2023-09-09T09:57:14Z</time>
      </trkpt>
      <trkpt lat="46.264077331870794" lon="8.161991201341152">
        <ele>1945.6199999999999</ele>
        <time>2023-09-09T09:57:26Z</time>
      </trkpt>
      <trkpt lat="46.26415042206645" lon="8.161873016506434">
        <ele>1943.99</ele>
        <time>2023-09-09T09:57:40Z</time>
      </trkpt>
      <trkpt lat="46.264260224997997" lon="8.161778468638659">
        <ele>1943.45</ele>
        <time>2023-09-09T09:57:53Z</time>
      </trkpt>
      <trkpt lat="46.264313366264105" lon="8.161746365949512">
        <ele>1943.6199999999999</ele>
        <time>2023-09-09T09:57:59Z</time>
      </trkpt>
      <trkpt lat="46.264321580529213" lon="8.161736559122801">
        <ele>1943.6800000000001</ele>
        <time>2023-09-09T09:58:00Z</time>
      </trkpt>
      <trkpt lat="46.264419229701161" lon="8.161610662937164">
        <ele>1943.8099999999999</ele>
        <time>2023-09-09T09:58:14Z</time>
      </trkpt>
      <trkpt lat="46.264457870274782" lon="8.161564813926816">
        <ele>1944.6300000000001</ele>
        <time>2023-09-09T09:58:21Z</time>
      </trkpt>
      <trkpt lat="46.264465749263763" lon="8.16155374981463">
        <ele>1944.6600000000001</ele>
        <time>2023-09-09T09:58:22Z</time>
      </trkpt>
      <trkpt lat="46.264471365138888" lon="8.161538830026984">
        <ele>1944.6900000000001</ele>
        <time>2023-09-09T09:58:23Z</time>
      </trkpt>
      <trkpt lat="46.264520147815347" lon="8.161312686279416">
        <ele>1943.5</ele>
        <time>2023-09-09T09:58:38Z</time>
      </trkpt>
      <trkpt lat="46.264578150585294" lon="8.161205146461725">
        <ele>1944.22</ele>
        <time>2023-09-09T09:58:53Z</time>
      </trkpt>
      <trkpt lat="46.264617461711168" lon="8.161170613020659">
        <ele>1946.77</ele>
        <time>2023-09-09T09:59:08Z</time>
      </trkpt>
      <trkpt lat="46.264635398983955" lon="8.161119483411312">
        <ele>1948.01</ele>
        <time>2023-09-09T09:59:22Z</time>
      </trkpt>
      <trkpt lat="46.264629866927862" lon="8.161069191992283">
        <ele>1946.3699999999999</ele>
        <time>2023-09-09T09:59:29Z</time>
      </trkpt>
      <trkpt lat="46.264630369842052" lon="8.16105293110013">
        <ele>1946.1099999999999</ele>
        <time>2023-09-09T09:59:30Z</time>
      </trkpt>
      <trkpt lat="46.264631040394306" lon="8.161037508398294">
        <ele>1946.1300000000001</ele>
        <time>2023-09-09T09:59:31Z</time>
      </trkpt>
      <trkpt lat="46.264632297679782" lon="8.16102116368711">
        <ele>1946.1199999999999</ele>
        <time>2023-09-09T09:59:32Z</time>
      </trkpt>
      <trkpt lat="46.264635231345892" lon="8.161005154252052">
        <ele>1946.1700000000001</ele>
        <time>2023-09-09T09:59:33Z</time>
      </trkpt>
      <trkpt lat="46.264639003202319" lon="8.160989815369248">
        <ele>1946.1199999999999</ele>
        <time>2023-09-09T09:59:34Z</time>
      </trkpt>
      <trkpt lat="46.2646727822721" lon="8.160824021324515">
        <ele>1946.47</ele>
        <time>2023-09-09T09:59:48Z</time>
      </trkpt>
      <trkpt lat="46.264688540250063" lon="8.160770125687122">
        <ele>1947.9300000000001</ele>
        <time>2023-09-09T09:59:59Z</time>
      </trkpt>
      <trkpt lat="46.264723157510161" lon="8.160662585869432">
        <ele>1948.21</ele>
        <time>2023-09-09T10:00:14Z</time>
      </trkpt>
      <trkpt lat="46.264732796698809" lon="8.160641044378281">
        <ele>1947.6700000000001</ele>
        <time>2023-09-09T10:00:16Z</time>
      </trkpt>
      <trkpt lat="46.264740424230695" lon="8.160629980266094">
        <ele>1947.5799999999999</ele>
        <time>2023-09-09T10:00:17Z</time>
      </trkpt>
      <trkpt lat="46.264748889952898" lon="8.16061899997294">
        <ele>1947.46</ele>
        <time>2023-09-09T10:00:18Z</time>
      </trkpt>
      <trkpt lat="46.264757690951228" lon="8.160609528422356">
        <ele>1947.3599999999999</ele>
        <time>2023-09-09T10:00:19Z</time>
      </trkpt>
      <trkpt lat="46.264766324311495" lon="8.160600978881121">
        <ele>1947.2</ele>
        <time>2023-09-09T10:00:20Z</time>
      </trkpt>
      <trkpt lat="46.26486330293119" lon="8.160515818744898">
        <ele>1948.48</ele>
        <time>2023-09-09T10:00:33Z</time>
      </trkpt>
      <trkpt lat="46.264958688989282" lon="8.160456139594317">
        <ele>1950.6400000000001</ele>
        <time>2023-09-09T10:00:52Z</time>
      </trkpt>
      <trkpt lat="46.264976290985942" lon="8.160442309454083">
        <ele>1951.3299999999999</ele>
        <time>2023-09-09T10:01:03Z</time>
      </trkpt>
      <trkpt lat="46.265048878267407" lon="8.160392940044403">
        <ele>1953.8900000000001</ele>
        <time>2023-09-09T10:01:20Z</time>
      </trkpt>
      <trkpt lat="46.265118112787604" lon="8.160375421866775">
        <ele>1955.98</ele>
        <time>2023-09-09T10:01:37Z</time>
      </trkpt>
      <trkpt lat="46.265192460268736" lon="8.160308366641402">
        <ele>1956.54</ele>
        <time>2023-09-09T10:01:51Z</time>
      </trkpt>
      <trkpt lat="46.265238728374243" lon="8.160189343616366">
        <ele>1958.05</ele>
        <time>2023-09-09T10:02:09Z</time>
      </trkpt>
      <trkpt lat="46.265240237116814" lon="8.160178614780307">
        <ele>1957.6800000000001</ele>
        <time>2023-09-09T10:02:10Z</time>
      </trkpt>
      <trkpt lat="46.265227077528834" lon="8.160029081627727">
        <ele>1956.3499999999999</ele>
        <time>2023-09-09T10:02:24Z</time>
      </trkpt>
      <trkpt lat="46.265217186883092" lon="8.159959679469466">
        <ele>1955.97</ele>
        <time>2023-09-09T10:02:31Z</time>
      </trkpt>
      <trkpt lat="46.265174355357885" lon="8.159789107739925">
        <ele>1955.52</ele>
        <time>2023-09-09T10:02:44Z</time>
      </trkpt>
      <trkpt lat="46.265153149142861" lon="8.159729344770312">
        <ele>1955.1800000000001</ele>
        <time>2023-09-09T10:02:56Z</time>
      </trkpt>
      <trkpt lat="46.265151472762227" lon="8.159583248198032">
        <ele>1955.1300000000001</ele>
        <time>2023-09-09T10:03:07Z</time>
      </trkpt>
      <trkpt lat="46.265184246003628" lon="8.15941309556365">
        <ele>1956.9300000000001</ele>
        <time>2023-09-09T10:03:21Z</time>
      </trkpt>
      <trkpt lat="46.265197405591607" lon="8.159336233511567">
        <ele>1958.1199999999999</ele>
        <time>2023-09-09T10:03:33Z</time>
      </trkpt>
      <trkpt lat="46.265260605141521" lon="8.159311842173338">
        <ele>1960.9400000000001</ele>
        <time>2023-09-09T10:03:52Z</time>
      </trkpt>
      <trkpt lat="46.265308214351535" lon="8.15924889408052">
        <ele>1962.95</ele>
        <time>2023-09-09T10:04:06Z</time>
      </trkpt>
      <trkpt lat="46.265340652316809" lon="8.159270016476512">
        <ele>1964.78</ele>
        <time>2023-09-09T10:04:20Z</time>
      </trkpt>
      <trkpt lat="46.265344927087426" lon="8.159362133592367">
        <ele>1967.4200000000001</ele>
        <time>2023-09-09T10:04:40Z</time>
      </trkpt>
      <trkpt lat="46.265351045876741" lon="8.159424411132932">
        <ele>1968.45</ele>
        <time>2023-09-09T10:04:52Z</time>
      </trkpt>
      <trkpt lat="46.265401002019644" lon="8.159391805529594">
        <ele>1970.6700000000001</ele>
        <time>2023-09-09T10:05:07Z</time>
      </trkpt>
      <trkpt lat="46.265426902100444" lon="8.159319637343288">
        <ele>1971.8099999999999</ele>
        <time>2023-09-09T10:05:19Z</time>
      </trkpt>
      <trkpt lat="46.265449114143848" lon="8.159282002598047">
        <ele>1972.5999999999999</ele>
        <time>2023-09-09T10:05:31Z</time>
      </trkpt>
      <trkpt lat="46.265474008396268" lon="8.159174378961325">
        <ele>1975.03</ele>
        <time>2023-09-09T10:05:47Z</time>
      </trkpt>
      <trkpt lat="46.265450874343514" lon="8.159056277945638">
        <ele>1973.5799999999999</ele>
        <time>2023-09-09T10:05:59Z</time>
      </trkpt>
      <trkpt lat="46.265478869900107" lon="8.158912779763341">
        <ele>1971.73</ele>
        <time>2023-09-09T10:06:14Z</time>
      </trkpt>
      <trkpt lat="46.265460681170225" lon="8.158859135583043">
        <ele>1970.95</ele>
        <time>2023-09-09T10:06:25Z</time>
      </trkpt>
      <trkpt lat="46.265456238761544" lon="8.158854860812426">
        <ele>1970.0899999999999</ele>
        <time>2023-09-09T10:06:45Z</time>
      </trkpt>
      <trkpt lat="46.265440480783582" lon="8.158799707889557">
        <ele>1970.03</ele>
        <time>2023-09-09T10:17:49Z</time>
      </trkpt>
      <trkpt lat="46.265499573200941" lon="8.158774897456169">
        <ele>1969.8800000000001</ele>
        <time>2023-09-09T10:18:19Z</time>
      </trkpt>
      <trkpt lat="46.265502003952861" lon="8.158772047609091">
        <ele>1969.99</ele>
        <time>2023-09-09T10:18:34Z</time>
      </trkpt>
      <trkpt lat="46.265496304258704" lon="8.158777747303248">
        <ele>1969.96</ele>
        <time>2023-09-09T10:18:53Z</time>
      </trkpt>
      <trkpt lat="46.265543326735497" lon="8.158722929656506">
        <ele>1968.4300000000001</ele>
        <time>2023-09-09T10:19:12Z</time>
      </trkpt>
      <trkpt lat="46.265551038086414" lon="8.158710775896907">
        <ele>1968.3499999999999</ele>
        <time>2023-09-09T10:19:13Z</time>
      </trkpt>
      <trkpt lat="46.265608454123139" lon="8.158592507243156">
        <ele>1968.24</ele>
        <time>2023-09-09T10:19:26Z</time>
      </trkpt>
      <trkpt lat="46.265622535720468" lon="8.158567864447832">
        <ele>1968.1300000000001</ele>
        <time>2023-09-09T10:19:29Z</time>
      </trkpt>
      <trkpt lat="46.265631588175893" lon="8.158556884154677">
        <ele>1968.05</ele>
        <time>2023-09-09T10:19:30Z</time>
      </trkpt>
      <trkpt lat="46.265641059726477" lon="8.158546574413776">
        <ele>1967.8299999999999</ele>
        <time>2023-09-09T10:19:31Z</time>
      </trkpt>
      <trkpt lat="46.265650279819965" lon="8.15853551030159">
        <ele>1967.6900000000001</ele>
        <time>2023-09-09T10:19:32Z</time>
      </trkpt>
      <trkpt lat="46.265659080818295" lon="8.158525871112943">
        <ele>1967.54</ele>
        <time>2023-09-09T10:19:33Z</time>
      </trkpt>
      <trkpt lat="46.265668803825974" lon="8.158517321571708">
        <ele>1967.3499999999999</ele>
        <time>2023-09-09T10:19:34Z</time>
      </trkpt>
      <trkpt lat="46.265762262046337" lon="8.158398969098926">
        <ele>1964.6300000000001</ele>
        <time>2023-09-09T10:19:47Z</time>
      </trkpt>
      <trkpt lat="46.265788413584232" lon="8.158372398465872">
        <ele>1963.6600000000001</ele>
        <time>2023-09-09T10:19:51Z</time>
      </trkpt>
      <trkpt lat="46.265817750245333" lon="8.158339792862535">
        <ele>1962.4400000000001</ele>
        <time>2023-09-09T10:19:55Z</time>
      </trkpt>
      <trkpt lat="46.265864688903093" lon="8.158293189480901">
        <ele>1960.71</ele>
        <time>2023-09-09T10:20:01Z</time>
      </trkpt>
      <trkpt lat="46.265959069132805" lon="8.1582086160779">
        <ele>1958.9400000000001</ele>
        <time>2023-09-09T10:20:12Z</time>
      </trkpt>
      <trkpt lat="46.26596862450242" lon="8.158201491460204">
        <ele>1958.5599999999999</ele>
        <time>2023-09-09T10:20:13Z</time>
      </trkpt>
      <trkpt lat="46.265977425500751" lon="8.158191936090589">
        <ele>1958.1900000000001</ele>
        <time>2023-09-09T10:20:14Z</time>
      </trkpt>
      <trkpt lat="46.266013300046325" lon="8.158140806481242">
        <ele>1956.55</ele>
        <time>2023-09-09T10:20:20Z</time>
      </trkpt>
      <trkpt lat="46.266090162098408" lon="8.158125719055533">
        <ele>1954.71</ele>
        <time>2023-09-09T10:20:31Z</time>
      </trkpt>
      <trkpt lat="46.266133831813931" lon="8.158031422644854">
        <ele>1952.74</ele>
        <time>2023-09-09T10:20:42Z</time>
      </trkpt>
      <trkpt lat="46.266231145709753" lon="8.157999319955707">
        <ele>1950.1700000000001</ele>
        <time>2023-09-09T10:20:53Z</time>
      </trkpt>
      <trkpt lat="46.266254866495728" lon="8.157974006608129">
        <ele>1949.1099999999999</ele>
        <time>2023-09-09T10:20:56Z</time>
      </trkpt>
      <trkpt lat="46.266264673322439" lon="8.15796478651464">
        <ele>1948.77</ele>
        <time>2023-09-09T10:20:57Z</time>
      </trkpt>
      <trkpt lat="46.266274396330118" lon="8.157958164811134">
        <ele>1948.4000000000001</ele>
        <time>2023-09-09T10:20:58Z</time>
      </trkpt>
      <trkpt lat="46.266318652778864" lon="8.157941736280918">
        <ele>1946.78</ele>
        <time>2023-09-09T10:21:04Z</time>
      </trkpt>
      <trkpt lat="46.266377912834287" lon="8.15787585452199">
        <ele>1944.3</ele>
        <time>2023-09-09T10:21:12Z</time>
      </trkpt>
      <trkpt lat="46.266384618356824" lon="8.157862527295947">
        <ele>1944.1500000000001</ele>
        <time>2023-09-09T10:21:13Z</time>
      </trkpt>
      <trkpt lat="46.266392664983869" lon="8.157848697155714">
        <ele>1943.9400000000001</ele>
        <time>2023-09-09T10:21:14Z</time>
      </trkpt>
      <trkpt lat="46.266401801258326" lon="8.157837046310306">
        <ele>1943.77</ele>
        <time>2023-09-09T10:21:15Z</time>
      </trkpt>
      <trkpt lat="46.266439352184534" lon="8.157828161492944">
        <ele>1943.26</ele>
        <time>2023-09-09T10:21:19Z</time>
      </trkpt>
      <trkpt lat="46.266535324975848" lon="8.157781725749373">
        <ele>1940.21</ele>
        <time>2023-09-09T10:21:31Z</time>
      </trkpt>
      <trkpt lat="46.266575893387198" lon="8.15775515511632">
        <ele>1939.25</ele>
        <time>2023-09-09T10:21:45Z</time>
      </trkpt>
      <trkpt lat="46.266638590022922" lon="8.157750209793448">
        <ele>1938.1900000000001</ele>
        <time>2023-09-09T10:21:59Z</time>
      </trkpt>
      <trkpt lat="46.266697514802217" lon="8.15779228694737">
        <ele>1936.1400000000001</ele>
        <time>2023-09-09T10:22:12Z</time>
      </trkpt>
      <trkpt lat="46.266741268336773" lon="8.15775808878243">
        <ele>1933.74</ele>
        <time>2023-09-09T10:22:24Z</time>
      </trkpt>
      <trkpt lat="46.266767336055636" lon="8.157722130417824">
        <ele>1931.7</ele>
        <time>2023-09-09T10:22:35Z</time>
      </trkpt>
      <trkpt lat="46.266821986064315" lon="8.157699247822166">
        <ele>1930.46</ele>
        <time>2023-09-09T10:22:45Z</time>
      </trkpt>
      <trkpt lat="46.266865320503712" lon="8.15765306353569">
        <ele>1929.8599999999999</ele>
        <time>2023-09-09T10:22:53Z</time>
      </trkpt>
      <trkpt lat="46.266981409862638" lon="8.157631941139698">
        <ele>1927.9400000000001</ele>
        <time>2023-09-09T10:23:07Z</time>
      </trkpt>
      <trkpt lat="46.266992976889014" lon="8.157632695510984">
        <ele>1927.8399999999999</ele>
        <time>2023-09-09T10:23:08Z</time>
      </trkpt>
      <trkpt lat="46.267028683796525" lon="8.157652895897627">
        <ele>1927.3199999999999</ele>
        <time>2023-09-09T10:23:12Z</time>
      </trkpt>
      <trkpt lat="46.267039161175489" lon="8.15765549428761">
        <ele>1927.22</ele>
        <time>2023-09-09T10:23:13Z</time>
      </trkpt>
      <trkpt lat="46.267049387097359" lon="8.157660942524672">
        <ele>1927.0699999999999</ele>
        <time>2023-09-09T10:23:14Z</time>
      </trkpt>
      <trkpt lat="46.267115855589509" lon="8.157662283629179">
        <ele>1925.7</ele>
        <time>2023-09-09T10:23:25Z</time>
      </trkpt>
      <trkpt lat="46.267200261354446" lon="8.157671084627509">
        <ele>1923.75</ele>
        <time>2023-09-09T10:23:38Z</time>
      </trkpt>
      <trkpt lat="46.267270417883992" lon="8.157677203416824">
        <ele>1921.98</ele>
        <time>2023-09-09T10:23:50Z</time>
      </trkpt>
      <trkpt lat="46.267318530008197" lon="8.157706456258893">
        <ele>1920.3299999999999</ele>
        <time>2023-09-09T10:24:01Z</time>
      </trkpt>
      <trkpt lat="46.267372677102685" lon="8.157732775434852">
        <ele>1918.98</ele>
        <time>2023-09-09T10:24:12Z</time>
      </trkpt>
      <trkpt lat="46.267398158088326" lon="8.157737804576755">
        <ele>1917.8099999999999</ele>
        <time>2023-09-09T10:24:23Z</time>
      </trkpt>
      <trkpt lat="46.267437301576138" lon="8.157724728807807">
        <ele>1916.3</ele>
        <time>2023-09-09T10:24:37Z</time>
      </trkpt>
      <trkpt lat="46.267511565238237" lon="8.157791113480926">
        <ele>1914.29</ele>
        <time>2023-09-09T10:24:49Z</time>
      </trkpt>
      <trkpt lat="46.267591277137399" lon="8.157854313030839">
        <ele>1912.97</ele>
        <time>2023-09-09T10:25:00Z</time>
      </trkpt>
      <trkpt lat="46.267635617405176" lon="8.157888595014811">
        <ele>1912.4000000000001</ele>
        <time>2023-09-09T10:25:09Z</time>
      </trkpt>
      <trkpt lat="46.267740475013852" lon="8.15791885368526">
        <ele>1910.71</ele>
        <time>2023-09-09T10:25:24Z</time>
      </trkpt>
      <trkpt lat="46.267785653471947" lon="8.157948525622487">
        <ele>1909.9200000000001</ele>
        <time>2023-09-09T10:25:30Z</time>
      </trkpt>
      <trkpt lat="46.267795711755753" lon="8.157955482602119">
        <ele>1909.8099999999999</ele>
        <time>2023-09-09T10:25:31Z</time>
      </trkpt>
      <trkpt lat="46.2678053509444" lon="8.157963026314974">
        <ele>1909.6700000000001</ele>
        <time>2023-09-09T10:25:32Z</time>
      </trkpt>
      <trkpt lat="46.267933510243893" lon="8.158039469271898">
        <ele>1908.45</ele>
        <time>2023-09-09T10:25:45Z</time>
      </trkpt>
      <trkpt lat="46.267962511628866" lon="8.158047515898943">
        <ele>1908.4400000000001</ele>
        <time>2023-09-09T10:25:48Z</time>
      </trkpt>
      <trkpt lat="46.268055299296975" lon="8.158114152029157">
        <ele>1907.8199999999999</ele>
        <time>2023-09-09T10:26:02Z</time>
      </trkpt>
      <trkpt lat="46.268117828294635" lon="8.158186320215464">
        <ele>1907.8299999999999</ele>
        <time>2023-09-09T10:26:13Z</time>
      </trkpt>
      <trkpt lat="46.268142219632864" lon="8.158202078193426">
        <ele>1907.5799999999999</ele>
        <time>2023-09-09T10:26:16Z</time>
      </trkpt>
      <trkpt lat="46.268188152462244" lon="8.158238623291254">
        <ele>1906.6600000000001</ele>
        <time>2023-09-09T10:26:26Z</time>
      </trkpt>
      <trkpt lat="46.268256548792124" lon="8.158266199752688">
        <ele>1906.2</ele>
        <time>2023-09-09T10:26:37Z</time>
      </trkpt>
      <trkpt lat="46.268284795805812" lon="8.158275000751019">
        <ele>1905.74</ele>
        <time>2023-09-09T10:26:40Z</time>
      </trkpt>
      <trkpt lat="46.268344558775425" lon="8.158303163945675">
        <ele>1904.8699999999999</ele>
        <time>2023-09-09T10:26:47Z</time>
      </trkpt>
      <trkpt lat="46.268355203792453" lon="8.158305929973722">
        <ele>1904.71</ele>
        <time>2023-09-09T10:26:48Z</time>
      </trkpt>
      <trkpt lat="46.268408009782434" lon="8.158339792862535">
        <ele>1904.3399999999999</ele>
        <time>2023-09-09T10:26:59Z</time>
      </trkpt>
      <trkpt lat="46.268415804952383" lon="8.158341804519296">
        <ele>1904.3299999999999</ele>
        <time>2023-09-09T10:27:00Z</time>
      </trkpt>
      <trkpt lat="46.268453188240528" lon="8.158364687114954">
        <ele>1903.9300000000001</ele>
        <time>2023-09-09T10:27:10Z</time>
      </trkpt>
      <trkpt lat="46.268514627590775" lon="8.158403746783733">
        <ele>1903.6600000000001</ele>
        <time>2023-09-09T10:27:21Z</time>
      </trkpt>
      <trkpt lat="46.268570953980088" lon="8.158435681834817">
        <ele>1904.1300000000001</ele>
        <time>2023-09-09T10:27:31Z</time>
      </trkpt>
      <trkpt lat="46.268614204600453" lon="8.158427551388741">
        <ele>1903.3399999999999</ele>
        <time>2023-09-09T10:27:37Z</time>
      </trkpt>
      <trkpt lat="46.268623508512974" lon="8.15842411480844">
        <ele>1903.25</ele>
        <time>2023-09-09T10:27:38Z</time>
      </trkpt>
      <trkpt lat="46.268690144643188" lon="8.158483291044831">
        <ele>1902.6199999999999</ele>
        <time>2023-09-09T10:27:50Z</time>
      </trkpt>
      <trkpt lat="46.268707746639848" lon="8.158524027094245">
        <ele>1902.3499999999999</ele>
        <time>2023-09-09T10:27:57Z</time>
      </trkpt>
      <trkpt lat="46.268724175170064" lon="8.158544898033142">
        <ele>1902.4000000000001</ele>
        <time>2023-09-09T10:27:59Z</time>
      </trkpt>
      <trkpt lat="46.268735155463219" lon="8.158553447574377">
        <ele>1902.22</ele>
        <time>2023-09-09T10:28:00Z</time>
      </trkpt>
      <trkpt lat="46.268814532086253" lon="8.158643217757344">
        <ele>1902.3299999999999</ele>
        <time>2023-09-09T10:28:10Z</time>
      </trkpt>
      <trkpt lat="46.268914695829153" lon="8.158737681806088">
        <ele>1902.3299999999999</ele>
        <time>2023-09-09T10:28:22Z</time>
      </trkpt>
      <trkpt lat="46.269053667783737" lon="8.158847903832793">
        <ele>1903.1300000000001</ele>
        <time>2023-09-09T10:28:37Z</time>
      </trkpt>
      <trkpt lat="46.269106641411781" lon="8.15889710560441">
        <ele>1903.29</ele>
        <time>2023-09-09T10:28:51Z</time>
      </trkpt>
      <trkpt lat="46.269185766577721" lon="8.158996012061834">
        <ele>1903.1300000000001</ele>
        <time>2023-09-09T10:29:02Z</time>
      </trkpt>
      <trkpt lat="46.269307471811771" lon="8.159113442525268">
        <ele>1902.8299999999999</ele>
        <time>2023-09-09T10:29:15Z</time>
      </trkpt>
      <trkpt lat="46.269367821514606" lon="8.159176306799054">
        <ele>1902.9300000000001</ele>
        <time>2023-09-09T10:29:22Z</time>
      </trkpt>
      <trkpt lat="46.269448036327958" lon="8.159217797219753">
        <ele>1902.9200000000001</ele>
        <time>2023-09-09T10:29:32Z</time>
      </trkpt>
      <trkpt lat="46.269536297768354" lon="8.159295748919249">
        <ele>1903.9000000000001</ele>
        <time>2023-09-09T10:29:43Z</time>
      </trkpt>
      <trkpt lat="46.269570579752326" lon="8.159354841336608">
        <ele>1904.4400000000001</ele>
        <time>2023-09-09T10:29:49Z</time>
      </trkpt>
      <trkpt lat="46.269613578915596" lon="8.159399433061481">
        <ele>1905.5899999999999</ele>
        <time>2023-09-09T10:29:57Z</time>
      </trkpt>
      <trkpt lat="46.269659511744976" lon="8.159454837441444">
        <ele>1907.2</ele>
        <time>2023-09-09T10:30:09Z</time>
      </trkpt>
      <trkpt lat="46.269714999943972" lon="8.159489454701543">
        <ele>1909.1900000000001</ele>
        <time>2023-09-09T10:30:23Z</time>
      </trkpt>
      <trkpt lat="46.269765794277191" lon="8.159503033384681">
        <ele>1910.72</ele>
        <time>2023-09-09T10:30:34Z</time>
      </trkpt>
      <trkpt lat="46.269842572510242" lon="8.15949322655797">
        <ele>1912.1400000000001</ele>
        <time>2023-09-09T10:30:46Z</time>
      </trkpt>
      <trkpt lat="46.26989814452827" lon="8.159574195742607">
        <ele>1911.9300000000001</ele>
        <time>2023-09-09T10:30:58Z</time>
      </trkpt>
      <trkpt lat="46.269949190318584" lon="8.159592300653458">
        <ele>1913.1900000000001</ele>
        <time>2023-09-09T10:31:10Z</time>
      </trkpt>
      <trkpt lat="46.270043570548296" lon="8.159553240984678">
        <ele>1914.03</ele>
        <time>2023-09-09T10:31:22Z</time>
      </trkpt>
      <trkpt lat="46.270111296325922" lon="8.15953672863543">
        <ele>1915.0599999999999</ele>
        <time>2023-09-09T10:31:31Z</time>
      </trkpt>
      <trkpt lat="46.270146248862147" lon="8.159553492441773">
        <ele>1915.25</ele>
        <time>2023-09-09T10:31:35Z</time>
      </trkpt>
      <trkpt lat="46.270156307145953" lon="8.159563299268484">
        <ele>1915.1600000000001</ele>
        <time>2023-09-09T10:31:36Z</time>
      </trkpt>
      <trkpt lat="46.270232247188687" lon="8.159575872123241">
        <ele>1915.1199999999999</ele>
        <time>2023-09-09T10:31:45Z</time>
      </trkpt>
      <trkpt lat="46.270312881097198" lon="8.159606549888849">
        <ele>1915.28</ele>
        <time>2023-09-09T10:31:56Z</time>
      </trkpt>
      <trkpt lat="46.270374655723572" lon="8.15961292013526">
        <ele>1915.6500000000001</ele>
        <time>2023-09-09T10:32:03Z</time>
      </trkpt>
      <trkpt lat="46.270443052053452" lon="8.159660696983337">
        <ele>1915.72</ele>
        <time>2023-09-09T10:32:11Z</time>
      </trkpt>
      <trkpt lat="46.270576491951942" lon="8.159723393619061">
        <ele>1916.3699999999999</ele>
        <time>2023-09-09T10:32:26Z</time>
      </trkpt>
      <trkpt lat="46.270656371489167" lon="8.159743258729577">
        <ele>1916.72</ele>
        <time>2023-09-09T10:32:37Z</time>
      </trkpt>
      <trkpt lat="46.270667016506195" lon="8.15974828787148">
        <ele>1916.5699999999999</ele>
        <time>2023-09-09T10:32:38Z</time>
      </trkpt>
      <trkpt lat="46.270695347338915" lon="8.159763710573316">
        <ele>1916.55</ele>
        <time>2023-09-09T10:32:41Z</time>
      </trkpt>
      <trkpt lat="46.270705657079816" lon="8.159766979515553">
        <ele>1916.51</ele>
        <time>2023-09-09T10:32:42Z</time>
      </trkpt>
      <trkpt lat="46.270791236311197" lon="8.159759603440762">
        <ele>1916.5999999999999</ele>
        <time>2023-09-09T10:32:52Z</time>
      </trkpt>
      <trkpt lat="46.270883940160275" lon="8.159819701686502">
        <ele>1916.29</ele>
        <time>2023-09-09T10:33:03Z</time>
      </trkpt>
      <trkpt lat="46.270911935716867" lon="8.159809475764632">
        <ele>1916.0699999999999</ele>
        <time>2023-09-09T10:33:13Z</time>
      </trkpt>
      <trkpt lat="46.270935572683811" lon="8.159837890416384">
        <ele>1917.02</ele>
        <time>2023-09-09T10:33:44Z</time>
      </trkpt>
      <trkpt lat="46.270955940708518" lon="8.159843925386667">
        <ele>1917.0799999999999</ele>
        <time>2023-09-09T10:33:46Z</time>
      </trkpt>
      <trkpt lat="46.27109088934958" lon="8.159906286746264">
        <ele>1916.96</ele>
        <time>2023-09-09T10:33:59Z</time>
      </trkpt>
      <trkpt lat="46.271163895726204" lon="8.159929923713207">
        <ele>1916.7</ele>
        <time>2023-09-09T10:34:06Z</time>
      </trkpt>
      <trkpt lat="46.271173534914851" lon="8.159937970340252">
        <ele>1916.6600000000001</ele>
        <time>2023-09-09T10:34:07Z</time>
      </trkpt>
      <trkpt lat="46.271183006465435" lon="8.159947525709868">
        <ele>1916.5999999999999</ele>
        <time>2023-09-09T10:34:08Z</time>
      </trkpt>
      <trkpt lat="46.271251821890473" lon="8.160052802413702">
        <ele>1916.53</ele>
        <time>2023-09-09T10:34:20Z</time>
      </trkpt>
      <trkpt lat="46.271256431937218" lon="8.160051628947258">
        <ele>1916.6400000000001</ele>
        <time>2023-09-09T10:34:35Z</time>
      </trkpt>
      <trkpt lat="46.271279146894813" lon="8.160068560391665">
        <ele>1916.6700000000001</ele>
        <time>2023-09-09T10:34:45Z</time>
      </trkpt>
      <trkpt lat="46.271328013390303" lon="8.160076439380646">
        <ele>1916.8299999999999</ele>
        <time>2023-09-09T10:34:50Z</time>
      </trkpt>
      <trkpt lat="46.271464889869094" lon="8.160154642537236">
        <ele>1917.02</ele>
        <time>2023-09-09T10:35:04Z</time>
      </trkpt>
      <trkpt lat="46.271530436351895" lon="8.160245502367616">
        <ele>1917.27</ele>
        <time>2023-09-09T10:35:13Z</time>
      </trkpt>
      <trkpt lat="46.271567987278104" lon="8.160248687490821">
        <ele>1917.3499999999999</ele>
        <time>2023-09-09T10:35:17Z</time>
      </trkpt>
      <trkpt lat="46.271602604538202" lon="8.160242903977633">
        <ele>1916.78</ele>
        <time>2023-09-09T10:35:30Z</time>
      </trkpt>
      <trkpt lat="46.27162448130548" lon="8.160257656127214">
        <ele>1916.9300000000001</ele>
        <time>2023-09-09T10:35:52Z</time>
      </trkpt>
      <trkpt lat="46.27164107747376" lon="8.160275090485811">
        <ele>1916.8900000000001</ele>
        <time>2023-09-09T10:35:54Z</time>
      </trkpt>
      <trkpt lat="46.271723220124841" lon="8.160360753536224">
        <ele>1917.27</ele>
        <time>2023-09-09T10:36:04Z</time>
      </trkpt>
      <trkpt lat="46.271844925358891" lon="8.160458905622363">
        <ele>1918.22</ele>
        <time>2023-09-09T10:36:18Z</time>
      </trkpt>
      <trkpt lat="46.271892115473747" lon="8.160521602258086">
        <ele>1918.24</ele>
        <time>2023-09-09T10:36:24Z</time>
      </trkpt>
      <trkpt lat="46.272017676383257" lon="8.160582790151238">
        <ele>1918.3099999999999</ele>
        <time>2023-09-09T10:36:37Z</time>
      </trkpt>
      <trkpt lat="46.272138711065054" lon="8.16069477237761">
        <ele>1919.0599999999999</ele>
        <time>2023-09-09T10:36:51Z</time>
      </trkpt>
      <trkpt lat="46.272204676643014" lon="8.160768784582615">
        <ele>1919.22</ele>
        <time>2023-09-09T10:36:59Z</time>
      </trkpt>
      <trkpt lat="46.272227559238672" lon="8.160813124850392">
        <ele>1919.6099999999999</ele>
        <time>2023-09-09T10:37:03Z</time>
      </trkpt>
      <trkpt lat="46.272235605865717" lon="8.160822093486786">
        <ele>1919.71</ele>
        <time>2023-09-09T10:37:04Z</time>
      </trkpt>
      <trkpt lat="46.272288244217634" lon="8.160881856456399">
        <ele>1920.0799999999999</ele>
        <time>2023-09-09T10:37:11Z</time>
      </trkpt>
      <trkpt lat="46.27233006991446" lon="8.161017056554556">
        <ele>1920.9100000000001</ele>
        <time>2023-09-09T10:37:23Z</time>
      </trkpt>
      <trkpt lat="46.272387066856027" lon="8.161138594150543">
        <ele>1921.4300000000001</ele>
        <time>2023-09-09T10:37:34Z</time>
      </trkpt>
      <trkpt lat="46.272488739341497" lon="8.161310004070401">
        <ele>1922.0799999999999</ele>
        <time>2023-09-09T10:37:49Z</time>
      </trkpt>
      <trkpt lat="46.272609606385231" lon="8.161460962146521">
        <ele>1922.49</ele>
        <time>2023-09-09T10:38:04Z</time>
      </trkpt>
      <trkpt lat="46.272652521729469" lon="8.16152005456388">
        <ele>1922.8399999999999</ele>
        <time>2023-09-09T10:38:10Z</time>
      </trkpt>
      <trkpt lat="46.272730892524123" lon="8.161675957962871">
        <ele>1923.6900000000001</ele>
        <time>2023-09-09T10:38:24Z</time>
      </trkpt>
      <trkpt lat="46.272755786776543" lon="8.161717113107443">
        <ele>1923.5999999999999</ele>
        <time>2023-09-09T10:38:28Z</time>
      </trkpt>
      <trkpt lat="46.272803479805589" lon="8.161836303770542">
        <ele>1924.1400000000001</ele>
        <time>2023-09-09T10:38:39Z</time>
      </trkpt>
      <trkpt lat="46.272875145077705" lon="8.161961864680052">
        <ele>1925.1199999999999</ele>
        <time>2023-09-09T10:38:52Z</time>
      </trkpt>
      <trkpt lat="46.272948570549488" lon="8.162096226587892">
        <ele>1925.3</ele>
        <time>2023-09-09T10:39:04Z</time>
      </trkpt>
      <trkpt lat="46.272987797856331" lon="8.162191780284047">
        <ele>1923.3399999999999</ele>
        <time>2023-09-09T10:39:14Z</time>
      </trkpt>
      <trkpt lat="46.273000119253993" lon="8.162262104451656">
        <ele>1922.0699999999999</ele>
        <time>2023-09-09T10:39:24Z</time>
      </trkpt>
      <trkpt lat="46.273020571097732" lon="8.162302421405911">
        <ele>1921.77</ele>
        <time>2023-09-09T10:39:34Z</time>
      </trkpt>
      <trkpt lat="46.273059295490384" lon="8.162318682298064">
        <ele>1922.3</ele>
        <time>2023-09-09T10:39:43Z</time>
      </trkpt>
      <trkpt lat="46.273120064288378" lon="8.162300493568182">
        <ele>1923.5899999999999</ele>
        <time>2023-09-09T10:39:54Z</time>
      </trkpt>
      <trkpt lat="46.273186281323433" lon="8.162286076694727">
        <ele>1923.9300000000001</ele>
        <time>2023-09-09T10:40:05Z</time>
      </trkpt>
      <trkpt lat="46.273239674046636" lon="8.162222458049655">
        <ele>1924.8399999999999</ele>
        <time>2023-09-09T10:40:17Z</time>
      </trkpt>
      <trkpt lat="46.273289127275348" lon="8.162220697849989">
        <ele>1925.98</ele>
        <time>2023-09-09T10:40:27Z</time>
      </trkpt>
      <trkpt lat="46.273337742313743" lon="8.162233605980873">
        <ele>1926.4100000000001</ele>
        <time>2023-09-09T10:40:39Z</time>
      </trkpt>
      <trkpt lat="46.273405300453305" lon="8.162295212969184">
        <ele>1927.29</ele>
        <time>2023-09-09T10:40:50Z</time>
      </trkpt>
      <trkpt lat="46.273429356515408" lon="8.162316083908081">
        <ele>1927.02</ele>
        <time>2023-09-09T10:41:01Z</time>
      </trkpt>
      <trkpt lat="46.273469505831599" lon="8.162301499396563">
        <ele>1927.79</ele>
        <time>2023-09-09T10:41:20Z</time>
      </trkpt>
      <trkpt lat="46.273547038435936" lon="8.162367213517427">
        <ele>1928.3299999999999</ele>
        <time>2023-09-09T10:41:32Z</time>
      </trkpt>
      <trkpt lat="46.273558018729091" lon="8.162383725866675">
        <ele>1928.47</ele>
        <time>2023-09-09T10:41:34Z</time>
      </trkpt>
      <trkpt lat="46.273641921579838" lon="8.162457486614585">
        <ele>1928.9000000000001</ele>
        <time>2023-09-09T10:41:45Z</time>
      </trkpt>
      <trkpt lat="46.273726411163807" lon="8.1625637691468">
        <ele>1930.29</ele>
        <time>2023-09-09T10:41:58Z</time>
      </trkpt>
      <trkpt lat="46.27377393655479" lon="8.162590088322759">
        <ele>1930.9000000000001</ele>
        <time>2023-09-09T10:42:04Z</time>
      </trkpt>
      <trkpt lat="46.273784413933754" lon="8.162594614550471">
        <ele>1930.96</ele>
        <time>2023-09-09T10:42:05Z</time>
      </trkpt>
      <trkpt lat="46.273890025913715" lon="8.162672147154808">
        <ele>1931.6700000000001</ele>
        <time>2023-09-09T10:42:18Z</time>
      </trkpt>
      <trkpt lat="46.273908214643598" lon="8.162679271772504">
        <ele>1931.95</ele>
        <time>2023-09-09T10:42:20Z</time>
      </trkpt>
      <trkpt lat="46.274036876857281" lon="8.162740124389529">
        <ele>1932.3099999999999</ele>
        <time>2023-09-09T10:42:34Z</time>
      </trkpt>
      <trkpt lat="46.274135448038578" lon="8.162813382223249">
        <ele>1933.0699999999999</ele>
        <time>2023-09-09T10:42:46Z</time>
      </trkpt>
      <trkpt lat="46.274267798289657" lon="8.162932405248284">
        <ele>1934.3599999999999</ele>
        <time>2023-09-09T10:43:03Z</time>
      </trkpt>
      <trkpt lat="46.274360837414861" lon="8.163046315312386">
        <ele>1935.21</ele>
        <time>2023-09-09T10:43:17Z</time>
      </trkpt>
      <trkpt lat="46.274440800771117" lon="8.163123680278659">
        <ele>1936.3199999999999</ele>
        <time>2023-09-09T10:43:28Z</time>
      </trkpt>
      <trkpt lat="46.274557644501328" lon="8.163221832364798">
        <ele>1936.8900000000001</ele>
        <time>2023-09-09T10:43:43Z</time>
      </trkpt>
      <trkpt lat="46.274654204025865" lon="8.163271201774478">
        <ele>1937.6800000000001</ele>
        <time>2023-09-09T10:43:56Z</time>
      </trkpt>
      <trkpt lat="46.27472628839314" lon="8.163393912836909">
        <ele>1938.46</ele>
        <time>2023-09-09T10:44:10Z</time>
      </trkpt>
      <trkpt lat="46.274832738563418" lon="8.163499105721712">
        <ele>1939.05</ele>
        <time>2023-09-09T10:44:25Z</time>
      </trkpt>
      <trkpt lat="46.274929298087955" lon="8.163575883954763">
        <ele>1939.5799999999999</ele>
        <time>2023-09-09T10:44:39Z</time>
      </trkpt>
      <trkpt lat="46.275024600327015" lon="8.16366707906127">
        <ele>1941.1099999999999</ele>
        <time>2023-09-09T10:44:54Z</time>
      </trkpt>
      <trkpt lat="46.27512794919312" lon="8.163676215335727">
        <ele>1941.51</ele>
        <time>2023-09-09T10:45:07Z</time>
      </trkpt>
      <trkpt lat="46.275245882570744" lon="8.163704378530383">
        <ele>1941.9200000000001</ele>
        <time>2023-09-09T10:45:21Z</time>
      </trkpt>
      <trkpt lat="46.275354344397783" lon="8.163720723241568">
        <ele>1941.6400000000001</ele>
        <time>2023-09-09T10:45:35Z</time>
      </trkpt>
      <trkpt lat="46.27542894333601" lon="8.163748048245907">
        <ele>1942.8</ele>
        <time>2023-09-09T10:45:46Z</time>
      </trkpt>
      <trkpt lat="46.275445204228163" lon="8.163750562816858">
        <ele>1942.52</ele>
        <time>2023-09-09T10:45:48Z</time>
      </trkpt>
      <trkpt lat="46.275536986067891" lon="8.16376238130033">
        <ele>1943.01</ele>
        <time>2023-09-09T10:45:59Z</time>
      </trkpt>
      <trkpt lat="46.275609992444515" lon="8.163769170641899">
        <ele>1943.72</ele>
        <time>2023-09-09T10:46:08Z</time>
      </trkpt>
      <trkpt lat="46.275691632181406" lon="8.163790293037891">
        <ele>1944.6099999999999</ele>
        <time>2023-09-09T10:46:20Z</time>
      </trkpt>
      <trkpt lat="46.275753909721971" lon="8.163823066279292">
        <ele>1945.26</ele>
        <time>2023-09-09T10:46:31Z</time>
      </trkpt>
      <trkpt lat="46.275856839492917" lon="8.163867155089974">
        <ele>1946.3099999999999</ele>
        <time>2023-09-09T10:46:45Z</time>
      </trkpt>
      <trkpt lat="46.275944598019123" lon="8.16392314620316">
        <ele>1947.03</ele>
        <time>2023-09-09T10:46:58Z</time>
      </trkpt>
      <trkpt lat="46.276031769812107" lon="8.163950303569436">
        <ele>1947.77</ele>
        <time>2023-09-09T10:47:11Z</time>
      </trkpt>
      <trkpt lat="46.276114415377378" lon="8.163979724049568">
        <ele>1948.6800000000001</ele>
        <time>2023-09-09T10:47:23Z</time>
      </trkpt>
      <trkpt lat="46.276232181116939" lon="8.164021549746394">
        <ele>1949.75</ele>
        <time>2023-09-09T10:47:38Z</time>
      </trkpt>
      <trkpt lat="46.27627962268889" lon="8.164033954963088">
        <ele>1950.1900000000001</ele>
        <time>2023-09-09T10:47:52Z</time>
      </trkpt>
      <trkpt lat="46.27629722468555" lon="8.164050802588463">
        <ele>1950.1700000000001</ele>
        <time>2023-09-09T10:48:06Z</time>
      </trkpt>
      <trkpt lat="46.276321867480874" lon="8.164067901670933">
        <ele>1950.0899999999999</ele>
        <time>2023-09-09T10:48:09Z</time>
      </trkpt>
      <trkpt lat="46.276353467255831" lon="8.164090616628528">
        <ele>1950.4000000000001</ele>
        <time>2023-09-09T10:48:13Z</time>
      </trkpt>
      <trkpt lat="46.276385905221105" lon="8.164111906662583">
        <ele>1950.8099999999999</ele>
        <time>2023-09-09T10:48:17Z</time>
      </trkpt>
      <trkpt lat="46.276498809456825" lon="8.164188181981444">
        <ele>1951.1500000000001</ele>
        <time>2023-09-09T10:48:30Z</time>
      </trkpt>
      <trkpt lat="46.276602493599057" lon="8.164262361824513">
        <ele>1951.79</ele>
        <time>2023-09-09T10:48:42Z</time>
      </trkpt>
      <trkpt lat="46.276743728667498" lon="8.164356155321002">
        <ele>1952.5999999999999</ele>
        <time>2023-09-09T10:48:58Z</time>
      </trkpt>
      <trkpt lat="46.276792762801051" lon="8.164247777312994">
        <ele>1953.3900000000001</ele>
        <time>2023-09-09T10:49:10Z</time>
      </trkpt>
      <trkpt lat="46.276802569627762" lon="8.164119450375438">
        <ele>1955.25</ele>
        <time>2023-09-09T10:49:23Z</time>
      </trkpt>
      <trkpt lat="46.276839198544621" lon="8.164010820910335">
        <ele>1957.6400000000001</ele>
        <time>2023-09-09T10:49:36Z</time>
      </trkpt>
      <trkpt lat="46.276834169402719" lon="8.163887774571776">
        <ele>1958.8699999999999</ele>
        <time>2023-09-09T10:49:48Z</time>
      </trkpt>
      <trkpt lat="46.276832660660148" lon="8.163767578080297">
        <ele>1959.6800000000001</ele>
        <time>2023-09-09T10:50:00Z</time>
      </trkpt>
      <trkpt lat="46.276820590719581" lon="8.163689123466611">
        <ele>1960.8499999999999</ele>
        <time>2023-09-09T10:50:10Z</time>
      </trkpt>
      <trkpt lat="46.276815310120583" lon="8.163577308878303">
        <ele>1961.48</ele>
        <time>2023-09-09T10:50:21Z</time>
      </trkpt>
      <trkpt lat="46.276840958744287" lon="8.163468930870295">
        <ele>1961.48</ele>
        <time>2023-09-09T10:50:33Z</time>
      </trkpt>
      <trkpt lat="46.276868786662817" lon="8.163369186222553">
        <ele>1962.5799999999999</ele>
        <time>2023-09-09T10:50:44Z</time>
      </trkpt>
      <trkpt lat="46.276897704228759" lon="8.163249241188169">
        <ele>1963.6900000000001</ele>
        <time>2023-09-09T10:50:57Z</time>
      </trkpt>
      <trkpt lat="46.276973141357303" lon="8.16330011934042">
        <ele>1964.3599999999999</ele>
        <time>2023-09-09T10:51:08Z</time>
      </trkpt>
      <trkpt lat="46.277028461918235" lon="8.163370694965124">
        <ele>1965.95</ele>
        <time>2023-09-09T10:51:20Z</time>
      </trkpt>
      <trkpt lat="46.277076825499535" lon="8.163458788767457">
        <ele>1967.4100000000001</ele>
        <time>2023-09-09T10:51:32Z</time>
      </trkpt>
      <trkpt lat="46.277120830491185" lon="8.163560293614864">
        <ele>1968.78</ele>
        <time>2023-09-09T10:51:44Z</time>
      </trkpt>
      <trkpt lat="46.277216216549277" lon="8.16365827806294">
        <ele>1969.54</ele>
        <time>2023-09-09T10:51:59Z</time>
      </trkpt>
      <trkpt lat="46.277271118015051" lon="8.16381954587996">
        <ele>1969.6800000000001</ele>
        <time>2023-09-09T10:52:12Z</time>
      </trkpt>
      <trkpt lat="46.277325768023729" lon="8.163972347974777">
        <ele>1970.73</ele>
        <time>2023-09-09T10:52:25Z</time>
      </trkpt>
      <trkpt lat="46.277416711673141" lon="8.164032362401485">
        <ele>1972.29</ele>
        <time>2023-09-09T10:52:38Z</time>
      </trkpt>
      <trkpt lat="46.277528861537576" lon="8.164025908336043">
        <ele>1974.29</ele>
        <time>2023-09-09T10:52:53Z</time>
      </trkpt>
      <trkpt lat="46.277565658092499" lon="8.163996487855911">
        <ele>1974.25</ele>
        <time>2023-09-09T10:53:07Z</time>
      </trkpt>
      <trkpt lat="46.27758133225143" lon="8.163962122052908">
        <ele>1973.9100000000001</ele>
        <time>2023-09-09T10:53:11Z</time>
      </trkpt>
      <trkpt lat="46.27763413824141" lon="8.163778726011515">
        <ele>1975.1600000000001</ele>
        <time>2023-09-09T10:53:27Z</time>
      </trkpt>
      <trkpt lat="46.277656937018037" lon="8.16363581456244">
        <ele>1977.1300000000001</ele>
        <time>2023-09-09T10:53:40Z</time>
      </trkpt>
      <trkpt lat="46.277697673067451" lon="8.163618128746748">
        <ele>1978.1900000000001</ele>
        <time>2023-09-09T10:53:51Z</time>
      </trkpt>
      <trkpt lat="46.277726087719202" lon="8.163596587255597">
        <ele>1978.6700000000001</ele>
        <time>2023-09-09T10:54:08Z</time>
      </trkpt>
      <trkpt lat="46.277753412723541" lon="8.16357278265059">
        <ele>1981.0599999999999</ele>
        <time>2023-09-09T10:54:20Z</time>
      </trkpt>
      <trkpt lat="46.277761962264776" lon="8.163588205352426">
        <ele>1977.96</ele>
        <time>2023-09-09T10:54:31Z</time>
      </trkpt>
      <trkpt lat="46.27777143381536" lon="8.163580996915698">
        <ele>1979.1700000000001</ele>
        <time>2023-09-09T10:55:03Z</time>
      </trkpt>
      <trkpt lat="46.277772942557931" lon="8.163576470687985">
        <ele>1979.51</ele>
        <time>2023-09-09T10:55:26Z</time>
      </trkpt>
      <trkpt lat="46.277813678607345" lon="8.16367395222187">
        <ele>1979.4400000000001</ele>
        <time>2023-09-09T10:55:39Z</time>
      </trkpt>
      <trkpt lat="46.277805464342237" lon="8.16368468105793">
        <ele>1980.8599999999999</ele>
        <time>2023-09-09T10:55:45Z</time>
      </trkpt>
      <trkpt lat="46.277873609215021" lon="8.163769422098994">
        <ele>1982.27</ele>
        <time>2023-09-09T10:55:58Z</time>
      </trkpt>
      <trkpt lat="46.277945609763265" lon="8.163830861449242">
        <ele>1984.24</ele>
        <time>2023-09-09T10:56:11Z</time>
      </trkpt>
      <trkpt lat="46.277990033850074" lon="8.163897078484297">
        <ele>1985.74</ele>
        <time>2023-09-09T10:56:22Z</time>
      </trkpt>
      <trkpt lat="46.278046611696482" lon="8.163972180336714">
        <ele>1987.23</ele>
        <time>2023-09-09T10:56:33Z</time>
      </trkpt>
      <trkpt lat="46.278087263926864" lon="8.164078379049897">
        <ele>1989.1300000000001</ele>
        <time>2023-09-09T10:56:47Z</time>
      </trkpt>
      <trkpt lat="46.278157671913505" lon="8.164155492559075">
        <ele>1990.8599999999999</ele>
        <time>2023-09-09T10:56:59Z</time>
      </trkpt>
      <trkpt lat="46.27821559086442" lon="8.164251716807485">
        <ele>1992.3399999999999</ele>
        <time>2023-09-09T10:57:12Z</time>
      </trkpt>
      <trkpt lat="46.278283400461078" lon="8.164371410384774">
        <ele>1993.3499999999999</ele>
        <time>2023-09-09T10:57:26Z</time>
      </trkpt>
      <trkpt lat="46.278350371867418" lon="8.164486158639193">
        <ele>1994.4400000000001</ele>
        <time>2023-09-09T10:57:40Z</time>
      </trkpt>
      <trkpt lat="46.278402926400304" lon="8.164578443393111">
        <ele>1995.3099999999999</ele>
        <time>2023-09-09T10:57:51Z</time>
      </trkpt>
      <trkpt lat="46.278428910300136" lon="8.164724623784423">
        <ele>1997.8099999999999</ele>
        <time>2023-09-09T10:58:07Z</time>
      </trkpt>
      <trkpt lat="46.278462940827012" lon="8.164835097268224">
        <ele>2000.0699999999999</ele>
        <time>2023-09-09T10:58:20Z</time>
      </trkpt>
      <trkpt lat="46.278491606935859" lon="8.164945067837834">
        <ele>2001.6700000000001</ele>
        <time>2023-09-09T10:58:33Z</time>
      </trkpt>
      <trkpt lat="46.278509963303804" lon="8.16504648886621">
        <ele>2002.77</ele>
        <time>2023-09-09T10:58:44Z</time>
      </trkpt>
      <trkpt lat="46.278514740988612" lon="8.165149921551347">
        <ele>2004.05</ele>
        <time>2023-09-09T10:58:55Z</time>
      </trkpt>
      <trkpt lat="46.278545837849379" lon="8.165253773331642">
        <ele>2005.3</ele>
        <time>2023-09-09T10:59:06Z</time>
      </trkpt>
      <trkpt lat="46.278577940538526" lon="8.165358966216445">
        <ele>2006.26</ele>
        <time>2023-09-09T10:59:17Z</time>
      </trkpt>
      <trkpt lat="46.278615659102798" lon="8.165449993684888">
        <ele>2007.5</ele>
        <time>2023-09-09T10:59:28Z</time>
      </trkpt>
      <trkpt lat="46.278658825904131" lon="8.165569519624114">
        <ele>2008.8</ele>
        <time>2023-09-09T10:59:40Z</time>
      </trkpt>
      <trkpt lat="46.278689755126834" lon="8.165646130219102">
        <ele>2009.49</ele>
        <time>2023-09-09T10:59:49Z</time>
      </trkpt>
      <trkpt lat="46.278728479519486" lon="8.165758112445474">
        <ele>2010.4400000000001</ele>
        <time>2023-09-09T11:00:00Z</time>
      </trkpt>
      <trkpt lat="46.278760079294443" lon="8.165873028337956">
        <ele>2011.51</ele>
        <time>2023-09-09T11:00:12Z</time>
      </trkpt>
      <trkpt lat="46.278808945789933" lon="8.165938323363662">
        <ele>2012.99</ele>
        <time>2023-09-09T11:00:23Z</time>
      </trkpt>
      <trkpt lat="46.27884297631681" lon="8.166010575369">
        <ele>2014.6099999999999</ele>
        <time>2023-09-09T11:00:34Z</time>
      </trkpt>
      <trkpt lat="46.278892597183585" lon="8.166091125458479">
        <ele>2016.1900000000001</ele>
        <time>2023-09-09T11:00:46Z</time>
      </trkpt>
      <trkpt lat="46.278948253020644" lon="8.166179051622748">
        <ele>2017.6600000000001</ele>
        <time>2023-09-09T11:01:00Z</time>
      </trkpt>
      <trkpt lat="46.278994185850024" lon="8.166259601712227">
        <ele>2020.1700000000001</ele>
        <time>2023-09-09T11:01:12Z</time>
      </trkpt>
      <trkpt lat="46.279046488925815" lon="8.166338643059135">
        <ele>2022.1300000000001</ele>
        <time>2023-09-09T11:01:28Z</time>
      </trkpt>
      <trkpt lat="46.279108598828316" lon="8.166393376886845">
        <ele>2023.3900000000001</ele>
        <time>2023-09-09T11:01:39Z</time>
      </trkpt>
      <trkpt lat="46.279174229130149" lon="8.166473256424069">
        <ele>2024.0599999999999</ele>
        <time>2023-09-09T11:01:50Z</time>
      </trkpt>
      <trkpt lat="46.279236255213618" lon="8.166528241708875">
        <ele>2025.1600000000001</ele>
        <time>2023-09-09T11:02:02Z</time>
      </trkpt>
      <trkpt lat="46.279255617409945" lon="8.166540060192347">
        <ele>2025.3800000000001</ele>
        <time>2023-09-09T11:02:05Z</time>
      </trkpt>
      <trkpt lat="46.279318146407604" lon="8.166656652465463">
        <ele>2025.46</ele>
        <time>2023-09-09T11:02:17Z</time>
      </trkpt>
      <trkpt lat="46.279355697333813" lon="8.166757822036743">
        <ele>2026.4300000000001</ele>
        <time>2023-09-09T11:02:29Z</time>
      </trkpt>
      <trkpt lat="46.279366090893745" lon="8.166863434016705">
        <ele>2028.1900000000001</ele>
        <time>2023-09-09T11:02:42Z</time>
      </trkpt>
      <trkpt lat="46.279367599636316" lon="8.166942307725549">
        <ele>2029.99</ele>
        <time>2023-09-09T11:02:56Z</time>
      </trkpt>
      <trkpt lat="46.279347315430641" lon="8.16698145121336">
        <ele>2031.5</ele>
        <time>2023-09-09T11:03:06Z</time>
      </trkpt>
      <trkpt lat="46.27934237010777" lon="8.167057810351253">
        <ele>2032.29</ele>
        <time>2023-09-09T11:03:21Z</time>
      </trkpt>
      <trkpt lat="46.279356451705098" lon="8.167141629382968">
        <ele>2032.9400000000001</ele>
        <time>2023-09-09T11:03:35Z</time>
      </trkpt>
      <trkpt lat="46.2793805077672" lon="8.167245900258422">
        <ele>2035</ele>
        <time>2023-09-09T11:03:48Z</time>
      </trkpt>
      <trkpt lat="46.279394002631307" lon="8.167397528886795">
        <ele>2035.77</ele>
        <time>2023-09-09T11:04:01Z</time>
      </trkpt>
      <trkpt lat="46.279374472796917" lon="8.167530968785286">
        <ele>2038.21</ele>
        <time>2023-09-09T11:04:17Z</time>
      </trkpt>
      <trkpt lat="46.279399115592241" lon="8.167625097557902">
        <ele>2038.3299999999999</ele>
        <time>2023-09-09T11:04:27Z</time>
      </trkpt>
      <trkpt lat="46.279423758387566" lon="8.167714951559901">
        <ele>2038.28</ele>
        <time>2023-09-09T11:04:35Z</time>
      </trkpt>
      <trkpt lat="46.279442617669702" lon="8.16786683164537">
        <ele>2038.6500000000001</ele>
        <time>2023-09-09T11:04:47Z</time>
      </trkpt>
      <trkpt lat="46.279467679560184" lon="8.167969258502126">
        <ele>2039.5899999999999</ele>
        <time>2023-09-09T11:04:59Z</time>
      </trkpt>
      <trkpt lat="46.279472205787897" lon="8.167980657890439">
        <ele>2039.51</ele>
        <time>2023-09-09T11:05:00Z</time>
      </trkpt>
      <trkpt lat="46.279501123353839" lon="8.168116696178913">
        <ele>2039.1099999999999</ele>
        <time>2023-09-09T11:05:13Z</time>
      </trkpt>
      <trkpt lat="46.279534148052335" lon="8.168155923485756">
        <ele>2038.6600000000001</ele>
        <time>2023-09-09T11:05:18Z</time>
      </trkpt>
      <trkpt lat="46.279593156650662" lon="8.168291877955198">
        <ele>2038.74</ele>
        <time>2023-09-09T11:05:32Z</time>
      </trkpt>
      <trkpt lat="46.279598018154502" lon="8.168300930410624">
        <ele>2038.9300000000001</ele>
        <time>2023-09-09T11:05:33Z</time>
      </trkpt>
      <trkpt lat="46.279651997610927" lon="8.168449038639665">
        <ele>2039.27</ele>
        <time>2023-09-09T11:05:46Z</time>
      </trkpt>
      <trkpt lat="46.279664151370525" lon="8.16857242025435">
        <ele>2041.25</ele>
        <time>2023-09-09T11:06:00Z</time>
      </trkpt>
      <trkpt lat="46.279669515788555" lon="8.1685870885849">
        <ele>2041.3</ele>
        <time>2023-09-09T11:06:18Z</time>
      </trkpt>
      <trkpt lat="46.279677897691727" lon="8.168635284528136">
        <ele>2041.51</ele>
        <time>2023-09-09T11:06:22Z</time>
      </trkpt>
      <trkpt lat="46.279712934046984" lon="8.1687615159899">
        <ele>2041.9000000000001</ele>
        <time>2023-09-09T11:06:32Z</time>
      </trkpt>
      <trkpt lat="46.279735481366515" lon="8.168872995302081">
        <ele>2042.6700000000001</ele>
        <time>2023-09-09T11:06:42Z</time>
      </trkpt>
      <trkpt lat="46.279747132211924" lon="8.168921107426286">
        <ele>2043.7</ele>
        <time>2023-09-09T11:06:49Z</time>
      </trkpt>
      <trkpt lat="46.279750652611256" lon="8.168988497927785">
        <ele>2043.8900000000001</ele>
        <time>2023-09-09T11:06:54Z</time>
      </trkpt>
      <trkpt lat="46.279804296791553" lon="8.169208187609911">
        <ele>2044.03</ele>
        <time>2023-09-09T11:07:10Z</time>
      </trkpt>
      <trkpt lat="46.279834639281034" lon="8.169337268918753">
        <ele>2044.6199999999999</ele>
        <time>2023-09-09T11:07:20Z</time>
      </trkpt>
      <trkpt lat="46.279841680079699" lon="8.169458387419581">
        <ele>2044.9100000000001</ele>
        <time>2023-09-09T11:07:30Z</time>
      </trkpt>
      <trkpt lat="46.279847463592887" lon="8.169495267793536">
        <ele>2045.27</ele>
        <time>2023-09-09T11:07:33Z</time>
      </trkpt>
      <trkpt lat="46.279892222955823" lon="8.169651506468654">
        <ele>2045.71</ele>
        <time>2023-09-09T11:07:46Z</time>
      </trkpt>
      <trkpt lat="46.279954081401229" lon="8.169787041842938">
        <ele>2046.4200000000001</ele>
        <time>2023-09-09T11:07:59Z</time>
      </trkpt>
      <trkpt lat="46.280011832714081" lon="8.169937077909708">
        <ele>2047.1099999999999</ele>
        <time>2023-09-09T11:08:13Z</time>
      </trkpt>
      <trkpt lat="46.280110403895378" lon="8.17001435905695">
        <ele>2047.3599999999999</ele>
        <time>2023-09-09T11:08:26Z</time>
      </trkpt>
      <trkpt lat="46.280174944549799" lon="8.170024752616882">
        <ele>2047.76</ele>
        <time>2023-09-09T11:08:34Z</time>
      </trkpt>
      <trkpt lat="46.280224230140448" lon="8.170093903318048">
        <ele>2048.9099999999999</ele>
        <time>2023-09-09T11:08:43Z</time>
      </trkpt>
      <trkpt lat="46.280241329222918" lon="8.170168083161116">
        <ele>2048.9400000000001</ele>
        <time>2023-09-09T11:08:55Z</time>
      </trkpt>
      <trkpt lat="46.280240910127759" lon="8.170202448964119">
        <ele>2048.9000000000001</ele>
        <time>2023-09-09T11:09:10Z</time>
      </trkpt>
      <trkpt lat="46.280255913734436" lon="8.170366734266281">
        <ele>2049.1399999999999</ele>
        <time>2023-09-09T11:09:21Z</time>
      </trkpt>
      <trkpt lat="46.280262283980846" lon="8.170395903289318">
        <ele>2049.1599999999999</ele>
        <time>2023-09-09T11:09:23Z</time>
      </trkpt>
      <trkpt lat="46.280301092192531" lon="8.170549208298326">
        <ele>2049.6300000000001</ele>
        <time>2023-09-09T11:09:34Z</time>
      </trkpt>
      <trkpt lat="46.280338391661644" lon="8.170679463073611">
        <ele>2050.0799999999999</ele>
        <time>2023-09-09T11:09:44Z</time>
      </trkpt>
      <trkpt lat="46.280343672260642" lon="8.170707542449236">
        <ele>2049.9400000000001</ele>
        <time>2023-09-09T11:09:46Z</time>
      </trkpt>
      <trkpt lat="46.280371583998203" lon="8.170809717848897">
        <ele>2050.23</ele>
        <time>2023-09-09T11:09:53Z</time>
      </trkpt>
      <trkpt lat="46.280396226793528" lon="8.171016750857234">
        <ele>2049.8499999999999</ele>
        <time>2023-09-09T11:10:07Z</time>
      </trkpt>
      <trkpt lat="46.280426066368818" lon="8.171109538525343">
        <ele>2049.9899999999998</ele>
        <time>2023-09-09T11:10:14Z</time>
      </trkpt>
      <trkpt lat="46.280435118824244" lon="8.171149101108313">
        <ele>2049.98</ele>
        <time>2023-09-09T11:10:17Z</time>
      </trkpt>
      <trkpt lat="46.280439561232924" lon="8.171368790790439">
        <ele>2050.0100000000002</ele>
        <time>2023-09-09T11:10:31Z</time>
      </trkpt>
      <trkpt lat="46.280454900115728" lon="8.171470044180751">
        <ele>2049.6399999999999</ele>
        <time>2023-09-09T11:10:38Z</time>
      </trkpt>
      <trkpt lat="46.280450373888016" lon="8.171546990051866">
        <ele>2050</ele>
        <time>2023-09-09T11:10:44Z</time>
      </trkpt>
      <trkpt lat="46.280459007248282" lon="8.171656122431159">
        <ele>2050.1199999999999</ele>
        <time>2023-09-09T11:10:52Z</time>
      </trkpt>
      <trkpt lat="46.280489098280668" lon="8.171799536794424">
        <ele>2050.3400000000001</ele>
        <time>2023-09-09T11:11:04Z</time>
      </trkpt>
      <trkpt lat="46.280535031110048" lon="8.171953009441495">
        <ele>2051.5500000000002</ele>
        <time>2023-09-09T11:11:18Z</time>
      </trkpt>
      <trkpt lat="46.280563781037927" lon="8.172094747424126">
        <ele>2051.6100000000001</ele>
        <time>2023-09-09T11:11:30Z</time>
      </trkpt>
      <trkpt lat="46.280554728582501" lon="8.172238497063518">
        <ele>2051.77</ele>
        <time>2023-09-09T11:11:42Z</time>
      </trkpt>
      <trkpt lat="46.280575599521399" lon="8.17235148511827">
        <ele>2051.9400000000001</ele>
        <time>2023-09-09T11:11:54Z</time>
      </trkpt>
      <trkpt lat="46.280590100213885" lon="8.17237495444715">
        <ele>2051.73</ele>
        <time>2023-09-09T11:11:56Z</time>
      </trkpt>
      <trkpt lat="46.280613066628575" lon="8.172421641647816">
        <ele>2050.4200000000001</ele>
        <time>2023-09-09T11:15:51Z</time>
      </trkpt>
      <trkpt lat="46.280614826828241" lon="8.172459024935961">
        <ele>2051.5500000000002</ele>
        <time>2023-09-09T11:18:41Z</time>
      </trkpt>
      <trkpt lat="46.280591692775488" lon="8.172612581402063">
        <ele>2051.2199999999998</ele>
        <time>2023-09-09T11:18:54Z</time>
      </trkpt>
      <trkpt lat="46.280573168769479" lon="8.172682989388704">
        <ele>2051.4299999999998</ele>
        <time>2023-09-09T11:18:58Z</time>
      </trkpt>
      <trkpt lat="46.280541149899364" lon="8.172849286347628">
        <ele>2050.8299999999999</ele>
        <time>2023-09-09T11:19:10Z</time>
      </trkpt>
      <trkpt lat="46.280514076352119" lon="8.173040729016066">
        <ele>2051.5100000000002</ele>
        <time>2023-09-09T11:19:24Z</time>
      </trkpt>
      <trkpt lat="46.280504269525409" lon="8.173231165856123">
        <ele>2052.2800000000002</ele>
        <time>2023-09-09T11:19:37Z</time>
      </trkpt>
      <trkpt lat="46.280509550124407" lon="8.173276260495186">
        <ele>2052.7800000000002</ele>
        <time>2023-09-09T11:19:41Z</time>
      </trkpt>
      <trkpt lat="46.280521871522069" lon="8.173422524705529">
        <ele>2053.5799999999999</ele>
        <time>2023-09-09T11:19:53Z</time>
      </trkpt>
      <trkpt lat="46.280523464083672" lon="8.17343526519835">
        <ele>2053.5300000000002</ele>
        <time>2023-09-09T11:19:54Z</time>
      </trkpt>
      <trkpt lat="46.280519524589181" lon="8.173609524965286">
        <ele>2054.3299999999999</ele>
        <time>2023-09-09T11:20:07Z</time>
      </trkpt>
      <trkpt lat="46.280571408569813" lon="8.173781186342239">
        <ele>2054.5999999999999</ele>
        <time>2023-09-09T11:20:21Z</time>
      </trkpt>
      <trkpt lat="46.280586831271648" lon="8.173813372850418">
        <ele>2054.7399999999998</ele>
        <time>2023-09-09T11:20:36Z</time>
      </trkpt>
      <trkpt lat="46.280585154891014" lon="8.173847151920199">
        <ele>2054.8899999999999</ele>
        <time>2023-09-09T11:20:39Z</time>
      </trkpt>
      <trkpt lat="46.280574593693018" lon="8.173943124711514">
        <ele>2055.23</ele>
        <time>2023-09-09T11:20:46Z</time>
      </trkpt>
      <trkpt lat="46.280575767159462" lon="8.174017807468772">
        <ele>2055.3499999999999</ele>
        <time>2023-09-09T11:20:51Z</time>
      </trkpt>
      <trkpt lat="46.280562859028578" lon="8.174063572660089">
        <ele>2055.4400000000001</ele>
        <time>2023-09-09T11:20:54Z</time>
      </trkpt>
      <trkpt lat="46.280566044151783" lon="8.174254596233368">
        <ele>2056.52</ele>
        <time>2023-09-09T11:21:08Z</time>
      </trkpt>
      <trkpt lat="46.280572079122066" lon="8.174334308132529">
        <ele>2057.3400000000001</ele>
        <time>2023-09-09T11:21:14Z</time>
      </trkpt>
      <trkpt lat="46.280590770766139" lon="8.174404129385948">
        <ele>2057.4099999999999</ele>
        <time>2023-09-09T11:21:19Z</time>
      </trkpt>
      <trkpt lat="46.280602756887674" lon="8.174491384997964">
        <ele>2057.77</ele>
        <time>2023-09-09T11:21:25Z</time>
      </trkpt>
      <trkpt lat="46.280608037486672" lon="8.174564223736525">
        <ele>2057.5799999999999</ele>
        <time>2023-09-09T11:21:30Z</time>
      </trkpt>
      <trkpt lat="46.280617089942098" lon="8.174742674455047">
        <ele>2058.3400000000001</ele>
        <time>2023-09-09T11:21:43Z</time>
      </trkpt>
      <trkpt lat="46.280619855970144" lon="8.174756420776248">
        <ele>2058.5300000000002</ele>
        <time>2023-09-09T11:21:44Z</time>
      </trkpt>
      <trkpt lat="46.280641984194517" lon="8.174818782135844">
        <ele>2058.9200000000001</ele>
        <time>2023-09-09T11:21:49Z</time>
      </trkpt>
      <trkpt lat="46.280639637261629" lon="8.174897320568562">
        <ele>2058.8699999999999</ele>
        <time>2023-09-09T11:21:54Z</time>
      </trkpt>
      <trkpt lat="46.280612060800195" lon="8.175056325271726">
        <ele>2059.71</ele>
        <time>2023-09-09T11:22:05Z</time>
      </trkpt>
      <trkpt lat="46.28059328533709" lon="8.175205942243338">
        <ele>2060.5599999999999</ele>
        <time>2023-09-09T11:22:17Z</time>
      </trkpt>
      <trkpt lat="46.280587837100029" lon="8.175261933356524">
        <ele>2060.8699999999999</ele>
        <time>2023-09-09T11:22:21Z</time>
      </trkpt>
      <trkpt lat="46.280573755502701" lon="8.17542253062129">
        <ele>2061.48</ele>
        <time>2023-09-09T11:22:32Z</time>
      </trkpt>
      <trkpt lat="46.280579371377826" lon="8.175434097647667">
        <ele>2061.5799999999999</ele>
        <time>2023-09-09T11:22:33Z</time>
      </trkpt>
      <trkpt lat="46.280604181811213" lon="8.175534345209599">
        <ele>2061.9899999999998</ele>
        <time>2023-09-09T11:22:40Z</time>
      </trkpt>
      <trkpt lat="46.280638799071312" lon="8.17571816034615">
        <ele>2062.46</ele>
        <time>2023-09-09T11:22:53Z</time>
      </trkpt>
      <trkpt lat="46.280679199844599" lon="8.17594388499856">
        <ele>2063.2800000000002</ele>
        <time>2023-09-09T11:23:09Z</time>
      </trkpt>
      <trkpt lat="46.280679451301694" lon="8.176119485870004">
        <ele>2063.71</ele>
        <time>2023-09-09T11:23:21Z</time>
      </trkpt>
      <trkpt lat="46.280691772699356" lon="8.176158294081688">
        <ele>2063.6399999999999</ele>
        <time>2023-09-09T11:23:24Z</time>
      </trkpt>
      <trkpt lat="46.280737537890673" lon="8.176300786435604">
        <ele>2064.27</ele>
        <time>2023-09-09T11:23:35Z</time>
      </trkpt>
      <trkpt lat="46.280741561204195" lon="8.176324842497706">
        <ele>2064.23</ele>
        <time>2023-09-09T11:23:37Z</time>
      </trkpt>
      <trkpt lat="46.280729072168469" lon="8.176392149180174">
        <ele>2064.73</ele>
        <time>2023-09-09T11:23:42Z</time>
      </trkpt>
      <trkpt lat="46.280731838196516" lon="8.176467083394527">
        <ele>2064.6799999999998</ele>
        <time>2023-09-09T11:23:47Z</time>
      </trkpt>
      <trkpt lat="46.280725216493011" lon="8.176526427268982">
        <ele>2065.3600000000001</ele>
        <time>2023-09-09T11:23:52Z</time>
      </trkpt>
      <trkpt lat="46.280725467950106" lon="8.176675876602531">
        <ele>2066.2199999999998</ele>
        <time>2023-09-09T11:24:03Z</time>
      </trkpt>
      <trkpt lat="46.280728066340089" lon="8.176836809143424">
        <ele>2066.7600000000002</ele>
        <time>2023-09-09T11:24:15Z</time>
      </trkpt>
      <trkpt lat="46.280727060511708" lon="8.176847789436579">
        <ele>2066.8800000000001</ele>
        <time>2023-09-09T11:24:16Z</time>
      </trkpt>
      <trkpt lat="46.280717924237251" lon="8.176916772499681">
        <ele>2066.9200000000001</ele>
        <time>2023-09-09T11:24:21Z</time>
      </trkpt>
      <trkpt lat="46.280682049691677" lon="8.17712489515543">
        <ele>2067.6199999999999</ele>
        <time>2023-09-09T11:24:37Z</time>
      </trkpt>
      <trkpt lat="46.280669141560793" lon="8.177144676446915">
        <ele>2068.0799999999999</ele>
        <time>2023-09-09T11:24:39Z</time>
      </trkpt>
      <trkpt lat="46.280647683888674" lon="8.177174683660269">
        <ele>2068.7199999999998</ele>
        <time>2023-09-09T11:24:42Z</time>
      </trkpt>
      <trkpt lat="46.280595129355788" lon="8.177298987284303">
        <ele>2068.8400000000001</ele>
        <time>2023-09-09T11:24:53Z</time>
      </trkpt>
      <trkpt lat="46.280571576207876" lon="8.177424380555749">
        <ele>2068.9400000000001</ele>
        <time>2023-09-09T11:25:03Z</time>
      </trkpt>
      <trkpt lat="46.280559925362468" lon="8.177474336698651">
        <ele>2069</ele>
        <time>2023-09-09T11:25:07Z</time>
      </trkpt>
      <trkpt lat="46.28056445159018" lon="8.17751725204289">
        <ele>2069.0500000000002</ele>
        <time>2023-09-09T11:25:10Z</time>
      </trkpt>
      <trkpt lat="46.280535701662302" lon="8.17765555344522">
        <ele>2069.1900000000001</ele>
        <time>2023-09-09T11:25:19Z</time>
      </trkpt>
      <trkpt lat="46.280491529032588" lon="8.177852109074593">
        <ele>2069.0500000000002</ele>
        <time>2023-09-09T11:25:33Z</time>
      </trkpt>
      <trkpt lat="46.28048281185329" lon="8.178025698289275">
        <ele>2069.6399999999999</ele>
        <time>2023-09-09T11:25:45Z</time>
      </trkpt>
      <trkpt lat="46.280479542911053" lon="8.178071798756719">
        <ele>2069.48</ele>
        <time>2023-09-09T11:25:48Z</time>
      </trkpt>
      <trkpt lat="46.280449032783508" lon="8.178134998306632">
        <ele>2069.98</ele>
        <time>2023-09-09T11:25:54Z</time>
      </trkpt>
      <trkpt lat="46.280437298119068" lon="8.178292578086257">
        <ele>2069.96</ele>
        <time>2023-09-09T11:26:04Z</time>
      </trkpt>
      <trkpt lat="46.280440147966146" lon="8.178489217534661">
        <ele>2070.3000000000002</ele>
        <time>2023-09-09T11:26:16Z</time>
      </trkpt>
      <trkpt lat="46.280429251492023" lon="8.178649814799428">
        <ele>2071.1799999999998</ele>
        <time>2023-09-09T11:26:28Z</time>
      </trkpt>
      <trkpt lat="46.280421875417233" lon="8.178782416507602">
        <ele>2071.8400000000001</ele>
        <time>2023-09-09T11:26:38Z</time>
      </trkpt>
      <trkpt lat="46.280447104945779" lon="8.178949216380715">
        <ele>2071.4899999999998</ele>
        <time>2023-09-09T11:26:49Z</time>
      </trkpt>
      <trkpt lat="46.28045691177249" lon="8.179092044010758">
        <ele>2070.9499999999998</ele>
        <time>2023-09-09T11:26:58Z</time>
      </trkpt>
      <trkpt lat="46.280434532091022" lon="8.179172091186047">
        <ele>2070.96</ele>
        <time>2023-09-09T11:27:05Z</time>
      </trkpt>
      <trkpt lat="46.280384911224246" lon="8.179262112826109">
        <ele>2071.5100000000002</ele>
        <time>2023-09-09T11:27:15Z</time>
      </trkpt>
      <trkpt lat="46.28036362119019" lon="8.179397899657488">
        <ele>2072.9099999999999</ele>
        <time>2023-09-09T11:27:27Z</time>
      </trkpt>
      <trkpt lat="46.280333697795868" lon="8.17947618663311">
        <ele>2073.6199999999999</ele>
        <time>2023-09-09T11:27:35Z</time>
      </trkpt>
      <trkpt lat="46.280277036130428" lon="8.179575763642788">
        <ele>2074.8699999999999</ele>
        <time>2023-09-09T11:27:47Z</time>
      </trkpt>
      <trkpt lat="46.280264630913734" lon="8.17963351495564">
        <ele>2075.6999999999998</ele>
        <time>2023-09-09T11:27:57Z</time>
      </trkpt>
      <trkpt lat="46.28024828620255" lon="8.179640052840114">
        <ele>2075.6599999999999</ele>
        <time>2023-09-09T11:28:15Z</time>
      </trkpt>
      <trkpt lat="46.280240910127759" lon="8.17972588352859">
        <ele>2076.8000000000002</ele>
        <time>2023-09-09T11:28:34Z</time>
      </trkpt>
      <trkpt lat="46.280253985896707" lon="8.179786233231425">
        <ele>2077.9000000000001</ele>
        <time>2023-09-09T11:28:40Z</time>
      </trkpt>
      <trkpt lat="46.280254824087024" lon="8.179892851039767">
        <ele>2079.2199999999998</ele>
        <time>2023-09-09T11:28:49Z</time>
      </trkpt>
      <trkpt lat="46.280284998938441" lon="8.17997558042407">
        <ele>2078.9400000000001</ele>
        <time>2023-09-09T11:28:56Z</time>
      </trkpt>
      <trkpt lat="46.280282903462648" lon="8.180097369477153">
        <ele>2080.2800000000002</ele>
        <time>2023-09-09T11:29:07Z</time>
      </trkpt>
      <trkpt lat="46.280274353921413" lon="8.18028244189918">
        <ele>2081.0700000000002</ele>
        <time>2023-09-09T11:29:21Z</time>
      </trkpt>
      <trkpt lat="46.280274856835604" lon="8.180409260094166">
        <ele>2082.02</ele>
        <time>2023-09-09T11:29:31Z</time>
      </trkpt>
      <trkpt lat="46.280268905684352" lon="8.180527193471789">
        <ele>2083.0500000000002</ele>
        <time>2023-09-09T11:29:42Z</time>
      </trkpt>
      <trkpt lat="46.280249878764153" lon="8.180647473782301">
        <ele>2083.8299999999999</ele>
        <time>2023-09-09T11:29:54Z</time>
      </trkpt>
      <trkpt lat="46.28023462370038" lon="8.18071243353188">
        <ele>2084.9000000000001</ele>
        <time>2023-09-09T11:30:02Z</time>
      </trkpt>
      <trkpt lat="46.280172765254974" lon="8.180782338604331">
        <ele>2087</ele>
        <time>2023-09-09T11:30:16Z</time>
      </trkpt>
      <trkpt lat="46.28012808971107" lon="8.180837742984295">
        <ele>2089.3299999999999</ele>
        <time>2023-09-09T11:30:30Z</time>
      </trkpt>
      <trkpt lat="46.280085258185863" lon="8.180922400206327">
        <ele>2090.2600000000002</ele>
        <time>2023-09-09T11:30:40Z</time>
      </trkpt>
      <trkpt lat="46.280029769986868" lon="8.180929524824023">
        <ele>2091.27</ele>
        <time>2023-09-09T11:30:50Z</time>
      </trkpt>
      <trkpt lat="46.279979143291712" lon="8.180900439620018">
        <ele>2092.9400000000001</ele>
        <time>2023-09-09T11:31:02Z</time>
      </trkpt>
      <trkpt lat="46.279921643435955" lon="8.180932458490133">
        <ele>2094.71</ele>
        <time>2023-09-09T11:31:16Z</time>
      </trkpt>
      <trkpt lat="46.279872274026275" lon="8.181006805971265">
        <ele>2096.48</ele>
        <time>2023-09-09T11:31:28Z</time>
      </trkpt>
      <trkpt lat="46.279834639281034" lon="8.181087020784617">
        <ele>2098.3699999999999</ele>
        <time>2023-09-09T11:31:39Z</time>
      </trkpt>
      <trkpt lat="46.279804464429617" lon="8.181148208677769">
        <ele>2100.3000000000002</ele>
        <time>2023-09-09T11:31:53Z</time>
      </trkpt>
      <trkpt lat="46.279777055606246" lon="8.181192800402641">
        <ele>2101.2600000000002</ele>
        <time>2023-09-09T11:32:16Z</time>
      </trkpt>
      <trkpt lat="46.279755681753159" lon="8.181289108470082">
        <ele>2104.3899999999999</ele>
        <time>2023-09-09T11:32:31Z</time>
      </trkpt>
      <trkpt lat="46.279715029522777" lon="8.181299502030015">
        <ele>2106.3800000000001</ele>
        <time>2023-09-09T11:32:45Z</time>
      </trkpt>
      <trkpt lat="46.279638921841979" lon="8.181373430415988">
        <ele>2108.2800000000002</ele>
        <time>2023-09-09T11:32:58Z</time>
      </trkpt>
      <trkpt lat="46.279622241854668" lon="8.181390278041363">
        <ele>2108.8400000000001</ele>
        <time>2023-09-09T11:33:00Z</time>
      </trkpt>
      <trkpt lat="46.279565244913101" lon="8.181463703513145">
        <ele>2110.48</ele>
        <time>2023-09-09T11:33:13Z</time>
      </trkpt>
      <trkpt lat="46.279560383409262" lon="8.181544169783592">
        <ele>2112.3000000000002</ele>
        <time>2023-09-09T11:33:27Z</time>
      </trkpt>
      <trkpt lat="46.279580248519778" lon="8.1816197745502">
        <ele>2114.3099999999999</ele>
        <time>2023-09-09T11:33:39Z</time>
      </trkpt>
      <trkpt lat="46.279631545767188" lon="8.181704012677074">
        <ele>2115.9200000000001</ele>
        <time>2023-09-09T11:33:53Z</time>
      </trkpt>
      <trkpt lat="46.279646465554833" lon="8.181750448420644">
        <ele>2116.6199999999999</ele>
        <time>2023-09-09T11:34:02Z</time>
      </trkpt>
      <trkpt lat="46.279660547152162" lon="8.181775007396936">
        <ele>2117.7399999999998</ele>
        <time>2023-09-09T11:34:12Z</time>
      </trkpt>
      <trkpt lat="46.279650907963514" lon="8.181871147826314">
        <ele>2119.8200000000002</ele>
        <time>2023-09-09T11:34:26Z</time>
      </trkpt>
      <trkpt lat="46.279695751145482" lon="8.181966030970216">
        <ele>2121.52</ele>
        <time>2023-09-09T11:34:40Z</time>
      </trkpt>
      <trkpt lat="46.279774708673358" lon="8.182033253833652">
        <ele>2123.0599999999999</ele>
        <time>2023-09-09T11:34:55Z</time>
      </trkpt>
      <trkpt lat="46.279843859374523" lon="8.182069631293416">
        <ele>2124.48</ele>
        <time>2023-09-09T11:35:07Z</time>
      </trkpt>
      <trkpt lat="46.279890378937125" lon="8.182129058986902">
        <ele>2126.4699999999998</ele>
        <time>2023-09-09T11:35:18Z</time>
      </trkpt>
      <trkpt lat="46.279923906549811" lon="8.182191085070372">
        <ele>2127.1700000000001</ele>
        <time>2023-09-09T11:35:26Z</time>
      </trkpt>
      <trkpt lat="46.27992139197886" lon="8.182234670966864">
        <ele>2128.46</ele>
        <time>2023-09-09T11:35:34Z</time>
      </trkpt>
      <trkpt lat="46.279910998418927" lon="8.182260822504759">
        <ele>2131.2800000000002</ele>
        <time>2023-09-09T11:35:58Z</time>
      </trkpt>
      <trkpt lat="46.279903622344136" lon="8.182350005954504">
        <ele>2132.9699999999998</ele>
        <time>2023-09-09T11:36:10Z</time>
      </trkpt>
      <trkpt lat="46.279906220734119" lon="8.182397363707423">
        <ele>2134.48</ele>
        <time>2023-09-09T11:36:24Z</time>
      </trkpt>
      <trkpt lat="46.279874537140131" lon="8.182391580194235">
        <ele>2136.0300000000002</ele>
        <time>2023-09-09T11:36:40Z</time>
      </trkpt>
      <trkpt lat="46.279864562675357" lon="8.18241530098021">
        <ele>2137.9899999999998</ele>
        <time>2023-09-09T11:36:52Z</time>
      </trkpt>
      <trkpt lat="46.279868502169847" lon="8.182479841634631">
        <ele>2139.6500000000001</ele>
        <time>2023-09-09T11:37:04Z</time>
      </trkpt>
      <trkpt lat="46.27986372448504" lon="8.18254379555583">
        <ele>2141.4400000000001</ele>
        <time>2023-09-09T11:37:18Z</time>
      </trkpt>
      <trkpt lat="46.27983002923429" lon="8.1825867947191">
        <ele>2143.0300000000002</ele>
        <time>2023-09-09T11:37:33Z</time>
      </trkpt>
      <trkpt lat="46.279785688966513" lon="8.182619148865342">
        <ele>2144.73</ele>
        <time>2023-09-09T11:37:47Z</time>
      </trkpt>
      <trkpt lat="46.279810667037964" lon="8.182668015360832">
        <ele>2146.0100000000002</ele>
        <time>2023-09-09T11:37:59Z</time>
      </trkpt>
      <trkpt lat="46.279833130538464" lon="8.18271579220891">
        <ele>2147.52</ele>
        <time>2023-09-09T11:38:10Z</time>
      </trkpt>
      <trkpt lat="46.279897000640631" lon="8.182784439995885">
        <ele>2149.3600000000001</ele>
        <time>2023-09-09T11:38:26Z</time>
      </trkpt>
      <trkpt lat="46.279864981770515" lon="8.182775806635618">
        <ele>2150.7399999999998</ele>
        <time>2023-09-09T11:38:37Z</time>
      </trkpt>
      <trkpt lat="46.279845871031284" lon="8.182779578492045">
        <ele>2151.6500000000001</ele>
        <time>2023-09-09T11:38:49Z</time>
      </trkpt>
      <trkpt lat="46.279793819412589" lon="8.182795001193881">
        <ele>2153.5500000000002</ele>
        <time>2023-09-09T11:39:01Z</time>
      </trkpt>
      <trkpt lat="46.279735313728452" lon="8.182833725586534">
        <ele>2155.29</ele>
        <time>2023-09-09T11:39:16Z</time>
      </trkpt>
      <trkpt lat="46.279708994552493" lon="8.18286725319922">
        <ele>2157.1900000000001</ele>
        <time>2023-09-09T11:39:30Z</time>
      </trkpt>
      <trkpt lat="46.27974696457386" lon="8.182882005348802">
        <ele>2159</ele>
        <time>2023-09-09T11:39:42Z</time>
      </trkpt>
      <trkpt lat="46.27976699732244" lon="8.182903882116079">
        <ele>2160.04</ele>
        <time>2023-09-09T11:39:51Z</time>
      </trkpt>
      <trkpt lat="46.279747970402241" lon="8.18293129093945">
        <ele>2161.54</ele>
        <time>2023-09-09T11:40:04Z</time>
      </trkpt>
      <trkpt lat="46.279710754752159" lon="8.182961884886026">
        <ele>2163.1500000000001</ele>
        <time>2023-09-09T11:40:16Z</time>
      </trkpt>
      <trkpt lat="46.279680747538805" lon="8.182993736118078">
        <ele>2164.6199999999999</ele>
        <time>2023-09-09T11:40:29Z</time>
      </trkpt>
      <trkpt lat="46.279639005661011" lon="8.183010332286358">
        <ele>2165.98</ele>
        <time>2023-09-09T11:40:42Z</time>
      </trkpt>
      <trkpt lat="46.279638921841979" lon="8.183059534057975">
        <ele>2167.4299999999998</ele>
        <time>2023-09-09T11:40:55Z</time>
      </trkpt>
      <trkpt lat="46.279609920457006" lon="8.183075208216906">
        <ele>2168.98</ele>
        <time>2023-09-09T11:41:07Z</time>
      </trkpt>
      <trkpt lat="46.279612854123116" lon="8.183112507686019">
        <ele>2170.2800000000002</ele>
        <time>2023-09-09T11:41:17Z</time>
      </trkpt>
      <trkpt lat="46.279629785567522" lon="8.18312332034111">
        <ele>2170.8800000000001</ele>
        <time>2023-09-09T11:41:29Z</time>
      </trkpt>
      <trkpt lat="46.279630707576871" lon="8.183132624253631">
        <ele>2170.9899999999998</ele>
        <time>2023-09-09T11:41:47Z</time>
      </trkpt>
      <trkpt lat="46.279636742547154" lon="8.183169420808554">
        <ele>2173.3099999999999</ele>
        <time>2023-09-09T11:42:03Z</time>
      </trkpt>
      <trkpt lat="46.279681753367186" lon="8.183193476870656">
        <ele>2175.0599999999999</ele>
        <time>2023-09-09T11:42:15Z</time>
      </trkpt>
      <trkpt lat="46.279736571013927" lon="8.183236978948116">
        <ele>2176.9899999999998</ele>
        <time>2023-09-09T11:42:29Z</time>
      </trkpt>
      <trkpt lat="46.279730619862676" lon="8.183288611471653">
        <ele>2178.6700000000001</ele>
        <time>2023-09-09T11:42:41Z</time>
      </trkpt>
      <trkpt lat="46.279754927381873" lon="8.183351308107376">
        <ele>2180.75</ele>
        <time>2023-09-09T11:42:54Z</time>
      </trkpt>
      <trkpt lat="46.279735649004579" lon="8.183356337249279">
        <ele>2182</ele>
        <time>2023-09-09T11:43:05Z</time>
      </trkpt>
      <trkpt lat="46.279659122228622" lon="8.183342004194856">
        <ele>2183.6599999999999</ele>
        <time>2023-09-09T11:43:23Z</time>
      </trkpt>
      <trkpt lat="46.279670186340809" lon="8.183340076357126">
        <ele>2183.6300000000001</ele>
        <time>2023-09-09T11:43:39Z</time>
      </trkpt>
      <trkpt lat="46.27960866317153" lon="8.183363461866975">
        <ele>2184.4899999999998</ele>
        <time>2023-09-09T11:43:54Z</time>
      </trkpt>
      <trkpt lat="46.279571447521448" lon="8.183418195694685">
        <ele>2187.6300000000001</ele>
        <time>2023-09-09T11:44:07Z</time>
      </trkpt>
      <trkpt lat="46.279485784471035" lon="8.183477958664298">
        <ele>2190.2399999999998</ele>
        <time>2023-09-09T11:44:23Z</time>
      </trkpt>
      <trkpt lat="46.279529957100749" lon="8.183485418558121">
        <ele>2191.9299999999998</ele>
        <time>2023-09-09T11:44:34Z</time>
      </trkpt>
      <trkpt lat="46.279570190235972" lon="8.183488436043263">
        <ele>2193.4499999999998</ele>
        <time>2023-09-09T11:44:46Z</time>
      </trkpt>
      <trkpt lat="46.279607238247991" lon="8.183503774926066">
        <ele>2195.0300000000002</ele>
        <time>2023-09-09T11:44:57Z</time>
      </trkpt>
      <trkpt lat="46.279579661786556" lon="8.183516766875982">
        <ele>2196.1999999999998</ele>
        <time>2023-09-09T11:45:07Z</time>
      </trkpt>
      <trkpt lat="46.27954613417387" lon="8.183559011667967">
        <ele>2197.6999999999998</ele>
        <time>2023-09-09T11:45:21Z</time>
      </trkpt>
      <trkpt lat="46.279551917687058" lon="8.183573931455612">
        <ele>2198.6900000000001</ele>
        <time>2023-09-09T11:45:38Z</time>
      </trkpt>
      <trkpt lat="46.279579745605588" lon="8.183597400784493">
        <ele>2200.6900000000001</ele>
        <time>2023-09-09T11:45:53Z</time>
      </trkpt>
      <trkpt lat="46.279597179964185" lon="8.183672083541751">
        <ele>2202.4899999999998</ele>
        <time>2023-09-09T11:46:06Z</time>
      </trkpt>
      <trkpt lat="46.279618972912431" lon="8.183721285313368">
        <ele>2203.6300000000001</ele>
        <time>2023-09-09T11:46:15Z</time>
      </trkpt>
      <trkpt lat="46.279609082266688" lon="8.183736959472299">
        <ele>2205.4899999999998</ele>
        <time>2023-09-09T11:46:29Z</time>
      </trkpt>
      <trkpt lat="46.279583517462015" lon="8.183710221201181">
        <ele>2207.0100000000002</ele>
        <time>2023-09-09T11:46:43Z</time>
      </trkpt>
      <trkpt lat="46.279560718685389" lon="8.183742659166455">
        <ele>2207.29</ele>
        <time>2023-09-09T11:47:04Z</time>
      </trkpt>
      <trkpt lat="46.279564909636974" lon="8.183825388550758">
        <ele>2209.6300000000001</ele>
        <time>2023-09-09T11:47:17Z</time>
      </trkpt>
      <trkpt lat="46.279522916302085" lon="8.183848690241575">
        <ele>2211.9200000000001</ele>
        <time>2023-09-09T11:47:29Z</time>
      </trkpt>
      <trkpt lat="46.279530040919781" lon="8.183909459039569">
        <ele>2214.1199999999999</ele>
        <time>2023-09-09T11:47:42Z</time>
      </trkpt>
      <trkpt lat="46.279530460014939" lon="8.183962684124708">
        <ele>2215.5799999999999</ele>
        <time>2023-09-09T11:47:55Z</time>
      </trkpt>
      <trkpt lat="46.279515791684389" lon="8.1839579064399">
        <ele>2216.5100000000002</ele>
        <time>2023-09-09T11:48:07Z</time>
      </trkpt>
      <trkpt lat="46.279507493600249" lon="8.183992942795157">
        <ele>2218.3899999999999</ele>
        <time>2023-09-09T11:48:24Z</time>
      </trkpt>
      <trkpt lat="46.279515037313104" lon="8.184024961665273">
        <ele>2219.5</ele>
        <time>2023-09-09T11:48:37Z</time>
      </trkpt>
      <trkpt lat="46.279486790299416" lon="8.184039546176791">
        <ele>2221.3400000000001</ele>
        <time>2023-09-09T11:48:50Z</time>
      </trkpt>
      <trkpt lat="46.279460052028298" lon="8.184047006070614">
        <ele>2221.98</ele>
        <time>2023-09-09T11:49:04Z</time>
      </trkpt>
      <trkpt lat="46.279505398124456" lon="8.184077851474285">
        <ele>2222.9899999999998</ele>
        <time>2023-09-09T11:49:18Z</time>
      </trkpt>
      <trkpt lat="46.27948553301394" lon="8.184096124023199">
        <ele>2224.0799999999999</ele>
        <time>2023-09-09T11:49:29Z</time>
      </trkpt>
      <trkpt lat="46.279512941837311" lon="8.184132082387805">
        <ele>2225.8299999999999</ele>
        <time>2023-09-09T11:49:42Z</time>
      </trkpt>
      <trkpt lat="46.279555857181549" lon="8.184182457625866">
        <ele>2227.02</ele>
        <time>2023-09-09T11:49:55Z</time>
      </trkpt>
      <trkpt lat="46.27955392934382" lon="8.184190504252911">
        <ele>2227.3099999999999</ele>
        <time>2023-09-09T11:50:08Z</time>
      </trkpt>
      <trkpt lat="46.279559377580881" lon="8.184197125956416">
        <ele>2227.23</ele>
        <time>2023-09-09T11:50:27Z</time>
      </trkpt>
      <trkpt lat="46.279557785019279" lon="8.184240879490972">
        <ele>2228.23</ele>
        <time>2023-09-09T11:50:46Z</time>
      </trkpt>
      <trkpt lat="46.279613440856338" lon="8.184325452893972">
        <ele>2230.8200000000002</ele>
        <time>2023-09-09T11:51:00Z</time>
      </trkpt>
      <trkpt lat="46.279602376744151" lon="8.184368703514338">
        <ele>2233.5500000000002</ele>
        <time>2023-09-09T11:51:12Z</time>
      </trkpt>
      <trkpt lat="46.279597096145153" lon="8.184415893629193">
        <ele>2235.6599999999999</ele>
        <time>2023-09-09T11:51:24Z</time>
      </trkpt>
      <trkpt lat="46.279577063396573" lon="8.184445146471262">
        <ele>2237.27</ele>
        <time>2023-09-09T11:51:37Z</time>
      </trkpt>
      <trkpt lat="46.27957790158689" lon="8.184475237503648">
        <ele>2238.23</ele>
        <time>2023-09-09T11:51:52Z</time>
      </trkpt>
      <trkpt lat="46.279586283490062" lon="8.18450465798378">
        <ele>2239.5</ele>
        <time>2023-09-09T11:52:05Z</time>
      </trkpt>
      <trkpt lat="46.279580080881715" lon="8.18455059081316">
        <ele>2241.3000000000002</ele>
        <time>2023-09-09T11:52:21Z</time>
      </trkpt>
      <trkpt lat="46.279595755040646" lon="8.184572551399469">
        <ele>2242.3200000000002</ele>
        <time>2023-09-09T11:52:33Z</time>
      </trkpt>
      <trkpt lat="46.27962039783597" lon="8.184618316590786">
        <ele>2243.9499999999998</ele>
        <time>2023-09-09T11:52:47Z</time>
      </trkpt>
      <trkpt lat="46.279648309573531" lon="8.184657543897629">
        <ele>2245.27</ele>
        <time>2023-09-09T11:53:00Z</time>
      </trkpt>
      <trkpt lat="46.279628276824951" lon="8.184703979641199">
        <ele>2247.0700000000002</ele>
        <time>2023-09-09T11:53:18Z</time>
      </trkpt>
      <trkpt lat="46.279589803889394" lon="8.184715881943703">
        <ele>2248.6999999999998</ele>
        <time>2023-09-09T11:53:32Z</time>
      </trkpt>
      <trkpt lat="46.279561389237642" lon="8.184723844751716">
        <ele>2250.3099999999999</ele>
        <time>2023-09-09T11:53:46Z</time>
      </trkpt>
      <trkpt lat="46.279589384794235" lon="8.184754690155387">
        <ele>2251.4699999999998</ele>
        <time>2023-09-09T11:53:58Z</time>
      </trkpt>
      <trkpt lat="46.279580667614937" lon="8.184770783409476">
        <ele>2252.9400000000001</ele>
        <time>2023-09-09T11:54:13Z</time>
      </trkpt>
      <trkpt lat="46.279592905193567" lon="8.184789726510644">
        <ele>2253.1399999999999</ele>
        <time>2023-09-09T11:54:25Z</time>
      </trkpt>
      <trkpt lat="46.279584271833301" lon="8.18482518196106">
        <ele>2254.9400000000001</ele>
        <time>2023-09-09T11:54:39Z</time>
      </trkpt>
      <trkpt lat="46.279572788625956" lon="8.184866337105632">
        <ele>2256.4499999999998</ele>
        <time>2023-09-09T11:54:50Z</time>
      </trkpt>
      <trkpt lat="46.279585529118776" lon="8.184901708737016">
        <ele>2257.5999999999999</ele>
        <time>2023-09-09T11:55:03Z</time>
      </trkpt>
      <trkpt lat="46.279605980962515" lon="8.184939175844193">
        <ele>2258.9499999999998</ele>
        <time>2023-09-09T11:55:15Z</time>
      </trkpt>
      <trkpt lat="46.279643783345819" lon="8.184971529990435">
        <ele>2260.3400000000001</ele>
        <time>2023-09-09T11:55:28Z</time>
      </trkpt>
      <trkpt lat="46.279644370079041" lon="8.184992400929332">
        <ele>2261.0799999999999</ele>
        <time>2023-09-09T11:55:43Z</time>
      </trkpt>
      <trkpt lat="46.27964336425066" lon="8.184983264654875">
        <ele>2260.7199999999998</ele>
        <time>2023-09-09T11:55:48Z</time>
      </trkpt>
      <trkpt lat="46.279639089480042" lon="8.18500698544085">
        <ele>2260.6700000000001</ele>
        <time>2023-09-09T11:56:07Z</time>
      </trkpt>
      <trkpt lat="46.279641855508089" lon="8.185015199705958">
        <ele>2260.5700000000002</ele>
        <time>2023-09-09T11:56:13Z</time>
      </trkpt>
      <trkpt lat="46.279638251289725" lon="8.185019558295608">
        <ele>2261.73</ele>
        <time>2023-09-09T11:56:23Z</time>
      </trkpt>
      <trkpt lat="46.279634479433298" lon="8.185018887743354">
        <ele>2261.7600000000002</ele>
        <time>2023-09-09T11:56:40Z</time>
      </trkpt>
      <trkpt lat="46.279643112793565" lon="8.18509784527123">
        <ele>2264.8600000000001</ele>
        <time>2023-09-09T11:56:54Z</time>
      </trkpt>
      <trkpt lat="46.279622493311763" lon="8.185157021507621">
        <ele>2267.2399999999998</ele>
        <time>2023-09-09T11:57:08Z</time>
      </trkpt>
      <trkpt lat="46.279648644849658" lon="8.185148220509291">
        <ele>2268.9400000000001</ele>
        <time>2023-09-09T11:57:22Z</time>
      </trkpt>
      <trkpt lat="46.279643448069692" lon="8.18514914251864">
        <ele>2269.1700000000001</ele>
        <time>2023-09-09T11:57:33Z</time>
      </trkpt>
      <trkpt lat="46.279667587950826" lon="8.185203121975064">
        <ele>2269.8800000000001</ele>
        <time>2023-09-09T11:57:54Z</time>
      </trkpt>
      <trkpt lat="46.279739588499069" lon="8.185219131410122">
        <ele>2272.7800000000002</ele>
        <time>2023-09-09T11:58:09Z</time>
      </trkpt>
      <trkpt lat="46.279775211587548" lon="8.18530261516571">
        <ele>2274.0599999999999</ele>
        <time>2023-09-09T11:58:22Z</time>
      </trkpt>
      <trkpt lat="46.279802201315761" lon="8.185418704524636">
        <ele>2277.0500000000002</ele>
        <time>2023-09-09T11:58:39Z</time>
      </trkpt>
      <trkpt lat="46.279840590432286" lon="8.185495818033814">
        <ele>2279.3499999999999</ele>
        <time>2023-09-09T11:58:54Z</time>
      </trkpt>
      <trkpt lat="46.279833549633622" lon="8.185551222413778">
        <ele>2281.21</ele>
        <time>2023-09-09T11:59:07Z</time>
      </trkpt>
      <trkpt lat="46.279756519943476" lon="8.185597071424127">
        <ele>2282.9899999999998</ele>
        <time>2023-09-09T11:59:24Z</time>
      </trkpt>
      <trkpt lat="46.279773283749819" lon="8.185654236003757">
        <ele>2285.2399999999998</ele>
        <time>2023-09-09T11:59:40Z</time>
      </trkpt>
      <trkpt lat="46.279707653447986" lon="8.185664126649499">
        <ele>2287.5599999999999</ele>
        <time>2023-09-09T11:59:53Z</time>
      </trkpt>
      <trkpt lat="46.279696086421609" lon="8.185698576271534">
        <ele>2288.2199999999998</ele>
        <time>2023-09-09T12:00:06Z</time>
      </trkpt>
      <trkpt lat="46.279695918783545" lon="8.185703521594405">
        <ele>2287.7399999999998</ele>
        <time>2023-09-09T12:00:23Z</time>
      </trkpt>
      <trkpt lat="46.279685776680708" lon="8.18572523072362">
        <ele>2288.3299999999999</ele>
        <time>2023-09-09T12:00:40Z</time>
      </trkpt>
      <trkpt lat="46.27967462874949" lon="8.185803266242147">
        <ele>2291.02</ele>
        <time>2023-09-09T12:00:54Z</time>
      </trkpt>
      <trkpt lat="46.27965560182929" lon="8.185865124687553">
        <ele>2293.4499999999998</ele>
        <time>2023-09-09T12:01:07Z</time>
      </trkpt>
      <trkpt lat="46.279622577130795" lon="8.185872919857502">
        <ele>2295.3400000000001</ele>
        <time>2023-09-09T12:01:20Z</time>
      </trkpt>
      <trkpt lat="46.27956323325634" lon="8.185893623158336">
        <ele>2297.46</ele>
        <time>2023-09-09T12:01:35Z</time>
      </trkpt>
      <trkpt lat="46.279549319297075" lon="8.185916757211089">
        <ele>2298.6399999999999</ele>
        <time>2023-09-09T12:01:51Z</time>
      </trkpt>
      <trkpt lat="46.279529789462686" lon="8.185921534895897">
        <ele>2299.98</ele>
        <time>2023-09-09T12:02:05Z</time>
      </trkpt>
      <trkpt lat="46.279558455571532" lon="8.185973083600402">
        <ele>2301.6199999999999</ele>
        <time>2023-09-09T12:02:20Z</time>
      </trkpt>
      <trkpt lat="46.279597096145153" lon="8.186003593727946">
        <ele>2302.9299999999998</ele>
        <time>2023-09-09T12:02:32Z</time>
      </trkpt>
      <trkpt lat="46.279562814161181" lon="8.186036953702569">
        <ele>2304.2800000000002</ele>
        <time>2023-09-09T12:02:43Z</time>
      </trkpt>
      <trkpt lat="46.279513277113438" lon="8.186042904853821">
        <ele>2306.46</ele>
        <time>2023-09-09T12:02:59Z</time>
      </trkpt>
      <trkpt lat="46.279509840533137" lon="8.186050951480866">
        <ele>2305.77</ele>
        <time>2023-09-09T12:03:19Z</time>
      </trkpt>
      <trkpt lat="46.279488634318113" lon="8.186080204322934">
        <ele>2307.04</ele>
        <time>2023-09-09T12:03:39Z</time>
      </trkpt>
      <trkpt lat="46.279531549662352" lon="8.186118677258492">
        <ele>2308.8899999999999</ele>
        <time>2023-09-09T12:03:51Z</time>
      </trkpt>
      <trkpt lat="46.279569519683719" lon="8.186165867373347">
        <ele>2311.4200000000001</ele>
        <time>2023-09-09T12:04:05Z</time>
      </trkpt>
      <trkpt lat="46.279623666778207" lon="8.186176428571343">
        <ele>2312.9299999999998</ele>
        <time>2023-09-09T12:04:16Z</time>
      </trkpt>
      <trkpt lat="46.279614698141813" lon="8.186223786324263">
        <ele>2314.9699999999998</ele>
        <time>2023-09-09T12:04:28Z</time>
      </trkpt>
      <trkpt lat="46.279640765860677" lon="8.18625153042376">
        <ele>2316.4899999999998</ele>
        <time>2023-09-09T12:04:39Z</time>
      </trkpt>
      <trkpt lat="46.279637664556503" lon="8.18629746325314">
        <ele>2318.3299999999999</ele>
        <time>2023-09-09T12:04:55Z</time>
      </trkpt>
      <trkpt lat="46.279593659564853" lon="8.186318837106228">
        <ele>2319.2199999999998</ele>
        <time>2023-09-09T12:05:08Z</time>
      </trkpt>
      <trkpt lat="46.279591144993901" lon="8.186357310041785">
        <ele>2320.52</ele>
        <time>2023-09-09T12:05:22Z</time>
      </trkpt>
      <trkpt lat="46.279589049518108" lon="8.18639368750155">
        <ele>2322.2399999999998</ele>
        <time>2023-09-09T12:05:35Z</time>
      </trkpt>
      <trkpt lat="46.279596509411931" lon="8.186438279226422">
        <ele>2323.8299999999999</ele>
        <time>2023-09-09T12:05:51Z</time>
      </trkpt>
      <trkpt lat="46.279572872444987" lon="8.186488654464483">
        <ele>2325.3299999999999</ele>
        <time>2023-09-09T12:06:07Z</time>
      </trkpt>
      <trkpt lat="46.279546301811934" lon="8.186518996953964">
        <ele>2326.6999999999998</ele>
        <time>2023-09-09T12:06:20Z</time>
      </trkpt>
      <trkpt lat="46.279551582410932" lon="8.18660331889987">
        <ele>2328.73</ele>
        <time>2023-09-09T12:06:33Z</time>
      </trkpt>
      <trkpt lat="46.279537165537477" lon="8.186655286699534">
        <ele>2331.0300000000002</ele>
        <time>2023-09-09T12:06:45Z</time>
      </trkpt>
      <trkpt lat="46.279510175809264" lon="8.186710691079497">
        <ele>2331.8600000000001</ele>
        <time>2023-09-09T12:07:00Z</time>
      </trkpt>
      <trkpt lat="46.279485952109098" lon="8.186804903671145">
        <ele>2334.3499999999999</ele>
        <time>2023-09-09T12:07:14Z</time>
      </trkpt>
      <trkpt lat="46.279478911310434" lon="8.186886124312878">
        <ele>2335.6599999999999</ele>
        <time>2023-09-09T12:07:27Z</time>
      </trkpt>
      <trkpt lat="46.279486203566194" lon="8.186998944729567">
        <ele>2337.46</ele>
        <time>2023-09-09T12:07:42Z</time>
      </trkpt>
      <trkpt lat="46.279482683166862" lon="8.18709927611053">
        <ele>2338.79</ele>
        <time>2023-09-09T12:07:54Z</time>
      </trkpt>
      <trkpt lat="46.279488131403923" lon="8.187202457338572">
        <ele>2339.3600000000001</ele>
        <time>2023-09-09T12:08:05Z</time>
      </trkpt>
      <trkpt lat="46.279489221051335" lon="8.187314523383975">
        <ele>2339.8899999999999</ele>
        <time>2023-09-09T12:08:17Z</time>
      </trkpt>
      <trkpt lat="46.279475558549166" lon="8.187418710440397">
        <ele>2341.5700000000002</ele>
        <time>2023-09-09T12:08:32Z</time>
      </trkpt>
      <trkpt lat="46.27948016859591" lon="8.187513090670109">
        <ele>2342.0799999999999</ele>
        <time>2023-09-09T12:08:45Z</time>
      </trkpt>
      <trkpt lat="46.279484108090401" lon="8.187626833096147">
        <ele>2342.75</ele>
        <time>2023-09-09T12:08:58Z</time>
      </trkpt>
      <trkpt lat="46.279474636539817" lon="8.187717609107494">
        <ele>2342.9499999999998</ele>
        <time>2023-09-09T12:09:09Z</time>
      </trkpt>
      <trkpt lat="46.279496513307095" lon="8.187786005437374">
        <ele>2344.1199999999999</ele>
        <time>2023-09-09T12:09:21Z</time>
      </trkpt>
      <trkpt lat="46.279496178030968" lon="8.187840068712831">
        <ele>2345.54</ele>
        <time>2023-09-09T12:09:31Z</time>
      </trkpt>
      <trkpt lat="46.279478156939149" lon="8.187920199707151">
        <ele>2346.7600000000002</ele>
        <time>2023-09-09T12:09:43Z</time>
      </trkpt>
      <trkpt lat="46.279491651803255" lon="8.187973257154226">
        <ele>2347.73</ele>
        <time>2023-09-09T12:09:54Z</time>
      </trkpt>
      <trkpt lat="46.279492238536477" lon="8.188059339299798">
        <ele>2349.0599999999999</ele>
        <time>2023-09-09T12:10:07Z</time>
      </trkpt>
      <trkpt lat="46.279494669288397" lon="8.188126729801297">
        <ele>2350.3099999999999</ele>
        <time>2023-09-09T12:10:20Z</time>
      </trkpt>
      <trkpt lat="46.279480922967196" lon="8.188199568539858">
        <ele>2352.1399999999999</ele>
        <time>2023-09-09T12:10:37Z</time>
      </trkpt>
      <trkpt lat="46.279496429488063" lon="8.188275676220655">
        <ele>2354.25</ele>
        <time>2023-09-09T12:10:55Z</time>
      </trkpt>
      <trkpt lat="46.279496345669031" lon="8.188318256288767">
        <ele>2355.8099999999999</ele>
        <time>2023-09-09T12:11:09Z</time>
      </trkpt>
      <trkpt lat="46.279506823047996" lon="8.188337031751871">
        <ele>2356.2399999999998</ele>
        <time>2023-09-09T12:11:22Z</time>
      </trkpt>
      <trkpt lat="46.279509421437979" lon="8.188352370634675">
        <ele>2356.3600000000001</ele>
        <time>2023-09-09T12:11:39Z</time>
      </trkpt>
      <trkpt lat="46.279491735622287" lon="8.188373660668731">
        <ele>2357.1700000000001</ele>
        <time>2023-09-09T12:11:54Z</time>
      </trkpt>
      <trkpt lat="46.279484778642654" lon="8.188370978459716">
        <ele>2357.3800000000001</ele>
        <time>2023-09-09T12:11:55Z</time>
      </trkpt>
      <trkpt lat="46.279422333464026" lon="8.188390759751201">
        <ele>2358.2399999999998</ele>
        <time>2023-09-09T12:12:07Z</time>
      </trkpt>
      <trkpt lat="46.279430463910103" lon="8.188437027856708">
        <ele>2359.4499999999998</ele>
        <time>2023-09-09T12:12:20Z</time>
      </trkpt>
      <trkpt lat="46.279397355392575" lon="8.188465442508459">
        <ele>2360.8099999999999</ele>
        <time>2023-09-09T12:12:32Z</time>
      </trkpt>
      <trkpt lat="46.279399869963527" lon="8.188531743362546">
        <ele>2362.04</ele>
        <time>2023-09-09T12:12:47Z</time>
      </trkpt>
      <trkpt lat="46.27940883859992" lon="8.188601899892092">
        <ele>2363.1300000000001</ele>
        <time>2023-09-09T12:12:59Z</time>
      </trkpt>
      <trkpt lat="46.279438259080052" lon="8.188682030886412">
        <ele>2364.4699999999998</ele>
        <time>2023-09-09T12:13:13Z</time>
      </trkpt>
      <trkpt lat="46.279438091441989" lon="8.188766688108444">
        <ele>2365.8899999999999</ele>
        <time>2023-09-09T12:13:29Z</time>
      </trkpt>
      <trkpt lat="46.279423926025629" lon="8.188783368095756">
        <ele>2367</ele>
        <time>2023-09-09T12:13:45Z</time>
      </trkpt>
      <trkpt lat="46.279403641819954" lon="8.188863666728139">
        <ele>2367.6700000000001</ele>
        <time>2023-09-09T12:14:03Z</time>
      </trkpt>
      <trkpt lat="46.279388219118118" lon="8.188970871269703">
        <ele>2369.1399999999999</ele>
        <time>2023-09-09T12:14:20Z</time>
      </trkpt>
      <trkpt lat="46.279400121420622" lon="8.189076650887728">
        <ele>2370.5599999999999</ele>
        <time>2023-09-09T12:14:35Z</time>
      </trkpt>
      <trkpt lat="46.279398025944829" lon="8.189149741083384">
        <ele>2372.02</ele>
        <time>2023-09-09T12:14:47Z</time>
      </trkpt>
      <trkpt lat="46.279384531080723" lon="8.189276894554496">
        <ele>2373.48</ele>
        <time>2023-09-09T12:15:02Z</time>
      </trkpt>
      <trkpt lat="46.279381345957518" lon="8.189355935901403">
        <ele>2374.7800000000002</ele>
        <time>2023-09-09T12:15:16Z</time>
      </trkpt>
      <trkpt lat="46.279340526089072" lon="8.189420811831951">
        <ele>2375.77</ele>
        <time>2023-09-09T12:15:28Z</time>
      </trkpt>
      <trkpt lat="46.279306579381227" lon="8.189489040523768">
        <ele>2376.3800000000001</ele>
        <time>2023-09-09T12:15:40Z</time>
      </trkpt>
      <trkpt lat="46.279288725927472" lon="8.189543439075351">
        <ele>2377.54</ele>
        <time>2023-09-09T12:15:54Z</time>
      </trkpt>
      <trkpt lat="46.279260898008943" lon="8.189624324440956">
        <ele>2379.9400000000001</ele>
        <time>2023-09-09T12:16:09Z</time>
      </trkpt>
      <trkpt lat="46.27921923995018" lon="8.18966849707067">
        <ele>2381.1500000000001</ele>
        <time>2023-09-09T12:16:20Z</time>
      </trkpt>
      <trkpt lat="46.279202559962869" lon="8.189776623621583">
        <ele>2382.5300000000002</ele>
        <time>2023-09-09T12:16:33Z</time>
      </trkpt>
      <trkpt lat="46.279218150302768" lon="8.189894473180175">
        <ele>2383.6300000000001</ele>
        <time>2023-09-09T12:16:46Z</time>
      </trkpt>
      <trkpt lat="46.279198201373219" lon="8.189988937228918">
        <ele>2384.9099999999999</ele>
        <time>2023-09-09T12:16:59Z</time>
      </trkpt>
      <trkpt lat="46.279171211645007" lon="8.190078707411885">
        <ele>2385.8400000000001</ele>
        <time>2023-09-09T12:17:10Z</time>
      </trkpt>
      <trkpt lat="46.279154112562537" lon="8.190188175067306">
        <ele>2387.27</ele>
        <time>2023-09-09T12:17:25Z</time>
      </trkpt>
      <trkpt lat="46.279126452282071" lon="8.19030468352139">
        <ele>2388.9299999999998</ele>
        <time>2023-09-09T12:17:41Z</time>
      </trkpt>
      <trkpt lat="46.279097031801939" lon="8.190380875021219">
        <ele>2390.6799999999998</ele>
        <time>2023-09-09T12:17:55Z</time>
      </trkpt>
      <trkpt lat="46.279097869992256" lon="8.190479194745421">
        <ele>2391.0900000000001</ele>
        <time>2023-09-09T12:18:06Z</time>
      </trkpt>
      <trkpt lat="46.279057636857033" lon="8.190567204728723">
        <ele>2391.8200000000002</ele>
        <time>2023-09-09T12:18:18Z</time>
      </trkpt>
      <trkpt lat="46.279025953263044" lon="8.190668122842908">
        <ele>2393.46</ele>
        <time>2023-09-09T12:18:31Z</time>
      </trkpt>
      <trkpt lat="46.279004160314798" lon="8.190770214423537">
        <ele>2394.2199999999998</ele>
        <time>2023-09-09T12:18:41Z</time>
      </trkpt>
      <trkpt lat="46.278937524184585" lon="8.190885381773114">
        <ele>2394.3299999999999</ele>
        <time>2023-09-09T12:18:55Z</time>
      </trkpt>
      <trkpt lat="46.278925538063049" lon="8.190935421735048">
        <ele>2393.73</ele>
        <time>2023-09-09T12:18:59Z</time>
      </trkpt>
      <trkpt lat="46.278907852247357" lon="8.191000130027533">
        <ele>2393.6799999999998</ele>
        <time>2023-09-09T12:19:04Z</time>
      </trkpt>
      <trkpt lat="46.278894105926156" lon="8.191160811111331">
        <ele>2393.23</ele>
        <time>2023-09-09T12:19:16Z</time>
      </trkpt>
      <trkpt lat="46.278882287442684" lon="8.191296514123678">
        <ele>2394.3600000000001</ele>
        <time>2023-09-09T12:19:29Z</time>
      </trkpt>
      <trkpt lat="46.278853705152869" lon="8.191425176337361">
        <ele>2395.9899999999998</ele>
        <time>2023-09-09T12:19:43Z</time>
      </trkpt>
      <trkpt lat="46.278795367106795" lon="8.191539421677589">
        <ele>2396.1399999999999</ele>
        <time>2023-09-09T12:19:56Z</time>
      </trkpt>
      <trkpt lat="46.27879117615521" lon="8.191548893228173">
        <ele>2395.75</ele>
        <time>2023-09-09T12:19:57Z</time>
      </trkpt>
      <trkpt lat="46.278755469247699" lon="8.191631957888603">
        <ele>2396.1300000000001</ele>
        <time>2023-09-09T12:20:09Z</time>
      </trkpt>
      <trkpt lat="46.278715236112475" lon="8.191664312034845">
        <ele>2395.1500000000001</ele>
        <time>2023-09-09T12:20:20Z</time>
      </trkpt>
      <trkpt lat="46.278683468699455" lon="8.191678309813142">
        <ele>2394.3200000000002</ele>
        <time>2023-09-09T12:20:31Z</time>
      </trkpt>
      <trkpt lat="46.278673410415649" lon="8.191656265407801">
        <ele>2393.9099999999999</ele>
        <time>2023-09-09T12:20:45Z</time>
      </trkpt>
      <trkpt lat="46.278659580275416" lon="8.191714100539684">
        <ele>2393.5700000000002</ele>
        <time>2023-09-09T12:21:04Z</time>
      </trkpt>
      <trkpt lat="46.278632087633014" lon="8.191755339503288">
        <ele>2392.6799999999998</ele>
        <time>2023-09-09T12:21:08Z</time>
      </trkpt>
      <trkpt lat="46.278585232794285" lon="8.191879810765386">
        <ele>2392.4000000000001</ele>
        <time>2023-09-09T12:21:18Z</time>
      </trkpt>
      <trkpt lat="46.278562601655722" lon="8.191974777728319">
        <ele>2392.6599999999999</ele>
        <time>2023-09-09T12:21:25Z</time>
      </trkpt>
      <trkpt lat="46.278529576957226" lon="8.192081646993756">
        <ele>2392.9099999999999</ele>
        <time>2023-09-09T12:21:36Z</time>
      </trkpt>
      <trkpt lat="46.278511639684439" lon="8.192195640876889">
        <ele>2392.9099999999999</ele>
        <time>2023-09-09T12:21:45Z</time>
      </trkpt>
      <trkpt lat="46.278503425419331" lon="8.192233694717288">
        <ele>2392.8400000000001</ele>
        <time>2023-09-09T12:21:48Z</time>
      </trkpt>
      <trkpt lat="46.278493786230683" lon="8.192271329462528">
        <ele>2392.8099999999999</ele>
        <time>2023-09-09T12:21:51Z</time>
      </trkpt>
      <trkpt lat="46.278446009382606" lon="8.192430920898914">
        <ele>2393.6900000000001</ele>
        <time>2023-09-09T12:22:05Z</time>
      </trkpt>
      <trkpt lat="46.278431341052055" lon="8.192550865933299">
        <ele>2394.0500000000002</ele>
        <time>2023-09-09T12:22:14Z</time>
      </trkpt>
      <trkpt lat="46.278440142050385" lon="8.192696627229452">
        <ele>2393.9200000000001</ele>
        <time>2023-09-09T12:22:25Z</time>
      </trkpt>
      <trkpt lat="46.278417427092791" lon="8.19281036965549">
        <ele>2394.6599999999999</ele>
        <time>2023-09-09T12:22:35Z</time>
      </trkpt>
      <trkpt lat="46.278399741277099" lon="8.192924447357655">
        <ele>2395.9699999999998</ele>
        <time>2023-09-09T12:22:46Z</time>
      </trkpt>
      <trkpt lat="46.2784134875983" lon="8.193016480654478">
        <ele>2397.8600000000001</ele>
        <time>2023-09-09T12:22:58Z</time>
      </trkpt>
      <trkpt lat="46.278400998562574" lon="8.193063838407397">
        <ele>2398.1399999999999</ele>
        <time>2023-09-09T12:23:03Z</time>
      </trkpt>
      <trkpt lat="46.278322208672762" lon="8.193173222243786">
        <ele>2398.5700000000002</ele>
        <time>2023-09-09T12:23:16Z</time>
      </trkpt>
      <trkpt lat="46.278306618332863" lon="8.193232230842114">
        <ele>2400.7399999999998</ele>
        <time>2023-09-09T12:23:30Z</time>
      </trkpt>
      <trkpt lat="46.278324723243713" lon="8.193321581929922">
        <ele>2401.9899999999998</ele>
        <time>2023-09-09T12:23:43Z</time>
      </trkpt>
      <trkpt lat="46.278308462351561" lon="8.193413028493524">
        <ele>2403.77</ele>
        <time>2023-09-09T12:23:56Z</time>
      </trkpt>
      <trkpt lat="46.278303852304816" lon="8.19349299184978">
        <ele>2405.21</ele>
        <time>2023-09-09T12:24:06Z</time>
      </trkpt>
      <trkpt lat="46.278260098770261" lon="8.193583684042096">
        <ele>2407.0999999999999</ele>
        <time>2023-09-09T12:24:20Z</time>
      </trkpt>
      <trkpt lat="46.278264373540878" lon="8.193701114505529">
        <ele>2408.6599999999999</ele>
        <time>2023-09-09T12:24:35Z</time>
      </trkpt>
      <trkpt lat="46.27825029194355" lon="8.193788202479482">
        <ele>2410</ele>
        <time>2023-09-09T12:24:46Z</time>
      </trkpt>
      <trkpt lat="46.278240149840713" lon="8.193869506940246">
        <ele>2411.0799999999999</ele>
        <time>2023-09-09T12:24:59Z</time>
      </trkpt>
      <trkpt lat="46.278231935575604" lon="8.193966066464782">
        <ele>2411.6999999999998</ele>
        <time>2023-09-09T12:25:12Z</time>
      </trkpt>
      <trkpt lat="46.278228247538209" lon="8.19408374838531">
        <ele>2412.3200000000002</ele>
        <time>2023-09-09T12:25:24Z</time>
      </trkpt>
      <trkpt lat="46.278221877291799" lon="8.194196401163936">
        <ele>2413.9200000000001</ele>
        <time>2023-09-09T12:25:36Z</time>
      </trkpt>
      <trkpt lat="46.278242161497474" lon="8.194254320114851">
        <ele>2415.0100000000002</ele>
        <time>2023-09-09T12:25:44Z</time>
      </trkpt>
      <trkpt lat="46.278269067406654" lon="8.194382144138217">
        <ele>2416.46</ele>
        <time>2023-09-09T12:25:57Z</time>
      </trkpt>
      <trkpt lat="46.278305361047387" lon="8.194470908492804">
        <ele>2417.8299999999999</ele>
        <time>2023-09-09T12:26:08Z</time>
      </trkpt>
      <trkpt lat="46.2783098872751" lon="8.194563863798976">
        <ele>2419.77</ele>
        <time>2023-09-09T12:26:21Z</time>
      </trkpt>
      <trkpt lat="46.278325896710157" lon="8.194656567648053">
        <ele>2421.6999999999998</ele>
        <time>2023-09-09T12:26:33Z</time>
      </trkpt>
      <trkpt lat="46.278330339118838" lon="8.194740135222673">
        <ele>2422.9899999999998</ele>
        <time>2023-09-09T12:26:44Z</time>
      </trkpt>
      <trkpt lat="46.27836705185473" lon="8.194804172962904">
        <ele>2424.5900000000001</ele>
        <time>2023-09-09T12:26:56Z</time>
      </trkpt>
      <trkpt lat="46.27842178568244" lon="8.194793108850718">
        <ele>2425.2600000000002</ele>
        <time>2023-09-09T12:27:07Z</time>
      </trkpt>
      <trkpt lat="46.278461515903473" lon="8.19481423124671">
        <ele>2425.8800000000001</ele>
        <time>2023-09-09T12:27:26Z</time>
      </trkpt>
      <trkpt lat="46.278476351872087" lon="8.194870976731181">
        <ele>2427.23</ele>
        <time>2023-09-09T12:35:24Z</time>
      </trkpt>
      <trkpt lat="46.27847601659596" lon="8.19486552849412">
        <ele>2429.3699999999999</ele>
        <time>2023-09-09T12:42:49Z</time>
      </trkpt>
      <trkpt lat="46.278474340215325" lon="8.194865779951215">
        <ele>2429.4699999999998</ele>
        <time>2023-09-09T12:44:18Z</time>
      </trkpt>
      <trkpt lat="46.278475178405643" lon="8.194868126884103">
        <ele>2429.9499999999998</ele>
        <time>2023-09-09T12:44:59Z</time>
      </trkpt>
      <trkpt lat="46.278474759310484" lon="8.194872066378593">
        <ele>2430.3499999999999</ele>
        <time>2023-09-09T12:45:41Z</time>
      </trkpt>
      <trkpt lat="46.278474926948547" lon="8.194874748587608">
        <ele>2430.79</ele>
        <time>2023-09-09T12:46:25Z</time>
      </trkpt>
      <trkpt lat="46.278472077101469" lon="8.194845747202635">
        <ele>2433.6999999999998</ele>
        <time>2023-09-09T13:25:02Z</time>
      </trkpt>
      <trkpt lat="46.278478866443038" lon="8.194877933710814">
        <ele>2437.6199999999999</ele>
        <time>2023-09-09T13:27:20Z</time>
      </trkpt>
      <trkpt lat="46.278512394055724" lon="8.19486259482801">
        <ele>2437.1799999999998</ele>
        <time>2023-09-09T13:27:48Z</time>
      </trkpt>
      <trkpt lat="46.278578275814652" lon="8.194940043613315">
        <ele>2436.0100000000002</ele>
        <time>2023-09-09T13:28:00Z</time>
      </trkpt>
      <trkpt lat="46.278598476201296" lon="8.194978768005967">
        <ele>2434.52</ele>
        <time>2023-09-09T13:28:07Z</time>
      </trkpt>
      <trkpt lat="46.2786397151649" lon="8.195031909272075">
        <ele>2433.6900000000001</ele>
        <time>2023-09-09T13:28:13Z</time>
      </trkpt>
      <trkpt lat="46.278677601367235" lon="8.195145651698113">
        <ele>2433.3899999999999</ele>
        <time>2023-09-09T13:28:27Z</time>
      </trkpt>
      <trkpt lat="46.278701405972242" lon="8.195222765207291">
        <ele>2431.3899999999999</ele>
        <time>2023-09-09T13:28:39Z</time>
      </trkpt>
      <trkpt lat="46.278740633279085" lon="8.195343883708119">
        <ele>2428.0900000000001</ele>
        <time>2023-09-09T13:28:50Z</time>
      </trkpt>
      <trkpt lat="46.278793103992939" lon="8.19549391977489">
        <ele>2425.0100000000002</ele>
        <time>2023-09-09T13:29:04Z</time>
      </trkpt>
      <trkpt lat="46.278853034600616" lon="8.195625515654683">
        <ele>2424.3400000000001</ele>
        <time>2023-09-09T13:29:17Z</time>
      </trkpt>
      <trkpt lat="46.278863176703453" lon="8.195644877851009">
        <ele>2424.29</ele>
        <time>2023-09-09T13:29:19Z</time>
      </trkpt>
      <trkpt lat="46.278882455080748" lon="8.195692906156182">
        <ele>2424.1599999999999</ele>
        <time>2023-09-09T13:29:23Z</time>
      </trkpt>
      <trkpt lat="46.278931405395269" lon="8.195758536458015">
        <ele>2423.3600000000001</ele>
        <time>2023-09-09T13:29:36Z</time>
      </trkpt>
      <trkpt lat="46.278997035697103" lon="8.195830788463354">
        <ele>2420.2399999999998</ele>
        <time>2023-09-09T13:29:48Z</time>
      </trkpt>
      <trkpt lat="46.279044561088085" lon="8.195919971913099">
        <ele>2416.9299999999998</ele>
        <time>2023-09-09T13:29:59Z</time>
      </trkpt>
      <trkpt lat="46.279118992388248" lon="8.196009993553162">
        <ele>2415.5100000000002</ele>
        <time>2023-09-09T13:30:10Z</time>
      </trkpt>
      <trkpt lat="46.279189316555858" lon="8.196088280528784">
        <ele>2415.5100000000002</ele>
        <time>2023-09-09T13:30:22Z</time>
      </trkpt>
      <trkpt lat="46.27925000153482" lon="8.196217361837626">
        <ele>2415.0100000000002</ele>
        <time>2023-09-09T13:30:34Z</time>
      </trkpt>
      <trkpt lat="46.279303980991244" lon="8.19627083837986">
        <ele>2416.0300000000002</ele>
        <time>2023-09-09T13:30:45Z</time>
      </trkpt>
      <trkpt lat="46.279355529695749" lon="8.196314591914415">
        <ele>2417.5500000000002</ele>
        <time>2023-09-09T13:30:58Z</time>
      </trkpt>
      <trkpt lat="46.279398696497083" lon="8.196323225274682">
        <ele>2419.5500000000002</ele>
        <time>2023-09-09T13:31:09Z</time>
      </trkpt>
      <trkpt lat="46.279445635154843" lon="8.196358596906066">
        <ele>2421.5500000000002</ele>
        <time>2023-09-09T13:31:22Z</time>
      </trkpt>
      <trkpt lat="46.279491316527128" lon="8.196390280500054">
        <ele>2422.8800000000001</ele>
        <time>2023-09-09T13:31:34Z</time>
      </trkpt>
      <trkpt lat="46.279517719522119" lon="8.196463622152805">
        <ele>2424.4200000000001</ele>
        <time>2023-09-09T13:31:46Z</time>
      </trkpt>
      <trkpt lat="46.279558455571532" lon="8.196515506133437">
        <ele>2425.7399999999998</ele>
        <time>2023-09-09T13:31:58Z</time>
      </trkpt>
      <trkpt lat="46.279600532725453" lon="8.196567390114069">
        <ele>2427.3200000000002</ele>
        <time>2023-09-09T13:32:10Z</time>
      </trkpt>
      <trkpt lat="46.279615452513099" lon="8.196610556915402">
        <ele>2427.5300000000002</ele>
        <time>2023-09-09T13:32:26Z</time>
      </trkpt>
      <trkpt lat="46.279653003439307" lon="8.196691861376166">
        <ele>2428.6199999999999</ele>
        <time>2023-09-09T13:32:39Z</time>
      </trkpt>
      <trkpt lat="46.279665743932128" lon="8.196723880246282">
        <ele>2428.4000000000001</ele>
        <time>2023-09-09T13:32:42Z</time>
      </trkpt>
      <trkpt lat="46.279745288193226" lon="8.196817338466644">
        <ele>2426.6399999999999</ele>
        <time>2023-09-09T13:32:55Z</time>
      </trkpt>
      <trkpt lat="46.279793232679367" lon="8.196871401742101">
        <ele>2426.29</ele>
        <time>2023-09-09T13:33:02Z</time>
      </trkpt>
      <trkpt lat="46.279840338975191" lon="8.196952706202865">
        <ele>2426.27</ele>
        <time>2023-09-09T13:33:13Z</time>
      </trkpt>
      <trkpt lat="46.279913010075688" lon="8.196988664567471">
        <ele>2427.7600000000002</ele>
        <time>2023-09-09T13:33:25Z</time>
      </trkpt>
      <trkpt lat="46.279950477182865" lon="8.197064269334078">
        <ele>2427.5</ele>
        <time>2023-09-09T13:33:33Z</time>
      </trkpt>
      <trkpt lat="46.280015017837286" lon="8.19714448414743">
        <ele>2427.73</ele>
        <time>2023-09-09T13:33:44Z</time>
      </trkpt>
      <trkpt lat="46.280081570148468" lon="8.197196200489998">
        <ele>2428.1799999999998</ele>
        <time>2023-09-09T13:33:55Z</time>
      </trkpt>
      <trkpt lat="46.280080564320087" lon="8.197201229631901">
        <ele>2428.2199999999998</ele>
        <time>2023-09-09T13:34:15Z</time>
      </trkpt>
      <trkpt lat="46.2800816539675" lon="8.197206174954772">
        <ele>2427.96</ele>
        <time>2023-09-09T13:34:26Z</time>
      </trkpt>
      <trkpt lat="46.280085844919086" lon="8.197211120277643">
        <ele>2428.75</ele>
        <time>2023-09-09T13:34:47Z</time>
      </trkpt>
      <trkpt lat="46.280084755271673" lon="8.197211204096675">
        <ele>2429.1900000000001</ele>
        <time>2023-09-09T13:35:14Z</time>
      </trkpt>
      <trkpt lat="46.280094813555479" lon="8.197205923497677">
        <ele>2429.3200000000002</ele>
        <time>2023-09-09T13:35:36Z</time>
      </trkpt>
      <trkpt lat="46.280092131346464" lon="8.197211874648929">
        <ele>2429.4699999999998</ele>
        <time>2023-09-09T13:36:00Z</time>
      </trkpt>
      <trkpt lat="46.280080312862992" lon="8.197203576564789">
        <ele>2429.4000000000001</ele>
        <time>2023-09-09T13:36:25Z</time>
      </trkpt>
      <trkpt lat="46.280096741393209" lon="8.197248671203852">
        <ele>2430.1399999999999</ele>
        <time>2023-09-09T13:36:43Z</time>
      </trkpt>
      <trkpt lat="46.280130688101053" lon="8.197367861866951">
        <ele>2431.5500000000002</ele>
        <time>2023-09-09T13:36:57Z</time>
      </trkpt>
      <trkpt lat="46.280145356431603" lon="8.197484454140067">
        <ele>2430.8499999999999</ele>
        <time>2023-09-09T13:37:09Z</time>
      </trkpt>
      <trkpt lat="46.280177794396877" lon="8.197672041133046">
        <ele>2428.73</ele>
        <time>2023-09-09T13:37:26Z</time>
      </trkpt>
      <trkpt lat="46.280175112187862" lon="8.197769774124026">
        <ele>2426.5900000000001</ele>
        <time>2023-09-09T13:37:37Z</time>
      </trkpt>
      <trkpt lat="46.280209477990866" lon="8.197849905118346">
        <ele>2425.6500000000001</ele>
        <time>2023-09-09T13:37:51Z</time>
      </trkpt>
      <trkpt lat="46.280230265110731" lon="8.197910254821181">
        <ele>2425.9400000000001</ele>
        <time>2023-09-09T13:38:02Z</time>
      </trkpt>
      <trkpt lat="46.28021945245564" lon="8.198006646707654">
        <ele>2423.54</ele>
        <time>2023-09-09T13:38:15Z</time>
      </trkpt>
      <trkpt lat="46.280213166028261" lon="8.198066577315331">
        <ele>2422.1500000000001</ele>
        <time>2023-09-09T13:38:27Z</time>
      </trkpt>
      <trkpt lat="46.280225571244955" lon="8.198153078556061">
        <ele>2420.3800000000001</ele>
        <time>2023-09-09T13:38:39Z</time>
      </trkpt>
      <trkpt lat="46.280272174626589" lon="8.198238825425506">
        <ele>2419.3699999999999</ele>
        <time>2023-09-09T13:38:51Z</time>
      </trkpt>
      <trkpt lat="46.280312240123749" lon="8.198269000276923">
        <ele>2418.8899999999999</ele>
        <time>2023-09-09T13:39:03Z</time>
      </trkpt>
      <trkpt lat="46.280319364741445" lon="8.198313592001796">
        <ele>2418.6500000000001</ele>
        <time>2023-09-09T13:39:15Z</time>
      </trkpt>
      <trkpt lat="46.280316095799208" lon="8.198339743539691">
        <ele>2418.5799999999999</ele>
        <time>2023-09-09T13:39:31Z</time>
      </trkpt>
      <trkpt lat="46.280310228466988" lon="8.198401518166065">
        <ele>2416.1100000000001</ele>
        <time>2023-09-09T13:39:45Z</time>
      </trkpt>
      <trkpt lat="46.280298242345452" lon="8.198430435732007">
        <ele>2413.7600000000002</ele>
        <time>2023-09-09T13:39:56Z</time>
      </trkpt>
      <trkpt lat="46.280321208760142" lon="8.198491707444191">
        <ele>2412.8299999999999</ele>
        <time>2023-09-09T13:40:09Z</time>
      </trkpt>
      <trkpt lat="46.280350126326084" lon="8.198591871187091">
        <ele>2410.9699999999998</ele>
        <time>2023-09-09T13:40:23Z</time>
      </trkpt>
      <trkpt lat="46.280391616746783" lon="8.198706116527319">
        <ele>2408.96</ele>
        <time>2023-09-09T13:40:36Z</time>
      </trkpt>
      <trkpt lat="46.280408883467317" lon="8.198776943609119">
        <ele>2406.77</ele>
        <time>2023-09-09T13:40:45Z</time>
      </trkpt>
      <trkpt lat="46.280440147966146" lon="8.198869479820132">
        <ele>2404.2399999999998</ele>
        <time>2023-09-09T13:40:56Z</time>
      </trkpt>
      <trkpt lat="46.28047258593142" lon="8.198982132598758">
        <ele>2402.8000000000002</ele>
        <time>2023-09-09T13:41:07Z</time>
      </trkpt>
      <trkpt lat="46.280489601194859" lon="8.199086654931307">
        <ele>2401.3400000000001</ele>
        <time>2023-09-09T13:41:19Z</time>
      </trkpt>
      <trkpt lat="46.280487673357129" lon="8.199193943291903">
        <ele>2398.5599999999999</ele>
        <time>2023-09-09T13:41:32Z</time>
      </trkpt>
      <trkpt lat="46.280490858480334" lon="8.199218083173037">
        <ele>2397.1999999999998</ele>
        <time>2023-09-09T13:41:44Z</time>
      </trkpt>
      <trkpt lat="46.280512399971485" lon="8.199253538623452">
        <ele>2395.8899999999999</ele>
        <time>2023-09-09T13:41:58Z</time>
      </trkpt>
      <trkpt lat="46.280530085787177" lon="8.199333753436804">
        <ele>2393.52</ele>
        <time>2023-09-09T13:42:10Z</time>
      </trkpt>
      <trkpt lat="46.280565708875656" lon="8.199406675994396">
        <ele>2390.3800000000001</ele>
        <time>2023-09-09T13:42:21Z</time>
      </trkpt>
      <trkpt lat="46.280560176819563" lon="8.199430396780372">
        <ele>2390.29</ele>
        <time>2023-09-09T13:42:36Z</time>
      </trkpt>
      <trkpt lat="46.280573839321733" lon="8.199521591886878">
        <ele>2389.4699999999998</ele>
        <time>2023-09-09T13:42:47Z</time>
      </trkpt>
      <trkpt lat="46.280597057193518" lon="8.199590994045138">
        <ele>2388.4200000000001</ele>
        <time>2023-09-09T13:42:54Z</time>
      </trkpt>
      <trkpt lat="46.280614910647273" lon="8.199648158624768">
        <ele>2388</ele>
        <time>2023-09-09T13:42:59Z</time>
      </trkpt>
      <trkpt lat="46.28062890842557" lon="8.199792746454477">
        <ele>2386.54</ele>
        <time>2023-09-09T13:43:12Z</time>
      </trkpt>
      <trkpt lat="46.280678529292345" lon="8.199903890490532">
        <ele>2386.6799999999998</ele>
        <time>2023-09-09T13:43:25Z</time>
      </trkpt>
      <trkpt lat="46.280729742720723" lon="8.200070103630424">
        <ele>2386.0599999999999</ele>
        <time>2023-09-09T13:43:42Z</time>
      </trkpt>
      <trkpt lat="46.280764611437917" lon="8.200212931260467">
        <ele>2384.7800000000002</ele>
        <time>2023-09-09T13:43:58Z</time>
      </trkpt>
      <trkpt lat="46.280755223706365" lon="8.200267497450113">
        <ele>2384.0900000000001</ele>
        <time>2023-09-09T13:44:09Z</time>
      </trkpt>
      <trkpt lat="46.280741980299354" lon="8.200276801362634">
        <ele>2384.1100000000001</ele>
        <time>2023-09-09T13:44:31Z</time>
      </trkpt>
      <trkpt lat="46.280734185129404" lon="8.200343102216721">
        <ele>2384.21</ele>
        <time>2023-09-09T13:44:56Z</time>
      </trkpt>
      <trkpt lat="46.280768970027566" lon="8.200452150776982">
        <ele>2384.5500000000002</ele>
        <time>2023-09-09T13:45:07Z</time>
      </trkpt>
      <trkpt lat="46.280835103243589" lon="8.20058492012322">
        <ele>2381.3699999999999</ele>
        <time>2023-09-09T13:45:25Z</time>
      </trkpt>
      <trkpt lat="46.280839880928397" lon="8.200714588165283">
        <ele>2378.3299999999999</ele>
        <time>2023-09-09T13:45:40Z</time>
      </trkpt>
      <trkpt lat="46.280839126557112" lon="8.200891362503171">
        <ele>2375.3000000000002</ele>
        <time>2023-09-09T13:45:57Z</time>
      </trkpt>
      <trkpt lat="46.280831499025226" lon="8.200936708599329">
        <ele>2374.9099999999999</ele>
        <time>2023-09-09T13:46:01Z</time>
      </trkpt>
      <trkpt lat="46.280853794887662" lon="8.201106190681458">
        <ele>2372.9699999999998</ele>
        <time>2023-09-09T13:46:15Z</time>
      </trkpt>
      <trkpt lat="46.280862092971802" lon="8.201208366081119">
        <ele>2372.23</ele>
        <time>2023-09-09T13:46:27Z</time>
      </trkpt>
      <trkpt lat="46.280850693583488" lon="8.20131883956492">
        <ele>2369.5599999999999</ele>
        <time>2023-09-09T13:46:43Z</time>
      </trkpt>
      <trkpt lat="46.280846418812871" lon="8.201376339420676">
        <ele>2365.2199999999998</ele>
        <time>2023-09-09T13:46:55Z</time>
      </trkpt>
      <trkpt lat="46.280840886756778" lon="8.201376171782613">
        <ele>2369.2199999999998</ele>
        <time>2023-09-09T13:46:59Z</time>
      </trkpt>
      <trkpt lat="46.280848849564791" lon="8.201480861753225">
        <ele>2366.1999999999998</ele>
        <time>2023-09-09T13:47:11Z</time>
      </trkpt>
      <trkpt lat="46.280835187062621" lon="8.201601980254054">
        <ele>2363.0700000000002</ele>
        <time>2023-09-09T13:47:23Z</time>
      </trkpt>
      <trkpt lat="46.280819177627563" lon="8.201696109026671">
        <ele>2360.27</ele>
        <time>2023-09-09T13:47:34Z</time>
      </trkpt>
      <trkpt lat="46.280797887593508" lon="8.201779425144196">
        <ele>2358.0300000000002</ele>
        <time>2023-09-09T13:47:42Z</time>
      </trkpt>
      <trkpt lat="46.280776094645262" lon="8.201874559745193">
        <ele>2357.3600000000001</ele>
        <time>2023-09-09T13:47:53Z</time>
      </trkpt>
      <trkpt lat="46.28077601082623" lon="8.202012106776238">
        <ele>2355.77</ele>
        <time>2023-09-09T13:48:06Z</time>
      </trkpt>
      <trkpt lat="46.28075011074543" lon="8.202104307711124">
        <ele>2353.3099999999999</ele>
        <time>2023-09-09T13:48:20Z</time>
      </trkpt>
      <trkpt lat="46.280737705528736" lon="8.202207153663039">
        <ele>2353.1199999999999</ele>
        <time>2023-09-09T13:48:33Z</time>
      </trkpt>
      <trkpt lat="46.28073493950069" lon="8.202232299372554">
        <ele>2352.9899999999998</ele>
        <time>2023-09-09T13:48:36Z</time>
      </trkpt>
      <trkpt lat="46.280684564262629" lon="8.202332211658359">
        <ele>2351.5799999999999</ele>
        <time>2023-09-09T13:48:48Z</time>
      </trkpt>
      <trkpt lat="46.280639469623566" lon="8.202403457835317">
        <ele>2350.48</ele>
        <time>2023-09-09T13:49:00Z</time>
      </trkpt>
      <trkpt lat="46.280661430209875" lon="8.202495826408267">
        <ele>2348.6599999999999</ele>
        <time>2023-09-09T13:49:14Z</time>
      </trkpt>
      <trkpt lat="46.280665369704366" lon="8.202627841383219">
        <ele>2346.5599999999999</ele>
        <time>2023-09-09T13:49:27Z</time>
      </trkpt>
      <trkpt lat="46.280665537342429" lon="8.20263815112412">
        <ele>2346.0900000000001</ele>
        <time>2023-09-09T13:49:28Z</time>
      </trkpt>
      <trkpt lat="46.280671488493681" lon="8.20265231654048">
        <ele>2345.7600000000002</ele>
        <time>2023-09-09T13:49:40Z</time>
      </trkpt>
      <trkpt lat="46.280680540949106" lon="8.202658267691732">
        <ele>2345.4899999999998</ele>
        <time>2023-09-09T13:50:02Z</time>
      </trkpt>
      <trkpt lat="46.280677272006869" lon="8.202663883566856">
        <ele>2345.48</ele>
        <time>2023-09-09T13:50:22Z</time>
      </trkpt>
      <trkpt lat="46.280642487108707" lon="8.202778128907085">
        <ele>2344.6300000000001</ele>
        <time>2023-09-09T13:50:34Z</time>
      </trkpt>
      <trkpt lat="46.280607702210546" lon="8.202896900475025">
        <ele>2342.5799999999999</ele>
        <time>2023-09-09T13:50:47Z</time>
      </trkpt>
      <trkpt lat="46.280584903433919" lon="8.203058671206236">
        <ele>2340.96</ele>
        <time>2023-09-09T13:51:01Z</time>
      </trkpt>
      <trkpt lat="46.280556907877326" lon="8.203168390318751">
        <ele>2339.3000000000002</ele>
        <time>2023-09-09T13:51:12Z</time>
      </trkpt>
      <trkpt lat="46.280561350286007" lon="8.203254640102387">
        <ele>2338.2399999999998</ele>
        <time>2023-09-09T13:51:24Z</time>
      </trkpt>
      <trkpt lat="46.280566044151783" lon="8.203291352838278">
        <ele>2337.9299999999998</ele>
        <time>2023-09-09T13:51:40Z</time>
      </trkpt>
      <trkpt lat="46.280565541237593" lon="8.203313481062651">
        <ele>2337.9299999999998</ele>
        <time>2023-09-09T13:51:42Z</time>
      </trkpt>
      <trkpt lat="46.280563613399863" lon="8.20334667339921">
        <ele>2337.7800000000002</ele>
        <time>2023-09-09T13:51:44Z</time>
      </trkpt>
      <trkpt lat="46.280573839321733" lon="8.203449351713061">
        <ele>2338.2600000000002</ele>
        <time>2023-09-09T13:51:56Z</time>
      </trkpt>
      <trkpt lat="46.280557997524738" lon="8.203572817146778">
        <ele>2337.73</ele>
        <time>2023-09-09T13:52:07Z</time>
      </trkpt>
      <trkpt lat="46.280513489618897" lon="8.203708436340094">
        <ele>2335.3299999999999</ele>
        <time>2023-09-09T13:52:21Z</time>
      </trkpt>
      <trkpt lat="46.280517345294356" lon="8.203827710822225">
        <ele>2334.2800000000002</ele>
        <time>2023-09-09T13:52:33Z</time>
      </trkpt>
      <trkpt lat="46.280547603964806" lon="8.203984955325723">
        <ele>2331.5599999999999</ele>
        <time>2023-09-09T13:52:49Z</time>
      </trkpt>
      <trkpt lat="46.280558165162802" lon="8.203990655019879">
        <ele>2331.0599999999999</ele>
        <time>2023-09-09T13:53:02Z</time>
      </trkpt>
      <trkpt lat="46.280601667240262" lon="8.204082772135735">
        <ele>2329.79</ele>
        <time>2023-09-09T13:53:18Z</time>
      </trkpt>
      <trkpt lat="46.280646258965135" lon="8.204246303066611">
        <ele>2328.6799999999998</ele>
        <time>2023-09-09T13:53:32Z</time>
      </trkpt>
      <trkpt lat="46.280669309198856" lon="8.204324003309012">
        <ele>2327.3299999999999</ele>
        <time>2023-09-09T13:53:45Z</time>
      </trkpt>
      <trkpt lat="46.280678445473313" lon="8.20431855507195">
        <ele>2327.3099999999999</ele>
        <time>2023-09-09T13:54:02Z</time>
      </trkpt>
      <trkpt lat="46.280681630596519" lon="8.20432098582387">
        <ele>2328.5599999999999</ele>
        <time>2023-09-09T13:54:22Z</time>
      </trkpt>
      <trkpt lat="46.280682468786836" lon="8.204321740195155">
        <ele>2326.8699999999999</ele>
        <time>2023-09-09T13:54:25Z</time>
      </trkpt>
      <trkpt lat="46.280684564262629" lon="8.20432148873806">
        <ele>2327.0300000000002</ele>
        <time>2023-09-09T13:54:36Z</time>
      </trkpt>
      <trkpt lat="46.280683390796185" lon="8.204329367727041">
        <ele>2327.5900000000001</ele>
        <time>2023-09-09T13:54:52Z</time>
      </trkpt>
      <trkpt lat="46.280688503757119" lon="8.204355770722032">
        <ele>2326.75</ele>
        <time>2023-09-09T13:55:05Z</time>
      </trkpt>
      <trkpt lat="46.280689258128405" lon="8.204366331920028">
        <ele>2326.5599999999999</ele>
        <time>2023-09-09T13:55:28Z</time>
      </trkpt>
      <trkpt lat="46.280711470171809" lon="8.204419640824199">
        <ele>2326.4000000000001</ele>
        <time>2023-09-09T13:55:44Z</time>
      </trkpt>
      <trkpt lat="46.280724629759789" lon="8.204486276954413">
        <ele>2325.4000000000001</ele>
        <time>2023-09-09T13:55:55Z</time>
      </trkpt>
      <trkpt lat="46.280772993341088" lon="8.204627763479948">
        <ele>2323.9899999999998</ele>
        <time>2023-09-09T13:56:09Z</time>
      </trkpt>
      <trkpt lat="46.280778022482991" lon="8.204633295536041">
        <ele>2323.0799999999999</ele>
        <time>2023-09-09T13:56:20Z</time>
      </trkpt>
      <trkpt lat="46.280799312517047" lon="8.204676965251565">
        <ele>2322.5799999999999</ele>
        <time>2023-09-09T13:56:25Z</time>
      </trkpt>
      <trkpt lat="46.280847257003188" lon="8.204823900014162">
        <ele>2320.8499999999999</ele>
        <time>2023-09-09T13:56:38Z</time>
      </trkpt>
      <trkpt lat="46.280877264216542" lon="8.204956166446209">
        <ele>2317.6199999999999</ele>
        <time>2023-09-09T13:56:49Z</time>
      </trkpt>
      <trkpt lat="46.280920431017876" lon="8.205077201128006">
        <ele>2315.23</ele>
        <time>2023-09-09T13:57:02Z</time>
      </trkpt>
      <trkpt lat="46.28093434497714" lon="8.205134198069572">
        <ele>2314.2600000000002</ele>
        <time>2023-09-09T13:57:11Z</time>
      </trkpt>
      <trkpt lat="46.280960496515036" lon="8.205190105363727">
        <ele>2313.4699999999998</ele>
        <time>2023-09-09T13:57:16Z</time>
      </trkpt>
      <trkpt lat="46.281039286404848" lon="8.205237714573741">
        <ele>2315.3600000000001</ele>
        <time>2023-09-09T13:57:31Z</time>
      </trkpt>
      <trkpt lat="46.281080022454262" lon="8.205292113125324">
        <ele>2315.8499999999999</ele>
        <time>2023-09-09T13:57:45Z</time>
      </trkpt>
      <trkpt lat="46.281081279739738" lon="8.205322455614805">
        <ele>2315.6300000000001</ele>
        <time>2023-09-09T13:58:55Z</time>
      </trkpt>
      <trkpt lat="46.281117657199502" lon="8.205397976562381">
        <ele>2315.8099999999999</ele>
        <time>2023-09-09T13:59:09Z</time>
      </trkpt>
      <trkpt lat="46.281121345236897" lon="8.205405939370394">
        <ele>2315.7199999999998</ele>
        <time>2023-09-09T13:59:29Z</time>
      </trkpt>
      <trkpt lat="46.281124195083976" lon="8.205420523881912">
        <ele>2315.5900000000001</ele>
        <time>2023-09-09T13:59:39Z</time>
      </trkpt>
      <trkpt lat="46.281145652756095" lon="8.205455476418138">
        <ele>2315.3299999999999</ele>
        <time>2023-09-09T13:59:42Z</time>
      </trkpt>
      <trkpt lat="46.28124606795609" lon="8.205596460029483">
        <ele>2315.9699999999998</ele>
        <time>2023-09-09T13:59:57Z</time>
      </trkpt>
      <trkpt lat="46.281319912523031" lon="8.20565446279943">
        <ele>2318.3000000000002</ele>
        <time>2023-09-09T14:00:11Z</time>
      </trkpt>
      <trkpt lat="46.2813716288656" lon="8.205681871622801">
        <ele>2320.9000000000001</ele>
        <time>2023-09-09T14:00:26Z</time>
      </trkpt>
      <trkpt lat="46.281384704634547" lon="8.205743730068207">
        <ele>2322.6100000000001</ele>
        <time>2023-09-09T14:00:39Z</time>
      </trkpt>
      <trkpt lat="46.281384453177452" lon="8.205772144719958">
        <ele>2323.6199999999999</ele>
        <time>2023-09-09T14:00:52Z</time>
      </trkpt>
      <trkpt lat="46.281408341601491" lon="8.205793183296919">
        <ele>2324.9699999999998</ele>
        <time>2023-09-09T14:01:08Z</time>
      </trkpt>
      <trkpt lat="46.281436420977116" lon="8.205793183296919">
        <ele>2325.4099999999999</ele>
        <time>2023-09-09T14:01:22Z</time>
      </trkpt>
      <trkpt lat="46.281467853114009" lon="8.205792093649507">
        <ele>2326.4699999999998</ele>
        <time>2023-09-09T14:01:38Z</time>
      </trkpt>
      <trkpt lat="46.281508421525359" lon="8.205794524401426">
        <ele>2328.0300000000002</ele>
        <time>2023-09-09T14:01:51Z</time>
      </trkpt>
      <trkpt lat="46.281528705731034" lon="8.205791506916285">
        <ele>2329.3600000000001</ele>
        <time>2023-09-09T14:02:04Z</time>
      </trkpt>
      <trkpt lat="46.281563071534038" lon="8.205789495259523">
        <ele>2330.5900000000001</ele>
        <time>2023-09-09T14:02:21Z</time>
      </trkpt>
      <trkpt lat="46.281617050990462" lon="8.205802235752344">
        <ele>2333.29</ele>
        <time>2023-09-09T14:02:35Z</time>
      </trkpt>
      <trkpt lat="46.281671868637204" lon="8.205818999558687">
        <ele>2335.1799999999998</ele>
        <time>2023-09-09T14:02:48Z</time>
      </trkpt>
      <trkpt lat="46.281708749011159" lon="8.205818245187402">
        <ele>2335.3499999999999</ele>
        <time>2023-09-09T14:03:08Z</time>
      </trkpt>
      <trkpt lat="46.281763482838869" lon="8.205815814435482">
        <ele>2336.79</ele>
        <time>2023-09-09T14:03:19Z</time>
      </trkpt>
      <trkpt lat="46.281813690438867" lon="8.205877337604761">
        <ele>2337.4699999999998</ele>
        <time>2023-09-09T14:03:32Z</time>
      </trkpt>
      <trkpt lat="46.28184805624187" lon="8.205890581011772">
        <ele>2338.8499999999999</ele>
        <time>2023-09-09T14:03:42Z</time>
      </trkpt>
      <trkpt lat="46.281894324347377" lon="8.20591245777905">
        <ele>2340.5799999999999</ele>
        <time>2023-09-09T14:03:54Z</time>
      </trkpt>
      <trkpt lat="46.281932462006807" lon="8.205987475812435">
        <ele>2342.4000000000001</ele>
        <time>2023-09-09T14:04:07Z</time>
      </trkpt>
      <trkpt lat="46.281950986012816" lon="8.206046400591731">
        <ele>2343.3899999999999</ele>
        <time>2023-09-09T14:04:17Z</time>
      </trkpt>
      <trkpt lat="46.281975461170077" lon="8.206092165783048">
        <ele>2345.0100000000002</ele>
        <time>2023-09-09T14:04:28Z</time>
      </trkpt>
      <trkpt lat="46.281996415928006" lon="8.206150252372026">
        <ele>2346.7399999999998</ele>
        <time>2023-09-09T14:04:41Z</time>
      </trkpt>
      <trkpt lat="46.28200932405889" lon="8.206215966492891">
        <ele>2347.8600000000001</ele>
        <time>2023-09-09T14:04:52Z</time>
      </trkpt>
      <trkpt lat="46.282023405656219" lon="8.206327613443136">
        <ele>2348.9000000000001</ele>
        <time>2023-09-09T14:05:07Z</time>
      </trkpt>
      <trkpt lat="46.282031117007136" lon="8.206440936774015">
        <ele>2350.1900000000001</ele>
        <time>2023-09-09T14:05:22Z</time>
      </trkpt>
      <trkpt lat="46.28204938955605" lon="8.20651394315064">
        <ele>2351.4699999999998</ele>
        <time>2023-09-09T14:05:36Z</time>
      </trkpt>
      <trkpt lat="46.282062213867903" lon="8.206551158800721">
        <ele>2352.8400000000001</ele>
        <time>2023-09-09T14:05:47Z</time>
      </trkpt>
      <trkpt lat="46.282077049836516" lon="8.206587955355644">
        <ele>2354.27</ele>
        <time>2023-09-09T14:05:58Z</time>
      </trkpt>
      <trkpt lat="46.28207478672266" lon="8.206642773002386">
        <ele>2355.9499999999998</ele>
        <time>2023-09-09T14:06:11Z</time>
      </trkpt>
      <trkpt lat="46.282088197767735" lon="8.206712426617742">
        <ele>2357.25</ele>
        <time>2023-09-09T14:06:26Z</time>
      </trkpt>
      <trkpt lat="46.282097166404128" lon="8.206745116040111">
        <ele>2358.4200000000001</ele>
        <time>2023-09-09T14:06:37Z</time>
      </trkpt>
      <trkpt lat="46.282119881361723" lon="8.206788953393698">
        <ele>2360.4200000000001</ele>
        <time>2023-09-09T14:06:50Z</time>
      </trkpt>
      <trkpt lat="46.282147625461221" lon="8.206805214285851">
        <ele>2362.0300000000002</ele>
        <time>2023-09-09T14:07:03Z</time>
      </trkpt>
      <trkpt lat="46.282184673473239" lon="8.206837065517902">
        <ele>2363.3899999999999</ele>
        <time>2023-09-09T14:07:13Z</time>
      </trkpt>
      <trkpt lat="46.282237898558378" lon="8.206871347501874">
        <ele>2364.6500000000001</ele>
        <time>2023-09-09T14:07:24Z</time>
      </trkpt>
      <trkpt lat="46.282266899943352" lon="8.206871682778001">
        <ele>2365.7600000000002</ele>
        <time>2023-09-09T14:07:33Z</time>
      </trkpt>
      <trkpt lat="46.282323226332664" lon="8.206894481554627">
        <ele>2367.9299999999998</ele>
        <time>2023-09-09T14:07:48Z</time>
      </trkpt>
      <trkpt lat="46.282359687611461" lon="8.206928260624409">
        <ele>2369.1999999999998</ele>
        <time>2023-09-09T14:08:00Z</time>
      </trkpt>
      <trkpt lat="46.282382905483246" lon="8.207013001665473">
        <ele>2370.6700000000001</ele>
        <time>2023-09-09T14:08:13Z</time>
      </trkpt>
      <trkpt lat="46.282397825270891" lon="8.207078380510211">
        <ele>2372.1799999999998</ele>
        <time>2023-09-09T14:08:24Z</time>
      </trkpt>
      <trkpt lat="46.282423138618469" lon="8.207131270319223">
        <ele>2373.6900000000001</ele>
        <time>2023-09-09T14:08:36Z</time>
      </trkpt>
      <trkpt lat="46.282441830262542" lon="8.207167312502861">
        <ele>2374.8699999999999</ele>
        <time>2023-09-09T14:08:46Z</time>
      </trkpt>
      <trkpt lat="46.282479716464877" lon="8.207223052158952">
        <ele>2376.48</ele>
        <time>2023-09-09T14:08:59Z</time>
      </trkpt>
      <trkpt lat="46.282489942386746" lon="8.207228248938918">
        <ele>2376.8899999999999</ele>
        <time>2023-09-09T14:09:02Z</time>
      </trkpt>
      <trkpt lat="46.282498827204108" lon="8.207204611971974">
        <ele>2377.3600000000001</ele>
        <time>2023-09-09T14:09:07Z</time>
      </trkpt>
      <trkpt lat="46.282540988177061" lon="8.207173263654113">
        <ele>2378.7800000000002</ele>
        <time>2023-09-09T14:09:16Z</time>
      </trkpt>
      <trkpt lat="46.282588848844171" lon="8.207123475149274">
        <ele>2379.2800000000002</ele>
        <time>2023-09-09T14:09:25Z</time>
      </trkpt>
      <trkpt lat="46.282649869099259" lon="8.207135628908873">
        <ele>2379.79</ele>
        <time>2023-09-09T14:09:36Z</time>
      </trkpt>
      <trkpt lat="46.282732263207436" lon="8.207151303067803">
        <ele>2379.6900000000001</ele>
        <time>2023-09-09T14:09:47Z</time>
      </trkpt>
      <trkpt lat="46.28280334174633" lon="8.207147615030408">
        <ele>2378.8200000000002</ele>
        <time>2023-09-09T14:09:57Z</time>
      </trkpt>
      <trkpt lat="46.282869558781385" lon="8.207150464877486">
        <ele>2378.3000000000002</ele>
        <time>2023-09-09T14:10:07Z</time>
      </trkpt>
      <trkpt lat="46.28290593624115" lon="8.20715893059969">
        <ele>2378.5300000000002</ele>
        <time>2023-09-09T14:10:12Z</time>
      </trkpt>
      <trkpt lat="46.282938960939646" lon="8.207162199541926">
        <ele>2377.9200000000001</ele>
        <time>2023-09-09T14:10:17Z</time>
      </trkpt>
      <trkpt lat="46.28299729898572" lon="8.207124900072813">
        <ele>2377.1399999999999</ele>
        <time>2023-09-09T14:10:26Z</time>
      </trkpt>
      <trkpt lat="46.283044656738639" lon="8.207111237570643">
        <ele>2376.8000000000002</ele>
        <time>2023-09-09T14:10:35Z</time>
      </trkpt>
      <trkpt lat="46.283062007278204" lon="8.207111656665802">
        <ele>2376.5300000000002</ele>
        <time>2023-09-09T14:10:38Z</time>
      </trkpt>
      <trkpt lat="46.283089919015765" lon="8.207114757969976">
        <ele>2375.9699999999998</ele>
        <time>2023-09-09T14:10:41Z</time>
      </trkpt>
      <trkpt lat="46.28311020322144" lon="8.2071135006845">
        <ele>2375.6900000000001</ele>
        <time>2023-09-09T14:10:43Z</time>
      </trkpt>
      <trkpt lat="46.283160578459501" lon="8.20710570551455">
        <ele>2375</ele>
        <time>2023-09-09T14:10:54Z</time>
      </trkpt>
      <trkpt lat="46.283202571794391" lon="8.207121212035418">
        <ele>2374.2800000000002</ele>
        <time>2023-09-09T14:11:13Z</time>
      </trkpt>
      <trkpt lat="46.283219754695892" lon="8.207111991941929">
        <ele>2373.8099999999999</ele>
        <time>2023-09-09T14:11:15Z</time>
      </trkpt>
      <trkpt lat="46.283253533765674" lon="8.207102185115218">
        <ele>2373.1199999999999</ele>
        <time>2023-09-09T14:11:20Z</time>
      </trkpt>
      <trkpt lat="46.283286977559328" lon="8.207113249227405">
        <ele>2372</ele>
        <time>2023-09-09T14:11:25Z</time>
      </trkpt>
      <trkpt lat="46.283335257321596" lon="8.20711987093091">
        <ele>2371.25</ele>
        <time>2023-09-09T14:11:30Z</time>
      </trkpt>
      <trkpt lat="46.283388314768672" lon="8.207099754363298">
        <ele>2371.5300000000002</ele>
        <time>2023-09-09T14:11:36Z</time>
      </trkpt>
      <trkpt lat="46.283419579267502" lon="8.207101430743933">
        <ele>2371.5999999999999</ele>
        <time>2023-09-09T14:11:39Z</time>
      </trkpt>
      <trkpt lat="46.283467775210738" lon="8.207075782120228">
        <ele>2371.2199999999998</ele>
        <time>2023-09-09T14:11:51Z</time>
      </trkpt>
      <trkpt lat="46.283480431884527" lon="8.207083074375987">
        <ele>2371.02</ele>
        <time>2023-09-09T14:11:53Z</time>
      </trkpt>
      <trkpt lat="46.283503901213408" lon="8.207095982506871">
        <ele>2370.5500000000002</ele>
        <time>2023-09-09T14:11:55Z</time>
      </trkpt>
      <trkpt lat="46.283548660576344" lon="8.207083409652114">
        <ele>2370.0700000000002</ele>
        <time>2023-09-09T14:12:00Z</time>
      </trkpt>
      <trkpt lat="46.283572800457478" lon="8.207078129053116">
        <ele>2370.0599999999999</ele>
        <time>2023-09-09T14:12:02Z</time>
      </trkpt>
      <trkpt lat="46.28358269110322" lon="8.207072513177991">
        <ele>2369.9899999999998</ele>
        <time>2023-09-09T14:12:03Z</time>
      </trkpt>
      <trkpt lat="46.283588390797377" lon="8.207064885646105">
        <ele>2370.0100000000002</ele>
        <time>2023-09-09T14:12:04Z</time>
      </trkpt>
      <trkpt lat="46.283668605610728" lon="8.207052396610379">
        <ele>2369.9200000000001</ele>
        <time>2023-09-09T14:12:14Z</time>
      </trkpt>
      <trkpt lat="46.283664917573333" lon="8.207053150981665">
        <ele>2369.9000000000001</ele>
        <time>2023-09-09T14:12:28Z</time>
      </trkpt>
      <trkpt lat="46.283691991120577" lon="8.207043008878827">
        <ele>2369.8000000000002</ele>
        <time>2023-09-09T14:12:34Z</time>
      </trkpt>
      <trkpt lat="46.28371168859303" lon="8.207034543156624">
        <ele>2370.0799999999999</ele>
        <time>2023-09-09T14:12:36Z</time>
      </trkpt>
      <trkpt lat="46.283721579238772" lon="8.207028675824404">
        <ele>2370</ele>
        <time>2023-09-09T14:12:37Z</time>
      </trkpt>
      <trkpt lat="46.283730799332261" lon="8.207019874826074">
        <ele>2369.9499999999998</ele>
        <time>2023-09-09T14:12:38Z</time>
      </trkpt>
      <trkpt lat="46.283861724659801" lon="8.20692784152925">
        <ele>2369.8099999999999</ele>
        <time>2023-09-09T14:12:52Z</time>
      </trkpt>
      <trkpt lat="46.28390908241272" lon="8.206906635314226">
        <ele>2369.7600000000002</ele>
        <time>2023-09-09T14:12:57Z</time>
      </trkpt>
      <trkpt lat="46.283972365781665" lon="8.20685550570488">
        <ele>2370.1799999999998</ele>
        <time>2023-09-09T14:13:06Z</time>
      </trkpt>
      <trkpt lat="46.284005641937256" lon="8.206821139901876">
        <ele>2370.4499999999998</ele>
        <time>2023-09-09T14:13:10Z</time>
      </trkpt>
      <trkpt lat="46.284073954448104" lon="8.206769758835435">
        <ele>2370.2199999999998</ele>
        <time>2023-09-09T14:13:18Z</time>
      </trkpt>
      <trkpt lat="46.284116534516215" lon="8.206741511821747">
        <ele>2370.21</ele>
        <time>2023-09-09T14:13:23Z</time>
      </trkpt>
      <trkpt lat="46.284174202010036" lon="8.206702787429094">
        <ele>2370.73</ele>
        <time>2023-09-09T14:13:30Z</time>
      </trkpt>
      <trkpt lat="46.284228097647429" lon="8.206648221239448">
        <ele>2370.25</ele>
        <time>2023-09-09T14:13:37Z</time>
      </trkpt>
      <trkpt lat="46.284270761534572" lon="8.206601198762655">
        <ele>2370.48</ele>
        <time>2023-09-09T14:13:43Z</time>
      </trkpt>
      <trkpt lat="46.284374948590994" lon="8.206545123830438">
        <ele>2370.9099999999999</ele>
        <time>2023-09-09T14:13:56Z</time>
      </trkpt>
      <trkpt lat="46.284401267766953" lon="8.206571275368333">
        <ele>2370.6700000000001</ele>
        <time>2023-09-09T14:14:10Z</time>
      </trkpt>
      <trkpt lat="46.284442758187652" lon="8.206565408036113">
        <ele>2370.6799999999998</ele>
        <time>2023-09-09T14:14:15Z</time>
      </trkpt>
      <trkpt lat="46.284453487023711" lon="8.206566916778684">
        <ele>2370.7199999999998</ele>
        <time>2023-09-09T14:14:16Z</time>
      </trkpt>
      <trkpt lat="46.284509897232056" lon="8.206550152972341">
        <ele>2370.4200000000001</ele>
        <time>2023-09-09T14:14:25Z</time>
      </trkpt>
      <trkpt lat="46.284518195316195" lon="8.206545040011406">
        <ele>2370.3800000000001</ele>
        <time>2023-09-09T14:14:26Z</time>
      </trkpt>
      <trkpt lat="46.284527331590652" lon="8.206539591774344">
        <ele>2370.4499999999998</ele>
        <time>2023-09-09T14:14:27Z</time>
      </trkpt>
      <trkpt lat="46.284537725150585" lon="8.20653548464179">
        <ele>2370.46</ele>
        <time>2023-09-09T14:14:28Z</time>
      </trkpt>
      <trkpt lat="46.284548286348581" lon="8.206534143537283">
        <ele>2370.3800000000001</ele>
        <time>2023-09-09T14:14:29Z</time>
      </trkpt>
      <trkpt lat="46.284559099003673" lon="8.206537161022425">
        <ele>2370.4099999999999</ele>
        <time>2023-09-09T14:14:30Z</time>
      </trkpt>
      <trkpt lat="46.284568822011352" lon="8.206544537097216">
        <ele>2370.3400000000001</ele>
        <time>2023-09-09T14:14:31Z</time>
      </trkpt>
      <trkpt lat="46.284641660749912" lon="8.206629026681185">
        <ele>2370.4299999999998</ele>
        <time>2023-09-09T14:14:43Z</time>
      </trkpt>
      <trkpt lat="46.284663705155253" lon="8.20665274746716">
        <ele>2370.5500000000002</ele>
        <time>2023-09-09T14:14:53Z</time>
      </trkpt>
      <trkpt lat="46.284698154777288" lon="8.206707648932934">
        <ele>2370.3200000000002</ele>
        <time>2023-09-09T14:21:05Z</time>
      </trkpt>
      <trkpt lat="46.284704608842731" lon="8.206715192645788">
        <ele>2370.3400000000001</ele>
        <time>2023-09-09T14:21:06Z</time>
      </trkpt>
      <trkpt lat="46.284718522801995" lon="8.206751234829426">
        <ele>2371.7600000000002</ele>
        <time>2023-09-09T14:21:15Z</time>
      </trkpt>
      <trkpt lat="46.284724641591311" lon="8.206815272569656">
        <ele>2373.29</ele>
        <time>2023-09-09T14:21:26Z</time>
      </trkpt>
      <trkpt lat="46.284706369042397" lon="8.20686724036932">
        <ele>2374.0500000000002</ele>
        <time>2023-09-09T14:21:33Z</time>
      </trkpt>
      <trkpt lat="46.284699076786637" lon="8.20689364336431">
        <ele>2374.8600000000001</ele>
        <time>2023-09-09T14:21:40Z</time>
      </trkpt>
      <trkpt lat="46.284691533073783" lon="8.2069684099406">
        <ele>2376.7199999999998</ele>
        <time>2023-09-09T14:21:55Z</time>
      </trkpt>
      <trkpt lat="46.284685246646404" lon="8.207043427973986">
        <ele>2378.1100000000001</ele>
        <time>2023-09-09T14:22:08Z</time>
      </trkpt>
      <trkpt lat="46.284693041816354" lon="8.207078715786338">
        <ele>2378.5999999999999</ele>
        <time>2023-09-09T14:22:23Z</time>
      </trkpt>
      <trkpt lat="46.284728413447738" lon="8.207117021083832">
        <ele>2379.7399999999998</ele>
        <time>2023-09-09T14:22:34Z</time>
      </trkpt>
      <trkpt lat="46.284732269123197" lon="8.207180807366967">
        <ele>2380.9499999999998</ele>
        <time>2023-09-09T14:22:46Z</time>
      </trkpt>
      <trkpt lat="46.28475196659565" lon="8.207242833450437">
        <ele>2382.5</ele>
        <time>2023-09-09T14:23:00Z</time>
      </trkpt>
      <trkpt lat="46.284764287993312" lon="8.207310391589999">
        <ele>2383.4200000000001</ele>
        <time>2023-09-09T14:23:10Z</time>
      </trkpt>
      <trkpt lat="46.284752385690808" lon="8.207370573654771">
        <ele>2384.4899999999998</ele>
        <time>2023-09-09T14:23:19Z</time>
      </trkpt>
      <trkpt lat="46.284724557772279" lon="8.207413824275136">
        <ele>2385.3000000000002</ele>
        <time>2023-09-09T14:23:29Z</time>
      </trkpt>
      <trkpt lat="46.284663788974285" lon="8.207400664687157">
        <ele>2386.02</ele>
        <time>2023-09-09T14:23:42Z</time>
      </trkpt>
      <trkpt lat="46.28463763743639" lon="8.20739546790719">
        <ele>2386.1199999999999</ele>
        <time>2023-09-09T14:23:46Z</time>
      </trkpt>
      <trkpt lat="46.284601343795657" lon="8.207412483170629">
        <ele>2386.8200000000002</ele>
        <time>2023-09-09T14:23:55Z</time>
      </trkpt>
      <trkpt lat="46.28456823527813" lon="8.207440646365285">
        <ele>2386.9200000000001</ele>
        <time>2023-09-09T14:24:00Z</time>
      </trkpt>
      <trkpt lat="46.284511322155595" lon="8.207462606951594">
        <ele>2387.4699999999998</ele>
        <time>2023-09-09T14:24:09Z</time>
      </trkpt>
      <trkpt lat="46.284507298842072" lon="8.207457074895501">
        <ele>2387.6599999999999</ele>
        <time>2023-09-09T14:24:22Z</time>
      </trkpt>
      <trkpt lat="46.284511489793658" lon="8.207457158714533">
        <ele>2387.6799999999998</ele>
        <time>2023-09-09T14:24:33Z</time>
      </trkpt>
      <trkpt lat="46.2844851706177" lon="8.207476856186986">
        <ele>2387.7600000000002</ele>
        <time>2023-09-09T14:24:53Z</time>
      </trkpt>
      <trkpt lat="46.284433202818036" lon="8.207566710188985">
        <ele>2388.3600000000001</ele>
        <time>2023-09-09T14:25:04Z</time>
      </trkpt>
      <trkpt lat="46.284423312172294" lon="8.207567045465112">
        <ele>2388.1999999999998</ele>
        <time>2023-09-09T14:25:05Z</time>
      </trkpt>
      <trkpt lat="46.284412164241076" lon="8.207567296922207">
        <ele>2388.3800000000001</ele>
        <time>2023-09-09T14:25:06Z</time>
      </trkpt>
      <trkpt lat="46.284374361857772" lon="8.207577522844076">
        <ele>2388.1300000000001</ele>
        <time>2023-09-09T14:25:10Z</time>
      </trkpt>
      <trkpt lat="46.284325495362282" lon="8.207661677151918">
        <ele>2389.5100000000002</ele>
        <time>2023-09-09T14:25:20Z</time>
      </trkpt>
      <trkpt lat="46.284261792898178" lon="8.207760667428374">
        <ele>2390.1399999999999</ele>
        <time>2023-09-09T14:25:31Z</time>
      </trkpt>
      <trkpt lat="46.284191468730569" lon="8.20785135962069">
        <ele>2390.48</ele>
        <time>2023-09-09T14:25:42Z</time>
      </trkpt>
      <trkpt lat="46.284159701317549" lon="8.20794322527945">
        <ele>2392.3400000000001</ele>
        <time>2023-09-09T14:25:56Z</time>
      </trkpt>
      <trkpt lat="46.284145871177316" lon="8.208014136180282">
        <ele>2394.5599999999999</ele>
        <time>2023-09-09T14:26:08Z</time>
      </trkpt>
      <trkpt lat="46.284121060743928" lon="8.208075407892466">
        <ele>2396.6199999999999</ele>
        <time>2023-09-09T14:26:21Z</time>
      </trkpt>
      <trkpt lat="46.284108990803361" lon="8.208130225539208">
        <ele>2398.3600000000001</ele>
        <time>2023-09-09T14:26:33Z</time>
      </trkpt>
      <trkpt lat="46.284086778759956" lon="8.208170626312494">
        <ele>2399.8899999999999</ele>
        <time>2023-09-09T14:26:45Z</time>
      </trkpt>
      <trkpt lat="46.284082839265466" lon="8.208222929388285">
        <ele>2401.4200000000001</ele>
        <time>2023-09-09T14:26:58Z</time>
      </trkpt>
      <trkpt lat="46.28406498581171" lon="8.208283362910152">
        <ele>2403.4000000000001</ele>
        <time>2023-09-09T14:27:11Z</time>
      </trkpt>
      <trkpt lat="46.284050568938255" lon="8.208342371508479">
        <ele>2405.0100000000002</ele>
        <time>2023-09-09T14:27:23Z</time>
      </trkpt>
      <trkpt lat="46.284031374379992" lon="8.208396602421999">
        <ele>2406.5599999999999</ele>
        <time>2023-09-09T14:27:35Z</time>
      </trkpt>
      <trkpt lat="46.284037241712213" lon="8.208445971831679">
        <ele>2408.0500000000002</ele>
        <time>2023-09-09T14:27:47Z</time>
      </trkpt>
      <trkpt lat="46.284027099609375" lon="8.208482852205634">
        <ele>2409.8000000000002</ele>
        <time>2023-09-09T14:28:00Z</time>
      </trkpt>
      <trkpt lat="46.284020394086838" lon="8.208530377596617">
        <ele>2411.1700000000001</ele>
        <time>2023-09-09T14:28:15Z</time>
      </trkpt>
      <trkpt lat="46.284021399915218" lon="8.208577567711473">
        <ele>2412.79</ele>
        <time>2023-09-09T14:28:28Z</time>
      </trkpt>
      <trkpt lat="46.284003630280495" lon="8.208614028990269">
        <ele>2414.29</ele>
        <time>2023-09-09T14:28:40Z</time>
      </trkpt>
      <trkpt lat="46.283985525369644" lon="8.208683347329497">
        <ele>2415.9899999999998</ele>
        <time>2023-09-09T14:28:53Z</time>
      </trkpt>
      <trkpt lat="46.284002037718892" lon="8.208737829700112">
        <ele>2417.4400000000001</ele>
        <time>2023-09-09T14:29:06Z</time>
      </trkpt>
      <trkpt lat="46.284005222842097" lon="8.208789126947522">
        <ele>2418.7800000000002</ele>
        <time>2023-09-09T14:29:16Z</time>
      </trkpt>
      <trkpt lat="46.283985357731581" lon="8.208862636238337">
        <ele>2420.5100000000002</ele>
        <time>2023-09-09T14:29:32Z</time>
      </trkpt>
      <trkpt lat="46.283991225063801" lon="8.208890547975898">
        <ele>2421.5700000000002</ele>
        <time>2023-09-09T14:29:43Z</time>
      </trkpt>
      <trkpt lat="46.28398485481739" lon="8.208895409479737">
        <ele>2421.6799999999998</ele>
        <time>2023-09-09T14:29:59Z</time>
      </trkpt>
      <trkpt lat="46.28400388173759" lon="8.208972774446011">
        <ele>2422.48</ele>
        <time>2023-09-09T14:30:15Z</time>
      </trkpt>
      <trkpt lat="46.284042438492179" lon="8.209065897390246">
        <ele>2422.3499999999999</ele>
        <time>2023-09-09T14:30:24Z</time>
      </trkpt>
      <trkpt lat="46.284081246703863" lon="8.209204450249672">
        <ele>2423.3899999999999</ele>
        <time>2023-09-09T14:30:38Z</time>
      </trkpt>
      <trkpt lat="46.284072445705533" lon="8.209324646741152">
        <ele>2425.4899999999998</ele>
        <time>2023-09-09T14:30:52Z</time>
      </trkpt>
      <trkpt lat="46.284069009125233" lon="8.209363371133804">
        <ele>2426.0799999999999</ele>
        <time>2023-09-09T14:31:03Z</time>
      </trkpt>
      <trkpt lat="46.284094490110874" lon="8.209405867382884">
        <ele>2426.1900000000001</ele>
        <time>2023-09-09T14:31:19Z</time>
      </trkpt>
      <trkpt lat="46.284108320251107" lon="8.209532266482711">
        <ele>2427.6300000000001</ele>
        <time>2023-09-09T14:31:34Z</time>
      </trkpt>
      <trkpt lat="46.284091472625732" lon="8.209612062200904">
        <ele>2429.0700000000002</ele>
        <time>2023-09-09T14:31:47Z</time>
      </trkpt>
      <trkpt lat="46.284085940569639" lon="8.209661599248648">
        <ele>2429.6799999999998</ele>
        <time>2023-09-09T14:32:04Z</time>
      </trkpt>
      <trkpt lat="46.284105386584997" lon="8.209736030548811">
        <ele>2431.8600000000001</ele>
        <time>2023-09-09T14:32:17Z</time>
      </trkpt>
      <trkpt lat="46.284101363271475" lon="8.209760170429945">
        <ele>2431.6999999999998</ele>
        <time>2023-09-09T14:32:31Z</time>
      </trkpt>
      <trkpt lat="46.284098345786333" lon="8.209762685000897">
        <ele>2432.0799999999999</ele>
        <time>2023-09-09T14:33:10Z</time>
      </trkpt>
      <trkpt lat="46.284094322472811" lon="8.209777353331447">
        <ele>2432.23</ele>
        <time>2023-09-09T14:33:27Z</time>
      </trkpt>
      <trkpt lat="46.284109326079488" lon="8.209886066615582">
        <ele>2433.3400000000001</ele>
        <time>2023-09-09T14:33:39Z</time>
      </trkpt>
      <trkpt lat="46.284151403233409" lon="8.210025038570166">
        <ele>2433.6199999999999</ele>
        <time>2023-09-09T14:33:52Z</time>
      </trkpt>
      <trkpt lat="46.284207729622722" lon="8.210134673863649">
        <ele>2435.1900000000001</ele>
        <time>2023-09-09T14:34:06Z</time>
      </trkpt>
      <trkpt lat="46.284235725179315" lon="8.210172392427921">
        <ele>2436.4400000000001</ele>
        <time>2023-09-09T14:34:19Z</time>
      </trkpt>
      <trkpt lat="46.284281322732568" lon="8.210202232003212">
        <ele>2438.2600000000002</ele>
        <time>2023-09-09T14:34:31Z</time>
      </trkpt>
      <trkpt lat="46.284320969134569" lon="8.210274064913392">
        <ele>2439.6300000000001</ele>
        <time>2023-09-09T14:34:44Z</time>
      </trkpt>
      <trkpt lat="46.284338403493166" lon="8.210288817062974">
        <ele>2440.3200000000002</ele>
        <time>2023-09-09T14:34:47Z</time>
      </trkpt>
      <trkpt lat="46.284352568909526" lon="8.210315303876996">
        <ele>2440.79</ele>
        <time>2023-09-09T14:34:52Z</time>
      </trkpt>
      <trkpt lat="46.284365225583315" lon="8.210410103201866">
        <ele>2442.6599999999999</ele>
        <time>2023-09-09T14:35:06Z</time>
      </trkpt>
      <trkpt lat="46.284372182562947" lon="8.210511272773147">
        <ele>2443.8699999999999</ele>
        <time>2023-09-09T14:35:19Z</time>
      </trkpt>
      <trkpt lat="46.284418702125549" lon="8.210600707679987">
        <ele>2443.9899999999998</ele>
        <time>2023-09-09T14:35:31Z</time>
      </trkpt>
      <trkpt lat="46.284472513943911" lon="8.210641443729401">
        <ele>2444.2199999999998</ele>
        <time>2023-09-09T14:35:43Z</time>
      </trkpt>
      <trkpt lat="46.284526074305177" lon="8.210711851716042">
        <ele>2443.8400000000001</ele>
        <time>2023-09-09T14:35:54Z</time>
      </trkpt>
      <trkpt lat="46.284558931365609" lon="8.210778320208192">
        <ele>2443.8699999999999</ele>
        <time>2023-09-09T14:36:03Z</time>
      </trkpt>
      <trkpt lat="46.284595895558596" lon="8.210812769830227">
        <ele>2445.0500000000002</ele>
        <time>2023-09-09T14:36:12Z</time>
      </trkpt>
      <trkpt lat="46.284639229997993" lon="8.210846548900008">
        <ele>2447.3200000000002</ele>
        <time>2023-09-09T14:36:26Z</time>
      </trkpt>
      <trkpt lat="46.284647360444069" lon="8.210912263020873">
        <ele>2448.7800000000002</ele>
        <time>2023-09-09T14:36:38Z</time>
      </trkpt>
      <trkpt lat="46.284654652699828" lon="8.210994154214859">
        <ele>2450.8800000000001</ele>
        <time>2023-09-09T14:36:51Z</time>
      </trkpt>
      <trkpt lat="46.284664459526539" lon="8.211062718182802">
        <ele>2452.7199999999998</ele>
        <time>2023-09-09T14:37:05Z</time>
      </trkpt>
      <trkpt lat="46.284661861136556" lon="8.211123738437891">
        <ele>2454.3299999999999</ele>
        <time>2023-09-09T14:37:18Z</time>
      </trkpt>
      <trkpt lat="46.28465523943305" lon="8.211121642962098">
        <ele>2453.8699999999999</ele>
        <time>2023-09-09T14:37:42Z</time>
      </trkpt>
      <trkpt lat="46.284656329080462" lon="8.211199259385467">
        <ele>2455.5700000000002</ele>
        <time>2023-09-09T14:38:05Z</time>
      </trkpt>
      <trkpt lat="46.28467770293355" lon="8.211258267983794">
        <ele>2458.6900000000001</ele>
        <time>2023-09-09T14:38:18Z</time>
      </trkpt>
      <trkpt lat="46.284687174484134" lon="8.211351810023189">
        <ele>2460.9400000000001</ele>
        <time>2023-09-09T14:38:33Z</time>
      </trkpt>
      <trkpt lat="46.28467577509582" lon="8.211462199687958">
        <ele>2462.0599999999999</ele>
        <time>2023-09-09T14:38:47Z</time>
      </trkpt>
      <trkpt lat="46.284657921642065" lon="8.211590023711324">
        <ele>2462.1900000000001</ele>
        <time>2023-09-09T14:39:00Z</time>
      </trkpt>
      <trkpt lat="46.284648114815354" lon="8.21173494681716">
        <ele>2462.23</ele>
        <time>2023-09-09T14:39:13Z</time>
      </trkpt>
      <trkpt lat="46.284647025167942" lon="8.211845671758056">
        <ele>2463.3699999999999</ele>
        <time>2023-09-09T14:39:28Z</time>
      </trkpt>
      <trkpt lat="46.284643923863769" lon="8.211947092786431">
        <ele>2464.7399999999998</ele>
        <time>2023-09-09T14:39:43Z</time>
      </trkpt>
      <trkpt lat="46.28464937210083" lon="8.211968718096614">
        <ele>2464.8299999999999</ele>
        <time>2023-09-09T14:40:07Z</time>
      </trkpt>
      <trkpt lat="46.284654904156923" lon="8.211993612349033">
        <ele>2464.77</ele>
        <time>2023-09-09T14:40:09Z</time>
      </trkpt>
      <trkpt lat="46.284666638821363" lon="8.212033929303289">
        <ele>2464.5700000000002</ele>
        <time>2023-09-09T14:40:12Z</time>
      </trkpt>
      <trkpt lat="46.284670662134886" lon="8.212082795798779">
        <ele>2464.6100000000001</ele>
        <time>2023-09-09T14:40:16Z</time>
      </trkpt>
      <trkpt lat="46.284690108150244" lon="8.212194694206119">
        <ele>2464.3400000000001</ele>
        <time>2023-09-09T14:40:25Z</time>
      </trkpt>
      <trkpt lat="46.284722210839391" lon="8.212256720289588">
        <ele>2464.7399999999998</ele>
        <time>2023-09-09T14:40:31Z</time>
      </trkpt>
      <trkpt lat="46.284748446196318" lon="8.212403319776058">
        <ele>2465.6700000000001</ele>
        <time>2023-09-09T14:40:44Z</time>
      </trkpt>
      <trkpt lat="46.284749200567603" lon="8.21255536749959">
        <ele>2466.0799999999999</ele>
        <time>2023-09-09T14:40:59Z</time>
      </trkpt>
      <trkpt lat="46.284764120355248" lon="8.212573640048504">
        <ele>2466.3499999999999</ele>
        <time>2023-09-09T14:41:17Z</time>
      </trkpt>
      <trkpt lat="46.284764874726534" lon="8.21257296949625">
        <ele>2465.4299999999998</ele>
        <time>2023-09-09T14:41:19Z</time>
      </trkpt>
      <trkpt lat="46.284748781472445" lon="8.212611861526966">
        <ele>2467.3600000000001</ele>
        <time>2023-09-09T14:43:18Z</time>
      </trkpt>
      <trkpt lat="46.284750793129206" lon="8.21261647157371">
        <ele>2464.02</ele>
        <time>2023-09-09T14:43:21Z</time>
      </trkpt>
      <trkpt lat="46.284751798957586" lon="8.212616806849837">
        <ele>2463.75</ele>
        <time>2023-09-09T14:43:22Z</time>
      </trkpt>
      <trkpt lat="46.284747859463096" lon="8.212611274793744">
        <ele>2464.1100000000001</ele>
        <time>2023-09-09T14:43:56Z</time>
      </trkpt>
      <trkpt lat="46.284748613834381" lon="8.212608173489571">
        <ele>2463.4899999999998</ele>
        <time>2023-09-09T14:45:48Z</time>
      </trkpt>
      <trkpt lat="46.284776106476784" lon="8.212655698880553">
        <ele>2463.5599999999999</ele>
        <time>2023-09-09T14:55:50Z</time>
      </trkpt>
      <trkpt lat="46.284801252186298" lon="8.212703056633472">
        <ele>2462.02</ele>
        <time>2023-09-09T14:56:01Z</time>
      </trkpt>
      <trkpt lat="46.284844251349568" lon="8.212747480720282">
        <ele>2460.0900000000001</ele>
        <time>2023-09-09T14:56:12Z</time>
      </trkpt>
      <trkpt lat="46.284849783405662" lon="8.212851919233799">
        <ele>2457.96</ele>
        <time>2023-09-09T14:56:22Z</time>
      </trkpt>
      <trkpt lat="46.284854896366596" lon="8.212885614484549">
        <ele>2457.23</ele>
        <time>2023-09-09T14:56:35Z</time>
      </trkpt>
      <trkpt lat="46.284888088703156" lon="8.212943784892559">
        <ele>2455.73</ele>
        <time>2023-09-09T14:56:44Z</time>
      </trkpt>
      <trkpt lat="46.28489906899631" lon="8.212969936430454">
        <ele>2455.0599999999999</ele>
        <time>2023-09-09T14:56:46Z</time>
      </trkpt>
      <trkpt lat="46.284905606880784" lon="8.212984018027782">
        <ele>2454.8000000000002</ele>
        <time>2023-09-09T14:56:47Z</time>
      </trkpt>
      <trkpt lat="46.284910216927528" lon="8.212998434901238">
        <ele>2454.5900000000001</ele>
        <time>2023-09-09T14:56:48Z</time>
      </trkpt>
      <trkpt lat="46.284913988783956" lon="8.213012516498566">
        <ele>2454.29</ele>
        <time>2023-09-09T14:56:49Z</time>
      </trkpt>
      <trkpt lat="46.284918012097478" lon="8.213027268648148">
        <ele>2454.1500000000001</ele>
        <time>2023-09-09T14:56:50Z</time>
      </trkpt>
      <trkpt lat="46.284937039017677" lon="8.213089127093554">
        <ele>2452.8200000000002</ele>
        <time>2023-09-09T14:56:56Z</time>
      </trkpt>
      <trkpt lat="46.284945169463754" lon="8.213099772110581">
        <ele>2452.73</ele>
        <time>2023-09-09T14:56:57Z</time>
      </trkpt>
      <trkpt lat="46.284949528053403" lon="8.213114021345973">
        <ele>2452.3600000000001</ele>
        <time>2023-09-09T14:56:58Z</time>
      </trkpt>
      <trkpt lat="46.284952713176608" lon="8.213129108771682">
        <ele>2452.0599999999999</ele>
        <time>2023-09-09T14:56:59Z</time>
      </trkpt>
      <trkpt lat="46.285001076757908" lon="8.213203707709909">
        <ele>2450.23</ele>
        <time>2023-09-09T14:57:09Z</time>
      </trkpt>
      <trkpt lat="46.285062516108155" lon="8.213230697438121">
        <ele>2447.8200000000002</ele>
        <time>2023-09-09T14:57:20Z</time>
      </trkpt>
      <trkpt lat="46.285103503614664" lon="8.213238073512912">
        <ele>2446.8600000000001</ele>
        <time>2023-09-09T14:57:26Z</time>
      </trkpt>
      <trkpt lat="46.285110712051392" lon="8.213251484557986">
        <ele>2446.46</ele>
        <time>2023-09-09T14:57:27Z</time>
      </trkpt>
      <trkpt lat="46.285123787820339" lon="8.213284928351641">
        <ele>2445.4699999999998</ele>
        <time>2023-09-09T14:57:30Z</time>
      </trkpt>
      <trkpt lat="46.285167206078768" lon="8.213357096537948">
        <ele>2444.3499999999999</ele>
        <time>2023-09-09T14:57:39Z</time>
      </trkpt>
      <trkpt lat="46.285242643207312" lon="8.213404286652803">
        <ele>2443.1700000000001</ele>
        <time>2023-09-09T14:57:51Z</time>
      </trkpt>
      <trkpt lat="46.28527918830514" lon="8.213454075157642">
        <ele>2444.5599999999999</ele>
        <time>2023-09-09T14:58:01Z</time>
      </trkpt>
      <trkpt lat="46.285338448360562" lon="8.213483160361648">
        <ele>2444.7399999999998</ele>
        <time>2023-09-09T14:58:12Z</time>
      </trkpt>
      <trkpt lat="46.285407599061728" lon="8.213423565030098">
        <ele>2442.6999999999998</ele>
        <time>2023-09-09T14:58:24Z</time>
      </trkpt>
      <trkpt lat="46.285444647073746" lon="8.213462373241782">
        <ele>2441.3400000000001</ele>
        <time>2023-09-09T14:58:29Z</time>
      </trkpt>
      <trkpt lat="46.285524778068066" lon="8.213582821190357">
        <ele>2441.9899999999998</ele>
        <time>2023-09-09T14:58:43Z</time>
      </trkpt>
      <trkpt lat="46.285569537431002" lon="8.213712070137262">
        <ele>2440.7199999999998</ele>
        <time>2023-09-09T14:58:55Z</time>
      </trkpt>
      <trkpt lat="46.285648997873068" lon="8.213836373761296">
        <ele>2440.3899999999999</ele>
        <time>2023-09-09T14:59:09Z</time>
      </trkpt>
      <trkpt lat="46.285649500787258" lon="8.213873170316219">
        <ele>2439.79</ele>
        <time>2023-09-09T14:59:12Z</time>
      </trkpt>
      <trkpt lat="46.285648243501782" lon="8.213889263570309">
        <ele>2439.6300000000001</ele>
        <time>2023-09-09T14:59:13Z</time>
      </trkpt>
      <trkpt lat="46.285666432231665" lon="8.214059080928564">
        <ele>2438.8600000000001</ele>
        <time>2023-09-09T14:59:27Z</time>
      </trkpt>
      <trkpt lat="46.285716807469726" lon="8.214133009314537">
        <ele>2435.6799999999998</ele>
        <time>2023-09-09T14:59:36Z</time>
      </trkpt>
      <trkpt lat="46.285744970664382" lon="8.214159412309527">
        <ele>2434.0900000000001</ele>
        <time>2023-09-09T14:59:40Z</time>
      </trkpt>
      <trkpt lat="46.285823592916131" lon="8.214181456714869">
        <ele>2430.9299999999998</ele>
        <time>2023-09-09T14:59:50Z</time>
      </trkpt>
      <trkpt lat="46.285877991467714" lon="8.214234933257103">
        <ele>2427.5599999999999</ele>
        <time>2023-09-09T15:00:00Z</time>
      </trkpt>
      <trkpt lat="46.285871956497431" lon="8.214246332645416">
        <ele>2426.8899999999999</ele>
        <time>2023-09-09T15:00:01Z</time>
      </trkpt>
      <trkpt lat="46.285868352279067" lon="8.214255720376968">
        <ele>2426.6399999999999</ele>
        <time>2023-09-09T15:00:02Z</time>
      </trkpt>
      <trkpt lat="46.285857204347849" lon="8.214297629892826">
        <ele>2426.3800000000001</ele>
        <time>2023-09-09T15:00:15Z</time>
      </trkpt>
      <trkpt lat="46.285890396684408" lon="8.214362841099501">
        <ele>2424.3600000000001</ele>
        <time>2023-09-09T15:00:27Z</time>
      </trkpt>
      <trkpt lat="46.2859564460814" lon="8.214372396469116">
        <ele>2421.6700000000001</ele>
        <time>2023-09-09T15:00:39Z</time>
      </trkpt>
      <trkpt lat="46.28598284907639" lon="8.214428974315524">
        <ele>2419.7600000000002</ele>
        <time>2023-09-09T15:00:47Z</time>
      </trkpt>
      <trkpt lat="46.285996595397592" lon="8.214537100866437">
        <ele>2417.3200000000002</ele>
        <time>2023-09-09T15:00:57Z</time>
      </trkpt>
      <trkpt lat="46.285998690873384" lon="8.214613543823361">
        <ele>2416.2399999999998</ele>
        <time>2023-09-09T15:01:04Z</time>
      </trkpt>
      <trkpt lat="46.285997349768877" lon="8.214670373126864">
        <ele>2415.3800000000001</ele>
        <time>2023-09-09T15:01:08Z</time>
      </trkpt>
      <trkpt lat="46.286016460508108" lon="8.21476299315691">
        <ele>2413.71</ele>
        <time>2023-09-09T15:01:19Z</time>
      </trkpt>
      <trkpt lat="46.286055268719792" lon="8.214853852987289">
        <ele>2412.8299999999999</ele>
        <time>2023-09-09T15:01:32Z</time>
      </trkpt>
      <trkpt lat="46.286070523783565" lon="8.21487246081233">
        <ele>2412.5900000000001</ele>
        <time>2023-09-09T15:01:34Z</time>
      </trkpt>
      <trkpt lat="46.286125173792243" lon="8.214969020336866">
        <ele>2411.4000000000001</ele>
        <time>2023-09-09T15:01:46Z</time>
      </trkpt>
      <trkpt lat="46.28618904389441" lon="8.215038254857063">
        <ele>2408.1300000000001</ele>
        <time>2023-09-09T15:02:00Z</time>
      </trkpt>
      <trkpt lat="46.286240173503757" lon="8.215050240978599">
        <ele>2406.1900000000001</ele>
        <time>2023-09-09T15:02:11Z</time>
      </trkpt>
      <trkpt lat="46.286189882084727" lon="8.215199522674084">
        <ele>2404.5100000000002</ele>
        <time>2023-09-09T15:02:25Z</time>
      </trkpt>
      <trkpt lat="46.286174794659019" lon="8.215227602049708">
        <ele>2403.98</ele>
        <time>2023-09-09T15:02:37Z</time>
      </trkpt>
      <trkpt lat="46.286160629242659" lon="8.215334806591272">
        <ele>2401.9000000000001</ele>
        <time>2023-09-09T15:02:49Z</time>
      </trkpt>
      <trkpt lat="46.286206981167197" lon="8.215458607301116">
        <ele>2400.8899999999999</ele>
        <time>2023-09-09T15:03:02Z</time>
      </trkpt>
      <trkpt lat="46.286202203482389" lon="8.21556530892849">
        <ele>2398.25</ele>
        <time>2023-09-09T15:03:15Z</time>
      </trkpt>
      <trkpt lat="46.286256853491068" lon="8.215571595355868">
        <ele>2396</ele>
        <time>2023-09-09T15:03:26Z</time>
      </trkpt>
      <trkpt lat="46.28629750572145" lon="8.215602356940508">
        <ele>2393.2199999999998</ele>
        <time>2023-09-09T15:03:37Z</time>
      </trkpt>
      <trkpt lat="46.286336816847324" lon="8.21560344658792">
        <ele>2390.7600000000002</ele>
        <time>2023-09-09T15:03:48Z</time>
      </trkpt>
      <trkpt lat="46.286381492391229" lon="8.215632196515799">
        <ele>2388.5</ele>
        <time>2023-09-09T15:03:57Z</time>
      </trkpt>
      <trkpt lat="46.286465395241976" lon="8.215644769370556">
        <ele>2385.5</ele>
        <time>2023-09-09T15:04:09Z</time>
      </trkpt>
      <trkpt lat="46.286518201231956" lon="8.215686595067382">
        <ele>2383.5300000000002</ele>
        <time>2023-09-09T15:04:19Z</time>
      </trkpt>
      <trkpt lat="46.286526499316096" lon="8.215695647522807">
        <ele>2383.3699999999999</ele>
        <time>2023-09-09T15:04:20Z</time>
      </trkpt>
      <trkpt lat="46.28662540577352" lon="8.215757589787245">
        <ele>2381.0799999999999</ele>
        <time>2023-09-09T15:04:33Z</time>
      </trkpt>
      <trkpt lat="46.286656251177192" lon="8.215802181512117">
        <ele>2379.6500000000001</ele>
        <time>2023-09-09T15:04:41Z</time>
      </trkpt>
      <trkpt lat="46.286672512069345" lon="8.215816179290414">
        <ele>2378.8000000000002</ele>
        <time>2023-09-09T15:04:43Z</time>
      </trkpt>
      <trkpt lat="46.286681396886706" lon="8.215826572850347">
        <ele>2378.5300000000002</ele>
        <time>2023-09-09T15:04:44Z</time>
      </trkpt>
      <trkpt lat="46.286689694970846" lon="8.215836463496089">
        <ele>2378.3699999999999</ele>
        <time>2023-09-09T15:04:45Z</time>
      </trkpt>
      <trkpt lat="46.286786254495382" lon="8.215965796262026">
        <ele>2377.0500000000002</ele>
        <time>2023-09-09T15:04:58Z</time>
      </trkpt>
      <trkpt lat="46.286860853433609" lon="8.21601876989007">
        <ele>2374.6999999999998</ele>
        <time>2023-09-09T15:05:09Z</time>
      </trkpt>
      <trkpt lat="46.286901673302054" lon="8.216066714376211">
        <ele>2373.0700000000002</ele>
        <time>2023-09-09T15:05:16Z</time>
      </trkpt>
      <trkpt lat="46.286910893395543" lon="8.216075263917446">
        <ele>2372.8299999999999</ele>
        <time>2023-09-09T15:05:17Z</time>
      </trkpt>
      <trkpt lat="46.286920616403222" lon="8.21608423255384">
        <ele>2372.5100000000002</ele>
        <time>2023-09-09T15:05:18Z</time>
      </trkpt>
      <trkpt lat="46.286998819559813" lon="8.216126812621951">
        <ele>2370.8400000000001</ele>
        <time>2023-09-09T15:05:27Z</time>
      </trkpt>
      <trkpt lat="46.287029245868325" lon="8.216088591143489">
        <ele>2370.0700000000002</ele>
        <time>2023-09-09T15:05:32Z</time>
      </trkpt>
      <trkpt lat="46.287096971645951" lon="8.216043328866363">
        <ele>2370.9699999999998</ele>
        <time>2023-09-09T15:05:43Z</time>
      </trkpt>
      <trkpt lat="46.287164865061641" lon="8.216022290289402">
        <ele>2372.3299999999999</ele>
        <time>2023-09-09T15:05:53Z</time>
      </trkpt>
      <trkpt lat="46.287220101803541" lon="8.215979710221291">
        <ele>2373.3699999999999</ele>
        <time>2023-09-09T15:06:02Z</time>
      </trkpt>
      <trkpt lat="46.287254551425576" lon="8.215965377166867">
        <ele>2373.3400000000001</ele>
        <time>2023-09-09T15:06:06Z</time>
      </trkpt>
      <trkpt lat="46.28728992305696" lon="8.215949200093746">
        <ele>2372.5599999999999</ele>
        <time>2023-09-09T15:06:10Z</time>
      </trkpt>
      <trkpt lat="46.287302495911717" lon="8.215945344418287">
        <ele>2372.3299999999999</ele>
        <time>2023-09-09T15:06:11Z</time>
      </trkpt>
      <trkpt lat="46.287366030737758" lon="8.215981302782893">
        <ele>2373.6999999999998</ele>
        <time>2023-09-09T15:06:23Z</time>
      </trkpt>
      <trkpt lat="46.287395535036922" lon="8.215974178165197">
        <ele>2372.1799999999998</ele>
        <time>2023-09-09T15:06:39Z</time>
      </trkpt>
      <trkpt lat="46.287433672696352" lon="8.215933777391911">
        <ele>2370.3299999999999</ele>
        <time>2023-09-09T15:06:52Z</time>
      </trkpt>
      <trkpt lat="46.28748832270503" lon="8.216001251712441">
        <ele>2367.6900000000001</ele>
        <time>2023-09-09T15:07:04Z</time>
      </trkpt>
      <trkpt lat="46.287572644650936" lon="8.216006699949503">
        <ele>2364.8800000000001</ele>
        <time>2023-09-09T15:07:18Z</time>
      </trkpt>
      <trkpt lat="46.287651602178812" lon="8.215966550633311">
        <ele>2361.8099999999999</ele>
        <time>2023-09-09T15:07:30Z</time>
      </trkpt>
      <trkpt lat="46.287747239693999" lon="8.215959342196584">
        <ele>2359.6900000000001</ele>
        <time>2023-09-09T15:07:43Z</time>
      </trkpt>
      <trkpt lat="46.287808427587152" lon="8.215939560905099">
        <ele>2358.6500000000001</ele>
        <time>2023-09-09T15:07:50Z</time>
      </trkpt>
      <trkpt lat="46.287818737328053" lon="8.215937130153179">
        <ele>2358.6599999999999</ele>
        <time>2023-09-09T15:07:51Z</time>
      </trkpt>
      <trkpt lat="46.28789828158915" lon="8.215945344418287">
        <ele>2356.8699999999999</ele>
        <time>2023-09-09T15:08:02Z</time>
      </trkpt>
      <trkpt lat="46.287939520552754" lon="8.215968227013946">
        <ele>2355.77</ele>
        <time>2023-09-09T15:08:12Z</time>
      </trkpt>
      <trkpt lat="46.287982435896993" lon="8.216007621958852">
        <ele>2353.5799999999999</ele>
        <time>2023-09-09T15:08:24Z</time>
      </trkpt>
      <trkpt lat="46.288054855540395" lon="8.216032013297081">
        <ele>2351.1900000000001</ele>
        <time>2023-09-09T15:08:36Z</time>
      </trkpt>
      <trkpt lat="46.288100956007838" lon="8.21604953147471">
        <ele>2349.4000000000001</ele>
        <time>2023-09-09T15:08:46Z</time>
      </trkpt>
      <trkpt lat="46.288135405629873" lon="8.216031594201922">
        <ele>2349.4099999999999</ele>
        <time>2023-09-09T15:08:51Z</time>
      </trkpt>
      <trkpt lat="46.288229953497648" lon="8.21604173630476">
        <ele>2347.9200000000001</ele>
        <time>2023-09-09T15:09:03Z</time>
      </trkpt>
      <trkpt lat="46.288347048684955" lon="8.216063696891069">
        <ele>2345.0700000000002</ele>
        <time>2023-09-09T15:09:18Z</time>
      </trkpt>
      <trkpt lat="46.288478309288621" lon="8.216078532859683">
        <ele>2342.48</ele>
        <time>2023-09-09T15:09:32Z</time>
      </trkpt>
      <trkpt lat="46.288573611527681" lon="8.216086495667696">
        <ele>2339.4099999999999</ele>
        <time>2023-09-09T15:09:43Z</time>
      </trkpt>
      <trkpt lat="46.288583083078265" lon="8.216085406020284">
        <ele>2339.1999999999998</ele>
        <time>2023-09-09T15:09:44Z</time>
      </trkpt>
      <trkpt lat="46.288624405860901" lon="8.216072749346495">
        <ele>2338.1999999999998</ele>
        <time>2023-09-09T15:09:49Z</time>
      </trkpt>
      <trkpt lat="46.288635553792119" lon="8.216074928641319">
        <ele>2338.0599999999999</ele>
        <time>2023-09-09T15:09:50Z</time>
      </trkpt>
      <trkpt lat="46.288716103881598" lon="8.216101415455341">
        <ele>2335.8600000000001</ele>
        <time>2023-09-09T15:10:00Z</time>
      </trkpt>
      <trkpt lat="46.288788355886936" lon="8.216101247817278">
        <ele>2334.0900000000001</ele>
        <time>2023-09-09T15:10:09Z</time>
      </trkpt>
      <trkpt lat="46.288881646469235" lon="8.216129159554839">
        <ele>2331.23</ele>
        <time>2023-09-09T15:10:21Z</time>
      </trkpt>
      <trkpt lat="46.288964711129665" lon="8.216194454580545">
        <ele>2329.5500000000002</ele>
        <time>2023-09-09T15:10:32Z</time>
      </trkpt>
      <trkpt lat="46.289071077480912" lon="8.216250110417604">
        <ele>2326.8400000000001</ele>
        <time>2023-09-09T15:10:47Z</time>
      </trkpt>
      <trkpt lat="46.289153639227152" lon="8.216344071552157">
        <ele>2325.02</ele>
        <time>2023-09-09T15:11:00Z</time>
      </trkpt>
      <trkpt lat="46.289257742464542" lon="8.216410372406244">
        <ele>2321.9299999999998</ele>
        <time>2023-09-09T15:11:14Z</time>
      </trkpt>
      <trkpt lat="46.289363019168377" lon="8.21648882701993">
        <ele>2319.5</ele>
        <time>2023-09-09T15:11:28Z</time>
      </trkpt>
      <trkpt lat="46.289463769644499" lon="8.216564934700728">
        <ele>2316.3699999999999</ele>
        <time>2023-09-09T15:11:40Z</time>
      </trkpt>
      <trkpt lat="46.289552953094244" lon="8.216622099280357">
        <ele>2313.2399999999998</ele>
        <time>2023-09-09T15:11:51Z</time>
      </trkpt>
      <trkpt lat="46.289586396887898" lon="8.216609610244632">
        <ele>2311.8899999999999</ele>
        <time>2023-09-09T15:11:56Z</time>
      </trkpt>
      <trkpt lat="46.289593856781721" lon="8.216599300503731">
        <ele>2311.4400000000001</ele>
        <time>2023-09-09T15:11:57Z</time>
      </trkpt>
      <trkpt lat="46.289603244513273" lon="8.216596618294716">
        <ele>2311.1799999999998</ele>
        <time>2023-09-09T15:11:58Z</time>
      </trkpt>
      <trkpt lat="46.289613973349333" lon="8.21660315617919">
        <ele>2311.0900000000001</ele>
        <time>2023-09-09T15:11:59Z</time>
      </trkpt>
      <trkpt lat="46.289623947814107" lon="8.216612543910742">
        <ele>2310.9299999999998</ele>
        <time>2023-09-09T15:12:00Z</time>
      </trkpt>
      <trkpt lat="46.289632748812437" lon="8.216621847823262">
        <ele>2310.71</ele>
        <time>2023-09-09T15:12:01Z</time>
      </trkpt>
      <trkpt lat="46.289665941148996" lon="8.216639952734113">
        <ele>2310.0100000000002</ele>
        <time>2023-09-09T15:12:05Z</time>
      </trkpt>
      <trkpt lat="46.289755292236805" lon="8.216563006862998">
        <ele>2310.1500000000001</ele>
        <time>2023-09-09T15:12:17Z</time>
      </trkpt>
      <trkpt lat="46.289802985265851" lon="8.216519337147474">
        <ele>2310.2399999999998</ele>
        <time>2023-09-09T15:12:23Z</time>
      </trkpt>
      <trkpt lat="46.289817737415433" lon="8.216453455388546">
        <ele>2310.1700000000001</ele>
        <time>2023-09-09T15:12:28Z</time>
      </trkpt>
      <trkpt lat="46.289820671081543" lon="8.216404672712088">
        <ele>2309.9200000000001</ele>
        <time>2023-09-09T15:12:43Z</time>
      </trkpt>
      <trkpt lat="46.289822766557336" lon="8.216404924169183">
        <ele>2309.48</ele>
        <time>2023-09-09T15:13:16Z</time>
      </trkpt>
      <trkpt lat="46.289866855368018" lon="8.216440882533789">
        <ele>2308.9200000000001</ele>
        <time>2023-09-09T15:13:23Z</time>
      </trkpt>
      <trkpt lat="46.289902059361339" lon="8.216458987444639">
        <ele>2308.5300000000002</ele>
        <time>2023-09-09T15:13:27Z</time>
      </trkpt>
      <trkpt lat="46.28995344042778" lon="8.216487821191549">
        <ele>2307.6799999999998</ele>
        <time>2023-09-09T15:13:35Z</time>
      </trkpt>
      <trkpt lat="46.289972551167011" lon="8.216499136760831">
        <ele>2307.2800000000002</ele>
        <time>2023-09-09T15:13:37Z</time>
      </trkpt>
      <trkpt lat="46.290045809000731" lon="8.216529060155153">
        <ele>2304.27</ele>
        <time>2023-09-09T15:13:45Z</time>
      </trkpt>
      <trkpt lat="46.290055699646473" lon="8.216533670201898">
        <ele>2303.9899999999998</ele>
        <time>2023-09-09T15:13:46Z</time>
      </trkpt>
      <trkpt lat="46.290073553100228" lon="8.216535178944469">
        <ele>2303.4499999999998</ele>
        <time>2023-09-09T15:13:48Z</time>
      </trkpt>
      <trkpt lat="46.290084281936288" lon="8.216532999649644">
        <ele>2303.1500000000001</ele>
        <time>2023-09-09T15:13:49Z</time>
      </trkpt>
      <trkpt lat="46.290094675496221" lon="8.216535178944469">
        <ele>2302.77</ele>
        <time>2023-09-09T15:13:50Z</time>
      </trkpt>
      <trkpt lat="46.290187127888203" lon="8.216565269976854">
        <ele>2299.9499999999998</ele>
        <time>2023-09-09T15:14:01Z</time>
      </trkpt>
      <trkpt lat="46.290246304124594" lon="8.216547919437289">
        <ele>2297.71</ele>
        <time>2023-09-09T15:14:08Z</time>
      </trkpt>
      <trkpt lat="46.290351245552301" lon="8.216586979106069">
        <ele>2295.54</ele>
        <time>2023-09-09T15:14:20Z</time>
      </trkpt>
      <trkpt lat="46.290386617183685" lon="8.216585135087371">
        <ele>2294.6199999999999</ele>
        <time>2023-09-09T15:14:24Z</time>
      </trkpt>
      <trkpt lat="46.290484853088856" lon="8.216618075966835">
        <ele>2291.2800000000002</ele>
        <time>2023-09-09T15:14:35Z</time>
      </trkpt>
      <trkpt lat="46.29055299796164" lon="8.216661410406232">
        <ele>2289.6100000000001</ele>
        <time>2023-09-09T15:14:45Z</time>
      </trkpt>
      <trkpt lat="46.290560541674495" lon="8.216670965775847">
        <ele>2289.3600000000001</ele>
        <time>2023-09-09T15:14:46Z</time>
      </trkpt>
      <trkpt lat="46.290623489767313" lon="8.216696698218584">
        <ele>2286.9699999999998</ele>
        <time>2023-09-09T15:14:54Z</time>
      </trkpt>
      <trkpt lat="46.290672020986676" lon="8.216703990474343">
        <ele>2285.3000000000002</ele>
        <time>2023-09-09T15:14:59Z</time>
      </trkpt>
      <trkpt lat="46.290683336555958" lon="8.216700470075011">
        <ele>2285.0300000000002</ele>
        <time>2023-09-09T15:15:00Z</time>
      </trkpt>
      <trkpt lat="46.290694987401366" lon="8.21669896133244">
        <ele>2284.6500000000001</ele>
        <time>2023-09-09T15:15:01Z</time>
      </trkpt>
      <trkpt lat="46.290705883875489" lon="8.216700134798884">
        <ele>2284.4400000000001</ele>
        <time>2023-09-09T15:15:02Z</time>
      </trkpt>
      <trkpt lat="46.290806718170643" lon="8.216734919697046">
        <ele>2281.21</ele>
        <time>2023-09-09T15:15:13Z</time>
      </trkpt>
      <trkpt lat="46.290913503617048" lon="8.216744558885694">
        <ele>2278.1100000000001</ele>
        <time>2023-09-09T15:15:25Z</time>
      </trkpt>
      <trkpt lat="46.290955413132906" lon="8.216758137568831">
        <ele>2276.8699999999999</ele>
        <time>2023-09-09T15:15:31Z</time>
      </trkpt>
      <trkpt lat="46.291039986535907" lon="8.216770458966494">
        <ele>2274.8099999999999</ele>
        <time>2023-09-09T15:15:41Z</time>
      </trkpt>
      <trkpt lat="46.291095977649093" lon="8.216817397624254">
        <ele>2272.8699999999999</ele>
        <time>2023-09-09T15:15:47Z</time>
      </trkpt>
      <trkpt lat="46.291120704263449" lon="8.216834496706724">
        <ele>2272.0700000000002</ele>
        <time>2023-09-09T15:15:50Z</time>
      </trkpt>
      <trkpt lat="46.291130762547255" lon="8.216838520020247">
        <ele>2271.9499999999998</ele>
        <time>2023-09-09T15:15:51Z</time>
      </trkpt>
      <trkpt lat="46.29124685190618" lon="8.216936839744449">
        <ele>2269.6799999999998</ele>
        <time>2023-09-09T15:16:05Z</time>
      </trkpt>
      <trkpt lat="46.291286079213023" lon="8.216939270496368">
        <ele>2268.5300000000002</ele>
        <time>2023-09-09T15:16:09Z</time>
      </trkpt>
      <trkpt lat="46.291362605988979" lon="8.216908592730761">
        <ele>2266.4200000000001</ele>
        <time>2023-09-09T15:16:19Z</time>
      </trkpt>
      <trkpt lat="46.291371658444405" lon="8.216914795339108">
        <ele>2266.1999999999998</ele>
        <time>2023-09-09T15:16:20Z</time>
      </trkpt>
      <trkpt lat="46.291481629014015" lon="8.217002721503377">
        <ele>2265.6500000000001</ele>
        <time>2023-09-09T15:16:32Z</time>
      </trkpt>
      <trkpt lat="46.291609369218349" lon="8.217080337926745">
        <ele>2264.5500000000002</ele>
        <time>2023-09-09T15:16:44Z</time>
      </trkpt>
      <trkpt lat="46.291719423606992" lon="8.217167761176825">
        <ele>2262.21</ele>
        <time>2023-09-09T15:16:56Z</time>
      </trkpt>
      <trkpt lat="46.291752699762583" lon="8.217202378436923">
        <ele>2261.27</ele>
        <time>2023-09-09T15:17:07Z</time>
      </trkpt>
      <trkpt lat="46.291783461347222" lon="8.217206569388509">
        <ele>2260.4000000000001</ele>
        <time>2023-09-09T15:17:22Z</time>
      </trkpt>
      <trkpt lat="46.29179460927844" lon="8.217212436720729">
        <ele>2260.5100000000002</ele>
        <time>2023-09-09T15:17:23Z</time>
      </trkpt>
      <trkpt lat="46.291805421933532" lon="8.217220650985837">
        <ele>2260.4899999999998</ele>
        <time>2023-09-09T15:17:24Z</time>
      </trkpt>
      <trkpt lat="46.291823443025351" lon="8.217233391478658">
        <ele>2260.3200000000002</ele>
        <time>2023-09-09T15:17:26Z</time>
      </trkpt>
      <trkpt lat="46.291832746937871" lon="8.217243365943432">
        <ele>2260.1900000000001</ele>
        <time>2023-09-09T15:17:27Z</time>
      </trkpt>
      <trkpt lat="46.291950847953558" lon="8.217367753386498">
        <ele>2259.3600000000001</ele>
        <time>2023-09-09T15:17:41Z</time>
      </trkpt>
      <trkpt lat="46.292064841836691" lon="8.217541007325053">
        <ele>2257.4200000000001</ele>
        <time>2023-09-09T15:17:55Z</time>
      </trkpt>
      <trkpt lat="46.29217472858727" lon="8.217705376446247">
        <ele>2256.1399999999999</ele>
        <time>2023-09-09T15:18:08Z</time>
      </trkpt>
      <trkpt lat="46.292182439938188" lon="8.217715686187148">
        <ele>2256.1300000000001</ele>
        <time>2023-09-09T15:18:09Z</time>
      </trkpt>
      <trkpt lat="46.292210938408971" lon="8.217737227678299">
        <ele>2255.6199999999999</ele>
        <time>2023-09-09T15:18:13Z</time>
      </trkpt>
      <trkpt lat="46.29222066141665" lon="8.217738652601838">
        <ele>2255.4099999999999</ele>
        <time>2023-09-09T15:18:14Z</time>
      </trkpt>
      <trkpt lat="46.292232144623995" lon="8.217742089182138">
        <ele>2255.3099999999999</ele>
        <time>2023-09-09T15:18:15Z</time>
      </trkpt>
      <trkpt lat="46.292250333353877" lon="8.217756506055594">
        <ele>2254.98</ele>
        <time>2023-09-09T15:18:17Z</time>
      </trkpt>
      <trkpt lat="46.292257960885763" lon="8.217767318710685">
        <ele>2255.0700000000002</ele>
        <time>2023-09-09T15:18:18Z</time>
      </trkpt>
      <trkpt lat="46.292265839874744" lon="8.217778047546744">
        <ele>2255.0999999999999</ele>
        <time>2023-09-09T15:18:19Z</time>
      </trkpt>
      <trkpt lat="46.292275059968233" lon="8.21778760291636">
        <ele>2255.1799999999998</ele>
        <time>2023-09-09T15:18:20Z</time>
      </trkpt>
      <trkpt lat="46.292284782975912" lon="8.217795733362436">
        <ele>2255.0900000000001</ele>
        <time>2023-09-09T15:18:21Z</time>
      </trkpt>
      <trkpt lat="46.292294086888433" lon="8.21780126541853">
        <ele>2255.0999999999999</ele>
        <time>2023-09-09T15:18:22Z</time>
      </trkpt>
      <trkpt lat="46.292303809896111" lon="8.217805959284306">
        <ele>2255.0500000000002</ele>
        <time>2023-09-09T15:18:23Z</time>
      </trkpt>
      <trkpt lat="46.292458958923817" lon="8.217894975095987">
        <ele>2254.4200000000001</ele>
        <time>2023-09-09T15:18:38Z</time>
      </trkpt>
      <trkpt lat="46.292584436014295" lon="8.217974435538054">
        <ele>2254.4299999999998</ele>
        <time>2023-09-09T15:18:51Z</time>
      </trkpt>
      <trkpt lat="46.292593237012625" lon="8.217977536842227">
        <ele>2254.3499999999999</ele>
        <time>2023-09-09T15:18:52Z</time>
      </trkpt>
      <trkpt lat="46.292603295296431" lon="8.217977788299322">
        <ele>2254.3400000000001</ele>
        <time>2023-09-09T15:18:53Z</time>
      </trkpt>
      <trkpt lat="46.292740758508444" lon="8.21806906722486">
        <ele>2252.5900000000001</ele>
        <time>2023-09-09T15:19:08Z</time>
      </trkpt>
      <trkpt lat="46.292821727693081" lon="8.218109551817179">
        <ele>2250.52</ele>
        <time>2023-09-09T15:19:20Z</time>
      </trkpt>
      <trkpt lat="46.292837653309107" lon="8.218086333945394">
        <ele>2249.7199999999998</ele>
        <time>2023-09-09T15:19:23Z</time>
      </trkpt>
      <trkpt lat="46.292920717969537" lon="8.218100750818849">
        <ele>2249.9299999999998</ele>
        <time>2023-09-09T15:19:33Z</time>
      </trkpt>
      <trkpt lat="46.292931111529469" lon="8.218104355037212">
        <ele>2250.0100000000002</ele>
        <time>2023-09-09T15:19:34Z</time>
      </trkpt>
      <trkpt lat="46.292942594736814" lon="8.218109300360084">
        <ele>2249.7600000000002</ele>
        <time>2023-09-09T15:19:35Z</time>
      </trkpt>
      <trkpt lat="46.292954664677382" lon="8.218115167692304">
        <ele>2249.8299999999999</ele>
        <time>2023-09-09T15:19:36Z</time>
      </trkpt>
      <trkpt lat="46.292965644970536" lon="8.218121286481619">
        <ele>2249.7399999999998</ele>
        <time>2023-09-09T15:19:37Z</time>
      </trkpt>
      <trkpt lat="46.292976038530469" lon="8.218129081651568">
        <ele>2249.73</ele>
        <time>2023-09-09T15:19:38Z</time>
      </trkpt>
      <trkpt lat="46.29312758333981" lon="8.218243326991797">
        <ele>2249.04</ele>
        <time>2023-09-09T15:19:52Z</time>
      </trkpt>
      <trkpt lat="46.293274015188217" lon="8.218348519876599">
        <ele>2248.0599999999999</ele>
        <time>2023-09-09T15:20:05Z</time>
      </trkpt>
      <trkpt lat="46.293429750949144" lon="8.218444660305977">
        <ele>2247.1100000000001</ele>
        <time>2023-09-09T15:20:19Z</time>
      </trkpt>
      <trkpt lat="46.293559921905398" lon="8.218543482944369">
        <ele>2246.4200000000001</ele>
        <time>2023-09-09T15:20:31Z</time>
      </trkpt>
      <trkpt lat="46.293684812262654" lon="8.218613723292947">
        <ele>2246.0799999999999</ele>
        <time>2023-09-09T15:20:42Z</time>
      </trkpt>
      <trkpt lat="46.293778102844954" lon="8.218721179291606">
        <ele>2246.1399999999999</ele>
        <time>2023-09-09T15:20:53Z</time>
      </trkpt>
      <trkpt lat="46.293788915500045" lon="8.218730818480253">
        <ele>2246.1700000000001</ele>
        <time>2023-09-09T15:20:54Z</time>
      </trkpt>
      <trkpt lat="46.29393576644361" lon="8.218836849555373">
        <ele>2245.4400000000001</ele>
        <time>2023-09-09T15:21:08Z</time>
      </trkpt>
      <trkpt lat="46.294014388695359" lon="8.218879094347358">
        <ele>2245.3000000000002</ele>
        <time>2023-09-09T15:21:20Z</time>
      </trkpt>
      <trkpt lat="46.294025704264641" lon="8.218877920880914">
        <ele>2245.2399999999998</ele>
        <time>2023-09-09T15:21:21Z</time>
      </trkpt>
      <trkpt lat="46.29403593018651" lon="8.218872891739011">
        <ele>2245.3200000000002</ele>
        <time>2023-09-09T15:21:22Z</time>
      </trkpt>
      <trkpt lat="46.29404422827065" lon="8.218865264207125">
        <ele>2245.2600000000002</ele>
        <time>2023-09-09T15:21:23Z</time>
      </trkpt>
      <trkpt lat="46.29405252635479" lon="8.218856547027826">
        <ele>2245.3000000000002</ele>
        <time>2023-09-09T15:21:24Z</time>
      </trkpt>
      <trkpt lat="46.294169370085001" lon="8.218791168183088">
        <ele>2244.9299999999998</ele>
        <time>2023-09-09T15:21:37Z</time>
      </trkpt>
      <trkpt lat="46.294182781130075" lon="8.218794437125325">
        <ele>2244.3200000000002</ele>
        <time>2023-09-09T15:21:49Z</time>
      </trkpt>
      <trkpt lat="46.294194599613547" lon="8.218793515115976">
        <ele>2243.9099999999999</ele>
        <time>2023-09-09T15:22:07Z</time>
      </trkpt>
      <trkpt lat="46.294303480535746" lon="8.218799633905292">
        <ele>2243.21</ele>
        <time>2023-09-09T15:22:18Z</time>
      </trkpt>
      <trkpt lat="46.294444464147091" lon="8.218786893412471">
        <ele>2242.2199999999998</ele>
        <time>2023-09-09T15:22:32Z</time>
      </trkpt>
      <trkpt lat="46.294514369219542" lon="8.218806423246861">
        <ele>2241.3800000000001</ele>
        <time>2023-09-09T15:22:38Z</time>
      </trkpt>
      <trkpt lat="46.294525349512696" lon="8.218803238123655">
        <ele>2241.3400000000001</ele>
        <time>2023-09-09T15:22:39Z</time>
      </trkpt>
      <trkpt lat="46.294537503272295" lon="8.218801226466894">
        <ele>2241.4200000000001</ele>
        <time>2023-09-09T15:22:40Z</time>
      </trkpt>
      <trkpt lat="46.294701872393489" lon="8.218819499015808">
        <ele>2239.4099999999999</ele>
        <time>2023-09-09T15:22:53Z</time>
      </trkpt>
      <trkpt lat="46.294876718893647" lon="8.218820001929998">
        <ele>2237.8600000000001</ele>
        <time>2023-09-09T15:23:07Z</time>
      </trkpt>
      <trkpt lat="46.294997753575444" lon="8.218869036063552">
        <ele>2237.6100000000001</ele>
        <time>2023-09-09T15:23:18Z</time>
      </trkpt>
      <trkpt lat="46.295023486018181" lon="8.21887968108058">
        <ele>2237.29</ele>
        <time>2023-09-09T15:23:31Z</time>
      </trkpt>
      <trkpt lat="46.295035304501653" lon="8.218891667202115">
        <ele>2237.1999999999998</ele>
        <time>2023-09-09T15:23:32Z</time>
      </trkpt>
      <trkpt lat="46.295046284794807" lon="8.218904072418809">
        <ele>2237.1100000000001</ele>
        <time>2023-09-09T15:23:33Z</time>
      </trkpt>
      <trkpt lat="46.295052906498313" lon="8.218916561454535">
        <ele>2236.96</ele>
        <time>2023-09-09T15:23:34Z</time>
      </trkpt>
      <trkpt lat="46.295058857649565" lon="8.218929804861546">
        <ele>2236.8499999999999</ele>
        <time>2023-09-09T15:23:35Z</time>
      </trkpt>
      <trkpt lat="46.295066820457578" lon="8.218941707164049">
        <ele>2236.7399999999998</ele>
        <time>2023-09-09T15:23:36Z</time>
      </trkpt>
      <trkpt lat="46.29507620818913" lon="8.218953441828489">
        <ele>2236.6300000000001</ele>
        <time>2023-09-09T15:23:37Z</time>
      </trkpt>
      <trkpt lat="46.295204870402813" lon="8.219046983867884">
        <ele>2235.7199999999998</ele>
        <time>2023-09-09T15:23:49Z</time>
      </trkpt>
      <trkpt lat="46.295301513746381" lon="8.219153517857194">
        <ele>2234.1599999999999</ele>
        <time>2023-09-09T15:24:00Z</time>
      </trkpt>
      <trkpt lat="46.295309644192457" lon="8.219162067398429">
        <ele>2234.0999999999999</ele>
        <time>2023-09-09T15:24:01Z</time>
      </trkpt>
      <trkpt lat="46.295339986681938" lon="8.219158882275224">
        <ele>2234.0799999999999</ele>
        <time>2023-09-09T15:24:12Z</time>
      </trkpt>
      <trkpt lat="46.295353481546044" lon="8.21917187422514">
        <ele>2233.75</ele>
        <time>2023-09-09T15:24:14Z</time>
      </trkpt>
      <trkpt lat="46.295359265059233" lon="8.219185872003436">
        <ele>2233.5100000000002</ele>
        <time>2023-09-09T15:24:15Z</time>
      </trkpt>
      <trkpt lat="46.295365635305643" lon="8.219199702143669">
        <ele>2233.5100000000002</ele>
        <time>2023-09-09T15:24:16Z</time>
      </trkpt>
      <trkpt lat="46.295373933389783" lon="8.219212358817458">
        <ele>2233.3699999999999</ele>
        <time>2023-09-09T15:24:17Z</time>
      </trkpt>
      <trkpt lat="46.295381812378764" lon="8.219225183129311">
        <ele>2233.0500000000002</ele>
        <time>2023-09-09T15:24:18Z</time>
      </trkpt>
      <trkpt lat="46.295407293364406" lon="8.21933557279408">
        <ele>2231.3000000000002</ele>
        <time>2023-09-09T15:24:29Z</time>
      </trkpt>
      <trkpt lat="46.295415172353387" lon="8.219346050173044">
        <ele>2231.0700000000002</ele>
        <time>2023-09-09T15:24:30Z</time>
      </trkpt>
      <trkpt lat="46.295423889532685" lon="8.219356359913945">
        <ele>2231.0900000000001</ele>
        <time>2023-09-09T15:24:31Z</time>
      </trkpt>
      <trkpt lat="46.295450627803802" lon="8.219382762908936">
        <ele>2230.5500000000002</ele>
        <time>2023-09-09T15:24:34Z</time>
      </trkpt>
      <trkpt lat="46.295571746304631" lon="8.219477562233806">
        <ele>2229.5599999999999</ele>
        <time>2023-09-09T15:24:48Z</time>
      </trkpt>
      <trkpt lat="46.295582810416818" lon="8.21948510594666">
        <ele>2229.3299999999999</ele>
        <time>2023-09-09T15:24:49Z</time>
      </trkpt>
      <trkpt lat="46.295603178441525" lon="8.219506312161684">
        <ele>2229.1300000000001</ele>
        <time>2023-09-09T15:24:51Z</time>
      </trkpt>
      <trkpt lat="46.295612901449203" lon="8.219518465921283">
        <ele>2228.9899999999998</ele>
        <time>2023-09-09T15:24:52Z</time>
      </trkpt>
      <trkpt lat="46.295620612800121" lon="8.21953154169023">
        <ele>2228.9400000000001</ele>
        <time>2023-09-09T15:24:53Z</time>
      </trkpt>
      <trkpt lat="46.295627821236849" lon="8.219544030725956">
        <ele>2228.9099999999999</ele>
        <time>2023-09-09T15:24:54Z</time>
      </trkpt>
      <trkpt lat="46.295636873692274" lon="8.219556687399745">
        <ele>2228.9099999999999</ele>
        <time>2023-09-09T15:24:55Z</time>
      </trkpt>
      <trkpt lat="46.295708958059549" lon="8.21963950060308">
        <ele>2228</ele>
        <time>2023-09-09T15:25:03Z</time>
      </trkpt>
      <trkpt lat="46.295717842876911" lon="8.21965073235333">
        <ele>2227.9899999999998</ele>
        <time>2023-09-09T15:25:04Z</time>
      </trkpt>
      <trkpt lat="46.295726392418146" lon="8.219660371541977">
        <ele>2227.9400000000001</ele>
        <time>2023-09-09T15:25:05Z</time>
      </trkpt>
      <trkpt lat="46.295735947787762" lon="8.219670010730624">
        <ele>2227.8299999999999</ele>
        <time>2023-09-09T15:25:06Z</time>
      </trkpt>
      <trkpt lat="46.295797806233168" lon="8.219730192795396">
        <ele>2227.3299999999999</ele>
        <time>2023-09-09T15:25:13Z</time>
      </trkpt>
      <trkpt lat="46.295829992741346" lon="8.219752991572022">
        <ele>2226.8800000000001</ele>
        <time>2023-09-09T15:25:17Z</time>
      </trkpt>
      <trkpt lat="46.295920433476567" lon="8.21984033100307">
        <ele>2226.1500000000001</ele>
        <time>2023-09-09T15:25:28Z</time>
      </trkpt>
      <trkpt lat="46.295976676046848" lon="8.219867991283536">
        <ele>2225.1999999999998</ele>
        <time>2023-09-09T15:25:35Z</time>
      </trkpt>
      <trkpt lat="46.295995283871889" lon="8.219868158921599">
        <ele>2224.8800000000001</ele>
        <time>2023-09-09T15:25:37Z</time>
      </trkpt>
      <trkpt lat="46.296057729050517" lon="8.219895232468844">
        <ele>2224.73</ele>
        <time>2023-09-09T15:25:44Z</time>
      </trkpt>
      <trkpt lat="46.296134339645505" lon="8.219955917447805">
        <ele>2224.04</ele>
        <time>2023-09-09T15:25:53Z</time>
      </trkpt>
      <trkpt lat="46.296144733205438" lon="8.219955582171679">
        <ele>2224.0500000000002</ele>
        <time>2023-09-09T15:25:54Z</time>
      </trkpt>
      <trkpt lat="46.296262415125966" lon="8.219972932711244">
        <ele>2222.8899999999999</ele>
        <time>2023-09-09T15:26:06Z</time>
      </trkpt>
      <trkpt lat="46.296407002955675" lon="8.22003873065114">
        <ele>2222.79</ele>
        <time>2023-09-09T15:26:20Z</time>
      </trkpt>
      <trkpt lat="46.296482104808092" lon="8.220049208030105">
        <ele>2222.7399999999998</ele>
        <time>2023-09-09T15:26:30Z</time>
      </trkpt>
      <trkpt lat="46.296509262174368" lon="8.220033198595047">
        <ele>2222.5900000000001</ele>
        <time>2023-09-09T15:26:34Z</time>
      </trkpt>
      <trkpt lat="46.296560475602746" lon="8.220049291849136">
        <ele>2222.7600000000002</ele>
        <time>2023-09-09T15:26:39Z</time>
      </trkpt>
      <trkpt lat="46.296591823920608" lon="8.220059433951974">
        <ele>2222.5999999999999</ele>
        <time>2023-09-09T15:26:42Z</time>
      </trkpt>
      <trkpt lat="46.29660414531827" lon="8.220061026513577">
        <ele>2222.4299999999998</ele>
        <time>2023-09-09T15:26:43Z</time>
      </trkpt>
      <trkpt lat="46.296623591333628" lon="8.220074186101556">
        <ele>2222.1500000000001</ele>
        <time>2023-09-09T15:26:45Z</time>
      </trkpt>
      <trkpt lat="46.296632559970021" lon="8.22008466348052">
        <ele>2222.0100000000002</ele>
        <time>2023-09-09T15:26:46Z</time>
      </trkpt>
      <trkpt lat="46.29670430906117" lon="8.220152892172337">
        <ele>2221.8499999999999</ele>
        <time>2023-09-09T15:26:54Z</time>
      </trkpt>
      <trkpt lat="46.296836826950312" lon="8.220210056751967">
        <ele>2221.4499999999998</ele>
        <time>2023-09-09T15:27:06Z</time>
      </trkpt>
      <trkpt lat="46.296970015391707" lon="8.220249451696873">
        <ele>2220.8699999999999</ele>
        <time>2023-09-09T15:27:18Z</time>
      </trkpt>
      <trkpt lat="46.297127930447459" lon="8.220323128625751">
        <ele>2220.4400000000001</ele>
        <time>2023-09-09T15:27:32Z</time>
      </trkpt>
      <trkpt lat="46.297279056161642" lon="8.220392363145948">
        <ele>2220.1300000000001</ele>
        <time>2023-09-09T15:27:46Z</time>
      </trkpt>
      <trkpt lat="46.297407047823071" lon="8.220503674820066">
        <ele>2219.4699999999998</ele>
        <time>2023-09-09T15:27:59Z</time>
      </trkpt>
      <trkpt lat="46.297500841319561" lon="8.220594115555286">
        <ele>2219.29</ele>
        <time>2023-09-09T15:28:09Z</time>
      </trkpt>
      <trkpt lat="46.297612823545933" lon="8.220660164952278">
        <ele>2218.5500000000002</ele>
        <time>2023-09-09T15:28:21Z</time>
      </trkpt>
      <trkpt lat="46.297619948163629" lon="8.220668630674481">
        <ele>2218.5</ele>
        <time>2023-09-09T15:28:22Z</time>
      </trkpt>
      <trkpt lat="46.297715418040752" lon="8.220742726698518">
        <ele>2218.1500000000001</ele>
        <time>2023-09-09T15:28:33Z</time>
      </trkpt>
      <trkpt lat="46.297778282314539" lon="8.220789832994342">
        <ele>2218.02</ele>
        <time>2023-09-09T15:28:41Z</time>
      </trkpt>
      <trkpt lat="46.297805104404688" lon="8.22080148383975">
        <ele>2218.2399999999998</ele>
        <time>2023-09-09T15:28:44Z</time>
      </trkpt>
      <trkpt lat="46.297816503793001" lon="8.220803495496512">
        <ele>2218.0599999999999</ele>
        <time>2023-09-09T15:28:45Z</time>
      </trkpt>
      <trkpt lat="46.297827064990997" lon="8.220808524638414">
        <ele>2217.8499999999999</ele>
        <time>2023-09-09T15:28:46Z</time>
      </trkpt>
      <trkpt lat="46.297958744689822" lon="8.220887901261449">
        <ele>2217.5300000000002</ele>
        <time>2023-09-09T15:28:59Z</time>
      </trkpt>
      <trkpt lat="46.298082293942571" lon="8.220974821597338">
        <ele>2217.0100000000002</ele>
        <time>2023-09-09T15:29:11Z</time>
      </trkpt>
      <trkpt lat="46.298207603394985" lon="8.221005415543914">
        <ele>2216.8499999999999</ele>
        <time>2023-09-09T15:29:23Z</time>
      </trkpt>
      <trkpt lat="46.298343474045396" lon="8.221030812710524">
        <ele>2214.7600000000002</ele>
        <time>2023-09-09T15:29:37Z</time>
      </trkpt>
      <trkpt lat="46.298361495137215" lon="8.221028130501509">
        <ele>2214.52</ele>
        <time>2023-09-09T15:29:39Z</time>
      </trkpt>
      <trkpt lat="46.29845998249948" lon="8.220922686159611">
        <ele>2213.5900000000001</ele>
        <time>2023-09-09T15:29:51Z</time>
      </trkpt>
      <trkpt lat="46.298553608357906" lon="8.22088111191988">
        <ele>2212.5</ele>
        <time>2023-09-09T15:30:02Z</time>
      </trkpt>
      <trkpt lat="46.298671457916498" lon="8.220897372812033">
        <ele>2211.6100000000001</ele>
        <time>2023-09-09T15:30:13Z</time>
      </trkpt>
      <trkpt lat="46.298818392679095" lon="8.220897540450096">
        <ele>2210.3899999999999</ele>
        <time>2023-09-09T15:30:26Z</time>
      </trkpt>
      <trkpt lat="46.298939092084765" lon="8.220957387238741">
        <ele>2209.9899999999998</ele>
        <time>2023-09-09T15:30:38Z</time>
      </trkpt>
      <trkpt lat="46.299035232514143" lon="8.221067441627383">
        <ele>2209.0799999999999</ele>
        <time>2023-09-09T15:30:49Z</time>
      </trkpt>
      <trkpt lat="46.29911812953651" lon="8.221111446619034">
        <ele>2208.1599999999999</ele>
        <time>2023-09-09T15:30:58Z</time>
      </trkpt>
      <trkpt lat="46.299224579706788" lon="8.221212532371283">
        <ele>2208.7600000000002</ele>
        <time>2023-09-09T15:31:11Z</time>
      </trkpt>
      <trkpt lat="46.299327844753861" lon="8.22120850905776">
        <ele>2208.5500000000002</ele>
        <time>2023-09-09T15:31:21Z</time>
      </trkpt>
      <trkpt lat="46.299337232485414" lon="8.221218232065439">
        <ele>2208.4200000000001</ele>
        <time>2023-09-09T15:31:22Z</time>
      </trkpt>
      <trkpt lat="46.299410071223974" lon="8.221286879852414">
        <ele>2207.6399999999999</ele>
        <time>2023-09-09T15:31:32Z</time>
      </trkpt>
      <trkpt lat="46.299487771466374" lon="8.221299285069108">
        <ele>2206.9000000000001</ele>
        <time>2023-09-09T15:31:45Z</time>
      </trkpt>
      <trkpt lat="46.299500344321132" lon="8.221301967278123">
        <ele>2206.54</ele>
        <time>2023-09-09T15:31:57Z</time>
      </trkpt>
      <trkpt lat="46.299590868875384" lon="8.221305906772614">
        <ele>2206.98</ele>
        <time>2023-09-09T15:32:08Z</time>
      </trkpt>
      <trkpt lat="46.299599669873714" lon="8.221310852095485">
        <ele>2207.0300000000002</ele>
        <time>2023-09-09T15:32:09Z</time>
      </trkpt>
      <trkpt lat="46.299609560519457" lon="8.221317557618022">
        <ele>2207.1599999999999</ele>
        <time>2023-09-09T15:32:10Z</time>
      </trkpt>
      <trkpt lat="46.299653649330139" lon="8.221338177099824">
        <ele>2207.5100000000002</ele>
        <time>2023-09-09T15:32:15Z</time>
      </trkpt>
      <trkpt lat="46.299751047044992" lon="8.221400454640389">
        <ele>2208.21</ele>
        <time>2023-09-09T15:32:27Z</time>
      </trkpt>
      <trkpt lat="46.299843499436975" lon="8.221428198739886">
        <ele>2208.2600000000002</ele>
        <time>2023-09-09T15:32:38Z</time>
      </trkpt>
      <trkpt lat="46.299934694543481" lon="8.221423169597983">
        <ele>2208.7199999999998</ele>
        <time>2023-09-09T15:32:50Z</time>
      </trkpt>
      <trkpt lat="46.299972832202911" lon="8.221399784088135">
        <ele>2209.5</ele>
        <time>2023-09-09T15:33:00Z</time>
      </trkpt>
      <trkpt lat="46.300032259896398" lon="8.221345972269774">
        <ele>2209.9299999999998</ele>
        <time>2023-09-09T15:33:12Z</time>
      </trkpt>
      <trkpt lat="46.300079533830285" lon="8.221366843208671">
        <ele>2209.9000000000001</ele>
        <time>2023-09-09T15:33:19Z</time>
      </trkpt>
      <trkpt lat="46.30011398345232" lon="8.22142249904573">
        <ele>2208.5999999999999</ele>
        <time>2023-09-09T15:33:28Z</time>
      </trkpt>
      <trkpt lat="46.300190845504403" lon="8.221485447138548">
        <ele>2207.6599999999999</ele>
        <time>2023-09-09T15:33:40Z</time>
      </trkpt>
      <trkpt lat="46.300273993983865" lon="8.221447644755244">
        <ele>2206.52</ele>
        <time>2023-09-09T15:33:52Z</time>
      </trkpt>
      <trkpt lat="46.300314646214247" lon="8.221450997516513">
        <ele>2205.3099999999999</ele>
        <time>2023-09-09T15:33:57Z</time>
      </trkpt>
      <trkpt lat="46.300384383648634" lon="8.221468850970268">
        <ele>2204.6799999999998</ele>
        <time>2023-09-09T15:34:07Z</time>
      </trkpt>
      <trkpt lat="46.300442386418581" lon="8.221556609496474">
        <ele>2202.6399999999999</ele>
        <time>2023-09-09T15:34:18Z</time>
      </trkpt>
      <trkpt lat="46.300489827990532" lon="8.221633806824684">
        <ele>2200.54</ele>
        <time>2023-09-09T15:34:29Z</time>
      </trkpt>
      <trkpt lat="46.300530396401882" lon="8.221667166799307">
        <ele>2199.1900000000001</ele>
        <time>2023-09-09T15:34:43Z</time>
      </trkpt>
      <trkpt lat="46.300586219877005" lon="8.221690552309156">
        <ele>2197.0500000000002</ele>
        <time>2023-09-09T15:34:56Z</time>
      </trkpt>
      <trkpt lat="46.300646904855967" lon="8.22176506742835">
        <ele>2194.6900000000001</ele>
        <time>2023-09-09T15:35:09Z</time>
      </trkpt>
      <trkpt lat="46.300696190446615" lon="8.221830697730184">
        <ele>2192.9000000000001</ele>
        <time>2023-09-09T15:35:19Z</time>
      </trkpt>
      <trkpt lat="46.300709350034595" lon="8.221844946965575">
        <ele>2192.8499999999999</ele>
        <time>2023-09-09T15:35:21Z</time>
      </trkpt>
      <trkpt lat="46.300751930102706" lon="8.221933292225003">
        <ele>2190.3600000000001</ele>
        <time>2023-09-09T15:35:31Z</time>
      </trkpt>
      <trkpt lat="46.30077556706965" lon="8.222006382420659">
        <ele>2188.8499999999999</ele>
        <time>2023-09-09T15:35:42Z</time>
      </trkpt>
      <trkpt lat="46.300818817690015" lon="8.222086513414979">
        <ele>2186.1199999999999</ele>
        <time>2023-09-09T15:35:53Z</time>
      </trkpt>
      <trkpt lat="46.300875311717391" lon="8.222141331061721">
        <ele>2184</ele>
        <time>2023-09-09T15:36:04Z</time>
      </trkpt>
      <trkpt lat="46.300958208739758" lon="8.22220335714519">
        <ele>2181.1599999999999</ele>
        <time>2023-09-09T15:36:16Z</time>
      </trkpt>
      <trkpt lat="46.301020989194512" lon="8.22227125056088">
        <ele>2178.23</ele>
        <time>2023-09-09T15:36:27Z</time>
      </trkpt>
      <trkpt lat="46.301083182916045" lon="8.222349956631661">
        <ele>2175.0500000000002</ele>
        <time>2023-09-09T15:36:39Z</time>
      </trkpt>
      <trkpt lat="46.30115233361721" lon="8.222389267757535">
        <ele>2172.0900000000001</ele>
        <time>2023-09-09T15:36:51Z</time>
      </trkpt>
      <trkpt lat="46.30122609436512" lon="8.222441487014294">
        <ele>2169.54</ele>
        <time>2023-09-09T15:37:03Z</time>
      </trkpt>
      <trkpt lat="46.301295077428222" lon="8.222459340468049">
        <ele>2166.6500000000001</ele>
        <time>2023-09-09T15:37:15Z</time>
      </trkpt>
      <trkpt lat="46.30133505910635" lon="8.222517091780901">
        <ele>2164.3200000000002</ele>
        <time>2023-09-09T15:37:26Z</time>
      </trkpt>
      <trkpt lat="46.301393816247582" lon="8.222577525302768">
        <ele>2161.7800000000002</ele>
        <time>2023-09-09T15:37:37Z</time>
      </trkpt>
      <trkpt lat="46.301467325538397" lon="8.222642904147506">
        <ele>2158.8000000000002</ele>
        <time>2023-09-09T15:37:50Z</time>
      </trkpt>
      <trkpt lat="46.301533626392484" lon="8.222691938281059">
        <ele>2156.6599999999999</ele>
        <time>2023-09-09T15:38:02Z</time>
      </trkpt>
      <trkpt lat="46.301577128469944" lon="8.222752204164863">
        <ele>2155.23</ele>
        <time>2023-09-09T15:38:13Z</time>
      </trkpt>
      <trkpt lat="46.301653068512678" lon="8.222800986841321">
        <ele>2153.4499999999998</ele>
        <time>2023-09-09T15:38:25Z</time>
      </trkpt>
      <trkpt lat="46.301731690764427" lon="8.222793024033308">
        <ele>2150.8099999999999</ele>
        <time>2023-09-09T15:38:37Z</time>
      </trkpt>
      <trkpt lat="46.301748789846897" lon="8.222789755091071">
        <ele>2150.3299999999999</ele>
        <time>2023-09-09T15:38:39Z</time>
      </trkpt>
      <trkpt lat="46.301798997446895" lon="8.222833424806595">
        <ele>2148.5700000000002</ele>
        <time>2023-09-09T15:38:49Z</time>
      </trkpt>
      <trkpt lat="46.301803439855576" lon="8.222842058166862">
        <ele>2149.04</ele>
        <time>2023-09-09T15:39:05Z</time>
      </trkpt>
      <trkpt lat="46.301826490089297" lon="8.222850188612938">
        <ele>2148.1100000000001</ele>
        <time>2023-09-09T15:39:14Z</time>
      </trkpt>
      <trkpt lat="46.301882145926356" lon="8.222873490303755">
        <ele>2147.21</ele>
        <time>2023-09-09T15:39:25Z</time>
      </trkpt>
      <trkpt lat="46.301954230293632" lon="8.2228815369308">
        <ele>2146.8200000000002</ele>
        <time>2023-09-09T15:39:37Z</time>
      </trkpt>
      <trkpt lat="46.301984488964081" lon="8.222899306565523">
        <ele>2146.0999999999999</ele>
        <time>2023-09-09T15:39:40Z</time>
      </trkpt>
      <trkpt lat="46.301991194486618" lon="8.22290450334549">
        <ele>2145.7800000000002</ele>
        <time>2023-09-09T15:39:41Z</time>
      </trkpt>
      <trkpt lat="46.301997229456902" lon="8.222920848056674">
        <ele>2145.4499999999998</ele>
        <time>2023-09-09T15:39:43Z</time>
      </trkpt>
      <trkpt lat="46.302034948021173" lon="8.222953788936138">
        <ele>2144.7800000000002</ele>
        <time>2023-09-09T15:39:52Z</time>
      </trkpt>
      <trkpt lat="46.302076354622841" lon="8.222971810027957">
        <ele>2143.8699999999999</ele>
        <time>2023-09-09T15:39:58Z</time>
      </trkpt>
      <trkpt lat="46.302122622728348" lon="8.222954208031297">
        <ele>2142.8400000000001</ele>
        <time>2023-09-09T15:40:07Z</time>
      </trkpt>
      <trkpt lat="46.302143326029181" lon="8.22295043617487">
        <ele>2142.4400000000001</ele>
        <time>2023-09-09T15:40:10Z</time>
      </trkpt>
      <trkpt lat="46.302158664911985" lon="8.222947251051664">
        <ele>2142.0900000000001</ele>
        <time>2023-09-09T15:40:13Z</time>
      </trkpt>
      <trkpt lat="46.302244579419494" lon="8.222935181111097">
        <ele>2140.6500000000001</ele>
        <time>2023-09-09T15:40:23Z</time>
      </trkpt>
      <trkpt lat="46.302255392074585" lon="8.222938785329461">
        <ele>2140.4200000000001</ele>
        <time>2023-09-09T15:40:24Z</time>
      </trkpt>
      <trkpt lat="46.302326889708638" lon="8.222953621298075">
        <ele>2139.6399999999999</ele>
        <time>2023-09-09T15:40:33Z</time>
      </trkpt>
      <trkpt lat="46.302408194169402" lon="8.223003493621945">
        <ele>2138</ele>
        <time>2023-09-09T15:40:42Z</time>
      </trkpt>
      <trkpt lat="46.302500814199448" lon="8.223004164174199">
        <ele>2135.54</ele>
        <time>2023-09-09T15:40:55Z</time>
      </trkpt>
      <trkpt lat="46.302578095346689" lon="8.223002487793565">
        <ele>2133.8699999999999</ele>
        <time>2023-09-09T15:41:06Z</time>
      </trkpt>
      <trkpt lat="46.302602319046855" lon="8.223006594926119">
        <ele>2134.3299999999999</ele>
        <time>2023-09-09T15:41:20Z</time>
      </trkpt>
      <trkpt lat="46.302628386765718" lon="8.223008187487721">
        <ele>2134.4400000000001</ele>
        <time>2023-09-09T15:41:24Z</time>
      </trkpt>
      <trkpt lat="46.302661160007119" lon="8.223016653209925">
        <ele>2133.6300000000001</ele>
        <time>2023-09-09T15:41:29Z</time>
      </trkpt>
      <trkpt lat="46.302677001804113" lon="8.223011959344149">
        <ele>2133.3499999999999</ele>
        <time>2023-09-09T15:41:31Z</time>
      </trkpt>
      <trkpt lat="46.302698627114296" lon="8.223044313490391">
        <ele>2132.98</ele>
        <time>2023-09-09T15:41:38Z</time>
      </trkpt>
      <trkpt lat="46.302738189697266" lon="8.223064849153161">
        <ele>2132.1300000000001</ele>
        <time>2023-09-09T15:41:44Z</time>
      </trkpt>
      <trkpt lat="46.302782949060202" lon="8.223065435886383">
        <ele>2131.02</ele>
        <time>2023-09-09T15:41:49Z</time>
      </trkpt>
      <trkpt lat="46.302818991243839" lon="8.223073147237301">
        <ele>2130.0700000000002</ele>
        <time>2023-09-09T15:41:53Z</time>
      </trkpt>
      <trkpt lat="46.302935164421797" lon="8.22323776781559">
        <ele>2127.6399999999999</ele>
        <time>2023-09-09T15:42:09Z</time>
      </trkpt>
      <trkpt lat="46.302936170250177" lon="8.223239025101066">
        <ele>2127.3600000000001</ele>
        <time>2023-09-09T15:42:20Z</time>
      </trkpt>
      <trkpt lat="46.302951592952013" lon="8.223243467509747">
        <ele>2127.0799999999999</ele>
        <time>2023-09-09T15:42:32Z</time>
      </trkpt>
      <trkpt lat="46.302962573245168" lon="8.22324950248003">
        <ele>2126.9499999999998</ele>
        <time>2023-09-09T15:42:33Z</time>
      </trkpt>
      <trkpt lat="46.302973721176386" lon="8.223256040364504">
        <ele>2126.5500000000002</ele>
        <time>2023-09-09T15:42:34Z</time>
      </trkpt>
      <trkpt lat="46.302984869107604" lon="8.223262494429946">
        <ele>2126.1700000000001</ele>
        <time>2023-09-09T15:42:35Z</time>
      </trkpt>
      <trkpt lat="46.303009008988738" lon="8.223288143053651">
        <ele>2125.25</ele>
        <time>2023-09-09T15:42:38Z</time>
      </trkpt>
      <trkpt lat="46.303059300407767" lon="8.223341787233949">
        <ele>2123.5700000000002</ele>
        <time>2023-09-09T15:42:45Z</time>
      </trkpt>
      <trkpt lat="46.303186872974038" lon="8.223360730335116">
        <ele>2121.7199999999998</ele>
        <time>2023-09-09T15:42:57Z</time>
      </trkpt>
      <trkpt lat="46.303274715319276" lon="8.22331010363996">
        <ele>2121.4699999999998</ele>
        <time>2023-09-09T15:43:08Z</time>
      </trkpt>
      <trkpt lat="46.303282845765352" lon="8.223308762535453">
        <ele>2121.1500000000001</ele>
        <time>2023-09-09T15:43:09Z</time>
      </trkpt>
      <trkpt lat="46.303356187418103" lon="8.223304739221931">
        <ele>2119.6399999999999</ele>
        <time>2023-09-09T15:43:17Z</time>
      </trkpt>
      <trkpt lat="46.303439503535628" lon="8.22325780056417">
        <ele>2118.8000000000002</ele>
        <time>2023-09-09T15:43:28Z</time>
      </trkpt>
      <trkpt lat="46.303590293973684" lon="8.223237348720431">
        <ele>2116.8899999999999</ele>
        <time>2023-09-09T15:43:43Z</time>
      </trkpt>
      <trkpt lat="46.303622480481863" lon="8.22322603315115">
        <ele>2116.3400000000001</ele>
        <time>2023-09-09T15:43:52Z</time>
      </trkpt>
      <trkpt lat="46.303630443289876" lon="8.223213460296392">
        <ele>2116.2399999999998</ele>
        <time>2023-09-09T15:43:53Z</time>
      </trkpt>
      <trkpt lat="46.303639998659492" lon="8.2232113648206">
        <ele>2116.0900000000001</ele>
        <time>2023-09-09T15:43:54Z</time>
      </trkpt>
      <trkpt lat="46.303679225966334" lon="8.223193343728781">
        <ele>2115.5799999999999</ele>
        <time>2023-09-09T15:43:59Z</time>
      </trkpt>
      <trkpt lat="46.303770756348968" lon="8.223187476396561">
        <ele>2113.21</ele>
        <time>2023-09-09T15:44:13Z</time>
      </trkpt>
      <trkpt lat="46.303802356123924" lon="8.223212538287044">
        <ele>2112.5300000000002</ele>
        <time>2023-09-09T15:44:17Z</time>
      </trkpt>
      <trkpt lat="46.303888857364655" lon="8.223222009837627">
        <ele>2110.9400000000001</ele>
        <time>2023-09-09T15:44:27Z</time>
      </trkpt>
      <trkpt lat="46.303944429382682" lon="8.223197618499398">
        <ele>2109.79</ele>
        <time>2023-09-09T15:44:33Z</time>
      </trkpt>
      <trkpt lat="46.303951470181346" lon="8.223182950168848">
        <ele>2109.6599999999999</ele>
        <time>2023-09-09T15:44:34Z</time>
      </trkpt>
      <trkpt lat="46.303970329463482" lon="8.22315227240324">
        <ele>2109.6300000000001</ele>
        <time>2023-09-09T15:44:37Z</time>
      </trkpt>
      <trkpt lat="46.304058507084846" lon="8.22310240007937">
        <ele>2107.98</ele>
        <time>2023-09-09T15:44:49Z</time>
      </trkpt>
      <trkpt lat="46.304113157093525" lon="8.223042469471693">
        <ele>2106.4499999999998</ele>
        <time>2023-09-09T15:44:59Z</time>
      </trkpt>
      <trkpt lat="46.304186498746276" lon="8.223044313490391">
        <ele>2103.5500000000002</ele>
        <time>2023-09-09T15:45:09Z</time>
      </trkpt>
      <trkpt lat="46.304242741316557" lon="8.223105249926448">
        <ele>2100.5700000000002</ele>
        <time>2023-09-09T15:45:19Z</time>
      </trkpt>
      <trkpt lat="46.30424433387816" lon="8.223159061744809">
        <ele>2099.3499999999999</ele>
        <time>2023-09-09T15:45:25Z</time>
      </trkpt>
      <trkpt lat="46.304248608648777" lon="8.223293758928776">
        <ele>2096.5500000000002</ele>
        <time>2023-09-09T15:45:37Z</time>
      </trkpt>
      <trkpt lat="46.304291356354952" lon="8.223426025360823">
        <ele>2093.5300000000002</ele>
        <time>2023-09-09T15:45:50Z</time>
      </trkpt>
      <trkpt lat="46.30435086786747" lon="8.223543874919415">
        <ele>2090.6999999999998</ele>
        <time>2023-09-09T15:46:03Z</time>
      </trkpt>
      <trkpt lat="46.3043596688658" lon="8.223557537421584">
        <ele>2090.1399999999999</ele>
        <time>2023-09-09T15:46:14Z</time>
      </trkpt>
      <trkpt lat="46.304407948628068" lon="8.223623502999544">
        <ele>2089.0500000000002</ele>
        <time>2023-09-09T15:46:26Z</time>
      </trkpt>
      <trkpt lat="46.304443487897515" lon="8.223740179091692">
        <ele>2086.4699999999998</ele>
        <time>2023-09-09T15:46:41Z</time>
      </trkpt>
      <trkpt lat="46.304473076015711" lon="8.223837157711387">
        <ele>2084.5999999999999</ele>
        <time>2023-09-09T15:46:52Z</time>
      </trkpt>
      <trkpt lat="46.304514734074473" lon="8.223901111632586">
        <ele>2082.96</ele>
        <time>2023-09-09T15:47:03Z</time>
      </trkpt>
      <trkpt lat="46.304528061300516" lon="8.223934639245272">
        <ele>2082.8099999999999</ele>
        <time>2023-09-09T15:47:09Z</time>
      </trkpt>
      <trkpt lat="46.304603917524219" lon="8.224027846008539">
        <ele>2080.3099999999999</ele>
        <time>2023-09-09T15:47:22Z</time>
      </trkpt>
      <trkpt lat="46.304685892537236" lon="8.224037066102028">
        <ele>2077.96</ele>
        <time>2023-09-09T15:47:35Z</time>
      </trkpt>
      <trkpt lat="46.304767029359937" lon="8.224098505452275">
        <ele>2075.4699999999998</ele>
        <time>2023-09-09T15:47:47Z</time>
      </trkpt>
      <trkpt lat="46.30480776540935" lon="8.22407872416079">
        <ele>2074.77</ele>
        <time>2023-09-09T15:47:52Z</time>
      </trkpt>
      <trkpt lat="46.304927123710513" lon="8.223986942321062">
        <ele>2073.0799999999999</ele>
        <time>2023-09-09T15:48:07Z</time>
      </trkpt>
      <trkpt lat="46.304993676021695" lon="8.223967663943768">
        <ele>2071.6900000000001</ele>
        <time>2023-09-09T15:48:17Z</time>
      </trkpt>
      <trkpt lat="46.305058468133211" lon="8.223908739164472">
        <ele>2069.96</ele>
        <time>2023-09-09T15:48:29Z</time>
      </trkpt>
      <trkpt lat="46.305133989080787" lon="8.223931789398193">
        <ele>2067.79</ele>
        <time>2023-09-09T15:48:40Z</time>
      </trkpt>
      <trkpt lat="46.305192159488797" lon="8.223907984793186">
        <ele>2065.52</ele>
        <time>2023-09-09T15:48:49Z</time>
      </trkpt>
      <trkpt lat="46.305221160873771" lon="8.223894825205207">
        <ele>2064.48</ele>
        <time>2023-09-09T15:48:52Z</time>
      </trkpt>
      <trkpt lat="46.305314283818007" lon="8.223896166309714">
        <ele>2062.6500000000001</ele>
        <time>2023-09-09T15:49:07Z</time>
      </trkpt>
      <trkpt lat="46.305367173627019" lon="8.223972022533417">
        <ele>2060.5</ele>
        <time>2023-09-09T15:49:19Z</time>
      </trkpt>
      <trkpt lat="46.305399360135198" lon="8.224031198769808">
        <ele>2058.9699999999998</ele>
        <time>2023-09-09T15:49:31Z</time>
      </trkpt>
      <trkpt lat="46.305432301014662" lon="8.224103869870305">
        <ele>2057.3699999999999</ele>
        <time>2023-09-09T15:49:39Z</time>
      </trkpt>
      <trkpt lat="46.305454261600971" lon="8.224211158230901">
        <ele>2055.96</ele>
        <time>2023-09-09T15:49:47Z</time>
      </trkpt>
      <trkpt lat="46.305460464209318" lon="8.224279806017876">
        <ele>2055.1399999999999</ele>
        <time>2023-09-09T15:49:52Z</time>
      </trkpt>
      <trkpt lat="46.30554310977459" lon="8.224434200674295">
        <ele>2052.9699999999998</ele>
        <time>2023-09-09T15:50:06Z</time>
      </trkpt>
      <trkpt lat="46.305556772276759" lon="8.224515002220869">
        <ele>2051.48</ele>
        <time>2023-09-09T15:50:17Z</time>
      </trkpt>
      <trkpt lat="46.305549396201968" lon="8.224599910899997">
        <ele>2050.98</ele>
        <time>2023-09-09T15:50:32Z</time>
      </trkpt>
      <trkpt lat="46.30555585026741" lon="8.22462790645659">
        <ele>2050.9200000000001</ele>
        <time>2023-09-09T15:50:34Z</time>
      </trkpt>
      <trkpt lat="46.305525507777929" lon="8.224824042990804">
        <ele>2050.27</ele>
        <time>2023-09-09T15:50:48Z</time>
      </trkpt>
      <trkpt lat="46.305494327098131" lon="8.224935354664922">
        <ele>2050.23</ele>
        <time>2023-09-09T15:50:57Z</time>
      </trkpt>
      <trkpt lat="46.305464822798967" lon="8.225022945553064">
        <ele>2048.4499999999998</ele>
        <time>2023-09-09T15:51:07Z</time>
      </trkpt>
      <trkpt lat="46.305511090904474" lon="8.225096706300974">
        <ele>2045.3599999999999</ele>
        <time>2023-09-09T15:51:20Z</time>
      </trkpt>
      <trkpt lat="46.305572278797626" lon="8.225150601938367">
        <ele>2042.3299999999999</ele>
        <time>2023-09-09T15:51:32Z</time>
      </trkpt>
      <trkpt lat="46.305610751733184" lon="8.225191170349717">
        <ele>2040.04</ele>
        <time>2023-09-09T15:51:39Z</time>
      </trkpt>
      <trkpt lat="46.305686524137855" lon="8.225252609699965">
        <ele>2037.0899999999999</ele>
        <time>2023-09-09T15:51:50Z</time>
      </trkpt>
      <trkpt lat="46.30577964708209" lon="8.225329974666238">
        <ele>2034.73</ele>
        <time>2023-09-09T15:52:02Z</time>
      </trkpt>
      <trkpt lat="46.305835386738181" lon="8.225399628281593">
        <ele>2032.47</ele>
        <time>2023-09-09T15:52:14Z</time>
      </trkpt>
      <trkpt lat="46.305872518569231" lon="8.225469784811139">
        <ele>2030.7</ele>
        <time>2023-09-09T15:52:25Z</time>
      </trkpt>
      <trkpt lat="46.305902525782585" lon="8.225530302152038">
        <ele>2029.5999999999999</ele>
        <time>2023-09-09T15:52:32Z</time>
      </trkpt>
      <trkpt lat="46.305923899635673" lon="8.225596351549029">
        <ele>2028.6700000000001</ele>
        <time>2023-09-09T15:52:37Z</time>
      </trkpt>
      <trkpt lat="46.305987015366554" lon="8.225777819752693">
        <ele>2026.5</ele>
        <time>2023-09-09T15:52:51Z</time>
      </trkpt>
      <trkpt lat="46.306031858548522" lon="8.225864488631487">
        <ele>2024.8199999999999</ele>
        <time>2023-09-09T15:52:59Z</time>
      </trkpt>
      <trkpt lat="46.306037474423647" lon="8.225939590483904">
        <ele>2023.46</ele>
        <time>2023-09-09T15:53:05Z</time>
      </trkpt>
      <trkpt lat="46.306075779721141" lon="8.226006142795086">
        <ele>2022.5699999999999</ele>
        <time>2023-09-09T15:53:12Z</time>
      </trkpt>
      <trkpt lat="46.30612556822598" lon="8.226062469184399">
        <ele>2020.3900000000001</ele>
        <time>2023-09-09T15:53:21Z</time>
      </trkpt>
      <trkpt lat="46.306158509105444" lon="8.226065151393414">
        <ele>2019.8199999999999</ele>
        <time>2023-09-09T15:53:24Z</time>
      </trkpt>
      <trkpt lat="46.306155072525144" lon="8.226194987073541">
        <ele>2017.95</ele>
        <time>2023-09-09T15:53:37Z</time>
      </trkpt>
      <trkpt lat="46.306179380044341" lon="8.226263802498579">
        <ele>2017.05</ele>
        <time>2023-09-09T15:53:47Z</time>
      </trkpt>
      <trkpt lat="46.306209051981568" lon="8.226375700905919">
        <ele>2014.5699999999999</ele>
        <time>2023-09-09T15:53:58Z</time>
      </trkpt>
      <trkpt lat="46.306234868243337" lon="8.226569155231118">
        <ele>2012.29</ele>
        <time>2023-09-09T15:54:13Z</time>
      </trkpt>
      <trkpt lat="46.306267473846674" lon="8.22668164037168">
        <ele>2010.46</ele>
        <time>2023-09-09T15:54:24Z</time>
      </trkpt>
      <trkpt lat="46.306269066408277" lon="8.22669530287385">
        <ele>2010.21</ele>
        <time>2023-09-09T15:54:25Z</time>
      </trkpt>
      <trkpt lat="46.306275939568877" lon="8.226865790784359">
        <ele>2008.1900000000001</ele>
        <time>2023-09-09T15:54:39Z</time>
      </trkpt>
      <trkpt lat="46.30629806779325" lon="8.226919854059815">
        <ele>2007.3399999999999</ele>
        <time>2023-09-09T15:54:44Z</time>
      </trkpt>
      <trkpt lat="46.306322375312448" lon="8.226974671706557">
        <ele>2006.9300000000001</ele>
        <time>2023-09-09T15:54:49Z</time>
      </trkpt>
      <trkpt lat="46.306365290656686" lon="8.227106183767319">
        <ele>2005.6800000000001</ele>
        <time>2023-09-09T15:55:01Z</time>
      </trkpt>
      <trkpt lat="46.30636746995151" lon="8.22712043300271">
        <ele>2005.5599999999999</ele>
        <time>2023-09-09T15:55:02Z</time>
      </trkpt>
      <trkpt lat="46.306434692814946" lon="8.227190170437098">
        <ele>2003.2</ele>
        <time>2023-09-09T15:55:15Z</time>
      </trkpt>
      <trkpt lat="46.306448858231306" lon="8.22719126008451">
        <ele>2002.9200000000001</ele>
        <time>2023-09-09T15:55:17Z</time>
      </trkpt>
      <trkpt lat="46.30647643469274" lon="8.22723182849586">
        <ele>2002.1099999999999</ele>
        <time>2023-09-09T15:55:21Z</time>
      </trkpt>
      <trkpt lat="46.306523540988564" lon="8.227325286716223">
        <ele>2001.3699999999999</ele>
        <time>2023-09-09T15:55:29Z</time>
      </trkpt>
      <trkpt lat="46.306614819914103" lon="8.227390833199024">
        <ele>2000.6500000000001</ele>
        <time>2023-09-09T15:55:40Z</time>
      </trkpt>
      <trkpt lat="46.306654466316104" lon="8.227494098246098">
        <ele>2000.01</ele>
        <time>2023-09-09T15:55:49Z</time>
      </trkpt>
      <trkpt lat="46.306674582883716" lon="8.2275215908885">
        <ele>1999.5599999999999</ele>
        <time>2023-09-09T15:55:52Z</time>
      </trkpt>
      <trkpt lat="46.306724706664681" lon="8.227652767673135">
        <ele>1998.76</ele>
        <time>2023-09-09T15:56:03Z</time>
      </trkpt>
      <trkpt lat="46.306742811575532" lon="8.227739436551929">
        <ele>1997.8099999999999</ele>
        <time>2023-09-09T15:56:14Z</time>
      </trkpt>
      <trkpt lat="46.30678178742528" lon="8.227795511484146">
        <ele>1997.1800000000001</ele>
        <time>2023-09-09T15:56:24Z</time>
      </trkpt>
      <trkpt lat="46.306800311431289" lon="8.22783038020134">
        <ele>1997.02</ele>
        <time>2023-09-09T15:56:28Z</time>
      </trkpt>
      <trkpt lat="46.306870048865676" lon="8.228007070720196">
        <ele>1995.3699999999999</ele>
        <time>2023-09-09T15:56:42Z</time>
      </trkpt>
      <trkpt lat="46.306897206231952" lon="8.228017129004002">
        <ele>1995.1400000000001</ele>
        <time>2023-09-09T15:56:46Z</time>
      </trkpt>
      <trkpt lat="46.306934505701065" lon="8.228016039356589">
        <ele>1994.78</ele>
        <time>2023-09-09T15:56:50Z</time>
      </trkpt>
      <trkpt lat="46.307028885930777" lon="8.228111593052745">
        <ele>1993.9200000000001</ele>
        <time>2023-09-09T15:57:02Z</time>
      </trkpt>
      <trkpt lat="46.307127876207232" lon="8.228155681863427">
        <ele>1992.3800000000001</ele>
        <time>2023-09-09T15:57:13Z</time>
      </trkpt>
      <trkpt lat="46.307228961959481" lon="8.228192981332541">
        <ele>1991.0799999999999</ele>
        <time>2023-09-09T15:57:24Z</time>
      </trkpt>
      <trkpt lat="46.307305069640279" lon="8.228206392377615">
        <ele>1990.6600000000001</ele>
        <time>2023-09-09T15:57:31Z</time>
      </trkpt>
      <trkpt lat="46.307382686063647" lon="8.22834637016058">
        <ele>1990.1500000000001</ele>
        <time>2023-09-09T15:57:43Z</time>
      </trkpt>
      <trkpt lat="46.307510090991855" lon="8.228511828929186">
        <ele>1988.5999999999999</ele>
        <time>2023-09-09T15:57:59Z</time>
      </trkpt>
      <trkpt lat="46.307561052963138" lon="8.228612830862403">
        <ele>1987.6600000000001</ele>
        <time>2023-09-09T15:58:09Z</time>
      </trkpt>
      <trkpt lat="46.307567842304707" lon="8.228622721508145">
        <ele>1988.49</ele>
        <time>2023-09-09T15:58:10Z</time>
      </trkpt>
      <trkpt lat="46.307611763477325" lon="8.228650130331516">
        <ele>1988.0699999999999</ele>
        <time>2023-09-09T15:58:22Z</time>
      </trkpt>
      <trkpt lat="46.307618049904704" lon="8.228655327111483">
        <ele>1988.02</ele>
        <time>2023-09-09T15:58:23Z</time>
      </trkpt>
      <trkpt lat="46.307646967470646" lon="8.228677455335856">
        <ele>1987.73</ele>
        <time>2023-09-09T15:58:26Z</time>
      </trkpt>
      <trkpt lat="46.307719303295016" lon="8.228866131976247">
        <ele>1986.95</ele>
        <time>2023-09-09T15:58:41Z</time>
      </trkpt>
      <trkpt lat="46.307814102619886" lon="8.229022538289428">
        <ele>1985.79</ele>
        <time>2023-09-09T15:58:54Z</time>
      </trkpt>
      <trkpt lat="46.307902112603188" lon="8.229170059785247">
        <ele>1984.7</ele>
        <time>2023-09-09T15:59:06Z</time>
      </trkpt>
      <trkpt lat="46.307934550568461" lon="8.229338033124805">
        <ele>1983.6800000000001</ele>
        <time>2023-09-09T15:59:17Z</time>
      </trkpt>
      <trkpt lat="46.307966904714704" lon="8.229379691183567">
        <ele>1983.46</ele>
        <time>2023-09-09T15:59:21Z</time>
      </trkpt>
      <trkpt lat="46.307981656864285" lon="8.229418667033315">
        <ele>1983.1400000000001</ele>
        <time>2023-09-09T15:59:24Z</time>
      </trkpt>
      <trkpt lat="46.308010406792164" lon="8.229492930695415">
        <ele>1982.8299999999999</ele>
        <time>2023-09-09T15:59:30Z</time>
      </trkpt>
      <trkpt lat="46.308059357106686" lon="8.229561997577548">
        <ele>1981.74</ele>
        <time>2023-09-09T15:59:41Z</time>
      </trkpt>
      <trkpt lat="46.308098081499338" lon="8.229632740840316">
        <ele>1981.8399999999999</ele>
        <time>2023-09-09T15:59:51Z</time>
      </trkpt>
      <trkpt lat="46.308105457574129" lon="8.229676326736808">
        <ele>1982.3599999999999</ele>
        <time>2023-09-09T15:59:58Z</time>
      </trkpt>
      <trkpt lat="46.308117192238569" lon="8.229699963703752">
        <ele>1982.22</ele>
        <time>2023-09-09T16:00:00Z</time>
      </trkpt>
      <trkpt lat="46.308245938271284" lon="8.229834996163845">
        <ele>1980.97</ele>
        <time>2023-09-09T16:00:14Z</time>
      </trkpt>
      <trkpt lat="46.308400919660926" lon="8.229934656992555">
        <ele>1979.9200000000001</ele>
        <time>2023-09-09T16:00:29Z</time>
      </trkpt>
      <trkpt lat="46.308415755629539" lon="8.229944966733456">
        <ele>1979.8900000000001</ele>
        <time>2023-09-09T16:00:31Z</time>
      </trkpt>
      <trkpt lat="46.308444170281291" lon="8.229959802702069">
        <ele>1979.8299999999999</ele>
        <time>2023-09-09T16:00:34Z</time>
      </trkpt>
      <trkpt lat="46.308536371216178" lon="8.229992240667343">
        <ele>1979.1300000000001</ele>
        <time>2023-09-09T16:00:42Z</time>
      </trkpt>
      <trkpt lat="46.308721862733364" lon="8.230050327256322">
        <ele>1978.21</ele>
        <time>2023-09-09T16:00:58Z</time>
      </trkpt>
      <trkpt lat="46.308865277096629" lon="8.230092991143465">
        <ele>1977.21</ele>
        <time>2023-09-09T16:01:11Z</time>
      </trkpt>
      <trkpt lat="46.309004835784435" lon="8.230161387473345">
        <ele>1976.8699999999999</ele>
        <time>2023-09-09T16:01:24Z</time>
      </trkpt>
      <trkpt lat="46.309172138571739" lon="8.230237495154142">
        <ele>1976.27</ele>
        <time>2023-09-09T16:01:40Z</time>
      </trkpt>
      <trkpt lat="46.309192925691605" lon="8.230245374143124">
        <ele>1976.24</ele>
        <time>2023-09-09T16:01:42Z</time>
      </trkpt>
      <trkpt lat="46.309237685054541" lon="8.230245290324092">
        <ele>1976.2</ele>
        <time>2023-09-09T16:01:46Z</time>
      </trkpt>
      <trkpt lat="46.309400713071227" lon="8.230233136564493">
        <ele>1975.51</ele>
        <time>2023-09-09T16:02:02Z</time>
      </trkpt>
      <trkpt lat="46.309436755254865" lon="8.230218216776848">
        <ele>1975.6400000000001</ele>
        <time>2023-09-09T16:02:07Z</time>
      </trkpt>
      <trkpt lat="46.309571284800768" lon="8.230257863178849">
        <ele>1975.2</ele>
        <time>2023-09-09T16:02:21Z</time>
      </trkpt>
      <trkpt lat="46.309585450217128" lon="8.230246463790536">
        <ele>1975.22</ele>
        <time>2023-09-09T16:02:23Z</time>
      </trkpt>
      <trkpt lat="46.309651248157024" lon="8.230263730511069">
        <ele>1975.46</ele>
        <time>2023-09-09T16:02:31Z</time>
      </trkpt>
      <trkpt lat="46.309699192643166" lon="8.230308573693037">
        <ele>1975.79</ele>
        <time>2023-09-09T16:02:38Z</time>
      </trkpt>
      <trkpt lat="46.309822490438819" lon="8.230360792949796">
        <ele>1976.6700000000001</ele>
        <time>2023-09-09T16:02:52Z</time>
      </trkpt>
      <trkpt lat="46.309838835150003" lon="8.23036733083427">
        <ele>1976.8900000000001</ele>
        <time>2023-09-09T16:02:54Z</time>
      </trkpt>
      <trkpt lat="46.309874122962356" lon="8.230403959751129">
        <ele>1977.05</ele>
        <time>2023-09-09T16:03:06Z</time>
      </trkpt>
      <trkpt lat="46.309881247580051" lon="8.230405552312732">
        <ele>1977</ele>
        <time>2023-09-09T16:03:07Z</time>
      </trkpt>
      <trkpt lat="46.309908824041486" lon="8.230397086590529">
        <ele>1976.73</ele>
        <time>2023-09-09T16:03:10Z</time>
      </trkpt>
      <trkpt lat="46.309967413544655" lon="8.230432542040944">
        <ele>1976.8099999999999</ele>
        <time>2023-09-09T16:03:24Z</time>
      </trkpt>
      <trkpt lat="46.310059698298573" lon="8.23055106215179">
        <ele>1976.6099999999999</ele>
        <time>2023-09-09T16:03:35Z</time>
      </trkpt>
      <trkpt lat="46.31015726365149" lon="8.230734458193183">
        <ele>1976.72</ele>
        <time>2023-09-09T16:03:49Z</time>
      </trkpt>
      <trkpt lat="46.310195401310921" lon="8.230921877548099">
        <ele>1975.78</ele>
        <time>2023-09-09T16:04:03Z</time>
      </trkpt>
      <trkpt lat="46.310192467644811" lon="8.230918860062957">
        <ele>1975.1400000000001</ele>
        <time>2023-09-09T16:04:11Z</time>
      </trkpt>
      <trkpt lat="46.310198502615094" lon="8.230928247794509">
        <ele>1974.4300000000001</ele>
        <time>2023-09-09T16:04:27Z</time>
      </trkpt>
      <trkpt lat="46.310207806527615" lon="8.230950878933072">
        <ele>1975.5799999999999</ele>
        <time>2023-09-09T16:05:07Z</time>
      </trkpt>
      <trkpt lat="46.31023638881743" lon="8.231023801490665">
        <ele>1975.54</ele>
        <time>2023-09-09T16:05:13Z</time>
      </trkpt>
      <trkpt lat="46.310284417122602" lon="8.231197642162442">
        <ele>1974.54</ele>
        <time>2023-09-09T16:05:26Z</time>
      </trkpt>
      <trkpt lat="46.310315178707242" lon="8.231275929138064">
        <ele>1974.46</ele>
        <time>2023-09-09T16:05:32Z</time>
      </trkpt>
      <trkpt lat="46.310395309701562" lon="8.231442058458924">
        <ele>1973.5899999999999</ele>
        <time>2023-09-09T16:05:45Z</time>
      </trkpt>
      <trkpt lat="46.31040939129889" lon="8.231477597728372">
        <ele>1969.6199999999999</ele>
        <time>2023-09-09T16:05:48Z</time>
      </trkpt>
      <trkpt lat="46.310413498431444" lon="8.231492852792144">
        <ele>1970.25</ele>
        <time>2023-09-09T16:05:49Z</time>
      </trkpt>
      <trkpt lat="46.310421628877521" lon="8.231522524729371">
        <ele>1975.8499999999999</ele>
        <time>2023-09-09T16:05:51Z</time>
      </trkpt>
      <trkpt lat="46.310424897819757" lon="8.231539288535714">
        <ele>1975.8599999999999</ele>
        <time>2023-09-09T16:05:52Z</time>
      </trkpt>
      <trkpt lat="46.310490192845464" lon="8.231726791709662">
        <ele>1973.6800000000001</ele>
        <time>2023-09-09T16:06:06Z</time>
      </trkpt>
      <trkpt lat="46.310497736558318" lon="8.231748249381781">
        <ele>1973.98</ele>
        <time>2023-09-09T16:06:08Z</time>
      </trkpt>
      <trkpt lat="46.310531683266163" lon="8.231837684288621">
        <ele>1973.0999999999999</ele>
        <time>2023-09-09T16:06:14Z</time>
      </trkpt>
      <trkpt lat="46.310599157586694" lon="8.232060307636857">
        <ele>1973.1300000000001</ele>
        <time>2023-09-09T16:06:28Z</time>
      </trkpt>
      <trkpt lat="46.310642156749964" lon="8.232181593775749">
        <ele>1973.49</ele>
        <time>2023-09-09T16:06:36Z</time>
      </trkpt>
      <trkpt lat="46.310661099851131" lon="8.232263149693608">
        <ele>1973.21</ele>
        <time>2023-09-09T16:06:41Z</time>
      </trkpt>
      <trkpt lat="46.310677612200379" lon="8.232414275407791">
        <ele>1973.28</ele>
        <time>2023-09-09T16:06:51Z</time>
      </trkpt>
      <trkpt lat="46.310700662434101" lon="8.23251879774034">
        <ele>1973.4400000000001</ele>
        <time>2023-09-09T16:06:58Z</time>
      </trkpt>
      <trkpt lat="46.310712229460478" lon="8.232594570145011">
        <ele>1973.6800000000001</ele>
        <time>2023-09-09T16:07:03Z</time>
      </trkpt>
      <trkpt lat="46.310754390433431" lon="8.232782492414117">
        <ele>1973.49</ele>
        <time>2023-09-09T16:07:15Z</time>
      </trkpt>
      <trkpt lat="46.310768891125917" lon="8.232860360294581">
        <ele>1973.45</ele>
        <time>2023-09-09T16:07:20Z</time>
      </trkpt>
      <trkpt lat="46.310794120654464" lon="8.232919368892908">
        <ele>1973.6500000000001</ele>
        <time>2023-09-09T16:07:24Z</time>
      </trkpt>
      <trkpt lat="46.310809794813395" lon="8.232976952567697">
        <ele>1973.5799999999999</ele>
        <time>2023-09-09T16:07:28Z</time>
      </trkpt>
      <trkpt lat="46.310857487842441" lon="8.233157163485885">
        <ele>1973.75</ele>
        <time>2023-09-09T16:07:40Z</time>
      </trkpt>
      <trkpt lat="46.31092781201005" lon="8.233365118503571">
        <ele>1973.3900000000001</ele>
        <time>2023-09-09T16:07:55Z</time>
      </trkpt>
      <trkpt lat="46.310955556109548" lon="8.233430329710245">
        <ele>1973.3299999999999</ele>
        <time>2023-09-09T16:08:00Z</time>
      </trkpt>
      <trkpt lat="46.310972403734922" lon="8.233488081023097">
        <ele>1973.26</ele>
        <time>2023-09-09T16:08:04Z</time>
      </trkpt>
      <trkpt lat="46.311008697375655" lon="8.23360207490623">
        <ele>1973.1500000000001</ele>
        <time>2023-09-09T16:08:12Z</time>
      </trkpt>
      <trkpt lat="46.31103384308517" lon="8.233676087111235">
        <ele>1973.1199999999999</ele>
        <time>2023-09-09T16:08:17Z</time>
      </trkpt>
      <trkpt lat="46.311069130897522" lon="8.233754374086857">
        <ele>1972.8099999999999</ele>
        <time>2023-09-09T16:08:23Z</time>
      </trkpt>
      <trkpt lat="46.311132246628404" lon="8.23384489864111">
        <ele>1972.8</ele>
        <time>2023-09-09T16:08:31Z</time>
      </trkpt>
      <trkpt lat="46.311155967414379" lon="8.233879767358303">
        <ele>1972.9000000000001</ele>
        <time>2023-09-09T16:08:34Z</time>
      </trkpt>
      <trkpt lat="46.311175161972642" lon="8.233933998271823">
        <ele>1973.05</ele>
        <time>2023-09-09T16:08:38Z</time>
      </trkpt>
      <trkpt lat="46.311202235519886" lon="8.234019745141268">
        <ele>1973.1800000000001</ele>
        <time>2023-09-09T16:08:44Z</time>
      </trkpt>
      <trkpt lat="46.311235846951604" lon="8.234102139249444">
        <ele>1973.26</ele>
        <time>2023-09-09T16:08:50Z</time>
      </trkpt>
      <trkpt lat="46.311255460605025" lon="8.234161399304867">
        <ele>1973.24</ele>
        <time>2023-09-09T16:08:54Z</time>
      </trkpt>
      <trkpt lat="46.311267782002687" lon="8.234209092333913">
        <ele>1973.25</ele>
        <time>2023-09-09T16:08:57Z</time>
      </trkpt>
      <trkpt lat="46.311283707618713" lon="8.234301209449768">
        <ele>1973.0899999999999</ele>
        <time>2023-09-09T16:09:03Z</time>
      </trkpt>
      <trkpt lat="46.311318576335907" lon="8.234395924955607">
        <ele>1973.1900000000001</ele>
        <time>2023-09-09T16:09:10Z</time>
      </trkpt>
      <trkpt lat="46.311363000422716" lon="8.234487706795335">
        <ele>1973.1099999999999</ele>
        <time>2023-09-09T16:09:17Z</time>
      </trkpt>
      <trkpt lat="46.311381189152598" lon="8.234545206651092">
        <ele>1973.21</ele>
        <time>2023-09-09T16:09:21Z</time>
      </trkpt>
      <trkpt lat="46.311390660703182" lon="8.234576303511858">
        <ele>1973.05</ele>
        <time>2023-09-09T16:09:23Z</time>
      </trkpt>
      <trkpt lat="46.311430893838406" lon="8.23470588773489">
        <ele>1972.73</ele>
        <time>2023-09-09T16:09:32Z</time>
      </trkpt>
      <trkpt lat="46.311451010406017" lon="8.234758693724871">
        <ele>1972.8800000000001</ele>
        <time>2023-09-09T16:09:36Z</time>
      </trkpt>
      <trkpt lat="46.311500212177634" lon="8.234887942671776">
        <ele>1972.4200000000001</ele>
        <time>2023-09-09T16:09:45Z</time>
      </trkpt>
      <trkpt lat="46.311510102823377" lon="8.234917195513845">
        <ele>1972.45</ele>
        <time>2023-09-09T16:09:47Z</time>
      </trkpt>
      <trkpt lat="46.311529129743576" lon="8.234996069222689">
        <ele>1972.0899999999999</ele>
        <time>2023-09-09T16:09:52Z</time>
      </trkpt>
      <trkpt lat="46.31155326962471" lon="8.235074775293469">
        <ele>1971.76</ele>
        <time>2023-09-09T16:09:57Z</time>
      </trkpt>
      <trkpt lat="46.311553521081805" lon="8.235104698687792">
        <ele>1971.71</ele>
        <time>2023-09-09T16:09:59Z</time>
      </trkpt>
      <trkpt lat="46.311590652912855" lon="8.235211567953229">
        <ele>1971.8800000000001</ele>
        <time>2023-09-09T16:10:07Z</time>
      </trkpt>
      <trkpt lat="46.311606159433722" lon="8.235286669805646">
        <ele>1971.8699999999999</ele>
        <time>2023-09-09T16:10:12Z</time>
      </trkpt>
      <trkpt lat="46.311619989573956" lon="8.235334195196629">
        <ele>1971.51</ele>
        <time>2023-09-09T16:10:15Z</time>
      </trkpt>
      <trkpt lat="46.311638597398996" lon="8.235411224886775">
        <ele>1971.6900000000001</ele>
        <time>2023-09-09T16:10:20Z</time>
      </trkpt>
      <trkpt lat="46.311638429760933" lon="8.235444501042366">
        <ele>1971.6800000000001</ele>
        <time>2023-09-09T16:10:29Z</time>
      </trkpt>
      <trkpt lat="46.311652092263103" lon="8.235521195456386">
        <ele>1971.6400000000001</ele>
        <time>2023-09-09T16:10:34Z</time>
      </trkpt>
      <trkpt lat="46.311658965423703" lon="8.235564278438687">
        <ele>1971.3499999999999</ele>
        <time>2023-09-09T16:10:37Z</time>
      </trkpt>
      <trkpt lat="46.311683775857091" lon="8.235648097470403">
        <ele>1970.71</ele>
        <time>2023-09-09T16:10:43Z</time>
      </trkpt>
      <trkpt lat="46.311722164973617" lon="8.235743148252368">
        <ele>1970.45</ele>
        <time>2023-09-09T16:10:50Z</time>
      </trkpt>
      <trkpt lat="46.311753680929542" lon="8.235846497118473">
        <ele>1970.79</ele>
        <time>2023-09-09T16:10:57Z</time>
      </trkpt>
      <trkpt lat="46.311758207157254" lon="8.235876085236669">
        <ele>1970.72</ele>
        <time>2023-09-09T16:10:59Z</time>
      </trkpt>
      <trkpt lat="46.311774803325534" lon="8.235989827662706">
        <ele>1970.9300000000001</ele>
        <time>2023-09-09T16:11:08Z</time>
      </trkpt>
      <trkpt lat="46.31180053576827" lon="8.236045902594924">
        <ele>1970.8399999999999</ele>
        <time>2023-09-09T16:11:20Z</time>
      </trkpt>
      <trkpt lat="46.311802631244063" lon="8.236056044697762">
        <ele>1970.6099999999999</ele>
        <time>2023-09-09T16:11:21Z</time>
      </trkpt>
      <trkpt lat="46.311813527718186" lon="8.236076664179564">
        <ele>1970.5899999999999</ele>
        <time>2023-09-09T16:11:23Z</time>
      </trkpt>
      <trkpt lat="46.311829118058085" lon="8.23611413128674">
        <ele>1970.51</ele>
        <time>2023-09-09T16:11:26Z</time>
      </trkpt>
      <trkpt lat="46.311834901571274" lon="8.236142043024302">
        <ele>1970.5</ele>
        <time>2023-09-09T16:11:28Z</time>
      </trkpt>
      <trkpt lat="46.311877649277449" lon="8.236284032464027">
        <ele>1970.54</ele>
        <time>2023-09-09T16:11:39Z</time>
      </trkpt>
      <trkpt lat="46.311892485246062" lon="8.236435996368527">
        <ele>1970.48</ele>
        <time>2023-09-09T16:11:50Z</time>
      </trkpt>
      <trkpt lat="46.311896424740553" lon="8.236450497061014">
        <ele>1970.3699999999999</ele>
        <time>2023-09-09T16:11:51Z</time>
      </trkpt>
      <trkpt lat="46.311915451660752" lon="8.236581338569522">
        <ele>1969.99</ele>
        <time>2023-09-09T16:12:00Z</time>
      </trkpt>
      <trkpt lat="46.311917128041387" lon="8.236597012728453">
        <ele>1969.8900000000001</ele>
        <time>2023-09-09T16:12:01Z</time>
      </trkpt>
      <trkpt lat="46.312017878517509" lon="8.236726261675358">
        <ele>1969.6300000000001</ele>
        <time>2023-09-09T16:12:14Z</time>
      </trkpt>
      <trkpt lat="46.312112007290125" lon="8.236840423196554">
        <ele>1969.3199999999999</ele>
        <time>2023-09-09T16:12:25Z</time>
      </trkpt>
      <trkpt lat="46.312158610671759" lon="8.236931869760156">
        <ele>1969.28</ele>
        <time>2023-09-09T16:12:32Z</time>
      </trkpt>
      <trkpt lat="46.312165651470423" lon="8.236959613859654">
        <ele>1969.3699999999999</ele>
        <time>2023-09-09T16:12:34Z</time>
      </trkpt>
      <trkpt lat="46.312196245416999" lon="8.237009821459651">
        <ele>1969.26</ele>
        <time>2023-09-09T16:12:38Z</time>
      </trkpt>
      <trkpt lat="46.312263300642371" lon="8.237187517806888">
        <ele>1969.54</ele>
        <time>2023-09-09T16:12:51Z</time>
      </trkpt>
      <trkpt lat="46.312280986458063" lon="8.237255411222577">
        <ele>1969.7</ele>
        <time>2023-09-09T16:12:56Z</time>
      </trkpt>
      <trkpt lat="46.312309484928846" lon="8.237340403720737">
        <ele>1969.74</ele>
        <time>2023-09-09T16:13:02Z</time>
      </trkpt>
      <trkpt lat="46.312338067218661" lon="8.237394550815225">
        <ele>1969.78</ele>
        <time>2023-09-09T16:13:06Z</time>
      </trkpt>
      <trkpt lat="46.312357429414988" lon="8.237452385947108">
        <ele>1969.97</ele>
        <time>2023-09-09T16:13:10Z</time>
      </trkpt>
      <trkpt lat="46.312378803268075" lon="8.237508377060294">
        <ele>1969.9400000000001</ele>
        <time>2023-09-09T16:13:14Z</time>
      </trkpt>
      <trkpt lat="46.312452061101794" lon="8.237729240208864">
        <ele>1969.8699999999999</ele>
        <time>2023-09-09T16:13:29Z</time>
      </trkpt>
      <trkpt lat="46.312514590099454" lon="8.237920515239239">
        <ele>1969.9100000000001</ele>
        <time>2023-09-09T16:13:42Z</time>
      </trkpt>
      <trkpt lat="46.312653729692101" lon="8.238126626238227">
        <ele>1968.98</ele>
        <time>2023-09-09T16:13:59Z</time>
      </trkpt>
      <trkpt lat="46.312719276174903" lon="8.238195609301329">
        <ele>1969.04</ele>
        <time>2023-09-09T16:14:07Z</time>
      </trkpt>
      <trkpt lat="46.312888842076063" lon="8.238188652321696">
        <ele>1968.3199999999999</ele>
        <time>2023-09-09T16:14:22Z</time>
      </trkpt>
      <trkpt lat="46.313056480139494" lon="8.238200470805168">
        <ele>1968.71</ele>
        <time>2023-09-09T16:14:37Z</time>
      </trkpt>
      <trkpt lat="46.313179777935147" lon="8.238173900172114">
        <ele>1969.52</ele>
        <time>2023-09-09T16:14:49Z</time>
      </trkpt>
      <trkpt lat="46.313325120136142" lon="8.238117573782802">
        <ele>1970.02</ele>
        <time>2023-09-09T16:15:04Z</time>
      </trkpt>
      <trkpt lat="46.313455542549491" lon="8.238091673702002">
        <ele>1970.6900000000001</ele>
        <time>2023-09-09T16:15:18Z</time>
      </trkpt>
      <trkpt lat="46.313583282753825" lon="8.238049009814858">
        <ele>1971.25</ele>
        <time>2023-09-09T16:15:32Z</time>
      </trkpt>
      <trkpt lat="46.313711693510413" lon="8.238067617639899">
        <ele>1970.79</ele>
        <time>2023-09-09T16:15:44Z</time>
      </trkpt>
      <trkpt lat="46.313730888068676" lon="8.2381003908813">
        <ele>1970.95</ele>
        <time>2023-09-09T16:15:47Z</time>
      </trkpt>
      <trkpt lat="46.313817389309406" lon="8.238141210749745">
        <ele>1970.9200000000001</ele>
        <time>2023-09-09T16:15:56Z</time>
      </trkpt>
      <trkpt lat="46.313930042088032" lon="8.238198291510344">
        <ele>1970.6600000000001</ele>
        <time>2023-09-09T16:16:09Z</time>
      </trkpt>
      <trkpt lat="46.313937585800886" lon="8.238217569887638">
        <ele>1970.5</ele>
        <time>2023-09-09T16:16:14Z</time>
      </trkpt>
      <trkpt lat="46.313951667398214" lon="8.238258892670274">
        <ele>1970.1700000000001</ele>
        <time>2023-09-09T16:16:17Z</time>
      </trkpt>
      <trkpt lat="46.314081586897373" lon="8.23836375027895">
        <ele>1969.76</ele>
        <time>2023-09-09T16:16:30Z</time>
      </trkpt>
      <trkpt lat="46.314186863601208" lon="8.238476486876607">
        <ele>1969.3199999999999</ele>
        <time>2023-09-09T16:16:42Z</time>
      </trkpt>
      <trkpt lat="46.314208656549454" lon="8.23850984685123">
        <ele>1969.1500000000001</ele>
        <time>2023-09-09T16:16:45Z</time>
      </trkpt>
      <trkpt lat="46.314220139756799" lon="8.238549241796136">
        <ele>1968.8499999999999</ele>
        <time>2023-09-09T16:16:48Z</time>
      </trkpt>
      <trkpt lat="46.314235981553793" lon="8.238649237900972">
        <ele>1967.7</ele>
        <time>2023-09-09T16:16:55Z</time>
      </trkpt>
      <trkpt lat="46.314210165292025" lon="8.238846799358726">
        <ele>1966.7</ele>
        <time>2023-09-09T16:17:07Z</time>
      </trkpt>
      <trkpt lat="46.314214859157801" lon="8.238895749673247">
        <ele>1966.7</ele>
        <time>2023-09-09T16:17:10Z</time>
      </trkpt>
      <trkpt lat="46.314241094514728" lon="8.238947046920657">
        <ele>1966.74</ele>
        <time>2023-09-09T16:17:14Z</time>
      </trkpt>
      <trkpt lat="46.314317286014557" lon="8.239035392180085">
        <ele>1966.76</ele>
        <time>2023-09-09T16:17:23Z</time>
      </trkpt>
      <trkpt lat="46.314438823610544" lon="8.239096244797111">
        <ele>1966.1600000000001</ele>
        <time>2023-09-09T16:17:35Z</time>
      </trkpt>
      <trkpt lat="46.314551308751106" lon="8.239240581169725">
        <ele>1966.22</ele>
        <time>2023-09-09T16:17:48Z</time>
      </trkpt>
      <trkpt lat="46.314568659290671" lon="8.239263966679573">
        <ele>1966.3699999999999</ele>
        <time>2023-09-09T16:17:50Z</time>
      </trkpt>
      <trkpt lat="46.314647868275642" lon="8.239360861480236">
        <ele>1966.2</ele>
        <time>2023-09-09T16:17:59Z</time>
      </trkpt>
      <trkpt lat="46.314668403938413" lon="8.239417690783739">
        <ele>1965.72</ele>
        <time>2023-09-09T16:18:03Z</time>
      </trkpt>
      <trkpt lat="46.314711235463619" lon="8.23953453451395">
        <ele>1965.28</ele>
        <time>2023-09-09T16:18:15Z</time>
      </trkpt>
      <trkpt lat="46.31475037895143" lon="8.23964886367321">
        <ele>1964.97</ele>
        <time>2023-09-09T16:18:23Z</time>
      </trkpt>
      <trkpt lat="46.314789019525051" lon="8.239765875041485">
        <ele>1963.9400000000001</ele>
        <time>2023-09-09T16:18:36Z</time>
      </trkpt>
      <trkpt lat="46.314798574894667" lon="8.23979395441711">
        <ele>1963.5999999999999</ele>
        <time>2023-09-09T16:18:40Z</time>
      </trkpt>
      <trkpt lat="46.314875856041908" lon="8.239968298003078">
        <ele>1962.3499999999999</ele>
        <time>2023-09-09T16:18:54Z</time>
      </trkpt>
      <trkpt lat="46.314891865476966" lon="8.239987157285214">
        <ele>1962.22</ele>
        <time>2023-09-09T16:18:56Z</time>
      </trkpt>
      <trkpt lat="46.314975516870618" lon="8.240185808390379">
        <ele>1960.24</ele>
        <time>2023-09-09T16:19:11Z</time>
      </trkpt>
      <trkpt lat="46.314983563497663" lon="8.240207768976688">
        <ele>1960.03</ele>
        <time>2023-09-09T16:19:13Z</time>
      </trkpt>
      <trkpt lat="46.314989347010851" lon="8.240257725119591">
        <ele>1958.6099999999999</ele>
        <time>2023-09-09T16:20:32Z</time>
      </trkpt>
      <trkpt lat="46.314991526305676" lon="8.240253534168005">
        <ele>1958.0599999999999</ele>
        <time>2023-09-09T16:21:24Z</time>
      </trkpt>
      <trkpt lat="46.315011894330382" lon="8.240286307409406">
        <ele>1957.95</ele>
        <time>2023-09-09T16:23:01Z</time>
      </trkpt>
      <trkpt lat="46.315047182142735" lon="8.240328468382359">
        <ele>1957.6400000000001</ele>
        <time>2023-09-09T16:23:06Z</time>
      </trkpt>
      <trkpt lat="46.315075429156423" lon="8.240339197218418">
        <ele>1957.3099999999999</ele>
        <time>2023-09-09T16:23:09Z</time>
      </trkpt>
      <trkpt lat="46.315174670889974" lon="8.240430057048798">
        <ele>1956.71</ele>
        <time>2023-09-09T16:23:21Z</time>
      </trkpt>
      <trkpt lat="46.31520769558847" lon="8.240505326539278">
        <ele>1956.0899999999999</ele>
        <time>2023-09-09T16:23:32Z</time>
      </trkpt>
      <trkpt lat="46.315295789390802" lon="8.240568693727255">
        <ele>1955.21</ele>
        <time>2023-09-09T16:23:43Z</time>
      </trkpt>
      <trkpt lat="46.315304590389132" lon="8.240574561059475">
        <ele>1955.0899999999999</ele>
        <time>2023-09-09T16:23:44Z</time>
      </trkpt>
      <trkpt lat="46.315370723605156" lon="8.240600293502212">
        <ele>1954.29</ele>
        <time>2023-09-09T16:23:51Z</time>
      </trkpt>
      <trkpt lat="46.315457224845886" lon="8.240621332079172">
        <ele>1954.0899999999999</ele>
        <time>2023-09-09T16:24:02Z</time>
      </trkpt>
      <trkpt lat="46.315483627840877" lon="8.240632815286517">
        <ele>1953.9300000000001</ele>
        <time>2023-09-09T16:24:05Z</time>
      </trkpt>
      <trkpt lat="46.315585216507316" lon="8.240743707865477">
        <ele>1952.6700000000001</ele>
        <time>2023-09-09T16:24:18Z</time>
      </trkpt>
      <trkpt lat="46.315686218440533" lon="8.240857115015388">
        <ele>1951.3299999999999</ele>
        <time>2023-09-09T16:24:32Z</time>
      </trkpt>
      <trkpt lat="46.315802559256554" lon="8.240975551307201">
        <ele>1949.6700000000001</ele>
        <time>2023-09-09T16:24:46Z</time>
      </trkpt>
      <trkpt lat="46.315877912566066" lon="8.241105219349265">
        <ele>1949.8900000000001</ele>
        <time>2023-09-09T16:24:58Z</time>
      </trkpt>
      <trkpt lat="46.31589375436306" lon="8.241109913215041">
        <ele>1949.95</ele>
        <time>2023-09-09T16:25:00Z</time>
      </trkpt>
      <trkpt lat="46.315924432128668" lon="8.241114858537912">
        <ele>1949.6199999999999</ele>
        <time>2023-09-09T16:25:03Z</time>
      </trkpt>
      <trkpt lat="46.316003892570734" lon="8.24125693179667">
        <ele>1949.3299999999999</ele>
        <time>2023-09-09T16:25:16Z</time>
      </trkpt>
      <trkpt lat="46.316027948632836" lon="8.241333710029721">
        <ele>1950.1800000000001</ele>
        <time>2023-09-09T16:25:24Z</time>
      </trkpt>
      <trkpt lat="46.316071534529328" lon="8.241446698084474">
        <ele>1950.9000000000001</ele>
        <time>2023-09-09T16:25:34Z</time>
      </trkpt>
      <trkpt lat="46.316156359389424" lon="8.241580808535218">
        <ele>1951.55</ele>
        <time>2023-09-09T16:25:47Z</time>
      </trkpt>
      <trkpt lat="46.316237831488252" lon="8.241716343909502">
        <ele>1952.4400000000001</ele>
        <time>2023-09-09T16:26:02Z</time>
      </trkpt>
      <trkpt lat="46.316257948055863" lon="8.241791613399983">
        <ele>1953</ele>
        <time>2023-09-09T16:26:09Z</time>
      </trkpt>
      <trkpt lat="46.316287871450186" lon="8.241966543719173">
        <ele>1953.4100000000001</ele>
        <time>2023-09-09T16:26:23Z</time>
      </trkpt>
      <trkpt lat="46.316340174525976" lon="8.242158237844706">
        <ele>1953.4400000000001</ele>
        <time>2023-09-09T16:26:38Z</time>
      </trkpt>
      <trkpt lat="46.31638627499342" lon="8.242352111265063">
        <ele>1952.5699999999999</ele>
        <time>2023-09-09T16:26:53Z</time>
      </trkpt>
      <trkpt lat="46.316392980515957" lon="8.242380609735847">
        <ele>1952.1500000000001</ele>
        <time>2023-09-09T16:27:03Z</time>
      </trkpt>
      <trkpt lat="46.316394992172718" lon="8.242390416562557">
        <ele>1952.1800000000001</ele>
        <time>2023-09-09T16:27:06Z</time>
      </trkpt>
      <trkpt lat="46.316434973850846" lon="8.242636006325483">
        <ele>1951.3299999999999</ele>
        <time>2023-09-09T16:27:23Z</time>
      </trkpt>
      <trkpt lat="46.31646690890193" lon="8.242793334648013">
        <ele>1951.4000000000001</ele>
        <time>2023-09-09T16:27:36Z</time>
      </trkpt>
      <trkpt lat="46.316497921943665" lon="8.242990728467703">
        <ele>1950.3499999999999</ele>
        <time>2023-09-09T16:27:49Z</time>
      </trkpt>
      <trkpt lat="46.316510243341327" lon="8.243108158931136">
        <ele>1950.5599999999999</ele>
        <time>2023-09-09T16:28:00Z</time>
      </trkpt>
      <trkpt lat="46.316524827852845" lon="8.243219051510096">
        <ele>1950.1500000000001</ele>
        <time>2023-09-09T16:28:09Z</time>
      </trkpt>
      <trkpt lat="46.316575789824128" lon="8.243255680426955">
        <ele>1950.3299999999999</ele>
        <time>2023-09-09T16:28:19Z</time>
      </trkpt>
      <trkpt lat="46.316609401255846" lon="8.24323195964098">
        <ele>1950.3099999999999</ele>
        <time>2023-09-09T16:28:23Z</time>
      </trkpt>
      <trkpt lat="46.316681653261185" lon="8.243159623816609">
        <ele>1950.29</ele>
        <time>2023-09-09T16:28:32Z</time>
      </trkpt>
      <trkpt lat="46.316708726808429" lon="8.24309416115284">
        <ele>1949.8800000000001</ele>
        <time>2023-09-09T16:28:38Z</time>
      </trkpt>
      <trkpt lat="46.316762203350663" lon="8.243105811998248">
        <ele>1949.01</ele>
        <time>2023-09-09T16:28:44Z</time>
      </trkpt>
      <trkpt lat="46.3168172724545" lon="8.243110002949834">
        <ele>1947.99</ele>
        <time>2023-09-09T16:28:50Z</time>
      </trkpt>
      <trkpt lat="46.316963704302907" lon="8.243119893595576">
        <ele>1946.98</ele>
        <time>2023-09-09T16:29:04Z</time>
      </trkpt>
      <trkpt lat="46.316994465887547" lon="8.243339750915766">
        <ele>1945.7</ele>
        <time>2023-09-09T16:29:18Z</time>
      </trkpt>
      <trkpt lat="46.317019024863839" lon="8.243535803630948">
        <ele>1944.5899999999999</ele>
        <time>2023-09-09T16:29:30Z</time>
      </trkpt>
      <trkpt lat="46.317085493355989" lon="8.243719954043627">
        <ele>1943.6199999999999</ele>
        <time>2023-09-09T16:29:43Z</time>
      </trkpt>
      <trkpt lat="46.317178532481194" lon="8.243871666491032">
        <ele>1941.22</ele>
        <time>2023-09-09T16:29:56Z</time>
      </trkpt>
      <trkpt lat="46.317189009860158" lon="8.243875186890364">
        <ele>1941.27</ele>
        <time>2023-09-09T16:29:57Z</time>
      </trkpt>
      <trkpt lat="46.31728489883244" lon="8.244001585990191">
        <ele>1939.1600000000001</ele>
        <time>2023-09-09T16:30:11Z</time>
      </trkpt>
      <trkpt lat="46.317306440323591" lon="8.244016505777836">
        <ele>1938.46</ele>
        <time>2023-09-09T16:30:14Z</time>
      </trkpt>
      <trkpt lat="46.317334687337279" lon="8.244036789983511">
        <ele>1937.7</ele>
        <time>2023-09-09T16:30:17Z</time>
      </trkpt>
      <trkpt lat="46.317401742562652" lon="8.244137205183506">
        <ele>1935.24</ele>
        <time>2023-09-09T16:30:30Z</time>
      </trkpt>
      <trkpt lat="46.31741976365447" lon="8.244157321751118">
        <ele>1934.4400000000001</ele>
        <time>2023-09-09T16:30:33Z</time>
      </trkpt>
      <trkpt lat="46.317467289045453" lon="8.244290426373482">
        <ele>1931.8900000000001</ele>
        <time>2023-09-09T16:30:47Z</time>
      </trkpt>
      <trkpt lat="46.317507857456803" lon="8.244390087202191">
        <ele>1929.6500000000001</ele>
        <time>2023-09-09T16:30:57Z</time>
      </trkpt>
      <trkpt lat="46.317536355927587" lon="8.244521515443921">
        <ele>1927.53</ele>
        <time>2023-09-09T16:31:09Z</time>
      </trkpt>
      <trkpt lat="46.317548593506217" lon="8.244615057483316">
        <ele>1925.1800000000001</ele>
        <time>2023-09-09T16:31:19Z</time>
      </trkpt>
      <trkpt lat="46.317571643739939" lon="8.244739780202508">
        <ele>1922.8800000000001</ele>
        <time>2023-09-09T16:31:30Z</time>
      </trkpt>
      <trkpt lat="46.31758488714695" lon="8.244779426604509">
        <ele>1921.8199999999999</ele>
        <time>2023-09-09T16:31:33Z</time>
      </trkpt>
      <trkpt lat="46.317560411989689" lon="8.244897862896323">
        <ele>1919.47</ele>
        <time>2023-09-09T16:31:42Z</time>
      </trkpt>
      <trkpt lat="46.317555718123913" lon="8.244989980012178">
        <ele>1917.99</ele>
        <time>2023-09-09T16:31:49Z</time>
      </trkpt>
      <trkpt lat="46.317594861611724" lon="8.245150912553072">
        <ele>1914.74</ele>
        <time>2023-09-09T16:32:03Z</time>
      </trkpt>
      <trkpt lat="46.317610116675496" lon="8.245271947234869">
        <ele>1911.5699999999999</ele>
        <time>2023-09-09T16:32:14Z</time>
      </trkpt>
      <trkpt lat="46.317591927945614" lon="8.245336571708322">
        <ele>1909.8099999999999</ele>
        <time>2023-09-09T16:32:22Z</time>
      </trkpt>
      <trkpt lat="46.317615397274494" lon="8.245350485667586">
        <ele>1909.1800000000001</ele>
        <time>2023-09-09T16:32:25Z</time>
      </trkpt>
      <trkpt lat="46.317637776955962" lon="8.245451906695962">
        <ele>1906.6199999999999</ele>
        <time>2023-09-09T16:32:36Z</time>
      </trkpt>
      <trkpt lat="46.317618833854795" lon="8.24552264995873">
        <ele>1905.0899999999999</ele>
        <time>2023-09-09T16:32:45Z</time>
      </trkpt>
      <trkpt lat="46.317628221586347" lon="8.245602613314986">
        <ele>1903.3800000000001</ele>
        <time>2023-09-09T16:32:53Z</time>
      </trkpt>
      <trkpt lat="46.317628137767315" lon="8.245643014088273">
        <ele>1901.99</ele>
        <time>2023-09-09T16:32:56Z</time>
      </trkpt>
      <trkpt lat="46.317629478871822" lon="8.24572155252099">
        <ele>1900.1600000000001</ele>
        <time>2023-09-09T16:33:03Z</time>
      </trkpt>
      <trkpt lat="46.317657390609384" lon="8.245875276625156">
        <ele>1896.9400000000001</ele>
        <time>2023-09-09T16:33:16Z</time>
      </trkpt>
      <trkpt lat="46.317656971514225" lon="8.245888603851199">
        <ele>1896.98</ele>
        <time>2023-09-09T16:33:17Z</time>
      </trkpt>
      <trkpt lat="46.317620845511556" lon="8.245952390134335">
        <ele>1895.3800000000001</ele>
        <time>2023-09-09T16:33:24Z</time>
      </trkpt>
      <trkpt lat="46.317651942372322" lon="8.246075185015798">
        <ele>1892.49</ele>
        <time>2023-09-09T16:33:37Z</time>
      </trkpt>
      <trkpt lat="46.317670717835426" lon="8.246188508346677">
        <ele>1889.73</ele>
        <time>2023-09-09T16:33:48Z</time>
      </trkpt>
      <trkpt lat="46.317637776955962" lon="8.246264029294252">
        <ele>1887.8199999999999</ele>
        <time>2023-09-09T16:33:57Z</time>
      </trkpt>
      <trkpt lat="46.317658647894859" lon="8.246315075084567">
        <ele>1886.21</ele>
        <time>2023-09-09T16:34:08Z</time>
      </trkpt>
      <trkpt lat="46.317783705890179" lon="8.246330497786403">
        <ele>1883.1800000000001</ele>
        <time>2023-09-09T16:34:22Z</time>
      </trkpt>
      <trkpt lat="46.317867441102862" lon="8.246384141966701">
        <ele>1880.3199999999999</ele>
        <time>2023-09-09T16:34:34Z</time>
      </trkpt>
      <trkpt lat="46.317904656752944" lon="8.246444072574377">
        <ele>1878.71</ele>
        <time>2023-09-09T16:34:42Z</time>
      </trkpt>
      <trkpt lat="46.317927455529571" lon="8.246474666520953">
        <ele>1878.1600000000001</ele>
        <time>2023-09-09T16:34:45Z</time>
      </trkpt>
      <trkpt lat="46.317920247092843" lon="8.24659176170826">
        <ele>1875.97</ele>
        <time>2023-09-09T16:34:57Z</time>
      </trkpt>
      <trkpt lat="46.317900633439422" lon="8.246685639023781">
        <ele>1873.99</ele>
        <time>2023-09-09T16:35:06Z</time>
      </trkpt>
      <trkpt lat="46.317888898774981" lon="8.246709695085883">
        <ele>1873.1900000000001</ele>
        <time>2023-09-09T16:35:08Z</time>
      </trkpt>
      <trkpt lat="46.317881019786" lon="8.246720340102911">
        <ele>1872.8</ele>
        <time>2023-09-09T16:35:09Z</time>
      </trkpt>
      <trkpt lat="46.317826872691512" lon="8.246685136109591">
        <ele>1870.5799999999999</ele>
        <time>2023-09-09T16:35:19Z</time>
      </trkpt>
      <trkpt lat="46.317800972610712" lon="8.246713634580374">
        <ele>1869.8199999999999</ele>
        <time>2023-09-09T16:35:23Z</time>
      </trkpt>
      <trkpt lat="46.317749256268144" lon="8.246739786118269">
        <ele>1868.6199999999999</ele>
        <time>2023-09-09T16:35:29Z</time>
      </trkpt>
      <trkpt lat="46.317631239071488" lon="8.246758813038468">
        <ele>1865.5</ele>
        <time>2023-09-09T16:35:42Z</time>
      </trkpt>
      <trkpt lat="46.317622438073158" lon="8.246763339266181">
        <ele>1865.3900000000001</ele>
        <time>2023-09-09T16:35:43Z</time>
      </trkpt>
      <trkpt lat="46.317532584071159" lon="8.246723525226116">
        <ele>1862.53</ele>
        <time>2023-09-09T16:35:52Z</time>
      </trkpt>
      <trkpt lat="46.317508444190025" lon="8.246718915179372">
        <ele>1862.24</ele>
        <time>2023-09-09T16:36:04Z</time>
      </trkpt>
      <trkpt lat="46.317507270723581" lon="8.246718998998404">
        <ele>1861.3900000000001</ele>
        <time>2023-09-09T16:36:06Z</time>
      </trkpt>
      <trkpt lat="46.317492267116904" lon="8.246720172464848">
        <ele>1862.1700000000001</ele>
        <time>2023-09-09T16:36:25Z</time>
      </trkpt>
      <trkpt lat="46.31748472340405" lon="8.246718412265182">
        <ele>1861.01</ele>
        <time>2023-09-09T16:36:26Z</time>
      </trkpt>
      <trkpt lat="46.317466283217072" lon="8.246708773076534">
        <ele>1860.1300000000001</ele>
        <time>2023-09-09T16:36:28Z</time>
      </trkpt>
      <trkpt lat="46.317442813888192" lon="8.246697541326284">
        <ele>1859.8699999999999</ele>
        <time>2023-09-09T16:36:41Z</time>
      </trkpt>
      <trkpt lat="46.3174216914922" lon="8.246695026755333">
        <ele>1859.6500000000001</ele>
        <time>2023-09-09T16:37:11Z</time>
      </trkpt>
      <trkpt lat="46.317392103374004" lon="8.24667876586318">
        <ele>1858.6400000000001</ele>
        <time>2023-09-09T16:37:22Z</time>
      </trkpt>
      <trkpt lat="46.317335441708565" lon="8.246697708964348">
        <ele>1857.3</ele>
        <time>2023-09-09T16:37:29Z</time>
      </trkpt>
      <trkpt lat="46.317287497222424" lon="8.24668756686151">
        <ele>1856.55</ele>
        <time>2023-09-09T16:37:44Z</time>
      </trkpt>
      <trkpt lat="46.317279199138284" lon="8.246685303747654">
        <ele>1856.1099999999999</ele>
        <time>2023-09-09T16:37:45Z</time>
      </trkpt>
      <trkpt lat="46.317257238551974" lon="8.246677005663514">
        <ele>1855.5699999999999</ele>
        <time>2023-09-09T16:37:47Z</time>
      </trkpt>
      <trkpt lat="46.317156236618757" lon="8.246669713407755">
        <ele>1854.45</ele>
        <time>2023-09-09T16:37:59Z</time>
      </trkpt>
      <trkpt lat="46.317152213305235" lon="8.246670886874199">
        <ele>1854.3099999999999</ele>
        <time>2023-09-09T16:38:01Z</time>
      </trkpt>
      <trkpt lat="46.317094713449478" lon="8.246708605438471">
        <ele>1853.3499999999999</ele>
        <time>2023-09-09T16:38:08Z</time>
      </trkpt>
      <trkpt lat="46.316976277157664" lon="8.246790831908584">
        <ele>1850.5799999999999</ele>
        <time>2023-09-09T16:38:21Z</time>
      </trkpt>
      <trkpt lat="46.316952053457499" lon="8.246793514117599">
        <ele>1850.2</ele>
        <time>2023-09-09T16:38:23Z</time>
      </trkpt>
      <trkpt lat="46.316904528066516" lon="8.246828466653824">
        <ele>1848.5</ele>
        <time>2023-09-09T16:38:29Z</time>
      </trkpt>
      <trkpt lat="46.31696873344481" lon="8.246883284300566">
        <ele>1846.9300000000001</ele>
        <time>2023-09-09T16:38:40Z</time>
      </trkpt>
      <trkpt lat="46.31699756719172" lon="8.246904071420431">
        <ele>1846.1700000000001</ele>
        <time>2023-09-09T16:38:44Z</time>
      </trkpt>
      <trkpt lat="46.317150369286537" lon="8.246979843825102">
        <ele>1842.8199999999999</ele>
        <time>2023-09-09T16:38:59Z</time>
      </trkpt>
      <trkpt lat="46.317191608250141" lon="8.247043630108237">
        <ele>1840.8499999999999</ele>
        <time>2023-09-09T16:39:06Z</time>
      </trkpt>
      <trkpt lat="46.317181717604399" lon="8.247102219611406">
        <ele>1839.5899999999999</ele>
        <time>2023-09-09T16:39:11Z</time>
      </trkpt>
      <trkpt lat="46.317112315446138" lon="8.247121330350637">
        <ele>1837.9100000000001</ele>
        <time>2023-09-09T16:39:18Z</time>
      </trkpt>
      <trkpt lat="46.317091528326273" lon="8.247126862406731">
        <ele>1837.23</ele>
        <time>2023-09-09T16:39:20Z</time>
      </trkpt>
      <trkpt lat="46.317091193050146" lon="8.247158043086529">
        <ele>1836.03</ele>
        <time>2023-09-09T16:39:25Z</time>
      </trkpt>
      <trkpt lat="46.317115249112248" lon="8.247211268171668">
        <ele>1834.2</ele>
        <time>2023-09-09T16:39:30Z</time>
      </trkpt>
      <trkpt lat="46.317104771733284" lon="8.247293159365654">
        <ele>1831.21</ele>
        <time>2023-09-09T16:39:40Z</time>
      </trkpt>
      <trkpt lat="46.317185824736953" lon="8.247371865436435">
        <ele>1828.02</ele>
        <time>2023-09-09T16:39:52Z</time>
      </trkpt>
      <trkpt lat="46.317225052043796" lon="8.247466329485178">
        <ele>1824.96</ele>
        <time>2023-09-09T16:40:02Z</time>
      </trkpt>
      <trkpt lat="46.317332591861486" lon="8.247560793533921">
        <ele>1822.4200000000001</ele>
        <time>2023-09-09T16:40:14Z</time>
      </trkpt>
      <trkpt lat="46.317388331517577" lon="8.247561380267143">
        <ele>1822.6400000000001</ele>
        <time>2023-09-09T16:40:20Z</time>
      </trkpt>
      <trkpt lat="46.317474246025085" lon="8.247651318088174">
        <ele>1820.2</ele>
        <time>2023-09-09T16:40:32Z</time>
      </trkpt>
      <trkpt lat="46.31756586022675" lon="8.247726587578654">
        <ele>1817.3699999999999</ele>
        <time>2023-09-09T16:40:44Z</time>
      </trkpt>
      <trkpt lat="46.31763081997633" lon="8.247792469337583">
        <ele>1814.4200000000001</ele>
        <time>2023-09-09T16:40:54Z</time>
      </trkpt>
      <trkpt lat="46.317677507176995" lon="8.247882658615708">
        <ele>1811.51</ele>
        <time>2023-09-09T16:41:06Z</time>
      </trkpt>
      <trkpt lat="46.317719332873821" lon="8.247956587001681">
        <ele>1809.5999999999999</ele>
        <time>2023-09-09T16:41:18Z</time>
      </trkpt>
      <trkpt lat="46.31772805005312" lon="8.248029761016369">
        <ele>1807.8499999999999</ele>
        <time>2023-09-09T16:41:32Z</time>
      </trkpt>
      <trkpt lat="46.317712040618062" lon="8.248034035786986">
        <ele>1807.9000000000001</ele>
        <time>2023-09-09T16:41:47Z</time>
      </trkpt>
      <trkpt lat="46.317704664543271" lon="8.248072508722544">
        <ele>1806.77</ele>
        <time>2023-09-09T16:42:08Z</time>
      </trkpt>
      <trkpt lat="46.317696534097195" lon="8.248113244771957">
        <ele>1806.05</ele>
        <time>2023-09-09T16:42:20Z</time>
      </trkpt>
      <trkpt lat="46.31770072504878" lon="8.248127577826381">
        <ele>1805.6099999999999</ele>
        <time>2023-09-09T16:42:21Z</time>
      </trkpt>
      <trkpt lat="46.317678429186344" lon="8.248255737125874">
        <ele>1803.04</ele>
        <time>2023-09-09T16:42:33Z</time>
      </trkpt>
      <trkpt lat="46.317666443064809" lon="8.248244589194655">
        <ele>1802.4400000000001</ele>
        <time>2023-09-09T16:42:35Z</time>
      </trkpt>
      <trkpt lat="46.317560495808721" lon="8.248273087665439">
        <ele>1799.74</ele>
        <time>2023-09-09T16:42:48Z</time>
      </trkpt>
      <trkpt lat="46.3174734916538" lon="8.248347099870443">
        <ele>1796.6900000000001</ele>
        <time>2023-09-09T16:43:01Z</time>
      </trkpt>
      <trkpt lat="46.317464858293533" lon="8.248495794832707">
        <ele>1793.77</ele>
        <time>2023-09-09T16:43:15Z</time>
      </trkpt>
      <trkpt lat="46.317416746169329" lon="8.248583469539881">
        <ele>1791.5</ele>
        <time>2023-09-09T16:43:27Z</time>
      </trkpt>
      <trkpt lat="46.317389504984021" lon="8.24855069629848">
        <ele>1791.0899999999999</ele>
        <time>2023-09-09T16:43:31Z</time>
      </trkpt>
      <trkpt lat="46.317299148067832" lon="8.248548852279782">
        <ele>1788.76</ele>
        <time>2023-09-09T16:43:43Z</time>
      </trkpt>
      <trkpt lat="46.317259920760989" lon="8.248541224747896">
        <ele>1787.46</ele>
        <time>2023-09-09T16:43:56Z</time>
      </trkpt>
      <trkpt lat="46.317258412018418" lon="8.248655050992966">
        <ele>1785.1300000000001</ele>
        <time>2023-09-09T16:44:11Z</time>
      </trkpt>
      <trkpt lat="46.317288083955646" lon="8.248742138966918">
        <ele>1783.4400000000001</ele>
        <time>2023-09-09T16:44:23Z</time>
      </trkpt>
      <trkpt lat="46.317291604354978" lon="8.248850097879767">
        <ele>1781.0799999999999</ele>
        <time>2023-09-09T16:44:37Z</time>
      </trkpt>
      <trkpt lat="46.317289089784026" lon="8.248893180862069">
        <ele>1780.0799999999999</ele>
        <time>2023-09-09T16:44:52Z</time>
      </trkpt>
      <trkpt lat="46.317291352897882" lon="8.248964678496122">
        <ele>1778.3800000000001</ele>
        <time>2023-09-09T16:45:05Z</time>
      </trkpt>
      <trkpt lat="46.317268637940288" lon="8.249070793390274">
        <ele>1776.21</ele>
        <time>2023-09-09T16:45:16Z</time>
      </trkpt>
      <trkpt lat="46.317258412018418" lon="8.249148828908801">
        <ele>1774.9200000000001</ele>
        <time>2023-09-09T16:45:28Z</time>
      </trkpt>
      <trkpt lat="46.317223375663161" lon="8.249212866649032">
        <ele>1773.1800000000001</ele>
        <time>2023-09-09T16:45:41Z</time>
      </trkpt>
      <trkpt lat="46.317176437005401" lon="8.249288639053702">
        <ele>1771.4000000000001</ele>
        <time>2023-09-09T16:45:54Z</time>
      </trkpt>
      <trkpt lat="46.317149614915252" lon="8.249360723420978">
        <ele>1769.8599999999999</ele>
        <time>2023-09-09T16:46:02Z</time>
      </trkpt>
      <trkpt lat="46.317118434235454" lon="8.249410595744848">
        <ele>1769.3299999999999</ele>
        <time>2023-09-09T16:46:07Z</time>
      </trkpt>
      <trkpt lat="46.317052468657494" lon="8.249544287100434">
        <ele>1769.29</ele>
        <time>2023-09-09T16:46:21Z</time>
      </trkpt>
      <trkpt lat="46.317051043733954" lon="8.24954797513783">
        <ele>1767.3299999999999</ele>
        <time>2023-09-09T16:46:25Z</time>
      </trkpt>
      <trkpt lat="46.317005110904574" lon="8.249538084492087">
        <ele>1765.3599999999999</ele>
        <time>2023-09-09T16:46:41Z</time>
      </trkpt>
      <trkpt lat="46.317002009600401" lon="8.249449403956533">
        <ele>1763.3499999999999</ele>
        <time>2023-09-09T16:46:56Z</time>
      </trkpt>
      <trkpt lat="46.316988095641136" lon="8.249325016513467">
        <ele>1761.7</ele>
        <time>2023-09-09T16:47:07Z</time>
      </trkpt>
      <trkpt lat="46.316995974630117" lon="8.249311856925488">
        <ele>1761.54</ele>
        <time>2023-09-09T16:47:17Z</time>
      </trkpt>
      <trkpt lat="46.317000668495893" lon="8.249299451708794">
        <ele>1761.3499999999999</ele>
        <time>2023-09-09T16:47:37Z</time>
      </trkpt>
      <trkpt lat="46.317018689587712" lon="8.249244298785925">
        <ele>1760.98</ele>
        <time>2023-09-09T16:47:43Z</time>
      </trkpt>
      <trkpt lat="46.317016258835793" lon="8.249192582443357">
        <ele>1760.05</ele>
        <time>2023-09-09T16:47:47Z</time>
      </trkpt>
      <trkpt lat="46.316953143104911" lon="8.249108847230673">
        <ele>1756.74</ele>
        <time>2023-09-09T16:47:58Z</time>
      </trkpt>
      <trkpt lat="46.31689933128655" lon="8.249064590781927">
        <ele>1754.0599999999999</ele>
        <time>2023-09-09T16:48:09Z</time>
      </trkpt>
      <trkpt lat="46.316874520853162" lon="8.249109601601958">
        <ele>1752.49</ele>
        <time>2023-09-09T16:48:23Z</time>
      </trkpt>
      <trkpt lat="46.316852560266852" lon="8.249190403148532">
        <ele>1750.8699999999999</ele>
        <time>2023-09-09T16:48:32Z</time>
      </trkpt>
      <trkpt lat="46.316840657964349" lon="8.249301966279745">
        <ele>1749.27</ele>
        <time>2023-09-09T16:48:45Z</time>
      </trkpt>
      <trkpt lat="46.316812327131629" lon="8.24938134290278">
        <ele>1747.6600000000001</ele>
        <time>2023-09-09T16:48:59Z</time>
      </trkpt>
      <trkpt lat="46.316776033490896" lon="8.24932225048542">
        <ele>1746.6700000000001</ele>
        <time>2023-09-09T16:49:09Z</time>
      </trkpt>
      <trkpt lat="46.316732531413436" lon="8.249255446717143">
        <ele>1744.6199999999999</ele>
        <time>2023-09-09T16:49:22Z</time>
      </trkpt>
      <trkpt lat="46.316670002415776" lon="8.249183110892773">
        <ele>1742.76</ele>
        <time>2023-09-09T16:49:36Z</time>
      </trkpt>
      <trkpt lat="46.316648041829467" lon="8.249149918556213">
        <ele>1741.6099999999999</ele>
        <time>2023-09-09T16:49:47Z</time>
      </trkpt>
      <trkpt lat="46.316601019352674" lon="8.249076493084431">
        <ele>1739.1199999999999</ele>
        <time>2023-09-09T16:49:59Z</time>
      </trkpt>
      <trkpt lat="46.316580651327968" lon="8.249102057889104">
        <ele>1738.6500000000001</ele>
        <time>2023-09-09T16:50:02Z</time>
      </trkpt>
      <trkpt lat="46.316592553630471" lon="8.249194761738181">
        <ele>1737.52</ele>
        <time>2023-09-09T16:50:13Z</time>
      </trkpt>
      <trkpt lat="46.316616609692574" lon="8.249278832226992">
        <ele>1735.28</ele>
        <time>2023-09-09T16:50:30Z</time>
      </trkpt>
      <trkpt lat="46.316579729318619" lon="8.249348904937506">
        <ele>1732.8699999999999</ele>
        <time>2023-09-09T16:50:43Z</time>
      </trkpt>
      <trkpt lat="46.316546034067869" lon="8.249464156106114">
        <ele>1730.6600000000001</ele>
        <time>2023-09-09T16:50:57Z</time>
      </trkpt>
      <trkpt lat="46.316531114280224" lon="8.249538838863373">
        <ele>1729.53</ele>
        <time>2023-09-09T16:51:09Z</time>
      </trkpt>
      <trkpt lat="46.316534886136651" lon="8.24958804063499">
        <ele>1727.9300000000001</ele>
        <time>2023-09-09T16:51:21Z</time>
      </trkpt>
      <trkpt lat="46.316502615809441" lon="8.249693065881729">
        <ele>1725.5799999999999</ele>
        <time>2023-09-09T16:51:32Z</time>
      </trkpt>
      <trkpt lat="46.316474704071879" lon="8.249830864369869">
        <ele>1722.52</ele>
        <time>2023-09-09T16:51:44Z</time>
      </trkpt>
      <trkpt lat="46.316443523392081" lon="8.249931950122118">
        <ele>1720.4300000000001</ele>
        <time>2023-09-09T16:51:55Z</time>
      </trkpt>
      <trkpt lat="46.316410498693585" lon="8.250022642314434">
        <ele>1718.6700000000001</ele>
        <time>2023-09-09T16:52:06Z</time>
      </trkpt>
      <trkpt lat="46.316379737108946" lon="8.250155663117766">
        <ele>1715.97</ele>
        <time>2023-09-09T16:52:20Z</time>
      </trkpt>
      <trkpt lat="46.316329529508948" lon="8.250272423028946">
        <ele>1713.0999999999999</ele>
        <time>2023-09-09T16:52:33Z</time>
      </trkpt>
      <trkpt lat="46.316278399899602" lon="8.250406784936786">
        <ele>1710.21</ele>
        <time>2023-09-09T16:52:48Z</time>
      </trkpt>
      <trkpt lat="46.31620354950428" lon="8.250520024448633">
        <ele>1707.5599999999999</ele>
        <time>2023-09-09T16:53:02Z</time>
      </trkpt>
      <trkpt lat="46.31611755117774" lon="8.2506547216326">
        <ele>1704.6199999999999</ele>
        <time>2023-09-09T16:53:18Z</time>
      </trkpt>
      <trkpt lat="46.316043958067894" lon="8.25081791728735">
        <ele>1701.99</ele>
        <time>2023-09-09T16:53:33Z</time>
      </trkpt>
      <trkpt lat="46.315961983054876" lon="8.250922774896026">
        <ele>1700.1900000000001</ele>
        <time>2023-09-09T16:53:46Z</time>
      </trkpt>
      <trkpt lat="46.315886294469237" lon="8.251044312492013">
        <ele>1698.6199999999999</ele>
        <time>2023-09-09T16:53:58Z</time>
      </trkpt>
      <trkpt lat="46.315876739099622" lon="8.251055544242263">
        <ele>1698.6900000000001</ele>
        <time>2023-09-09T16:54:02Z</time>
      </trkpt>
      <trkpt lat="46.315856790170074" lon="8.251084042713046">
        <ele>1698.22</ele>
        <time>2023-09-09T16:54:05Z</time>
      </trkpt>
      <trkpt lat="46.31575302220881" lon="8.251171130686998">
        <ele>1697.1700000000001</ele>
        <time>2023-09-09T16:54:17Z</time>
      </trkpt>
      <trkpt lat="46.315641542896628" lon="8.251270204782486">
        <ele>1695.72</ele>
        <time>2023-09-09T16:54:30Z</time>
      </trkpt>
      <trkpt lat="46.315530147403479" lon="8.25135100632906">
        <ele>1695.1099999999999</ele>
        <time>2023-09-09T16:54:43Z</time>
      </trkpt>
      <trkpt lat="46.315491171553731" lon="8.25139157474041">
        <ele>1693.9100000000001</ele>
        <time>2023-09-09T16:54:48Z</time>
      </trkpt>
      <trkpt lat="46.31542076356709" lon="8.251463156193495">
        <ele>1692.48</ele>
        <time>2023-09-09T16:54:58Z</time>
      </trkpt>
      <trkpt lat="46.315340800210834" lon="8.251531720161438">
        <ele>1690.79</ele>
        <time>2023-09-09T16:55:10Z</time>
      </trkpt>
      <trkpt lat="46.315319510176778" lon="8.251554435119033">
        <ele>1690.1900000000001</ele>
        <time>2023-09-09T16:55:13Z</time>
      </trkpt>
      <trkpt lat="46.315252538770437" lon="8.251657700166106">
        <ele>1688.5999999999999</ele>
        <time>2023-09-09T16:55:25Z</time>
      </trkpt>
      <trkpt lat="46.315193278715014" lon="8.251763731241226">
        <ele>1686.6199999999999</ele>
        <time>2023-09-09T16:55:37Z</time>
      </trkpt>
      <trkpt lat="46.315136281773448" lon="8.251935644075275">
        <ele>1684.52</ele>
        <time>2023-09-09T16:55:51Z</time>
      </trkpt>
      <trkpt lat="46.315126726403832" lon="8.25199750252068">
        <ele>1683.78</ele>
        <time>2023-09-09T16:56:05Z</time>
      </trkpt>
      <trkpt lat="46.315125888213515" lon="8.252003956586123">
        <ele>1683.5799999999999</ele>
        <time>2023-09-09T16:56:06Z</time>
      </trkpt>
      <trkpt lat="46.315125972032547" lon="8.251985684037209">
        <ele>1684.71</ele>
        <time>2023-09-09T16:56:14Z</time>
      </trkpt>
      <trkpt lat="46.315157739445567" lon="8.252039328217506">
        <ele>1681.79</ele>
        <time>2023-09-09T16:56:28Z</time>
      </trkpt>
      <trkpt lat="46.315172407776117" lon="8.252132954075933">
        <ele>1678.8900000000001</ele>
        <time>2023-09-09T16:56:42Z</time>
      </trkpt>
      <trkpt lat="46.315152626484632" lon="8.252214174717665">
        <ele>1676.0899999999999</ele>
        <time>2023-09-09T16:56:56Z</time>
      </trkpt>
      <trkpt lat="46.315148938447237" lon="8.252306459471583">
        <ele>1673.51</ele>
        <time>2023-09-09T16:57:09Z</time>
      </trkpt>
      <trkpt lat="46.315146759152412" lon="8.252379968762398">
        <ele>1670.8800000000001</ele>
        <time>2023-09-09T16:57:22Z</time>
      </trkpt>
      <trkpt lat="46.315179029479623" lon="8.252442078664899">
        <ele>1667.77</ele>
        <time>2023-09-09T16:57:32Z</time>
      </trkpt>
      <trkpt lat="46.315181879326701" lon="8.252507289871573">
        <ele>1665.5799999999999</ele>
        <time>2023-09-09T16:57:40Z</time>
      </trkpt>
      <trkpt lat="46.315201744437218" lon="8.252586666494608">
        <ele>1662.6500000000001</ele>
        <time>2023-09-09T16:57:50Z</time>
      </trkpt>
      <trkpt lat="46.315202079713345" lon="8.252577362582088">
        <ele>1662.8599999999999</ele>
        <time>2023-09-09T16:58:06Z</time>
      </trkpt>
      <trkpt lat="46.315196547657251" lon="8.252583313733339">
        <ele>1662.76</ele>
        <time>2023-09-09T16:58:24Z</time>
      </trkpt>
      <trkpt lat="46.315197888761759" lon="8.252587839961052">
        <ele>1662.8299999999999</ele>
        <time>2023-09-09T16:58:37Z</time>
      </trkpt>
      <trkpt lat="46.315204678103328" lon="8.252660343423486">
        <ele>1661.6199999999999</ele>
        <time>2023-09-09T16:58:54Z</time>
      </trkpt>
      <trkpt lat="46.315222447738051" lon="8.252763105556369">
        <ele>1659.6700000000001</ele>
        <time>2023-09-09T16:59:04Z</time>
      </trkpt>
      <trkpt lat="46.315227225422859" lon="8.252812307327986">
        <ele>1659.0899999999999</ele>
        <time>2023-09-09T16:59:08Z</time>
      </trkpt>
      <trkpt lat="46.315241893753409" lon="8.252902748063207">
        <ele>1658.25</ele>
        <time>2023-09-09T16:59:20Z</time>
      </trkpt>
      <trkpt lat="46.315240971744061" lon="8.252907358109951">
        <ele>1657.5999999999999</ele>
        <time>2023-09-09T16:59:29Z</time>
      </trkpt>
      <trkpt lat="46.315283970907331" lon="8.252944489941001">
        <ele>1657.97</ele>
        <time>2023-09-09T17:00:33Z</time>
      </trkpt>
      <trkpt lat="46.315336609259248" lon="8.253056975081563">
        <ele>1657.6400000000001</ele>
        <time>2023-09-09T17:00:44Z</time>
      </trkpt>
      <trkpt lat="46.315337531268597" lon="8.253219164907932">
        <ele>1656.8399999999999</ele>
        <time>2023-09-09T17:00:56Z</time>
      </trkpt>
      <trkpt lat="46.315334346145391" lon="8.253242550417781">
        <ele>1656.45</ele>
        <time>2023-09-09T17:00:58Z</time>
      </trkpt>
      <trkpt lat="46.315279193222523" lon="8.253423431888223">
        <ele>1655.6600000000001</ele>
        <time>2023-09-09T17:01:11Z</time>
      </trkpt>
      <trkpt lat="46.315232086926699" lon="8.253563577309251">
        <ele>1655.24</ele>
        <time>2023-09-09T17:01:21Z</time>
      </trkpt>
      <trkpt lat="46.315252454951406" lon="8.253841102123261">
        <ele>1654.51</ele>
        <time>2023-09-09T17:01:40Z</time>
      </trkpt>
      <trkpt lat="46.315237199887633" lon="8.254064731299877">
        <ele>1653.9100000000001</ele>
        <time>2023-09-09T17:01:56Z</time>
      </trkpt>
      <trkpt lat="46.315239882096648" lon="8.254309063777328">
        <ele>1653.01</ele>
        <time>2023-09-09T17:02:13Z</time>
      </trkpt>
      <trkpt lat="46.31525807082653" lon="8.254487346857786">
        <ele>1652.6199999999999</ele>
        <time>2023-09-09T17:02:27Z</time>
      </trkpt>
      <trkpt lat="46.315263686701655" lon="8.254492124542594">
        <ele>1652.76</ele>
        <time>2023-09-09T17:02:32Z</time>
      </trkpt>
      <trkpt lat="46.315273074433208" lon="8.254586001858115">
        <ele>1652.3299999999999</ele>
        <time>2023-09-09T17:02:45Z</time>
      </trkpt>
      <trkpt lat="46.315275002270937" lon="8.25459941290319">
        <ele>1652.3299999999999</ele>
        <time>2023-09-09T17:02:51Z</time>
      </trkpt>
      <trkpt lat="46.315285144373775" lon="8.254728158935905">
        <ele>1652.0699999999999</ele>
        <time>2023-09-09T17:02:59Z</time>
      </trkpt>
      <trkpt lat="46.3153010699898" lon="8.255022363737226">
        <ele>1651.51</ele>
        <time>2023-09-09T17:03:16Z</time>
      </trkpt>
      <trkpt lat="46.315334010869265" lon="8.255303241312504">
        <ele>1650.8399999999999</ele>
        <time>2023-09-09T17:03:34Z</time>
      </trkpt>
      <trkpt lat="46.315337531268597" lon="8.255533408373594">
        <ele>1650.4100000000001</ele>
        <time>2023-09-09T17:03:49Z</time>
      </trkpt>
      <trkpt lat="46.315310792997479" lon="8.255811017006636">
        <ele>1650.01</ele>
        <time>2023-09-09T17:04:07Z</time>
      </trkpt>
      <trkpt lat="46.315295957028866" lon="8.256071861833334">
        <ele>1649.3099999999999</ele>
        <time>2023-09-09T17:04:24Z</time>
      </trkpt>
      <trkpt lat="46.315306099131703" lon="8.256369587033987">
        <ele>1648.0799999999999</ele>
        <time>2023-09-09T17:04:43Z</time>
      </trkpt>
      <trkpt lat="46.315343147143722" lon="8.256612746044993">
        <ele>1647.72</ele>
        <time>2023-09-09T17:04:59Z</time>
      </trkpt>
      <trkpt lat="46.315389163792133" lon="8.256792956963182">
        <ele>1647.3399999999999</ele>
        <time>2023-09-09T17:05:11Z</time>
      </trkpt>
      <trkpt lat="46.315422775223851" lon="8.256977275013924">
        <ele>1647.0799999999999</ele>
        <time>2023-09-09T17:05:26Z</time>
      </trkpt>
      <trkpt lat="46.315426966175437" lon="8.256991943344474">
        <ele>1647.1300000000001</ele>
        <time>2023-09-09T17:05:29Z</time>
      </trkpt>
      <trkpt lat="46.31544129922986" lon="8.257223619148135">
        <ele>1646.79</ele>
        <time>2023-09-09T17:05:44Z</time>
      </trkpt>
      <trkpt lat="46.315452698618174" lon="8.257460659369826">
        <ele>1646.6600000000001</ele>
        <time>2023-09-09T17:05:59Z</time>
      </trkpt>
      <trkpt lat="46.315443562343717" lon="8.25769828632474">
        <ele>1646.3699999999999</ele>
        <time>2023-09-09T17:06:15Z</time>
      </trkpt>
      <trkpt lat="46.315383212640882" lon="8.257919065654278">
        <ele>1646.1199999999999</ele>
        <time>2023-09-09T17:06:31Z</time>
      </trkpt>
      <trkpt lat="46.315288748592138" lon="8.258147388696671">
        <ele>1645.8399999999999</ele>
        <time>2023-09-09T17:06:48Z</time>
      </trkpt>
      <trkpt lat="46.315178861841559" lon="8.258257526904345">
        <ele>1647.1199999999999</ele>
        <time>2023-09-09T17:07:01Z</time>
      </trkpt>
      <trkpt lat="46.315060509368777" lon="8.258331790566444">
        <ele>1647.22</ele>
        <time>2023-09-09T17:07:14Z</time>
      </trkpt>
      <trkpt lat="46.315048187971115" lon="8.258366659283638">
        <ele>1646.79</ele>
        <time>2023-09-09T17:07:17Z</time>
      </trkpt>
      <trkpt lat="46.315090265125036" lon="8.258618284016848">
        <ele>1645.47</ele>
        <time>2023-09-09T17:07:34Z</time>
      </trkpt>
      <trkpt lat="46.31512907333672" lon="8.258786760270596">
        <ele>1644.98</ele>
        <time>2023-09-09T17:07:45Z</time>
      </trkpt>
      <trkpt lat="46.315127396956086" lon="8.25906403362751">
        <ele>1644.55</ele>
        <time>2023-09-09T17:08:02Z</time>
      </trkpt>
      <trkpt lat="46.315095964819193" lon="8.259293949231505">
        <ele>1644.0999999999999</ele>
        <time>2023-09-09T17:08:17Z</time>
      </trkpt>
      <trkpt lat="46.315075429156423" lon="8.259507101029158">
        <ele>1643.96</ele>
        <time>2023-09-09T17:08:31Z</time>
      </trkpt>
      <trkpt lat="46.315104346722364" lon="8.25973542407155">
        <ele>1644.28</ele>
        <time>2023-09-09T17:08:46Z</time>
      </trkpt>
      <trkpt lat="46.315162349492311" lon="8.259984198957682">
        <ele>1643.8299999999999</ele>
        <time>2023-09-09T17:09:03Z</time>
      </trkpt>
      <trkpt lat="46.31521943025291" lon="8.260223837569356">
        <ele>1643.3499999999999</ele>
        <time>2023-09-09T17:09:19Z</time>
      </trkpt>
      <trkpt lat="46.315212892368436" lon="8.260447466745973">
        <ele>1642.9000000000001</ele>
        <time>2023-09-09T17:09:35Z</time>
      </trkpt>
      <trkpt lat="46.315197888761759" lon="8.260505385696888">
        <ele>1642.9400000000001</ele>
        <time>2023-09-09T17:09:46Z</time>
      </trkpt>
      <trkpt lat="46.315206773579121" lon="8.260578475892544">
        <ele>1643.1600000000001</ele>
        <time>2023-09-09T17:09:57Z</time>
      </trkpt>
      <trkpt lat="46.315210126340389" lon="8.260603118687868">
        <ele>1643.0599999999999</ele>
        <time>2023-09-09T17:10:03Z</time>
      </trkpt>
      <trkpt lat="46.315327305346727" lon="8.260708060115576">
        <ele>1643.0699999999999</ele>
        <time>2023-09-09T17:10:18Z</time>
      </trkpt>
      <trkpt lat="46.315512210130692" lon="8.260734714567661">
        <ele>1643</ele>
        <time>2023-09-09T17:10:35Z</time>
      </trkpt>
      <trkpt lat="46.315630311146379" lon="8.260746616870165">
        <ele>1643.5599999999999</ele>
        <time>2023-09-09T17:10:47Z</time>
      </trkpt>
      <trkpt lat="46.315664257854223" lon="8.260750724002719">
        <ele>1643.9300000000001</ele>
        <time>2023-09-09T17:10:51Z</time>
      </trkpt>
      <trkpt lat="46.315801553428173" lon="8.260730942711234">
        <ele>1645.0799999999999</ele>
        <time>2023-09-09T17:11:05Z</time>
      </trkpt>
      <trkpt lat="46.315950248390436" lon="8.260747455060482">
        <ele>1645.05</ele>
        <time>2023-09-09T17:11:20Z</time>
      </trkpt>
      <trkpt lat="46.316087963059545" lon="8.260738989338279">
        <ele>1644.51</ele>
        <time>2023-09-09T17:11:32Z</time>
      </trkpt>
      <trkpt lat="46.316259456798434" lon="8.260721554979682">
        <ele>1644.0999999999999</ele>
        <time>2023-09-09T17:11:47Z</time>
      </trkpt>
      <trkpt lat="46.316391974687576" lon="8.260725410655141">
        <ele>1643.8099999999999</ele>
        <time>2023-09-09T17:11:59Z</time>
      </trkpt>
      <trkpt lat="46.316587189212441" lon="8.26071853749454">
        <ele>1643.72</ele>
        <time>2023-09-09T17:12:16Z</time>
      </trkpt>
      <trkpt lat="46.316743763163686" lon="8.260743767023087">
        <ele>1643.76</ele>
        <time>2023-09-09T17:12:30Z</time>
      </trkpt>
      <trkpt lat="46.316908216103911" lon="8.26078400015831">
        <ele>1644.02</ele>
        <time>2023-09-09T17:12:45Z</time>
      </trkpt>
      <trkpt lat="46.317083816975355" lon="8.260847199708223">
        <ele>1643.9300000000001</ele>
        <time>2023-09-09T17:13:01Z</time>
      </trkpt>
      <trkpt lat="46.317243408411741" lon="8.260920373722911">
        <ele>1643.99</ele>
        <time>2023-09-09T17:13:16Z</time>
      </trkpt>
      <trkpt lat="46.317421440035105" lon="8.261051969602704">
        <ele>1644.1099999999999</ele>
        <time>2023-09-09T17:13:34Z</time>
      </trkpt>
      <trkpt lat="46.317575164139271" lon="8.261190354824066">
        <ele>1644.02</ele>
        <time>2023-09-09T17:13:50Z</time>
      </trkpt>
      <trkpt lat="46.317787645384669" lon="8.261319603770971">
        <ele>1644.1500000000001</ele>
        <time>2023-09-09T17:14:10Z</time>
      </trkpt>
      <trkpt lat="46.317949080839753" lon="8.261354472488165">
        <ele>1644.1099999999999</ele>
        <time>2023-09-09T17:14:25Z</time>
      </trkpt>
      <trkpt lat="46.31812728010118" lon="8.261359669268131">
        <ele>1644.3699999999999</ele>
        <time>2023-09-09T17:14:40Z</time>
      </trkpt>
      <trkpt lat="46.318386280909181" lon="8.261332763358951">
        <ele>1644.3199999999999</ele>
        <time>2023-09-09T17:15:01Z</time>
      </trkpt>
      <trkpt lat="46.318609910085797" lon="8.261327063664794">
        <ele>1644.1600000000001</ele>
        <time>2023-09-09T17:15:18Z</time>
      </trkpt>
      <trkpt lat="46.318816104903817" lon="8.261447343975306">
        <ele>1644.52</ele>
        <time>2023-09-09T17:15:35Z</time>
      </trkpt>
      <trkpt lat="46.319058425724506" lon="8.261591847985983">
        <ele>1644.9100000000001</ele>
        <time>2023-09-09T17:15:55Z</time>
      </trkpt>
      <trkpt lat="46.319225560873747" lon="8.261685976758599">
        <ele>1645.6400000000001</ele>
        <time>2023-09-09T17:16:09Z</time>
      </trkpt>
      <trkpt lat="46.319439550861716" lon="8.261823523789644">
        <ele>1646.3</ele>
        <time>2023-09-09T17:16:28Z</time>
      </trkpt>
      <trkpt lat="46.319634178653359" lon="8.26193424873054">
        <ele>1646.3599999999999</ele>
        <time>2023-09-09T17:16:44Z</time>
      </trkpt>
      <trkpt lat="46.319802654907107" lon="8.262029215693474">
        <ele>1646.79</ele>
        <time>2023-09-09T17:16:59Z</time>
      </trkpt>
      <trkpt lat="46.319960737600923" lon="8.262107335031033">
        <ele>1647.5</ele>
        <time>2023-09-09T17:17:13Z</time>
      </trkpt>
      <trkpt lat="46.320074899122119" lon="8.262153435498476">
        <ele>1647.79</ele>
        <time>2023-09-09T17:17:24Z</time>
      </trkpt>
      <trkpt lat="46.320234071463346" lon="8.262142539024353">
        <ele>1648.23</ele>
        <time>2023-09-09T17:17:38Z</time>
      </trkpt>
      <trkpt lat="46.320286458358169" lon="8.262070287019014">
        <ele>1648.52</ele>
        <time>2023-09-09T17:17:45Z</time>
      </trkpt>
      <trkpt lat="46.320290649309754" lon="8.262009853497148">
        <ele>1648.8599999999999</ele>
        <time>2023-09-09T17:17:49Z</time>
      </trkpt>
      <trkpt lat="46.320280088111758" lon="8.261810448020697">
        <ele>1649.1400000000001</ele>
        <time>2023-09-09T17:18:01Z</time>
      </trkpt>
      <trkpt lat="46.320231473073363" lon="8.261551111936569">
        <ele>1648.53</ele>
        <time>2023-09-09T17:18:17Z</time>
      </trkpt>
      <trkpt lat="46.320220660418272" lon="8.261309545487166">
        <ele>1648.2</ele>
        <time>2023-09-09T17:18:31Z</time>
      </trkpt>
      <trkpt lat="46.320240441709757" lon="8.261121287941933">
        <ele>1648.8800000000001</ele>
        <time>2023-09-09T17:18:43Z</time>
      </trkpt>
      <trkpt lat="46.320272041484714" lon="8.260997906327248">
        <ele>1649.72</ele>
        <time>2023-09-09T17:18:53Z</time>
      </trkpt>
      <trkpt lat="46.320353597402573" lon="8.26093059964478">
        <ele>1651.47</ele>
        <time>2023-09-09T17:19:07Z</time>
      </trkpt>
      <trkpt lat="46.32037689909339" lon="8.260926995426416">
        <ele>1651.5</ele>
        <time>2023-09-09T17:19:23Z</time>
      </trkpt>
      <trkpt lat="46.320375306531787" lon="8.260924397036433">
        <ele>1651.0599999999999</ele>
        <time>2023-09-09T17:20:21Z</time>
      </trkpt>
    </trkseg>
  </trk>

</gpx>